<?xml version='1.0' encoding='UTF-8'?><gpx version="1.1" creator="JPX - https://github.com/jenetics/jpx" xmlns="http://www.topografix.com/GPX/1/1"><trk><trkseg><trkpt lat="43.13249026429222" lon="12.3628595005836"><ele>421.0</ele><time>2026-04-04T07:57:40.001Z</time></trkpt><trkpt lat="43.13244068528858" lon="12.362799576322093"><ele>421.0</ele><time>2026-04-04T07:57:46.001Z</time></trkpt><trkpt lat="43.132592889305876" lon="12.362776921454767"><ele>421.0</ele><time>2026-04-04T07:58:28Z</time></trkpt><trkpt lat="43.132582005593996" lon="12.36268212745671"><ele>421.0</ele><time>2026-04-04T07:58:41Z</time></trkpt><trkpt lat="43.132514615256845" lon="12.362693796261635"><ele>421.0</ele><time>2026-04-04T07:58:47Z</time></trkpt><trkpt lat="43.13241845510027" lon="12.362718579254825"><ele>420.1666666666667</ele><time>2026-04-04T07:58:50Z</time></trkpt><trkpt lat="43.13238822177093" lon="12.362801410441815"><ele>419.33333333333337</ele><time>2026-04-04T07:58:51Z</time></trkpt><trkpt lat="43.13236610533526" lon="12.362890416039907"><ele>418.5</ele><time>2026-04-04T07:58:52Z</time></trkpt><trkpt lat="43.132328019198965" lon="12.362991408613224"><ele>417.66666666666663</ele><time>2026-04-04T07:58:53Z</time></trkpt><trkpt lat="43.13229291238524" lon="12.363098420759318"><ele>416.8333333333333</ele><time>2026-04-04T07:58:54Z</time></trkpt><trkpt lat="43.13225367305511" lon="12.363211939287366"><ele>416.0</ele><time>2026-04-04T07:58:55Z</time></trkpt><trkpt lat="43.13222459128585" lon="12.363330145944106"><ele>416.0</ele><time>2026-04-04T07:58:56Z</time></trkpt><trkpt lat="43.13219208134222" lon="12.363459210498041"><ele>416.0</ele><time>2026-04-04T07:58:57Z</time></trkpt><trkpt lat="43.132165187285736" lon="12.363569665097913"><ele>416.0</ele><time>2026-04-04T07:58:58Z</time></trkpt><trkpt lat="43.13211646161928" lon="12.363712363283184"><ele>416.0</ele><time>2026-04-04T07:58:59Z</time></trkpt><trkpt lat="43.132048213561156" lon="12.363859629585885"><ele>416.0</ele><time>2026-04-04T07:59:00Z</time></trkpt><trkpt lat="43.13198081446688" lon="12.36398609124577"><ele>418.0</ele><time>2026-04-04T07:59:01Z</time></trkpt><trkpt lat="43.13193119062114" lon="12.364115803813872"><ele>420.0</ele><time>2026-04-04T07:59:02Z</time></trkpt><trkpt lat="43.131886481313416" lon="12.364246255541245"><ele>422.0</ele><time>2026-04-04T07:59:03Z</time></trkpt><trkpt lat="43.131822158784765" lon="12.3643724466341"><ele>424.0</ele><time>2026-04-04T07:59:04Z</time></trkpt><trkpt lat="43.13177518990071" lon="12.364513021443418"><ele>426.0</ele><time>2026-04-04T07:59:05Z</time></trkpt><trkpt lat="43.13171992426948" lon="12.36464879685667"><ele>428.0</ele><time>2026-04-04T07:59:05.999Z</time></trkpt><trkpt lat="43.13166019949026" lon="12.364786118413445"><ele>430.0</ele><time>2026-04-04T07:59:06.999Z</time></trkpt><trkpt lat="43.13160528017214" lon="12.364933806722998"><ele>432.0</ele><time>2026-04-04T07:59:07.999Z</time></trkpt><trkpt lat="43.13156065886715" lon="12.36508530263502"><ele>434.0</ele><time>2026-04-04T07:59:08.999Z</time></trkpt><trkpt lat="43.13150956562907" lon="12.365237552759904"><ele>434.0</ele><time>2026-04-04T07:59:09.999Z</time></trkpt><trkpt lat="43.131469312255675" lon="12.365399135891765"><ele>434.0</ele><time>2026-04-04T07:59:10.999Z</time></trkpt><trkpt lat="43.13143884770483" lon="12.365566109336202"><ele>434.0</ele><time>2026-04-04T07:59:11.999Z</time></trkpt><trkpt lat="43.131398200606284" lon="12.36573364024679"><ele>434.0</ele><time>2026-04-04T07:59:12.999Z</time></trkpt><trkpt lat="43.13135192781148" lon="12.365884710192327"><ele>438.0</ele><time>2026-04-04T07:59:13.999Z</time></trkpt><trkpt lat="43.13128361358108" lon="12.366067433258435"><ele>442.0</ele><time>2026-04-04T07:59:14.999Z</time></trkpt><trkpt lat="43.13126785252558" lon="12.366233788002887"><ele>446.0</ele><time>2026-04-04T07:59:15.999Z</time></trkpt><trkpt lat="43.13120431433492" lon="12.366380050353689"><ele>450.0</ele><time>2026-04-04T07:59:16.999Z</time></trkpt><trkpt lat="43.13113169000156" lon="12.366527201806203"><ele>451.75</ele><time>2026-04-04T07:59:17.999Z</time></trkpt><trkpt lat="43.13106095330568" lon="12.366668927783223"><ele>453.5</ele><time>2026-04-04T07:59:18.999Z</time></trkpt><trkpt lat="43.13097637950948" lon="12.366790135088468"><ele>455.25</ele><time>2026-04-04T07:59:19.999Z</time></trkpt><trkpt lat="43.130906627740345" lon="12.366957744652463"><ele>457.0</ele><time>2026-04-04T07:59:20.999Z</time></trkpt><trkpt lat="43.130823368374536" lon="12.367119988086673"><ele>457.33333333333337</ele><time>2026-04-04T07:59:21.999Z</time></trkpt><trkpt lat="43.13072855835264" lon="12.367279681625975"><ele>457.66666666666663</ele><time>2026-04-04T07:59:22.999Z</time></trkpt><trkpt lat="43.130635872868204" lon="12.367450753676666"><ele>458.0</ele><time>2026-04-04T07:59:23.999Z</time></trkpt><trkpt lat="43.13054567204889" lon="12.367635417955"><ele>454.66666666666663</ele><time>2026-04-04T07:59:24.999Z</time></trkpt><trkpt lat="43.13046186532196" lon="12.367846909310664"><ele>451.33333333333337</ele><time>2026-04-04T07:59:25.999Z</time></trkpt><trkpt lat="43.13038938154592" lon="12.368072865298885"><ele>448.0</ele><time>2026-04-04T07:59:26.999Z</time></trkpt><trkpt lat="43.130325470207474" lon="12.368306841847799"><ele>448.0</ele><time>2026-04-04T07:59:27.999Z</time></trkpt><trkpt lat="43.13027985567608" lon="12.368548726677"><ele>448.0</ele><time>2026-04-04T07:59:28.999Z</time></trkpt><trkpt lat="43.13024105042285" lon="12.368790281448064"><ele>448.0</ele><time>2026-04-04T07:59:29.999Z</time></trkpt><trkpt lat="43.13018974697125" lon="12.36903580264204"><ele>449.33333333333337</ele><time>2026-04-04T07:59:30.999Z</time></trkpt><trkpt lat="43.1301749452263" lon="12.369289577440142"><ele>450.66666666666663</ele><time>2026-04-04T07:59:32Z</time></trkpt><trkpt lat="43.130167802752226" lon="12.369527712183045"><ele>452.0</ele><time>2026-04-04T07:59:33Z</time></trkpt><trkpt lat="43.13017755361093" lon="12.369761171065397"><ele>452.0</ele><time>2026-04-04T07:59:34Z</time></trkpt><trkpt lat="43.130172625144695" lon="12.370013218851504"><ele>452.0</ele><time>2026-04-04T07:59:35Z</time></trkpt><trkpt lat="43.13015709013741" lon="12.370248287180909"><ele>452.0</ele><time>2026-04-04T07:59:36Z</time></trkpt><trkpt lat="43.130115286964305" lon="12.370482610119508"><ele>451.0</ele><time>2026-04-04T07:59:37Z</time></trkpt><trkpt lat="43.13005616729811" lon="12.3707312395986"><ele>450.0</ele><time>2026-04-04T07:59:38Z</time></trkpt><trkpt lat="43.130014188431694" lon="12.37095493530127"><ele>449.0</ele><time>2026-04-04T07:59:39Z</time></trkpt><trkpt lat="43.1299527416481" lon="12.371189731347156"><ele>453.66666666666663</ele><time>2026-04-04T07:59:40Z</time></trkpt><trkpt lat="43.12988388154533" lon="12.371418916448757"><ele>458.33333333333337</ele><time>2026-04-04T07:59:41Z</time></trkpt><trkpt lat="43.1298184852452" lon="12.371642449308824"><ele>463.0</ele><time>2026-04-04T07:59:42Z</time></trkpt><trkpt lat="43.12975363797783" lon="12.371857641778462"><ele>463.0</ele><time>2026-04-04T07:59:43Z</time></trkpt><trkpt lat="43.12969973659278" lon="12.372039547329397"><ele>463.0</ele><time>2026-04-04T07:59:44Z</time></trkpt><trkpt lat="43.129631693081016" lon="12.372198029393518"><ele>463.0</ele><time>2026-04-04T07:59:45Z</time></trkpt><trkpt lat="43.12953528067959" lon="12.372300861257438"><ele>463.0</ele><time>2026-04-04T07:59:46Z</time></trkpt><trkpt lat="43.12941711855287" lon="12.372411004800155"><ele>460.33333333333337</ele><time>2026-04-04T07:59:47Z</time></trkpt><trkpt lat="43.12930241433221" lon="12.372529592024831"><ele>457.66666666666663</ele><time>2026-04-04T07:59:48Z</time></trkpt><trkpt lat="43.12916020571861" lon="12.372636637035423"><ele>455.0</ele><time>2026-04-04T07:59:49Z</time></trkpt><trkpt lat="43.129024908303606" lon="12.372746670203526"><ele>455.0</ele><time>2026-04-04T07:59:50Z</time></trkpt><trkpt lat="43.1289085127586" lon="12.372875304892126"><ele>455.0</ele><time>2026-04-04T07:59:51Z</time></trkpt><trkpt lat="43.12876314822373" lon="12.37299853694903"><ele>455.0</ele><time>2026-04-04T07:59:52Z</time></trkpt><trkpt lat="43.12864402945687" lon="12.37310081683415"><ele>455.0</ele><time>2026-04-04T07:59:53Z</time></trkpt><trkpt lat="43.12853155739776" lon="12.373192060234114"><ele>455.0</ele><time>2026-04-04T07:59:54Z</time></trkpt><trkpt lat="43.12840878034492" lon="12.37322411592551"><ele>455.0</ele><time>2026-04-04T07:59:55Z</time></trkpt><trkpt lat="43.12828373714709" lon="12.373264539073624"><ele>455.0</ele><time>2026-04-04T07:59:56Z</time></trkpt><trkpt lat="43.12814252228635" lon="12.373297458892333"><ele>455.0</ele><time>2026-04-04T07:59:57Z</time></trkpt><trkpt lat="43.128012819470904" lon="12.373384249614439"><ele>455.0</ele><time>2026-04-04T07:59:58Z</time></trkpt><trkpt lat="43.127915906296124" lon="12.37354959838647"><ele>455.0</ele><time>2026-04-04T07:59:59Z</time></trkpt><trkpt lat="43.12782980956749" lon="12.373713336587018"><ele>455.0</ele><time>2026-04-04T08:00:00Z</time></trkpt><trkpt lat="43.12775673126878" lon="12.37388570666361"><ele>451.5</ele><time>2026-04-04T08:00:01Z</time></trkpt><trkpt lat="43.127713203236176" lon="12.374055823086"><ele>448.0</ele><time>2026-04-04T08:00:02Z</time></trkpt><trkpt lat="43.12765801153226" lon="12.374217651951579"><ele>444.5</ele><time>2026-04-04T08:00:03Z</time></trkpt><trkpt lat="43.127587705490086" lon="12.374366154613401"><ele>441.0</ele><time>2026-04-04T08:00:04Z</time></trkpt><trkpt lat="43.127541832180306" lon="12.374516100012414"><ele>441.0</ele><time>2026-04-04T08:00:05Z</time></trkpt><trkpt lat="43.12747153309031" lon="12.374632073257086"><ele>441.0</ele><time>2026-04-04T08:00:06Z</time></trkpt><trkpt lat="43.12739539366091" lon="12.374760710612039"><ele>441.0</ele><time>2026-04-04T08:00:07Z</time></trkpt><trkpt lat="43.12731694052459" lon="12.37489411180865"><ele>441.0</ele><time>2026-04-04T08:00:08Z</time></trkpt><trkpt lat="43.127311924363475" lon="12.375051266064688"><ele>440.1666666666667</ele><time>2026-04-04T08:00:09Z</time></trkpt><trkpt lat="43.127260248440486" lon="12.375170265247236"><ele>439.33333333333337</ele><time>2026-04-04T08:00:10Z</time></trkpt><trkpt lat="43.12721227118427" lon="12.37528187961658"><ele>438.5</ele><time>2026-04-04T08:00:11Z</time></trkpt><trkpt lat="43.127172554335786" lon="12.375350637196934"><ele>437.6666666666667</ele><time>2026-04-04T08:00:12Z</time></trkpt><trkpt lat="43.12712520147298" lon="12.375409720660329"><ele>436.83333333333337</ele><time>2026-04-04T08:00:15Z</time></trkpt><trkpt lat="43.127063585873515" lon="12.375535686235754"><ele>436.0</ele><time>2026-04-04T08:00:17Z</time></trkpt><trkpt lat="43.12700763880137" lon="12.375614550787077"><ele>436.0</ele><time>2026-04-04T08:00:18Z</time></trkpt><trkpt lat="43.126956071314225" lon="12.375727428470963"><ele>436.0</ele><time>2026-04-04T08:00:19Z</time></trkpt><trkpt lat="43.126859317199454" lon="12.375824661671787"><ele>436.0</ele><time>2026-04-04T08:00:20Z</time></trkpt><trkpt lat="43.12673297847522" lon="12.375891748951139"><ele>436.0</ele><time>2026-04-04T08:00:21Z</time></trkpt><trkpt lat="43.126615654898316" lon="12.375961863879837"><ele>434.6666666666667</ele><time>2026-04-04T08:00:22Z</time></trkpt><trkpt lat="43.12642944219073" lon="12.376010232993528"><ele>433.33333333333337</ele><time>2026-04-04T08:00:23Z</time></trkpt><trkpt lat="43.12628537785447" lon="12.376094192136465"><ele>432.0</ele><time>2026-04-04T08:00:24Z</time></trkpt><trkpt lat="43.12611426347677" lon="12.37611130219584"><ele>432.0</ele><time>2026-04-04T08:00:25Z</time></trkpt><trkpt lat="43.12595882557663" lon="12.376142397112693"><ele>432.0</ele><time>2026-04-04T08:00:26Z</time></trkpt><trkpt lat="43.125799573011044" lon="12.376195514513348"><ele>432.0</ele><time>2026-04-04T08:00:27Z</time></trkpt><trkpt lat="43.125648177049946" lon="12.37626366866748"><ele>430.66666666666663</ele><time>2026-04-04T08:00:28Z</time></trkpt><trkpt lat="43.125478069740076" lon="12.37632678960268"><ele>429.3333333333333</ele><time>2026-04-04T08:00:29Z</time></trkpt><trkpt lat="43.12531539144903" lon="12.376389004961908"><ele>428.0</ele><time>2026-04-04T08:00:30Z</time></trkpt><trkpt lat="43.1251592306692" lon="12.376449109685415"><ele>434.3333333333333</ele><time>2026-04-04T08:00:31Z</time></trkpt><trkpt lat="43.12500579122194" lon="12.376520724317267"><ele>440.66666666666663</ele><time>2026-04-04T08:00:32Z</time></trkpt><trkpt lat="43.12483863093466" lon="12.3766033117845"><ele>447.0</ele><time>2026-04-04T08:00:33Z</time></trkpt><trkpt lat="43.12467894562208" lon="12.376663289098026"><ele>448.0</ele><time>2026-04-04T08:00:34Z</time></trkpt><trkpt lat="43.12452192209417" lon="12.376708293278938"><ele>449.0</ele><time>2026-04-04T08:00:35Z</time></trkpt><trkpt lat="43.124368147475515" lon="12.3767299707304"><ele>450.0</ele><time>2026-04-04T08:00:36Z</time></trkpt><trkpt lat="43.12425001766398" lon="12.376808692965337"><ele>451.0</ele><time>2026-04-04T08:00:37Z</time></trkpt><trkpt lat="43.12414907009641" lon="12.376860799573267"><ele>451.0</ele><time>2026-04-04T08:00:38Z</time></trkpt><trkpt lat="43.12407949183309" lon="12.376946161972878"><ele>451.0</ele><time>2026-04-04T08:00:39Z</time></trkpt><trkpt lat="43.12402228746363" lon="12.377069785150475"><ele>451.0</ele><time>2026-04-04T08:00:40Z</time></trkpt><trkpt lat="43.123986281566886" lon="12.377215481448752"><ele>451.0</ele><time>2026-04-04T08:00:41Z</time></trkpt><trkpt lat="43.12393966950542" lon="12.377430781028066"><ele>450.0</ele><time>2026-04-04T08:00:42Z</time></trkpt><trkpt lat="43.12390197633685" lon="12.377636415799774"><ele>449.0</ele><time>2026-04-04T08:00:43Z</time></trkpt><trkpt lat="43.12385474096019" lon="12.377835647985986"><ele>448.0</ele><time>2026-04-04T08:00:44Z</time></trkpt><trkpt lat="43.12380675002726" lon="12.37803876404963"><ele>454.0</ele><time>2026-04-04T08:00:45Z</time></trkpt><trkpt lat="43.12373361170731" lon="12.378225488510724"><ele>460.0</ele><time>2026-04-04T08:00:46Z</time></trkpt><trkpt lat="43.12364745359382" lon="12.378400685757368"><ele>466.0</ele><time>2026-04-04T08:00:47Z</time></trkpt><trkpt lat="43.123530023217384" lon="12.378538746334927"><ele>466.0</ele><time>2026-04-04T08:00:48Z</time></trkpt><trkpt lat="43.123393640888274" lon="12.378687490576022"><ele>466.0</ele><time>2026-04-04T08:00:49Z</time></trkpt><trkpt lat="43.12326612468348" lon="12.378824376322424"><ele>466.0</ele><time>2026-04-04T08:00:50Z</time></trkpt><trkpt lat="43.12314212239991" lon="12.378981108119701"><ele>469.33333333333337</ele><time>2026-04-04T08:00:51Z</time></trkpt><trkpt lat="43.123007231657056" lon="12.379126059444108"><ele>472.66666666666663</ele><time>2026-04-04T08:00:52Z</time></trkpt><trkpt lat="43.12288063688577" lon="12.379278294720258"><ele>476.0</ele><time>2026-04-04T08:00:53Z</time></trkpt><trkpt lat="43.12277411628258" lon="12.379441521725774"><ele>476.0</ele><time>2026-04-04T08:00:54Z</time></trkpt><trkpt lat="43.12267804025878" lon="12.379622441296144"><ele>476.0</ele><time>2026-04-04T08:00:55Z</time></trkpt><trkpt lat="43.12259850570471" lon="12.379789802801678"><ele>476.0</ele><time>2026-04-04T08:00:56Z</time></trkpt><trkpt lat="43.122537160089685" lon="12.379940401641406"><ele>476.0</ele><time>2026-04-04T08:00:57Z</time></trkpt><trkpt lat="43.122472876377614" lon="12.380038045356327"><ele>477.4</ele><time>2026-04-04T08:00:58Z</time></trkpt><trkpt lat="43.12244437493974" lon="12.380119669647787"><ele>478.8</ele><time>2026-04-04T08:00:59Z</time></trkpt><trkpt lat="43.12238687586871" lon="12.380226390360626"><ele>480.19999999999993</ele><time>2026-04-04T08:01:01Z</time></trkpt><trkpt lat="43.1223217183656" lon="12.380373979314612"><ele>481.59999999999997</ele><time>2026-04-04T08:01:11Z</time></trkpt><trkpt lat="43.122253835116354" lon="12.3804651778874"><ele>483.0</ele><time>2026-04-04T08:01:12Z</time></trkpt><trkpt lat="43.12216821026058" lon="12.380638987691958"><ele>488.0</ele><time>2026-04-04T08:01:13Z</time></trkpt><trkpt lat="43.12208785854188" lon="12.380823230175876"><ele>493.0</ele><time>2026-04-04T08:01:14Z</time></trkpt><trkpt lat="43.122013731137116" lon="12.381005378890299"><ele>498.0</ele><time>2026-04-04T08:01:15Z</time></trkpt><trkpt lat="43.12193468198762" lon="12.381203748379605"><ele>494.33333333333337</ele><time>2026-04-04T08:01:16Z</time></trkpt><trkpt lat="43.12185429132734" lon="12.381399295513008"><ele>490.6666666666667</ele><time>2026-04-04T08:01:17Z</time></trkpt><trkpt lat="43.12176970921148" lon="12.38159320188792"><ele>487.0</ele><time>2026-04-04T08:01:18Z</time></trkpt><trkpt lat="43.121674497707694" lon="12.381734831965867"><ele>487.5</ele><time>2026-04-04T08:01:19Z</time></trkpt><trkpt lat="43.12155391046312" lon="12.381850691614742"><ele>488.0</ele><time>2026-04-04T08:01:20Z</time></trkpt><trkpt lat="43.12145189843734" lon="12.38198313629832"><ele>488.5</ele><time>2026-04-04T08:01:21Z</time></trkpt><trkpt lat="43.12132677949877" lon="12.382081811407692"><ele>489.0</ele><time>2026-04-04T08:01:22Z</time></trkpt><trkpt lat="43.12119189679801" lon="12.382140344132765"><ele>489.0</ele><time>2026-04-04T08:01:23Z</time></trkpt><trkpt lat="43.12105270001744" lon="12.382113059698103"><ele>489.0</ele><time>2026-04-04T08:01:24Z</time></trkpt><trkpt lat="43.120943368493556" lon="12.382161682151503"><ele>489.0</ele><time>2026-04-04T08:01:25Z</time></trkpt><trkpt lat="43.12075689133678" lon="12.382304557566922"><ele>485.0</ele><time>2026-04-04T08:01:26Z</time></trkpt><trkpt lat="43.12063060781652" lon="12.38245309830801"><ele>481.0</ele><time>2026-04-04T08:01:27Z</time></trkpt><trkpt lat="43.12054134977921" lon="12.382589026911052"><ele>477.0</ele><time>2026-04-04T08:01:28Z</time></trkpt><trkpt lat="43.120456465385146" lon="12.382741505775732"><ele>473.0</ele><time>2026-04-04T08:01:29Z</time></trkpt><trkpt lat="43.12039058209665" lon="12.382885042334939"><ele>473.0</ele><time>2026-04-04T08:01:30Z</time></trkpt><trkpt lat="43.1203390742788" lon="12.383022952388307"><ele>472.99999999999994</ele><time>2026-04-04T08:01:31Z</time></trkpt><trkpt lat="43.12029085638038" lon="12.383139806782806"><ele>472.99999999999994</ele><time>2026-04-04T08:01:32Z</time></trkpt><trkpt lat="43.1202551944765" lon="12.383218663261848"><ele>473.0</ele><time>2026-04-04T08:01:33Z</time></trkpt><trkpt lat="43.12024276475453" lon="12.383327331734094"><ele>473.0</ele><time>2026-04-04T08:01:35Z</time></trkpt><trkpt lat="43.12033566169058" lon="12.383377364338575"><ele>473.0</ele><time>2026-04-04T08:01:36Z</time></trkpt><trkpt lat="43.12039561485328" lon="12.383421300895376"><ele>472.99999999999994</ele><time>2026-04-04T08:01:37Z</time></trkpt><trkpt lat="43.1205086090119" lon="12.38343314778676"><ele>472.99999999999994</ele><time>2026-04-04T08:01:38Z</time></trkpt><trkpt lat="43.12057417172333" lon="12.383538543787196"><ele>473.0</ele><time>2026-04-04T08:01:39Z</time></trkpt><trkpt lat="43.120650016848344" lon="12.383700491218207"><ele>473.0</ele><time>2026-04-04T08:01:40Z</time></trkpt><trkpt lat="43.12069736276308" lon="12.38389385241959"><ele>468.3333333333333</ele><time>2026-04-04T08:01:41Z</time></trkpt><trkpt lat="43.12075171132024" lon="12.384090989413332"><ele>463.66666666666663</ele><time>2026-04-04T08:01:42Z</time></trkpt><trkpt lat="43.12083508642739" lon="12.384263440463116"><ele>459.0</ele><time>2026-04-04T08:01:43Z</time></trkpt><trkpt lat="43.12095097672549" lon="12.38441406593681"><ele>459.0</ele><time>2026-04-04T08:01:44Z</time></trkpt><trkpt lat="43.12107196624668" lon="12.384539872270796"><ele>459.0</ele><time>2026-04-04T08:01:45Z</time></trkpt><trkpt lat="43.12118291129389" lon="12.384643765680728"><ele>459.0</ele><time>2026-04-04T08:01:46Z</time></trkpt><trkpt lat="43.12126877249012" lon="12.384740704714314"><ele>459.0</ele><time>2026-04-04T08:01:47Z</time></trkpt><trkpt lat="43.12131819211604" lon="12.3848281473221"><ele>462.0</ele><time>2026-04-04T08:01:48Z</time></trkpt><trkpt lat="43.12132769873715" lon="12.384929020014717"><ele>465.0</ele><time>2026-04-04T08:01:49Z</time></trkpt><trkpt lat="43.1212828638345" lon="12.38504627795937"><ele>468.0</ele><time>2026-04-04T08:01:50Z</time></trkpt><trkpt lat="43.12124983587956" lon="12.385217834097263"><ele>471.0</ele><time>2026-04-04T08:01:51Z</time></trkpt><trkpt lat="43.12118709594635" lon="12.385397494506575"><ele>474.0</ele><time>2026-04-04T08:01:52Z</time></trkpt><trkpt lat="43.121122905393605" lon="12.385579228332725"><ele>474.75</ele><time>2026-04-04T08:01:53Z</time></trkpt><trkpt lat="43.12112225835269" lon="12.385774386539389"><ele>475.5</ele><time>2026-04-04T08:01:54Z</time></trkpt><trkpt lat="43.121142075026135" lon="12.385967699906148"><ele>476.25</ele><time>2026-04-04T08:01:55Z</time></trkpt><trkpt lat="43.121150925173794" lon="12.386154891465308"><ele>477.0</ele><time>2026-04-04T08:01:56Z</time></trkpt><trkpt lat="43.121189532356034" lon="12.3862936463674"><ele>474.8</ele><time>2026-04-04T08:01:57Z</time></trkpt><trkpt lat="43.121196272748605" lon="12.386413528664331"><ele>472.6</ele><time>2026-04-04T08:01:58Z</time></trkpt><trkpt lat="43.12116126053627" lon="12.386521175309225"><ele>470.40000000000003</ele><time>2026-04-04T08:01:59Z</time></trkpt><trkpt lat="43.12108641520584" lon="12.38658129098011"><ele>468.20000000000005</ele><time>2026-04-04T08:02:00Z</time></trkpt><trkpt lat="43.1209921068655" lon="12.386591896349646"><ele>466.0</ele><time>2026-04-04T08:02:01Z</time></trkpt><trkpt lat="43.12086436103262" lon="12.386593385638422"><ele>464.0</ele><time>2026-04-04T08:02:02Z</time></trkpt><trkpt lat="43.120711605196774" lon="12.386515880225783"><ele>462.0</ele><time>2026-04-04T08:02:03Z</time></trkpt><trkpt lat="43.120554331643596" lon="12.386445398814997"><ele>460.0</ele><time>2026-04-04T08:02:04Z</time></trkpt><trkpt lat="43.12040675174703" lon="12.386375604121325"><ele>460.0</ele><time>2026-04-04T08:02:05Z</time></trkpt><trkpt lat="43.120299248083924" lon="12.386322437253208"><ele>460.0</ele><time>2026-04-04T08:02:06Z</time></trkpt><trkpt lat="43.12019387134056" lon="12.386270694680915"><ele>460.0</ele><time>2026-04-04T08:02:07Z</time></trkpt><trkpt lat="43.120077090144484" lon="12.386255450932854"><ele>460.0</ele><time>2026-04-04T08:02:08Z</time></trkpt><trkpt lat="43.11995630769301" lon="12.3863596146917"><ele>463.5</ele><time>2026-04-04T08:02:09Z</time></trkpt><trkpt lat="43.119822889202574" lon="12.38641772785214"><ele>467.0</ele><time>2026-04-04T08:02:10Z</time></trkpt><trkpt lat="43.11968597225797" lon="12.386469794833571"><ele>470.5</ele><time>2026-04-04T08:02:11Z</time></trkpt><trkpt lat="43.119547527810255" lon="12.386519249954576"><ele>474.0</ele><time>2026-04-04T08:02:12Z</time></trkpt><trkpt lat="43.119417902645026" lon="12.386590927148012"><ele>474.0</ele><time>2026-04-04T08:02:13Z</time></trkpt><trkpt lat="43.11930957940936" lon="12.386710490419699"><ele>474.0</ele><time>2026-04-04T08:02:14Z</time></trkpt><trkpt lat="43.11920359333021" lon="12.386836209394103"><ele>474.0</ele><time>2026-04-04T08:02:15Z</time></trkpt><trkpt lat="43.11911427959753" lon="12.386981641513863"><ele>474.0</ele><time>2026-04-04T08:02:16Z</time></trkpt><trkpt lat="43.1190500389462" lon="12.387141183021221"><ele>474.0</ele><time>2026-04-04T08:02:17Z</time></trkpt><trkpt lat="43.118984319496136" lon="12.387322580036798"><ele>474.0</ele><time>2026-04-04T08:02:18Z</time></trkpt><trkpt lat="43.11888509984491" lon="12.387459445936019"><ele>474.0</ele><time>2026-04-04T08:02:19Z</time></trkpt><trkpt lat="43.118795369843674" lon="12.387591360949262"><ele>474.0</ele><time>2026-04-04T08:02:20Z</time></trkpt><trkpt lat="43.11870469802224" lon="12.387717480315505"><ele>474.0</ele><time>2026-04-04T08:02:21Z</time></trkpt><trkpt lat="43.11862283341729" lon="12.387859541208677"><ele>474.0</ele><time>2026-04-04T08:02:22Z</time></trkpt><trkpt lat="43.11851849379731" lon="12.387978733534718"><ele>474.0</ele><time>2026-04-04T08:02:23Z</time></trkpt><trkpt lat="43.11843570502297" lon="12.38813871428605"><ele>474.0</ele><time>2026-04-04T08:02:24Z</time></trkpt><trkpt lat="43.11834787233432" lon="12.388282568806993"><ele>473.5</ele><time>2026-04-04T08:02:25Z</time></trkpt><trkpt lat="43.118268200243335" lon="12.388437855267618"><ele>473.0</ele><time>2026-04-04T08:02:26Z</time></trkpt><trkpt lat="43.118191537284275" lon="12.388593670268607"><ele>472.5</ele><time>2026-04-04T08:02:27Z</time></trkpt><trkpt lat="43.118114604249534" lon="12.388740541793808"><ele>472.0</ele><time>2026-04-04T08:02:28Z</time></trkpt><trkpt lat="43.11804515857529" lon="12.388881410132713"><ele>469.5</ele><time>2026-04-04T08:02:29Z</time></trkpt><trkpt lat="43.1179902867511" lon="12.389025267059608"><ele>467.0</ele><time>2026-04-04T08:02:30Z</time></trkpt><trkpt lat="43.1179539637958" lon="12.389184651151947"><ele>464.5</ele><time>2026-04-04T08:02:31Z</time></trkpt><trkpt lat="43.11794588475153" lon="12.389335245594795"><ele>462.0</ele><time>2026-04-04T08:02:32Z</time></trkpt><trkpt lat="43.117974408869266" lon="12.3894889696747"><ele>462.0</ele><time>2026-04-04T08:02:33Z</time></trkpt><trkpt lat="43.118043443713184" lon="12.389618994056079"><ele>462.00000000000006</ele><time>2026-04-04T08:02:34Z</time></trkpt><trkpt lat="43.118122428609645" lon="12.389725344865873"><ele>462.00000000000006</ele><time>2026-04-04T08:02:35Z</time></trkpt><trkpt lat="43.11818737838796" lon="12.389821993682004"><ele>462.0</ele><time>2026-04-04T08:02:36Z</time></trkpt><trkpt lat="43.11822733145336" lon="12.389935607403597"><ele>462.0</ele><time>2026-04-04T08:02:37Z</time></trkpt><trkpt lat="43.11823401415387" lon="12.390063403573347"><ele>456.25</ele><time>2026-04-04T08:02:38Z</time></trkpt><trkpt lat="43.118196216439465" lon="12.390210941276173"><ele>450.5</ele><time>2026-04-04T08:02:39Z</time></trkpt><trkpt lat="43.11812714560723" lon="12.390346923359935"><ele>444.75</ele><time>2026-04-04T08:02:40Z</time></trkpt><trkpt lat="43.11804728472174" lon="12.390454015369954"><ele>439.0</ele><time>2026-04-04T08:02:41Z</time></trkpt><trkpt lat="43.11795037331751" lon="12.3905171899601"><ele>439.0</ele><time>2026-04-04T08:02:42Z</time></trkpt><trkpt lat="43.1178347876903" lon="12.390489432968803"><ele>439.0</ele><time>2026-04-04T08:02:43Z</time></trkpt><trkpt lat="43.117711255826656" lon="12.39049998989836"><ele>439.0</ele><time>2026-04-04T08:02:44Z</time></trkpt><trkpt lat="43.11759227911824" lon="12.39053325076254"><ele>439.0</ele><time>2026-04-04T08:02:45Z</time></trkpt><trkpt lat="43.11746781432305" lon="12.39058075892027"><ele>437.6666666666667</ele><time>2026-04-04T08:02:46Z</time></trkpt><trkpt lat="43.11736603404662" lon="12.390619863664053"><ele>436.33333333333337</ele><time>2026-04-04T08:02:47Z</time></trkpt><trkpt lat="43.11728219352805" lon="12.390670611199841"><ele>435.0</ele><time>2026-04-04T08:02:48Z</time></trkpt><trkpt lat="43.11722408571485" lon="12.390727750795495"><ele>433.66666666666663</ele><time>2026-04-04T08:02:49Z</time></trkpt><trkpt lat="43.11715988664528" lon="12.390800528336204"><ele>432.3333333333333</ele><time>2026-04-04T08:02:51Z</time></trkpt><trkpt lat="43.11709469520364" lon="12.390862767432555"><ele>431.0</ele><time>2026-04-04T08:02:57Z</time></trkpt><trkpt lat="43.11702547827792" lon="12.390941453282423"><ele>431.0</ele><time>2026-04-04T08:03:00Z</time></trkpt><trkpt lat="43.11697318688504" lon="12.391003604607663"><ele>431.0</ele><time>2026-04-04T08:03:03Z</time></trkpt><trkpt lat="43.116926866798764" lon="12.391081501591927"><ele>431.0</ele><time>2026-04-04T08:03:07Z</time></trkpt><trkpt lat="43.11711007235997" lon="12.391228692212602"><ele>431.0</ele><time>2026-04-04T08:03:10Z</time></trkpt><trkpt lat="43.11724647812196" lon="12.391268893488082"><ele>426.66666666666663</ele><time>2026-04-04T08:03:11Z</time></trkpt><trkpt lat="43.11740374523121" lon="12.391278635165989"><ele>422.33333333333337</ele><time>2026-04-04T08:03:12Z</time></trkpt><trkpt lat="43.117560032141704" lon="12.391297773986393"><ele>418.0</ele><time>2026-04-04T08:03:13Z</time></trkpt><trkpt lat="43.117709774989244" lon="12.391316978138583"><ele>412.0</ele><time>2026-04-04T08:03:14Z</time></trkpt><trkpt lat="43.11785599307106" lon="12.391345091458406"><ele>406.0</ele><time>2026-04-04T08:03:15Z</time></trkpt><trkpt lat="43.117980462959444" lon="12.391383353091609"><ele>400.0</ele><time>2026-04-04T08:03:16Z</time></trkpt><trkpt lat="43.11812108528395" lon="12.391418745478981"><ele>394.0</ele><time>2026-04-04T08:03:17Z</time></trkpt><trkpt lat="43.1182631233615" lon="12.391445279805327"><ele>392.75</ele><time>2026-04-04T08:03:18Z</time></trkpt><trkpt lat="43.11839852550613" lon="12.391453928891128"><ele>391.5</ele><time>2026-04-04T08:03:19Z</time></trkpt><trkpt lat="43.11851369405377" lon="12.391435264520759"><ele>390.25</ele><time>2026-04-04T08:03:20Z</time></trkpt><trkpt lat="43.11865241588569" lon="12.391443122010722"><ele>389.0</ele><time>2026-04-04T08:03:21Z</time></trkpt><trkpt lat="43.11878935275535" lon="12.391395671529375"><ele>389.0</ele><time>2026-04-04T08:03:22Z</time></trkpt><trkpt lat="43.11892834971483" lon="12.391361381043025"><ele>389.0</ele><time>2026-04-04T08:03:23Z</time></trkpt><trkpt lat="43.11906172090202" lon="12.391328366516968"><ele>389.0</ele><time>2026-04-04T08:03:24Z</time></trkpt><trkpt lat="43.1191714459856" lon="12.391291751566602"><ele>389.0</ele><time>2026-04-04T08:03:25Z</time></trkpt><trkpt lat="43.11926976372998" lon="12.391235718066978"><ele>388.25</ele><time>2026-04-04T08:03:26Z</time></trkpt><trkpt lat="43.119340891029495" lon="12.391155276621339"><ele>387.5</ele><time>2026-04-04T08:03:27Z</time></trkpt><trkpt lat="43.11940322341877" lon="12.391009290229187"><ele>386.75</ele><time>2026-04-04T08:03:28Z</time></trkpt><trkpt lat="43.11944006177114" lon="12.390828309835776"><ele>386.0</ele><time>2026-04-04T08:03:29Z</time></trkpt><trkpt lat="43.1194292061549" lon="12.390620291330233"><ele>388.20000000000005</ele><time>2026-04-04T08:03:30Z</time></trkpt><trkpt lat="43.119428459020355" lon="12.390476296432878"><ele>390.40000000000003</ele><time>2026-04-04T08:03:31Z</time></trkpt><trkpt lat="43.11944785142717" lon="12.390347115961035"><ele>392.6</ele><time>2026-04-04T08:03:32Z</time></trkpt><trkpt lat="43.11950028051228" lon="12.39023312349287"><ele>394.8</ele><time>2026-04-04T08:03:33Z</time></trkpt><trkpt lat="43.11958208870899" lon="12.390131428338615"><ele>397.0</ele><time>2026-04-04T08:03:34Z</time></trkpt><trkpt lat="43.11972538770153" lon="12.390124020349417"><ele>397.0</ele><time>2026-04-04T08:03:35Z</time></trkpt><trkpt lat="43.119853585770635" lon="12.390135828796765"><ele>397.0</ele><time>2026-04-04T08:03:36Z</time></trkpt><trkpt lat="43.11997896212819" lon="12.390193571466764"><ele>397.0</ele><time>2026-04-04T08:03:37Z</time></trkpt><trkpt lat="43.120085493169896" lon="12.39031626198185"><ele>397.0</ele><time>2026-04-04T08:03:38Z</time></trkpt><trkpt lat="43.12017087026758" lon="12.390503401596922"><ele>385.6666666666667</ele><time>2026-04-04T08:03:39Z</time></trkpt><trkpt lat="43.12023653974891" lon="12.390698903923438"><ele>374.33333333333337</ele><time>2026-04-04T08:03:40Z</time></trkpt><trkpt lat="43.120312621344794" lon="12.390909160208672"><ele>363.0</ele><time>2026-04-04T08:03:41Z</time></trkpt><trkpt lat="43.12037783428457" lon="12.391130540550039"><ele>358.0</ele><time>2026-04-04T08:03:42Z</time></trkpt><trkpt lat="43.12045460731754" lon="12.391351737356045"><ele>353.0</ele><time>2026-04-04T08:03:43Z</time></trkpt><trkpt lat="43.12052282785814" lon="12.391574886703914"><ele>348.0</ele><time>2026-04-04T08:03:44Z</time></trkpt><trkpt lat="43.120574713131056" lon="12.391797117701623"><ele>348.0</ele><time>2026-04-04T08:03:45Z</time></trkpt><trkpt lat="43.12062020768917" lon="12.39201251647482"><ele>348.0</ele><time>2026-04-04T08:03:46Z</time></trkpt><trkpt lat="43.12068451290821" lon="12.392222725508896"><ele>348.0</ele><time>2026-04-04T08:03:47Z</time></trkpt><trkpt lat="43.12076001943112" lon="12.392426263109389"><ele>346.0</ele><time>2026-04-04T08:03:48Z</time></trkpt><trkpt lat="43.12086065791521" lon="12.392619845210806"><ele>344.0</ele><time>2026-04-04T08:03:49Z</time></trkpt><trkpt lat="43.120976786428564" lon="12.392790999367536"><ele>342.0</ele><time>2026-04-04T08:03:50Z</time></trkpt><trkpt lat="43.12110884850079" lon="12.392952345798134"><ele>335.3333333333333</ele><time>2026-04-04T08:03:51Z</time></trkpt><trkpt lat="43.12124792690075" lon="12.393087913560525"><ele>328.66666666666663</ele><time>2026-04-04T08:03:52Z</time></trkpt><trkpt lat="43.12138105294625" lon="12.39321764398726"><ele>322.0</ele><time>2026-04-04T08:03:53Z</time></trkpt><trkpt lat="43.12150287566672" lon="12.3933707341852"><ele>324.0</ele><time>2026-04-04T08:03:54Z</time></trkpt><trkpt lat="43.12162231200334" lon="12.393537255560942"><ele>326.0</ele><time>2026-04-04T08:03:55Z</time></trkpt><trkpt lat="43.1217382493598" lon="12.393697713196389"><ele>328.0</ele><time>2026-04-04T08:03:56Z</time></trkpt><trkpt lat="43.12184122233379" lon="12.393876470113838"><ele>322.3333333333333</ele><time>2026-04-04T08:03:57Z</time></trkpt><trkpt lat="43.12196395595493" lon="12.39403956038288"><ele>316.6666666666667</ele><time>2026-04-04T08:03:58Z</time></trkpt><trkpt lat="43.122072345074166" lon="12.39420872145196"><ele>311.0</ele><time>2026-04-04T08:03:59Z</time></trkpt><trkpt lat="43.12219481676074" lon="12.394365992693118"><ele>311.0</ele><time>2026-04-04T08:04:00Z</time></trkpt><trkpt lat="43.12229410866156" lon="12.394544221548909"><ele>311.0</ele><time>2026-04-04T08:04:01Z</time></trkpt><trkpt lat="43.12239552083353" lon="12.394717634324817"><ele>311.0</ele><time>2026-04-04T08:04:02Z</time></trkpt><trkpt lat="43.12250539018778" lon="12.394889060643228"><ele>307.6666666666667</ele><time>2026-04-04T08:04:03Z</time></trkpt><trkpt lat="43.12262877354418" lon="12.39503852118586"><ele>304.3333333333333</ele><time>2026-04-04T08:04:04Z</time></trkpt><trkpt lat="43.122756924015334" lon="12.395176733528757"><ele>301.0</ele><time>2026-04-04T08:04:05Z</time></trkpt><trkpt lat="43.12289033950699" lon="12.395309350873978"><ele>301.0</ele><time>2026-04-04T08:04:06Z</time></trkpt><trkpt lat="43.12301926168204" lon="12.39544228321861"><ele>301.0</ele><time>2026-04-04T08:04:07Z</time></trkpt><trkpt lat="43.123143402765145" lon="12.39558638631269"><ele>301.0</ele><time>2026-04-04T08:04:08Z</time></trkpt><trkpt lat="43.12326558325326" lon="12.395724374700812"><ele>296.66666666666663</ele><time>2026-04-04T08:04:09Z</time></trkpt><trkpt lat="43.12339941800787" lon="12.395858387953107"><ele>292.3333333333333</ele><time>2026-04-04T08:04:10Z</time></trkpt><trkpt lat="43.123527623351364" lon="12.395990779988312"><ele>288.0</ele><time>2026-04-04T08:04:11Z</time></trkpt><trkpt lat="43.12364737927915" lon="12.396124136206014"><ele>288.0</ele><time>2026-04-04T08:04:12Z</time></trkpt><trkpt lat="43.12376486245124" lon="12.396259666480578"><ele>288.0</ele><time>2026-04-04T08:04:13Z</time></trkpt><trkpt lat="43.123885863026786" lon="12.396387736442001"><ele>288.0</ele><time>2026-04-04T08:04:14Z</time></trkpt><trkpt lat="43.12400177092012" lon="12.396506392906058"><ele>284.75</ele><time>2026-04-04T08:04:15Z</time></trkpt><trkpt lat="43.1241090662901" lon="12.396612478787112"><ele>281.5</ele><time>2026-04-04T08:04:16Z</time></trkpt><trkpt lat="43.12421454441062" lon="12.396721702877306"><ele>278.25</ele><time>2026-04-04T08:04:17Z</time></trkpt><trkpt lat="43.12431378737662" lon="12.396829336956692"><ele>275.0</ele><time>2026-04-04T08:04:18Z</time></trkpt><trkpt lat="43.124398912661015" lon="12.396931425529853"><ele>275.0</ele><time>2026-04-04T08:04:19Z</time></trkpt><trkpt lat="43.124470983768354" lon="12.39704369946257"><ele>275.0</ele><time>2026-04-04T08:04:20Z</time></trkpt><trkpt lat="43.12450997071385" lon="12.397179586361085"><ele>275.0</ele><time>2026-04-04T08:04:21Z</time></trkpt><trkpt lat="43.12451583297834" lon="12.397317525106436"><ele>275.0</ele><time>2026-04-04T08:04:22Z</time></trkpt><trkpt lat="43.12450226536985" lon="12.397452637191185"><ele>275.0</ele><time>2026-04-04T08:04:23Z</time></trkpt><trkpt lat="43.12449952118784" lon="12.397583746813423"><ele>274.6</ele><time>2026-04-04T08:04:24Z</time></trkpt><trkpt lat="43.12453703163611" lon="12.397708401321827"><ele>274.2</ele><time>2026-04-04T08:04:25Z</time></trkpt><trkpt lat="43.12460763201454" lon="12.397832810931874"><ele>273.8</ele><time>2026-04-04T08:04:26Z</time></trkpt><trkpt lat="43.12468800836566" lon="12.397931516366318"><ele>273.4</ele><time>2026-04-04T08:04:27Z</time></trkpt><trkpt lat="43.12477663466877" lon="12.398019854195445"><ele>273.0</ele><time>2026-04-04T08:04:28Z</time></trkpt><trkpt lat="43.12487368158879" lon="12.398084794615988"><ele>271.0</ele><time>2026-04-04T08:04:29Z</time></trkpt><trkpt lat="43.12497072759086" lon="12.398121823287022"><ele>269.0</ele><time>2026-04-04T08:04:30Z</time></trkpt><trkpt lat="43.1250755371653" lon="12.39814356373601"><ele>267.0</ele><time>2026-04-04T08:04:31Z</time></trkpt><trkpt lat="43.125173620664036" lon="12.398127212146237"><ele>265.0</ele><time>2026-04-04T08:04:32Z</time></trkpt><trkpt lat="43.12525285297834" lon="12.398119905123066"><ele>263.0</ele><time>2026-04-04T08:04:33Z</time></trkpt><trkpt lat="43.125339079420336" lon="12.398140590280184"><ele>263.0</ele><time>2026-04-04T08:04:34Z</time></trkpt><trkpt lat="43.125405370049855" lon="12.398187665197549"><ele>263.0</ele><time>2026-04-04T08:04:35Z</time></trkpt><trkpt lat="43.12545798369569" lon="12.398259731193589"><ele>263.0</ele><time>2026-04-04T08:04:36Z</time></trkpt><trkpt lat="43.12550548174833" lon="12.398351855907507"><ele>263.0</ele><time>2026-04-04T08:04:37Z</time></trkpt><trkpt lat="43.12554341782832" lon="12.398453701650533"><ele>263.0</ele><time>2026-04-04T08:04:38Z</time></trkpt><trkpt lat="43.12557665535201" lon="12.398565084712722"><ele>263.0</ele><time>2026-04-04T08:04:39Z</time></trkpt><trkpt lat="43.12561550637491" lon="12.398679342355447"><ele>263.0</ele><time>2026-04-04T08:04:40Z</time></trkpt><trkpt lat="43.12565009544338" lon="12.398803664229053"><ele>263.0</ele><time>2026-04-04T08:04:41Z</time></trkpt><trkpt lat="43.12568087903912" lon="12.398930393839933"><ele>263.0</ele><time>2026-04-04T08:04:42Z</time></trkpt><trkpt lat="43.12571045566536" lon="12.399054396850174"><ele>263.0</ele><time>2026-04-04T08:04:43Z</time></trkpt><trkpt lat="43.12573350585306" lon="12.39918356270498"><ele>263.0</ele><time>2026-04-04T08:04:44Z</time></trkpt><trkpt lat="43.12574286612567" lon="12.39931425504372"><ele>266.0</ele><time>2026-04-04T08:04:45Z</time></trkpt><trkpt lat="43.12575281706922" lon="12.399449798233762"><ele>269.0</ele><time>2026-04-04T08:04:46Z</time></trkpt><trkpt lat="43.12576522439979" lon="12.399587191340142"><ele>272.0</ele><time>2026-04-04T08:04:47Z</time></trkpt><trkpt lat="43.125770261408526" lon="12.39973241722006"><ele>275.0</ele><time>2026-04-04T08:04:48Z</time></trkpt><trkpt lat="43.12575023864901" lon="12.399877966034492"><ele>278.0</ele><time>2026-04-04T08:04:49Z</time></trkpt><trkpt lat="43.12573920669726" lon="12.400038314171589"><ele>274.0</ele><time>2026-04-04T08:04:50Z</time></trkpt><trkpt lat="43.12572689470089" lon="12.400201582771171"><ele>270.0</ele><time>2026-04-04T08:04:51Z</time></trkpt><trkpt lat="43.125706864519024" lon="12.400363921145294"><ele>266.0</ele><time>2026-04-04T08:04:52Z</time></trkpt><trkpt lat="43.125676023972886" lon="12.400536959456167"><ele>262.0</ele><time>2026-04-04T08:04:53Z</time></trkpt><trkpt lat="43.125644484063166" lon="12.400711044559058"><ele>262.0</ele><time>2026-04-04T08:04:54Z</time></trkpt><trkpt lat="43.12561615662245" lon="12.4008882313044"><ele>262.0</ele><time>2026-04-04T08:04:55Z</time></trkpt><trkpt lat="43.12559158809622" lon="12.401074905476285"><ele>262.0</ele><time>2026-04-04T08:04:56Z</time></trkpt><trkpt lat="43.12557193336128" lon="12.401275766456479"><ele>262.0</ele><time>2026-04-04T08:04:57Z</time></trkpt><trkpt lat="43.12555494392891" lon="12.40145760708714"><ele>261.75</ele><time>2026-04-04T08:04:58Z</time></trkpt><trkpt lat="43.12553731148941" lon="12.401649346571192"><ele>261.5</ele><time>2026-04-04T08:04:59Z</time></trkpt><trkpt lat="43.12552031819368" lon="12.401846952796564"><ele>261.25</ele><time>2026-04-04T08:05:00Z</time></trkpt><trkpt lat="43.12550432429128" lon="12.402036744611953"><ele>261.0</ele><time>2026-04-04T08:05:01Z</time></trkpt><trkpt lat="43.12549037560645" lon="12.402212462404783"><ele>260.0</ele><time>2026-04-04T08:05:02Z</time></trkpt><trkpt lat="43.12547619232771" lon="12.402393600310178"><ele>259.0</ele><time>2026-04-04T08:05:03Z</time></trkpt><trkpt lat="43.12546477070988" lon="12.402614450470619"><ele>258.0</ele><time>2026-04-04T08:05:04Z</time></trkpt><trkpt lat="43.125471985545616" lon="12.402831277141381"><ele>257.5</ele><time>2026-04-04T08:05:05Z</time></trkpt><trkpt lat="43.12549207439848" lon="12.403022724785497"><ele>257.0</ele><time>2026-04-04T08:05:06Z</time></trkpt><trkpt lat="43.12554078155915" lon="12.403214618608498"><ele>256.5</ele><time>2026-04-04T08:05:07Z</time></trkpt><trkpt lat="43.125565146399325" lon="12.403406794288882"><ele>256.0</ele><time>2026-04-04T08:05:08Z</time></trkpt><trkpt lat="43.12561628012539" lon="12.403615393316304"><ele>256.0</ele><time>2026-04-04T08:05:09Z</time></trkpt><trkpt lat="43.125675697031056" lon="12.403821715449716"><ele>256.0</ele><time>2026-04-04T08:05:10Z</time></trkpt><trkpt lat="43.12572535015202" lon="12.404023607015239"><ele>256.0</ele><time>2026-04-04T08:05:11Z</time></trkpt><trkpt lat="43.125779854275294" lon="12.404221032509556"><ele>256.25</ele><time>2026-04-04T08:05:12Z</time></trkpt><trkpt lat="43.125835182886" lon="12.404392769815376"><ele>256.5</ele><time>2026-04-04T08:05:13Z</time></trkpt><trkpt lat="43.12587997261906" lon="12.404572299789123"><ele>256.75</ele><time>2026-04-04T08:05:14Z</time></trkpt><trkpt lat="43.125924868560496" lon="12.404746528366674"><ele>257.0</ele><time>2026-04-04T08:05:15Z</time></trkpt><trkpt lat="43.125971577189524" lon="12.404915047523515"><ele>257.0</ele><time>2026-04-04T08:05:16Z</time></trkpt><trkpt lat="43.12601895837219" lon="12.405081632492141"><ele>257.0</ele><time>2026-04-04T08:05:17Z</time></trkpt><trkpt lat="43.12604758298116" lon="12.405263928697597"><ele>257.0</ele><time>2026-04-04T08:05:18Z</time></trkpt><trkpt lat="43.12609381779088" lon="12.405441241263347"><ele>257.0</ele><time>2026-04-04T08:05:19Z</time></trkpt><trkpt lat="43.12614039286487" lon="12.405615866499657"><ele>256.0</ele><time>2026-04-04T08:05:20Z</time></trkpt><trkpt lat="43.12618977370437" lon="12.405801011445233"><ele>255.0</ele><time>2026-04-04T08:05:21Z</time></trkpt><trkpt lat="43.1262409750806" lon="12.405987268995792"><ele>254.0</ele><time>2026-04-04T08:05:22Z</time></trkpt><trkpt lat="43.1262807692346" lon="12.406183882217508"><ele>253.0</ele><time>2026-04-04T08:05:23Z</time></trkpt><trkpt lat="43.12632986016097" lon="12.406378816974728"><ele>253.0</ele><time>2026-04-04T08:05:24Z</time></trkpt><trkpt lat="43.126383246814015" lon="12.406578367106201"><ele>253.0</ele><time>2026-04-04T08:05:25Z</time></trkpt><trkpt lat="43.12643658492381" lon="12.406779981308198"><ele>253.0</ele><time>2026-04-04T08:05:26Z</time></trkpt><trkpt lat="43.12649189783904" lon="12.406979683290306"><ele>253.33333333333331</ele><time>2026-04-04T08:05:27Z</time></trkpt><trkpt lat="43.12655199683055" lon="12.407178709403468"><ele>253.66666666666669</ele><time>2026-04-04T08:05:28Z</time></trkpt><trkpt lat="43.12661534071502" lon="12.407380219784017"><ele>254.0</ele><time>2026-04-04T08:05:29Z</time></trkpt><trkpt lat="43.12667274208908" lon="12.407576439960792"><ele>254.0</ele><time>2026-04-04T08:05:30Z</time></trkpt><trkpt lat="43.126740826757995" lon="12.40777176466555"><ele>254.0</ele><time>2026-04-04T08:05:31Z</time></trkpt><trkpt lat="43.12681829709177" lon="12.407974757464098"><ele>254.0</ele><time>2026-04-04T08:05:32Z</time></trkpt><trkpt lat="43.12689692225397" lon="12.408174390493446"><ele>252.66666666666669</ele><time>2026-04-04T08:05:33Z</time></trkpt><trkpt lat="43.12697959462467" lon="12.408375498436099"><ele>251.33333333333331</ele><time>2026-04-04T08:05:34Z</time></trkpt><trkpt lat="43.12705805112749" lon="12.40857937480509"><ele>250.0</ele><time>2026-04-04T08:05:35Z</time></trkpt><trkpt lat="43.12714511506786" lon="12.408784570932298"><ele>249.33333333333331</ele><time>2026-04-04T08:05:36Z</time></trkpt><trkpt lat="43.12723064663334" lon="12.40899141220983"><ele>248.66666666666669</ele><time>2026-04-04T08:05:37Z</time></trkpt><trkpt lat="43.12731261889415" lon="12.409201380124372"><ele>248.0</ele><time>2026-04-04T08:05:38Z</time></trkpt><trkpt lat="43.12737870047742" lon="12.4094215337273"><ele>249.66666666666669</ele><time>2026-04-04T08:05:39Z</time></trkpt><trkpt lat="43.12742213118659" lon="12.40965600146603"><ele>251.33333333333331</ele><time>2026-04-04T08:05:40Z</time></trkpt><trkpt lat="43.12743529110887" lon="12.409891760829606"><ele>253.0</ele><time>2026-04-04T08:05:41Z</time></trkpt><trkpt lat="43.12742798199455" lon="12.410132712035919"><ele>253.0</ele><time>2026-04-04T08:05:42Z</time></trkpt><trkpt lat="43.12740361652171" lon="12.41037115901678"><ele>253.0</ele><time>2026-04-04T08:05:43Z</time></trkpt><trkpt lat="43.12738055559094" lon="12.410613293398612"><ele>253.0</ele><time>2026-04-04T08:05:44Z</time></trkpt><trkpt lat="43.12735774854088" lon="12.41085764029089"><ele>250.33333333333331</ele><time>2026-04-04T08:05:45Z</time></trkpt><trkpt lat="43.127339417105375" lon="12.41110828963311"><ele>247.66666666666669</ele><time>2026-04-04T08:05:46Z</time></trkpt><trkpt lat="43.127313403710694" lon="12.411356706412752"><ele>245.0</ele><time>2026-04-04T08:05:47Z</time></trkpt><trkpt lat="43.12728588578819" lon="12.411603626873926"><ele>244.33333333333334</ele><time>2026-04-04T08:05:48Z</time></trkpt><trkpt lat="43.127264980223075" lon="12.41185394103056"><ele>243.66666666666669</ele><time>2026-04-04T08:05:49Z</time></trkpt><trkpt lat="43.12725531952549" lon="12.412108407019524"><ele>243.0</ele><time>2026-04-04T08:05:50Z</time></trkpt><trkpt lat="43.127253875084136" lon="12.41236762627854"><ele>242.0</ele><time>2026-04-04T08:05:51Z</time></trkpt><trkpt lat="43.127262497048974" lon="12.412629186497513"><ele>241.0</ele><time>2026-04-04T08:05:52Z</time></trkpt><trkpt lat="43.127276970223505" lon="12.41288908962305"><ele>240.0</ele><time>2026-04-04T08:05:53Z</time></trkpt><trkpt lat="43.12728462064683" lon="12.413149348739577"><ele>239.33333333333331</ele><time>2026-04-04T08:05:54Z</time></trkpt><trkpt lat="43.12729700869042" lon="12.413408421609798"><ele>238.66666666666666</ele><time>2026-04-04T08:05:55Z</time></trkpt><trkpt lat="43.127314864526014" lon="12.41366580216772"><ele>238.0</ele><time>2026-04-04T08:05:56Z</time></trkpt><trkpt lat="43.127333234719224" lon="12.413922242314666"><ele>237.33333333333331</ele><time>2026-04-04T08:05:57Z</time></trkpt><trkpt lat="43.12735290215129" lon="12.414177122921041"><ele>236.66666666666669</ele><time>2026-04-04T08:05:58Z</time></trkpt><trkpt lat="43.127375264592196" lon="12.414431207743611"><ele>236.0</ele><time>2026-04-04T08:05:59Z</time></trkpt><trkpt lat="43.12740145461835" lon="12.414684575398779"><ele>239.33333333333334</ele><time>2026-04-04T08:06:00Z</time></trkpt><trkpt lat="43.1274327867021" lon="12.41493339302774"><ele>242.66666666666669</ele><time>2026-04-04T08:06:01Z</time></trkpt><trkpt lat="43.127466370609035" lon="12.415188732977727"><ele>246.0</ele><time>2026-04-04T08:06:02Z</time></trkpt><trkpt lat="43.12749957012387" lon="12.415447462158726"><ele>244.0</ele><time>2026-04-04T08:06:03Z</time></trkpt><trkpt lat="43.12753262028487" lon="12.415702197707503"><ele>242.0</ele><time>2026-04-04T08:06:04Z</time></trkpt><trkpt lat="43.127567207910666" lon="12.415955700610299"><ele>240.0</ele><time>2026-04-04T08:06:05Z</time></trkpt><trkpt lat="43.127586965975894" lon="12.416216291574075"><ele>239.33333333333331</ele><time>2026-04-04T08:06:06Z</time></trkpt><trkpt lat="43.12762280810921" lon="12.416478435005654"><ele>238.66666666666666</ele><time>2026-04-04T08:06:07Z</time></trkpt><trkpt lat="43.12766950519694" lon="12.416747108788028"><ele>238.0</ele><time>2026-04-04T08:06:08Z</time></trkpt><trkpt lat="43.12774397665608" lon="12.417002504235823"><ele>236.33333333333331</ele><time>2026-04-04T08:06:09Z</time></trkpt><trkpt lat="43.12781064850668" lon="12.417267422353445"><ele>234.66666666666669</ele><time>2026-04-04T08:06:10Z</time></trkpt><trkpt lat="43.12788382382249" lon="12.417532157337426"><ele>233.0</ele><time>2026-04-04T08:06:11Z</time></trkpt><trkpt lat="43.12795839143257" lon="12.417798401444053"><ele>232.0</ele><time>2026-04-04T08:06:12Z</time></trkpt><trkpt lat="43.12803467956985" lon="12.418071838239886"><ele>231.0</ele><time>2026-04-04T08:06:13Z</time></trkpt><trkpt lat="43.12811449668794" lon="12.418353043215202"><ele>230.0</ele><time>2026-04-04T08:06:14Z</time></trkpt><trkpt lat="43.12817853368893" lon="12.418647412055757"><ele>232.0</ele><time>2026-04-04T08:06:15Z</time></trkpt><trkpt lat="43.12827283826417" lon="12.418925737904921"><ele>234.0</ele><time>2026-04-04T08:06:16Z</time></trkpt><trkpt lat="43.12835422654209" lon="12.419214540490065"><ele>234.0</ele><time>2026-04-04T08:06:17Z</time></trkpt><trkpt lat="43.128432660467034" lon="12.419498144030179"><ele>234.0</ele><time>2026-04-04T08:06:18Z</time></trkpt><trkpt lat="43.128514258850515" lon="12.419769698668645"><ele>234.0</ele><time>2026-04-04T08:06:19Z</time></trkpt><trkpt lat="43.1285874952367" lon="12.420036094648536"><ele>231.33333333333331</ele><time>2026-04-04T08:06:20Z</time></trkpt><trkpt lat="43.128659447141445" lon="12.420294689166925"><ele>228.66666666666666</ele><time>2026-04-04T08:06:21Z</time></trkpt><trkpt lat="43.12872682955488" lon="12.42055184616199"><ele>226.0</ele><time>2026-04-04T08:06:22Z</time></trkpt><trkpt lat="43.128789557063214" lon="12.420800143134972"><ele>224.33333333333331</ele><time>2026-04-04T08:06:23Z</time></trkpt><trkpt lat="43.128844382529785" lon="12.421035694640143"><ele>222.66666666666669</ele><time>2026-04-04T08:06:24Z</time></trkpt><trkpt lat="43.12889265221324" lon="12.421279838649209"><ele>221.0</ele><time>2026-04-04T08:06:25Z</time></trkpt><trkpt lat="43.128926930178785" lon="12.421525644433936"><ele>221.0</ele><time>2026-04-04T08:06:26Z</time></trkpt><trkpt lat="43.1289509992655" lon="12.421763344664972"><ele>221.0</ele><time>2026-04-04T08:06:27Z</time></trkpt><trkpt lat="43.12897392781396" lon="12.42201013082266"><ele>221.0</ele><time>2026-04-04T08:06:28Z</time></trkpt><trkpt lat="43.128978877594" lon="12.422254139901995"><ele>221.66666666666669</ele><time>2026-04-04T08:06:29Z</time></trkpt><trkpt lat="43.128992589003644" lon="12.422492523959244"><ele>222.33333333333331</ele><time>2026-04-04T08:06:30Z</time></trkpt><trkpt lat="43.12902800051806" lon="12.422717172390666"><ele>223.0</ele><time>2026-04-04T08:06:31Z</time></trkpt><trkpt lat="43.12904349304688" lon="12.422934775678465"><ele>222.66666666666666</ele><time>2026-04-04T08:06:32Z</time></trkpt><trkpt lat="43.129057854464484" lon="12.423143884039137"><ele>222.33333333333331</ele><time>2026-04-04T08:06:33Z</time></trkpt><trkpt lat="43.12907062409283" lon="12.423347624070859"><ele>222.0</ele><time>2026-04-04T08:06:34Z</time></trkpt><trkpt lat="43.129069389648485" lon="12.423560994306978"><ele>223.25</ele><time>2026-04-04T08:06:35Z</time></trkpt><trkpt lat="43.129076663251645" lon="12.423770789977224"><ele>224.5</ele><time>2026-04-04T08:06:36Z</time></trkpt><trkpt lat="43.129080525587014" lon="12.423975493387495"><ele>225.75</ele><time>2026-04-04T08:06:37Z</time></trkpt><trkpt lat="43.12908329906048" lon="12.424172445129548"><ele>227.0</ele><time>2026-04-04T08:06:38Z</time></trkpt><trkpt lat="43.129099956289345" lon="12.424351039374836"><ele>227.0</ele><time>2026-04-04T08:06:39Z</time></trkpt><trkpt lat="43.129096405858384" lon="12.424536742986248"><ele>227.0</ele><time>2026-04-04T08:06:40Z</time></trkpt><trkpt lat="43.12910069488086" lon="12.42472914258356"><ele>227.0</ele><time>2026-04-04T08:06:41Z</time></trkpt><trkpt lat="43.129105650953385" lon="12.424927283484095"><ele>227.0</ele><time>2026-04-04T08:06:42Z</time></trkpt><trkpt lat="43.1291088258892" lon="12.425131609009572"><ele>226.0</ele><time>2026-04-04T08:06:43Z</time></trkpt><trkpt lat="43.12911348988266" lon="12.425344319908238"><ele>225.0</ele><time>2026-04-04T08:06:44Z</time></trkpt><trkpt lat="43.12911821990411" lon="12.425559457335224"><ele>224.0</ele><time>2026-04-04T08:06:45Z</time></trkpt><trkpt lat="43.12912216355452" lon="12.42578000288679"><ele>223.0</ele><time>2026-04-04T08:06:46Z</time></trkpt><trkpt lat="43.1291229593635" lon="12.426000530693113"><ele>222.0</ele><time>2026-04-04T08:06:47Z</time></trkpt><trkpt lat="43.12911066175089" lon="12.426224846855671"><ele>221.0</ele><time>2026-04-04T08:06:48Z</time></trkpt><trkpt lat="43.129112852994865" lon="12.426444008412163"><ele>220.33333333333334</ele><time>2026-04-04T08:06:49Z</time></trkpt><trkpt lat="43.1291150020244" lon="12.426658165282106"><ele>219.66666666666669</ele><time>2026-04-04T08:06:50Z</time></trkpt><trkpt lat="43.12911715677026" lon="12.42686455297849"><ele>219.0</ele><time>2026-04-04T08:06:51Z</time></trkpt><trkpt lat="43.12911941323121" lon="12.427067661652382"><ele>218.0</ele><time>2026-04-04T08:06:52Z</time></trkpt><trkpt lat="43.12912168568367" lon="12.427272209779002"><ele>217.0</ele><time>2026-04-04T08:06:53Z</time></trkpt><trkpt lat="43.12912399336682" lon="12.427479929067163"><ele>216.0</ele><time>2026-04-04T08:06:54Z</time></trkpt><trkpt lat="43.12914261973166" lon="12.427688041286304"><ele>216.0</ele><time>2026-04-04T08:06:55Z</time></trkpt><trkpt lat="43.12914280649848" lon="12.427894298788006"><ele>216.0</ele><time>2026-04-04T08:06:56Z</time></trkpt><trkpt lat="43.1291468700704" lon="12.42810347870293"><ele>216.0</ele><time>2026-04-04T08:06:57Z</time></trkpt><trkpt lat="43.12913329502253" lon="12.428312583623232"><ele>215.5</ele><time>2026-04-04T08:06:58Z</time></trkpt><trkpt lat="43.129136167917686" lon="12.428517028355264"><ele>215.0</ele><time>2026-04-04T08:06:59Z</time></trkpt><trkpt lat="43.129138991474186" lon="12.428717961994042"><ele>214.5</ele><time>2026-04-04T08:07:00Z</time></trkpt><trkpt lat="43.12914177598332" lon="12.428916116916156"><ele>214.0</ele><time>2026-04-04T08:07:01Z</time></trkpt><trkpt lat="43.129158738107726" lon="12.429112789795399"><ele>213.5</ele><time>2026-04-04T08:07:02Z</time></trkpt><trkpt lat="43.12915421442092" lon="12.429306955238323"><ele>213.0</ele><time>2026-04-04T08:07:03Z</time></trkpt><trkpt lat="43.129140615045685" lon="12.429501822238077"><ele>212.5</ele><time>2026-04-04T08:07:04Z</time></trkpt><trkpt lat="43.12911466485205" lon="12.429697870527367"><ele>212.0</ele><time>2026-04-04T08:07:05Z</time></trkpt><trkpt lat="43.12907707029252" lon="12.429888546926536"><ele>210.0</ele><time>2026-04-04T08:07:06Z</time></trkpt><trkpt lat="43.129027071592034" lon="12.430069550137167"><ele>208.0</ele><time>2026-04-04T08:07:07Z</time></trkpt><trkpt lat="43.128969573428684" lon="12.43024552072247"><ele>206.0</ele><time>2026-04-04T08:07:08Z</time></trkpt><trkpt lat="43.12888372953505" lon="12.430415798053875"><ele>204.0</ele><time>2026-04-04T08:07:09Z</time></trkpt><trkpt lat="43.128804895820664" lon="12.430597835835076"><ele>203.33333333333331</ele><time>2026-04-04T08:07:10Z</time></trkpt><trkpt lat="43.12871962632173" lon="12.430793797780986"><ele>202.66666666666666</ele><time>2026-04-04T08:07:11Z</time></trkpt><trkpt lat="43.12862731006847" lon="12.43100122169255"><ele>202.0</ele><time>2026-04-04T08:07:12Z</time></trkpt><trkpt lat="43.1285437736541" lon="12.431237833072688"><ele>201.0</ele><time>2026-04-04T08:07:13Z</time></trkpt><trkpt lat="43.12844122484482" lon="12.431476825961141"><ele>200.0</ele><time>2026-04-04T08:07:14Z</time></trkpt><trkpt lat="43.128332836810436" lon="12.431725193170916"><ele>199.0</ele><time>2026-04-04T08:07:15Z</time></trkpt><trkpt lat="43.12821874022103" lon="12.431984042322712"><ele>201.0</ele><time>2026-04-04T08:07:16Z</time></trkpt><trkpt lat="43.12810236118392" lon="12.432255705105254"><ele>203.0</ele><time>2026-04-04T08:07:17Z</time></trkpt><trkpt lat="43.127971133489204" lon="12.432536713503396"><ele>203.0</ele><time>2026-04-04T08:07:18Z</time></trkpt><trkpt lat="43.127842831847495" lon="12.432831432824551"><ele>203.0</ele><time>2026-04-04T08:07:19Z</time></trkpt><trkpt lat="43.127713402243174" lon="12.43314019827775"><ele>200.0</ele><time>2026-04-04T08:07:20Z</time></trkpt><trkpt lat="43.127578208257134" lon="12.433438280514894"><ele>197.0</ele><time>2026-04-04T08:07:21Z</time></trkpt><trkpt lat="43.12743288865886" lon="12.433689403663214"><ele>196.0</ele><time>2026-04-04T08:07:22Z</time></trkpt><trkpt lat="43.12731514744595" lon="12.433954123508107"><ele>195.0</ele><time>2026-04-04T08:07:23Z</time></trkpt><trkpt lat="43.12720268053981" lon="12.434210759458612"><ele>194.0</ele><time>2026-04-04T08:07:24Z</time></trkpt><trkpt lat="43.12710354803901" lon="12.434428448854067"><ele>194.0</ele><time>2026-04-04T08:07:25Z</time></trkpt><trkpt lat="43.12700025312202" lon="12.434659761936969"><ele>194.0</ele><time>2026-04-04T08:07:26Z</time></trkpt><trkpt lat="43.126898079250324" lon="12.434889816543135"><ele>194.0</ele><time>2026-04-04T08:07:27Z</time></trkpt><trkpt lat="43.12679887378464" lon="12.435115434114907"><ele>194.0</ele><time>2026-04-04T08:07:28Z</time></trkpt><trkpt lat="43.126703579652975" lon="12.435335830243101"><ele>194.0</ele><time>2026-04-04T08:07:29Z</time></trkpt><trkpt lat="43.126622932056385" lon="12.43555979778775"><ele>194.0</ele><time>2026-04-04T08:07:30Z</time></trkpt><trkpt lat="43.12653092023939" lon="12.435754282854015"><ele>195.0</ele><time>2026-04-04T08:07:31Z</time></trkpt><trkpt lat="43.126445153679896" lon="12.435961419442295"><ele>196.0</ele><time>2026-04-04T08:07:32Z</time></trkpt><trkpt lat="43.126359454448554" lon="12.436157398475359"><ele>197.0</ele><time>2026-04-04T08:07:33Z</time></trkpt><trkpt lat="43.1262611868719" lon="12.436338614232234"><ele>197.0</ele><time>2026-04-04T08:07:34Z</time></trkpt><trkpt lat="43.12619455320178" lon="12.436550237137608"><ele>197.0</ele><time>2026-04-04T08:07:35Z</time></trkpt><trkpt lat="43.12612500455198" lon="12.436758622027913"><ele>197.0</ele><time>2026-04-04T08:07:36Z</time></trkpt><trkpt lat="43.12606488582726" lon="12.436960987761953"><ele>196.66666666666669</ele><time>2026-04-04T08:07:37Z</time></trkpt><trkpt lat="43.126019076037004" lon="12.437168343045437"><ele>196.33333333333331</ele><time>2026-04-04T08:07:38Z</time></trkpt><trkpt lat="43.12598134792008" lon="12.437384723942055"><ele>196.0</ele><time>2026-04-04T08:07:39Z</time></trkpt><trkpt lat="43.125953833291064" lon="12.43759969131722"><ele>196.0</ele><time>2026-04-04T08:07:40Z</time></trkpt><trkpt lat="43.12593701264053" lon="12.437819612548891"><ele>196.0</ele><time>2026-04-04T08:07:41Z</time></trkpt><trkpt lat="43.12592875002113" lon="12.438037432728748"><ele>196.0</ele><time>2026-04-04T08:07:42Z</time></trkpt><trkpt lat="43.12592746045293" lon="12.43826088832964"><ele>196.0</ele><time>2026-04-04T08:07:43Z</time></trkpt><trkpt lat="43.12592876636126" lon="12.438482735421328"><ele>196.0</ele><time>2026-04-04T08:07:44Z</time></trkpt><trkpt lat="43.12593226476655" lon="12.438707544091947"><ele>196.0</ele><time>2026-04-04T08:07:45Z</time></trkpt><trkpt lat="43.12594085023248" lon="12.438932840385466"><ele>196.0</ele><time>2026-04-04T08:07:46Z</time></trkpt><trkpt lat="43.125947202808995" lon="12.439146663151075"><ele>196.0</ele><time>2026-04-04T08:07:47Z</time></trkpt><trkpt lat="43.12594005078689" lon="12.439366245519468"><ele>196.0</ele><time>2026-04-04T08:07:48Z</time></trkpt><trkpt lat="43.12594461436609" lon="12.439574421216381"><ele>195.66666666666666</ele><time>2026-04-04T08:07:49Z</time></trkpt><trkpt lat="43.12594947849902" lon="12.439784833981017"><ele>195.33333333333331</ele><time>2026-04-04T08:07:50Z</time></trkpt><trkpt lat="43.12595439100077" lon="12.43999378495044"><ele>195.0</ele><time>2026-04-04T08:07:51Z</time></trkpt><trkpt lat="43.1259593728285" lon="12.440205684712065"><ele>195.0</ele><time>2026-04-04T08:07:52Z</time></trkpt><trkpt lat="43.1259808106223" lon="12.4404143546609"><ele>195.0</ele><time>2026-04-04T08:07:53Z</time></trkpt><trkpt lat="43.125984721838584" lon="12.440619995302734"><ele>195.0</ele><time>2026-04-04T08:07:54Z</time></trkpt><trkpt lat="43.12598996613636" lon="12.440831447036267"><ele>195.33333333333331</ele><time>2026-04-04T08:07:55Z</time></trkpt><trkpt lat="43.125994827018104" lon="12.44104194647553"><ele>195.66666666666666</ele><time>2026-04-04T08:07:56Z</time></trkpt><trkpt lat="43.1259994357605" lon="12.441250321670164"><ele>196.0</ele><time>2026-04-04T08:07:57Z</time></trkpt><trkpt lat="43.12600439368528" lon="12.441458905246646"><ele>196.0</ele><time>2026-04-04T08:07:58Z</time></trkpt><trkpt lat="43.12599224413272" lon="12.44166846998842"><ele>196.0</ele><time>2026-04-04T08:07:59Z</time></trkpt><trkpt lat="43.12599664945996" lon="12.44187743362412"><ele>196.0</ele><time>2026-04-04T08:08:00Z</time></trkpt><trkpt lat="43.126001061150376" lon="12.442086699051275"><ele>196.0</ele><time>2026-04-04T08:08:01Z</time></trkpt><trkpt lat="43.12602154535104" lon="12.442301751508532"><ele>196.0</ele><time>2026-04-04T08:08:02Z</time></trkpt><trkpt lat="43.1260240216703" lon="12.442517040368429"><ele>196.0</ele><time>2026-04-04T08:08:03Z</time></trkpt><trkpt lat="43.126030863190486" lon="12.4427348383142"><ele>196.0</ele><time>2026-04-04T08:08:04Z</time></trkpt><trkpt lat="43.12603515279408" lon="12.442951646576342"><ele>196.0</ele><time>2026-04-04T08:08:05Z</time></trkpt><trkpt lat="43.12604180343684" lon="12.443169924160092"><ele>196.0</ele><time>2026-04-04T08:08:06Z</time></trkpt><trkpt lat="43.12603158197204" lon="12.443386225274388"><ele>196.33333333333331</ele><time>2026-04-04T08:08:07Z</time></trkpt><trkpt lat="43.126036508145326" lon="12.44359891367849"><ele>196.66666666666669</ele><time>2026-04-04T08:08:08Z</time></trkpt><trkpt lat="43.126041404338444" lon="12.443810307693287"><ele>197.0</ele><time>2026-04-04T08:08:09Z</time></trkpt><trkpt lat="43.126045908461464" lon="12.44401199907155"><ele>197.0</ele><time>2026-04-04T08:08:10Z</time></trkpt><trkpt lat="43.12605003531149" lon="12.4442139730863"><ele>197.0</ele><time>2026-04-04T08:08:11Z</time></trkpt><trkpt lat="43.12605417203235" lon="12.444416430303557"><ele>197.0</ele><time>2026-04-04T08:08:12Z</time></trkpt><trkpt lat="43.12605836076655" lon="12.444621433108377"><ele>197.0</ele><time>2026-04-04T08:08:13Z</time></trkpt><trkpt lat="43.12606264968225" lon="12.444831338898858"><ele>196.66666666666669</ele><time>2026-04-04T08:08:14Z</time></trkpt><trkpt lat="43.1260671219922" lon="12.445039759189074"><ele>196.33333333333331</ele><time>2026-04-04T08:08:15Z</time></trkpt><trkpt lat="43.12607189430106" lon="12.445247937034221"><ele>196.0</ele><time>2026-04-04T08:08:16Z</time></trkpt><trkpt lat="43.126076585134186" lon="12.445452560770223"><ele>196.0</ele><time>2026-04-04T08:08:17Z</time></trkpt><trkpt lat="43.12609969325923" lon="12.445662132777969"><ele>196.0</ele><time>2026-04-04T08:08:18Z</time></trkpt><trkpt lat="43.126100591005255" lon="12.445874107194136"><ele>196.0</ele><time>2026-04-04T08:08:19Z</time></trkpt><trkpt lat="43.12610066512325" lon="12.446090001837849"><ele>196.33333333333331</ele><time>2026-04-04T08:08:20Z</time></trkpt><trkpt lat="43.12610400563702" lon="12.44630589735199"><ele>196.66666666666669</ele><time>2026-04-04T08:08:21Z</time></trkpt><trkpt lat="43.12610607448607" lon="12.44651975715156"><ele>197.0</ele><time>2026-04-04T08:08:22Z</time></trkpt><trkpt lat="43.12611206152036" lon="12.446735710823386"><ele>197.0</ele><time>2026-04-04T08:08:23Z</time></trkpt><trkpt lat="43.12611627329536" lon="12.446952566168013"><ele>197.0</ele><time>2026-04-04T08:08:24Z</time></trkpt><trkpt lat="43.12612356588135" lon="12.447168048066047"><ele>197.0</ele><time>2026-04-04T08:08:25Z</time></trkpt><trkpt lat="43.126127844636066" lon="12.44738232143758"><ele>197.0</ele><time>2026-04-04T08:08:26Z</time></trkpt><trkpt lat="43.12613123844609" lon="12.447592340165807"><ele>197.0</ele><time>2026-04-04T08:08:27Z</time></trkpt><trkpt lat="43.126137263282416" lon="12.44780583843537"><ele>197.0</ele><time>2026-04-04T08:08:28Z</time></trkpt><trkpt lat="43.12614350842951" lon="12.448006825705859"><ele>197.0</ele><time>2026-04-04T08:08:29Z</time></trkpt><trkpt lat="43.12614785548072" lon="12.448209772312373"><ele>197.0</ele><time>2026-04-04T08:08:30Z</time></trkpt><trkpt lat="43.12615375313622" lon="12.448412403304129"><ele>197.0</ele><time>2026-04-04T08:08:31Z</time></trkpt><trkpt lat="43.12616038895232" lon="12.448605560080033"><ele>197.0</ele><time>2026-04-04T08:08:32Z</time></trkpt><trkpt lat="43.126164811885246" lon="12.448791496561114"><ele>197.5</ele><time>2026-04-04T08:08:33Z</time></trkpt><trkpt lat="43.126168778318636" lon="12.448972576299038"><ele>198.0</ele><time>2026-04-04T08:08:34Z</time></trkpt><trkpt lat="43.126159110738804" lon="12.449138755100064"><ele>198.5</ele><time>2026-04-04T08:08:35Z</time></trkpt><trkpt lat="43.12616276009776" lon="12.449290290924106"><ele>199.0</ele><time>2026-04-04T08:08:36Z</time></trkpt><trkpt lat="43.126166318597576" lon="12.449438053947182"><ele>199.0</ele><time>2026-04-04T08:08:37Z</time></trkpt><trkpt lat="43.12616971997834" lon="12.449579292728894"><ele>199.0</ele><time>2026-04-04T08:08:38Z</time></trkpt><trkpt lat="43.12617317699735" lon="12.449722841833486"><ele>199.0</ele><time>2026-04-04T08:08:39Z</time></trkpt><trkpt lat="43.12618218603023" lon="12.44986035302276"><ele>199.0</ele><time>2026-04-04T08:08:40Z</time></trkpt><trkpt lat="43.12618479063745" lon="12.450003959300046"><ele>199.0</ele><time>2026-04-04T08:08:41Z</time></trkpt><trkpt lat="43.126175763902395" lon="12.45013489239186"><ele>198.85714285714283</ele><time>2026-04-04T08:08:42Z</time></trkpt><trkpt lat="43.126169077418595" lon="12.450251328148013"><ele>198.71428571428572</ele><time>2026-04-04T08:08:43Z</time></trkpt><trkpt lat="43.12616418905311" lon="12.450360252006433"><ele>198.57142857142856</ele><time>2026-04-04T08:08:44Z</time></trkpt><trkpt lat="43.12616061041119" lon="12.450457646476124"><ele>198.42857142857142</ele><time>2026-04-04T08:08:45Z</time></trkpt><trkpt lat="43.126168524370904" lon="12.450558641518679"><ele>198.28571428571428</ele><time>2026-04-04T08:08:46Z</time></trkpt><trkpt lat="43.126155983507964" lon="12.450646041760686"><ele>198.14285714285714</ele><time>2026-04-04T08:08:47Z</time></trkpt><trkpt lat="43.126149760924605" lon="12.45074185730177"><ele>198.0</ele><time>2026-04-04T08:08:48Z</time></trkpt><trkpt lat="43.12612083799322" lon="12.450895701406443"><ele>198.0</ele><time>2026-04-04T08:08:50Z</time></trkpt><trkpt lat="43.12609571619272" lon="12.450976954242913"><ele>198.0</ele><time>2026-04-04T08:08:52Z</time></trkpt><trkpt lat="43.12600807961418" lon="12.45108487509598"><ele>198.0</ele><time>2026-04-04T08:08:57Z</time></trkpt><trkpt lat="43.12593090797229" lon="12.45109865147549"><ele>198.0</ele><time>2026-04-04T08:08:58Z</time></trkpt><trkpt lat="43.125851810117275" lon="12.451100620969697"><ele>198.0</ele><time>2026-04-04T08:08:59Z</time></trkpt><trkpt lat="43.12576483644132" lon="12.451101033583727"><ele>198.0</ele><time>2026-04-04T08:09:00Z</time></trkpt><trkpt lat="43.12567375984271" lon="12.451098828679887"><ele>198.0</ele><time>2026-04-04T08:09:01Z</time></trkpt><trkpt lat="43.125566418227606" lon="12.45109393032602"><ele>198.0</ele><time>2026-04-04T08:09:02Z</time></trkpt><trkpt lat="43.12545970851993" lon="12.451109960622503"><ele>198.0</ele><time>2026-04-04T08:09:03Z</time></trkpt><trkpt lat="43.12533109731788" lon="12.451155914223467"><ele>198.0</ele><time>2026-04-04T08:09:04Z</time></trkpt><trkpt lat="43.12514437543325" lon="12.451241950857884"><ele>200.5</ele><time>2026-04-04T08:09:05Z</time></trkpt><trkpt lat="43.12493745339233" lon="12.451325925311842"><ele>203.0</ele><time>2026-04-04T08:09:06Z</time></trkpt><trkpt lat="43.124696677451134" lon="12.451384123067909"><ele>203.66666666666669</ele><time>2026-04-04T08:09:07Z</time></trkpt><trkpt lat="43.124482262904905" lon="12.451443692616742"><ele>204.33333333333331</ele><time>2026-04-04T08:09:08Z</time></trkpt><trkpt lat="43.12431236647109" lon="12.451498667873839"><ele>205.0</ele><time>2026-04-04T08:09:09Z</time></trkpt><trkpt lat="43.12416308905624" lon="12.451526064949842"><ele>205.25</ele><time>2026-04-04T08:09:10Z</time></trkpt><trkpt lat="43.124023600563724" lon="12.451531518167313"><ele>205.5</ele><time>2026-04-04T08:09:11Z</time></trkpt><trkpt lat="43.12389716899996" lon="12.451540095132051"><ele>205.75</ele><time>2026-04-04T08:09:12Z</time></trkpt><trkpt lat="43.12376864644262" lon="12.451547665094802"><ele>206.0</ele><time>2026-04-04T08:09:13Z</time></trkpt><trkpt lat="43.12363026404093" lon="12.451564527597393"><ele>206.0</ele><time>2026-04-04T08:09:14Z</time></trkpt><trkpt lat="43.12348417121228" lon="12.451600216875297"><ele>206.0</ele><time>2026-04-04T08:09:15Z</time></trkpt><trkpt lat="43.12330173660071" lon="12.45164432644078"><ele>206.0</ele><time>2026-04-04T08:09:16Z</time></trkpt><trkpt lat="43.123091536611845" lon="12.451667605424554"><ele>205.0</ele><time>2026-04-04T08:09:17Z</time></trkpt><trkpt lat="43.122872796566995" lon="12.451677231336138"><ele>204.0</ele><time>2026-04-04T08:09:18Z</time></trkpt><trkpt lat="43.12257086987947" lon="12.451675244749254"><ele>204.0</ele><time>2026-04-04T08:09:19Z</time></trkpt><trkpt lat="43.12227007809824" lon="12.45166544410086"><ele>204.0</ele><time>2026-04-04T08:09:20Z</time></trkpt><trkpt lat="43.121943939418905" lon="12.451637850358935"><ele>204.0</ele><time>2026-04-04T08:09:21Z</time></trkpt><trkpt lat="43.12161621931482" lon="12.451607202005604"><ele>204.0</ele><time>2026-04-04T08:09:22Z</time></trkpt><trkpt lat="43.121304686089815" lon="12.451626550224042"><ele>204.0</ele><time>2026-04-04T08:09:23Z</time></trkpt><trkpt lat="43.12102249525133" lon="12.451646185203701"><ele>204.0</ele><time>2026-04-04T08:09:24Z</time></trkpt><trkpt lat="43.12070735579118" lon="12.451636642569085"><ele>202.5</ele><time>2026-04-04T08:09:25Z</time></trkpt><trkpt lat="43.120409533342404" lon="12.451668370303057"><ele>201.0</ele><time>2026-04-04T08:09:26Z</time></trkpt><trkpt lat="43.120110995389076" lon="12.4516790821379"><ele>200.5</ele><time>2026-04-04T08:09:27Z</time></trkpt><trkpt lat="43.119813887019916" lon="12.451691779942209"><ele>200.0</ele><time>2026-04-04T08:09:28Z</time></trkpt><trkpt lat="43.11951980331874" lon="12.451696464873075"><ele>200.0</ele><time>2026-04-04T08:09:29Z</time></trkpt><trkpt lat="43.11922817854886" lon="12.451703884544163"><ele>200.0</ele><time>2026-04-04T08:09:30Z</time></trkpt><trkpt lat="43.118939260594736" lon="12.451714834058047"><ele>198.5</ele><time>2026-04-04T08:09:31Z</time></trkpt><trkpt lat="43.1186523958429" lon="12.451743057995495"><ele>197.0</ele><time>2026-04-04T08:09:32Z</time></trkpt><trkpt lat="43.11836674679523" lon="12.45179451635597"><ele>196.5</ele><time>2026-04-04T08:09:33Z</time></trkpt><trkpt lat="43.11808345267278" lon="12.451851279366903"><ele>196.0</ele><time>2026-04-04T08:09:34Z</time></trkpt><trkpt lat="43.11779881526241" lon="12.451935138490464"><ele>196.0</ele><time>2026-04-04T08:09:35Z</time></trkpt><trkpt lat="43.11752043837517" lon="12.452038708862627"><ele>196.0</ele><time>2026-04-04T08:09:36Z</time></trkpt><trkpt lat="43.11724580427562" lon="12.45216315806983"><ele>196.0</ele><time>2026-04-04T08:09:37Z</time></trkpt><trkpt lat="43.116978864796145" lon="12.452297879058808"><ele>196.0</ele><time>2026-04-04T08:09:38Z</time></trkpt><trkpt lat="43.116725697654694" lon="12.45244036215997"><ele>195.0</ele><time>2026-04-04T08:09:39Z</time></trkpt><trkpt lat="43.116467351001624" lon="12.45259067928482"><ele>194.0</ele><time>2026-04-04T08:09:40Z</time></trkpt><trkpt lat="43.116214449623975" lon="12.452766947454801"><ele>194.0</ele><time>2026-04-04T08:09:41Z</time></trkpt><trkpt lat="43.11596828340169" lon="12.452948251832431"><ele>194.0</ele><time>2026-04-04T08:09:42Z</time></trkpt><trkpt lat="43.11572871430466" lon="12.453149342045133"><ele>194.0</ele><time>2026-04-04T08:09:43Z</time></trkpt><trkpt lat="43.11549881248614" lon="12.453360022948404"><ele>194.0</ele><time>2026-04-04T08:09:44Z</time></trkpt><trkpt lat="43.1152766960276" lon="12.453585002180962"><ele>194.0</ele><time>2026-04-04T08:09:45Z</time></trkpt><trkpt lat="43.115060652962114" lon="12.453821087862746"><ele>194.0</ele><time>2026-04-04T08:09:46Z</time></trkpt><trkpt lat="43.11484599944511" lon="12.454061151046748"><ele>193.0</ele><time>2026-04-04T08:09:47Z</time></trkpt><trkpt lat="43.11463558338759" lon="12.454319382688716"><ele>192.0</ele><time>2026-04-04T08:09:48Z</time></trkpt><trkpt lat="43.11442609881028" lon="12.454580832807206"><ele>191.0</ele><time>2026-04-04T08:09:49Z</time></trkpt><trkpt lat="43.11421677851145" lon="12.454848048918864"><ele>190.0</ele><time>2026-04-04T08:09:50Z</time></trkpt><trkpt lat="43.11400871795489" lon="12.455107169328931"><ele>190.0</ele><time>2026-04-04T08:09:51Z</time></trkpt><trkpt lat="43.11380148286224" lon="12.455363502821506"><ele>190.0</ele><time>2026-04-04T08:09:52Z</time></trkpt><trkpt lat="43.113588885093336" lon="12.455615238984468"><ele>190.5</ele><time>2026-04-04T08:09:53Z</time></trkpt><trkpt lat="43.113381369745724" lon="12.455865937729442"><ele>191.0</ele><time>2026-04-04T08:09:54Z</time></trkpt><trkpt lat="43.113174720871264" lon="12.456117013422837"><ele>191.5</ele><time>2026-04-04T08:09:55Z</time></trkpt><trkpt lat="43.11296445931836" lon="12.456376169464827"><ele>192.0</ele><time>2026-04-04T08:09:56Z</time></trkpt><trkpt lat="43.11275240795611" lon="12.45662875016318"><ele>192.0</ele><time>2026-04-04T08:09:57Z</time></trkpt><trkpt lat="43.112543333802876" lon="12.45688466682127"><ele>192.0</ele><time>2026-04-04T08:09:58Z</time></trkpt><trkpt lat="43.11233078094811" lon="12.45713233715107"><ele>192.5</ele><time>2026-04-04T08:09:59Z</time></trkpt><trkpt lat="43.11211513894385" lon="12.4573863724448"><ele>193.0</ele><time>2026-04-04T08:10:00Z</time></trkpt><trkpt lat="43.1119091280535" lon="12.45763937729558"><ele>193.0</ele><time>2026-04-04T08:10:01Z</time></trkpt><trkpt lat="43.11169596541277" lon="12.457879176278206"><ele>193.0</ele><time>2026-04-04T08:10:02Z</time></trkpt><trkpt lat="43.111481231280315" lon="12.458123289857875"><ele>193.0</ele><time>2026-04-04T08:10:03Z</time></trkpt><trkpt lat="43.11127329734399" lon="12.458373071643853"><ele>193.0</ele><time>2026-04-04T08:10:04Z</time></trkpt><trkpt lat="43.11106817640138" lon="12.458625786399338"><ele>193.0</ele><time>2026-04-04T08:10:05Z</time></trkpt><trkpt lat="43.11086186588275" lon="12.458878653921866"><ele>193.0</ele><time>2026-04-04T08:10:06Z</time></trkpt><trkpt lat="43.1106556645757" lon="12.459129869375136"><ele>192.0</ele><time>2026-04-04T08:10:07Z</time></trkpt><trkpt lat="43.110450906427666" lon="12.459383697772967"><ele>191.0</ele><time>2026-04-04T08:10:08Z</time></trkpt><trkpt lat="43.11024706323708" lon="12.45963624162831"><ele>191.0</ele><time>2026-04-04T08:10:09Z</time></trkpt><trkpt lat="43.11004115335938" lon="12.459885310761598"><ele>191.0</ele><time>2026-04-04T08:10:10Z</time></trkpt><trkpt lat="43.109837704190326" lon="12.460131596158668"><ele>191.0</ele><time>2026-04-04T08:10:11Z</time></trkpt><trkpt lat="43.1096346652404" lon="12.460370190806744"><ele>191.0</ele><time>2026-04-04T08:10:12Z</time></trkpt><trkpt lat="43.10943421613507" lon="12.460632272189466"><ele>191.0</ele><time>2026-04-04T08:10:13Z</time></trkpt><trkpt lat="43.10925333498613" lon="12.460910559841684"><ele>191.0</ele><time>2026-04-04T08:10:14Z</time></trkpt><trkpt lat="43.109095184799436" lon="12.461226480396805"><ele>192.0</ele><time>2026-04-04T08:10:15Z</time></trkpt><trkpt lat="43.108967592874315" lon="12.46158418787377"><ele>193.0</ele><time>2026-04-04T08:10:16Z</time></trkpt><trkpt lat="43.10886262910247" lon="12.4619549646831"><ele>192.5</ele><time>2026-04-04T08:10:17Z</time></trkpt><trkpt lat="43.10876885599056" lon="12.462315817678698"><ele>192.0</ele><time>2026-04-04T08:10:18Z</time></trkpt><trkpt lat="43.10870813168891" lon="12.462680782057655"><ele>192.5</ele><time>2026-04-04T08:10:19Z</time></trkpt><trkpt lat="43.10868500705534" lon="12.463050341053837"><ele>193.0</ele><time>2026-04-04T08:10:20Z</time></trkpt><trkpt lat="43.10869767086252" lon="12.46344851302644"><ele>193.0</ele><time>2026-04-04T08:10:21Z</time></trkpt><trkpt lat="43.108672466691864" lon="12.463867901881464"><ele>193.0</ele><time>2026-04-04T08:10:22Z</time></trkpt><trkpt lat="43.108656697732954" lon="12.464279677853428"><ele>193.0</ele><time>2026-04-04T08:10:23Z</time></trkpt><trkpt lat="43.108639160740324" lon="12.46466570174307"><ele>193.0</ele><time>2026-04-04T08:10:24Z</time></trkpt><trkpt lat="43.10863337713391" lon="12.465044484274436"><ele>193.0</ele><time>2026-04-04T08:10:25Z</time></trkpt><trkpt lat="43.108629990102585" lon="12.4654220712711"><ele>193.0</ele><time>2026-04-04T08:10:26Z</time></trkpt><trkpt lat="43.1086253130321" lon="12.465795358416338"><ele>193.0</ele><time>2026-04-04T08:10:27Z</time></trkpt><trkpt lat="43.10861514333628" lon="12.466165579116684"><ele>193.0</ele><time>2026-04-04T08:10:28Z</time></trkpt><trkpt lat="43.10860719691643" lon="12.46653037458691"><ele>191.5</ele><time>2026-04-04T08:10:29Z</time></trkpt><trkpt lat="43.10859799868933" lon="12.466898467624421"><ele>190.0</ele><time>2026-04-04T08:10:30Z</time></trkpt><trkpt lat="43.10858668556392" lon="12.467265058455869"><ele>190.0</ele><time>2026-04-04T08:10:31Z</time></trkpt><trkpt lat="43.1085793490492" lon="12.467628251838237"><ele>190.0</ele><time>2026-04-04T08:10:32Z</time></trkpt><trkpt lat="43.10857212927183" lon="12.467997677491455"><ele>190.5</ele><time>2026-04-04T08:10:33Z</time></trkpt><trkpt lat="43.10856226979055" lon="12.468368604701608"><ele>191.0</ele><time>2026-04-04T08:10:34Z</time></trkpt><trkpt lat="43.10855444572059" lon="12.468739534756246"><ele>190.0</ele><time>2026-04-04T08:10:35Z</time></trkpt><trkpt lat="43.108547539778925" lon="12.469114645672335"><ele>189.0</ele><time>2026-04-04T08:10:36Z</time></trkpt><trkpt lat="43.1085443896719" lon="12.469481617668485"><ele>190.0</ele><time>2026-04-04T08:10:37Z</time></trkpt><trkpt lat="43.1085364315497" lon="12.469849403489485"><ele>191.0</ele><time>2026-04-04T08:10:38Z</time></trkpt><trkpt lat="43.10851210827791" lon="12.47020916916061"><ele>191.0</ele><time>2026-04-04T08:10:39Z</time></trkpt><trkpt lat="43.10849729726083" lon="12.47057402449269"><ele>191.0</ele><time>2026-04-04T08:10:40Z</time></trkpt><trkpt lat="43.10848121582183" lon="12.470935325434391"><ele>191.5</ele><time>2026-04-04T08:10:41Z</time></trkpt><trkpt lat="43.10846091380303" lon="12.471302074407916"><ele>192.0</ele><time>2026-04-04T08:10:42Z</time></trkpt><trkpt lat="43.10842650966626" lon="12.471670226595013"><ele>192.0</ele><time>2026-04-04T08:10:43Z</time></trkpt><trkpt lat="43.10837746713768" lon="12.472040593675368"><ele>192.0</ele><time>2026-04-04T08:10:44Z</time></trkpt><trkpt lat="43.10831494525429" lon="12.472404046866792"><ele>192.5</ele><time>2026-04-04T08:10:45Z</time></trkpt><trkpt lat="43.108220038904754" lon="12.472754729695964"><ele>193.0</ele><time>2026-04-04T08:10:46Z</time></trkpt><trkpt lat="43.1080872655021" lon="12.473082793550358"><ele>193.0</ele><time>2026-04-04T08:10:47Z</time></trkpt><trkpt lat="43.107927498352" lon="12.473395262007033"><ele>193.0</ele><time>2026-04-04T08:10:48Z</time></trkpt><trkpt lat="43.107740425948286" lon="12.47367551364804"><ele>193.5</ele><time>2026-04-04T08:10:49Z</time></trkpt><trkpt lat="43.107540977479715" lon="12.473911510204513"><ele>194.0</ele><time>2026-04-04T08:10:50Z</time></trkpt><trkpt lat="43.1073387782917" lon="12.474156048296157"><ele>194.0</ele><time>2026-04-04T08:10:51Z</time></trkpt><trkpt lat="43.10714450905393" lon="12.474410731341548"><ele>194.0</ele><time>2026-04-04T08:10:52Z</time></trkpt><trkpt lat="43.106929933774" lon="12.47464014399331"><ele>194.0</ele><time>2026-04-04T08:10:53Z</time></trkpt><trkpt lat="43.10671215592432" lon="12.474869443878388"><ele>194.0</ele><time>2026-04-04T08:10:54Z</time></trkpt><trkpt lat="43.106493901112486" lon="12.475116812592034"><ele>193.5</ele><time>2026-04-04T08:10:55Z</time></trkpt><trkpt lat="43.106272986395545" lon="12.475365767426727"><ele>193.0</ele><time>2026-04-04T08:10:56Z</time></trkpt><trkpt lat="43.10605210847431" lon="12.475605225104205"><ele>192.0</ele><time>2026-04-04T08:10:57Z</time></trkpt><trkpt lat="43.10582752318039" lon="12.475833807856512"><ele>191.0</ele><time>2026-04-04T08:10:58Z</time></trkpt><trkpt lat="43.10560613129493" lon="12.476053677841916"><ele>191.0</ele><time>2026-04-04T08:10:59Z</time></trkpt><trkpt lat="43.10536447298461" lon="12.476248707125947"><ele>191.0</ele><time>2026-04-04T08:11:00Z</time></trkpt><trkpt lat="43.10511540447434" lon="12.476396261268466"><ele>191.5</ele><time>2026-04-04T08:11:01Z</time></trkpt><trkpt lat="43.10485897054585" lon="12.476515917327108"><ele>192.0</ele><time>2026-04-04T08:11:02Z</time></trkpt><trkpt lat="43.10459949485465" lon="12.476593173392999"><ele>192.0</ele><time>2026-04-04T08:11:03Z</time></trkpt><trkpt lat="43.10433349983954" lon="12.476641115019264"><ele>192.0</ele><time>2026-04-04T08:11:04Z</time></trkpt><trkpt lat="43.10406611506613" lon="12.476671748798434"><ele>192.5</ele><time>2026-04-04T08:11:05Z</time></trkpt><trkpt lat="43.10379473701179" lon="12.476666541888404"><ele>193.0</ele><time>2026-04-04T08:11:06Z</time></trkpt><trkpt lat="43.103521699705745" lon="12.47664076101332"><ele>193.0</ele><time>2026-04-04T08:11:07Z</time></trkpt><trkpt lat="43.1032510027277" lon="12.47663897935586"><ele>193.0</ele><time>2026-04-04T08:11:08Z</time></trkpt><trkpt lat="43.10298386116616" lon="12.476617761457888"><ele>192.0</ele><time>2026-04-04T08:11:09Z</time></trkpt><trkpt lat="43.102709005586725" lon="12.476589590056411"><ele>191.0</ele><time>2026-04-04T08:11:10Z</time></trkpt><trkpt lat="43.10244106047423" lon="12.476560543442808"><ele>191.0</ele><time>2026-04-04T08:11:11Z</time></trkpt><trkpt lat="43.102170487669035" lon="12.476543121050414"><ele>191.0</ele><time>2026-04-04T08:11:12Z</time></trkpt><trkpt lat="43.10190346417433" lon="12.476514374254702"><ele>191.0</ele><time>2026-04-04T08:11:13Z</time></trkpt><trkpt lat="43.10163465075199" lon="12.476504057125013"><ele>191.0</ele><time>2026-04-04T08:11:14Z</time></trkpt><trkpt lat="43.10136830406909" lon="12.476486200903953"><ele>189.5</ele><time>2026-04-04T08:11:15Z</time></trkpt><trkpt lat="43.10109547770659" lon="12.476463939121016"><ele>188.0</ele><time>2026-04-04T08:11:16Z</time></trkpt><trkpt lat="43.100821075848025" lon="12.476438535204363"><ele>188.5</ele><time>2026-04-04T08:11:17Z</time></trkpt><trkpt lat="43.10054455784257" lon="12.47641226135868"><ele>189.0</ele><time>2026-04-04T08:11:18Z</time></trkpt><trkpt lat="43.100269063194936" lon="12.476384350675845"><ele>189.0</ele><time>2026-04-04T08:11:19Z</time></trkpt><trkpt lat="43.09999290406121" lon="12.476352616143508"><ele>189.0</ele><time>2026-04-04T08:11:20Z</time></trkpt><trkpt lat="43.099708942171446" lon="12.476326050910288"><ele>189.5</ele><time>2026-04-04T08:11:21Z</time></trkpt><trkpt lat="43.09942558667296" lon="12.476289636969593"><ele>190.0</ele><time>2026-04-04T08:11:22Z</time></trkpt><trkpt lat="43.09914618886842" lon="12.476249915526255"><ele>190.0</ele><time>2026-04-04T08:11:23Z</time></trkpt><trkpt lat="43.098864887986146" lon="12.47621105015202"><ele>190.0</ele><time>2026-04-04T08:11:24Z</time></trkpt><trkpt lat="43.09858877149608" lon="12.476170114052008"><ele>190.0</ele><time>2026-04-04T08:11:25Z</time></trkpt><trkpt lat="43.09831079887182" lon="12.476121890671138"><ele>190.0</ele><time>2026-04-04T08:11:26Z</time></trkpt><trkpt lat="43.098029095989965" lon="12.476089001749347"><ele>190.5</ele><time>2026-04-04T08:11:27Z</time></trkpt><trkpt lat="43.09774737737113" lon="12.476051786311967"><ele>191.0</ele><time>2026-04-04T08:11:28Z</time></trkpt><trkpt lat="43.097473805912735" lon="12.476005101579677"><ele>191.0</ele><time>2026-04-04T08:11:29Z</time></trkpt><trkpt lat="43.09719529128655" lon="12.475959305677087"><ele>191.0</ele><time>2026-04-04T08:11:30Z</time></trkpt><trkpt lat="43.09691564767178" lon="12.475911087498282"><ele>191.0</ele><time>2026-04-04T08:11:31Z</time></trkpt><trkpt lat="43.09663784836019" lon="12.475860713064142"><ele>191.0</ele><time>2026-04-04T08:11:32Z</time></trkpt><trkpt lat="43.096358151916014" lon="12.47581167586711"><ele>190.0</ele><time>2026-04-04T08:11:33Z</time></trkpt><trkpt lat="43.09608377585485" lon="12.475757054322164"><ele>189.0</ele><time>2026-04-04T08:11:34Z</time></trkpt><trkpt lat="43.09581222782233" lon="12.475701668461008"><ele>189.5</ele><time>2026-04-04T08:11:35Z</time></trkpt><trkpt lat="43.0955391493585" lon="12.475645639787421"><ele>190.0</ele><time>2026-04-04T08:11:36Z</time></trkpt><trkpt lat="43.09526735331293" lon="12.47559084577264"><ele>190.0</ele><time>2026-04-04T08:11:37Z</time></trkpt><trkpt lat="43.09500227143343" lon="12.475532239624922"><ele>190.0</ele><time>2026-04-04T08:11:38Z</time></trkpt><trkpt lat="43.09474194767079" lon="12.475476348524495"><ele>190.0</ele><time>2026-04-04T08:11:39Z</time></trkpt><trkpt lat="43.094480299249064" lon="12.475420770156452"><ele>190.0</ele><time>2026-04-04T08:11:40Z</time></trkpt><trkpt lat="43.09421965203067" lon="12.475362251450449"><ele>192.0</ele><time>2026-04-04T08:11:41Z</time></trkpt><trkpt lat="43.09395847636503" lon="12.475304914319265"><ele>194.0</ele><time>2026-04-04T08:11:42Z</time></trkpt><trkpt lat="43.09369868977714" lon="12.475246765903188"><ele>194.0</ele><time>2026-04-04T08:11:43Z</time></trkpt><trkpt lat="43.09344042091908" lon="12.475187678291764"><ele>194.0</ele><time>2026-04-04T08:11:44Z</time></trkpt><trkpt lat="43.093181363702946" lon="12.475132239180889"><ele>197.5</ele><time>2026-04-04T08:11:45Z</time></trkpt><trkpt lat="43.092942188008074" lon="12.475084551260982"><ele>201.0</ele><time>2026-04-04T08:11:46Z</time></trkpt><trkpt lat="43.09271573130988" lon="12.475033760148738"><ele>201.0</ele><time>2026-04-04T08:11:47Z</time></trkpt><trkpt lat="43.092491933350296" lon="12.47498123325253"><ele>201.0</ele><time>2026-04-04T08:11:48Z</time></trkpt><trkpt lat="43.09227187445453" lon="12.474926806545389"><ele>201.0</ele><time>2026-04-04T08:11:49Z</time></trkpt><trkpt lat="43.09205366276" lon="12.474873379840162"><ele>201.0</ele><time>2026-04-04T08:11:50Z</time></trkpt><trkpt lat="43.09183569646703" lon="12.474826120794141"><ele>201.0</ele><time>2026-04-04T08:11:51Z</time></trkpt><trkpt lat="43.09158656311733" lon="12.474774203373288"><ele>201.0</ele><time>2026-04-04T08:11:52Z</time></trkpt><trkpt lat="43.09133164601815" lon="12.47469662995558"><ele>201.0</ele><time>2026-04-04T08:11:53Z</time></trkpt><trkpt lat="43.09106974339869" lon="12.474626288398934"><ele>199.5</ele><time>2026-04-04T08:11:54Z</time></trkpt><trkpt lat="43.090802318555774" lon="12.474563394914071"><ele>198.0</ele><time>2026-04-04T08:11:55Z</time></trkpt><trkpt lat="43.090547610648485" lon="12.474488261538522"><ele>197.0</ele><time>2026-04-04T08:11:56Z</time></trkpt><trkpt lat="43.090291823727824" lon="12.474413628146559"><ele>196.0</ele><time>2026-04-04T08:11:57Z</time></trkpt><trkpt lat="43.09002035381304" lon="12.474350407228897"><ele>197.0</ele><time>2026-04-04T08:11:58Z</time></trkpt><trkpt lat="43.0897428353929" lon="12.474295202783342"><ele>198.0</ele><time>2026-04-04T08:11:59Z</time></trkpt><trkpt lat="43.089489824541" lon="12.474242012656113"><ele>198.0</ele><time>2026-04-04T08:12:00Z</time></trkpt><trkpt lat="43.08925906029272" lon="12.47419591901003"><ele>198.0</ele><time>2026-04-04T08:12:01Z</time></trkpt><trkpt lat="43.08905556546814" lon="12.474150092929623"><ele>198.0</ele><time>2026-04-04T08:12:02Z</time></trkpt><trkpt lat="43.0888665455217" lon="12.474102921208026"><ele>199.33333333333331</ele><time>2026-04-04T08:12:03Z</time></trkpt><trkpt lat="43.08868635482287" lon="12.474032656691781"><ele>200.66666666666666</ele><time>2026-04-04T08:12:04Z</time></trkpt><trkpt lat="43.088510042339735" lon="12.47392322431291"><ele>202.0</ele><time>2026-04-04T08:12:05Z</time></trkpt><trkpt lat="43.0883574935588" lon="12.473796574613894"><ele>205.66666666666666</ele><time>2026-04-04T08:12:06Z</time></trkpt><trkpt lat="43.08822921867604" lon="12.473656532079394"><ele>209.33333333333331</ele><time>2026-04-04T08:12:07Z</time></trkpt><trkpt lat="43.088120391503864" lon="12.473486704899422"><ele>213.0</ele><time>2026-04-04T08:12:08Z</time></trkpt><trkpt lat="43.08803375170914" lon="12.473295337031232"><ele>213.0</ele><time>2026-04-04T08:12:09Z</time></trkpt><trkpt lat="43.08797887851788" lon="12.473106363802417"><ele>213.0</ele><time>2026-04-04T08:12:10Z</time></trkpt><trkpt lat="43.0879418007931" lon="12.47291890517344"><ele>213.0</ele><time>2026-04-04T08:12:11Z</time></trkpt><trkpt lat="43.08792875821035" lon="12.472734712028657"><ele>213.0</ele><time>2026-04-04T08:12:12Z</time></trkpt><trkpt lat="43.08793806219609" lon="12.472557703666011"><ele>211.75</ele><time>2026-04-04T08:12:13Z</time></trkpt><trkpt lat="43.087973382537456" lon="12.472373693430951"><ele>210.5</ele><time>2026-04-04T08:12:14Z</time></trkpt><trkpt lat="43.08803927248184" lon="12.472207062068843"><ele>209.25</ele><time>2026-04-04T08:12:15Z</time></trkpt><trkpt lat="43.088132320743554" lon="12.472078386562707"><ele>208.0</ele><time>2026-04-04T08:12:16Z</time></trkpt><trkpt lat="43.08825068734562" lon="12.472014477670704"><ele>205.25</ele><time>2026-04-04T08:12:17Z</time></trkpt><trkpt lat="43.088375155056056" lon="12.471997105335255"><ele>202.5</ele><time>2026-04-04T08:12:18Z</time></trkpt><trkpt lat="43.08850154297516" lon="12.472056977778559"><ele>199.75</ele><time>2026-04-04T08:12:19Z</time></trkpt><trkpt lat="43.08859691151195" lon="12.472170869025899"><ele>197.0</ele><time>2026-04-04T08:12:20Z</time></trkpt><trkpt lat="43.088656294644395" lon="12.47233596216364"><ele>197.0</ele><time>2026-04-04T08:12:21Z</time></trkpt><trkpt lat="43.088665576595034" lon="12.472536795260126"><ele>197.0</ele><time>2026-04-04T08:12:22Z</time></trkpt><trkpt lat="43.0886222382363" lon="12.472712628232491"><ele>197.0</ele><time>2026-04-04T08:12:23Z</time></trkpt><trkpt lat="43.08854655170717" lon="12.472908079603636"><ele>197.0</ele><time>2026-04-04T08:12:24Z</time></trkpt><trkpt lat="43.08844272651967" lon="12.473142798024206"><ele>198.33333333333334</ele><time>2026-04-04T08:12:25Z</time></trkpt><trkpt lat="43.088335508063906" lon="12.473395033327517"><ele>199.66666666666669</ele><time>2026-04-04T08:12:26Z</time></trkpt><trkpt lat="43.088233477012224" lon="12.473655897133966"><ele>201.0</ele><time>2026-04-04T08:12:27Z</time></trkpt><trkpt lat="43.08814690227776" lon="12.473885203809623"><ele>205.33333333333331</ele><time>2026-04-04T08:12:28Z</time></trkpt><trkpt lat="43.08805859845909" lon="12.474117375299686"><ele>209.66666666666666</ele><time>2026-04-04T08:12:29Z</time></trkpt><trkpt lat="43.08799947999721" lon="12.474347804757903"><ele>214.0</ele><time>2026-04-04T08:12:30Z</time></trkpt><trkpt lat="43.0879576274319" lon="12.474583218275495"><ele>213.33333333333331</ele><time>2026-04-04T08:12:31Z</time></trkpt><trkpt lat="43.08792371418296" lon="12.474808884564393"><ele>212.66666666666669</ele><time>2026-04-04T08:12:32Z</time></trkpt><trkpt lat="43.08790021729807" lon="12.47503547485692"><ele>212.0</ele><time>2026-04-04T08:12:33Z</time></trkpt><trkpt lat="43.08788081310936" lon="12.475248866786625"><ele>211.25</ele><time>2026-04-04T08:12:34Z</time></trkpt><trkpt lat="43.08786257545772" lon="12.475445268692058"><ele>210.5</ele><time>2026-04-04T08:12:35Z</time></trkpt><trkpt lat="43.08784081191198" lon="12.475644263923058"><ele>209.75</ele><time>2026-04-04T08:12:36Z</time></trkpt><trkpt lat="43.08782217434978" lon="12.475852608872625"><ele>209.0</ele><time>2026-04-04T08:12:37Z</time></trkpt><trkpt lat="43.08779999829856" lon="12.476060423090532"><ele>209.0</ele><time>2026-04-04T08:12:38Z</time></trkpt><trkpt lat="43.0877810178045" lon="12.476269839510321"><ele>209.0</ele><time>2026-04-04T08:12:39Z</time></trkpt><trkpt lat="43.08776571311073" lon="12.476481475208262"><ele>209.0</ele><time>2026-04-04T08:12:40Z</time></trkpt><trkpt lat="43.08775128874585" lon="12.476702785301466"><ele>209.0</ele><time>2026-04-04T08:12:41Z</time></trkpt><trkpt lat="43.0877361663682" lon="12.476932509606304"><ele>209.0</ele><time>2026-04-04T08:12:42Z</time></trkpt><trkpt lat="43.087724445089066" lon="12.477178012806027"><ele>209.0</ele><time>2026-04-04T08:12:43Z</time></trkpt><trkpt lat="43.08770824837516" lon="12.477454785221894"><ele>208.0</ele><time>2026-04-04T08:12:44Z</time></trkpt><trkpt lat="43.08769045508837" lon="12.477771373917228"><ele>207.0</ele><time>2026-04-04T08:12:45Z</time></trkpt><trkpt lat="43.08766710719993" lon="12.47811797257534"><ele>206.5</ele><time>2026-04-04T08:12:46Z</time></trkpt><trkpt lat="43.087641048335186" lon="12.47846494278987"><ele>206.0</ele><time>2026-04-04T08:12:47Z</time></trkpt><trkpt lat="43.08762232790997" lon="12.478794643575407"><ele>206.0</ele><time>2026-04-04T08:12:48Z</time></trkpt><trkpt lat="43.08760773183802" lon="12.479099977116917"><ele>206.0</ele><time>2026-04-04T08:12:49Z</time></trkpt><trkpt lat="43.087592494495674" lon="12.47939384515002"><ele>206.0</ele><time>2026-04-04T08:12:50Z</time></trkpt><trkpt lat="43.08757328694266" lon="12.479672946910126"><ele>206.66666666666669</ele><time>2026-04-04T08:12:51Z</time></trkpt><trkpt lat="43.08755237722766" lon="12.47995253856305"><ele>207.33333333333331</ele><time>2026-04-04T08:12:52Z</time></trkpt><trkpt lat="43.0875300664626" lon="12.48023602045876"><ele>208.0</ele><time>2026-04-04T08:12:53Z</time></trkpt><trkpt lat="43.087507995016935" lon="12.480523699954155"><ele>208.66666666666666</ele><time>2026-04-04T08:12:54Z</time></trkpt><trkpt lat="43.08748180282291" lon="12.480814615963665"><ele>209.33333333333331</ele><time>2026-04-04T08:12:55Z</time></trkpt><trkpt lat="43.08743149870864" lon="12.481105819847748"><ele>210.0</ele><time>2026-04-04T08:12:56Z</time></trkpt><trkpt lat="43.08736669143375" lon="12.481391278379691"><ele>210.0</ele><time>2026-04-04T08:12:57Z</time></trkpt><trkpt lat="43.08728182669426" lon="12.481661860667538"><ele>210.0</ele><time>2026-04-04T08:12:58Z</time></trkpt><trkpt lat="43.08718244380111" lon="12.481932716359436"><ele>210.0</ele><time>2026-04-04T08:12:59Z</time></trkpt><trkpt lat="43.08706263754246" lon="12.482189301872882"><ele>209.0</ele><time>2026-04-04T08:13:00Z</time></trkpt><trkpt lat="43.08694269523732" lon="12.482447253471287"><ele>208.0</ele><time>2026-04-04T08:13:01Z</time></trkpt><trkpt lat="43.08679342291573" lon="12.482685909059997"><ele>208.0</ele><time>2026-04-04T08:13:02Z</time></trkpt><trkpt lat="43.086640776447325" lon="12.482924053912134"><ele>208.0</ele><time>2026-04-04T08:13:03Z</time></trkpt><trkpt lat="43.08647977955041" lon="12.483160920760008"><ele>205.5</ele><time>2026-04-04T08:13:04Z</time></trkpt><trkpt lat="43.086314625767386" lon="12.48340143995298"><ele>203.0</ele><time>2026-04-04T08:13:05Z</time></trkpt><trkpt lat="43.086149854275476" lon="12.483651505523357"><ele>202.5</ele><time>2026-04-04T08:13:06Z</time></trkpt><trkpt lat="43.08598481090924" lon="12.483908516066915"><ele>202.0</ele><time>2026-04-04T08:13:07Z</time></trkpt><trkpt lat="43.085819800075974" lon="12.484166062718545"><ele>202.0</ele><time>2026-04-04T08:13:08Z</time></trkpt><trkpt lat="43.08565211027345" lon="12.484418623950306"><ele>202.0</ele><time>2026-04-04T08:13:09Z</time></trkpt><trkpt lat="43.08549174504583" lon="12.484661790769074"><ele>202.0</ele><time>2026-04-04T08:13:10Z</time></trkpt><trkpt lat="43.085334475074724" lon="12.48489642578972"><ele>202.0</ele><time>2026-04-04T08:13:11Z</time></trkpt><trkpt lat="43.08518389227417" lon="12.485111924961982"><ele>202.0</ele><time>2026-04-04T08:13:12Z</time></trkpt><trkpt lat="43.085029614564355" lon="12.48534013242994"><ele>202.0</ele><time>2026-04-04T08:13:13Z</time></trkpt><trkpt lat="43.084879619281956" lon="12.485569641730612"><ele>201.5</ele><time>2026-04-04T08:13:14Z</time></trkpt><trkpt lat="43.08472814701798" lon="12.485798626642428"><ele>201.0</ele><time>2026-04-04T08:13:15Z</time></trkpt><trkpt lat="43.08457486230238" lon="12.486029016571033"><ele>201.0</ele><time>2026-04-04T08:13:16Z</time></trkpt><trkpt lat="43.08442114176697" lon="12.486257063518238"><ele>201.0</ele><time>2026-04-04T08:13:17Z</time></trkpt><trkpt lat="43.08426510646722" lon="12.486494630514573"><ele>200.5</ele><time>2026-04-04T08:13:18Z</time></trkpt><trkpt lat="43.08410790696789" lon="12.48673579054218"><ele>200.0</ele><time>2026-04-04T08:13:19Z</time></trkpt><trkpt lat="43.08395211115365" lon="12.486974792851525"><ele>199.5</ele><time>2026-04-04T08:13:20Z</time></trkpt><trkpt lat="43.083795419162726" lon="12.487211826442245"><ele>199.0</ele><time>2026-04-04T08:13:21Z</time></trkpt><trkpt lat="43.083638496431966" lon="12.4874461292128"><ele>199.0</ele><time>2026-04-04T08:13:22Z</time></trkpt><trkpt lat="43.08348266991802" lon="12.487685797673187"><ele>199.0</ele><time>2026-04-04T08:13:23Z</time></trkpt><trkpt lat="43.08332378119255" lon="12.48792745428495"><ele>199.0</ele><time>2026-04-04T08:13:24Z</time></trkpt><trkpt lat="43.08316570287202" lon="12.488171703160013"><ele>199.0</ele><time>2026-04-04T08:13:25Z</time></trkpt><trkpt lat="43.08300298777186" lon="12.488416289244535"><ele>199.0</ele><time>2026-04-04T08:13:26Z</time></trkpt><trkpt lat="43.082838350084884" lon="12.48866204646358"><ele>199.0</ele><time>2026-04-04T08:13:27Z</time></trkpt><trkpt lat="43.08267264811146" lon="12.488914077706742"><ele>198.5</ele><time>2026-04-04T08:13:28Z</time></trkpt><trkpt lat="43.08251451138828" lon="12.489173073262807"><ele>198.0</ele><time>2026-04-04T08:13:29Z</time></trkpt><trkpt lat="43.08237212630215" lon="12.4894511877959"><ele>197.5</ele><time>2026-04-04T08:13:30Z</time></trkpt><trkpt lat="43.08224406762463" lon="12.489751140791661"><ele>197.0</ele><time>2026-04-04T08:13:31Z</time></trkpt><trkpt lat="43.08212281655214" lon="12.490058561374871"><ele>197.0</ele><time>2026-04-04T08:13:32Z</time></trkpt><trkpt lat="43.08201555270116" lon="12.490383869422375"><ele>197.0</ele><time>2026-04-04T08:13:33Z</time></trkpt><trkpt lat="43.08192321607976" lon="12.490721293574964"><ele>197.0</ele><time>2026-04-04T08:13:34Z</time></trkpt><trkpt lat="43.08185089264001" lon="12.491052215300616"><ele>197.0</ele><time>2026-04-04T08:13:35Z</time></trkpt><trkpt lat="43.081777739322575" lon="12.491394468578086"><ele>196.0</ele><time>2026-04-04T08:13:36Z</time></trkpt><trkpt lat="43.081720949541925" lon="12.491744576737078"><ele>195.0</ele><time>2026-04-04T08:13:37Z</time></trkpt><trkpt lat="43.081669772099964" lon="12.492100055992223"><ele>196.5</ele><time>2026-04-04T08:13:38Z</time></trkpt><trkpt lat="43.08159808762604" lon="12.492448378662806"><ele>198.0</ele><time>2026-04-04T08:13:39Z</time></trkpt><trkpt lat="43.08153521555943" lon="12.492807274987795"><ele>196.0</ele><time>2026-04-04T08:13:40Z</time></trkpt><trkpt lat="43.081470366543215" lon="12.493164613737653"><ele>194.0</ele><time>2026-04-04T08:13:41Z</time></trkpt><trkpt lat="43.081413683281326" lon="12.493507369121804"><ele>194.0</ele><time>2026-04-04T08:13:42Z</time></trkpt><trkpt lat="43.08135301127033" lon="12.49386290080362"><ele>194.0</ele><time>2026-04-04T08:13:43Z</time></trkpt><trkpt lat="43.08128633176875" lon="12.494204128256078"><ele>194.0</ele><time>2026-04-04T08:13:44Z</time></trkpt><trkpt lat="43.08121865984824" lon="12.494546527969193"><ele>194.0</ele><time>2026-04-04T08:13:45Z</time></trkpt><trkpt lat="43.08114985486757" lon="12.494884408115976"><ele>194.5</ele><time>2026-04-04T08:13:46Z</time></trkpt><trkpt lat="43.08108517716985" lon="12.49524764285075"><ele>195.0</ele><time>2026-04-04T08:13:47Z</time></trkpt><trkpt lat="43.08101475828598" lon="12.495592426175845"><ele>195.5</ele><time>2026-04-04T08:13:48Z</time></trkpt><trkpt lat="43.0809326075211" lon="12.495933803669079"><ele>196.0</ele><time>2026-04-04T08:13:49Z</time></trkpt><trkpt lat="43.08085603963392" lon="12.496279273519596"><ele>195.5</ele><time>2026-04-04T08:13:50Z</time></trkpt><trkpt lat="43.080761663527916" lon="12.496615582587571"><ele>195.0</ele><time>2026-04-04T08:13:51Z</time></trkpt><trkpt lat="43.08065587624293" lon="12.496946788784431"><ele>196.0</ele><time>2026-04-04T08:13:52Z</time></trkpt><trkpt lat="43.08053708241705" lon="12.49727140342107"><ele>197.0</ele><time>2026-04-04T08:13:53Z</time></trkpt><trkpt lat="43.08040297369587" lon="12.49758621836573"><ele>197.0</ele><time>2026-04-04T08:13:54Z</time></trkpt><trkpt lat="43.08025745014132" lon="12.497888856637553"><ele>197.0</ele><time>2026-04-04T08:13:55Z</time></trkpt><trkpt lat="43.08010254928281" lon="12.498183578706843"><ele>197.0</ele><time>2026-04-04T08:13:56Z</time></trkpt><trkpt lat="43.07993536941808" lon="12.498464657146394"><ele>197.0</ele><time>2026-04-04T08:13:57Z</time></trkpt><trkpt lat="43.07975843184065" lon="12.498736477343348"><ele>197.5</ele><time>2026-04-04T08:13:58Z</time></trkpt><trkpt lat="43.07957551719092" lon="12.499000665114657"><ele>198.0</ele><time>2026-04-04T08:13:59Z</time></trkpt><trkpt lat="43.07938850601537" lon="12.499265675555023"><ele>198.0</ele><time>2026-04-04T08:14:00Z</time></trkpt><trkpt lat="43.079198558300824" lon="12.499531660475144"><ele>198.0</ele><time>2026-04-04T08:14:01Z</time></trkpt><trkpt lat="43.079011782985745" lon="12.499800209861611"><ele>198.5</ele><time>2026-04-04T08:14:02Z</time></trkpt><trkpt lat="43.07883113202788" lon="12.500077988592567"><ele>199.0</ele><time>2026-04-04T08:14:03Z</time></trkpt><trkpt lat="43.07864379434612" lon="12.500357427165273"><ele>199.0</ele><time>2026-04-04T08:14:04Z</time></trkpt><trkpt lat="43.0784570624771" lon="12.500634391737734"><ele>199.0</ele><time>2026-04-04T08:14:05Z</time></trkpt><trkpt lat="43.07826618782877" lon="12.500908607252308"><ele>198.0</ele><time>2026-04-04T08:14:06Z</time></trkpt><trkpt lat="43.07807617484173" lon="12.5011819804191"><ele>197.0</ele><time>2026-04-04T08:14:07Z</time></trkpt><trkpt lat="43.07788626041485" lon="12.501458002031237"><ele>197.0</ele><time>2026-04-04T08:14:08Z</time></trkpt><trkpt lat="43.07769441643926" lon="12.501731243355465"><ele>197.0</ele><time>2026-04-04T08:14:09Z</time></trkpt><trkpt lat="43.07749872487093" lon="12.501990438149804"><ele>197.5</ele><time>2026-04-04T08:14:10Z</time></trkpt><trkpt lat="43.07729939675479" lon="12.502247832533621"><ele>198.0</ele><time>2026-04-04T08:14:11Z</time></trkpt><trkpt lat="43.07709872206962" lon="12.50250633765893"><ele>198.0</ele><time>2026-04-04T08:14:12Z</time></trkpt><trkpt lat="43.076907991973066" lon="12.50276702250398"><ele>198.0</ele><time>2026-04-04T08:14:13Z</time></trkpt><trkpt lat="43.07671622555735" lon="12.503033393442463"><ele>198.0</ele><time>2026-04-04T08:14:14Z</time></trkpt><trkpt lat="43.07653160705885" lon="12.503298065829343"><ele>198.0</ele><time>2026-04-04T08:14:15Z</time></trkpt><trkpt lat="43.07634699420624" lon="12.503556496006166"><ele>197.0</ele><time>2026-04-04T08:14:16Z</time></trkpt><trkpt lat="43.07616347589231" lon="12.503819774039288"><ele>196.0</ele><time>2026-04-04T08:14:17Z</time></trkpt><trkpt lat="43.075982159306704" lon="12.50408973725883"><ele>196.0</ele><time>2026-04-04T08:14:18Z</time></trkpt><trkpt lat="43.075813008293174" lon="12.50436437754326"><ele>196.0</ele><time>2026-04-04T08:14:19Z</time></trkpt><trkpt lat="43.07565339405854" lon="12.5046506189245"><ele>195.5</ele><time>2026-04-04T08:14:20Z</time></trkpt><trkpt lat="43.07550710690028" lon="12.504951667274247"><ele>195.0</ele><time>2026-04-04T08:14:21Z</time></trkpt><trkpt lat="43.07537261922237" lon="12.505261989260205"><ele>195.5</ele><time>2026-04-04T08:14:22Z</time></trkpt><trkpt lat="43.07525132745267" lon="12.50558697556742"><ele>196.0</ele><time>2026-04-04T08:14:23Z</time></trkpt><trkpt lat="43.07514483967037" lon="12.50591524590507"><ele>195.5</ele><time>2026-04-04T08:14:24Z</time></trkpt><trkpt lat="43.07505323753222" lon="12.506256539905367"><ele>195.0</ele><time>2026-04-04T08:14:25Z</time></trkpt><trkpt lat="43.07497546281058" lon="12.506605251801057"><ele>196.0</ele><time>2026-04-04T08:14:26Z</time></trkpt><trkpt lat="43.07490511851087" lon="12.506957383441272"><ele>197.0</ele><time>2026-04-04T08:14:27Z</time></trkpt><trkpt lat="43.07483647614992" lon="12.507300131168792"><ele>197.0</ele><time>2026-04-04T08:14:28Z</time></trkpt><trkpt lat="43.074771871117186" lon="12.50764444758504"><ele>197.0</ele><time>2026-04-04T08:14:29Z</time></trkpt><trkpt lat="43.074707734414694" lon="12.507993795231151"><ele>196.5</ele><time>2026-04-04T08:14:30Z</time></trkpt><trkpt lat="43.074642217820184" lon="12.508338345739354"><ele>196.0</ele><time>2026-04-04T08:14:31Z</time></trkpt><trkpt lat="43.07457705570891" lon="12.508679055848166"><ele>196.0</ele><time>2026-04-04T08:14:32Z</time></trkpt><trkpt lat="43.074512326650115" lon="12.509018278188742"><ele>196.0</ele><time>2026-04-04T08:14:33Z</time></trkpt><trkpt lat="43.07444743378046" lon="12.509355111304423"><ele>196.0</ele><time>2026-04-04T08:14:34Z</time></trkpt><trkpt lat="43.07438463910566" lon="12.509692888502467"><ele>196.0</ele><time>2026-04-04T08:14:35Z</time></trkpt><trkpt lat="43.07432106207131" lon="12.510030695397148"><ele>196.0</ele><time>2026-04-04T08:14:36Z</time></trkpt><trkpt lat="43.07425689590607" lon="12.51036525198426"><ele>196.0</ele><time>2026-04-04T08:14:37Z</time></trkpt><trkpt lat="43.07419294715929" lon="12.510698850638802"><ele>196.0</ele><time>2026-04-04T08:14:38Z</time></trkpt><trkpt lat="43.07413010908271" lon="12.511034336852246"><ele>196.0</ele><time>2026-04-04T08:14:39Z</time></trkpt><trkpt lat="43.07407012319331" lon="12.511371122180856"><ele>195.0</ele><time>2026-04-04T08:14:40Z</time></trkpt><trkpt lat="43.07401208986664" lon="12.511710863997203"><ele>194.0</ele><time>2026-04-04T08:14:41Z</time></trkpt><trkpt lat="43.07395813568492" lon="12.512051772208803"><ele>194.0</ele><time>2026-04-04T08:14:42Z</time></trkpt><trkpt lat="43.07389657522339" lon="12.51239406791333"><ele>194.0</ele><time>2026-04-04T08:14:43Z</time></trkpt><trkpt lat="43.07383807862765" lon="12.51273655022075"><ele>194.0</ele><time>2026-04-04T08:14:44Z</time></trkpt><trkpt lat="43.07377763079329" lon="12.513082259568048"><ele>194.0</ele><time>2026-04-04T08:14:45Z</time></trkpt><trkpt lat="43.073711707462145" lon="12.513426737102883"><ele>194.5</ele><time>2026-04-04T08:14:46Z</time></trkpt><trkpt lat="43.07364179906769" lon="12.513779214300044"><ele>195.0</ele><time>2026-04-04T08:14:47Z</time></trkpt><trkpt lat="43.073579053364476" lon="12.514132820590689"><ele>195.0</ele><time>2026-04-04T08:14:48Z</time></trkpt><trkpt lat="43.07351533077546" lon="12.514490515014593"><ele>195.0</ele><time>2026-04-04T08:14:49Z</time></trkpt><trkpt lat="43.0734491530735" lon="12.514846230095458"><ele>196.0</ele><time>2026-04-04T08:14:50Z</time></trkpt><trkpt lat="43.07338442163594" lon="12.515205454932557"><ele>197.0</ele><time>2026-04-04T08:14:51Z</time></trkpt><trkpt lat="43.07331437228024" lon="12.51555644906669"><ele>196.0</ele><time>2026-04-04T08:14:52Z</time></trkpt><trkpt lat="43.07324513316612" lon="12.51590513829098"><ele>195.0</ele><time>2026-04-04T08:14:53Z</time></trkpt><trkpt lat="43.07318105086236" lon="12.516263447597085"><ele>195.0</ele><time>2026-04-04T08:14:54Z</time></trkpt><trkpt lat="43.07311634012674" lon="12.516622188332555"><ele>195.0</ele><time>2026-04-04T08:14:55Z</time></trkpt><trkpt lat="43.07305267642262" lon="12.516977147770211"><ele>195.5</ele><time>2026-04-04T08:14:56Z</time></trkpt><trkpt lat="43.07298839692268" lon="12.517328747426957"><ele>196.0</ele><time>2026-04-04T08:14:57Z</time></trkpt><trkpt lat="43.07292384290108" lon="12.517677822177161"><ele>196.5</ele><time>2026-04-04T08:14:58Z</time></trkpt><trkpt lat="43.07285754077588" lon="12.518030248120711"><ele>197.0</ele><time>2026-04-04T08:14:59Z</time></trkpt><trkpt lat="43.07278407715678" lon="12.518374778631726"><ele>197.0</ele><time>2026-04-04T08:15:00Z</time></trkpt><trkpt lat="43.072718397802454" lon="12.518720227211242"><ele>197.0</ele><time>2026-04-04T08:15:01Z</time></trkpt><trkpt lat="43.072661775092975" lon="12.519070290378142"><ele>197.0</ele><time>2026-04-04T08:15:02Z</time></trkpt><trkpt lat="43.072598650950106" lon="12.51941685300725"><ele>197.0</ele><time>2026-04-04T08:15:03Z</time></trkpt><trkpt lat="43.07253209612349" lon="12.519763473519852"><ele>197.5</ele><time>2026-04-04T08:15:04Z</time></trkpt><trkpt lat="43.072468241216335" lon="12.520112305571054"><ele>198.0</ele><time>2026-04-04T08:15:05Z</time></trkpt><trkpt lat="43.072403098228044" lon="12.520468538182044"><ele>196.0</ele><time>2026-04-04T08:15:06Z</time></trkpt><trkpt lat="43.072340143285174" lon="12.52082158919893"><ele>194.0</ele><time>2026-04-04T08:15:07Z</time></trkpt><trkpt lat="43.07227272114258" lon="12.52117485431553"><ele>194.0</ele><time>2026-04-04T08:15:08Z</time></trkpt><trkpt lat="43.0722079360576" lon="12.5215337585636"><ele>194.0</ele><time>2026-04-04T08:15:09Z</time></trkpt><trkpt lat="43.07214006850755" lon="12.52188880106617"><ele>195.0</ele><time>2026-04-04T08:15:10Z</time></trkpt><trkpt lat="43.072078364451016" lon="12.522246606956774"><ele>196.0</ele><time>2026-04-04T08:15:11Z</time></trkpt><trkpt lat="43.072014333422906" lon="12.522600010712189"><ele>197.0</ele><time>2026-04-04T08:15:12Z</time></trkpt><trkpt lat="43.071951634080854" lon="12.52295417264136"><ele>198.0</ele><time>2026-04-04T08:15:13Z</time></trkpt><trkpt lat="43.07188418791447" lon="12.523298421666142"><ele>198.0</ele><time>2026-04-04T08:15:14Z</time></trkpt><trkpt lat="43.07181778517928" lon="12.523644848917215"><ele>198.0</ele><time>2026-04-04T08:15:15Z</time></trkpt><trkpt lat="43.07175404770801" lon="12.523990298889595"><ele>198.0</ele><time>2026-04-04T08:15:16Z</time></trkpt><trkpt lat="43.07169088976942" lon="12.524340004147582"><ele>198.0</ele><time>2026-04-04T08:15:17Z</time></trkpt><trkpt lat="43.071624740006236" lon="12.524679104842416"><ele>197.5</ele><time>2026-04-04T08:15:18Z</time></trkpt><trkpt lat="43.071553125242964" lon="12.525015109747507"><ele>197.0</ele><time>2026-04-04T08:15:19Z</time></trkpt><trkpt lat="43.07147714396171" lon="12.52533164313797"><ele>196.0</ele><time>2026-04-04T08:15:20Z</time></trkpt><trkpt lat="43.07139104539143" lon="12.525692763481961"><ele>195.0</ele><time>2026-04-04T08:15:21Z</time></trkpt><trkpt lat="43.071294651481274" lon="12.526038852030547"><ele>195.5</ele><time>2026-04-04T08:15:22Z</time></trkpt><trkpt lat="43.071186866628615" lon="12.526375719040027"><ele>196.0</ele><time>2026-04-04T08:15:23Z</time></trkpt><trkpt lat="43.07107328004295" lon="12.52671342403983"><ele>196.0</ele><time>2026-04-04T08:15:24Z</time></trkpt><trkpt lat="43.070948308036215" lon="12.527035377318313"><ele>196.0</ele><time>2026-04-04T08:15:25Z</time></trkpt><trkpt lat="43.07083487446478" lon="12.527355328660303"><ele>195.5</ele><time>2026-04-04T08:15:26Z</time></trkpt><trkpt lat="43.070676214580025" lon="12.527679374461577"><ele>195.0</ele><time>2026-04-04T08:15:27Z</time></trkpt><trkpt lat="43.07053098992744" lon="12.527999677116524"><ele>196.5</ele><time>2026-04-04T08:15:28Z</time></trkpt><trkpt lat="43.0703804580772" lon="12.528315221458168"><ele>198.0</ele><time>2026-04-04T08:15:29Z</time></trkpt><trkpt lat="43.07023095763509" lon="12.52863278214933"><ele>198.0</ele><time>2026-04-04T08:15:30Z</time></trkpt><trkpt lat="43.070088930865694" lon="12.528956947227499"><ele>198.0</ele><time>2026-04-04T08:15:31Z</time></trkpt><trkpt lat="43.06993843759687" lon="12.529272459735088"><ele>197.5</ele><time>2026-04-04T08:15:32Z</time></trkpt><trkpt lat="43.06979485516042" lon="12.529603950372438"><ele>197.0</ele><time>2026-04-04T08:15:33Z</time></trkpt><trkpt lat="43.06965234423071" lon="12.52991473381903"><ele>197.0</ele><time>2026-04-04T08:15:34Z</time></trkpt><trkpt lat="43.069511244121486" lon="12.53024474124796"><ele>197.0</ele><time>2026-04-04T08:15:35Z</time></trkpt><trkpt lat="43.069365041461936" lon="12.530556370774542"><ele>197.0</ele><time>2026-04-04T08:15:36Z</time></trkpt><trkpt lat="43.069222175144304" lon="12.530867548215056"><ele>197.0</ele><time>2026-04-04T08:15:37Z</time></trkpt><trkpt lat="43.06907602764844" lon="12.531178168555536"><ele>197.0</ele><time>2026-04-04T08:15:38Z</time></trkpt><trkpt lat="43.068927022377075" lon="12.531486768055794"><ele>197.0</ele><time>2026-04-04T08:15:39Z</time></trkpt><trkpt lat="43.068770893610385" lon="12.531790059271367"><ele>196.0</ele><time>2026-04-04T08:15:40Z</time></trkpt><trkpt lat="43.06863064064599" lon="12.53209995042658"><ele>195.0</ele><time>2026-04-04T08:15:41Z</time></trkpt><trkpt lat="43.06850392460714" lon="12.532408540041594"><ele>195.0</ele><time>2026-04-04T08:15:42Z</time></trkpt><trkpt lat="43.06837381597292" lon="12.5327502631662"><ele>195.0</ele><time>2026-04-04T08:15:43Z</time></trkpt><trkpt lat="43.068225716274455" lon="12.53307222120278"><ele>197.0</ele><time>2026-04-04T08:15:44Z</time></trkpt><trkpt lat="43.06808041223353" lon="12.533388817425633"><ele>199.0</ele><time>2026-04-04T08:15:45Z</time></trkpt><trkpt lat="43.06793996112113" lon="12.533708840428483"><ele>199.0</ele><time>2026-04-04T08:15:46Z</time></trkpt><trkpt lat="43.067796585039034" lon="12.534026105017169"><ele>199.0</ele><time>2026-04-04T08:15:47Z</time></trkpt><trkpt lat="43.06765269984413" lon="12.534345171222595"><ele>198.5</ele><time>2026-04-04T08:15:48Z</time></trkpt><trkpt lat="43.067507639304964" lon="12.534665493692286"><ele>198.0</ele><time>2026-04-04T08:15:49Z</time></trkpt><trkpt lat="43.067367007228356" lon="12.534990922380134"><ele>197.5</ele><time>2026-04-04T08:15:50Z</time></trkpt><trkpt lat="43.0672232493558" lon="12.535315140606546"><ele>197.0</ele><time>2026-04-04T08:15:51Z</time></trkpt><trkpt lat="43.06707936857446" lon="12.535637875135764"><ele>197.0</ele><time>2026-04-04T08:15:52Z</time></trkpt><trkpt lat="43.066933255114996" lon="12.535960317569542"><ele>197.0</ele><time>2026-04-04T08:15:53Z</time></trkpt><trkpt lat="43.06678765777485" lon="12.536280385979326"><ele>197.0</ele><time>2026-04-04T08:15:54Z</time></trkpt><trkpt lat="43.06664339228275" lon="12.536602416349965"><ele>197.0</ele><time>2026-04-04T08:15:55Z</time></trkpt><trkpt lat="43.066500557102756" lon="12.536919576952318"><ele>196.0</ele><time>2026-04-04T08:15:56Z</time></trkpt><trkpt lat="43.066353876718544" lon="12.537240553058627"><ele>195.0</ele><time>2026-04-04T08:15:57Z</time></trkpt><trkpt lat="43.06621246864876" lon="12.537562917460862"><ele>195.0</ele><time>2026-04-04T08:15:58Z</time></trkpt><trkpt lat="43.06606890655417" lon="12.537883716048109"><ele>195.0</ele><time>2026-04-04T08:15:59Z</time></trkpt><trkpt lat="43.06592503969952" lon="12.53820044115842"><ele>195.5</ele><time>2026-04-04T08:16:00Z</time></trkpt><trkpt lat="43.065780582670335" lon="12.538522028185552"><ele>196.0</ele><time>2026-04-04T08:16:01Z</time></trkpt><trkpt lat="43.0656366095956" lon="12.538841516784327"><ele>194.5</ele><time>2026-04-04T08:16:02Z</time></trkpt><trkpt lat="43.06549035290059" lon="12.539159663357067"><ele>193.0</ele><time>2026-04-04T08:16:03Z</time></trkpt><trkpt lat="43.06534536662428" lon="12.539479991425432"><ele>194.0</ele><time>2026-04-04T08:16:04Z</time></trkpt><trkpt lat="43.06520059542277" lon="12.539791652659915"><ele>195.0</ele><time>2026-04-04T08:16:05Z</time></trkpt><trkpt lat="43.06505809555357" lon="12.540113471892443"><ele>195.0</ele><time>2026-04-04T08:16:06Z</time></trkpt><trkpt lat="43.06491550453209" lon="12.540433397929686"><ele>195.0</ele><time>2026-04-04T08:16:07Z</time></trkpt><trkpt lat="43.06477030405248" lon="12.540758600928804"><ele>195.0</ele><time>2026-04-04T08:16:08Z</time></trkpt><trkpt lat="43.064626151851435" lon="12.541077216704966"><ele>195.0</ele><time>2026-04-04T08:16:09Z</time></trkpt><trkpt lat="43.06448145038018" lon="12.541401427699132"><ele>194.0</ele><time>2026-04-04T08:16:10Z</time></trkpt><trkpt lat="43.0643348847375" lon="12.54172698931636"><ele>193.0</ele><time>2026-04-04T08:16:11Z</time></trkpt><trkpt lat="43.06418216501853" lon="12.542050091136003"><ele>191.0</ele><time>2026-04-04T08:16:12Z</time></trkpt><trkpt lat="43.06403419310715" lon="12.542376470076317"><ele>189.0</ele><time>2026-04-04T08:16:13Z</time></trkpt><trkpt lat="43.06388415274505" lon="12.542702003970353"><ele>189.5</ele><time>2026-04-04T08:16:14Z</time></trkpt><trkpt lat="43.063736433492785" lon="12.543032301425615"><ele>190.0</ele><time>2026-04-04T08:16:15Z</time></trkpt><trkpt lat="43.06358732742578" lon="12.543357709256822"><ele>190.0</ele><time>2026-04-04T08:16:16Z</time></trkpt><trkpt lat="43.06343939027758" lon="12.543686230043523"><ele>190.0</ele><time>2026-04-04T08:16:17Z</time></trkpt><trkpt lat="43.06328941787593" lon="12.544010207152164"><ele>191.5</ele><time>2026-04-04T08:16:18Z</time></trkpt><trkpt lat="43.06314108513014" lon="12.54433614207433"><ele>193.0</ele><time>2026-04-04T08:16:19Z</time></trkpt><trkpt lat="43.06299063962361" lon="12.54466274667211"><ele>193.0</ele><time>2026-04-04T08:16:20Z</time></trkpt><trkpt lat="43.062838361681386" lon="12.54498544080271"><ele>193.0</ele><time>2026-04-04T08:16:21Z</time></trkpt><trkpt lat="43.06268553217583" lon="12.545307812056537"><ele>193.0</ele><time>2026-04-04T08:16:22Z</time></trkpt><trkpt lat="43.062531583222246" lon="12.545628672076418"><ele>193.0</ele><time>2026-04-04T08:16:23Z</time></trkpt><trkpt lat="43.06237690491867" lon="12.545946611569155"><ele>191.5</ele><time>2026-04-04T08:16:24Z</time></trkpt><trkpt lat="43.06222757112934" lon="12.54627251117208"><ele>190.0</ele><time>2026-04-04T08:16:25Z</time></trkpt><trkpt lat="43.06207790908882" lon="12.54659261296231"><ele>190.0</ele><time>2026-04-04T08:16:26Z</time></trkpt><trkpt lat="43.06193402528706" lon="12.546922823338369"><ele>190.0</ele><time>2026-04-04T08:16:27Z</time></trkpt><trkpt lat="43.06179228036088" lon="12.547251481188308"><ele>192.0</ele><time>2026-04-04T08:16:28Z</time></trkpt><trkpt lat="43.06165375766482" lon="12.54758078610209"><ele>194.0</ele><time>2026-04-04T08:16:29Z</time></trkpt><trkpt lat="43.0615165658241" lon="12.547910295462383"><ele>195.5</ele><time>2026-04-04T08:16:30Z</time></trkpt><trkpt lat="43.061371842196245" lon="12.54824905476689"><ele>197.0</ele><time>2026-04-04T08:16:31Z</time></trkpt><trkpt lat="43.06122915429121" lon="12.548582945027508"><ele>198.5</ele><time>2026-04-04T08:16:32Z</time></trkpt><trkpt lat="43.0610871376159" lon="12.548916539930467"><ele>200.0</ele><time>2026-04-04T08:16:33Z</time></trkpt><trkpt lat="43.0609480221888" lon="12.549248045178086"><ele>199.5</ele><time>2026-04-04T08:16:34Z</time></trkpt><trkpt lat="43.060812245130215" lon="12.549584620265215"><ele>199.0</ele><time>2026-04-04T08:16:35Z</time></trkpt><trkpt lat="43.06067764327516" lon="12.549922655611358"><ele>198.0</ele><time>2026-04-04T08:16:36Z</time></trkpt><trkpt lat="43.06054285456047" lon="12.550260535567476"><ele>197.0</ele><time>2026-04-04T08:16:37Z</time></trkpt><trkpt lat="43.06040662125088" lon="12.55060254234592"><ele>197.0</ele><time>2026-04-04T08:16:38Z</time></trkpt><trkpt lat="43.060270731083314" lon="12.55093897008143"><ele>197.0</ele><time>2026-04-04T08:16:39Z</time></trkpt><trkpt lat="43.06013306543064" lon="12.551276114593096"><ele>198.0</ele><time>2026-04-04T08:16:40Z</time></trkpt><trkpt lat="43.06000801531868" lon="12.55161296520977"><ele>199.0</ele><time>2026-04-04T08:16:41Z</time></trkpt><trkpt lat="43.05987897252843" lon="12.551953528285939"><ele>198.5</ele><time>2026-04-04T08:16:42Z</time></trkpt><trkpt lat="43.05974776970749" lon="12.552294972401091"><ele>198.0</ele><time>2026-04-04T08:16:43Z</time></trkpt><trkpt lat="43.0596207112396" lon="12.55261741552116"><ele>198.0</ele><time>2026-04-04T08:16:44Z</time></trkpt><trkpt lat="43.0594939619816" lon="12.552945273882926"><ele>198.0</ele><time>2026-04-04T08:16:45Z</time></trkpt><trkpt lat="43.05936868000706" lon="12.553273353389434"><ele>198.0</ele><time>2026-04-04T08:16:46Z</time></trkpt><trkpt lat="43.05924489135073" lon="12.553601220828694"><ele>198.0</ele><time>2026-04-04T08:16:47Z</time></trkpt><trkpt lat="43.05912283078085" lon="12.553932022703423"><ele>198.5</ele><time>2026-04-04T08:16:48Z</time></trkpt><trkpt lat="43.059002643561946" lon="12.554261638849212"><ele>199.0</ele><time>2026-04-04T08:16:49Z</time></trkpt><trkpt lat="43.05887733671734" lon="12.554587519521693"><ele>199.5</ele><time>2026-04-04T08:16:50Z</time></trkpt><trkpt lat="43.058754199720184" lon="12.554913310751616"><ele>200.0</ele><time>2026-04-04T08:16:51Z</time></trkpt><trkpt lat="43.058630666633825" lon="12.555237067653188"><ele>200.5</ele><time>2026-04-04T08:16:52Z</time></trkpt><trkpt lat="43.05850959793318" lon="12.555572609711529"><ele>201.0</ele><time>2026-04-04T08:16:53Z</time></trkpt><trkpt lat="43.05838641336674" lon="12.555917988904826"><ele>201.0</ele><time>2026-04-04T08:16:54Z</time></trkpt><trkpt lat="43.05825857677488" lon="12.556261385012723"><ele>201.0</ele><time>2026-04-04T08:16:55Z</time></trkpt><trkpt lat="43.058135665091825" lon="12.556604676177992"><ele>201.0</ele><time>2026-04-04T08:16:56Z</time></trkpt><trkpt lat="43.05800201131628" lon="12.55694437225208"><ele>201.0</ele><time>2026-04-04T08:16:57Z</time></trkpt><trkpt lat="43.05787445116964" lon="12.55728662998422"><ele>201.5</ele><time>2026-04-04T08:16:58Z</time></trkpt><trkpt lat="43.057746271258694" lon="12.55763207536385"><ele>202.0</ele><time>2026-04-04T08:16:59Z</time></trkpt><trkpt lat="43.057615644260245" lon="12.55797600514605"><ele>202.0</ele><time>2026-04-04T08:17:00Z</time></trkpt><trkpt lat="43.05748263775815" lon="12.558320036317491"><ele>202.0</ele><time>2026-04-04T08:17:01Z</time></trkpt><trkpt lat="43.057349340781" lon="12.558661133771142"><ele>202.0</ele><time>2026-04-04T08:17:02Z</time></trkpt><trkpt lat="43.05721535301222" lon="12.559003193998025"><ele>202.0</ele><time>2026-04-04T08:17:03Z</time></trkpt><trkpt lat="43.05708347542194" lon="12.559346586566562"><ele>203.0</ele><time>2026-04-04T08:17:04Z</time></trkpt><trkpt lat="43.056952695191036" lon="12.559687382982752"><ele>204.0</ele><time>2026-04-04T08:17:05Z</time></trkpt><trkpt lat="43.05681390374326" lon="12.560025231504355"><ele>204.0</ele><time>2026-04-04T08:17:06Z</time></trkpt><trkpt lat="43.056675256288486" lon="12.560362049213884"><ele>204.0</ele><time>2026-04-04T08:17:07Z</time></trkpt><trkpt lat="43.05653753281829" lon="12.560695703552941"><ele>204.0</ele><time>2026-04-04T08:17:08Z</time></trkpt><trkpt lat="43.05639750174892" lon="12.56102907004737"><ele>204.0</ele><time>2026-04-04T08:17:09Z</time></trkpt><trkpt lat="43.05625582574555" lon="12.561358402796943"><ele>203.5</ele><time>2026-04-04T08:17:10Z</time></trkpt><trkpt lat="43.056116441903576" lon="12.561688705524116"><ele>203.0</ele><time>2026-04-04T08:17:11Z</time></trkpt><trkpt lat="43.0559792190841" lon="12.562021875896493"><ele>203.0</ele><time>2026-04-04T08:17:12Z</time></trkpt><trkpt lat="43.055841805849454" lon="12.562354897151874"><ele>203.0</ele><time>2026-04-04T08:17:13Z</time></trkpt><trkpt lat="43.055705856974406" lon="12.562687651335043"><ele>203.5</ele><time>2026-04-04T08:17:14Z</time></trkpt><trkpt lat="43.055569019648125" lon="12.563015173820505"><ele>204.0</ele><time>2026-04-04T08:17:15Z</time></trkpt><trkpt lat="43.05543385149768" lon="12.56333984276251"><ele>204.0</ele><time>2026-04-04T08:17:16Z</time></trkpt><trkpt lat="43.055300408073194" lon="12.563663856774898"><ele>204.0</ele><time>2026-04-04T08:17:17Z</time></trkpt><trkpt lat="43.05516587092064" lon="12.56398329701877"><ele>204.0</ele><time>2026-04-04T08:17:18Z</time></trkpt><trkpt lat="43.05503159408505" lon="12.564298776247423"><ele>204.0</ele><time>2026-04-04T08:17:19Z</time></trkpt><trkpt lat="43.054896527106735" lon="12.564614359429584"><ele>204.5</ele><time>2026-04-04T08:17:20Z</time></trkpt><trkpt lat="43.05476380177979" lon="12.564930016829068"><ele>205.0</ele><time>2026-04-04T08:17:21Z</time></trkpt><trkpt lat="43.05463047081068" lon="12.565245817893933"><ele>205.0</ele><time>2026-04-04T08:17:22Z</time></trkpt><trkpt lat="43.05449413790059" lon="12.565561728258933"><ele>205.0</ele><time>2026-04-04T08:17:23Z</time></trkpt><trkpt lat="43.0543539669121" lon="12.56587506372583"><ele>204.5</ele><time>2026-04-04T08:17:24Z</time></trkpt><trkpt lat="43.05421818767677" lon="12.566194928437895"><ele>204.0</ele><time>2026-04-04T08:17:25Z</time></trkpt><trkpt lat="43.05408052503658" lon="12.566517535335846"><ele>204.0</ele><time>2026-04-04T08:17:26Z</time></trkpt><trkpt lat="43.05394407154904" lon="12.566841560689006"><ele>204.0</ele><time>2026-04-04T08:17:27Z</time></trkpt><trkpt lat="43.05381148376853" lon="12.567168365147037"><ele>204.5</ele><time>2026-04-04T08:17:28Z</time></trkpt><trkpt lat="43.053678062814946" lon="12.567495831279247"><ele>205.0</ele><time>2026-04-04T08:17:29Z</time></trkpt><trkpt lat="43.05354340951582" lon="12.567820337614371"><ele>205.5</ele><time>2026-04-04T08:17:30Z</time></trkpt><trkpt lat="43.053407683128604" lon="12.568140143095727"><ele>206.0</ele><time>2026-04-04T08:17:31Z</time></trkpt><trkpt lat="43.053274321426095" lon="12.568459459908972"><ele>205.5</ele><time>2026-04-04T08:17:32Z</time></trkpt><trkpt lat="43.05314589539172" lon="12.568781092990132"><ele>205.0</ele><time>2026-04-04T08:17:33Z</time></trkpt><trkpt lat="43.05302576214893" lon="12.569102845976458"><ele>205.0</ele><time>2026-04-04T08:17:34Z</time></trkpt><trkpt lat="43.05292010894127" lon="12.569426839330628"><ele>205.0</ele><time>2026-04-04T08:17:35Z</time></trkpt><trkpt lat="43.0528348326677" lon="12.569762925633054"><ele>205.0</ele><time>2026-04-04T08:17:36Z</time></trkpt><trkpt lat="43.052771887793014" lon="12.570121582416254"><ele>205.0</ele><time>2026-04-04T08:17:37Z</time></trkpt><trkpt lat="43.05271561568497" lon="12.570467926363554"><ele>204.5</ele><time>2026-04-04T08:17:38Z</time></trkpt><trkpt lat="43.052672898447504" lon="12.57084803305662"><ele>204.0</ele><time>2026-04-04T08:17:39Z</time></trkpt><trkpt lat="43.05264872117507" lon="12.571213129524114"><ele>205.0</ele><time>2026-04-04T08:17:40Z</time></trkpt><trkpt lat="43.0526426480131" lon="12.571579720248453"><ele>206.0</ele><time>2026-04-04T08:17:41Z</time></trkpt><trkpt lat="43.05264885503215" lon="12.571946283753444"><ele>207.0</ele><time>2026-04-04T08:17:42Z</time></trkpt><trkpt lat="43.05266357494893" lon="12.572313612842926"><ele>208.0</ele><time>2026-04-04T08:17:43Z</time></trkpt><trkpt lat="43.05268253941856" lon="12.572679478319147"><ele>208.5</ele><time>2026-04-04T08:17:44Z</time></trkpt><trkpt lat="43.0527001646243" lon="12.573045708341958"><ele>209.0</ele><time>2026-04-04T08:17:45Z</time></trkpt><trkpt lat="43.05271181346997" lon="12.573409171848567"><ele>209.0</ele><time>2026-04-04T08:17:46Z</time></trkpt><trkpt lat="43.05272729265015" lon="12.573775829746697"><ele>209.0</ele><time>2026-04-04T08:17:47Z</time></trkpt><trkpt lat="43.05274463511674" lon="12.574141968756331"><ele>209.0</ele><time>2026-04-04T08:17:48Z</time></trkpt><trkpt lat="43.05275869655556" lon="12.57450657812618"><ele>209.0</ele><time>2026-04-04T08:17:49Z</time></trkpt><trkpt lat="43.05277334475441" lon="12.574866273892514"><ele>209.0</ele><time>2026-04-04T08:17:50Z</time></trkpt><trkpt lat="43.05278688671281" lon="12.575231351993455"><ele>209.0</ele><time>2026-04-04T08:17:51Z</time></trkpt><trkpt lat="43.05280127463241" lon="12.57559177752926"><ele>209.0</ele><time>2026-04-04T08:17:52Z</time></trkpt><trkpt lat="43.0528155220688" lon="12.575953811969304"><ele>209.0</ele><time>2026-04-04T08:17:53Z</time></trkpt><trkpt lat="43.05283169183735" lon="12.576316120085762"><ele>209.0</ele><time>2026-04-04T08:17:54Z</time></trkpt><trkpt lat="43.05285289286475" lon="12.576682936720749"><ele>209.0</ele><time>2026-04-04T08:17:55Z</time></trkpt><trkpt lat="43.05286720751533" lon="12.577045641625821"><ele>209.0</ele><time>2026-04-04T08:17:56Z</time></trkpt><trkpt lat="43.052880825010426" lon="12.577410087272257"><ele>209.0</ele><time>2026-04-04T08:17:57Z</time></trkpt><trkpt lat="43.05289588523426" lon="12.577773088403443"><ele>209.5</ele><time>2026-04-04T08:17:58Z</time></trkpt><trkpt lat="43.05290935249106" lon="12.578139034575198"><ele>210.0</ele><time>2026-04-04T08:17:59Z</time></trkpt><trkpt lat="43.05292607276289" lon="12.57850429568104"><ele>210.5</ele><time>2026-04-04T08:18:00Z</time></trkpt><trkpt lat="43.052943980003384" lon="12.57887363596168"><ele>211.0</ele><time>2026-04-04T08:18:01Z</time></trkpt><trkpt lat="43.052965849802945" lon="12.579237799527656"><ele>210.5</ele><time>2026-04-04T08:18:02Z</time></trkpt><trkpt lat="43.05297443638996" lon="12.579601575519456"><ele>210.0</ele><time>2026-04-04T08:18:03Z</time></trkpt><trkpt lat="43.05297943718599" lon="12.579964646807218"><ele>210.0</ele><time>2026-04-04T08:18:04Z</time></trkpt><trkpt lat="43.052971846996535" lon="12.580328618249684"><ele>210.0</ele><time>2026-04-04T08:18:05Z</time></trkpt><trkpt lat="43.05295658586573" lon="12.58069397430322"><ele>210.0</ele><time>2026-04-04T08:18:06Z</time></trkpt><trkpt lat="43.05292356441474" lon="12.581057246505678"><ele>210.0</ele><time>2026-04-04T08:18:07Z</time></trkpt><trkpt lat="43.05287773221573" lon="12.581414273845478"><ele>211.5</ele><time>2026-04-04T08:18:08Z</time></trkpt><trkpt lat="43.052811860741876" lon="12.581779335023114"><ele>213.0</ele><time>2026-04-04T08:18:09Z</time></trkpt><trkpt lat="43.05273455045863" lon="12.582131516964832"><ele>213.0</ele><time>2026-04-04T08:18:10Z</time></trkpt><trkpt lat="43.052647517706156" lon="12.582477593732502"><ele>213.0</ele><time>2026-04-04T08:18:11Z</time></trkpt><trkpt lat="43.05255686148138" lon="12.582825000847976"><ele>212.5</ele><time>2026-04-04T08:18:12Z</time></trkpt><trkpt lat="43.05248243008112" lon="12.58318147096249"><ele>212.0</ele><time>2026-04-04T08:18:13Z</time></trkpt><trkpt lat="43.05239837535618" lon="12.583527036248544"><ele>212.0</ele><time>2026-04-04T08:18:14Z</time></trkpt><trkpt lat="43.052317439929254" lon="12.583873358674351"><ele>212.0</ele><time>2026-04-04T08:18:15Z</time></trkpt><trkpt lat="43.05223304530351" lon="12.584219909861392"><ele>213.0</ele><time>2026-04-04T08:18:16Z</time></trkpt><trkpt lat="43.052147434737826" lon="12.584565537753479"><ele>214.0</ele><time>2026-04-04T08:18:17Z</time></trkpt><trkpt lat="43.05206120084053" lon="12.584911563848781"><ele>214.0</ele><time>2026-04-04T08:18:18Z</time></trkpt><trkpt lat="43.05197436723784" lon="12.585258830887057"><ele>214.0</ele><time>2026-04-04T08:18:19Z</time></trkpt><trkpt lat="43.05188635421515" lon="12.585604734185026"><ele>214.5</ele><time>2026-04-04T08:18:20Z</time></trkpt><trkpt lat="43.05179620733823" lon="12.585954954289274"><ele>215.0</ele><time>2026-04-04T08:18:21Z</time></trkpt><trkpt lat="43.0517131886574" lon="12.586300303351905"><ele>214.5</ele><time>2026-04-04T08:18:22Z</time></trkpt><trkpt lat="43.05163051005354" lon="12.586648094869831"><ele>214.0</ele><time>2026-04-04T08:18:23Z</time></trkpt><trkpt lat="43.05154756043124" lon="12.586996005003794"><ele>212.5</ele><time>2026-04-04T08:18:24Z</time></trkpt><trkpt lat="43.05146430239028" lon="12.587344921492324"><ele>211.0</ele><time>2026-04-04T08:18:25Z</time></trkpt><trkpt lat="43.0513793548297" lon="12.58769054891686"><ele>211.0</ele><time>2026-04-04T08:18:26Z</time></trkpt><trkpt lat="43.05129639851979" lon="12.588040204523265"><ele>211.0</ele><time>2026-04-04T08:18:27Z</time></trkpt><trkpt lat="43.051213124820535" lon="12.588389236094686"><ele>211.5</ele><time>2026-04-04T08:18:28Z</time></trkpt><trkpt lat="43.051129633119146" lon="12.588736777722453"><ele>212.0</ele><time>2026-04-04T08:18:29Z</time></trkpt><trkpt lat="43.051047399362886" lon="12.58908226782433"><ele>212.0</ele><time>2026-04-04T08:18:30Z</time></trkpt><trkpt lat="43.05096334488222" lon="12.589426300126172"><ele>212.0</ele><time>2026-04-04T08:18:31Z</time></trkpt><trkpt lat="43.05087138300823" lon="12.589770539527562"><ele>213.0</ele><time>2026-04-04T08:18:32Z</time></trkpt><trkpt lat="43.05078761473692" lon="12.590116944375499"><ele>214.0</ele><time>2026-04-04T08:18:33Z</time></trkpt><trkpt lat="43.05070464011046" lon="12.59046016191594"><ele>214.5</ele><time>2026-04-04T08:18:34Z</time></trkpt><trkpt lat="43.050621311969955" lon="12.590799960600618"><ele>215.0</ele><time>2026-04-04T08:18:35Z</time></trkpt><trkpt lat="43.050536073592475" lon="12.59113768191916"><ele>214.0</ele><time>2026-04-04T08:18:36Z</time></trkpt><trkpt lat="43.05045160858085" lon="12.591477505877908"><ele>213.0</ele><time>2026-04-04T08:18:37Z</time></trkpt><trkpt lat="43.050368912366466" lon="12.591822874634161"><ele>214.0</ele><time>2026-04-04T08:18:38Z</time></trkpt><trkpt lat="43.05028921589355" lon="12.592163455776033"><ele>215.0</ele><time>2026-04-04T08:18:39Z</time></trkpt><trkpt lat="43.05020988987701" lon="12.59250488024671"><ele>216.0</ele><time>2026-04-04T08:18:40Z</time></trkpt><trkpt lat="43.05012744948174" lon="12.592840112619756"><ele>217.0</ele><time>2026-04-04T08:18:41Z</time></trkpt><trkpt lat="43.05004310801983" lon="12.593178744314306"><ele>217.0</ele><time>2026-04-04T08:18:42Z</time></trkpt><trkpt lat="43.049958700789496" lon="12.593515355775187"><ele>217.0</ele><time>2026-04-04T08:18:43Z</time></trkpt><trkpt lat="43.04987804979062" lon="12.593857133528982"><ele>217.0</ele><time>2026-04-04T08:18:44Z</time></trkpt><trkpt lat="43.04979516798999" lon="12.5941988801462"><ele>217.0</ele><time>2026-04-04T08:18:45Z</time></trkpt><trkpt lat="43.04971356748444" lon="12.594540985083638"><ele>217.0</ele><time>2026-04-04T08:18:46Z</time></trkpt><trkpt lat="43.04963174867992" lon="12.594882862255705"><ele>217.0</ele><time>2026-04-04T08:18:47Z</time></trkpt><trkpt lat="43.04954873828962" lon="12.595231046708472"><ele>216.5</ele><time>2026-04-04T08:18:48Z</time></trkpt><trkpt lat="43.04946274030211" lon="12.595584739337507"><ele>216.0</ele><time>2026-04-04T08:18:49Z</time></trkpt><trkpt lat="43.049376331331686" lon="12.595942479873472"><ele>217.0</ele><time>2026-04-04T08:18:50Z</time></trkpt><trkpt lat="43.04928875239995" lon="12.5963024929832"><ele>218.0</ele><time>2026-04-04T08:18:51Z</time></trkpt><trkpt lat="43.04920416281724" lon="12.596668802012616"><ele>216.5</ele><time>2026-04-04T08:18:52Z</time></trkpt><trkpt lat="43.04912022237311" lon="12.597042589305811"><ele>215.0</ele><time>2026-04-04T08:18:53Z</time></trkpt><trkpt lat="43.04903979197573" lon="12.597414205908555"><ele>215.0</ele><time>2026-04-04T08:18:54Z</time></trkpt><trkpt lat="43.04895687177956" lon="12.597778049421382"><ele>215.0</ele><time>2026-04-04T08:18:55Z</time></trkpt><trkpt lat="43.04887163366123" lon="12.59815003876496"><ele>214.5</ele><time>2026-04-04T08:18:56Z</time></trkpt><trkpt lat="43.04878615006168" lon="12.598519871887472"><ele>214.0</ele><time>2026-04-04T08:18:57Z</time></trkpt><trkpt lat="43.04869840073525" lon="12.598889278656635"><ele>215.5</ele><time>2026-04-04T08:18:58Z</time></trkpt><trkpt lat="43.04860820868439" lon="12.59925441205201"><ele>217.0</ele><time>2026-04-04T08:18:59Z</time></trkpt><trkpt lat="43.048516951457074" lon="12.599621610239963"><ele>217.0</ele><time>2026-04-04T08:19:00Z</time></trkpt><trkpt lat="43.048421916169765" lon="12.59997915737272"><ele>217.0</ele><time>2026-04-04T08:19:01Z</time></trkpt><trkpt lat="43.04832039127969" lon="12.600334634134693"><ele>215.0</ele><time>2026-04-04T08:19:02Z</time></trkpt><trkpt lat="43.04821647595784" lon="12.60068436029323"><ele>213.0</ele><time>2026-04-04T08:19:03Z</time></trkpt><trkpt lat="43.04810798935294" lon="12.601038775819555"><ele>213.0</ele><time>2026-04-04T08:19:04Z</time></trkpt><trkpt lat="43.047998799189784" lon="12.601381909017404"><ele>213.0</ele><time>2026-04-04T08:19:05Z</time></trkpt><trkpt lat="43.04788355389017" lon="12.601710748394725"><ele>212.0</ele><time>2026-04-04T08:19:06Z</time></trkpt><trkpt lat="43.04774792179318" lon="12.60206369801538"><ele>211.0</ele><time>2026-04-04T08:19:07Z</time></trkpt><trkpt lat="43.047616734139716" lon="12.602396821383905"><ele>211.0</ele><time>2026-04-04T08:19:08Z</time></trkpt><trkpt lat="43.0474812665353" lon="12.602724843065811"><ele>211.0</ele><time>2026-04-04T08:19:09Z</time></trkpt><trkpt lat="43.04734085982054" lon="12.603049415871933"><ele>211.5</ele><time>2026-04-04T08:19:10Z</time></trkpt><trkpt lat="43.04719763601774" lon="12.603372781337841"><ele>212.0</ele><time>2026-04-04T08:19:11Z</time></trkpt><trkpt lat="43.047052464097234" lon="12.603690616439108"><ele>213.0</ele><time>2026-04-04T08:19:12Z</time></trkpt><trkpt lat="43.04690471639231" lon="12.604010591709551"><ele>214.0</ele><time>2026-04-04T08:19:13Z</time></trkpt><trkpt lat="43.046756656186325" lon="12.60432806304766"><ele>214.0</ele><time>2026-04-04T08:19:14Z</time></trkpt><trkpt lat="43.046611439695184" lon="12.604643992885597"><ele>214.0</ele><time>2026-04-04T08:19:15Z</time></trkpt><trkpt lat="43.04646397873261" lon="12.604957669201298"><ele>214.0</ele><time>2026-04-04T08:19:16Z</time></trkpt><trkpt lat="43.04632023294011" lon="12.605272073981821"><ele>214.0</ele><time>2026-04-04T08:19:17Z</time></trkpt><trkpt lat="43.04617459198091" lon="12.605589704060458"><ele>213.5</ele><time>2026-04-04T08:19:18Z</time></trkpt><trkpt lat="43.04602928967269" lon="12.60590817773001"><ele>213.0</ele><time>2026-04-04T08:19:19Z</time></trkpt><trkpt lat="43.04588379818889" lon="12.606219980642535"><ele>211.0</ele><time>2026-04-04T08:19:20Z</time></trkpt><trkpt lat="43.04573565226084" lon="12.606535161894909"><ele>209.0</ele><time>2026-04-04T08:19:21Z</time></trkpt><trkpt lat="43.04558599156918" lon="12.60685024060337"><ele>210.5</ele><time>2026-04-04T08:19:22Z</time></trkpt><trkpt lat="43.04543363222619" lon="12.607174523846105"><ele>212.0</ele><time>2026-04-04T08:19:23Z</time></trkpt><trkpt lat="43.04528275503817" lon="12.607494385384882"><ele>212.0</ele><time>2026-04-04T08:19:24Z</time></trkpt><trkpt lat="43.045130492598815" lon="12.607815803130052"><ele>212.0</ele><time>2026-04-04T08:19:25Z</time></trkpt><trkpt lat="43.04497488610928" lon="12.60813514108734"><ele>211.5</ele><time>2026-04-04T08:19:26Z</time></trkpt><trkpt lat="43.044814829530424" lon="12.608448736551518"><ele>211.0</ele><time>2026-04-04T08:19:27Z</time></trkpt><trkpt lat="43.0446547916331" lon="12.608766853889872"><ele>211.0</ele><time>2026-04-04T08:19:28Z</time></trkpt><trkpt lat="43.044494945168154" lon="12.609089194195251"><ele>211.0</ele><time>2026-04-04T08:19:29Z</time></trkpt><trkpt lat="43.04433640754525" lon="12.609410227966778"><ele>210.5</ele><time>2026-04-04T08:19:30Z</time></trkpt><trkpt lat="43.04418043271332" lon="12.60972972795574"><ele>210.0</ele><time>2026-04-04T08:19:31Z</time></trkpt><trkpt lat="43.04402457792809" lon="12.610047137842171"><ele>210.0</ele><time>2026-04-04T08:19:32Z</time></trkpt><trkpt lat="43.04387437472321" lon="12.610372508541293"><ele>210.0</ele><time>2026-04-04T08:19:33Z</time></trkpt><trkpt lat="43.0437247977708" lon="12.610694102561569"><ele>210.0</ele><time>2026-04-04T08:19:34Z</time></trkpt><trkpt lat="43.04357524511628" lon="12.611012936422132"><ele>210.0</ele><time>2026-04-04T08:19:35Z</time></trkpt><trkpt lat="43.043425612015035" lon="12.611328863348259"><ele>208.0</ele><time>2026-04-04T08:19:36Z</time></trkpt><trkpt lat="43.04327329850053" lon="12.611644661264195"><ele>206.0</ele><time>2026-04-04T08:19:37Z</time></trkpt><trkpt lat="43.04312201860611" lon="12.611958997563434"><ele>206.0</ele><time>2026-04-04T08:19:38Z</time></trkpt><trkpt lat="43.04296978172266" lon="12.612271496891687"><ele>206.0</ele><time>2026-04-04T08:19:39Z</time></trkpt><trkpt lat="43.042820838872444" lon="12.612585525266274"><ele>206.5</ele><time>2026-04-04T08:19:40Z</time></trkpt><trkpt lat="43.04266764352251" lon="12.61289799628851"><ele>207.0</ele><time>2026-04-04T08:19:41Z</time></trkpt><trkpt lat="43.042517162757285" lon="12.6132072594578"><ele>207.0</ele><time>2026-04-04T08:19:42Z</time></trkpt><trkpt lat="43.04236878852427" lon="12.61352307383828"><ele>207.0</ele><time>2026-04-04T08:19:43Z</time></trkpt><trkpt lat="43.042223202129286" lon="12.61383771729925"><ele>205.5</ele><time>2026-04-04T08:19:44Z</time></trkpt><trkpt lat="43.04207697756116" lon="12.614157590486935"><ele>204.0</ele><time>2026-04-04T08:19:45Z</time></trkpt><trkpt lat="43.041931962387174" lon="12.614476090670264"><ele>204.5</ele><time>2026-04-04T08:19:46Z</time></trkpt><trkpt lat="43.04178451600912" lon="12.61478493067868"><ele>205.0</ele><time>2026-04-04T08:19:47Z</time></trkpt><trkpt lat="43.04163572928322" lon="12.615084339400486"><ele>205.5</ele><time>2026-04-04T08:19:48Z</time></trkpt><trkpt lat="43.0414868079551" lon="12.615392842038775"><ele>206.0</ele><time>2026-04-04T08:19:49Z</time></trkpt><trkpt lat="43.04133682470533" lon="12.615698340122197"><ele>206.0</ele><time>2026-04-04T08:19:50Z</time></trkpt><trkpt lat="43.04119080699288" lon="12.616002994742923"><ele>206.0</ele><time>2026-04-04T08:19:51Z</time></trkpt><trkpt lat="43.041043988060906" lon="12.616313727829002"><ele>205.5</ele><time>2026-04-04T08:19:52Z</time></trkpt><trkpt lat="43.04089719159592" lon="12.616631465893635"><ele>205.0</ele><time>2026-04-04T08:19:53Z</time></trkpt><trkpt lat="43.04074713675758" lon="12.616940544608125"><ele>205.0</ele><time>2026-04-04T08:19:54Z</time></trkpt><trkpt lat="43.040592240572856" lon="12.617261596957965"><ele>205.0</ele><time>2026-04-04T08:19:55Z</time></trkpt><trkpt lat="43.04043930970167" lon="12.617578742819836"><ele>206.0</ele><time>2026-04-04T08:19:56Z</time></trkpt><trkpt lat="43.04029094845435" lon="12.617893296726459"><ele>207.0</ele><time>2026-04-04T08:19:57Z</time></trkpt><trkpt lat="43.040143052156026" lon="12.618212736953666"><ele>207.0</ele><time>2026-04-04T08:19:58Z</time></trkpt><trkpt lat="43.0399968183952" lon="12.61853147272173"><ele>207.0</ele><time>2026-04-04T08:19:59Z</time></trkpt><trkpt lat="43.03985116203712" lon="12.618848182262317"><ele>205.5</ele><time>2026-04-04T08:20:00Z</time></trkpt><trkpt lat="43.03970814563509" lon="12.619171965501973"><ele>204.0</ele><time>2026-04-04T08:20:01Z</time></trkpt><trkpt lat="43.03955779246606" lon="12.619482909478744"><ele>205.5</ele><time>2026-04-04T08:20:02Z</time></trkpt><trkpt lat="43.03940971536855" lon="12.6197966485154"><ele>207.0</ele><time>2026-04-04T08:20:03Z</time></trkpt><trkpt lat="43.039257959103686" lon="12.62010548939273"><ele>206.5</ele><time>2026-04-04T08:20:04Z</time></trkpt><trkpt lat="43.03910307229082" lon="12.620427585148644"><ele>206.0</ele><time>2026-04-04T08:20:05Z</time></trkpt><trkpt lat="43.03895233260832" lon="12.620740211544398"><ele>206.0</ele><time>2026-04-04T08:20:06Z</time></trkpt><trkpt lat="43.038796497089045" lon="12.621075080897397"><ele>206.0</ele><time>2026-04-04T08:20:07Z</time></trkpt><trkpt lat="43.03864557569263" lon="12.621394767563938"><ele>206.5</ele><time>2026-04-04T08:20:08Z</time></trkpt><trkpt lat="43.038492979034" lon="12.6217142910533"><ele>207.0</ele><time>2026-04-04T08:20:09Z</time></trkpt><trkpt lat="43.03833863664238" lon="12.622032432566986"><ele>207.0</ele><time>2026-04-04T08:20:10Z</time></trkpt><trkpt lat="43.03818592382075" lon="12.622348982935897"><ele>207.0</ele><time>2026-04-04T08:20:11Z</time></trkpt><trkpt lat="43.0380315516762" lon="12.622664297652708"><ele>208.0</ele><time>2026-04-04T08:20:12Z</time></trkpt><trkpt lat="43.03787404108375" lon="12.622981903869618"><ele>209.0</ele><time>2026-04-04T08:20:13Z</time></trkpt><trkpt lat="43.03772418571851" lon="12.6233034114068"><ele>209.0</ele><time>2026-04-04T08:20:14Z</time></trkpt><trkpt lat="43.0375769830843" lon="12.623625694928185"><ele>209.0</ele><time>2026-04-04T08:20:15Z</time></trkpt><trkpt lat="43.037425587916864" lon="12.623943473191462"><ele>208.5</ele><time>2026-04-04T08:20:16Z</time></trkpt><trkpt lat="43.03727512325442" lon="12.62426060336723"><ele>208.0</ele><time>2026-04-04T08:20:17Z</time></trkpt><trkpt lat="43.03712613012949" lon="12.624575480939436"><ele>208.0</ele><time>2026-04-04T08:20:18Z</time></trkpt><trkpt lat="43.036976471976146" lon="12.624890034037731"><ele>208.0</ele><time>2026-04-04T08:20:19Z</time></trkpt><trkpt lat="43.03682228688618" lon="12.625212352792133"><ele>207.5</ele><time>2026-04-04T08:20:20Z</time></trkpt><trkpt lat="43.036669589926866" lon="12.625529088508262"><ele>207.0</ele><time>2026-04-04T08:20:21Z</time></trkpt><trkpt lat="43.03651641606" lon="12.625845203237786"><ele>208.5</ele><time>2026-04-04T08:20:22Z</time></trkpt><trkpt lat="43.03636816657193" lon="12.626170400290977"><ele>210.0</ele><time>2026-04-04T08:20:23Z</time></trkpt><trkpt lat="43.03621947401837" lon="12.626491775105151"><ele>210.0</ele><time>2026-04-04T08:20:24Z</time></trkpt><trkpt lat="43.03607017372274" lon="12.626811007877166"><ele>210.0</ele><time>2026-04-04T08:20:25Z</time></trkpt><trkpt lat="43.03591816425328" lon="12.627123463979569"><ele>209.0</ele><time>2026-04-04T08:20:26Z</time></trkpt><trkpt lat="43.03576588576972" lon="12.62743725977461"><ele>208.0</ele><time>2026-04-04T08:20:27Z</time></trkpt><trkpt lat="43.035610603567605" lon="12.627749726094166"><ele>208.0</ele><time>2026-04-04T08:20:28Z</time></trkpt><trkpt lat="43.035451412762534" lon="12.628058616619692"><ele>208.0</ele><time>2026-04-04T08:20:29Z</time></trkpt><trkpt lat="43.03528385589435" lon="12.628359351621766"><ele>208.0</ele><time>2026-04-04T08:20:30Z</time></trkpt><trkpt lat="43.03510395616913" lon="12.628648798691897"><ele>208.0</ele><time>2026-04-04T08:20:31Z</time></trkpt><trkpt lat="43.03491531877339" lon="12.628924171339067"><ele>208.0</ele><time>2026-04-04T08:20:32Z</time></trkpt><trkpt lat="43.034713852071874" lon="12.629180752418726"><ele>208.0</ele><time>2026-04-04T08:20:33Z</time></trkpt><trkpt lat="43.034502394706564" lon="12.629419623363564"><ele>207.0</ele><time>2026-04-04T08:20:34Z</time></trkpt><trkpt lat="43.0342822883984" lon="12.629652431493723"><ele>206.0</ele><time>2026-04-04T08:20:35Z</time></trkpt><trkpt lat="43.0340571981246" lon="12.629871035578654"><ele>206.0</ele><time>2026-04-04T08:20:36Z</time></trkpt><trkpt lat="43.03382839565413" lon="12.63008102612552"><ele>206.0</ele><time>2026-04-04T08:20:37Z</time></trkpt><trkpt lat="43.03359854648241" lon="12.630294971694342"><ele>205.0</ele><time>2026-04-04T08:20:38Z</time></trkpt><trkpt lat="43.033370200045226" lon="12.630512322456523"><ele>204.0</ele><time>2026-04-04T08:20:39Z</time></trkpt><trkpt lat="43.033142823524365" lon="12.630708049883449"><ele>204.0</ele><time>2026-04-04T08:20:40Z</time></trkpt><trkpt lat="43.03291700066029" lon="12.63092323173194"><ele>204.0</ele><time>2026-04-04T08:20:41Z</time></trkpt><trkpt lat="43.03269302713057" lon="12.631142081510736"><ele>203.5</ele><time>2026-04-04T08:20:42Z</time></trkpt><trkpt lat="43.03247103487278" lon="12.631360377268066"><ele>203.0</ele><time>2026-04-04T08:20:43Z</time></trkpt><trkpt lat="43.032244608024115" lon="12.631552866425695"><ele>203.0</ele><time>2026-04-04T08:20:44Z</time></trkpt><trkpt lat="43.03201839386944" lon="12.631759654098172"><ele>203.0</ele><time>2026-04-04T08:20:45Z</time></trkpt><trkpt lat="43.031794307799096" lon="12.631962883524382"><ele>203.5</ele><time>2026-04-04T08:20:46Z</time></trkpt><trkpt lat="43.03156941428056" lon="12.632170672184275"><ele>204.0</ele><time>2026-04-04T08:20:47Z</time></trkpt><trkpt lat="43.031339476188485" lon="12.632381840361662"><ele>204.0</ele><time>2026-04-04T08:20:48Z</time></trkpt><trkpt lat="43.03110900294244" lon="12.632593494273134"><ele>204.0</ele><time>2026-04-04T08:20:49Z</time></trkpt><trkpt lat="43.0308810411604" lon="12.632802229525625"><ele>203.5</ele><time>2026-04-04T08:20:50Z</time></trkpt><trkpt lat="43.03065288458167" lon="12.633010930357901"><ele>203.0</ele><time>2026-04-04T08:20:51Z</time></trkpt><trkpt lat="43.03042386204774" lon="12.633221193199388"><ele>203.0</ele><time>2026-04-04T08:20:52Z</time></trkpt><trkpt lat="43.030193687504585" lon="12.633432441438995"><ele>203.0</ele><time>2026-04-04T08:20:53Z</time></trkpt><trkpt lat="43.02996012297309" lon="12.633640468201909"><ele>203.0</ele><time>2026-04-04T08:20:54Z</time></trkpt><trkpt lat="43.02973004197505" lon="12.6338569515169"><ele>203.0</ele><time>2026-04-04T08:20:55Z</time></trkpt><trkpt lat="43.02949849919067" lon="12.63407467768927"><ele>203.0</ele><time>2026-04-04T08:20:56Z</time></trkpt><trkpt lat="43.02927605090546" lon="12.634281030050326"><ele>203.0</ele><time>2026-04-04T08:20:57Z</time></trkpt><trkpt lat="43.02904543910169" lon="12.63449892549565"><ele>202.0</ele><time>2026-04-04T08:20:58Z</time></trkpt><trkpt lat="43.028819329181935" lon="12.634711825954014"><ele>201.0</ele><time>2026-04-04T08:20:59Z</time></trkpt><trkpt lat="43.02859032428392" lon="12.634928363024486"><ele>201.0</ele><time>2026-04-04T08:21:00Z</time></trkpt><trkpt lat="43.028362937477354" lon="12.635137117078617"><ele>201.0</ele><time>2026-04-04T08:21:01Z</time></trkpt><trkpt lat="43.0281345232908" lon="12.635346698035274"><ele>200.0</ele><time>2026-04-04T08:21:02Z</time></trkpt><trkpt lat="43.02791102950553" lon="12.635552620899299"><ele>199.0</ele><time>2026-04-04T08:21:03Z</time></trkpt><trkpt lat="43.02767960925439" lon="12.635762234430235"><ele>199.5</ele><time>2026-04-04T08:21:04Z</time></trkpt><trkpt lat="43.02745089768181" lon="12.635975427376758"><ele>200.0</ele><time>2026-04-04T08:21:05Z</time></trkpt><trkpt lat="43.02722357039796" lon="12.636196717360262"><ele>200.0</ele><time>2026-04-04T08:21:06Z</time></trkpt><trkpt lat="43.02699385755597" lon="12.636419130830479"><ele>200.0</ele><time>2026-04-04T08:21:07Z</time></trkpt><trkpt lat="43.0267611287846" lon="12.636642904065708"><ele>198.5</ele><time>2026-04-04T08:21:08Z</time></trkpt><trkpt lat="43.026531363565056" lon="12.636870466618406"><ele>197.0</ele><time>2026-04-04T08:21:09Z</time></trkpt><trkpt lat="43.02630057667031" lon="12.637091941249361"><ele>197.0</ele><time>2026-04-04T08:21:10Z</time></trkpt><trkpt lat="43.026067876598496" lon="12.637309137981035"><ele>197.0</ele><time>2026-04-04T08:21:11Z</time></trkpt><trkpt lat="43.02583217039186" lon="12.637522058333925"><ele>196.0</ele><time>2026-04-04T08:21:12Z</time></trkpt><trkpt lat="43.025594093804116" lon="12.637747941819672"><ele>195.0</ele><time>2026-04-04T08:21:13Z</time></trkpt><trkpt lat="43.02535696719773" lon="12.637965544745773"><ele>196.5</ele><time>2026-04-04T08:21:14Z</time></trkpt><trkpt lat="43.02512150344169" lon="12.638178370736558"><ele>198.0</ele><time>2026-04-04T08:21:15Z</time></trkpt><trkpt lat="43.02488999830413" lon="12.63839845575417"><ele>198.0</ele><time>2026-04-04T08:21:16Z</time></trkpt><trkpt lat="43.024656748730116" lon="12.638613457310274"><ele>198.0</ele><time>2026-04-04T08:21:17Z</time></trkpt><trkpt lat="43.024423146972566" lon="12.638828474276078"><ele>199.0</ele><time>2026-04-04T08:21:18Z</time></trkpt><trkpt lat="43.02418824940131" lon="12.639041033000721"><ele>200.0</ele><time>2026-04-04T08:21:19Z</time></trkpt><trkpt lat="43.02395425839039" lon="12.639255705293115"><ele>200.0</ele><time>2026-04-04T08:21:20Z</time></trkpt><trkpt lat="43.0237138468528" lon="12.639465069525473"><ele>200.0</ele><time>2026-04-04T08:21:21Z</time></trkpt><trkpt lat="43.02347359707547" lon="12.639674053624892"><ele>201.5</ele><time>2026-04-04T08:21:22Z</time></trkpt><trkpt lat="43.02323211833971" lon="12.639881866158612"><ele>203.0</ele><time>2026-04-04T08:21:23Z</time></trkpt><trkpt lat="43.02299617293282" lon="12.640084892887762"><ele>203.0</ele><time>2026-04-04T08:21:24Z</time></trkpt><trkpt lat="43.022761902514794" lon="12.640297356859396"><ele>203.0</ele><time>2026-04-04T08:21:25Z</time></trkpt><trkpt lat="43.022531298051966" lon="12.640510005377275"><ele>203.5</ele><time>2026-04-04T08:21:26Z</time></trkpt><trkpt lat="43.02229789299601" lon="12.640727370768333"><ele>204.0</ele><time>2026-04-04T08:21:27Z</time></trkpt><trkpt lat="43.022073973428306" lon="12.640945803364222"><ele>205.5</ele><time>2026-04-04T08:21:28Z</time></trkpt><trkpt lat="43.02184280396569" lon="12.641160316520223"><ele>207.0</ele><time>2026-04-04T08:21:29Z</time></trkpt><trkpt lat="43.021618730949875" lon="12.641389195715753"><ele>208.0</ele><time>2026-04-04T08:21:30Z</time></trkpt><trkpt lat="43.02140423741012" lon="12.64163411703523"><ele>209.0</ele><time>2026-04-04T08:21:31Z</time></trkpt><trkpt lat="43.02120076259491" lon="12.641892422049235"><ele>209.5</ele><time>2026-04-04T08:21:32Z</time></trkpt><trkpt lat="43.02100227283946" lon="12.642159158722542"><ele>210.0</ele><time>2026-04-04T08:21:33Z</time></trkpt><trkpt lat="43.02080530190495" lon="12.642426747600986"><ele>210.0</ele><time>2026-04-04T08:21:34Z</time></trkpt><trkpt lat="43.02060805286739" lon="12.642692593173285"><ele>210.0</ele><time>2026-04-04T08:21:35Z</time></trkpt><trkpt lat="43.02041147499487" lon="12.642952241297865"><ele>210.5</ele><time>2026-04-04T08:21:36Z</time></trkpt><trkpt lat="43.02021552367884" lon="12.643213557509544"><ele>211.0</ele><time>2026-04-04T08:21:37Z</time></trkpt><trkpt lat="43.02001690365322" lon="12.643477690367133"><ele>210.0</ele><time>2026-04-04T08:21:38Z</time></trkpt><trkpt lat="43.019818418465164" lon="12.643738186068154"><ele>209.0</ele><time>2026-04-04T08:21:39Z</time></trkpt><trkpt lat="43.01961429722949" lon="12.64400486584203"><ele>209.0</ele><time>2026-04-04T08:21:40Z</time></trkpt><trkpt lat="43.019418366333674" lon="12.644266764024477"><ele>209.0</ele><time>2026-04-04T08:21:41Z</time></trkpt><trkpt lat="43.019227971393754" lon="12.644530214393512"><ele>209.0</ele><time>2026-04-04T08:21:42Z</time></trkpt><trkpt lat="43.019036077908495" lon="12.64479658741101"><ele>209.0</ele><time>2026-04-04T08:21:43Z</time></trkpt><trkpt lat="43.01883320026932" lon="12.64506275453084"><ele>209.5</ele><time>2026-04-04T08:21:44Z</time></trkpt><trkpt lat="43.01862974785345" lon="12.645326171132886"><ele>210.0</ele><time>2026-04-04T08:21:45Z</time></trkpt><trkpt lat="43.01843413448213" lon="12.645591477403219"><ele>209.5</ele><time>2026-04-04T08:21:46Z</time></trkpt><trkpt lat="43.0182432158533" lon="12.645866878952821"><ele>209.0</ele><time>2026-04-04T08:21:47Z</time></trkpt><trkpt lat="43.01804815850646" lon="12.646138098581854"><ele>209.0</ele><time>2026-04-04T08:21:48Z</time></trkpt><trkpt lat="43.01785162410978" lon="12.646410774445052"><ele>209.0</ele><time>2026-04-04T08:21:49Z</time></trkpt><trkpt lat="43.01765547553114" lon="12.646680979653564"><ele>208.0</ele><time>2026-04-04T08:21:50Z</time></trkpt><trkpt lat="43.017456892297716" lon="12.646953586353645"><ele>207.0</ele><time>2026-04-04T08:21:51Z</time></trkpt><trkpt lat="43.017259329960325" lon="12.647228482100912"><ele>207.0</ele><time>2026-04-04T08:21:52Z</time></trkpt><trkpt lat="43.017059375367346" lon="12.647495121744145"><ele>207.0</ele><time>2026-04-04T08:21:53Z</time></trkpt><trkpt lat="43.01685360920052" lon="12.647766646287318"><ele>207.0</ele><time>2026-04-04T08:21:54Z</time></trkpt><trkpt lat="43.016661107382184" lon="12.648034505034746"><ele>207.0</ele><time>2026-04-04T08:21:55Z</time></trkpt><trkpt lat="43.01645342620196" lon="12.648317372779664"><ele>207.0</ele><time>2026-04-04T08:21:56Z</time></trkpt><trkpt lat="43.016249437240305" lon="12.64858453065579"><ele>207.0</ele><time>2026-04-04T08:21:57Z</time></trkpt><trkpt lat="43.01604888469183" lon="12.648853547006203"><ele>207.0</ele><time>2026-04-04T08:21:58Z</time></trkpt><trkpt lat="43.01584658868879" lon="12.649123104144095"><ele>207.0</ele><time>2026-04-04T08:21:59Z</time></trkpt><trkpt lat="43.015644683168404" lon="12.649395273827306"><ele>205.5</ele><time>2026-04-04T08:22:00Z</time></trkpt><trkpt lat="43.015444828295024" lon="12.64966576627673"><ele>204.0</ele><time>2026-04-04T08:22:01Z</time></trkpt><trkpt lat="43.015244053931" lon="12.649941383581702"><ele>204.0</ele><time>2026-04-04T08:22:02Z</time></trkpt><trkpt lat="43.0150456005515" lon="12.650216125382267"><ele>204.0</ele><time>2026-04-04T08:22:03Z</time></trkpt><trkpt lat="43.01484738559645" lon="12.65048800555443"><ele>203.0</ele><time>2026-04-04T08:22:04Z</time></trkpt><trkpt lat="43.01464545067755" lon="12.650737388854038"><ele>202.0</ele><time>2026-04-04T08:22:05Z</time></trkpt><trkpt lat="43.01444400658118" lon="12.651016056178996"><ele>202.5</ele><time>2026-04-04T08:22:06Z</time></trkpt><trkpt lat="43.01424155674164" lon="12.651280924158819"><ele>203.0</ele><time>2026-04-04T08:22:07Z</time></trkpt><trkpt lat="43.0140326063674" lon="12.651543956762787"><ele>202.0</ele><time>2026-04-04T08:22:08Z</time></trkpt><trkpt lat="43.01382072384919" lon="12.651793495371185"><ele>201.0</ele><time>2026-04-04T08:22:09Z</time></trkpt><trkpt lat="43.013605562205775" lon="12.652034004827124"><ele>201.0</ele><time>2026-04-04T08:22:10Z</time></trkpt><trkpt lat="43.01338915735836" lon="12.652272328146719"><ele>201.0</ele><time>2026-04-04T08:22:11Z</time></trkpt><trkpt lat="43.013166480958226" lon="12.652500652573673"><ele>201.0</ele><time>2026-04-04T08:22:12Z</time></trkpt><trkpt lat="43.01294106982451" lon="12.652722025931771"><ele>201.0</ele><time>2026-04-04T08:22:13Z</time></trkpt><trkpt lat="43.01271452075734" lon="12.652936408186651"><ele>201.5</ele><time>2026-04-04T08:22:14Z</time></trkpt><trkpt lat="43.01247929200402" lon="12.653141462445404"><ele>202.0</ele><time>2026-04-04T08:22:15Z</time></trkpt><trkpt lat="43.01224694214974" lon="12.653346118074829"><ele>202.0</ele><time>2026-04-04T08:22:16Z</time></trkpt><trkpt lat="43.01201442887807" lon="12.653554173583224"><ele>202.0</ele><time>2026-04-04T08:22:17Z</time></trkpt><trkpt lat="43.011781604234606" lon="12.653772465084073"><ele>201.5</ele><time>2026-04-04T08:22:18Z</time></trkpt><trkpt lat="43.01154602086654" lon="12.653976580920498"><ele>201.0</ele><time>2026-04-04T08:22:19Z</time></trkpt><trkpt lat="43.011312713462225" lon="12.654186946090743"><ele>201.0</ele><time>2026-04-04T08:22:20Z</time></trkpt><trkpt lat="43.0110799548287" lon="12.654396886397723"><ele>201.0</ele><time>2026-04-04T08:22:21Z</time></trkpt><trkpt lat="43.010847799015856" lon="12.654605888930151"><ele>201.0</ele><time>2026-04-04T08:22:22Z</time></trkpt><trkpt lat="43.01060645535635" lon="12.654803626875196"><ele>201.0</ele><time>2026-04-04T08:22:23Z</time></trkpt><trkpt lat="43.01037494587777" lon="12.655017283449398"><ele>201.0</ele><time>2026-04-04T08:22:24Z</time></trkpt><trkpt lat="43.01014201573046" lon="12.655223412780783"><ele>201.0</ele><time>2026-04-04T08:22:25Z</time></trkpt><trkpt lat="43.009908325633354" lon="12.655424208338523"><ele>201.5</ele><time>2026-04-04T08:22:26Z</time></trkpt><trkpt lat="43.009680062287536" lon="12.655628595854086"><ele>202.0</ele><time>2026-04-04T08:22:27Z</time></trkpt><trkpt lat="43.00944376404291" lon="12.655835948427303"><ele>202.0</ele><time>2026-04-04T08:22:28Z</time></trkpt><trkpt lat="43.00921787168892" lon="12.656050612428121"><ele>202.0</ele><time>2026-04-04T08:22:29Z</time></trkpt><trkpt lat="43.008988823136455" lon="12.656282877184363"><ele>202.5</ele><time>2026-04-04T08:22:30Z</time></trkpt><trkpt lat="43.008753731424946" lon="12.65650395123641"><ele>203.0</ele><time>2026-04-04T08:22:31Z</time></trkpt><trkpt lat="43.00852010624714" lon="12.656723313194064"><ele>203.0</ele><time>2026-04-04T08:22:32Z</time></trkpt><trkpt lat="43.00828719137512" lon="12.656944411217797"><ele>203.0</ele><time>2026-04-04T08:22:33Z</time></trkpt><trkpt lat="43.008048329823325" lon="12.657155862026455"><ele>203.0</ele><time>2026-04-04T08:22:34Z</time></trkpt><trkpt lat="43.007812131902526" lon="12.657371882712047"><ele>203.0</ele><time>2026-04-04T08:22:35Z</time></trkpt><trkpt lat="43.007573498274404" lon="12.657584049736958"><ele>205.0</ele><time>2026-04-04T08:22:36Z</time></trkpt><trkpt lat="43.00733992519063" lon="12.657796425137148"><ele>207.0</ele><time>2026-04-04T08:22:37Z</time></trkpt><trkpt lat="43.007108093816086" lon="12.658006058628292"><ele>207.0</ele><time>2026-04-04T08:22:38Z</time></trkpt><trkpt lat="43.00688032920432" lon="12.65821877676738"><ele>207.0</ele><time>2026-04-04T08:22:39Z</time></trkpt><trkpt lat="43.00664471602182" lon="12.658423523313324"><ele>207.5</ele><time>2026-04-04T08:22:40Z</time></trkpt><trkpt lat="43.006405285308716" lon="12.65861891690343"><ele>208.0</ele><time>2026-04-04T08:22:41Z</time></trkpt><trkpt lat="43.00616239728292" lon="12.65880934349898"><ele>208.0</ele><time>2026-04-04T08:22:42Z</time></trkpt><trkpt lat="43.00590867761899" lon="12.658993413195677"><ele>208.0</ele><time>2026-04-04T08:22:43Z</time></trkpt><trkpt lat="43.00566376193028" lon="12.659172521127836"><ele>207.0</ele><time>2026-04-04T08:22:44Z</time></trkpt><trkpt lat="43.00541964050396" lon="12.659341333066793"><ele>206.0</ele><time>2026-04-04T08:22:45Z</time></trkpt><trkpt lat="43.00517021029156" lon="12.659510652028459"><ele>205.0</ele><time>2026-04-04T08:22:46Z</time></trkpt><trkpt lat="43.00491734698545" lon="12.659674967135166"><ele>204.0</ele><time>2026-04-04T08:22:47Z</time></trkpt><trkpt lat="43.00465857836964" lon="12.659825450723902"><ele>204.0</ele><time>2026-04-04T08:22:48Z</time></trkpt><trkpt lat="43.00440029368413" lon="12.659964589926664"><ele>204.0</ele><time>2026-04-04T08:22:49Z</time></trkpt><trkpt lat="43.004139561604866" lon="12.660095364345521"><ele>202.5</ele><time>2026-04-04T08:22:50Z</time></trkpt><trkpt lat="43.00387438596655" lon="12.660223792740478"><ele>201.0</ele><time>2026-04-04T08:22:51Z</time></trkpt><trkpt lat="43.00360769398291" lon="12.660341158120886"><ele>203.0</ele><time>2026-04-04T08:22:52Z</time></trkpt><trkpt lat="43.003336947671535" lon="12.660451964956913"><ele>205.0</ele><time>2026-04-04T08:22:53Z</time></trkpt><trkpt lat="43.00306633427258" lon="12.660547175087615"><ele>205.0</ele><time>2026-04-04T08:22:54Z</time></trkpt><trkpt lat="43.002793289045535" lon="12.660633604613015"><ele>205.0</ele><time>2026-04-04T08:22:55Z</time></trkpt><trkpt lat="43.00251824665365" lon="12.6607072596275"><ele>205.0</ele><time>2026-04-04T08:22:56Z</time></trkpt><trkpt lat="43.002238170543706" lon="12.660763804214165"><ele>205.0</ele><time>2026-04-04T08:22:57Z</time></trkpt><trkpt lat="43.00195962980337" lon="12.660820345539916"><ele>205.0</ele><time>2026-04-04T08:22:58Z</time></trkpt><trkpt lat="43.001678408846495" lon="12.66088478462301"><ele>205.0</ele><time>2026-04-04T08:22:59Z</time></trkpt><trkpt lat="43.00139771791685" lon="12.660949088582186"><ele>206.5</ele><time>2026-04-04T08:23:00Z</time></trkpt><trkpt lat="43.00111763771087" lon="12.661015870628255"><ele>208.0</ele><time>2026-04-04T08:23:01Z</time></trkpt><trkpt lat="43.00083696073659" lon="12.661080080615335"><ele>208.5</ele><time>2026-04-04T08:23:02Z</time></trkpt><trkpt lat="43.00055620139972" lon="12.661145160354865"><ele>209.0</ele><time>2026-04-04T08:23:03Z</time></trkpt><trkpt lat="43.00027441269724" lon="12.661209414652339"><ele>209.0</ele><time>2026-04-04T08:23:04Z</time></trkpt><trkpt lat="42.99999275453353" lon="12.66127645030071"><ele>209.0</ele><time>2026-04-04T08:23:05Z</time></trkpt><trkpt lat="42.99971297907438" lon="12.661343383398373"><ele>209.0</ele><time>2026-04-04T08:23:06Z</time></trkpt><trkpt lat="42.99943239659981" lon="12.661407499532045"><ele>209.0</ele><time>2026-04-04T08:23:07Z</time></trkpt><trkpt lat="42.999152260665056" lon="12.66146903944659"><ele>209.0</ele><time>2026-04-04T08:23:08Z</time></trkpt><trkpt lat="42.998872680241234" lon="12.661535643070662"><ele>209.0</ele><time>2026-04-04T08:23:09Z</time></trkpt><trkpt lat="42.998594819900774" lon="12.661601548684873"><ele>209.5</ele><time>2026-04-04T08:23:10Z</time></trkpt><trkpt lat="42.99832156964013" lon="12.661665120904486"><ele>210.0</ele><time>2026-04-04T08:23:11Z</time></trkpt><trkpt lat="42.99804723586006" lon="12.661724586967685"><ele>210.0</ele><time>2026-04-04T08:23:12Z</time></trkpt><trkpt lat="42.9977733973146" lon="12.661788959370275"><ele>210.0</ele><time>2026-04-04T08:23:13Z</time></trkpt><trkpt lat="42.9974992396554" lon="12.661855213699846"><ele>210.0</ele><time>2026-04-04T08:23:14Z</time></trkpt><trkpt lat="42.997226358213545" lon="12.661918668131042"><ele>210.0</ele><time>2026-04-04T08:23:15Z</time></trkpt><trkpt lat="42.99695476288285" lon="12.661984062617915"><ele>210.0</ele><time>2026-04-04T08:23:16Z</time></trkpt><trkpt lat="42.99668146512594" lon="12.662051463957166"><ele>210.0</ele><time>2026-04-04T08:23:17Z</time></trkpt><trkpt lat="42.99641120618766" lon="12.662129471410971"><ele>209.0</ele><time>2026-04-04T08:23:18Z</time></trkpt><trkpt lat="42.99614436148866" lon="12.662216986123884"><ele>208.0</ele><time>2026-04-04T08:23:19Z</time></trkpt><trkpt lat="42.99587701272343" lon="12.662315867444205"><ele>208.5</ele><time>2026-04-04T08:23:20Z</time></trkpt><trkpt lat="42.99560687250588" lon="12.66242742533597"><ele>209.0</ele><time>2026-04-04T08:23:21Z</time></trkpt><trkpt lat="42.99534162282721" lon="12.662554800933115"><ele>209.0</ele><time>2026-04-04T08:23:22Z</time></trkpt><trkpt lat="42.99508498308674" lon="12.662690238857296"><ele>209.0</ele><time>2026-04-04T08:23:23Z</time></trkpt><trkpt lat="42.99483158789945" lon="12.662826631058952"><ele>209.0</ele><time>2026-04-04T08:23:24Z</time></trkpt><trkpt lat="42.99457932331121" lon="12.662969236175392"><ele>209.0</ele><time>2026-04-04T08:23:25Z</time></trkpt><trkpt lat="42.99432047474788" lon="12.6631145621014"><ele>209.0</ele><time>2026-04-04T08:23:26Z</time></trkpt><trkpt lat="42.9940630710941" lon="12.663255906393692"><ele>209.0</ele><time>2026-04-04T08:23:27Z</time></trkpt><trkpt lat="42.99380405441794" lon="12.663401963254765"><ele>209.0</ele><time>2026-04-04T08:23:28Z</time></trkpt><trkpt lat="42.99353798939082" lon="12.663557916605988"><ele>209.0</ele><time>2026-04-04T08:23:29Z</time></trkpt><trkpt lat="42.99325927844797" lon="12.66372432623579"><ele>209.5</ele><time>2026-04-04T08:23:30Z</time></trkpt><trkpt lat="42.99297162946664" lon="12.663898795402394"><ele>210.0</ele><time>2026-04-04T08:23:31Z</time></trkpt><trkpt lat="42.99267276429392" lon="12.664080246382522"><ele>210.5</ele><time>2026-04-04T08:23:32Z</time></trkpt><trkpt lat="42.9923690081453" lon="12.664262126669565"><ele>211.0</ele><time>2026-04-04T08:23:33Z</time></trkpt><trkpt lat="42.992077013019404" lon="12.66443396988405"><ele>211.0</ele><time>2026-04-04T08:23:34Z</time></trkpt><trkpt lat="42.99179000474176" lon="12.664589851953709"><ele>211.0</ele><time>2026-04-04T08:23:35Z</time></trkpt><trkpt lat="42.991517055130466" lon="12.664744894572166"><ele>212.0</ele><time>2026-04-04T08:23:36Z</time></trkpt><trkpt lat="42.99124857430273" lon="12.66489840027589"><ele>213.0</ele><time>2026-04-04T08:23:37Z</time></trkpt><trkpt lat="42.99097886612486" lon="12.665055669253267"><ele>213.5</ele><time>2026-04-04T08:23:38Z</time></trkpt><trkpt lat="42.99070349761867" lon="12.665211054550584"><ele>214.0</ele><time>2026-04-04T08:23:39Z</time></trkpt><trkpt lat="42.99041030844371" lon="12.665390536289506"><ele>214.5</ele><time>2026-04-04T08:23:40Z</time></trkpt><trkpt lat="42.99013094130014" lon="12.665557434830795"><ele>215.0</ele><time>2026-04-04T08:23:41Z</time></trkpt><trkpt lat="42.98983926991291" lon="12.66572191081592"><ele>215.0</ele><time>2026-04-04T08:23:42Z</time></trkpt><trkpt lat="42.98954076423196" lon="12.66589403609008"><ele>215.0</ele><time>2026-04-04T08:23:43Z</time></trkpt><trkpt lat="42.98923298333996" lon="12.666084639365673"><ele>215.0</ele><time>2026-04-04T08:23:44Z</time></trkpt><trkpt lat="42.98891031474577" lon="12.666260856733285"><ele>215.0</ele><time>2026-04-04T08:23:45Z</time></trkpt><trkpt lat="42.98858474155397" lon="12.666450832243848"><ele>216.0</ele><time>2026-04-04T08:23:46Z</time></trkpt><trkpt lat="42.988260605774904" lon="12.666641904005838"><ele>217.0</ele><time>2026-04-04T08:23:47Z</time></trkpt><trkpt lat="42.9879368638151" lon="12.666862437767687"><ele>218.0</ele><time>2026-04-04T08:23:48Z</time></trkpt><trkpt lat="42.98763038736235" lon="12.667101328210881"><ele>219.0</ele><time>2026-04-04T08:23:49Z</time></trkpt><trkpt lat="42.98734004104476" lon="12.667351566515508"><ele>220.0</ele><time>2026-04-04T08:23:50Z</time></trkpt><trkpt lat="42.987068566014116" lon="12.667628971824142"><ele>221.0</ele><time>2026-04-04T08:23:51Z</time></trkpt><trkpt lat="42.98681504570746" lon="12.667954304075803"><ele>223.0</ele><time>2026-04-04T08:23:52Z</time></trkpt><trkpt lat="42.98658455217266" lon="12.66828305306053"><ele>225.0</ele><time>2026-04-04T08:23:53Z</time></trkpt><trkpt lat="42.98634879323166" lon="12.668602381665977"><ele>224.5</ele><time>2026-04-04T08:23:54Z</time></trkpt><trkpt lat="42.98612570076799" lon="12.6688815866359"><ele>224.0</ele><time>2026-04-04T08:23:55Z</time></trkpt><trkpt lat="42.98591632442953" lon="12.66915026728335"><ele>224.0</ele><time>2026-04-04T08:23:56Z</time></trkpt><trkpt lat="42.985716412258306" lon="12.669422322563147"><ele>224.0</ele><time>2026-04-04T08:23:57Z</time></trkpt><trkpt lat="42.98552181072893" lon="12.669693211421375"><ele>224.5</ele><time>2026-04-04T08:23:58Z</time></trkpt><trkpt lat="42.985322197573886" lon="12.66999116806198"><ele>225.0</ele><time>2026-04-04T08:23:59Z</time></trkpt><trkpt lat="42.98511575405586" lon="12.670268006900221"><ele>223.5</ele><time>2026-04-04T08:24:00Z</time></trkpt><trkpt lat="42.98490558995049" lon="12.670542086877933"><ele>222.0</ele><time>2026-04-04T08:24:01Z</time></trkpt><trkpt lat="42.984693770327496" lon="12.670814017352297"><ele>222.0</ele><time>2026-04-04T08:24:02Z</time></trkpt><trkpt lat="42.98448674481369" lon="12.671090857220515"><ele>222.0</ele><time>2026-04-04T08:24:03Z</time></trkpt><trkpt lat="42.9842823349745" lon="12.671370775923256"><ele>221.5</ele><time>2026-04-04T08:24:04Z</time></trkpt><trkpt lat="42.984071695828696" lon="12.67164311420405"><ele>221.0</ele><time>2026-04-04T08:24:05Z</time></trkpt><trkpt lat="42.98385470880823" lon="12.671904208858003"><ele>222.5</ele><time>2026-04-04T08:24:06Z</time></trkpt><trkpt lat="42.983639080830315" lon="12.672167844619603"><ele>224.0</ele><time>2026-04-04T08:24:07Z</time></trkpt><trkpt lat="42.98342825013667" lon="12.672431768126932"><ele>224.5</ele><time>2026-04-04T08:24:08Z</time></trkpt><trkpt lat="42.983221428342034" lon="12.672705516892458"><ele>225.0</ele><time>2026-04-04T08:24:09Z</time></trkpt><trkpt lat="42.98302192053552" lon="12.672983484495298"><ele>225.0</ele><time>2026-04-04T08:24:10Z</time></trkpt><trkpt lat="42.982819080219" lon="12.673262594557826"><ele>225.0</ele><time>2026-04-04T08:24:11Z</time></trkpt><trkpt lat="42.98261088315102" lon="12.673527826614045"><ele>223.0</ele><time>2026-04-04T08:24:12Z</time></trkpt><trkpt lat="42.98240287051844" lon="12.673796685332315"><ele>221.0</ele><time>2026-04-04T08:24:13Z</time></trkpt><trkpt lat="42.98219997370015" lon="12.67406833024822"><ele>221.0</ele><time>2026-04-04T08:24:14Z</time></trkpt><trkpt lat="42.98200814129698" lon="12.674365011453627"><ele>221.0</ele><time>2026-04-04T08:24:15Z</time></trkpt><trkpt lat="42.98181290371519" lon="12.67461690428131"><ele>221.0</ele><time>2026-04-04T08:24:16Z</time></trkpt><trkpt lat="42.98160428086472" lon="12.674885875140316"><ele>221.0</ele><time>2026-04-04T08:24:17Z</time></trkpt><trkpt lat="42.98139739308042" lon="12.67515118371131"><ele>221.5</ele><time>2026-04-04T08:24:18Z</time></trkpt><trkpt lat="42.98118857444773" lon="12.675415451580534"><ele>222.0</ele><time>2026-04-04T08:24:19Z</time></trkpt><trkpt lat="42.9809909030216" lon="12.675679894360618"><ele>222.0</ele><time>2026-04-04T08:24:20Z</time></trkpt><trkpt lat="42.98079247445577" lon="12.675955441458875"><ele>222.0</ele><time>2026-04-04T08:24:21Z</time></trkpt><trkpt lat="42.98058929056164" lon="12.676219996617135"><ele>222.5</ele><time>2026-04-04T08:24:22Z</time></trkpt><trkpt lat="42.98038907446636" lon="12.676491614653449"><ele>223.0</ele><time>2026-04-04T08:24:23Z</time></trkpt><trkpt lat="42.98019296131137" lon="12.676765745377214"><ele>222.0</ele><time>2026-04-04T08:24:24Z</time></trkpt><trkpt lat="42.98000095480413" lon="12.677045491001424"><ele>221.0</ele><time>2026-04-04T08:24:25Z</time></trkpt><trkpt lat="42.97981825443868" lon="12.677343938578707"><ele>221.0</ele><time>2026-04-04T08:24:26Z</time></trkpt><trkpt lat="42.97964466470004" lon="12.677649263714606"><ele>221.0</ele><time>2026-04-04T08:24:27Z</time></trkpt><trkpt lat="42.979481557389256" lon="12.677963511756975"><ele>221.5</ele><time>2026-04-04T08:24:28Z</time></trkpt><trkpt lat="42.979321637721725" lon="12.678282487777945"><ele>222.0</ele><time>2026-04-04T08:24:29Z</time></trkpt><trkpt lat="42.97916729410798" lon="12.678603014282645"><ele>222.0</ele><time>2026-04-04T08:24:30Z</time></trkpt><trkpt lat="42.97901413007377" lon="12.67892819935141"><ele>222.0</ele><time>2026-04-04T08:24:31Z</time></trkpt><trkpt lat="42.97885916683257" lon="12.679256403012424"><ele>223.5</ele><time>2026-04-04T08:24:32Z</time></trkpt><trkpt lat="42.97870322528302" lon="12.679581527476174"><ele>225.0</ele><time>2026-04-04T08:24:33Z</time></trkpt><trkpt lat="42.97854333706742" lon="12.67990744342689"><ele>225.0</ele><time>2026-04-04T08:24:34Z</time></trkpt><trkpt lat="42.978375412951" lon="12.680229911718342"><ele>225.0</ele><time>2026-04-04T08:24:35Z</time></trkpt><trkpt lat="42.97821572862789" lon="12.680548353884733"><ele>224.5</ele><time>2026-04-04T08:24:36Z</time></trkpt><trkpt lat="42.97806826711975" lon="12.680881621894075"><ele>224.0</ele><time>2026-04-04T08:24:37Z</time></trkpt><trkpt lat="42.97791598968831" lon="12.68119878679547"><ele>224.0</ele><time>2026-04-04T08:24:38Z</time></trkpt><trkpt lat="42.977765526403175" lon="12.681521009645238"><ele>224.0</ele><time>2026-04-04T08:24:39Z</time></trkpt><trkpt lat="42.97760923185831" lon="12.681851373494723"><ele>224.5</ele><time>2026-04-04T08:24:40Z</time></trkpt><trkpt lat="42.9774625309028" lon="12.682178504739385"><ele>225.0</ele><time>2026-04-04T08:24:41Z</time></trkpt><trkpt lat="42.97730974837926" lon="12.682501443821701"><ele>226.0</ele><time>2026-04-04T08:24:42Z</time></trkpt><trkpt lat="42.97716599629733" lon="12.68281131356635"><ele>227.0</ele><time>2026-04-04T08:24:43Z</time></trkpt><trkpt lat="42.97703228979085" lon="12.683098529185202"><ele>227.0</ele><time>2026-04-04T08:24:44Z</time></trkpt><trkpt lat="42.97690436705021" lon="12.683385696329996"><ele>227.0</ele><time>2026-04-04T08:24:45Z</time></trkpt><trkpt lat="42.976779273567324" lon="12.68369952639423"><ele>226.5</ele><time>2026-04-04T08:24:46Z</time></trkpt><trkpt lat="42.976649469026206" lon="12.6840151465159"><ele>226.0</ele><time>2026-04-04T08:24:47Z</time></trkpt><trkpt lat="42.97650416658343" lon="12.684321806094433"><ele>227.0</ele><time>2026-04-04T08:24:48Z</time></trkpt><trkpt lat="42.97635389256727" lon="12.684630349468547"><ele>228.0</ele><time>2026-04-04T08:24:49Z</time></trkpt><trkpt lat="42.97619022481825" lon="12.684938172054904"><ele>228.0</ele><time>2026-04-04T08:24:50Z</time></trkpt><trkpt lat="42.97603035558832" lon="12.685252898709335"><ele>228.0</ele><time>2026-04-04T08:24:51Z</time></trkpt><trkpt lat="42.975877634886345" lon="12.685579585098795"><ele>227.0</ele><time>2026-04-04T08:24:52Z</time></trkpt><trkpt lat="42.97572890945201" lon="12.685911792730808"><ele>226.0</ele><time>2026-04-04T08:24:53Z</time></trkpt><trkpt lat="42.97558206827208" lon="12.686256383572948"><ele>226.0</ele><time>2026-04-04T08:24:54Z</time></trkpt><trkpt lat="42.97543698751897" lon="12.68659230814991"><ele>226.0</ele><time>2026-04-04T08:24:55Z</time></trkpt><trkpt lat="42.97528842157524" lon="12.686928071330133"><ele>227.0</ele><time>2026-04-04T08:24:56Z</time></trkpt><trkpt lat="42.97513697626789" lon="12.687268961420795"><ele>228.0</ele><time>2026-04-04T08:24:57Z</time></trkpt><trkpt lat="42.974983888088936" lon="12.687604732023773"><ele>229.0</ele><time>2026-04-04T08:24:58Z</time></trkpt><trkpt lat="42.97482714762112" lon="12.687943771175972"><ele>230.0</ele><time>2026-04-04T08:24:59Z</time></trkpt><trkpt lat="42.97466784156499" lon="12.688279444883777"><ele>231.0</ele><time>2026-04-04T08:25:00Z</time></trkpt><trkpt lat="42.974506110984734" lon="12.688615381276291"><ele>232.0</ele><time>2026-04-04T08:25:01Z</time></trkpt><trkpt lat="42.97434814586697" lon="12.688955812099518"><ele>232.0</ele><time>2026-04-04T08:25:02Z</time></trkpt><trkpt lat="42.9741917136661" lon="12.689298843018202"><ele>232.0</ele><time>2026-04-04T08:25:03Z</time></trkpt><trkpt lat="42.97403124397519" lon="12.689634921699193"><ele>233.5</ele><time>2026-04-04T08:25:04Z</time></trkpt><trkpt lat="42.97386571496116" lon="12.689969216390116"><ele>235.0</ele><time>2026-04-04T08:25:05Z</time></trkpt><trkpt lat="42.97369749195952" lon="12.690302660646823"><ele>236.5</ele><time>2026-04-04T08:25:06Z</time></trkpt><trkpt lat="42.9735351838278" lon="12.690635856223698"><ele>238.0</ele><time>2026-04-04T08:25:07Z</time></trkpt><trkpt lat="42.97338265675724" lon="12.690973310978112"><ele>236.0</ele><time>2026-04-04T08:25:08Z</time></trkpt><trkpt lat="42.97323216234363" lon="12.691314352820454"><ele>234.0</ele><time>2026-04-04T08:25:09Z</time></trkpt><trkpt lat="42.97309030942659" lon="12.691654252971194"><ele>234.0</ele><time>2026-04-04T08:25:10Z</time></trkpt><trkpt lat="42.972947298680445" lon="12.691982372802766"><ele>234.0</ele><time>2026-04-04T08:25:11Z</time></trkpt><trkpt lat="42.97280956778862" lon="12.692319013263356"><ele>234.0</ele><time>2026-04-04T08:25:12Z</time></trkpt><trkpt lat="42.972670093432725" lon="12.692652735513022"><ele>234.0</ele><time>2026-04-04T08:25:13Z</time></trkpt><trkpt lat="42.972540025905" lon="12.692995783712853"><ele>234.0</ele><time>2026-04-04T08:25:14Z</time></trkpt><trkpt lat="42.972413202390584" lon="12.693335563288219"><ele>234.0</ele><time>2026-04-04T08:25:15Z</time></trkpt><trkpt lat="42.97229251978863" lon="12.693678923066416"><ele>234.0</ele><time>2026-04-04T08:25:16Z</time></trkpt><trkpt lat="42.97217406286537" lon="12.69402309428968"><ele>234.0</ele><time>2026-04-04T08:25:17Z</time></trkpt><trkpt lat="42.9720568104154" lon="12.694370148994635"><ele>233.5</ele><time>2026-04-04T08:25:18Z</time></trkpt><trkpt lat="42.97193930088896" lon="12.694716082214066"><ele>233.0</ele><time>2026-04-04T08:25:19Z</time></trkpt><trkpt lat="42.971819877210834" lon="12.695058186391657"><ele>233.0</ele><time>2026-04-04T08:25:20Z</time></trkpt><trkpt lat="42.971699803564036" lon="12.695398829057565"><ele>233.0</ele><time>2026-04-04T08:25:21Z</time></trkpt><trkpt lat="42.97157870737866" lon="12.695736085885873"><ele>233.0</ele><time>2026-04-04T08:25:22Z</time></trkpt><trkpt lat="42.971453912734404" lon="12.696071134519329"><ele>233.0</ele><time>2026-04-04T08:25:23Z</time></trkpt><trkpt lat="42.971322871579176" lon="12.696400136526243"><ele>234.5</ele><time>2026-04-04T08:25:24Z</time></trkpt><trkpt lat="42.971189425569925" lon="12.696726008556233"><ele>236.0</ele><time>2026-04-04T08:25:25Z</time></trkpt><trkpt lat="42.97106283743977" lon="12.697057360415966"><ele>236.0</ele><time>2026-04-04T08:25:26Z</time></trkpt><trkpt lat="42.970939932155815" lon="12.69738710116534"><ele>236.0</ele><time>2026-04-04T08:25:27Z</time></trkpt><trkpt lat="42.97081589759615" lon="12.6977194412581"><ele>236.0</ele><time>2026-04-04T08:25:28Z</time></trkpt><trkpt lat="42.97070350275896" lon="12.698055172738046"><ele>236.0</ele><time>2026-04-04T08:25:29Z</time></trkpt><trkpt lat="42.970591719234235" lon="12.69839297296354"><ele>237.0</ele><time>2026-04-04T08:25:30Z</time></trkpt><trkpt lat="42.97048098267996" lon="12.698728012640938"><ele>238.0</ele><time>2026-04-04T08:25:31Z</time></trkpt><trkpt lat="42.97037174504204" lon="12.699064623349654"><ele>238.0</ele><time>2026-04-04T08:25:32Z</time></trkpt><trkpt lat="42.97028258337152" lon="12.69940390264335"><ele>238.0</ele><time>2026-04-04T08:25:33Z</time></trkpt><trkpt lat="42.97021406805894" lon="12.6997613830852"><ele>237.5</ele><time>2026-04-04T08:25:34Z</time></trkpt><trkpt lat="42.970171655519664" lon="12.7001259469556"><ele>237.0</ele><time>2026-04-04T08:25:35Z</time></trkpt><trkpt lat="42.97014912679836" lon="12.70049512111565"><ele>237.0</ele><time>2026-04-04T08:25:36Z</time></trkpt><trkpt lat="42.970156384063856" lon="12.700870400148975"><ele>237.0</ele><time>2026-04-04T08:25:37Z</time></trkpt><trkpt lat="42.97020303488817" lon="12.701245173750374"><ele>237.0</ele><time>2026-04-04T08:25:38Z</time></trkpt><trkpt lat="42.97025754145175" lon="12.701619368527554"><ele>237.0</ele><time>2026-04-04T08:25:39Z</time></trkpt><trkpt lat="42.97033791211085" lon="12.701986017080985"><ele>238.5</ele><time>2026-04-04T08:25:40Z</time></trkpt><trkpt lat="42.97043471918112" lon="12.702346333128185"><ele>240.0</ele><time>2026-04-04T08:25:41Z</time></trkpt><trkpt lat="42.970544413278944" lon="12.702688397598008"><ele>241.5</ele><time>2026-04-04T08:25:42Z</time></trkpt><trkpt lat="42.970690740679714" lon="12.703024724694101"><ele>243.0</ele><time>2026-04-04T08:25:43Z</time></trkpt><trkpt lat="42.97084342353356" lon="12.703357370635384"><ele>245.0</ele><time>2026-04-04T08:25:44Z</time></trkpt><trkpt lat="42.97099727169129" lon="12.703688895491673"><ele>247.0</ele><time>2026-04-04T08:25:45Z</time></trkpt><trkpt lat="42.97114629211485" lon="12.70401844016783"><ele>247.0</ele><time>2026-04-04T08:25:46Z</time></trkpt><trkpt lat="42.97129006934445" lon="12.70436535341365"><ele>247.0</ele><time>2026-04-04T08:25:47Z</time></trkpt><trkpt lat="42.971431251539286" lon="12.704715651570856"><ele>246.5</ele><time>2026-04-04T08:25:48Z</time></trkpt><trkpt lat="42.97156405307166" lon="12.705057508104092"><ele>246.0</ele><time>2026-04-04T08:25:49Z</time></trkpt><trkpt lat="42.9717084957518" lon="12.705399900709773"><ele>247.0</ele><time>2026-04-04T08:25:50Z</time></trkpt><trkpt lat="42.971853077249705" lon="12.705740171326616"><ele>248.0</ele><time>2026-04-04T08:25:51Z</time></trkpt><trkpt lat="42.971997258689186" lon="12.706080439584406"><ele>244.5</ele><time>2026-04-04T08:25:52Z</time></trkpt><trkpt lat="42.972141505912234" lon="12.706408359703028"><ele>241.0</ele><time>2026-04-04T08:25:53Z</time></trkpt><trkpt lat="42.97228560692727" lon="12.706732317330516"><ele>242.0</ele><time>2026-04-04T08:25:54Z</time></trkpt><trkpt lat="42.972429187144435" lon="12.707060714327977"><ele>243.0</ele><time>2026-04-04T08:25:55Z</time></trkpt><trkpt lat="42.97255584347969" lon="12.707416467920538"><ele>243.5</ele><time>2026-04-04T08:25:56Z</time></trkpt><trkpt lat="42.97267188688402" lon="12.707773366002595"><ele>244.0</ele><time>2026-04-04T08:25:57Z</time></trkpt><trkpt lat="42.972781057563644" lon="12.70813724829098"><ele>244.0</ele><time>2026-04-04T08:25:58Z</time></trkpt><trkpt lat="42.97287360385521" lon="12.70850992337362"><ele>244.0</ele><time>2026-04-04T08:25:59Z</time></trkpt><trkpt lat="42.9729640363173" lon="12.708892994742856"><ele>245.5</ele><time>2026-04-04T08:26:00Z</time></trkpt><trkpt lat="42.97302524494971" lon="12.70927603994307"><ele>247.0</ele><time>2026-04-04T08:26:01Z</time></trkpt><trkpt lat="42.97307428498665" lon="12.70965870226526"><ele>247.0</ele><time>2026-04-04T08:26:02Z</time></trkpt><trkpt lat="42.973123285270894" lon="12.710037527463715"><ele>247.0</ele><time>2026-04-04T08:26:03Z</time></trkpt><trkpt lat="42.97317515948292" lon="12.71041388969106"><ele>245.5</ele><time>2026-04-04T08:26:04Z</time></trkpt><trkpt lat="42.97323483059055" lon="12.71075666689198"><ele>244.0</ele><time>2026-04-04T08:26:05Z</time></trkpt><trkpt lat="42.97328354811182" lon="12.711045621050369"><ele>244.66666666666666</ele><time>2026-04-04T08:26:06Z</time></trkpt><trkpt lat="42.97332474044819" lon="12.711317185468292"><ele>245.33333333333331</ele><time>2026-04-04T08:26:07Z</time></trkpt><trkpt lat="42.973368204859135" lon="12.711573989984922"><ele>246.0</ele><time>2026-04-04T08:26:08Z</time></trkpt><trkpt lat="42.973399844722486" lon="12.711788864498768"><ele>246.25</ele><time>2026-04-04T08:26:09Z</time></trkpt><trkpt lat="42.97342529184614" lon="12.711989965596832"><ele>246.5</ele><time>2026-04-04T08:26:10Z</time></trkpt><trkpt lat="42.9734479324037" lon="12.71218027726901"><ele>246.75</ele><time>2026-04-04T08:26:11Z</time></trkpt><trkpt lat="42.973473003097546" lon="12.712363177964383"><ele>247.0</ele><time>2026-04-04T08:26:12Z</time></trkpt><trkpt lat="42.973498359669854" lon="12.712539815070556"><ele>247.0</ele><time>2026-04-04T08:26:13Z</time></trkpt><trkpt lat="42.97352567565175" lon="12.7127235136382"><ele>247.0</ele><time>2026-04-04T08:26:14Z</time></trkpt><trkpt lat="42.97355777409883" lon="12.71291117442473"><ele>247.0</ele><time>2026-04-04T08:26:15Z</time></trkpt><trkpt lat="42.97358685434073" lon="12.713096485837951"><ele>247.0</ele><time>2026-04-04T08:26:16Z</time></trkpt><trkpt lat="42.97361866357057" lon="12.71328905170063"><ele>247.0</ele><time>2026-04-04T08:26:17Z</time></trkpt><trkpt lat="42.97364238589824" lon="12.713484321329835"><ele>247.0</ele><time>2026-04-04T08:26:18Z</time></trkpt><trkpt lat="42.97366135222463" lon="12.71368139277486"><ele>247.0</ele><time>2026-04-04T08:26:19Z</time></trkpt><trkpt lat="42.97366748667308" lon="12.713881506280154"><ele>247.0</ele><time>2026-04-04T08:26:20Z</time></trkpt><trkpt lat="42.97365608978155" lon="12.714076522293833"><ele>246.75</ele><time>2026-04-04T08:26:21Z</time></trkpt><trkpt lat="42.97363302572524" lon="12.714264905348449"><ele>246.5</ele><time>2026-04-04T08:26:22Z</time></trkpt><trkpt lat="42.973595077819695" lon="12.714451295991697"><ele>246.25</ele><time>2026-04-04T08:26:23Z</time></trkpt><trkpt lat="42.97354905093673" lon="12.71463646199787"><ele>246.0</ele><time>2026-04-04T08:26:24Z</time></trkpt><trkpt lat="42.97349236305307" lon="12.714815998623916"><ele>246.0</ele><time>2026-04-04T08:26:25Z</time></trkpt><trkpt lat="42.9734286533136" lon="12.714987747376355"><ele>246.0</ele><time>2026-04-04T08:26:26Z</time></trkpt><trkpt lat="42.97335363411196" lon="12.715144132502468"><ele>246.0</ele><time>2026-04-04T08:26:27Z</time></trkpt><trkpt lat="42.9732690869201" lon="12.715283115350733"><ele>246.0</ele><time>2026-04-04T08:26:28Z</time></trkpt><trkpt lat="42.973179640239394" lon="12.715411319260772"><ele>246.25</ele><time>2026-04-04T08:26:29Z</time></trkpt><trkpt lat="42.97308514967996" lon="12.71552437304315"><ele>246.5</ele><time>2026-04-04T08:26:30Z</time></trkpt><trkpt lat="42.97298373487859" lon="12.7156248584778"><ele>246.75</ele><time>2026-04-04T08:26:31Z</time></trkpt><trkpt lat="42.972876702794544" lon="12.715726876892187"><ele>247.0</ele><time>2026-04-04T08:26:32Z</time></trkpt><trkpt lat="42.972756001495966" lon="12.715816811875278"><ele>247.0</ele><time>2026-04-04T08:26:33Z</time></trkpt><trkpt lat="42.97262933338353" lon="12.71589844813009"><ele>247.0</ele><time>2026-04-04T08:26:34Z</time></trkpt><trkpt lat="42.97249365129635" lon="12.715977559277146"><ele>247.0</ele><time>2026-04-04T08:26:35Z</time></trkpt><trkpt lat="42.972352016292234" lon="12.716053471912575"><ele>247.0</ele><time>2026-04-04T08:26:36Z</time></trkpt><trkpt lat="42.97220651816746" lon="12.716137079773945"><ele>246.0</ele><time>2026-04-04T08:26:37Z</time></trkpt><trkpt lat="42.97204826714726" lon="12.716235477829585"><ele>245.0</ele><time>2026-04-04T08:26:38Z</time></trkpt><trkpt lat="42.97186222808487" lon="12.716350281942484"><ele>244.0</ele><time>2026-04-04T08:26:39Z</time></trkpt><trkpt lat="42.97165770900889" lon="12.7164589014543"><ele>244.0</ele><time>2026-04-04T08:26:40Z</time></trkpt><trkpt lat="42.97142307185681" lon="12.71657655335211"><ele>244.0</ele><time>2026-04-04T08:26:41Z</time></trkpt><trkpt lat="42.971158325192256" lon="12.716703754351888"><ele>244.0</ele><time>2026-04-04T08:26:42Z</time></trkpt><trkpt lat="42.97087678942209" lon="12.716842578770551"><ele>244.0</ele><time>2026-04-04T08:26:43Z</time></trkpt><trkpt lat="42.9706084074887" lon="12.716971927190317"><ele>244.0</ele><time>2026-04-04T08:26:44Z</time></trkpt><trkpt lat="42.970326976744936" lon="12.71711360324492"><ele>244.0</ele><time>2026-04-04T08:26:45Z</time></trkpt><trkpt lat="42.97005189756714" lon="12.71724421485921"><ele>245.0</ele><time>2026-04-04T08:26:46Z</time></trkpt><trkpt lat="42.969788635163965" lon="12.717371458310163"><ele>246.0</ele><time>2026-04-04T08:26:47Z</time></trkpt><trkpt lat="42.96954469825355" lon="12.717487865422733"><ele>246.0</ele><time>2026-04-04T08:26:48Z</time></trkpt><trkpt lat="42.96929635807563" lon="12.717610477439527"><ele>246.0</ele><time>2026-04-04T08:26:49Z</time></trkpt><trkpt lat="42.9690490220037" lon="12.71773108580673"><ele>244.5</ele><time>2026-04-04T08:26:50Z</time></trkpt><trkpt lat="42.96880285462638" lon="12.717848835482197"><ele>243.0</ele><time>2026-04-04T08:26:51Z</time></trkpt><trkpt lat="42.968557991398896" lon="12.717964405494364"><ele>243.5</ele><time>2026-04-04T08:26:52Z</time></trkpt><trkpt lat="42.96831214941287" lon="12.71807913667958"><ele>244.0</ele><time>2026-04-04T08:26:53Z</time></trkpt><trkpt lat="42.96806556698975" lon="12.718198891415835"><ele>244.0</ele><time>2026-04-04T08:26:54Z</time></trkpt><trkpt lat="42.96781665182479" lon="12.718316585533248"><ele>244.0</ele><time>2026-04-04T08:26:55Z</time></trkpt><trkpt lat="42.967567486104336" lon="12.718435029711754"><ele>244.0</ele><time>2026-04-04T08:26:56Z</time></trkpt><trkpt lat="42.967318643435426" lon="12.718552193513478"><ele>244.0</ele><time>2026-04-04T08:26:57Z</time></trkpt><trkpt lat="42.96706858110878" lon="12.718666588803643"><ele>244.5</ele><time>2026-04-04T08:26:58Z</time></trkpt><trkpt lat="42.966819484619144" lon="12.718784211853876"><ele>245.0</ele><time>2026-04-04T08:26:59Z</time></trkpt><trkpt lat="42.96656965965486" lon="12.718907148303824"><ele>246.0</ele><time>2026-04-04T08:27:00Z</time></trkpt><trkpt lat="42.96632094720359" lon="12.719035080885616"><ele>247.0</ele><time>2026-04-04T08:27:01Z</time></trkpt><trkpt lat="42.96607264198596" lon="12.719154505522061"><ele>246.0</ele><time>2026-04-04T08:27:02Z</time></trkpt><trkpt lat="42.96581401567166" lon="12.719285197796198"><ele>245.0</ele><time>2026-04-04T08:27:03Z</time></trkpt><trkpt lat="42.96556929550851" lon="12.719398541363477"><ele>245.0</ele><time>2026-04-04T08:27:04Z</time></trkpt><trkpt lat="42.96532419235905" lon="12.719516656170201"><ele>245.0</ele><time>2026-04-04T08:27:05Z</time></trkpt><trkpt lat="42.965076688115865" lon="12.71963634306537"><ele>246.0</ele><time>2026-04-04T08:27:06Z</time></trkpt><trkpt lat="42.96483034960146" lon="12.719750348741092"><ele>247.0</ele><time>2026-04-04T08:27:07Z</time></trkpt><trkpt lat="42.964578663307776" lon="12.719868911559605"><ele>247.0</ele><time>2026-04-04T08:27:08Z</time></trkpt><trkpt lat="42.96432028817458" lon="12.719990489573574"><ele>247.0</ele><time>2026-04-04T08:27:09Z</time></trkpt><trkpt lat="42.96405777642366" lon="12.720109924373055"><ele>247.0</ele><time>2026-04-04T08:27:10Z</time></trkpt><trkpt lat="42.96379454262288" lon="12.720227744938775"><ele>247.0</ele><time>2026-04-04T08:27:11Z</time></trkpt><trkpt lat="42.96352784013843" lon="12.720354035542629"><ele>247.5</ele><time>2026-04-04T08:27:12Z</time></trkpt><trkpt lat="42.963266604495786" lon="12.720477232301288"><ele>248.0</ele><time>2026-04-04T08:27:13Z</time></trkpt><trkpt lat="42.96299948295897" lon="12.720595980500574"><ele>248.0</ele><time>2026-04-04T08:27:14Z</time></trkpt><trkpt lat="42.9627329541485" lon="12.720703098355974"><ele>248.0</ele><time>2026-04-04T08:27:15Z</time></trkpt><trkpt lat="42.962458345970774" lon="12.720808598629063"><ele>248.0</ele><time>2026-04-04T08:27:16Z</time></trkpt><trkpt lat="42.96218217990428" lon="12.720904723596712"><ele>248.0</ele><time>2026-04-04T08:27:17Z</time></trkpt><trkpt lat="42.96190771158283" lon="12.720997474365639"><ele>250.0</ele><time>2026-04-04T08:27:18Z</time></trkpt><trkpt lat="42.96163188221788" lon="12.721076917107652"><ele>252.0</ele><time>2026-04-04T08:27:19Z</time></trkpt><trkpt lat="42.961354040483684" lon="12.721144622516123"><ele>252.0</ele><time>2026-04-04T08:27:20Z</time></trkpt><trkpt lat="42.96107492402186" lon="12.721207069031356"><ele>252.0</ele><time>2026-04-04T08:27:21Z</time></trkpt><trkpt lat="42.960796120269876" lon="12.721265911465986"><ele>255.5</ele><time>2026-04-04T08:27:22Z</time></trkpt><trkpt lat="42.96051244987094" lon="12.721309133201961"><ele>259.0</ele><time>2026-04-04T08:27:23Z</time></trkpt><trkpt lat="42.960244659529835" lon="12.721368881970571"><ele>261.5</ele><time>2026-04-04T08:27:24Z</time></trkpt><trkpt lat="42.95998617267857" lon="12.721390352407932"><ele>264.0</ele><time>2026-04-04T08:27:25Z</time></trkpt><trkpt lat="42.95972098475609" lon="12.721453908018642"><ele>264.0</ele><time>2026-04-04T08:27:26Z</time></trkpt><trkpt lat="42.95946155257441" lon="12.721494531825735"><ele>264.0</ele><time>2026-04-04T08:27:27Z</time></trkpt><trkpt lat="42.95920684800274" lon="12.721534290527574"><ele>264.5</ele><time>2026-04-04T08:27:28Z</time></trkpt><trkpt lat="42.95894366134207" lon="12.721583627109249"><ele>265.0</ele><time>2026-04-04T08:27:29Z</time></trkpt><trkpt lat="42.958678075460185" lon="12.72162820198887"><ele>265.0</ele><time>2026-04-04T08:27:30Z</time></trkpt><trkpt lat="42.958393350140064" lon="12.721685619271565"><ele>265.0</ele><time>2026-04-04T08:27:31Z</time></trkpt><trkpt lat="42.95810415070126" lon="12.721743404703542"><ele>266.0</ele><time>2026-04-04T08:27:32Z</time></trkpt><trkpt lat="42.95780210098846" lon="12.721830299363594"><ele>267.0</ele><time>2026-04-04T08:27:33Z</time></trkpt><trkpt lat="42.957516139672165" lon="12.721860892541093"><ele>268.5</ele><time>2026-04-04T08:27:34Z</time></trkpt><trkpt lat="42.95718256240343" lon="12.721915819463334"><ele>270.0</ele><time>2026-04-04T08:27:35Z</time></trkpt><trkpt lat="42.95685879705863" lon="12.72197420530608"><ele>270.5</ele><time>2026-04-04T08:27:36Z</time></trkpt><trkpt lat="42.9565334272815" lon="12.72204143812368"><ele>271.0</ele><time>2026-04-04T08:27:37Z</time></trkpt><trkpt lat="42.95620703105743" lon="12.722100120804614"><ele>271.0</ele><time>2026-04-04T08:27:38Z</time></trkpt><trkpt lat="42.95587829931969" lon="12.722154235419127"><ele>271.0</ele><time>2026-04-04T08:27:39Z</time></trkpt><trkpt lat="42.95554586669537" lon="12.722217482500842"><ele>272.0</ele><time>2026-04-04T08:27:40Z</time></trkpt><trkpt lat="42.955210861605266" lon="12.72226304845544"><ele>273.0</ele><time>2026-04-04T08:27:41Z</time></trkpt><trkpt lat="42.95487378029905" lon="12.722291966037172"><ele>274.0</ele><time>2026-04-04T08:27:42Z</time></trkpt><trkpt lat="42.95454610999056" lon="12.722292899119102"><ele>275.0</ele><time>2026-04-04T08:27:43Z</time></trkpt><trkpt lat="42.95420070028158" lon="12.72230405301654"><ele>275.0</ele><time>2026-04-04T08:27:44Z</time></trkpt><trkpt lat="42.95386423945163" lon="12.722326450021468"><ele>275.0</ele><time>2026-04-04T08:27:45Z</time></trkpt><trkpt lat="42.95354776239613" lon="12.722342446524639"><ele>274.5</ele><time>2026-04-04T08:27:46Z</time></trkpt><trkpt lat="42.95323494542792" lon="12.722359404535801"><ele>274.0</ele><time>2026-04-04T08:27:47Z</time></trkpt><trkpt lat="42.95292114024219" lon="12.722346901194303"><ele>274.0</ele><time>2026-04-04T08:27:48Z</time></trkpt><trkpt lat="42.952587507816936" lon="12.722348745212743"><ele>274.0</ele><time>2026-04-04T08:27:49Z</time></trkpt><trkpt lat="42.95226084583922" lon="12.722346286403605"><ele>274.5</ele><time>2026-04-04T08:27:50Z</time></trkpt><trkpt lat="42.951939677951124" lon="12.72233030813124"><ele>275.0</ele><time>2026-04-04T08:27:51Z</time></trkpt><trkpt lat="42.95161367208693" lon="12.722312142196431"><ele>276.5</ele><time>2026-04-04T08:27:52Z</time></trkpt><trkpt lat="42.951289149283035" lon="12.722291312914694"><ele>278.0</ele><time>2026-04-04T08:27:53Z</time></trkpt><trkpt lat="42.95096400421762" lon="12.722271039247609"><ele>274.0</ele><time>2026-04-04T08:27:54Z</time></trkpt><trkpt lat="42.95063873842589" lon="12.722252235392483"><ele>270.0</ele><time>2026-04-04T08:27:55Z</time></trkpt><trkpt lat="42.95031400668128" lon="12.722234014228677"><ele>269.5</ele><time>2026-04-04T08:27:56Z</time></trkpt><trkpt lat="42.94999011243926" lon="12.722214213658182"><ele>269.0</ele><time>2026-04-04T08:27:57Z</time></trkpt><trkpt lat="42.94966286224018" lon="12.722206853528137"><ele>269.0</ele><time>2026-04-04T08:27:58Z</time></trkpt><trkpt lat="42.949340903475" lon="12.722183000116669"><ele>269.0</ele><time>2026-04-04T08:27:59Z</time></trkpt><trkpt lat="42.94902283028003" lon="12.722172868383087"><ele>268.5</ele><time>2026-04-04T08:28:00Z</time></trkpt><trkpt lat="42.94869053468104" lon="12.72218822487355"><ele>268.0</ele><time>2026-04-04T08:28:01Z</time></trkpt><trkpt lat="42.94837135480878" lon="12.722202840669343"><ele>267.5</ele><time>2026-04-04T08:28:02Z</time></trkpt><trkpt lat="42.94805156965374" lon="12.722222632336697"><ele>267.0</ele><time>2026-04-04T08:28:03Z</time></trkpt><trkpt lat="42.94773198317149" lon="12.722253854881163"><ele>266.5</ele><time>2026-04-04T08:28:04Z</time></trkpt><trkpt lat="42.94741459530742" lon="12.722279376910087"><ele>266.0</ele><time>2026-04-04T08:28:05Z</time></trkpt><trkpt lat="42.947099633696965" lon="12.722300447459881"><ele>266.0</ele><time>2026-04-04T08:28:06Z</time></trkpt><trkpt lat="42.946784321894356" lon="12.72232934715939"><ele>266.0</ele><time>2026-04-04T08:28:07Z</time></trkpt><trkpt lat="42.946469694283564" lon="12.722354494246328"><ele>265.0</ele><time>2026-04-04T08:28:08Z</time></trkpt><trkpt lat="42.94615526355444" lon="12.722381267706549"><ele>264.0</ele><time>2026-04-04T08:28:09Z</time></trkpt><trkpt lat="42.945838424030754" lon="12.722412057696152"><ele>261.5</ele><time>2026-04-04T08:28:10Z</time></trkpt><trkpt lat="42.94552171422499" lon="12.722441998632409"><ele>259.0</ele><time>2026-04-04T08:28:11Z</time></trkpt><trkpt lat="42.945195878345594" lon="12.72247772535871"><ele>259.5</ele><time>2026-04-04T08:28:12Z</time></trkpt><trkpt lat="42.94487019881499" lon="12.72250518765867"><ele>260.0</ele><time>2026-04-04T08:28:13Z</time></trkpt><trkpt lat="42.94454111088662" lon="12.722526437218452"><ele>259.5</ele><time>2026-04-04T08:28:14Z</time></trkpt><trkpt lat="42.94420857149602" lon="12.722548055684726"><ele>259.0</ele><time>2026-04-04T08:28:15Z</time></trkpt><trkpt lat="42.943876200776955" lon="12.72256624103831"><ele>259.0</ele><time>2026-04-04T08:28:16Z</time></trkpt><trkpt lat="42.943544680472755" lon="12.722576170929978"><ele>259.0</ele><time>2026-04-04T08:28:17Z</time></trkpt><trkpt lat="42.94320797407846" lon="12.722591435953456"><ele>258.0</ele><time>2026-04-04T08:28:18Z</time></trkpt><trkpt lat="42.942872315735876" lon="12.722562582398108"><ele>257.0</ele><time>2026-04-04T08:28:19Z</time></trkpt><trkpt lat="42.94253592054257" lon="12.722590814750188"><ele>256.0</ele><time>2026-04-04T08:28:20Z</time></trkpt><trkpt lat="42.942202076676956" lon="12.722587225058096"><ele>255.0</ele><time>2026-04-04T08:28:21Z</time></trkpt><trkpt lat="42.94186951270453" lon="12.722576444284991"><ele>255.5</ele><time>2026-04-04T08:28:22Z</time></trkpt><trkpt lat="42.94153386468848" lon="12.72257540715769"><ele>256.0</ele><time>2026-04-04T08:28:23Z</time></trkpt><trkpt lat="42.94120353900902" lon="12.722565969552056"><ele>254.0</ele><time>2026-04-04T08:28:24Z</time></trkpt><trkpt lat="42.940868792227405" lon="12.722560408412509"><ele>252.0</ele><time>2026-04-04T08:28:25Z</time></trkpt><trkpt lat="42.9405414961333" lon="12.722551464229156"><ele>252.0</ele><time>2026-04-04T08:28:26Z</time></trkpt><trkpt lat="42.940212718357934" lon="12.722531280239869"><ele>252.0</ele><time>2026-04-04T08:28:27Z</time></trkpt><trkpt lat="42.939886192543455" lon="12.722511838653872"><ele>251.0</ele><time>2026-04-04T08:28:28Z</time></trkpt><trkpt lat="42.93955930738929" lon="12.722510007488044"><ele>250.0</ele><time>2026-04-04T08:28:29Z</time></trkpt><trkpt lat="42.93923207932431" lon="12.722542682219007"><ele>249.0</ele><time>2026-04-04T08:28:30Z</time></trkpt><trkpt lat="42.938910334097" lon="12.722606708326904"><ele>248.0</ele><time>2026-04-04T08:28:31Z</time></trkpt><trkpt lat="42.9385931661147" lon="12.722692635377"><ele>248.0</ele><time>2026-04-04T08:28:32Z</time></trkpt><trkpt lat="42.93828271828587" lon="12.722800191825298"><ele>248.0</ele><time>2026-04-04T08:28:33Z</time></trkpt><trkpt lat="42.937975870359445" lon="12.722915424740016"><ele>248.0</ele><time>2026-04-04T08:28:34Z</time></trkpt><trkpt lat="42.937669720473224" lon="12.7230568233294"><ele>248.0</ele><time>2026-04-04T08:28:35Z</time></trkpt><trkpt lat="42.93737139430819" lon="12.723197716851736"><ele>249.5</ele><time>2026-04-04T08:28:36Z</time></trkpt><trkpt lat="42.9370783869512" lon="12.723366339830836"><ele>251.0</ele><time>2026-04-04T08:28:37Z</time></trkpt><trkpt lat="42.936794107193805" lon="12.723558014949793"><ele>252.0</ele><time>2026-04-04T08:28:38Z</time></trkpt><trkpt lat="42.936515687007414" lon="12.723766348017286"><ele>253.0</ele><time>2026-04-04T08:28:39Z</time></trkpt><trkpt lat="42.93624576167098" lon="12.723988019420403"><ele>253.0</ele><time>2026-04-04T08:28:40Z</time></trkpt><trkpt lat="42.9359867402591" lon="12.724216041780767"><ele>253.0</ele><time>2026-04-04T08:28:41Z</time></trkpt><trkpt lat="42.93571546862638" lon="12.724463375012263"><ele>255.5</ele><time>2026-04-04T08:28:42Z</time></trkpt><trkpt lat="42.93544090376254" lon="12.724685309186846"><ele>258.0</ele><time>2026-04-04T08:28:43Z</time></trkpt><trkpt lat="42.93517046298617" lon="12.724914640060803"><ele>260.0</ele><time>2026-04-04T08:28:44Z</time></trkpt><trkpt lat="42.93488316142229" lon="12.725144979049524"><ele>262.0</ele><time>2026-04-04T08:28:45Z</time></trkpt><trkpt lat="42.93461229963924" lon="12.725353322833854"><ele>262.0</ele><time>2026-04-04T08:28:46Z</time></trkpt><trkpt lat="42.93434894052325" lon="12.72559443601703"><ele>262.0</ele><time>2026-04-04T08:28:47Z</time></trkpt><trkpt lat="42.9340774752368" lon="12.725815645340019"><ele>257.5</ele><time>2026-04-04T08:28:48Z</time></trkpt><trkpt lat="42.933806638961435" lon="12.726047461427152"><ele>253.0</ele><time>2026-04-04T08:28:49Z</time></trkpt><trkpt lat="42.933536394152206" lon="12.726271241490496"><ele>246.5</ele><time>2026-04-04T08:28:50Z</time></trkpt><trkpt lat="42.93327432537179" lon="12.726497876821393"><ele>240.0</ele><time>2026-04-04T08:28:51Z</time></trkpt><trkpt lat="42.93299837886855" lon="12.726725253346478"><ele>240.5</ele><time>2026-04-04T08:28:52Z</time></trkpt><trkpt lat="42.932726359992856" lon="12.72694807504876"><ele>241.0</ele><time>2026-04-04T08:28:53Z</time></trkpt><trkpt lat="42.932455503701114" lon="12.727175988576333"><ele>241.0</ele><time>2026-04-04T08:28:54Z</time></trkpt><trkpt lat="42.932185062531765" lon="12.727394128226365"><ele>241.0</ele><time>2026-04-04T08:28:55Z</time></trkpt><trkpt lat="42.93190757610605" lon="12.727604409844705"><ele>241.5</ele><time>2026-04-04T08:28:56Z</time></trkpt><trkpt lat="42.931621417970234" lon="12.727792825811084"><ele>242.0</ele><time>2026-04-04T08:28:57Z</time></trkpt><trkpt lat="42.9313246549173" lon="12.72794275325115"><ele>242.0</ele><time>2026-04-04T08:28:58Z</time></trkpt><trkpt lat="42.931022969508504" lon="12.728062670432223"><ele>242.0</ele><time>2026-04-04T08:28:59Z</time></trkpt><trkpt lat="42.93072226726871" lon="12.72818771327858"><ele>241.0</ele><time>2026-04-04T08:29:00Z</time></trkpt><trkpt lat="42.93041722940356" lon="12.728300782293557"><ele>240.0</ele><time>2026-04-04T08:29:01Z</time></trkpt><trkpt lat="42.93011421282941" lon="12.72839589389191"><ele>238.5</ele><time>2026-04-04T08:29:02Z</time></trkpt><trkpt lat="42.929806551916855" lon="12.72846736186996"><ele>237.0</ele><time>2026-04-04T08:29:03Z</time></trkpt><trkpt lat="42.92949604857909" lon="12.728517482480958"><ele>235.5</ele><time>2026-04-04T08:29:04Z</time></trkpt><trkpt lat="42.92918412644354" lon="12.72855585020988"><ele>234.0</ele><time>2026-04-04T08:29:05Z</time></trkpt><trkpt lat="42.92887116869081" lon="12.728554956467336"><ele>234.0</ele><time>2026-04-04T08:29:06Z</time></trkpt><trkpt lat="42.928552934359516" lon="12.728554660698945"><ele>234.0</ele><time>2026-04-04T08:29:07Z</time></trkpt><trkpt lat="42.92823638055625" lon="12.728522950496053"><ele>233.5</ele><time>2026-04-04T08:29:08Z</time></trkpt><trkpt lat="42.92792289336141" lon="12.728475362801985"><ele>233.0</ele><time>2026-04-04T08:29:09Z</time></trkpt><trkpt lat="42.92761213281231" lon="12.728410943178934"><ele>232.5</ele><time>2026-04-04T08:29:10Z</time></trkpt><trkpt lat="42.92729685716621" lon="12.72835824670704"><ele>232.0</ele><time>2026-04-04T08:29:11Z</time></trkpt><trkpt lat="42.92698571028126" lon="12.728299509577289"><ele>232.0</ele><time>2026-04-04T08:29:12Z</time></trkpt><trkpt lat="42.9266748527616" lon="12.728251704883371"><ele>232.0</ele><time>2026-04-04T08:29:13Z</time></trkpt><trkpt lat="42.92636760336898" lon="12.728210054006547"><ele>232.0</ele><time>2026-04-04T08:29:14Z</time></trkpt><trkpt lat="42.926061363716734" lon="12.72817608515901"><ele>232.0</ele><time>2026-04-04T08:29:15Z</time></trkpt><trkpt lat="42.92575484396628" lon="12.72813916693149"><ele>231.0</ele><time>2026-04-04T08:29:16Z</time></trkpt><trkpt lat="42.92545074295123" lon="12.72808946384537"><ele>230.0</ele><time>2026-04-04T08:29:17Z</time></trkpt><trkpt lat="42.92514988629331" lon="12.728036106902229"><ele>230.0</ele><time>2026-04-04T08:29:18Z</time></trkpt><trkpt lat="42.92485048311748" lon="12.727979425107046"><ele>230.0</ele><time>2026-04-04T08:29:19Z</time></trkpt><trkpt lat="42.92455062973735" lon="12.727921235783718"><ele>230.0</ele><time>2026-04-04T08:29:20Z</time></trkpt><trkpt lat="42.92425345943646" lon="12.727856993905615"><ele>230.0</ele><time>2026-04-04T08:29:21Z</time></trkpt><trkpt lat="42.923960150444685" lon="12.727783583031377"><ele>229.5</ele><time>2026-04-04T08:29:22Z</time></trkpt><trkpt lat="42.923662212575024" lon="12.727729957542577"><ele>229.0</ele><time>2026-04-04T08:29:23Z</time></trkpt><trkpt lat="42.92336561915905" lon="12.727681850013962"><ele>228.0</ele><time>2026-04-04T08:29:24Z</time></trkpt><trkpt lat="42.92308338161128" lon="12.72760498783306"><ele>227.0</ele><time>2026-04-04T08:29:25Z</time></trkpt><trkpt lat="42.922790478155456" lon="12.727559734977456"><ele>226.5</ele><time>2026-04-04T08:29:26Z</time></trkpt><trkpt lat="42.92249568820435" lon="12.727517048105257"><ele>226.0</ele><time>2026-04-04T08:29:27Z</time></trkpt><trkpt lat="42.922205225032734" lon="12.727479618629879"><ele>226.0</ele><time>2026-04-04T08:29:28Z</time></trkpt><trkpt lat="42.92191539777475" lon="12.727454996584278"><ele>226.0</ele><time>2026-04-04T08:29:29Z</time></trkpt><trkpt lat="42.92162682656902" lon="12.727443446702164"><ele>225.0</ele><time>2026-04-04T08:29:30Z</time></trkpt><trkpt lat="42.92133582573087" lon="12.727436934220249"><ele>224.0</ele><time>2026-04-04T08:29:31Z</time></trkpt><trkpt lat="42.92104638296541" lon="12.72745161383234"><ele>224.0</ele><time>2026-04-04T08:29:32Z</time></trkpt><trkpt lat="42.92075983382341" lon="12.727473993033632"><ele>224.0</ele><time>2026-04-04T08:29:33Z</time></trkpt><trkpt lat="42.9204726181617" lon="12.72750079164805"><ele>224.0</ele><time>2026-04-04T08:29:34Z</time></trkpt><trkpt lat="42.92018372374754" lon="12.727526948065249"><ele>224.0</ele><time>2026-04-04T08:29:35Z</time></trkpt><trkpt lat="42.91991174230138" lon="12.72759765648259"><ele>223.5</ele><time>2026-04-04T08:29:36Z</time></trkpt><trkpt lat="42.91961926767124" lon="12.727659546896843"><ele>223.0</ele><time>2026-04-04T08:29:37Z</time></trkpt><trkpt lat="42.91933504095856" lon="12.727719512500776"><ele>222.5</ele><time>2026-04-04T08:29:38Z</time></trkpt><trkpt lat="42.919050530940964" lon="12.727778270583215"><ele>222.0</ele><time>2026-04-04T08:29:39Z</time></trkpt><trkpt lat="42.91876789629995" lon="12.727835838073371"><ele>222.0</ele><time>2026-04-04T08:29:40Z</time></trkpt><trkpt lat="42.918485805182264" lon="12.727895616294013"><ele>222.0</ele><time>2026-04-04T08:29:41Z</time></trkpt><trkpt lat="42.91820448437706" lon="12.72795022829124"><ele>223.0</ele><time>2026-04-04T08:29:42Z</time></trkpt><trkpt lat="42.917922409114055" lon="12.728010686422273"><ele>224.0</ele><time>2026-04-04T08:29:43Z</time></trkpt><trkpt lat="42.917640192837474" lon="12.728070672866929"><ele>223.0</ele><time>2026-04-04T08:29:44Z</time></trkpt><trkpt lat="42.91735955739178" lon="12.728135604311527"><ele>222.0</ele><time>2026-04-04T08:29:45Z</time></trkpt><trkpt lat="42.91708023033726" lon="12.728207633894076"><ele>222.0</ele><time>2026-04-04T08:29:46Z</time></trkpt><trkpt lat="42.916799004379" lon="12.728277021530518"><ele>222.0</ele><time>2026-04-04T08:29:47Z</time></trkpt><trkpt lat="42.91651559505399" lon="12.728345704233266"><ele>222.5</ele><time>2026-04-04T08:29:48Z</time></trkpt><trkpt lat="42.91623337425128" lon="12.728408138134933"><ele>223.0</ele><time>2026-04-04T08:29:49Z</time></trkpt><trkpt lat="42.91594900928027" lon="12.72846496172178"><ele>223.0</ele><time>2026-04-04T08:29:50Z</time></trkpt><trkpt lat="42.915662981131554" lon="12.728517573572521"><ele>223.0</ele><time>2026-04-04T08:29:51Z</time></trkpt><trkpt lat="42.91537209479348" lon="12.728568287276854"><ele>223.5</ele><time>2026-04-04T08:29:52Z</time></trkpt><trkpt lat="42.915084952884584" lon="12.728592761862242"><ele>224.0</ele><time>2026-04-04T08:29:53Z</time></trkpt><trkpt lat="42.914793955102276" lon="12.728592931353289"><ele>224.0</ele><time>2026-04-04T08:29:54Z</time></trkpt><trkpt lat="42.91450833600541" lon="12.728569610389004"><ele>224.0</ele><time>2026-04-04T08:29:55Z</time></trkpt><trkpt lat="42.9142188561299" lon="12.7285328218861"><ele>222.5</ele><time>2026-04-04T08:29:56Z</time></trkpt><trkpt lat="42.913961306380905" lon="12.728470958650405"><ele>221.0</ele><time>2026-04-04T08:29:57Z</time></trkpt><trkpt lat="42.913700841021154" lon="12.72839214039531"><ele>222.0</ele><time>2026-04-04T08:29:58Z</time></trkpt><trkpt lat="42.913394093113055" lon="12.728293773201623"><ele>223.0</ele><time>2026-04-04T08:29:59Z</time></trkpt><trkpt lat="42.91310249148408" lon="12.728187347790891"><ele>223.0</ele><time>2026-04-04T08:30:00Z</time></trkpt><trkpt lat="42.91283187165641" lon="12.728046822082232"><ele>223.0</ele><time>2026-04-04T08:30:01Z</time></trkpt><trkpt lat="42.91256487971926" lon="12.727897885325294"><ele>220.0</ele><time>2026-04-04T08:30:02Z</time></trkpt><trkpt lat="42.912298860855756" lon="12.727726669718994"><ele>217.0</ele><time>2026-04-04T08:30:03Z</time></trkpt><trkpt lat="42.91204163703497" lon="12.727540660721454"><ele>217.0</ele><time>2026-04-04T08:30:04Z</time></trkpt><trkpt lat="42.91179330832285" lon="12.727337130498897"><ele>217.0</ele><time>2026-04-04T08:30:05Z</time></trkpt><trkpt lat="42.911563839605925" lon="12.727134225388424"><ele>216.5</ele><time>2026-04-04T08:30:06Z</time></trkpt><trkpt lat="42.91132114323737" lon="12.726896746880872"><ele>216.0</ele><time>2026-04-04T08:30:07Z</time></trkpt><trkpt lat="42.91108451057998" lon="12.726663885345197"><ele>215.5</ele><time>2026-04-04T08:30:08Z</time></trkpt><trkpt lat="42.910861723231044" lon="12.726435523588766"><ele>215.0</ele><time>2026-04-04T08:30:09Z</time></trkpt><trkpt lat="42.91062508529278" lon="12.726199427277852"><ele>214.0</ele><time>2026-04-04T08:30:10Z</time></trkpt><trkpt lat="42.91038997226" lon="12.725970882959157"><ele>213.0</ele><time>2026-04-04T08:30:11Z</time></trkpt><trkpt lat="42.91015434137302" lon="12.725743548630055"><ele>215.0</ele><time>2026-04-04T08:30:12Z</time></trkpt><trkpt lat="42.9099225506237" lon="12.725516633000954"><ele>217.0</ele><time>2026-04-04T08:30:13Z</time></trkpt><trkpt lat="42.90970191601288" lon="12.725303326704788"><ele>215.0</ele><time>2026-04-04T08:30:14Z</time></trkpt><trkpt lat="42.90945176734169" lon="12.725062875635889"><ele>213.0</ele><time>2026-04-04T08:30:15Z</time></trkpt><trkpt lat="42.90921378781224" lon="12.724833579150157"><ele>213.0</ele><time>2026-04-04T08:30:16Z</time></trkpt><trkpt lat="42.90897597142177" lon="12.72460378040303"><ele>213.0</ele><time>2026-04-04T08:30:17Z</time></trkpt><trkpt lat="42.90873849191379" lon="12.724375734604154"><ele>212.5</ele><time>2026-04-04T08:30:18Z</time></trkpt><trkpt lat="42.90850373692074" lon="12.724143482162333"><ele>212.0</ele><time>2026-04-04T08:30:19Z</time></trkpt><trkpt lat="42.9082695649156" lon="12.723910968590308"><ele>211.0</ele><time>2026-04-04T08:30:20Z</time></trkpt><trkpt lat="42.908033151081746" lon="12.723678043417374"><ele>210.0</ele><time>2026-04-04T08:30:21Z</time></trkpt><trkpt lat="42.907795540166006" lon="12.723446782673607"><ele>208.5</ele><time>2026-04-04T08:30:22Z</time></trkpt><trkpt lat="42.90756085199073" lon="12.72321375300606"><ele>207.0</ele><time>2026-04-04T08:30:23Z</time></trkpt><trkpt lat="42.90732306694658" lon="12.722984923950097"><ele>207.0</ele><time>2026-04-04T08:30:24Z</time></trkpt><trkpt lat="42.907080432334126" lon="12.722759272778834"><ele>207.0</ele><time>2026-04-04T08:30:25Z</time></trkpt><trkpt lat="42.90683788088663" lon="12.722543236296026"><ele>207.0</ele><time>2026-04-04T08:30:26Z</time></trkpt><trkpt lat="42.90658864358678" lon="12.72233666028732"><ele>207.0</ele><time>2026-04-04T08:30:27Z</time></trkpt><trkpt lat="42.906336355316114" lon="12.722142250638427"><ele>207.0</ele><time>2026-04-04T08:30:28Z</time></trkpt><trkpt lat="42.90607535069699" lon="12.721954521803909"><ele>207.0</ele><time>2026-04-04T08:30:29Z</time></trkpt><trkpt lat="42.905815712679875" lon="12.721816159666147"><ele>207.5</ele><time>2026-04-04T08:30:30Z</time></trkpt><trkpt lat="42.90555512553737" lon="12.721681923780505"><ele>208.0</ele><time>2026-04-04T08:30:31Z</time></trkpt><trkpt lat="42.905261411237944" lon="12.721511655535986"><ele>208.0</ele><time>2026-04-04T08:30:32Z</time></trkpt><trkpt lat="42.90497687878153" lon="12.721385812042271"><ele>208.0</ele><time>2026-04-04T08:30:33Z</time></trkpt><trkpt lat="42.904696088387155" lon="12.721265006555353"><ele>208.0</ele><time>2026-04-04T08:30:34Z</time></trkpt><trkpt lat="42.90440759690441" lon="12.721154554602172"><ele>208.0</ele><time>2026-04-04T08:30:35Z</time></trkpt><trkpt lat="42.90411569208907" lon="12.721055211075203"><ele>207.5</ele><time>2026-04-04T08:30:36Z</time></trkpt><trkpt lat="42.903819770508626" lon="12.720969293409032"><ele>207.0</ele><time>2026-04-04T08:30:37Z</time></trkpt><trkpt lat="42.90351884133041" lon="12.720897937749449"><ele>206.5</ele><time>2026-04-04T08:30:38Z</time></trkpt><trkpt lat="42.9032182068942" lon="12.720838889253388"><ele>206.0</ele><time>2026-04-04T08:30:39Z</time></trkpt><trkpt lat="42.902916671426134" lon="12.720792759819169"><ele>206.0</ele><time>2026-04-04T08:30:40Z</time></trkpt><trkpt lat="42.902610671086016" lon="12.720757561484957"><ele>206.0</ele><time>2026-04-04T08:30:41Z</time></trkpt><trkpt lat="42.902293375722664" lon="12.720737506524031"><ele>206.5</ele><time>2026-04-04T08:30:42Z</time></trkpt><trkpt lat="42.901997084974525" lon="12.720723854678432"><ele>207.0</ele><time>2026-04-04T08:30:43Z</time></trkpt><trkpt lat="42.901695392675805" lon="12.72070667659649"><ele>207.5</ele><time>2026-04-04T08:30:44Z</time></trkpt><trkpt lat="42.901389007108904" lon="12.720702934213017"><ele>208.0</ele><time>2026-04-04T08:30:45Z</time></trkpt><trkpt lat="42.90108764144491" lon="12.720694441520223"><ele>207.5</ele><time>2026-04-04T08:30:46Z</time></trkpt><trkpt lat="42.90078483704089" lon="12.720693952653324"><ele>207.0</ele><time>2026-04-04T08:30:47Z</time></trkpt><trkpt lat="42.900482532742885" lon="12.720693967548174"><ele>207.0</ele><time>2026-04-04T08:30:48Z</time></trkpt><trkpt lat="42.90018051824903" lon="12.720701023036519"><ele>207.0</ele><time>2026-04-04T08:30:49Z</time></trkpt><trkpt lat="42.89987305877601" lon="12.720716265985207"><ele>207.0</ele><time>2026-04-04T08:30:50Z</time></trkpt><trkpt lat="42.899566313669915" lon="12.720722760235464"><ele>207.0</ele><time>2026-04-04T08:30:51Z</time></trkpt><trkpt lat="42.89925900581562" lon="12.720741619378582"><ele>206.5</ele><time>2026-04-04T08:30:52Z</time></trkpt><trkpt lat="42.898944925031884" lon="12.720776319934815"><ele>206.0</ele><time>2026-04-04T08:30:53Z</time></trkpt><trkpt lat="42.89863646920628" lon="12.72080416000706"><ele>204.5</ele><time>2026-04-04T08:30:54Z</time></trkpt><trkpt lat="42.89832870459418" lon="12.72083710285945"><ele>203.0</ele><time>2026-04-04T08:30:55Z</time></trkpt><trkpt lat="42.89802308830321" lon="12.720877818593822"><ele>203.0</ele><time>2026-04-04T08:30:56Z</time></trkpt><trkpt lat="42.89771807778187" lon="12.720923762878934"><ele>203.0</ele><time>2026-04-04T08:30:57Z</time></trkpt><trkpt lat="42.89741547194619" lon="12.720969041275652"><ele>205.0</ele><time>2026-04-04T08:30:58Z</time></trkpt><trkpt lat="42.89711328731932" lon="12.721009808937088"><ele>207.0</ele><time>2026-04-04T08:30:59Z</time></trkpt><trkpt lat="42.896811070368784" lon="12.72105402325488"><ele>206.5</ele><time>2026-04-04T08:31:00Z</time></trkpt><trkpt lat="42.89651187053031" lon="12.721103813990316"><ele>206.0</ele><time>2026-04-04T08:31:01Z</time></trkpt><trkpt lat="42.896211747622424" lon="12.721161368355467"><ele>206.5</ele><time>2026-04-04T08:31:02Z</time></trkpt><trkpt lat="42.89591166158451" lon="12.721232319545939"><ele>207.0</ele><time>2026-04-04T08:31:03Z</time></trkpt><trkpt lat="42.89561556703595" lon="12.721305835301749"><ele>207.0</ele><time>2026-04-04T08:31:04Z</time></trkpt><trkpt lat="42.895319808068024" lon="12.721387033897194"><ele>207.0</ele><time>2026-04-04T08:31:05Z</time></trkpt><trkpt lat="42.89502616773135" lon="12.721471422511623"><ele>207.0</ele><time>2026-04-04T08:31:06Z</time></trkpt><trkpt lat="42.89473728159455" lon="12.721557754661829"><ele>207.0</ele><time>2026-04-04T08:31:07Z</time></trkpt><trkpt lat="42.8944518562495" lon="12.721654664116512"><ele>206.5</ele><time>2026-04-04T08:31:08Z</time></trkpt><trkpt lat="42.89416188208785" lon="12.721744810603443"><ele>206.0</ele><time>2026-04-04T08:31:09Z</time></trkpt><trkpt lat="42.89387760477865" lon="12.721841461963173"><ele>206.5</ele><time>2026-04-04T08:31:10Z</time></trkpt><trkpt lat="42.89359604719467" lon="12.72194162076364"><ele>207.0</ele><time>2026-04-04T08:31:11Z</time></trkpt><trkpt lat="42.89331602296418" lon="12.722040064016584"><ele>208.0</ele><time>2026-04-04T08:31:12Z</time></trkpt><trkpt lat="42.89303516336554" lon="12.72214650202972"><ele>209.0</ele><time>2026-04-04T08:31:13Z</time></trkpt><trkpt lat="42.89275247974024" lon="12.722254587657895"><ele>207.0</ele><time>2026-04-04T08:31:14Z</time></trkpt><trkpt lat="42.89247180951744" lon="12.722367345918322"><ele>205.0</ele><time>2026-04-04T08:31:15Z</time></trkpt><trkpt lat="42.892196485961335" lon="12.722485871305544"><ele>205.0</ele><time>2026-04-04T08:31:16Z</time></trkpt><trkpt lat="42.89192144199108" lon="12.722608327493536"><ele>205.0</ele><time>2026-04-04T08:31:17Z</time></trkpt><trkpt lat="42.891647178485" lon="12.722738222951444"><ele>205.5</ele><time>2026-04-04T08:31:18Z</time></trkpt><trkpt lat="42.89137401633926" lon="12.722871526249167"><ele>206.0</ele><time>2026-04-04T08:31:19Z</time></trkpt><trkpt lat="42.891103011626406" lon="12.72300775015537"><ele>205.0</ele><time>2026-04-04T08:31:20Z</time></trkpt><trkpt lat="42.8908326690611" lon="12.723144954220956"><ele>204.0</ele><time>2026-04-04T08:31:21Z</time></trkpt><trkpt lat="42.890563499119466" lon="12.723287052627159"><ele>204.0</ele><time>2026-04-04T08:31:22Z</time></trkpt><trkpt lat="42.890299076578614" lon="12.723429287126809"><ele>204.0</ele><time>2026-04-04T08:31:23Z</time></trkpt><trkpt lat="42.89003258310081" lon="12.72357767784491"><ele>205.5</ele><time>2026-04-04T08:31:24Z</time></trkpt><trkpt lat="42.8897611098051" lon="12.723730258711882"><ele>207.0</ele><time>2026-04-04T08:31:25Z</time></trkpt><trkpt lat="42.8894910201781" lon="12.723884146942153"><ele>206.5</ele><time>2026-04-04T08:31:26Z</time></trkpt><trkpt lat="42.88922417742607" lon="12.724039248432597"><ele>206.0</ele><time>2026-04-04T08:31:27Z</time></trkpt><trkpt lat="42.888955384541966" lon="12.724200217284322"><ele>206.0</ele><time>2026-04-04T08:31:28Z</time></trkpt><trkpt lat="42.888689073520936" lon="12.724365947745559"><ele>206.0</ele><time>2026-04-04T08:31:29Z</time></trkpt><trkpt lat="42.88842504061548" lon="12.724531288411791"><ele>206.5</ele><time>2026-04-04T08:31:30Z</time></trkpt><trkpt lat="42.88815923293494" lon="12.724700970501722"><ele>207.0</ele><time>2026-04-04T08:31:31Z</time></trkpt><trkpt lat="42.887893879939796" lon="12.724868438026741"><ele>207.0</ele><time>2026-04-04T08:31:32Z</time></trkpt><trkpt lat="42.887625693051646" lon="12.725033955745213"><ele>207.0</ele><time>2026-04-04T08:31:33Z</time></trkpt><trkpt lat="42.88735610030952" lon="12.725197254831853"><ele>208.0</ele><time>2026-04-04T08:31:34Z</time></trkpt><trkpt lat="42.887087345013676" lon="12.725354517266458"><ele>209.0</ele><time>2026-04-04T08:31:35Z</time></trkpt><trkpt lat="42.88681713706776" lon="12.72551520622455"><ele>208.0</ele><time>2026-04-04T08:31:36Z</time></trkpt><trkpt lat="42.88654781262903" lon="12.725677207571692"><ele>207.0</ele><time>2026-04-04T08:31:37Z</time></trkpt><trkpt lat="42.88628059263732" lon="12.725839235475302"><ele>207.0</ele><time>2026-04-04T08:31:38Z</time></trkpt><trkpt lat="42.886012166569216" lon="12.726003935938513"><ele>207.0</ele><time>2026-04-04T08:31:39Z</time></trkpt><trkpt lat="42.88574632437179" lon="12.726170736059718"><ele>207.0</ele><time>2026-04-04T08:31:40Z</time></trkpt><trkpt lat="42.88547591365007" lon="12.726325388468656"><ele>207.0</ele><time>2026-04-04T08:31:41Z</time></trkpt><trkpt lat="42.88520591123025" lon="12.726483877457456"><ele>207.0</ele><time>2026-04-04T08:31:42Z</time></trkpt><trkpt lat="42.8849400354115" lon="12.726642255078138"><ele>207.0</ele><time>2026-04-04T08:31:43Z</time></trkpt><trkpt lat="42.88467433192628" lon="12.726799908361196"><ele>208.0</ele><time>2026-04-04T08:31:44Z</time></trkpt><trkpt lat="42.8844084043335" lon="12.726957541585788"><ele>209.0</ele><time>2026-04-04T08:31:45Z</time></trkpt><trkpt lat="42.88414185370637" lon="12.727119942665865"><ele>209.0</ele><time>2026-04-04T08:31:46Z</time></trkpt><trkpt lat="42.88387621150631" lon="12.727281295197134"><ele>209.0</ele><time>2026-04-04T08:31:47Z</time></trkpt><trkpt lat="42.88360931126925" lon="12.727440373030014"><ele>209.0</ele><time>2026-04-04T08:31:48Z</time></trkpt><trkpt lat="42.883341443233704" lon="12.727597950764181"><ele>209.0</ele><time>2026-04-04T08:31:49Z</time></trkpt><trkpt lat="42.883075967650356" lon="12.72775769068103"><ele>208.5</ele><time>2026-04-04T08:31:50Z</time></trkpt><trkpt lat="42.88281109471095" lon="12.727917356640827"><ele>208.0</ele><time>2026-04-04T08:31:51Z</time></trkpt><trkpt lat="42.882547406689035" lon="12.728077861144625"><ele>209.0</ele><time>2026-04-04T08:31:52Z</time></trkpt><trkpt lat="42.88228377568131" lon="12.728233116693243"><ele>210.0</ele><time>2026-04-04T08:31:53Z</time></trkpt><trkpt lat="42.8820206649846" lon="12.728379894171054"><ele>209.5</ele><time>2026-04-04T08:31:54Z</time></trkpt><trkpt lat="42.8817577290309" lon="12.728523031518401"><ele>209.0</ele><time>2026-04-04T08:31:55Z</time></trkpt><trkpt lat="42.88149508402053" lon="12.728664818721004"><ele>209.0</ele><time>2026-04-04T08:31:56Z</time></trkpt><trkpt lat="42.88123320024449" lon="12.72881248497826"><ele>209.0</ele><time>2026-04-04T08:31:57Z</time></trkpt><trkpt lat="42.880970827136686" lon="12.728965365712037"><ele>208.0</ele><time>2026-04-04T08:31:58Z</time></trkpt><trkpt lat="42.88071064028096" lon="12.729120996869998"><ele>207.0</ele><time>2026-04-04T08:31:59Z</time></trkpt><trkpt lat="42.880450964676385" lon="12.72927670896852"><ele>207.5</ele><time>2026-04-04T08:32:00Z</time></trkpt><trkpt lat="42.88019248518668" lon="12.729430863000465"><ele>208.0</ele><time>2026-04-04T08:32:01Z</time></trkpt><trkpt lat="42.87993188413516" lon="12.729584842295042"><ele>208.0</ele><time>2026-04-04T08:32:02Z</time></trkpt><trkpt lat="42.87967134611014" lon="12.729735443379136"><ele>208.0</ele><time>2026-04-04T08:32:03Z</time></trkpt><trkpt lat="42.87940902257528" lon="12.729881442320014"><ele>208.0</ele><time>2026-04-04T08:32:04Z</time></trkpt><trkpt lat="42.87914417416976" lon="12.730019996476763"><ele>208.0</ele><time>2026-04-04T08:32:05Z</time></trkpt><trkpt lat="42.878877854322454" lon="12.730142257314187"><ele>208.0</ele><time>2026-04-04T08:32:06Z</time></trkpt><trkpt lat="42.8786065934716" lon="12.730246252185704"><ele>208.0</ele><time>2026-04-04T08:32:07Z</time></trkpt><trkpt lat="42.878333203966896" lon="12.730333428254868"><ele>208.0</ele><time>2026-04-04T08:32:08Z</time></trkpt><trkpt lat="42.878057503191386" lon="12.730400002100964"><ele>208.0</ele><time>2026-04-04T08:32:09Z</time></trkpt><trkpt lat="42.87777983941401" lon="12.730445829365884"><ele>208.0</ele><time>2026-04-04T08:32:10Z</time></trkpt><trkpt lat="42.87750214540736" lon="12.73047126409958"><ele>208.0</ele><time>2026-04-04T08:32:11Z</time></trkpt><trkpt lat="42.87722343405255" lon="12.730488592259327"><ele>208.0</ele><time>2026-04-04T08:32:12Z</time></trkpt><trkpt lat="42.87694288152367" lon="12.730489835605535"><ele>208.0</ele><time>2026-04-04T08:32:13Z</time></trkpt><trkpt lat="42.876665276009895" lon="12.730479933233683"><ele>208.0</ele><time>2026-04-04T08:32:14Z</time></trkpt><trkpt lat="42.87638920316536" lon="12.730452928591735"><ele>208.0</ele><time>2026-04-04T08:32:15Z</time></trkpt><trkpt lat="42.87611359622964" lon="12.730406171492065"><ele>208.5</ele><time>2026-04-04T08:32:16Z</time></trkpt><trkpt lat="42.875838908526" lon="12.730339519868975"><ele>209.0</ele><time>2026-04-04T08:32:17Z</time></trkpt><trkpt lat="42.87556829306199" lon="12.730256928697955"><ele>209.5</ele><time>2026-04-04T08:32:18Z</time></trkpt><trkpt lat="42.87529628794971" lon="12.730160092092065"><ele>210.0</ele><time>2026-04-04T08:32:19Z</time></trkpt><trkpt lat="42.87502721157459" lon="12.730056587525715"><ele>210.0</ele><time>2026-04-04T08:32:20Z</time></trkpt><trkpt lat="42.874758299757865" lon="12.729944148455782"><ele>210.0</ele><time>2026-04-04T08:32:21Z</time></trkpt><trkpt lat="42.87449046389955" lon="12.729831398817431"><ele>211.0</ele><time>2026-04-04T08:32:22Z</time></trkpt><trkpt lat="42.87421901874626" lon="12.729715123912314"><ele>212.0</ele><time>2026-04-04T08:32:23Z</time></trkpt><trkpt lat="42.87394951605885" lon="12.729601997786927"><ele>212.0</ele><time>2026-04-04T08:32:24Z</time></trkpt><trkpt lat="42.87367881101154" lon="12.729485849274885"><ele>212.0</ele><time>2026-04-04T08:32:25Z</time></trkpt><trkpt lat="42.873402392423316" lon="12.729376854058632"><ele>212.0</ele><time>2026-04-04T08:32:26Z</time></trkpt><trkpt lat="42.873123843211275" lon="12.729277950260965"><ele>212.0</ele><time>2026-04-04T08:32:27Z</time></trkpt><trkpt lat="42.872841633427846" lon="12.729202780022542"><ele>212.0</ele><time>2026-04-04T08:32:28Z</time></trkpt><trkpt lat="42.87255039668631" lon="12.729160478915132"><ele>212.0</ele><time>2026-04-04T08:32:29Z</time></trkpt><trkpt lat="42.872253342665886" lon="12.729128390278692"><ele>212.0</ele><time>2026-04-04T08:32:30Z</time></trkpt><trkpt lat="42.87195850571138" lon="12.729107735813074"><ele>212.0</ele><time>2026-04-04T08:32:31Z</time></trkpt><trkpt lat="42.87166710832183" lon="12.729099984782584"><ele>211.5</ele><time>2026-04-04T08:32:32Z</time></trkpt><trkpt lat="42.87137134015718" lon="12.72911673343421"><ele>211.0</ele><time>2026-04-04T08:32:33Z</time></trkpt><trkpt lat="42.87107502381765" lon="12.729159157030061"><ele>212.0</ele><time>2026-04-04T08:32:34Z</time></trkpt><trkpt lat="42.87079218907819" lon="12.729212280833117"><ele>213.0</ele><time>2026-04-04T08:32:35Z</time></trkpt><trkpt lat="42.870507785405096" lon="12.729286784598647"><ele>213.0</ele><time>2026-04-04T08:32:36Z</time></trkpt><trkpt lat="42.87022668581841" lon="12.729375392549532"><ele>213.0</ele><time>2026-04-04T08:32:37Z</time></trkpt><trkpt lat="42.86994190943971" lon="12.72948406562497"><ele>211.5</ele><time>2026-04-04T08:32:38Z</time></trkpt><trkpt lat="42.86966516821599" lon="12.729606480354017"><ele>210.0</ele><time>2026-04-04T08:32:39Z</time></trkpt><trkpt lat="42.869394760129175" lon="12.729740009062635"><ele>211.0</ele><time>2026-04-04T08:32:40Z</time></trkpt><trkpt lat="42.86913301760373" lon="12.729882136479318"><ele>212.0</ele><time>2026-04-04T08:32:41Z</time></trkpt><trkpt lat="42.8688800863253" lon="12.730042045722568"><ele>212.0</ele><time>2026-04-04T08:32:42Z</time></trkpt><trkpt lat="42.868628626586" lon="12.730218626671782"><ele>212.0</ele><time>2026-04-04T08:32:43Z</time></trkpt><trkpt lat="42.868383298014294" lon="12.73040529505952"><ele>212.5</ele><time>2026-04-04T08:32:44Z</time></trkpt><trkpt lat="42.86814243092524" lon="12.730599918142032"><ele>213.0</ele><time>2026-04-04T08:32:45Z</time></trkpt><trkpt lat="42.86790306711915" lon="12.7307979971772"><ele>213.0</ele><time>2026-04-04T08:32:46Z</time></trkpt><trkpt lat="42.86766364472078" lon="12.730993148409814"><ele>213.0</ele><time>2026-04-04T08:32:47Z</time></trkpt><trkpt lat="42.86742230050111" lon="12.731191128536189"><ele>212.5</ele><time>2026-04-04T08:32:48Z</time></trkpt><trkpt lat="42.867180525997085" lon="12.73138854847506"><ele>212.0</ele><time>2026-04-04T08:32:49Z</time></trkpt><trkpt lat="42.86693872736576" lon="12.731584682046128"><ele>212.0</ele><time>2026-04-04T08:32:50Z</time></trkpt><trkpt lat="42.86669654091118" lon="12.73178178217207"><ele>212.0</ele><time>2026-04-04T08:32:51Z</time></trkpt><trkpt lat="42.866455296773054" lon="12.731979016704173"><ele>212.0</ele><time>2026-04-04T08:32:52Z</time></trkpt><trkpt lat="42.8662150679717" lon="12.732182409335497"><ele>212.0</ele><time>2026-04-04T08:32:53Z</time></trkpt><trkpt lat="42.86598134913805" lon="12.732397553914566"><ele>213.0</ele><time>2026-04-04T08:32:54Z</time></trkpt><trkpt lat="42.86575615490313" lon="12.732623248553091"><ele>214.0</ele><time>2026-04-04T08:32:55Z</time></trkpt><trkpt lat="42.8655378672344" lon="12.732861148647162"><ele>214.0</ele><time>2026-04-04T08:32:56Z</time></trkpt><trkpt lat="42.86532375320704" lon="12.733105385576197"><ele>214.0</ele><time>2026-04-04T08:32:57Z</time></trkpt><trkpt lat="42.865116462683375" lon="12.733360268693685"><ele>213.5</ele><time>2026-04-04T08:32:58Z</time></trkpt><trkpt lat="42.86490910222297" lon="12.733617908165002"><ele>213.0</ele><time>2026-04-04T08:32:59Z</time></trkpt><trkpt lat="42.86470482284975" lon="12.733872353695656"><ele>213.0</ele><time>2026-04-04T08:33:00Z</time></trkpt><trkpt lat="42.86449892196409" lon="12.734122221384295"><ele>213.0</ele><time>2026-04-04T08:33:00.999Z</time></trkpt><trkpt lat="42.86429048179548" lon="12.734372689719285"><ele>213.0</ele><time>2026-04-04T08:33:02Z</time></trkpt><trkpt lat="42.86408139812259" lon="12.73462165990261"><ele>213.0</ele><time>2026-04-04T08:33:03Z</time></trkpt><trkpt lat="42.8638697428984" lon="12.734867008025912"><ele>213.0</ele><time>2026-04-04T08:33:04Z</time></trkpt><trkpt lat="42.86365546413261" lon="12.735107845213216"><ele>213.0</ele><time>2026-04-04T08:33:05Z</time></trkpt><trkpt lat="42.86343678870056" lon="12.735344288880595"><ele>212.5</ele><time>2026-04-04T08:33:06Z</time></trkpt><trkpt lat="42.86321252331715" lon="12.735574204073806"><ele>212.0</ele><time>2026-04-04T08:33:07Z</time></trkpt><trkpt lat="42.86298249488627" lon="12.735799392702768"><ele>212.0</ele><time>2026-04-04T08:33:08Z</time></trkpt><trkpt lat="42.86274744531314" lon="12.736017365959002"><ele>212.0</ele><time>2026-04-04T08:33:09Z</time></trkpt><trkpt lat="42.86250648226369" lon="12.736226569924515"><ele>214.0</ele><time>2026-04-04T08:33:10Z</time></trkpt><trkpt lat="42.86226238346818" lon="12.736417364234146"><ele>216.0</ele><time>2026-04-04T08:33:11Z</time></trkpt><trkpt lat="42.862018409751066" lon="12.736601748409932"><ele>215.5</ele><time>2026-04-04T08:33:12Z</time></trkpt><trkpt lat="42.86177956997837" lon="12.736793906201166"><ele>215.0</ele><time>2026-04-04T08:33:13Z</time></trkpt><trkpt lat="42.861540800587306" lon="12.736980081554426"><ele>215.0</ele><time>2026-04-04T08:33:14Z</time></trkpt><trkpt lat="42.8612968867277" lon="12.737154354557672"><ele>215.0</ele><time>2026-04-04T08:33:15Z</time></trkpt><trkpt lat="42.861050151511876" lon="12.737333947107981"><ele>215.0</ele><time>2026-04-04T08:33:16Z</time></trkpt><trkpt lat="42.86080210952185" lon="12.737501072423303"><ele>215.0</ele><time>2026-04-04T08:33:17Z</time></trkpt><trkpt lat="42.860550953014936" lon="12.737665967386253"><ele>215.0</ele><time>2026-04-04T08:33:18Z</time></trkpt><trkpt lat="42.86029859325952" lon="12.73783245632772"><ele>215.0</ele><time>2026-04-04T08:33:19Z</time></trkpt><trkpt lat="42.860047036362026" lon="12.737996468502509"><ele>215.0</ele><time>2026-04-04T08:33:20Z</time></trkpt><trkpt lat="42.85979734587415" lon="12.738156405174472"><ele>215.0</ele><time>2026-04-04T08:33:21Z</time></trkpt><trkpt lat="42.859548987950014" lon="12.738321027080117"><ele>215.0</ele><time>2026-04-04T08:33:22Z</time></trkpt><trkpt lat="42.85929986743984" lon="12.738485076366228"><ele>215.0</ele><time>2026-04-04T08:33:23Z</time></trkpt><trkpt lat="42.85904847246679" lon="12.738649592666174"><ele>215.5</ele><time>2026-04-04T08:33:24Z</time></trkpt><trkpt lat="42.858795742019296" lon="12.738814122572464"><ele>216.0</ele><time>2026-04-04T08:33:25Z</time></trkpt><trkpt lat="42.85854436293928" lon="12.738973244633764"><ele>216.0</ele><time>2026-04-04T08:33:26Z</time></trkpt><trkpt lat="42.8582921863298" lon="12.73913654990973"><ele>216.0</ele><time>2026-04-04T08:33:27Z</time></trkpt><trkpt lat="42.85803646884692" lon="12.739297420514289"><ele>216.0</ele><time>2026-04-04T08:33:28Z</time></trkpt><trkpt lat="42.85778163861904" lon="12.73946036842083"><ele>216.0</ele><time>2026-04-04T08:33:29Z</time></trkpt><trkpt lat="42.85752716831524" lon="12.73963116344661"><ele>216.0</ele><time>2026-04-04T08:33:30Z</time></trkpt><trkpt lat="42.85727366831393" lon="12.739807245024776"><ele>216.0</ele><time>2026-04-04T08:33:31Z</time></trkpt><trkpt lat="42.857023515519685" lon="12.739993641148493"><ele>216.0</ele><time>2026-04-04T08:33:32Z</time></trkpt><trkpt lat="42.856772933521576" lon="12.740185265617482"><ele>216.0</ele><time>2026-04-04T08:33:33Z</time></trkpt><trkpt lat="42.856522548474416" lon="12.740382910209323"><ele>215.5</ele><time>2026-04-04T08:33:34Z</time></trkpt><trkpt lat="42.85627252957261" lon="12.740583045999802"><ele>215.0</ele><time>2026-04-04T08:33:35Z</time></trkpt><trkpt lat="42.856023560498016" lon="12.740786318363995"><ele>216.0</ele><time>2026-04-04T08:33:36Z</time></trkpt><trkpt lat="42.85577818260538" lon="12.740999735144683"><ele>217.0</ele><time>2026-04-04T08:33:37Z</time></trkpt><trkpt lat="42.85553541902838" lon="12.741218789566734"><ele>217.5</ele><time>2026-04-04T08:33:38Z</time></trkpt><trkpt lat="42.85529335062263" lon="12.741445418290951"><ele>218.0</ele><time>2026-04-04T08:33:39Z</time></trkpt><trkpt lat="42.85505265886075" lon="12.741678265678093"><ele>217.5</ele><time>2026-04-04T08:33:40Z</time></trkpt><trkpt lat="42.85481246018852" lon="12.741910226509011"><ele>217.0</ele><time>2026-04-04T08:33:41Z</time></trkpt><trkpt lat="42.85457326238816" lon="12.742141605359075"><ele>217.0</ele><time>2026-04-04T08:33:42Z</time></trkpt><trkpt lat="42.854335583329345" lon="12.742372846790282"><ele>217.0</ele><time>2026-04-04T08:33:43Z</time></trkpt><trkpt lat="42.85410078201381" lon="12.742604332090547"><ele>217.0</ele><time>2026-04-04T08:33:44Z</time></trkpt><trkpt lat="42.853868542079795" lon="12.742837113127552"><ele>217.0</ele><time>2026-04-04T08:33:45Z</time></trkpt><trkpt lat="42.85363624926753" lon="12.74307255474195"><ele>216.5</ele><time>2026-04-04T08:33:46Z</time></trkpt><trkpt lat="42.853404062784186" lon="12.743305653277051"><ele>216.0</ele><time>2026-04-04T08:33:47Z</time></trkpt><trkpt lat="42.853174563652814" lon="12.743540693583105"><ele>217.0</ele><time>2026-04-04T08:33:48Z</time></trkpt><trkpt lat="42.85294846787238" lon="12.743778945161917"><ele>218.0</ele><time>2026-04-04T08:33:49Z</time></trkpt><trkpt lat="42.85272947165629" lon="12.744019859194946"><ele>217.0</ele><time>2026-04-04T08:33:50Z</time></trkpt><trkpt lat="42.852509146787" lon="12.744265302893012"><ele>216.0</ele><time>2026-04-04T08:33:51Z</time></trkpt><trkpt lat="42.85229033073591" lon="12.74450257005754"><ele>216.0</ele><time>2026-04-04T08:33:52Z</time></trkpt><trkpt lat="42.85207580969847" lon="12.744737380390138"><ele>216.0</ele><time>2026-04-04T08:33:53Z</time></trkpt><trkpt lat="42.85185900979132" lon="12.744974776698351"><ele>216.0</ele><time>2026-04-04T08:33:54Z</time></trkpt><trkpt lat="42.8516420781808" lon="12.745210276161973"><ele>216.0</ele><time>2026-04-04T08:33:55Z</time></trkpt><trkpt lat="42.85142075892678" lon="12.74544876737684"><ele>216.0</ele><time>2026-04-04T08:33:56Z</time></trkpt><trkpt lat="42.85120029973674" lon="12.745683436558899"><ele>216.0</ele><time>2026-04-04T08:33:57Z</time></trkpt><trkpt lat="42.850978742762216" lon="12.745901236043958"><ele>216.5</ele><time>2026-04-04T08:33:58Z</time></trkpt><trkpt lat="42.8507520934095" lon="12.746114350177756"><ele>217.0</ele><time>2026-04-04T08:33:59Z</time></trkpt><trkpt lat="42.850518691851086" lon="12.746317313311328"><ele>217.0</ele><time>2026-04-04T08:34:00Z</time></trkpt><trkpt lat="42.85028218781971" lon="12.746509773929299"><ele>217.0</ele><time>2026-04-04T08:34:01Z</time></trkpt><trkpt lat="42.85004139003473" lon="12.746697104841907"><ele>217.0</ele><time>2026-04-04T08:34:02Z</time></trkpt><trkpt lat="42.849798181343594" lon="12.746873645979822"><ele>217.0</ele><time>2026-04-04T08:34:03Z</time></trkpt><trkpt lat="42.84954998073034" lon="12.747045853575349"><ele>216.5</ele><time>2026-04-04T08:34:04Z</time></trkpt><trkpt lat="42.8493018694426" lon="12.747213854672177"><ele>216.0</ele><time>2026-04-04T08:34:05Z</time></trkpt><trkpt lat="42.849053994021816" lon="12.747382156090053"><ele>215.5</ele><time>2026-04-04T08:34:06Z</time></trkpt><trkpt lat="42.84880530142611" lon="12.7475520195988"><ele>215.0</ele><time>2026-04-04T08:34:07Z</time></trkpt><trkpt lat="42.84855545676822" lon="12.747721311198088"><ele>215.5</ele><time>2026-04-04T08:34:08Z</time></trkpt><trkpt lat="42.84830384455372" lon="12.747897915413043"><ele>216.0</ele><time>2026-04-04T08:34:09Z</time></trkpt><trkpt lat="42.84806104953323" lon="12.74807967450771"><ele>216.0</ele><time>2026-04-04T08:34:10Z</time></trkpt><trkpt lat="42.84782378065883" lon="12.748282668270626"><ele>216.0</ele><time>2026-04-04T08:34:11Z</time></trkpt><trkpt lat="42.84758951616883" lon="12.74848979225761"><ele>216.0</ele><time>2026-04-04T08:34:12Z</time></trkpt><trkpt lat="42.8473595176652" lon="12.748706192579979"><ele>216.0</ele><time>2026-04-04T08:34:13Z</time></trkpt><trkpt lat="42.84712988176751" lon="12.748915862045818"><ele>216.0</ele><time>2026-04-04T08:34:14Z</time></trkpt><trkpt lat="42.846901523435044" lon="12.749131630272135"><ele>216.0</ele><time>2026-04-04T08:34:15Z</time></trkpt><trkpt lat="42.84667289824982" lon="12.749345574466785"><ele>215.5</ele><time>2026-04-04T08:34:16Z</time></trkpt><trkpt lat="42.8464455244203" lon="12.749560547697675"><ele>215.0</ele><time>2026-04-04T08:34:17Z</time></trkpt><trkpt lat="42.846214460761864" lon="12.749782030099567"><ele>215.0</ele><time>2026-04-04T08:34:18Z</time></trkpt><trkpt lat="42.84598572467529" lon="12.750003637221049"><ele>215.0</ele><time>2026-04-04T08:34:19Z</time></trkpt><trkpt lat="42.8457613286294" lon="12.750223372110371"><ele>215.5</ele><time>2026-04-04T08:34:20Z</time></trkpt><trkpt lat="42.84552701989916" lon="12.750443641877622"><ele>216.0</ele><time>2026-04-04T08:34:21Z</time></trkpt><trkpt lat="42.845297933538006" lon="12.750660650094902"><ele>216.5</ele><time>2026-04-04T08:34:22Z</time></trkpt><trkpt lat="42.84506714176329" lon="12.750880116464524"><ele>217.0</ele><time>2026-04-04T08:34:23Z</time></trkpt><trkpt lat="42.84483714768229" lon="12.75109720348072"><ele>217.0</ele><time>2026-04-04T08:34:24Z</time></trkpt><trkpt lat="42.84460855023929" lon="12.751315912182253"><ele>217.0</ele><time>2026-04-04T08:34:25Z</time></trkpt><trkpt lat="42.84437495881331" lon="12.751531932078189"><ele>217.0</ele><time>2026-04-04T08:34:26Z</time></trkpt><trkpt lat="42.84413664733217" lon="12.751734521447773"><ele>217.0</ele><time>2026-04-04T08:34:27Z</time></trkpt><trkpt lat="42.84389569112859" lon="12.75193870053297"><ele>217.0</ele><time>2026-04-04T08:34:28Z</time></trkpt><trkpt lat="42.84365197328603" lon="12.752133380990916"><ele>217.0</ele><time>2026-04-04T08:34:29Z</time></trkpt><trkpt lat="42.84340431359479" lon="12.752321553656193"><ele>216.5</ele><time>2026-04-04T08:34:30Z</time></trkpt><trkpt lat="42.843153302658195" lon="12.75249791218436"><ele>216.0</ele><time>2026-04-04T08:34:31Z</time></trkpt><trkpt lat="42.842897897732016" lon="12.752665989200555"><ele>216.5</ele><time>2026-04-04T08:34:32Z</time></trkpt><trkpt lat="42.84263914230451" lon="12.752827441858924"><ele>217.0</ele><time>2026-04-04T08:34:33Z</time></trkpt><trkpt lat="42.842377704496144" lon="12.752987488463718"><ele>217.0</ele><time>2026-04-04T08:34:34Z</time></trkpt><trkpt lat="42.84211434152869" lon="12.753140345133712"><ele>217.0</ele><time>2026-04-04T08:34:35Z</time></trkpt><trkpt lat="42.84184732791248" lon="12.753285112921038"><ele>217.0</ele><time>2026-04-04T08:34:36Z</time></trkpt><trkpt lat="42.8415796579096" lon="12.75341888210308"><ele>217.0</ele><time>2026-04-04T08:34:37Z</time></trkpt><trkpt lat="42.84130899811786" lon="12.753544605840014"><ele>217.0</ele><time>2026-04-04T08:34:38Z</time></trkpt><trkpt lat="42.841038342785794" lon="12.753670128918131"><ele>217.0</ele><time>2026-04-04T08:34:39Z</time></trkpt><trkpt lat="42.84076958726507" lon="12.753796427419362"><ele>217.5</ele><time>2026-04-04T08:34:40Z</time></trkpt><trkpt lat="42.840499900584604" lon="12.753921811411006"><ele>218.0</ele><time>2026-04-04T08:34:41Z</time></trkpt><trkpt lat="42.84023244168595" lon="12.754047751998478"><ele>218.5</ele><time>2026-04-04T08:34:42Z</time></trkpt><trkpt lat="42.83996382762247" lon="12.754169440825738"><ele>219.0</ele><time>2026-04-04T08:34:43Z</time></trkpt><trkpt lat="42.839695110625584" lon="12.754287939722053"><ele>219.0</ele><time>2026-04-04T08:34:44Z</time></trkpt><trkpt lat="42.83942954089053" lon="12.754402838834778"><ele>219.0</ele><time>2026-04-04T08:34:45Z</time></trkpt><trkpt lat="42.83916479781414" lon="12.754516612024947"><ele>219.0</ele><time>2026-04-04T08:34:46Z</time></trkpt><trkpt lat="42.838900972353954" lon="12.754626317051589"><ele>219.0</ele><time>2026-04-04T08:34:47Z</time></trkpt><trkpt lat="42.83864008027698" lon="12.754739696005585"><ele>218.0</ele><time>2026-04-04T08:34:48Z</time></trkpt><trkpt lat="42.83837991209019" lon="12.754862898525362"><ele>217.0</ele><time>2026-04-04T08:34:49Z</time></trkpt><trkpt lat="42.83813076394088" lon="12.754996298014436"><ele>217.0</ele><time>2026-04-04T08:34:50Z</time></trkpt><trkpt lat="42.83788484706679" lon="12.755132600774704"><ele>217.0</ele><time>2026-04-04T08:34:51Z</time></trkpt><trkpt lat="42.83763945578701" lon="12.755281422577145"><ele>218.0</ele><time>2026-04-04T08:34:52Z</time></trkpt><trkpt lat="42.83739742961001" lon="12.755441928701238"><ele>219.0</ele><time>2026-04-04T08:34:53Z</time></trkpt><trkpt lat="42.83715523790814" lon="12.75560230384167"><ele>219.0</ele><time>2026-04-04T08:34:54Z</time></trkpt><trkpt lat="42.83692604412657" lon="12.755767675779534"><ele>219.0</ele><time>2026-04-04T08:34:55Z</time></trkpt><trkpt lat="42.83668743652469" lon="12.755931644687458"><ele>219.0</ele><time>2026-04-04T08:34:56Z</time></trkpt><trkpt lat="42.83644966296771" lon="12.756101189465518"><ele>219.0</ele><time>2026-04-04T08:34:57Z</time></trkpt><trkpt lat="42.83620760289779" lon="12.756273348124587"><ele>219.0</ele><time>2026-04-04T08:34:58Z</time></trkpt><trkpt lat="42.83596102100633" lon="12.756444561124693"><ele>219.0</ele><time>2026-04-04T08:34:59Z</time></trkpt><trkpt lat="42.83571089777767" lon="12.756603518055993"><ele>219.0</ele><time>2026-04-04T08:35:00Z</time></trkpt><trkpt lat="42.835466238814114" lon="12.75677450126628"><ele>219.0</ele><time>2026-04-04T08:35:01Z</time></trkpt><trkpt lat="42.83522423240253" lon="12.756944660054591"><ele>219.5</ele><time>2026-04-04T08:35:02Z</time></trkpt><trkpt lat="42.834983380802406" lon="12.757113062420318"><ele>220.0</ele><time>2026-04-04T08:35:03Z</time></trkpt><trkpt lat="42.83474073890555" lon="12.7572802844729"><ele>220.0</ele><time>2026-04-04T08:35:04Z</time></trkpt><trkpt lat="42.83450003189626" lon="12.75745084347604"><ele>220.0</ele><time>2026-04-04T08:35:05Z</time></trkpt><trkpt lat="42.834259317265044" lon="12.757621145874406"><ele>220.5</ele><time>2026-04-04T08:35:06Z</time></trkpt><trkpt lat="42.83402004682949" lon="12.757791835263246"><ele>221.0</ele><time>2026-04-04T08:35:07Z</time></trkpt><trkpt lat="42.83377702904369" lon="12.757960904602953"><ele>221.0</ele><time>2026-04-04T08:35:08Z</time></trkpt><trkpt lat="42.833534953751524" lon="12.758129217182537"><ele>221.0</ele><time>2026-04-04T08:35:09Z</time></trkpt><trkpt lat="42.83329261572026" lon="12.758291177311156"><ele>221.0</ele><time>2026-04-04T08:35:10Z</time></trkpt><trkpt lat="42.83304816173019" lon="12.758457970867772"><ele>221.0</ele><time>2026-04-04T08:35:11Z</time></trkpt><trkpt lat="42.83280410280242" lon="12.758630999365703"><ele>220.0</ele><time>2026-04-04T08:35:12Z</time></trkpt><trkpt lat="42.83256063670281" lon="12.758802243608624"><ele>219.0</ele><time>2026-04-04T08:35:13Z</time></trkpt><trkpt lat="42.83231825068915" lon="12.758969815132525"><ele>219.0</ele><time>2026-04-04T08:35:14Z</time></trkpt><trkpt lat="42.83207608049262" lon="12.759132902119868"><ele>219.0</ele><time>2026-04-04T08:35:15Z</time></trkpt><trkpt lat="42.83182551839726" lon="12.759295394995148"><ele>220.0</ele><time>2026-04-04T08:35:16Z</time></trkpt><trkpt lat="42.831574314863545" lon="12.759446702383864"><ele>221.0</ele><time>2026-04-04T08:35:17Z</time></trkpt><trkpt lat="42.831317117842644" lon="12.75959662953581"><ele>221.0</ele><time>2026-04-04T08:35:18Z</time></trkpt><trkpt lat="42.831061751184464" lon="12.759729701732981"><ele>221.0</ele><time>2026-04-04T08:35:19Z</time></trkpt><trkpt lat="42.830804059800066" lon="12.75984808238118"><ele>221.0</ele><time>2026-04-04T08:35:20Z</time></trkpt><trkpt lat="42.83054972966619" lon="12.759949966890181"><ele>221.0</ele><time>2026-04-04T08:35:21Z</time></trkpt><trkpt lat="42.83028620814623" lon="12.760051661894202"><ele>221.0</ele><time>2026-04-04T08:35:22Z</time></trkpt><trkpt lat="42.830019943388685" lon="12.760143061956102"><ele>221.0</ele><time>2026-04-04T08:35:23Z</time></trkpt><trkpt lat="42.82974696891345" lon="12.760215860923466"><ele>221.0</ele><time>2026-04-04T08:35:24Z</time></trkpt><trkpt lat="42.82948081946526" lon="12.760276166792645"><ele>221.0</ele><time>2026-04-04T08:35:25Z</time></trkpt><trkpt lat="42.82920906010244" lon="12.760331773267412"><ele>221.5</ele><time>2026-04-04T08:35:26Z</time></trkpt><trkpt lat="42.828937795788235" lon="12.760372622533117"><ele>222.0</ele><time>2026-04-04T08:35:27Z</time></trkpt><trkpt lat="42.82866348410634" lon="12.760406274376894"><ele>222.0</ele><time>2026-04-04T08:35:28Z</time></trkpt><trkpt lat="42.828393075618905" lon="12.760431671132"><ele>222.0</ele><time>2026-04-04T08:35:29Z</time></trkpt><trkpt lat="42.828116942904636" lon="12.760450767253554"><ele>222.0</ele><time>2026-04-04T08:35:30Z</time></trkpt><trkpt lat="42.82784225863483" lon="12.760459928048899"><ele>222.0</ele><time>2026-04-04T08:35:31Z</time></trkpt><trkpt lat="42.82756352425357" lon="12.760461972411367"><ele>223.0</ele><time>2026-04-04T08:35:32Z</time></trkpt><trkpt lat="42.827281787670735" lon="12.760462244520395"><ele>224.0</ele><time>2026-04-04T08:35:33Z</time></trkpt><trkpt lat="42.82699576419105" lon="12.760449908467368"><ele>224.5</ele><time>2026-04-04T08:35:34Z</time></trkpt><trkpt lat="42.826706320292246" lon="12.76043594433234"><ele>225.0</ele><time>2026-04-04T08:35:35Z</time></trkpt><trkpt lat="42.82641656101681" lon="12.760412235446424"><ele>225.0</ele><time>2026-04-04T08:35:36Z</time></trkpt><trkpt lat="42.82614288827958" lon="12.760374494064372"><ele>225.0</ele><time>2026-04-04T08:35:37Z</time></trkpt><trkpt lat="42.82586010041765" lon="12.760334897688711"><ele>224.0</ele><time>2026-04-04T08:35:38Z</time></trkpt><trkpt lat="42.825579500245375" lon="12.76028695031171"><ele>223.0</ele><time>2026-04-04T08:35:39Z</time></trkpt><trkpt lat="42.82530702199786" lon="12.760212489737695"><ele>223.0</ele><time>2026-04-04T08:35:40Z</time></trkpt><trkpt lat="42.82502884200967" lon="12.760129198607428"><ele>223.0</ele><time>2026-04-04T08:35:41Z</time></trkpt><trkpt lat="42.82475946418268" lon="12.76003748465064"><ele>223.0</ele><time>2026-04-04T08:35:42Z</time></trkpt><trkpt lat="42.82448746736943" lon="12.759928187266553"><ele>223.0</ele><time>2026-04-04T08:35:43Z</time></trkpt><trkpt lat="42.82420741722072" lon="12.759822775584388"><ele>222.0</ele><time>2026-04-04T08:35:44Z</time></trkpt><trkpt lat="42.82392876657938" lon="12.759698860538084"><ele>221.0</ele><time>2026-04-04T08:35:45Z</time></trkpt><trkpt lat="42.82364981989548" lon="12.759574213337753"><ele>222.0</ele><time>2026-04-04T08:35:46Z</time></trkpt><trkpt lat="42.82337686469316" lon="12.759434374459717"><ele>223.0</ele><time>2026-04-04T08:35:47Z</time></trkpt><trkpt lat="42.823105095500715" lon="12.75930123243261"><ele>223.5</ele><time>2026-04-04T08:35:48Z</time></trkpt><trkpt lat="42.82283899175728" lon="12.759158541866206"><ele>224.0</ele><time>2026-04-04T08:35:49Z</time></trkpt><trkpt lat="42.822570148403976" lon="12.75901754939335"><ele>224.0</ele><time>2026-04-04T08:35:50Z</time></trkpt><trkpt lat="42.82230675755562" lon="12.75888062924552"><ele>224.0</ele><time>2026-04-04T08:35:51Z</time></trkpt><trkpt lat="42.82203757723422" lon="12.758743642516764"><ele>224.5</ele><time>2026-04-04T08:35:52Z</time></trkpt><trkpt lat="42.82177155569777" lon="12.758610988867144"><ele>225.0</ele><time>2026-04-04T08:35:53Z</time></trkpt><trkpt lat="42.82150674768306" lon="12.758484233266005"><ele>225.0</ele><time>2026-04-04T08:35:54Z</time></trkpt><trkpt lat="42.82123900528712" lon="12.75836705441413"><ele>225.0</ele><time>2026-04-04T08:35:55Z</time></trkpt><trkpt lat="42.820968827713294" lon="12.758257996055853"><ele>225.5</ele><time>2026-04-04T08:35:56Z</time></trkpt><trkpt lat="42.82069574960422" lon="12.758158006125623"><ele>226.0</ele><time>2026-04-04T08:35:57Z</time></trkpt><trkpt lat="42.82041870986235" lon="12.758065259044356"><ele>226.0</ele><time>2026-04-04T08:35:58Z</time></trkpt><trkpt lat="42.82014130913868" lon="12.75798237861571"><ele>226.0</ele><time>2026-04-04T08:35:59Z</time></trkpt><trkpt lat="42.81986511851544" lon="12.757908370257217"><ele>226.0</ele><time>2026-04-04T08:36:00Z</time></trkpt><trkpt lat="42.819586501806306" lon="12.757848799858408"><ele>226.0</ele><time>2026-04-04T08:36:01Z</time></trkpt><trkpt lat="42.81931037841356" lon="12.757793720337158"><ele>226.0</ele><time>2026-04-04T08:36:02Z</time></trkpt><trkpt lat="42.81903247489437" lon="12.757735993799528"><ele>226.0</ele><time>2026-04-04T08:36:03Z</time></trkpt><trkpt lat="42.81875619567334" lon="12.757687503112974"><ele>227.0</ele><time>2026-04-04T08:36:04Z</time></trkpt><trkpt lat="42.81847495421774" lon="12.757661059336394"><ele>228.0</ele><time>2026-04-04T08:36:05Z</time></trkpt><trkpt lat="42.81819467212793" lon="12.757624013667696"><ele>228.0</ele><time>2026-04-04T08:36:06Z</time></trkpt><trkpt lat="42.81791157747593" lon="12.757599039451227"><ele>228.0</ele><time>2026-04-04T08:36:07Z</time></trkpt><trkpt lat="42.81762626748252" lon="12.757580160380126"><ele>228.0</ele><time>2026-04-04T08:36:08Z</time></trkpt><trkpt lat="42.817337031411434" lon="12.757566383838821"><ele>228.0</ele><time>2026-04-04T08:36:09Z</time></trkpt><trkpt lat="42.81705354072757" lon="12.757547117613834"><ele>228.5</ele><time>2026-04-04T08:36:10Z</time></trkpt><trkpt lat="42.81676882821918" lon="12.757535078143375"><ele>229.0</ele><time>2026-04-04T08:36:11Z</time></trkpt><trkpt lat="42.816485185001206" lon="12.757521240430895"><ele>229.0</ele><time>2026-04-04T08:36:12Z</time></trkpt><trkpt lat="42.81620227827064" lon="12.757516348683534"><ele>229.0</ele><time>2026-04-04T08:36:13Z</time></trkpt><trkpt lat="42.815920337852816" lon="12.75750982867727"><ele>230.0</ele><time>2026-04-04T08:36:14Z</time></trkpt><trkpt lat="42.81563635607594" lon="12.757509927551261"><ele>231.0</ele><time>2026-04-04T08:36:15Z</time></trkpt><trkpt lat="42.81534959777357" lon="12.757511602587062"><ele>231.0</ele><time>2026-04-04T08:36:16Z</time></trkpt><trkpt lat="42.815064438094424" lon="12.75751297433377"><ele>231.0</ele><time>2026-04-04T08:36:17Z</time></trkpt><trkpt lat="42.814779259650265" lon="12.757518752791695"><ele>231.0</ele><time>2026-04-04T08:36:18Z</time></trkpt><trkpt lat="42.814494932292945" lon="12.75753047874243"><ele>231.0</ele><time>2026-04-04T08:36:19Z</time></trkpt><trkpt lat="42.814206584053316" lon="12.757541242589195"><ele>231.0</ele><time>2026-04-04T08:36:20Z</time></trkpt><trkpt lat="42.813913996475556" lon="12.75755754395309"><ele>231.0</ele><time>2026-04-04T08:36:21Z</time></trkpt><trkpt lat="42.81361940749887" lon="12.757583064327909"><ele>231.0</ele><time>2026-04-04T08:36:22Z</time></trkpt><trkpt lat="42.813325574182706" lon="12.757609963489363"><ele>231.0</ele><time>2026-04-04T08:36:23Z</time></trkpt><trkpt lat="42.81302862483572" lon="12.757650599086604"><ele>231.0</ele><time>2026-04-04T08:36:24Z</time></trkpt><trkpt lat="42.81273460083805" lon="12.75768349463412"><ele>231.0</ele><time>2026-04-04T08:36:25Z</time></trkpt><trkpt lat="42.81244417839778" lon="12.757723745179295"><ele>233.0</ele><time>2026-04-04T08:36:26Z</time></trkpt><trkpt lat="42.812156607978814" lon="12.75777087713591"><ele>235.0</ele><time>2026-04-04T08:36:27Z</time></trkpt><trkpt lat="42.81186975899275" lon="12.757817756006677"><ele>236.0</ele><time>2026-04-04T08:36:28Z</time></trkpt><trkpt lat="42.81158089883813" lon="12.75787299337292"><ele>237.0</ele><time>2026-04-04T08:36:29Z</time></trkpt><trkpt lat="42.81129724033811" lon="12.757938724832627"><ele>237.0</ele><time>2026-04-04T08:36:30Z</time></trkpt><trkpt lat="42.81101475285915" lon="12.758011790361207"><ele>237.0</ele><time>2026-04-04T08:36:31Z</time></trkpt><trkpt lat="42.81073155467977" lon="12.758101251473875"><ele>238.5</ele><time>2026-04-04T08:36:32Z</time></trkpt><trkpt lat="42.81045684765588" lon="12.758179901462302"><ele>240.0</ele><time>2026-04-04T08:36:33Z</time></trkpt><trkpt lat="42.81018244361708" lon="12.758266316772072"><ele>241.5</ele><time>2026-04-04T08:36:34Z</time></trkpt><trkpt lat="42.80990670782808" lon="12.758360457224315"><ele>243.0</ele><time>2026-04-04T08:36:35Z</time></trkpt><trkpt lat="42.80963644850461" lon="12.758457306270433"><ele>243.5</ele><time>2026-04-04T08:36:36Z</time></trkpt><trkpt lat="42.809366397972255" lon="12.758557188388552"><ele>244.0</ele><time>2026-04-04T08:36:37Z</time></trkpt><trkpt lat="42.80908977464685" lon="12.75865034862922"><ele>245.5</ele><time>2026-04-04T08:36:38Z</time></trkpt><trkpt lat="42.80882039498527" lon="12.75876165965581"><ele>247.0</ele><time>2026-04-04T08:36:39Z</time></trkpt><trkpt lat="42.808554604443614" lon="12.758875589581352"><ele>247.5</ele><time>2026-04-04T08:36:40Z</time></trkpt><trkpt lat="42.80829166385024" lon="12.758994056343187"><ele>248.0</ele><time>2026-04-04T08:36:41Z</time></trkpt><trkpt lat="42.80802490849155" lon="12.759114255818023"><ele>248.0</ele><time>2026-04-04T08:36:42Z</time></trkpt><trkpt lat="42.807762522336" lon="12.759238433807802"><ele>248.0</ele><time>2026-04-04T08:36:43Z</time></trkpt><trkpt lat="42.80749016444493" lon="12.759359598696202"><ele>250.0</ele><time>2026-04-04T08:36:44Z</time></trkpt><trkpt lat="42.807224358393384" lon="12.759479130321305"><ele>252.0</ele><time>2026-04-04T08:36:45Z</time></trkpt><trkpt lat="42.80694848636162" lon="12.759601064224709"><ele>253.5</ele><time>2026-04-04T08:36:46Z</time></trkpt><trkpt lat="42.806674794794525" lon="12.759716754670206"><ele>255.0</ele><time>2026-04-04T08:36:47Z</time></trkpt><trkpt lat="42.80640302583015" lon="12.75981788731128"><ele>255.0</ele><time>2026-04-04T08:36:48Z</time></trkpt><trkpt lat="42.80613257707739" lon="12.759914038151754"><ele>255.0</ele><time>2026-04-04T08:36:49Z</time></trkpt><trkpt lat="42.80585998329953" lon="12.760001889455125"><ele>256.0</ele><time>2026-04-04T08:36:50Z</time></trkpt><trkpt lat="42.805585428221384" lon="12.76008299992171"><ele>257.0</ele><time>2026-04-04T08:36:51Z</time></trkpt><trkpt lat="42.80530735911731" lon="12.760159923039204"><ele>259.0</ele><time>2026-04-04T08:36:52Z</time></trkpt><trkpt lat="42.80502712323739" lon="12.760223756333739"><ele>261.0</ele><time>2026-04-04T08:36:53Z</time></trkpt><trkpt lat="42.8047497301804" lon="12.760276713521089"><ele>261.0</ele><time>2026-04-04T08:36:54Z</time></trkpt><trkpt lat="42.80446864110655" lon="12.760329816532344"><ele>261.0</ele><time>2026-04-04T08:36:55Z</time></trkpt><trkpt lat="42.80418683857864" lon="12.760385395016716"><ele>262.5</ele><time>2026-04-04T08:36:56Z</time></trkpt><trkpt lat="42.803904576975036" lon="12.760434945445164"><ele>264.0</ele><time>2026-04-04T08:36:57Z</time></trkpt><trkpt lat="42.80362370257576" lon="12.760488969633293"><ele>265.0</ele><time>2026-04-04T08:36:58Z</time></trkpt><trkpt lat="42.80334477581591" lon="12.760543633493787"><ele>266.0</ele><time>2026-04-04T08:36:59Z</time></trkpt><trkpt lat="42.80306508039008" lon="12.760600441812732"><ele>266.0</ele><time>2026-04-04T08:37:00Z</time></trkpt><trkpt lat="42.80278957508414" lon="12.76066153716022"><ele>266.0</ele><time>2026-04-04T08:37:01Z</time></trkpt><trkpt lat="42.802512885516066" lon="12.760723209690624"><ele>267.0</ele><time>2026-04-04T08:37:02Z</time></trkpt><trkpt lat="42.80223804500607" lon="12.760791258732388"><ele>268.0</ele><time>2026-04-04T08:37:03Z</time></trkpt><trkpt lat="42.80196574845287" lon="12.760867931268539"><ele>269.0</ele><time>2026-04-04T08:37:04Z</time></trkpt><trkpt lat="42.801693892698" lon="12.760949531512413"><ele>270.0</ele><time>2026-04-04T08:37:05Z</time></trkpt><trkpt lat="42.80142434078948" lon="12.761037391578709"><ele>270.5</ele><time>2026-04-04T08:37:06Z</time></trkpt><trkpt lat="42.801154215010186" lon="12.761127320189411"><ele>271.0</ele><time>2026-04-04T08:37:07Z</time></trkpt><trkpt lat="42.8008906696061" lon="12.76121443693947"><ele>271.5</ele><time>2026-04-04T08:37:08Z</time></trkpt><trkpt lat="42.80062107370691" lon="12.76129651383209"><ele>272.0</ele><time>2026-04-04T08:37:09Z</time></trkpt><trkpt lat="42.80035238318415" lon="12.76137608580522"><ele>271.0</ele><time>2026-04-04T08:37:10Z</time></trkpt><trkpt lat="42.800086378122494" lon="12.761457186372642"><ele>270.0</ele><time>2026-04-04T08:37:11Z</time></trkpt><trkpt lat="42.799822463595206" lon="12.7615391615547"><ele>270.0</ele><time>2026-04-04T08:37:12Z</time></trkpt><trkpt lat="42.7995565413559" lon="12.76163183042574"><ele>270.0</ele><time>2026-04-04T08:37:13Z</time></trkpt><trkpt lat="42.79929150055736" lon="12.76172607590089"><ele>270.0</ele><time>2026-04-04T08:37:14Z</time></trkpt><trkpt lat="42.79902523926954" lon="12.761826667095393"><ele>270.0</ele><time>2026-04-04T08:37:15Z</time></trkpt><trkpt lat="42.79875862216601" lon="12.761933164504486"><ele>273.5</ele><time>2026-04-04T08:37:16Z</time></trkpt><trkpt lat="42.79849330990477" lon="12.762045155753786"><ele>277.0</ele><time>2026-04-04T08:37:17Z</time></trkpt><trkpt lat="42.79822936063716" lon="12.762157743910498"><ele>277.0</ele><time>2026-04-04T08:37:18Z</time></trkpt><trkpt lat="42.797966726090046" lon="12.76226949263593"><ele>277.0</ele><time>2026-04-04T08:37:19Z</time></trkpt><trkpt lat="42.79770258690861" lon="12.762380289897239"><ele>279.0</ele><time>2026-04-04T08:37:20Z</time></trkpt><trkpt lat="42.797439350594516" lon="12.762490652025338"><ele>281.0</ele><time>2026-04-04T08:37:21Z</time></trkpt><trkpt lat="42.797174645349415" lon="12.762605628840621"><ele>282.0</ele><time>2026-04-04T08:37:22Z</time></trkpt><trkpt lat="42.79691258160795" lon="12.76271420518277"><ele>283.0</ele><time>2026-04-04T08:37:23Z</time></trkpt><trkpt lat="42.7966468674587" lon="12.762816086441893"><ele>283.0</ele><time>2026-04-04T08:37:24Z</time></trkpt><trkpt lat="42.7963817064613" lon="12.762919258747766"><ele>283.0</ele><time>2026-04-04T08:37:25Z</time></trkpt><trkpt lat="42.796116350794335" lon="12.763018189469852"><ele>281.5</ele><time>2026-04-04T08:37:26Z</time></trkpt><trkpt lat="42.795851544447814" lon="12.763119149532383"><ele>280.0</ele><time>2026-04-04T08:37:27Z</time></trkpt><trkpt lat="42.79558928216574" lon="12.763222553898245"><ele>280.0</ele><time>2026-04-04T08:37:28Z</time></trkpt><trkpt lat="42.79533039132285" lon="12.763327866442296"><ele>280.0</ele><time>2026-04-04T08:37:29Z</time></trkpt><trkpt lat="42.79507301315742" lon="12.763436628539631"><ele>281.5</ele><time>2026-04-04T08:37:30Z</time></trkpt><trkpt lat="42.79481689933078" lon="12.763548044559403"><ele>283.0</ele><time>2026-04-04T08:37:31Z</time></trkpt><trkpt lat="42.794558752508905" lon="12.763658541248219"><ele>283.5</ele><time>2026-04-04T08:37:32Z</time></trkpt><trkpt lat="42.794303183201066" lon="12.763764707303142"><ele>284.0</ele><time>2026-04-04T08:37:33Z</time></trkpt><trkpt lat="42.79405204542696" lon="12.763874277209482"><ele>284.0</ele><time>2026-04-04T08:37:34Z</time></trkpt><trkpt lat="42.793793359441196" lon="12.763982622113037"><ele>284.0</ele><time>2026-04-04T08:37:35Z</time></trkpt><trkpt lat="42.79353844146833" lon="12.764084486004888"><ele>284.0</ele><time>2026-04-04T08:37:36Z</time></trkpt><trkpt lat="42.793279993115355" lon="12.764179005129606"><ele>284.0</ele><time>2026-04-04T08:37:37Z</time></trkpt><trkpt lat="42.79302307524293" lon="12.764280090534033"><ele>286.0</ele><time>2026-04-04T08:37:38Z</time></trkpt><trkpt lat="42.79276563749556" lon="12.764379876711098"><ele>288.0</ele><time>2026-04-04T08:37:39Z</time></trkpt><trkpt lat="42.792513192834164" lon="12.764472655019183"><ele>288.5</ele><time>2026-04-04T08:37:40Z</time></trkpt><trkpt lat="42.79225727529855" lon="12.764569126815212"><ele>289.0</ele><time>2026-04-04T08:37:41Z</time></trkpt><trkpt lat="42.79200244284607" lon="12.764666305585699"><ele>289.5</ele><time>2026-04-04T08:37:42Z</time></trkpt><trkpt lat="42.79174593153021" lon="12.764772541771572"><ele>290.0</ele><time>2026-04-04T08:37:43Z</time></trkpt><trkpt lat="42.79148753054985" lon="12.764870381510915"><ele>290.0</ele><time>2026-04-04T08:37:44Z</time></trkpt><trkpt lat="42.79122734039321" lon="12.764969450735643"><ele>290.0</ele><time>2026-04-04T08:37:45Z</time></trkpt><trkpt lat="42.79096624727431" lon="12.765070974397515"><ele>289.5</ele><time>2026-04-04T08:37:46Z</time></trkpt><trkpt lat="42.79070392656357" lon="12.765177437655966"><ele>289.0</ele><time>2026-04-04T08:37:47Z</time></trkpt><trkpt lat="42.79044122793321" lon="12.765282398748692"><ele>289.0</ele><time>2026-04-04T08:37:48Z</time></trkpt><trkpt lat="42.790175395569726" lon="12.765388933741352"><ele>289.0</ele><time>2026-04-04T08:37:49Z</time></trkpt><trkpt lat="42.789909194727365" lon="12.765492881439158"><ele>288.5</ele><time>2026-04-04T08:37:50Z</time></trkpt><trkpt lat="42.78964271539378" lon="12.765594432339348"><ele>288.0</ele><time>2026-04-04T08:37:51Z</time></trkpt><trkpt lat="42.78937314111382" lon="12.765692236598062"><ele>286.5</ele><time>2026-04-04T08:37:52Z</time></trkpt><trkpt lat="42.78910345258548" lon="12.765785509911593"><ele>285.0</ele><time>2026-04-04T08:37:53Z</time></trkpt><trkpt lat="42.7888312278069" lon="12.765871749623061"><ele>285.0</ele><time>2026-04-04T08:37:54Z</time></trkpt><trkpt lat="42.78856056813952" lon="12.765957918403052"><ele>285.0</ele><time>2026-04-04T08:37:55Z</time></trkpt><trkpt lat="42.78828621382527" lon="12.766046145349245"><ele>285.0</ele><time>2026-04-04T08:37:56Z</time></trkpt><trkpt lat="42.788009915569056" lon="12.76612132905807"><ele>285.0</ele><time>2026-04-04T08:37:57Z</time></trkpt><trkpt lat="42.78773541763809" lon="12.7661926244739"><ele>284.5</ele><time>2026-04-04T08:37:58Z</time></trkpt><trkpt lat="42.787461951315585" lon="12.76625816545234"><ele>284.0</ele><time>2026-04-04T08:37:59Z</time></trkpt><trkpt lat="42.78718616903989" lon="12.766320806459637"><ele>284.0</ele><time>2026-04-04T08:38:00Z</time></trkpt><trkpt lat="42.78691374149506" lon="12.766375299905926"><ele>284.0</ele><time>2026-04-04T08:38:01Z</time></trkpt><trkpt lat="42.786627966162975" lon="12.766441548542597"><ele>282.0</ele><time>2026-04-04T08:38:02Z</time></trkpt><trkpt lat="42.786344238804986" lon="12.766498610690313"><ele>280.0</ele><time>2026-04-04T08:38:03Z</time></trkpt><trkpt lat="42.78606470995682" lon="12.766548741497578"><ele>280.0</ele><time>2026-04-04T08:38:04Z</time></trkpt><trkpt lat="42.785784911621256" lon="12.76659159334842"><ele>280.0</ele><time>2026-04-04T08:38:05Z</time></trkpt><trkpt lat="42.78550530788461" lon="12.766630239130443"><ele>280.0</ele><time>2026-04-04T08:38:06Z</time></trkpt><trkpt lat="42.785227632614955" lon="12.766662887629415"><ele>280.0</ele><time>2026-04-04T08:38:07Z</time></trkpt><trkpt lat="42.7849479970024" lon="12.766685972846815"><ele>277.5</ele><time>2026-04-04T08:38:08Z</time></trkpt><trkpt lat="42.78466791142375" lon="12.766709532120801"><ele>275.0</ele><time>2026-04-04T08:38:09Z</time></trkpt><trkpt lat="42.784386410584226" lon="12.766737045984245"><ele>275.5</ele><time>2026-04-04T08:38:10Z</time></trkpt><trkpt lat="42.784111925067975" lon="12.76675722902038"><ele>276.0</ele><time>2026-04-04T08:38:11Z</time></trkpt><trkpt lat="42.78383395703601" lon="12.766775580929654"><ele>276.0</ele><time>2026-04-04T08:38:12Z</time></trkpt><trkpt lat="42.78355942325781" lon="12.766799603824689"><ele>276.0</ele><time>2026-04-04T08:38:13Z</time></trkpt><trkpt lat="42.783282847680816" lon="12.766821096184087"><ele>276.5</ele><time>2026-04-04T08:38:14Z</time></trkpt><trkpt lat="42.783006515615796" lon="12.766841121278652"><ele>277.0</ele><time>2026-04-04T08:38:15Z</time></trkpt><trkpt lat="42.78273221436372" lon="12.76686136333018"><ele>276.5</ele><time>2026-04-04T08:38:16Z</time></trkpt><trkpt lat="42.78246087775611" lon="12.76687275613335"><ele>276.0</ele><time>2026-04-04T08:38:17Z</time></trkpt><trkpt lat="42.782192830721485" lon="12.766902306215076"><ele>276.0</ele><time>2026-04-04T08:38:18Z</time></trkpt><trkpt lat="42.781919406478046" lon="12.766937064767557"><ele>276.0</ele><time>2026-04-04T08:38:19Z</time></trkpt><trkpt lat="42.78165051954417" lon="12.766989598066008"><ele>275.0</ele><time>2026-04-04T08:38:20Z</time></trkpt><trkpt lat="42.78137712404396" lon="12.767054825596162"><ele>274.0</ele><time>2026-04-04T08:38:21Z</time></trkpt><trkpt lat="42.78111195695783" lon="12.767131622982287"><ele>273.5</ele><time>2026-04-04T08:38:22Z</time></trkpt><trkpt lat="42.780845299573954" lon="12.767207768329552"><ele>273.0</ele><time>2026-04-04T08:38:23Z</time></trkpt><trkpt lat="42.78060301228063" lon="12.767316404448183"><ele>273.0</ele><time>2026-04-04T08:38:24Z</time></trkpt><trkpt lat="42.78033869249636" lon="12.767439256953784"><ele>273.0</ele><time>2026-04-04T08:38:25Z</time></trkpt><trkpt lat="42.780070553889416" lon="12.76756463971646"><ele>274.5</ele><time>2026-04-04T08:38:26Z</time></trkpt><trkpt lat="42.779815482659735" lon="12.76771858180935"><ele>276.0</ele><time>2026-04-04T08:38:27Z</time></trkpt><trkpt lat="42.779569659712" lon="12.76788229971847"><ele>276.0</ele><time>2026-04-04T08:38:28Z</time></trkpt><trkpt lat="42.77932466783018" lon="12.768058440730583"><ele>276.0</ele><time>2026-04-04T08:38:29Z</time></trkpt><trkpt lat="42.77908763416991" lon="12.768244460205688"><ele>276.0</ele><time>2026-04-04T08:38:30Z</time></trkpt><trkpt lat="42.77885615657056" lon="12.768450944034269"><ele>276.0</ele><time>2026-04-04T08:38:31Z</time></trkpt><trkpt lat="42.778626062999955" lon="12.768664293661601"><ele>275.5</ele><time>2026-04-04T08:38:32Z</time></trkpt><trkpt lat="42.77839883002442" lon="12.768873318368614"><ele>275.0</ele><time>2026-04-04T08:38:33Z</time></trkpt><trkpt lat="42.778168738914054" lon="12.76908934829802"><ele>275.0</ele><time>2026-04-04T08:38:34Z</time></trkpt><trkpt lat="42.77794116280098" lon="12.769299108042912"><ele>275.0</ele><time>2026-04-04T08:38:35Z</time></trkpt><trkpt lat="42.777710108550295" lon="12.769504692749601"><ele>276.5</ele><time>2026-04-04T08:38:36Z</time></trkpt><trkpt lat="42.777476932493784" lon="12.76969542462728"><ele>278.0</ele><time>2026-04-04T08:38:37Z</time></trkpt><trkpt lat="42.77723879610089" lon="12.769875098351852"><ele>278.0</ele><time>2026-04-04T08:38:38Z</time></trkpt><trkpt lat="42.776996164303135" lon="12.770042926580249"><ele>278.0</ele><time>2026-04-04T08:38:39Z</time></trkpt><trkpt lat="42.77675047406784" lon="12.770200446105658"><ele>279.5</ele><time>2026-04-04T08:38:40Z</time></trkpt><trkpt lat="42.7764988665327" lon="12.770344085445346"><ele>281.0</ele><time>2026-04-04T08:38:41Z</time></trkpt><trkpt lat="42.776244964606484" lon="12.770470538581502"><ele>281.5</ele><time>2026-04-04T08:38:42Z</time></trkpt><trkpt lat="42.775988667032145" lon="12.770584297154047"><ele>282.0</ele><time>2026-04-04T08:38:43Z</time></trkpt><trkpt lat="42.775723890943226" lon="12.770681098988048"><ele>282.0</ele><time>2026-04-04T08:38:44Z</time></trkpt><trkpt lat="42.775461944581515" lon="12.770757257299081"><ele>282.0</ele><time>2026-04-04T08:38:45Z</time></trkpt><trkpt lat="42.77519307822528" lon="12.770820401519199"><ele>282.0</ele><time>2026-04-04T08:38:46.017Z</time></trkpt><trkpt lat="42.774925999766836" lon="12.77086764664502"><ele>282.0</ele><time>2026-04-04T08:38:47.018Z</time></trkpt><trkpt lat="42.774655137115666" lon="12.770892197798972"><ele>282.0</ele><time>2026-04-04T08:38:48.018Z</time></trkpt><trkpt lat="42.774381286575185" lon="12.770900140626871"><ele>282.0</ele><time>2026-04-04T08:38:49.021Z</time></trkpt><trkpt lat="42.7741143238128" lon="12.770892652546292"><ele>280.0</ele><time>2026-04-04T08:38:50Z</time></trkpt><trkpt lat="42.773839397619184" lon="12.770886026160714"><ele>278.0</ele><time>2026-04-04T08:38:51Z</time></trkpt><trkpt lat="42.773565334645426" lon="12.770863093829957"><ele>278.0</ele><time>2026-04-04T08:38:52Z</time></trkpt><trkpt lat="42.77329146319337" lon="12.770822600777446"><ele>278.0</ele><time>2026-04-04T08:38:53Z</time></trkpt><trkpt lat="42.773020705169706" lon="12.770774574351135"><ele>278.0</ele><time>2026-04-04T08:38:54Z</time></trkpt><trkpt lat="42.77274940705036" lon="12.770716956731262"><ele>278.0</ele><time>2026-04-04T08:38:55Z</time></trkpt><trkpt lat="42.77248024597042" lon="12.770656188693362"><ele>277.0</ele><time>2026-04-04T08:38:56Z</time></trkpt><trkpt lat="42.77221617733454" lon="12.770595883457668"><ele>276.0</ele><time>2026-04-04T08:38:57Z</time></trkpt><trkpt lat="42.77195511493808" lon="12.770533753823733"><ele>275.0</ele><time>2026-04-04T08:38:58Z</time></trkpt><trkpt lat="42.77169807852955" lon="12.770471091037596"><ele>274.0</ele><time>2026-04-04T08:38:59Z</time></trkpt><trkpt lat="42.77144508107613" lon="12.770408263107614"><ele>274.0</ele><time>2026-04-04T08:39:00Z</time></trkpt><trkpt lat="42.77119415066113" lon="12.770337399413412"><ele>274.0</ele><time>2026-04-04T08:39:01Z</time></trkpt><trkpt lat="42.770945586251614" lon="12.770269104501153"><ele>274.0</ele><time>2026-04-04T08:39:02Z</time></trkpt><trkpt lat="42.77069810767931" lon="12.770199479648445"><ele>274.0</ele><time>2026-04-04T08:39:03Z</time></trkpt><trkpt lat="42.77045303049673" lon="12.77012860766257"><ele>273.5</ele><time>2026-04-04T08:39:04Z</time></trkpt><trkpt lat="42.770209680642914" lon="12.77005760801447"><ele>273.0</ele><time>2026-04-04T08:39:05Z</time></trkpt><trkpt lat="42.7699662201401" lon="12.769982848780135"><ele>272.5</ele><time>2026-04-04T08:39:06Z</time></trkpt><trkpt lat="42.76972481803352" lon="12.769902002032952"><ele>272.0</ele><time>2026-04-04T08:39:07Z</time></trkpt><trkpt lat="42.769485167441985" lon="12.769820854360008"><ele>274.5</ele><time>2026-04-04T08:39:08Z</time></trkpt><trkpt lat="42.76924663923285" lon="12.769739830831384"><ele>277.0</ele><time>2026-04-04T08:39:09Z</time></trkpt><trkpt lat="42.76900952450565" lon="12.769661255629691"><ele>277.0</ele><time>2026-04-04T08:39:10Z</time></trkpt><trkpt lat="42.76877446117098" lon="12.769579957028746"><ele>277.0</ele><time>2026-04-04T08:39:11Z</time></trkpt><trkpt lat="42.76854029698587" lon="12.769498634383794"><ele>276.5</ele><time>2026-04-04T08:39:12Z</time></trkpt><trkpt lat="42.76831065844476" lon="12.769411783968163"><ele>276.0</ele><time>2026-04-04T08:39:13Z</time></trkpt><trkpt lat="42.768084306975986" lon="12.769326096348507"><ele>276.0</ele><time>2026-04-04T08:39:14Z</time></trkpt><trkpt lat="42.76786112422689" lon="12.769240150226572"><ele>276.0</ele><time>2026-04-04T08:39:15Z</time></trkpt><trkpt lat="42.76764070361282" lon="12.769151618221407"><ele>277.5</ele><time>2026-04-04T08:39:16Z</time></trkpt><trkpt lat="42.76742288436291" lon="12.769058649398307"><ele>279.0</ele><time>2026-04-04T08:39:17Z</time></trkpt><trkpt lat="42.767203257922596" lon="12.768965323442123"><ele>279.0</ele><time>2026-04-04T08:39:18Z</time></trkpt><trkpt lat="42.76698240833745" lon="12.768867755975162"><ele>279.0</ele><time>2026-04-04T08:39:19Z</time></trkpt><trkpt lat="42.766763681235616" lon="12.768760380461714"><ele>278.5</ele><time>2026-04-04T08:39:20Z</time></trkpt><trkpt lat="42.76654473488249" lon="12.768647625994724"><ele>278.0</ele><time>2026-04-04T08:39:21Z</time></trkpt><trkpt lat="42.7663330905829" lon="12.768521570565403"><ele>278.0</ele><time>2026-04-04T08:39:22Z</time></trkpt><trkpt lat="42.76614247136911" lon="12.768393876571771"><ele>278.0</ele><time>2026-04-04T08:39:23Z</time></trkpt><trkpt lat="42.76597296329854" lon="12.768253628310923"><ele>278.0</ele><time>2026-04-04T08:39:24Z</time></trkpt><trkpt lat="42.765828736856335" lon="12.768115241642922"><ele>278.25</ele><time>2026-04-04T08:39:25Z</time></trkpt><trkpt lat="42.76571707572938" lon="12.767983243800952"><ele>278.5</ele><time>2026-04-04T08:39:26Z</time></trkpt><trkpt lat="42.76562832607191" lon="12.767838870207488"><ele>278.75</ele><time>2026-04-04T08:39:27Z</time></trkpt><trkpt lat="42.76557514772621" lon="12.767661677308206"><ele>279.0</ele><time>2026-04-04T08:39:28Z</time></trkpt><trkpt lat="42.76556156859921" lon="12.767462364364878"><ele>279.0</ele><time>2026-04-04T08:39:29Z</time></trkpt><trkpt lat="42.76557930045364" lon="12.767293386685756"><ele>279.0</ele><time>2026-04-04T08:39:30Z</time></trkpt><trkpt lat="42.76563654431896" lon="12.767136957474937"><ele>279.0</ele><time>2026-04-04T08:39:31Z</time></trkpt><trkpt lat="42.76572635834735" lon="12.766996034553609"><ele>279.0</ele><time>2026-04-04T08:39:32Z</time></trkpt><trkpt lat="42.76582561414668" lon="12.766907406906352"><ele>279.0</ele><time>2026-04-04T08:39:33Z</time></trkpt><trkpt lat="42.765953293758315" lon="12.766859847648227"><ele>279.0</ele><time>2026-04-04T08:39:34Z</time></trkpt><trkpt lat="42.76609293268251" lon="12.766849470215607"><ele>279.0</ele><time>2026-04-04T08:39:35Z</time></trkpt><trkpt lat="42.76622798771951" lon="12.766893383239049"><ele>279.0</ele><time>2026-04-04T08:39:36Z</time></trkpt><trkpt lat="42.76633578502922" lon="12.767001674850714"><ele>278.0</ele><time>2026-04-04T08:39:37Z</time></trkpt><trkpt lat="42.76641800279637" lon="12.767139029588105"><ele>277.0</ele><time>2026-04-04T08:39:38Z</time></trkpt><trkpt lat="42.76647531670726" lon="12.76730734604199"><ele>276.0</ele><time>2026-04-04T08:39:39Z</time></trkpt><trkpt lat="42.766492230516754" lon="12.767493581987637"><ele>275.0</ele><time>2026-04-04T08:39:40Z</time></trkpt><trkpt lat="42.766465242378686" lon="12.767689948065474"><ele>275.75</ele><time>2026-04-04T08:39:41Z</time></trkpt><trkpt lat="42.76640214576806" lon="12.767842953927172"><ele>276.5</ele><time>2026-04-04T08:39:42Z</time></trkpt><trkpt lat="42.76632548855794" lon="12.767958097569496"><ele>277.25</ele><time>2026-04-04T08:39:43Z</time></trkpt><trkpt lat="42.76624142840222" lon="12.768073762399442"><ele>278.0</ele><time>2026-04-04T08:39:44Z</time></trkpt><trkpt lat="42.76614879022089" lon="12.76819655874608"><ele>278.0</ele><time>2026-04-04T08:39:45Z</time></trkpt><trkpt lat="42.7660407663723" lon="12.768334974459862"><ele>278.0</ele><time>2026-04-04T08:39:46Z</time></trkpt><trkpt lat="42.765910549934155" lon="12.768491095270363"><ele>278.0</ele><time>2026-04-04T08:39:47Z</time></trkpt><trkpt lat="42.76575644077189" lon="12.768667369452656"><ele>278.6666666666667</ele><time>2026-04-04T08:39:48Z</time></trkpt><trkpt lat="42.76559892674035" lon="12.768818515966979"><ele>279.3333333333333</ele><time>2026-04-04T08:39:49Z</time></trkpt><trkpt lat="42.765454796220425" lon="12.768974492307855"><ele>280.0</ele><time>2026-04-04T08:39:50Z</time></trkpt><trkpt lat="42.76530632542482" lon="12.769134818567897"><ele>280.66666666666663</ele><time>2026-04-04T08:39:51Z</time></trkpt><trkpt lat="42.765158396974854" lon="12.769298865400001"><ele>281.3333333333333</ele><time>2026-04-04T08:39:52Z</time></trkpt><trkpt lat="42.76500614914562" lon="12.769471546824558"><ele>282.0</ele><time>2026-04-04T08:39:53Z</time></trkpt><trkpt lat="42.76484721378794" lon="12.76964836840025"><ele>283.0</ele><time>2026-04-04T08:39:54Z</time></trkpt><trkpt lat="42.7646750730559" lon="12.769823877805853"><ele>284.0</ele><time>2026-04-04T08:39:55Z</time></trkpt><trkpt lat="42.76450269175851" lon="12.770008644811918"><ele>285.0</ele><time>2026-04-04T08:39:56Z</time></trkpt><trkpt lat="42.764331869889446" lon="12.770182072165968"><ele>287.0</ele><time>2026-04-04T08:39:57Z</time></trkpt><trkpt lat="42.764151795416986" lon="12.770354308497655"><ele>289.0</ele><time>2026-04-04T08:39:58Z</time></trkpt><trkpt lat="42.76396368074652" lon="12.770515794184544"><ele>291.0</ele><time>2026-04-04T08:39:59Z</time></trkpt><trkpt lat="42.763767107222456" lon="12.770671626337515"><ele>291.0</ele><time>2026-04-04T08:40:00Z</time></trkpt><trkpt lat="42.76356480233002" lon="12.770816862340558"><ele>291.0</ele><time>2026-04-04T08:40:01Z</time></trkpt><trkpt lat="42.76336174048146" lon="12.770958485797973"><ele>292.5</ele><time>2026-04-04T08:40:02Z</time></trkpt><trkpt lat="42.76315927925717" lon="12.771093368343983"><ele>294.0</ele><time>2026-04-04T08:40:03Z</time></trkpt><trkpt lat="42.7629550964096" lon="12.771223909778945"><ele>294.0</ele><time>2026-04-04T08:40:04Z</time></trkpt><trkpt lat="42.76274651302003" lon="12.771334968678929"><ele>294.0</ele><time>2026-04-04T08:40:05Z</time></trkpt><trkpt lat="42.76253245583952" lon="12.77142782796553"><ele>294.0</ele><time>2026-04-04T08:40:06Z</time></trkpt><trkpt lat="42.762316088706875" lon="12.771519869538766"><ele>295.6666666666667</ele><time>2026-04-04T08:40:07Z</time></trkpt><trkpt lat="42.76209959331047" lon="12.771613173688124"><ele>297.33333333333337</ele><time>2026-04-04T08:40:08Z</time></trkpt><trkpt lat="42.76189300476052" lon="12.771707353068635"><ele>299.0</ele><time>2026-04-04T08:40:09Z</time></trkpt><trkpt lat="42.761656251444236" lon="12.771761171677404"><ele>301.5</ele><time>2026-04-04T08:40:10Z</time></trkpt><trkpt lat="42.76143506628813" lon="12.771864974888636"><ele>304.0</ele><time>2026-04-04T08:40:11Z</time></trkpt><trkpt lat="42.76121857254576" lon="12.771969772751305"><ele>306.5</ele><time>2026-04-04T08:40:12Z</time></trkpt><trkpt lat="42.761005827928656" lon="12.772075190819024"><ele>309.0</ele><time>2026-04-04T08:40:13Z</time></trkpt><trkpt lat="42.760794328423785" lon="12.772188872842873"><ele>309.0</ele><time>2026-04-04T08:40:14Z</time></trkpt><trkpt lat="42.76058332465227" lon="12.772307080609117"><ele>309.0</ele><time>2026-04-04T08:40:15Z</time></trkpt><trkpt lat="42.76037570680815" lon="12.772428524869532"><ele>311.5</ele><time>2026-04-04T08:40:16Z</time></trkpt><trkpt lat="42.76016870110539" lon="12.772556557551562"><ele>314.0</ele><time>2026-04-04T08:40:17Z</time></trkpt><trkpt lat="42.759958422046616" lon="12.77269375643127"><ele>314.0</ele><time>2026-04-04T08:40:18Z</time></trkpt><trkpt lat="42.75975834112102" lon="12.77282913140806"><ele>314.0</ele><time>2026-04-04T08:40:19Z</time></trkpt><trkpt lat="42.75955633409683" lon="12.772972357709614"><ele>316.0</ele><time>2026-04-04T08:40:20Z</time></trkpt><trkpt lat="42.75935455741749" lon="12.773118296371473"><ele>318.0</ele><time>2026-04-04T08:40:21Z</time></trkpt><trkpt lat="42.75915436759505" lon="12.773267391712064"><ele>318.0</ele><time>2026-04-04T08:40:22Z</time></trkpt><trkpt lat="42.75895488601354" lon="12.773420833569384"><ele>318.0</ele><time>2026-04-04T08:40:23Z</time></trkpt><trkpt lat="42.7587566133603" lon="12.773576188325125"><ele>319.0</ele><time>2026-04-04T08:40:24Z</time></trkpt><trkpt lat="42.758558762227" lon="12.773736150095367"><ele>320.0</ele><time>2026-04-04T08:40:25Z</time></trkpt><trkpt lat="42.7583606146936" lon="12.773896576495412"><ele>320.0</ele><time>2026-04-04T08:40:26Z</time></trkpt><trkpt lat="42.758159623944614" lon="12.774060572582874"><ele>320.0</ele><time>2026-04-04T08:40:27Z</time></trkpt><trkpt lat="42.7579581551317" lon="12.774224958719657"><ele>322.0</ele><time>2026-04-04T08:40:28Z</time></trkpt><trkpt lat="42.75775583301071" lon="12.77439003123528"><ele>324.0</ele><time>2026-04-04T08:40:29Z</time></trkpt><trkpt lat="42.7575540619104" lon="12.774556268577117"><ele>327.0</ele><time>2026-04-04T08:40:30Z</time></trkpt><trkpt lat="42.75735231910679" lon="12.774722484151527"><ele>330.0</ele><time>2026-04-04T08:40:31Z</time></trkpt><trkpt lat="42.757151992707826" lon="12.774887480792373"><ele>330.0</ele><time>2026-04-04T08:40:32Z</time></trkpt><trkpt lat="42.75695511315209" lon="12.775049089274134"><ele>330.0</ele><time>2026-04-04T08:40:33Z</time></trkpt><trkpt lat="42.75675981463872" lon="12.775209399945018"><ele>332.5</ele><time>2026-04-04T08:40:34Z</time></trkpt><trkpt lat="42.756565657724636" lon="12.775369217026292"><ele>335.0</ele><time>2026-04-04T08:40:35Z</time></trkpt><trkpt lat="42.75637367540753" lon="12.775527808396236"><ele>335.0</ele><time>2026-04-04T08:40:36Z</time></trkpt><trkpt lat="42.75618052651201" lon="12.77568747963046"><ele>335.0</ele><time>2026-04-04T08:40:37Z</time></trkpt><trkpt lat="42.755988185810274" lon="12.775846502744546"><ele>338.5</ele><time>2026-04-04T08:40:38Z</time></trkpt><trkpt lat="42.7557962356231" lon="12.776007772184775"><ele>342.0</ele><time>2026-04-04T08:40:39Z</time></trkpt><trkpt lat="42.75560505623665" lon="12.77617281712443"><ele>342.5</ele><time>2026-04-04T08:40:40Z</time></trkpt><trkpt lat="42.75541696975155" lon="12.776342680277887"><ele>343.0</ele><time>2026-04-04T08:40:41Z</time></trkpt><trkpt lat="42.755228770584985" lon="12.776517100890874"><ele>347.0</ele><time>2026-04-04T08:40:42Z</time></trkpt><trkpt lat="42.75504228491992" lon="12.776703951219005"><ele>351.0</ele><time>2026-04-04T08:40:43Z</time></trkpt><trkpt lat="42.75486491632448" lon="12.776902061547414"><ele>353.5</ele><time>2026-04-04T08:40:44Z</time></trkpt><trkpt lat="42.75468549468505" lon="12.777106567689462"><ele>356.0</ele><time>2026-04-04T08:40:45Z</time></trkpt><trkpt lat="42.75451221219953" lon="12.777310177630328"><ele>359.5</ele><time>2026-04-04T08:40:46Z</time></trkpt><trkpt lat="42.75434384583824" lon="12.777519737095224"><ele>363.0</ele><time>2026-04-04T08:40:47Z</time></trkpt><trkpt lat="42.75419376508584" lon="12.777755768679114"><ele>364.5</ele><time>2026-04-04T08:40:48Z</time></trkpt><trkpt lat="42.75403336352225" lon="12.777975561123299"><ele>366.0</ele><time>2026-04-04T08:40:49Z</time></trkpt><trkpt lat="42.75387512179157" lon="12.77820352038479"><ele>366.0</ele><time>2026-04-04T08:40:50Z</time></trkpt><trkpt lat="42.753719417735546" lon="12.778443632264151"><ele>366.0</ele><time>2026-04-04T08:40:51Z</time></trkpt><trkpt lat="42.753568244417615" lon="12.778692077554265"><ele>375.5</ele><time>2026-04-04T08:40:52Z</time></trkpt><trkpt lat="42.753424394044416" lon="12.778936976699587"><ele>385.0</ele><time>2026-04-04T08:40:53Z</time></trkpt><trkpt lat="42.7532812528931" lon="12.77919881342206"><ele>400.5</ele><time>2026-04-04T08:40:54Z</time></trkpt><trkpt lat="42.75313788394615" lon="12.779475357575581"><ele>416.0</ele><time>2026-04-04T08:40:55.019Z</time></trkpt><trkpt lat="42.75300165030842" lon="12.779754212528138"><ele>416.0</ele><time>2026-04-04T08:40:56.013Z</time></trkpt><trkpt lat="42.75286771689842" lon="12.780046671912153"><ele>416.0</ele><time>2026-04-04T08:40:57.021Z</time></trkpt><trkpt lat="42.75274181899576" lon="12.780345999756227"><ele>444.0</ele><time>2026-04-04T08:40:58.019Z</time></trkpt><trkpt lat="42.75262062752254" lon="12.780656173890165"><ele>472.0</ele><time>2026-04-04T08:40:59.022Z</time></trkpt><trkpt lat="42.752504107268194" lon="12.780970329128607"><ele>489.5</ele><time>2026-04-04T08:41:00.022Z</time></trkpt><trkpt lat="42.752393817722904" lon="12.78129039307809"><ele>507.0</ele><time>2026-04-04T08:41:01.02Z</time></trkpt><trkpt lat="42.75228670087866" lon="12.781614807970263"><ele>573.0</ele><time>2026-04-04T08:41:02.02Z</time></trkpt><trkpt lat="42.75145795570903" lon="12.785298276452798"><ele>591.0</ele><time>2026-04-04T08:41:06.496Z</time></trkpt><trkpt lat="42.75122851907172" lon="12.786351954321438"><ele>582.0</ele><time>2026-04-04T08:41:07.495Z</time></trkpt><trkpt lat="42.75099949363581" lon="12.787407143455061"><ele>596.0</ele><time>2026-04-04T08:41:08.496Z</time></trkpt><trkpt lat="42.7508534" lon="12.7880859"><ele>329.0</ele><time>2026-04-04T08:41:09.496Z</time></trkpt><trkpt lat="42.74203481156634" lon="12.825443912309431"><ele>329.5</ele><time>2026-04-04T08:43:08.999Z</time></trkpt><trkpt lat="42.741862251574624" lon="12.82568383987752"><ele>330.0</ele><time>2026-04-04T08:43:09.999Z</time></trkpt><trkpt lat="42.74165383790961" lon="12.825913102938848"><ele>326.5</ele><time>2026-04-04T08:43:10.999Z</time></trkpt><trkpt lat="42.74145354258477" lon="12.82612595852424"><ele>323.0</ele><time>2026-04-04T08:43:11.999Z</time></trkpt><trkpt lat="42.74125217989535" lon="12.826322806926054"><ele>323.0</ele><time>2026-04-04T08:43:12.999Z</time></trkpt><trkpt lat="42.74105058658325" lon="12.826505496102577"><ele>323.0</ele><time>2026-04-04T08:43:13.999Z</time></trkpt><trkpt lat="42.74083955867063" lon="12.826673839988032"><ele>323.0</ele><time>2026-04-04T08:43:15Z</time></trkpt><trkpt lat="42.740623190975235" lon="12.826834551648933"><ele>323.0</ele><time>2026-04-04T08:43:16Z</time></trkpt><trkpt lat="42.740403334276046" lon="12.826983236796941"><ele>318.5</ele><time>2026-04-04T08:43:17Z</time></trkpt><trkpt lat="42.740180528270464" lon="12.827126851992482"><ele>314.0</ele><time>2026-04-04T08:43:18Z</time></trkpt><trkpt lat="42.73995271526702" lon="12.827259764481138"><ele>314.0</ele><time>2026-04-04T08:43:19Z</time></trkpt><trkpt lat="42.739721809179215" lon="12.827389182444756"><ele>314.0</ele><time>2026-04-04T08:43:20Z</time></trkpt><trkpt lat="42.739488589165354" lon="12.8275110309368"><ele>311.0</ele><time>2026-04-04T08:43:21Z</time></trkpt><trkpt lat="42.73925499857642" lon="12.827644385705781"><ele>308.0</ele><time>2026-04-04T08:43:22Z</time></trkpt><trkpt lat="42.739026887099286" lon="12.827774818981927"><ele>308.0</ele><time>2026-04-04T08:43:23Z</time></trkpt><trkpt lat="42.738799271179595" lon="12.827908074726938"><ele>308.0</ele><time>2026-04-04T08:43:24Z</time></trkpt><trkpt lat="42.73856336929824" lon="12.828014881259756"><ele>306.5</ele><time>2026-04-04T08:43:25Z</time></trkpt><trkpt lat="42.738330499246985" lon="12.828141998620273"><ele>305.0</ele><time>2026-04-04T08:43:26Z</time></trkpt><trkpt lat="42.738099016069356" lon="12.828269690784207"><ele>305.0</ele><time>2026-04-04T08:43:27Z</time></trkpt><trkpt lat="42.73786933603228" lon="12.828391821436359"><ele>305.0</ele><time>2026-04-04T08:43:28Z</time></trkpt><trkpt lat="42.737628288357534" lon="12.828522471019701"><ele>303.5</ele><time>2026-04-04T08:43:29Z</time></trkpt><trkpt lat="42.73738597825262" lon="12.82873642743194"><ele>302.0</ele><time>2026-04-04T08:43:30Z</time></trkpt><trkpt lat="42.73712066491421" lon="12.828892548643177"><ele>301.0</ele><time>2026-04-04T08:43:31Z</time></trkpt><trkpt lat="42.73684258080061" lon="12.829047207336622"><ele>300.0</ele><time>2026-04-04T08:43:32Z</time></trkpt><trkpt lat="42.73654172063401" lon="12.829194567180307"><ele>297.5</ele><time>2026-04-04T08:43:33Z</time></trkpt><trkpt lat="42.73623602526696" lon="12.829335007763277"><ele>295.0</ele><time>2026-04-04T08:43:34Z</time></trkpt><trkpt lat="42.73595185902018" lon="12.829476796399971"><ele>293.5</ele><time>2026-04-04T08:43:35Z</time></trkpt><trkpt lat="42.73568054180723" lon="12.829590953955819"><ele>292.0</ele><time>2026-04-04T08:43:36Z</time></trkpt><trkpt lat="42.73544747059051" lon="12.829722042496597"><ele>292.0</ele><time>2026-04-04T08:43:37Z</time></trkpt><trkpt lat="42.73525211607076" lon="12.829830937621367"><ele>292.0</ele><time>2026-04-04T08:43:38Z</time></trkpt><trkpt lat="42.73508864994164" lon="12.829926309337717"><ele>292.0</ele><time>2026-04-04T08:43:39Z</time></trkpt><trkpt lat="42.73496321507763" lon="12.830038732632264"><ele>291.0</ele><time>2026-04-04T08:43:40Z</time></trkpt><trkpt lat="42.734875113533754" lon="12.830198447466467"><ele>290.0</ele><time>2026-04-04T08:43:41Z</time></trkpt><trkpt lat="42.73481704140927" lon="12.830409131327759"><ele>289.0</ele><time>2026-04-04T08:43:42Z</time></trkpt><trkpt lat="42.73482606512742" lon="12.830639634624653"><ele>289.0</ele><time>2026-04-04T08:43:43Z</time></trkpt><trkpt lat="42.734884989209675" lon="12.83085287786718"><ele>289.0</ele><time>2026-04-04T08:43:44Z</time></trkpt><trkpt lat="42.735000562075" lon="12.8310227368028"><ele>289.0</ele><time>2026-04-04T08:43:45Z</time></trkpt><trkpt lat="42.73516151095778" lon="12.831145526030983"><ele>289.3333333333333</ele><time>2026-04-04T08:43:46Z</time></trkpt><trkpt lat="42.73537262733317" lon="12.831204851390194"><ele>289.6666666666667</ele><time>2026-04-04T08:43:47Z</time></trkpt><trkpt lat="42.7355742562803" lon="12.831225739522408"><ele>290.0</ele><time>2026-04-04T08:43:48Z</time></trkpt><trkpt lat="42.73571800626935" lon="12.831306165483104"><ele>290.0</ele><time>2026-04-04T08:43:49Z</time></trkpt><trkpt lat="42.73583703358381" lon="12.831432653707731"><ele>290.0</ele><time>2026-04-04T08:43:50Z</time></trkpt><trkpt lat="42.73592079730683" lon="12.831583681010047"><ele>290.0</ele><time>2026-04-04T08:43:51Z</time></trkpt><trkpt lat="42.73598347321217" lon="12.831762843941275"><ele>290.0</ele><time>2026-04-04T08:43:52Z</time></trkpt><trkpt lat="42.73602784469318" lon="12.831981448158922"><ele>289.6666666666667</ele><time>2026-04-04T08:43:53Z</time></trkpt><trkpt lat="42.73605246276175" lon="12.832223713481492"><ele>289.3333333333333</ele><time>2026-04-04T08:43:54Z</time></trkpt><trkpt lat="42.73607900158008" lon="12.832499338563073"><ele>289.0</ele><time>2026-04-04T08:43:55Z</time></trkpt><trkpt lat="42.73605678723067" lon="12.832779796261264"><ele>289.3333333333333</ele><time>2026-04-04T08:43:56Z</time></trkpt><trkpt lat="42.736053288096365" lon="12.833061756691828"><ele>289.6666666666667</ele><time>2026-04-04T08:43:57Z</time></trkpt><trkpt lat="42.736025733946114" lon="12.833336015052057"><ele>290.0</ele><time>2026-04-04T08:43:58Z</time></trkpt><trkpt lat="42.73599783035398" lon="12.833597953477017"><ele>290.6666666666667</ele><time>2026-04-04T08:43:59Z</time></trkpt><trkpt lat="42.735969676869864" lon="12.833862867721155"><ele>291.3333333333333</ele><time>2026-04-04T08:44:00Z</time></trkpt><trkpt lat="42.73593595940104" lon="12.834119983970087"><ele>292.0</ele><time>2026-04-04T08:44:01Z</time></trkpt><trkpt lat="42.735905607777255" lon="12.834370503003491"><ele>292.66666666666663</ele><time>2026-04-04T08:44:02Z</time></trkpt><trkpt lat="42.735877207538195" lon="12.834615722834743"><ele>293.3333333333333</ele><time>2026-04-04T08:44:03Z</time></trkpt><trkpt lat="42.735852834617404" lon="12.8348578499876"><ele>294.0</ele><time>2026-04-04T08:44:04Z</time></trkpt><trkpt lat="42.73583923941647" lon="12.83508643515437"><ele>293.0</ele><time>2026-04-04T08:44:05Z</time></trkpt><trkpt lat="42.73586631540677" lon="12.835301766777354"><ele>292.0</ele><time>2026-04-04T08:44:06Z</time></trkpt><trkpt lat="42.735933453719724" lon="12.835511359839234"><ele>291.0</ele><time>2026-04-04T08:44:07Z</time></trkpt><trkpt lat="42.73603507456863" lon="12.835708261818036"><ele>290.0</ele><time>2026-04-04T08:44:08Z</time></trkpt><trkpt lat="42.73619025039407" lon="12.835853279906514"><ele>289.0</ele><time>2026-04-04T08:44:09Z</time></trkpt><trkpt lat="42.73636895067235" lon="12.83596274948063"><ele>288.0</ele><time>2026-04-04T08:44:10Z</time></trkpt><trkpt lat="42.736573732715485" lon="12.836041256140486"><ele>288.0</ele><time>2026-04-04T08:44:11Z</time></trkpt><trkpt lat="42.73681590665657" lon="12.836055543727664"><ele>288.0</ele><time>2026-04-04T08:44:12Z</time></trkpt><trkpt lat="42.73704768191883" lon="12.836121606477052"><ele>291.0</ele><time>2026-04-04T08:44:13Z</time></trkpt><trkpt lat="42.7372745009983" lon="12.836206872527002"><ele>294.0</ele><time>2026-04-04T08:44:14Z</time></trkpt><trkpt lat="42.73751113766062" lon="12.83629182885458"><ele>296.0</ele><time>2026-04-04T08:44:15Z</time></trkpt><trkpt lat="42.73774116475529" lon="12.836383838450644"><ele>298.0</ele><time>2026-04-04T08:44:16Z</time></trkpt><trkpt lat="42.73796942946484" lon="12.83646793182395"><ele>298.0</ele><time>2026-04-04T08:44:17Z</time></trkpt><trkpt lat="42.73820411873702" lon="12.83654177832305"><ele>298.0</ele><time>2026-04-04T08:44:18Z</time></trkpt><trkpt lat="42.73843531126815" lon="12.836639530885417"><ele>299.66666666666663</ele><time>2026-04-04T08:44:19Z</time></trkpt><trkpt lat="42.7386365542846" lon="12.836714567270974"><ele>301.3333333333333</ele><time>2026-04-04T08:44:20Z</time></trkpt><trkpt lat="42.73885475874032" lon="12.836730606587608"><ele>303.0</ele><time>2026-04-04T08:44:21Z</time></trkpt><trkpt lat="42.73903783296969" lon="12.836824802955109"><ele>300.0</ele><time>2026-04-04T08:44:22Z</time></trkpt><trkpt lat="42.73922157033721" lon="12.836901247751289"><ele>297.0</ele><time>2026-04-04T08:44:23Z</time></trkpt><trkpt lat="42.7394053396075" lon="12.836969788147956"><ele>294.0</ele><time>2026-04-04T08:44:24Z</time></trkpt><trkpt lat="42.739584013954946" lon="12.83703951188227"><ele>294.0</ele><time>2026-04-04T08:44:25Z</time></trkpt><trkpt lat="42.73976600678137" lon="12.837111001503041"><ele>294.0</ele><time>2026-04-04T08:44:26Z</time></trkpt><trkpt lat="42.739944437561476" lon="12.837191891467533"><ele>294.0</ele><time>2026-04-04T08:44:27Z</time></trkpt><trkpt lat="42.740127361613766" lon="12.837269106341527"><ele>298.0</ele><time>2026-04-04T08:44:28Z</time></trkpt><trkpt lat="42.74030863442998" lon="12.837358677692917"><ele>302.0</ele><time>2026-04-04T08:44:29Z</time></trkpt><trkpt lat="42.74049757045271" lon="12.837446843353971"><ele>306.0</ele><time>2026-04-04T08:44:30Z</time></trkpt><trkpt lat="42.74067867832443" lon="12.837550117635395"><ele>303.6666666666667</ele><time>2026-04-04T08:44:31Z</time></trkpt><trkpt lat="42.74085303365719" lon="12.837665879531121"><ele>301.33333333333337</ele><time>2026-04-04T08:44:32Z</time></trkpt><trkpt lat="42.74102742617779" lon="12.83779469771639"><ele>299.0</ele><time>2026-04-04T08:44:33Z</time></trkpt><trkpt lat="42.74119699484869" lon="12.83793119422979"><ele>299.0</ele><time>2026-04-04T08:44:34Z</time></trkpt><trkpt lat="42.74135836762133" lon="12.838071628237584"><ele>299.0</ele><time>2026-04-04T08:44:35Z</time></trkpt><trkpt lat="42.74151856126625" lon="12.838228758144616"><ele>299.0</ele><time>2026-04-04T08:44:36Z</time></trkpt><trkpt lat="42.74167564439025" lon="12.838374208894722"><ele>297.6666666666667</ele><time>2026-04-04T08:44:37Z</time></trkpt><trkpt lat="42.74181754447603" lon="12.838528140335075"><ele>296.3333333333333</ele><time>2026-04-04T08:44:38Z</time></trkpt><trkpt lat="42.74196222271944" lon="12.838685448243607"><ele>295.0</ele><time>2026-04-04T08:44:39Z</time></trkpt><trkpt lat="42.74210337514472" lon="12.83884818422964"><ele>297.66666666666663</ele><time>2026-04-04T08:44:40Z</time></trkpt><trkpt lat="42.74223552138883" lon="12.839007342410332"><ele>300.3333333333333</ele><time>2026-04-04T08:44:41Z</time></trkpt><trkpt lat="42.74236633964653" lon="12.839169079461165"><ele>303.0</ele><time>2026-04-04T08:44:42Z</time></trkpt><trkpt lat="42.74249685480284" lon="12.83933204575582"><ele>303.0</ele><time>2026-04-04T08:44:43Z</time></trkpt><trkpt lat="42.742629282623014" lon="12.839494394705973"><ele>303.0</ele><time>2026-04-04T08:44:44Z</time></trkpt><trkpt lat="42.7427576351099" lon="12.839656700545364"><ele>303.0</ele><time>2026-04-04T08:44:45Z</time></trkpt><trkpt lat="42.74288839820981" lon="12.839818448132629"><ele>306.0</ele><time>2026-04-04T08:44:46Z</time></trkpt><trkpt lat="42.743021268617106" lon="12.839975965629812"><ele>309.0</ele><time>2026-04-04T08:44:47Z</time></trkpt><trkpt lat="42.74314690228319" lon="12.84012611460068"><ele>312.0</ele><time>2026-04-04T08:44:48Z</time></trkpt><trkpt lat="42.74326979651264" lon="12.840263342307763"><ele>312.5</ele><time>2026-04-04T08:44:49Z</time></trkpt><trkpt lat="42.74338905392606" lon="12.840375729565942"><ele>313.0</ele><time>2026-04-04T08:44:50Z</time></trkpt><trkpt lat="42.743523914901395" lon="12.84047257296388"><ele>313.5</ele><time>2026-04-04T08:44:51Z</time></trkpt><trkpt lat="42.7436625131152" lon="12.840546659950117"><ele>314.0</ele><time>2026-04-04T08:44:52Z</time></trkpt><trkpt lat="42.7438058816903" lon="12.84059654882602"><ele>314.0</ele><time>2026-04-04T08:44:53Z</time></trkpt><trkpt lat="42.74395155529686" lon="12.840633572831651"><ele>314.0</ele><time>2026-04-04T08:44:54Z</time></trkpt><trkpt lat="42.74409934529854" lon="12.840649194527693"><ele>314.0</ele><time>2026-04-04T08:44:55Z</time></trkpt><trkpt lat="42.74425232751837" lon="12.840645400119943"><ele>314.0</ele><time>2026-04-04T08:44:56Z</time></trkpt><trkpt lat="42.744408757803726" lon="12.84061484615878"><ele>310.33333333333337</ele><time>2026-04-04T08:44:57Z</time></trkpt><trkpt lat="42.74456008298605" lon="12.84057813465301"><ele>306.6666666666667</ele><time>2026-04-04T08:44:58Z</time></trkpt><trkpt lat="42.744705402830505" lon="12.840537461416899"><ele>303.0</ele><time>2026-04-04T08:44:59Z</time></trkpt><trkpt lat="42.74485344807834" lon="12.840500977800422"><ele>303.0</ele><time>2026-04-04T08:45:00Z</time></trkpt><trkpt lat="42.745024882353434" lon="12.840477305001842"><ele>303.0</ele><time>2026-04-04T08:45:01Z</time></trkpt><trkpt lat="42.74519928672286" lon="12.840440517929277"><ele>303.0</ele><time>2026-04-04T08:45:02Z</time></trkpt><trkpt lat="42.74536344443684" lon="12.840401173100265"><ele>302.6666666666667</ele><time>2026-04-04T08:45:03Z</time></trkpt><trkpt lat="42.74553188957451" lon="12.840356341880343"><ele>302.33333333333337</ele><time>2026-04-04T08:45:04Z</time></trkpt><trkpt lat="42.74569890242341" lon="12.840333264583274"><ele>302.0</ele><time>2026-04-04T08:45:05Z</time></trkpt><trkpt lat="42.74587440499" lon="12.840358458088351"><ele>302.0</ele><time>2026-04-04T08:45:06Z</time></trkpt><trkpt lat="42.746040711180704" lon="12.840427786711341"><ele>302.0</ele><time>2026-04-04T08:45:07Z</time></trkpt><trkpt lat="42.74620264179366" lon="12.840522153378597"><ele>302.0</ele><time>2026-04-04T08:45:08Z</time></trkpt><trkpt lat="42.746354218566964" lon="12.840649383722115"><ele>299.6666666666667</ele><time>2026-04-04T08:45:09Z</time></trkpt><trkpt lat="42.746497139314" lon="12.840807673979869"><ele>297.3333333333333</ele><time>2026-04-04T08:45:10Z</time></trkpt><trkpt lat="42.74664081694301" lon="12.840972073256296"><ele>295.0</ele><time>2026-04-04T08:45:11Z</time></trkpt><trkpt lat="42.746792760631294" lon="12.841137618830997"><ele>302.0</ele><time>2026-04-04T08:45:12Z</time></trkpt><trkpt lat="42.74693651544567" lon="12.841308146814297"><ele>309.0</ele><time>2026-04-04T08:45:13Z</time></trkpt><trkpt lat="42.74707300209745" lon="12.841468658468258"><ele>316.0</ele><time>2026-04-04T08:45:14Z</time></trkpt><trkpt lat="42.74720426755764" lon="12.841631206875327"><ele>316.0</ele><time>2026-04-04T08:45:15Z</time></trkpt><trkpt lat="42.74733871879816" lon="12.841792173698131"><ele>316.0</ele><time>2026-04-04T08:45:16Z</time></trkpt><trkpt lat="42.74746395414794" lon="12.841967658760451"><ele>316.0</ele><time>2026-04-04T08:45:17Z</time></trkpt><trkpt lat="42.747568248728534" lon="12.842160692376945"><ele>312.66666666666663</ele><time>2026-04-04T08:45:18Z</time></trkpt><trkpt lat="42.74765082062219" lon="12.842369213235646"><ele>309.3333333333333</ele><time>2026-04-04T08:45:19Z</time></trkpt><trkpt lat="42.74770423050278" lon="12.842587122040175"><ele>306.0</ele><time>2026-04-04T08:45:20Z</time></trkpt><trkpt lat="42.747738321561066" lon="12.84281036452686"><ele>313.0</ele><time>2026-04-04T08:45:21Z</time></trkpt><trkpt lat="42.74776169348016" lon="12.843036446769883"><ele>320.0</ele><time>2026-04-04T08:45:22Z</time></trkpt><trkpt lat="42.74778266472939" lon="12.843259665334458"><ele>327.0</ele><time>2026-04-04T08:45:23Z</time></trkpt><trkpt lat="42.74781450779597" lon="12.843488457328444"><ele>327.0</ele><time>2026-04-04T08:45:24Z</time></trkpt><trkpt lat="42.74784845988518" lon="12.843714154701352"><ele>327.0</ele><time>2026-04-04T08:45:25Z</time></trkpt><trkpt lat="42.74788102464945" lon="12.843946334655552"><ele>327.0</ele><time>2026-04-04T08:45:26Z</time></trkpt><trkpt lat="42.74791614579895" lon="12.844170718592828"><ele>321.6666666666667</ele><time>2026-04-04T08:45:27Z</time></trkpt><trkpt lat="42.74794416673501" lon="12.844392076308146"><ele>316.33333333333337</ele><time>2026-04-04T08:45:28Z</time></trkpt><trkpt lat="42.7479686366723" lon="12.844596068760946"><ele>311.0</ele><time>2026-04-04T08:45:29Z</time></trkpt><trkpt lat="42.74799486508325" lon="12.84480985887543"><ele>311.0</ele><time>2026-04-04T08:45:30Z</time></trkpt><trkpt lat="42.74801804801062" lon="12.845028157526627"><ele>311.0</ele><time>2026-04-04T08:45:31Z</time></trkpt><trkpt lat="42.748019577778244" lon="12.84525191565487"><ele>311.0</ele><time>2026-04-04T08:45:32Z</time></trkpt><trkpt lat="42.74798869564272" lon="12.845474968323408"><ele>314.33333333333337</ele><time>2026-04-04T08:45:33Z</time></trkpt><trkpt lat="42.7479339738909" lon="12.845691282488012"><ele>317.6666666666667</ele><time>2026-04-04T08:45:34Z</time></trkpt><trkpt lat="42.74786567193229" lon="12.845898733014932"><ele>321.0</ele><time>2026-04-04T08:45:35Z</time></trkpt><trkpt lat="42.74779096855573" lon="12.846093647618792"><ele>322.25</ele><time>2026-04-04T08:45:36Z</time></trkpt><trkpt lat="42.747719226040296" lon="12.846269383498436"><ele>323.5</ele><time>2026-04-04T08:45:37Z</time></trkpt><trkpt lat="42.74767841619598" lon="12.846447215792994"><ele>324.75</ele><time>2026-04-04T08:45:38Z</time></trkpt><trkpt lat="42.74767558561651" lon="12.846631295494381"><ele>326.0</ele><time>2026-04-04T08:45:39Z</time></trkpt><trkpt lat="42.74770633811323" lon="12.846807371739317"><ele>321.25</ele><time>2026-04-04T08:45:40Z</time></trkpt><trkpt lat="42.74775355290971" lon="12.846973143927107"><ele>316.5</ele><time>2026-04-04T08:45:41Z</time></trkpt><trkpt lat="42.74782525579057" lon="12.847113298562286"><ele>311.75</ele><time>2026-04-04T08:45:42Z</time></trkpt><trkpt lat="42.747927095036815" lon="12.847219946874711"><ele>307.0</ele><time>2026-04-04T08:45:43Z</time></trkpt><trkpt lat="42.74803955346552" lon="12.847308059217944"><ele>307.0</ele><time>2026-04-04T08:45:44Z</time></trkpt><trkpt lat="42.74816366739625" lon="12.847389175726386"><ele>307.0</ele><time>2026-04-04T08:45:45Z</time></trkpt><trkpt lat="42.748291124150406" lon="12.847468737387722"><ele>307.0</ele><time>2026-04-04T08:45:46Z</time></trkpt><trkpt lat="42.748369624803885" lon="12.847507464777408"><ele>307.0</ele><time>2026-04-04T08:45:47Z</time></trkpt><trkpt lat="42.74850769314168" lon="12.847599577273746"><ele>308.3333333333333</ele><time>2026-04-04T08:45:48Z</time></trkpt><trkpt lat="42.74863429480814" lon="12.847644259105557"><ele>309.6666666666667</ele><time>2026-04-04T08:45:49Z</time></trkpt><trkpt lat="42.74878614657278" lon="12.847660815756342"><ele>311.0</ele><time>2026-04-04T08:45:50Z</time></trkpt><trkpt lat="42.748953482495125" lon="12.847622914154432"><ele>311.0</ele><time>2026-04-04T08:45:51Z</time></trkpt><trkpt lat="42.74910616303522" lon="12.847601764622441"><ele>311.0</ele><time>2026-04-04T08:45:52Z</time></trkpt><trkpt lat="42.74925013844519" lon="12.847579161507069"><ele>311.0</ele><time>2026-04-04T08:45:53Z</time></trkpt><trkpt lat="42.749414583341775" lon="12.847547064033437"><ele>309.0</ele><time>2026-04-04T08:45:54Z</time></trkpt><trkpt lat="42.74958041385484" lon="12.847503670395271"><ele>307.0</ele><time>2026-04-04T08:45:55Z</time></trkpt><trkpt lat="42.74974596231544" lon="12.847480705690572"><ele>305.0</ele><time>2026-04-04T08:45:56Z</time></trkpt><trkpt lat="42.749912784029746" lon="12.847461950834528"><ele>305.0</ele><time>2026-04-04T08:45:57Z</time></trkpt><trkpt lat="42.75007954501235" lon="12.847438358593692"><ele>305.0</ele><time>2026-04-04T08:45:58Z</time></trkpt><trkpt lat="42.75024183308645" lon="12.847406477920993"><ele>305.0</ele><time>2026-04-04T08:45:59Z</time></trkpt><trkpt lat="42.75039886948568" lon="12.847384841530518"><ele>305.33333333333337</ele><time>2026-04-04T08:46:00Z</time></trkpt><trkpt lat="42.75055237100551" lon="12.847375898094207"><ele>305.6666666666667</ele><time>2026-04-04T08:46:01Z</time></trkpt><trkpt lat="42.75070438476763" lon="12.847380720060414"><ele>306.0</ele><time>2026-04-04T08:46:02Z</time></trkpt><trkpt lat="42.75085230216515" lon="12.84744510564021"><ele>306.0</ele><time>2026-04-04T08:46:03Z</time></trkpt><trkpt lat="42.75097853216261" lon="12.84752701206499"><ele>306.0</ele><time>2026-04-04T08:46:04Z</time></trkpt><trkpt lat="42.75109660731245" lon="12.847649433747007"><ele>306.0</ele><time>2026-04-04T08:46:05Z</time></trkpt><trkpt lat="42.75122725031931" lon="12.847823864577041"><ele>305.6666666666667</ele><time>2026-04-04T08:46:06Z</time></trkpt><trkpt lat="42.75133711258389" lon="12.847998178979408"><ele>305.33333333333337</ele><time>2026-04-04T08:46:07Z</time></trkpt><trkpt lat="42.751450883846594" lon="12.848178851206365"><ele>305.0</ele><time>2026-04-04T08:46:08Z</time></trkpt><trkpt lat="42.75157634568341" lon="12.84837466357783"><ele>303.33333333333337</ele><time>2026-04-04T08:46:09Z</time></trkpt><trkpt lat="42.75170057568668" lon="12.84855141281196"><ele>301.6666666666667</ele><time>2026-04-04T08:46:10Z</time></trkpt><trkpt lat="42.751820501962186" lon="12.848730204128868"><ele>300.0</ele><time>2026-04-04T08:46:11Z</time></trkpt><trkpt lat="42.75193755262449" lon="12.848911973556213"><ele>301.0</ele><time>2026-04-04T08:46:12Z</time></trkpt><trkpt lat="42.752053213853785" lon="12.849097606614658"><ele>302.0</ele><time>2026-04-04T08:46:13Z</time></trkpt><trkpt lat="42.752166085111384" lon="12.84927908364597"><ele>303.0</ele><time>2026-04-04T08:46:14Z</time></trkpt><trkpt lat="42.75228576255782" lon="12.849457608641696"><ele>303.0</ele><time>2026-04-04T08:46:15Z</time></trkpt><trkpt lat="42.752404397111455" lon="12.849631633024014"><ele>303.0</ele><time>2026-04-04T08:46:16Z</time></trkpt><trkpt lat="42.75252504734813" lon="12.849802478203708"><ele>303.0</ele><time>2026-04-04T08:46:17Z</time></trkpt><trkpt lat="42.752645776414" lon="12.849966600981116"><ele>305.0</ele><time>2026-04-04T08:46:18Z</time></trkpt><trkpt lat="42.75277324613772" lon="12.85012227225167"><ele>307.0</ele><time>2026-04-04T08:46:19Z</time></trkpt><trkpt lat="42.75289868396736" lon="12.85026805669103"><ele>309.0</ele><time>2026-04-04T08:46:20Z</time></trkpt><trkpt lat="42.7530217990814" lon="12.85040370409883"><ele>309.0</ele><time>2026-04-04T08:46:21Z</time></trkpt><trkpt lat="42.75314234816916" lon="12.8505454150475"><ele>309.0</ele><time>2026-04-04T08:46:22Z</time></trkpt><trkpt lat="42.75325862494382" lon="12.850687615255438"><ele>309.0</ele><time>2026-04-04T08:46:23Z</time></trkpt><trkpt lat="42.75336127588809" lon="12.850826047063963"><ele>309.0</ele><time>2026-04-04T08:46:24Z</time></trkpt><trkpt lat="42.75346971164937" lon="12.850955015697851"><ele>309.0</ele><time>2026-04-04T08:46:25Z</time></trkpt><trkpt lat="42.75358061672261" lon="12.851094882392685"><ele>309.0</ele><time>2026-04-04T08:46:26Z</time></trkpt><trkpt lat="42.7536638528399" lon="12.851259298284303"><ele>309.0</ele><time>2026-04-04T08:46:27Z</time></trkpt><trkpt lat="42.753730465507026" lon="12.851449399170319"><ele>315.0</ele><time>2026-04-04T08:46:28Z</time></trkpt><trkpt lat="42.75378355644508" lon="12.851626259596518"><ele>321.0</ele><time>2026-04-04T08:46:29Z</time></trkpt><trkpt lat="42.753830706821056" lon="12.85182020426564"><ele>327.0</ele><time>2026-04-04T08:46:30Z</time></trkpt><trkpt lat="42.753875011229724" lon="12.852085613040181"><ele>327.0</ele><time>2026-04-04T08:46:31Z</time></trkpt><trkpt lat="42.75390785652821" lon="12.852299613061497"><ele>327.0</ele><time>2026-04-04T08:46:32Z</time></trkpt><trkpt lat="42.753938708343384" lon="12.852500491862289"><ele>327.0</ele><time>2026-04-04T08:46:33Z</time></trkpt><trkpt lat="42.75397142332378" lon="12.852706257951358"><ele>325.6666666666667</ele><time>2026-04-04T08:46:34Z</time></trkpt><trkpt lat="42.754010600983925" lon="12.852925452822543"><ele>324.33333333333337</ele><time>2026-04-04T08:46:35Z</time></trkpt><trkpt lat="42.7540532088229" lon="12.853146982597105"><ele>323.0</ele><time>2026-04-04T08:46:36Z</time></trkpt><trkpt lat="42.75409767493884" lon="12.85336490666738"><ele>319.33333333333337</ele><time>2026-04-04T08:46:37Z</time></trkpt><trkpt lat="42.75414383797745" lon="12.853577421103797"><ele>315.6666666666667</ele><time>2026-04-04T08:46:38Z</time></trkpt><trkpt lat="42.7541900725343" lon="12.853785736408874"><ele>312.0</ele><time>2026-04-04T08:46:39Z</time></trkpt><trkpt lat="42.75423807871622" lon="12.853989523853656"><ele>312.0</ele><time>2026-04-04T08:46:40Z</time></trkpt><trkpt lat="42.75430872000507" lon="12.854212408866179"><ele>312.0</ele><time>2026-04-04T08:46:41Z</time></trkpt><trkpt lat="42.754386307646584" lon="12.85438875371665"><ele>312.0</ele><time>2026-04-04T08:46:42Z</time></trkpt><trkpt lat="42.75448188183879" lon="12.854573881042555"><ele>317.6666666666667</ele><time>2026-04-04T08:46:43Z</time></trkpt><trkpt lat="42.75457210015931" lon="12.854753131387325"><ele>323.33333333333337</ele><time>2026-04-04T08:46:44Z</time></trkpt><trkpt lat="42.754655633919285" lon="12.854921400593746"><ele>329.0</ele><time>2026-04-04T08:46:45Z</time></trkpt><trkpt lat="42.75474158160111" lon="12.855095146593921"><ele>324.0</ele><time>2026-04-04T08:46:46Z</time></trkpt><trkpt lat="42.75482123500707" lon="12.85525193578955"><ele>319.0</ele><time>2026-04-04T08:46:47Z</time></trkpt><trkpt lat="42.754918013287266" lon="12.855378816800474"><ele>314.0</ele><time>2026-04-04T08:46:48Z</time></trkpt><trkpt lat="42.75502383588891" lon="12.855518091250259"><ele>309.0</ele><time>2026-04-04T08:46:49Z</time></trkpt><trkpt lat="42.7551261780843" lon="12.85560396845403"><ele>314.75</ele><time>2026-04-04T08:46:50Z</time></trkpt><trkpt lat="42.755271158933574" lon="12.855702689203262"><ele>320.5</ele><time>2026-04-04T08:46:51Z</time></trkpt><trkpt lat="42.75539280976092" lon="12.855792089152652"><ele>326.25</ele><time>2026-04-04T08:46:52Z</time></trkpt><trkpt lat="42.75552711083599" lon="12.855856384031936"><ele>332.0</ele><time>2026-04-04T08:46:53Z</time></trkpt><trkpt lat="42.755641305810954" lon="12.855910133708962"><ele>334.5</ele><time>2026-04-04T08:46:54Z</time></trkpt><trkpt lat="42.75577505167509" lon="12.856009954868936"><ele>337.0</ele><time>2026-04-04T08:46:55Z</time></trkpt><trkpt lat="42.75589080491452" lon="12.856126376895249"><ele>339.5</ele><time>2026-04-04T08:46:56Z</time></trkpt><trkpt lat="42.75597710138657" lon="12.856287582500233"><ele>342.0</ele><time>2026-04-04T08:46:57Z</time></trkpt><trkpt lat="42.75605605983293" lon="12.856448147396454"><ele>342.0</ele><time>2026-04-04T08:46:58Z</time></trkpt><trkpt lat="42.756127826462965" lon="12.856626646029932"><ele>342.0</ele><time>2026-04-04T08:46:59Z</time></trkpt><trkpt lat="42.7561961900108" lon="12.856807154508308"><ele>342.0</ele><time>2026-04-04T08:47:00Z</time></trkpt><trkpt lat="42.756263980938996" lon="12.856982913299086"><ele>342.0</ele><time>2026-04-04T08:47:01Z</time></trkpt><trkpt lat="42.75634732229795" lon="12.857133026903336"><ele>335.75</ele><time>2026-04-04T08:47:02Z</time></trkpt><trkpt lat="42.75642082945812" lon="12.857278518006169"><ele>329.5</ele><time>2026-04-04T08:47:03Z</time></trkpt><trkpt lat="42.75651806029314" lon="12.857417810089546"><ele>323.25</ele><time>2026-04-04T08:47:04Z</time></trkpt><trkpt lat="42.75664224431663" lon="12.857493090605987"><ele>317.0</ele><time>2026-04-04T08:47:05Z</time></trkpt><trkpt lat="42.75678384287729" lon="12.857539792279061"><ele>319.75</ele><time>2026-04-04T08:47:06Z</time></trkpt><trkpt lat="42.756919348844164" lon="12.85756481244527"><ele>322.5</ele><time>2026-04-04T08:47:07Z</time></trkpt><trkpt lat="42.75706131388986" lon="12.857580429549504"><ele>325.25</ele><time>2026-04-04T08:47:08Z</time></trkpt><trkpt lat="42.75721548543905" lon="12.857585863019375"><ele>328.0</ele><time>2026-04-04T08:47:09Z</time></trkpt><trkpt lat="42.757365916571395" lon="12.85760074051739"><ele>321.3333333333333</ele><time>2026-04-04T08:47:10Z</time></trkpt><trkpt lat="42.75751763000605" lon="12.85762791388451"><ele>314.6666666666667</ele><time>2026-04-04T08:47:11Z</time></trkpt><trkpt lat="42.75767825136567" lon="12.857658296063741"><ele>308.0</ele><time>2026-04-04T08:47:12Z</time></trkpt><trkpt lat="42.757846172383864" lon="12.8577165348072"><ele>308.0</ele><time>2026-04-04T08:47:13Z</time></trkpt><trkpt lat="42.758004277591084" lon="12.857757371226914"><ele>308.0</ele><time>2026-04-04T08:47:14Z</time></trkpt><trkpt lat="42.758173301945185" lon="12.857853481526416"><ele>308.0</ele><time>2026-04-04T08:47:15Z</time></trkpt><trkpt lat="42.758333121749054" lon="12.857925196267225"><ele>308.0</ele><time>2026-04-04T08:47:16Z</time></trkpt><trkpt lat="42.758498105921404" lon="12.85797698263378"><ele>308.0</ele><time>2026-04-04T08:47:17Z</time></trkpt><trkpt lat="42.75865585879379" lon="12.858060765923806"><ele>308.0</ele><time>2026-04-04T08:47:18Z</time></trkpt><trkpt lat="42.75881613404591" lon="12.858143035774813"><ele>311.0</ele><time>2026-04-04T08:47:19Z</time></trkpt><trkpt lat="42.75895325480433" lon="12.858204909669775"><ele>314.0</ele><time>2026-04-04T08:47:20Z</time></trkpt><trkpt lat="42.75910134373272" lon="12.858250095944099"><ele>317.0</ele><time>2026-04-04T08:47:21Z</time></trkpt><trkpt lat="42.75924422554756" lon="12.858336205835977"><ele>314.0</ele><time>2026-04-04T08:47:22Z</time></trkpt><trkpt lat="42.759387936410484" lon="12.858400027186699"><ele>311.0</ele><time>2026-04-04T08:47:23Z</time></trkpt><trkpt lat="42.759535878511635" lon="12.858447416835846"><ele>308.0</ele><time>2026-04-04T08:47:24Z</time></trkpt><trkpt lat="42.75967778862206" lon="12.858517719052754"><ele>308.0</ele><time>2026-04-04T08:47:25Z</time></trkpt><trkpt lat="42.75983844283271" lon="12.858561771763942"><ele>308.0</ele><time>2026-04-04T08:47:26Z</time></trkpt><trkpt lat="42.75998264441963" lon="12.858631967886954"><ele>308.0</ele><time>2026-04-04T08:47:27Z</time></trkpt><trkpt lat="42.76012834954515" lon="12.858700240143"><ele>313.33333333333337</ele><time>2026-04-04T08:47:28Z</time></trkpt><trkpt lat="42.76028003246338" lon="12.858770826302832"><ele>318.6666666666667</ele><time>2026-04-04T08:47:29Z</time></trkpt><trkpt lat="42.76043410338661" lon="12.85884538719849"><ele>324.0</ele><time>2026-04-04T08:47:30Z</time></trkpt><trkpt lat="42.76059319518358" lon="12.85892458097211"><ele>324.0</ele><time>2026-04-04T08:47:31Z</time></trkpt><trkpt lat="42.760749035723954" lon="12.859002766414946"><ele>324.0</ele><time>2026-04-04T08:47:32Z</time></trkpt><trkpt lat="42.76090456945752" lon="12.859086506485154"><ele>324.0</ele><time>2026-04-04T08:47:33Z</time></trkpt><trkpt lat="42.761060641545306" lon="12.85917415728314"><ele>320.0</ele><time>2026-04-04T08:47:34Z</time></trkpt><trkpt lat="42.76121872284667" lon="12.859313187198342"><ele>316.0</ele><time>2026-04-04T08:47:35Z</time></trkpt><trkpt lat="42.76137079932174" lon="12.859376559998045"><ele>312.0</ele><time>2026-04-04T08:47:36Z</time></trkpt><trkpt lat="42.76152669808008" lon="12.85947457892203"><ele>312.0</ele><time>2026-04-04T08:47:37Z</time></trkpt><trkpt lat="42.761671750782334" lon="12.859561355569097"><ele>312.0</ele><time>2026-04-04T08:47:38Z</time></trkpt><trkpt lat="42.76182986691424" lon="12.859670757960078"><ele>312.0</ele><time>2026-04-04T08:47:39Z</time></trkpt><trkpt lat="42.76198858854532" lon="12.859777847783038"><ele>316.3333333333333</ele><time>2026-04-04T08:47:40Z</time></trkpt><trkpt lat="42.762145810136026" lon="12.859881137260738"><ele>320.66666666666663</ele><time>2026-04-04T08:47:41Z</time></trkpt><trkpt lat="42.762299514045445" lon="12.859987751647305"><ele>325.0</ele><time>2026-04-04T08:47:42Z</time></trkpt><trkpt lat="42.76245773231261" lon="12.860093036699183"><ele>323.3333333333333</ele><time>2026-04-04T08:47:43Z</time></trkpt><trkpt lat="42.76261307580863" lon="12.860192653922915"><ele>321.6666666666667</ele><time>2026-04-04T08:47:44Z</time></trkpt><trkpt lat="42.76276659778378" lon="12.860295958490289"><ele>320.0</ele><time>2026-04-04T08:47:45Z</time></trkpt><trkpt lat="42.76291426955803" lon="12.86039661757183"><ele>320.0</ele><time>2026-04-04T08:47:46Z</time></trkpt><trkpt lat="42.76306321456841" lon="12.860469880804787"><ele>320.0</ele><time>2026-04-04T08:47:47Z</time></trkpt><trkpt lat="42.76321726570378" lon="12.860579012030898"><ele>320.0</ele><time>2026-04-04T08:47:48Z</time></trkpt><trkpt lat="42.763368669602215" lon="12.860682135454615"><ele>320.0</ele><time>2026-04-04T08:47:49Z</time></trkpt><trkpt lat="42.76351956932063" lon="12.860783135714161"><ele>320.0</ele><time>2026-04-04T08:47:50Z</time></trkpt><trkpt lat="42.763672009168566" lon="12.860899349861796"><ele>320.0</ele><time>2026-04-04T08:47:51Z</time></trkpt><trkpt lat="42.7638285371531" lon="12.861010816393286"><ele>317.0</ele><time>2026-04-04T08:47:52Z</time></trkpt><trkpt lat="42.76397502180024" lon="12.86107739208829"><ele>314.0</ele><time>2026-04-04T08:47:53Z</time></trkpt><trkpt lat="42.764123879434166" lon="12.86116293866398"><ele>311.0</ele><time>2026-04-04T08:47:54Z</time></trkpt><trkpt lat="42.76426653277123" lon="12.86125409580167"><ele>313.0</ele><time>2026-04-04T08:47:55Z</time></trkpt><trkpt lat="42.76441804468429" lon="12.861336966345364"><ele>315.0</ele><time>2026-04-04T08:47:56Z</time></trkpt><trkpt lat="42.764569070977196" lon="12.861410098777439"><ele>317.0</ele><time>2026-04-04T08:47:57Z</time></trkpt><trkpt lat="42.764734133085575" lon="12.861454369568992"><ele>317.0</ele><time>2026-04-04T08:47:58Z</time></trkpt><trkpt lat="42.76489567363047" lon="12.861483860019538"><ele>317.0</ele><time>2026-04-04T08:47:59Z</time></trkpt><trkpt lat="42.76506175409673" lon="12.861496032231777"><ele>317.0</ele><time>2026-04-04T08:48:00Z</time></trkpt><trkpt lat="42.76522898733969" lon="12.861504682800431"><ele>316.33333333333337</ele><time>2026-04-04T08:48:01Z</time></trkpt><trkpt lat="42.76539707608364" lon="12.861515900745635"><ele>315.6666666666667</ele><time>2026-04-04T08:48:02Z</time></trkpt><trkpt lat="42.76555773630443" lon="12.861550394593293"><ele>315.0</ele><time>2026-04-04T08:48:03Z</time></trkpt><trkpt lat="42.76571964896375" lon="12.861621306754271"><ele>315.0</ele><time>2026-04-04T08:48:04Z</time></trkpt><trkpt lat="42.7658713467468" lon="12.861705818829211"><ele>315.0</ele><time>2026-04-04T08:48:05Z</time></trkpt><trkpt lat="42.76602063526932" lon="12.861806991568663"><ele>315.0</ele><time>2026-04-04T08:48:06Z</time></trkpt><trkpt lat="42.766168077365734" lon="12.861903559349685"><ele>314.0</ele><time>2026-04-04T08:48:07Z</time></trkpt><trkpt lat="42.76631879600746" lon="12.861997140716676"><ele>313.0</ele><time>2026-04-04T08:48:08Z</time></trkpt><trkpt lat="42.76646977270097" lon="12.86208743710633"><ele>312.0</ele><time>2026-04-04T08:48:09Z</time></trkpt><trkpt lat="42.766617700085526" lon="12.862179287612639"><ele>312.0</ele><time>2026-04-04T08:48:10Z</time></trkpt><trkpt lat="42.76676088361113" lon="12.862275302850312"><ele>312.0</ele><time>2026-04-04T08:48:11Z</time></trkpt><trkpt lat="42.76690839257406" lon="12.862367619550614"><ele>312.0</ele><time>2026-04-04T08:48:12Z</time></trkpt><trkpt lat="42.76703543584638" lon="12.86246294097256"><ele>312.5</ele><time>2026-04-04T08:48:13Z</time></trkpt><trkpt lat="42.76716855694808" lon="12.862555323756354"><ele>313.0</ele><time>2026-04-04T08:48:14Z</time></trkpt><trkpt lat="42.76730369448196" lon="12.862649315549262"><ele>313.5</ele><time>2026-04-04T08:48:15Z</time></trkpt><trkpt lat="42.76743655150835" lon="12.862739248464981"><ele>314.0</ele><time>2026-04-04T08:48:16Z</time></trkpt><trkpt lat="42.767567464687566" lon="12.862830776929822"><ele>314.0</ele><time>2026-04-04T08:48:17Z</time></trkpt><trkpt lat="42.76770055658094" lon="12.86292452069733"><ele>314.0</ele><time>2026-04-04T08:48:18Z</time></trkpt><trkpt lat="42.76783525729585" lon="12.863015753356803"><ele>314.0</ele><time>2026-04-04T08:48:19Z</time></trkpt><trkpt lat="42.76797176749903" lon="12.863109222849719"><ele>314.0</ele><time>2026-04-04T08:48:20Z</time></trkpt><trkpt lat="42.76810614722898" lon="12.863200372946146"><ele>314.0</ele><time>2026-04-04T08:48:21Z</time></trkpt><trkpt lat="42.768240636939275" lon="12.863292760542725"><ele>314.0</ele><time>2026-04-04T08:48:22Z</time></trkpt><trkpt lat="42.76837507986085" lon="12.863386754570117"><ele>314.33333333333337</ele><time>2026-04-04T08:48:23Z</time></trkpt><trkpt lat="42.76851293829027" lon="12.86348374585467"><ele>314.6666666666667</ele><time>2026-04-04T08:48:24Z</time></trkpt><trkpt lat="42.768649953092314" lon="12.863573061083052"><ele>315.0</ele><time>2026-04-04T08:48:25Z</time></trkpt><trkpt lat="42.768785935261704" lon="12.863661379338197"><ele>315.0</ele><time>2026-04-04T08:48:26Z</time></trkpt><trkpt lat="42.76892366145687" lon="12.863752041794289"><ele>315.0</ele><time>2026-04-04T08:48:27Z</time></trkpt><trkpt lat="42.769057694682964" lon="12.863847775876728"><ele>315.0</ele><time>2026-04-04T08:48:28Z</time></trkpt><trkpt lat="42.76919331538598" lon="12.863941672370629"><ele>315.0</ele><time>2026-04-04T08:48:29Z</time></trkpt><trkpt lat="42.76932946894312" lon="12.864030991619678"><ele>315.0</ele><time>2026-04-04T08:48:30Z</time></trkpt><trkpt lat="42.76946450864728" lon="12.864124810237678"><ele>315.0</ele><time>2026-04-04T08:48:31Z</time></trkpt><trkpt lat="42.769605242073" lon="12.864217078024755"><ele>316.6666666666667</ele><time>2026-04-04T08:48:32Z</time></trkpt><trkpt lat="42.76975946585722" lon="12.864306379093872"><ele>318.33333333333337</ele><time>2026-04-04T08:48:33Z</time></trkpt><trkpt lat="42.769923155011995" lon="12.86440572041878"><ele>320.0</ele><time>2026-04-04T08:48:34Z</time></trkpt><trkpt lat="42.77009910889093" lon="12.864513973474484"><ele>321.6666666666667</ele><time>2026-04-04T08:48:35Z</time></trkpt><trkpt lat="42.77028302393434" lon="12.86462404374638"><ele>323.3333333333333</ele><time>2026-04-04T08:48:36Z</time></trkpt><trkpt lat="42.770473298119235" lon="12.864736900015714"><ele>325.0</ele><time>2026-04-04T08:48:37Z</time></trkpt><trkpt lat="42.77067044944214" lon="12.864849560477206"><ele>325.0</ele><time>2026-04-04T08:48:38Z</time></trkpt><trkpt lat="42.77086921232843" lon="12.864960844633485"><ele>325.0</ele><time>2026-04-04T08:48:39Z</time></trkpt><trkpt lat="42.77107143999" lon="12.865071788378101"><ele>325.0</ele><time>2026-04-04T08:48:40Z</time></trkpt><trkpt lat="42.77127136140639" lon="12.865188411518462"><ele>324.0</ele><time>2026-04-04T08:48:41Z</time></trkpt><trkpt lat="42.7714714687868" lon="12.86530232932552"><ele>323.0</ele><time>2026-04-04T08:48:42Z</time></trkpt><trkpt lat="42.771670421623675" lon="12.865416679869726"><ele>322.0</ele><time>2026-04-04T08:48:43Z</time></trkpt><trkpt lat="42.77187058159051" lon="12.865525299932553"><ele>322.0</ele><time>2026-04-04T08:48:44Z</time></trkpt><trkpt lat="42.7720652055423" lon="12.865640491939207"><ele>322.0</ele><time>2026-04-04T08:48:45Z</time></trkpt><trkpt lat="42.77226088940159" lon="12.865749837533457"><ele>322.0</ele><time>2026-04-04T08:48:46Z</time></trkpt><trkpt lat="42.77245488396796" lon="12.86585993842454"><ele>321.0</ele><time>2026-04-04T08:48:47Z</time></trkpt><trkpt lat="42.772648349532204" lon="12.865967319276468"><ele>320.0</ele><time>2026-04-04T08:48:48Z</time></trkpt><trkpt lat="42.772838061466175" lon="12.866072712342413"><ele>319.0</ele><time>2026-04-04T08:48:49Z</time></trkpt><trkpt lat="42.7730313230752" lon="12.866172749311293"><ele>319.0</ele><time>2026-04-04T08:48:50Z</time></trkpt><trkpt lat="42.7732264573268" lon="12.866260752288596"><ele>319.0</ele><time>2026-04-04T08:48:51Z</time></trkpt><trkpt lat="42.7734212490968" lon="12.866331318496304"><ele>319.0</ele><time>2026-04-04T08:48:52Z</time></trkpt><trkpt lat="42.77361599281405" lon="12.866387538786569"><ele>320.3333333333333</ele><time>2026-04-04T08:48:53Z</time></trkpt><trkpt lat="42.77381149734598" lon="12.866433291139144"><ele>321.6666666666667</ele><time>2026-04-04T08:48:54Z</time></trkpt><trkpt lat="42.77400082580861" lon="12.866469860929593"><ele>323.0</ele><time>2026-04-04T08:48:55Z</time></trkpt><trkpt lat="42.77418796401218" lon="12.866490256611197"><ele>326.0</ele><time>2026-04-04T08:48:56Z</time></trkpt><trkpt lat="42.77437265346526" lon="12.866515828723477"><ele>329.0</ele><time>2026-04-04T08:48:57Z</time></trkpt><trkpt lat="42.774554065649006" lon="12.866546594937638"><ele>332.0</ele><time>2026-04-04T08:48:58Z</time></trkpt><trkpt lat="42.77472871888066" lon="12.866592213558608"><ele>332.0</ele><time>2026-04-04T08:48:59Z</time></trkpt><trkpt lat="42.7749011680623" lon="12.866639550941825"><ele>332.0</ele><time>2026-04-04T08:49:00Z</time></trkpt><trkpt lat="42.775072897962346" lon="12.866698974142638"><ele>332.0</ele><time>2026-04-04T08:49:01Z</time></trkpt><trkpt lat="42.77523655727439" lon="12.866767696025576"><ele>327.6666666666667</ele><time>2026-04-04T08:49:02Z</time></trkpt><trkpt lat="42.77541139027049" lon="12.866820373719229"><ele>323.3333333333333</ele><time>2026-04-04T08:49:03Z</time></trkpt><trkpt lat="42.775579979252285" lon="12.866877168308061"><ele>319.0</ele><time>2026-04-04T08:49:04Z</time></trkpt><trkpt lat="42.77574977479565" lon="12.866935975450566"><ele>319.0</ele><time>2026-04-04T08:49:05Z</time></trkpt><trkpt lat="42.77592208478715" lon="12.867002391030862"><ele>319.0</ele><time>2026-04-04T08:49:06Z</time></trkpt><trkpt lat="42.77608975224557" lon="12.867084976813773"><ele>319.0</ele><time>2026-04-04T08:49:07Z</time></trkpt><trkpt lat="42.77625987991333" lon="12.867174562908934"><ele>323.0</ele><time>2026-04-04T08:49:08Z</time></trkpt><trkpt lat="42.776420577063426" lon="12.867293179028083"><ele>327.0</ele><time>2026-04-04T08:49:09Z</time></trkpt><trkpt lat="42.77657062014738" lon="12.867433119214006"><ele>331.0</ele><time>2026-04-04T08:49:10Z</time></trkpt><trkpt lat="42.776727626201044" lon="12.867555136561299"><ele>328.66666666666663</ele><time>2026-04-04T08:49:11Z</time></trkpt><trkpt lat="42.776885526113816" lon="12.86767859032896"><ele>326.3333333333333</ele><time>2026-04-04T08:49:12Z</time></trkpt><trkpt lat="42.777039910103234" lon="12.867798651179907"><ele>324.0</ele><time>2026-04-04T08:49:13Z</time></trkpt><trkpt lat="42.77719281828882" lon="12.86788142936417"><ele>324.0</ele><time>2026-04-04T08:49:14Z</time></trkpt><trkpt lat="42.77734132562215" lon="12.86795654315409"><ele>324.0</ele><time>2026-04-04T08:49:15Z</time></trkpt><trkpt lat="42.77748997937956" lon="12.867981637391058"><ele>324.0</ele><time>2026-04-04T08:49:16Z</time></trkpt><trkpt lat="42.77766832498092" lon="12.867984883402295"><ele>324.0</ele><time>2026-04-04T08:49:17Z</time></trkpt><trkpt lat="42.7778337642286" lon="12.867980514971672"><ele>324.0</ele><time>2026-04-04T08:49:18Z</time></trkpt><trkpt lat="42.7780006506384" lon="12.867966241754633"><ele>324.0</ele><time>2026-04-04T08:49:19Z</time></trkpt><trkpt lat="42.778166687491954" lon="12.867953728599767"><ele>324.0</ele><time>2026-04-04T08:49:20Z</time></trkpt><trkpt lat="42.77833714165294" lon="12.867951177178682"><ele>324.0</ele><time>2026-04-04T08:49:21Z</time></trkpt><trkpt lat="42.77850472020358" lon="12.86795913091028"><ele>324.0</ele><time>2026-04-04T08:49:22Z</time></trkpt><trkpt lat="42.77869232026639" lon="12.868005253151557"><ele>325.6666666666667</ele><time>2026-04-04T08:49:23Z</time></trkpt><trkpt lat="42.778875983302" lon="12.86806520064795"><ele>327.33333333333337</ele><time>2026-04-04T08:49:24Z</time></trkpt><trkpt lat="42.77906265905181" lon="12.868121128683516"><ele>329.0</ele><time>2026-04-04T08:49:25Z</time></trkpt><trkpt lat="42.77925434362857" lon="12.86817890242107"><ele>330.0</ele><time>2026-04-04T08:49:26Z</time></trkpt><trkpt lat="42.77944370875626" lon="12.868239998211324"><ele>331.0</ele><time>2026-04-04T08:49:27Z</time></trkpt><trkpt lat="42.77963149775012" lon="12.868321913605618"><ele>332.0</ele><time>2026-04-04T08:49:28Z</time></trkpt><trkpt lat="42.77982376461281" lon="12.868385284092458"><ele>328.6666666666667</ele><time>2026-04-04T08:49:29Z</time></trkpt><trkpt lat="42.78000670471174" lon="12.868444544004"><ele>325.3333333333333</ele><time>2026-04-04T08:49:30Z</time></trkpt><trkpt lat="42.78018958375282" lon="12.868485364257303"><ele>322.0</ele><time>2026-04-04T08:49:31Z</time></trkpt><trkpt lat="42.780370211644495" lon="12.868542426613416"><ele>322.0</ele><time>2026-04-04T08:49:32Z</time></trkpt><trkpt lat="42.780545491317994" lon="12.868619649602458"><ele>322.0</ele><time>2026-04-04T08:49:33Z</time></trkpt><trkpt lat="42.78070499564454" lon="12.868671788946807"><ele>322.0</ele><time>2026-04-04T08:49:34Z</time></trkpt><trkpt lat="42.780870034525016" lon="12.868725737476"><ele>323.0</ele><time>2026-04-04T08:49:35Z</time></trkpt><trkpt lat="42.781028845784306" lon="12.868777357618322"><ele>324.0</ele><time>2026-04-04T08:49:36Z</time></trkpt><trkpt lat="42.7811879863891" lon="12.86878692253256"><ele>325.0</ele><time>2026-04-04T08:49:37Z</time></trkpt><trkpt lat="42.78134599020002" lon="12.868794181456272"><ele>325.0</ele><time>2026-04-04T08:49:38Z</time></trkpt><trkpt lat="42.781502532548316" lon="12.868807678240868"><ele>325.0</ele><time>2026-04-04T08:49:39Z</time></trkpt><trkpt lat="42.781655218112405" lon="12.868813674680382"><ele>325.0</ele><time>2026-04-04T08:49:40Z</time></trkpt><trkpt lat="42.78179831788496" lon="12.868865762515428"><ele>329.0</ele><time>2026-04-04T08:49:41Z</time></trkpt><trkpt lat="42.781934004317066" lon="12.868951863294896"><ele>333.0</ele><time>2026-04-04T08:49:42Z</time></trkpt><trkpt lat="42.78204961094463" lon="12.869075106727177"><ele>337.0</ele><time>2026-04-04T08:49:43Z</time></trkpt><trkpt lat="42.782168046327484" lon="12.869210087850197"><ele>332.66666666666663</ele><time>2026-04-04T08:49:44Z</time></trkpt><trkpt lat="42.782287871720015" lon="12.86933907127588"><ele>328.3333333333333</ele><time>2026-04-04T08:49:45Z</time></trkpt><trkpt lat="42.78241212708697" lon="12.869458651757895"><ele>324.0</ele><time>2026-04-04T08:49:46Z</time></trkpt><trkpt lat="42.78254431614069" lon="12.8695737732963"><ele>324.0</ele><time>2026-04-04T08:49:47Z</time></trkpt><trkpt lat="42.78267153127068" lon="12.86968427302969"><ele>324.0</ele><time>2026-04-04T08:49:48Z</time></trkpt><trkpt lat="42.78279583877608" lon="12.869802450799316"><ele>324.0</ele><time>2026-04-04T08:49:49Z</time></trkpt><trkpt lat="42.782908019860585" lon="12.86993260152257"><ele>326.0</ele><time>2026-04-04T08:49:50Z</time></trkpt><trkpt lat="42.78300565567673" lon="12.87008464504064"><ele>328.0</ele><time>2026-04-04T08:49:51Z</time></trkpt><trkpt lat="42.783083205799244" lon="12.870265082829576"><ele>330.0</ele><time>2026-04-04T08:49:52Z</time></trkpt><trkpt lat="42.78314635773028" lon="12.870458991648377"><ele>330.6666666666667</ele><time>2026-04-04T08:49:53Z</time></trkpt><trkpt lat="42.78320841126188" lon="12.870659521310321"><ele>331.33333333333337</ele><time>2026-04-04T08:49:54Z</time></trkpt><trkpt lat="42.783271181921684" lon="12.870862445743231"><ele>332.0</ele><time>2026-04-04T08:49:55Z</time></trkpt><trkpt lat="42.783334395583935" lon="12.87106284654455"><ele>332.0</ele><time>2026-04-04T08:49:56Z</time></trkpt><trkpt lat="42.78339583573529" lon="12.871268399218172"><ele>332.0</ele><time>2026-04-04T08:49:57Z</time></trkpt><trkpt lat="42.78344952658804" lon="12.87147871084514"><ele>332.0</ele><time>2026-04-04T08:49:58Z</time></trkpt><trkpt lat="42.78347357598315" lon="12.871690265806834"><ele>332.0</ele><time>2026-04-04T08:49:59Z</time></trkpt><trkpt lat="42.7834751357915" lon="12.871908360201443"><ele>332.0</ele><time>2026-04-04T08:50:00Z</time></trkpt><trkpt lat="42.783473314145375" lon="12.87212540965311"><ele>332.0</ele><time>2026-04-04T08:50:01Z</time></trkpt><trkpt lat="42.783471049017244" lon="12.872331989370908"><ele>332.0</ele><time>2026-04-04T08:50:02Z</time></trkpt><trkpt lat="42.783467914506055" lon="12.872535478358746"><ele>332.0</ele><time>2026-04-04T08:50:03Z</time></trkpt><trkpt lat="42.78346481883645" lon="12.872736472440756"><ele>332.0</ele><time>2026-04-04T08:50:04Z</time></trkpt><trkpt lat="42.783468184299714" lon="12.872927688633794"><ele>332.0</ele><time>2026-04-04T08:50:05Z</time></trkpt><trkpt lat="42.7834942360558" lon="12.87311237583419"><ele>330.25</ele><time>2026-04-04T08:50:06Z</time></trkpt><trkpt lat="42.783559848487236" lon="12.873273424594002"><ele>328.5</ele><time>2026-04-04T08:50:07Z</time></trkpt><trkpt lat="42.78366553308906" lon="12.873387957928875"><ele>326.75</ele><time>2026-04-04T08:50:08Z</time></trkpt><trkpt lat="42.7837679781858" lon="12.873504999185773"><ele>325.0</ele><time>2026-04-04T08:50:09Z</time></trkpt><trkpt lat="42.78388120857633" lon="12.873613020167475"><ele>325.0</ele><time>2026-04-04T08:50:10Z</time></trkpt><trkpt lat="42.78399737110717" lon="12.873717474572919"><ele>325.0</ele><time>2026-04-04T08:50:11Z</time></trkpt><trkpt lat="42.784123569949664" lon="12.873806343764558"><ele>325.0</ele><time>2026-04-04T08:50:12Z</time></trkpt><trkpt lat="42.78426518007384" lon="12.873862620093686"><ele>325.0</ele><time>2026-04-04T08:50:13Z</time></trkpt><trkpt lat="42.78441748312194" lon="12.873883780533747"><ele>326.66666666666663</ele><time>2026-04-04T08:50:14Z</time></trkpt><trkpt lat="42.78456707265473" lon="12.873883490298493"><ele>328.3333333333333</ele><time>2026-04-04T08:50:15Z</time></trkpt><trkpt lat="42.784720331989405" lon="12.87387320024774"><ele>330.0</ele><time>2026-04-04T08:50:16Z</time></trkpt><trkpt lat="42.784871003770725" lon="12.873862452712238"><ele>330.0</ele><time>2026-04-04T08:50:17Z</time></trkpt><trkpt lat="42.785028600091636" lon="12.87386130314767"><ele>330.0</ele><time>2026-04-04T08:50:18Z</time></trkpt><trkpt lat="42.7851912312228" lon="12.873866441763871"><ele>330.0</ele><time>2026-04-04T08:50:19Z</time></trkpt><trkpt lat="42.78535652258571" lon="12.873868909312485"><ele>331.6666666666667</ele><time>2026-04-04T08:50:20Z</time></trkpt><trkpt lat="42.785515297071214" lon="12.873920067360565"><ele>333.33333333333337</ele><time>2026-04-04T08:50:21Z</time></trkpt><trkpt lat="42.785666587407555" lon="12.873974548902044"><ele>335.0</ele><time>2026-04-04T08:50:22Z</time></trkpt><trkpt lat="42.785822060231666" lon="12.874053180668888"><ele>335.0</ele><time>2026-04-04T08:50:23Z</time></trkpt><trkpt lat="42.78597425311533" lon="12.874136690473458"><ele>335.0</ele><time>2026-04-04T08:50:24Z</time></trkpt><trkpt lat="42.78611413088005" lon="12.874217250166812"><ele>335.0</ele><time>2026-04-04T08:50:25Z</time></trkpt><trkpt lat="42.786242366923695" lon="12.874298213051565"><ele>336.0</ele><time>2026-04-04T08:50:26Z</time></trkpt><trkpt lat="42.7863628085111" lon="12.874395618783112"><ele>337.0</ele><time>2026-04-04T08:50:27Z</time></trkpt><trkpt lat="42.78647204123153" lon="12.8745176009454"><ele>338.0</ele><time>2026-04-04T08:50:28Z</time></trkpt><trkpt lat="42.7865701523425" lon="12.874655616062915"><ele>339.0</ele><time>2026-04-04T08:50:29Z</time></trkpt><trkpt lat="42.7866591691656" lon="12.874815939433065"><ele>339.0</ele><time>2026-04-04T08:50:30Z</time></trkpt><trkpt lat="42.7867320016566" lon="12.874989913206106"><ele>339.0</ele><time>2026-04-04T08:50:31Z</time></trkpt><trkpt lat="42.78678112168243" lon="12.87518169240778"><ele>339.0</ele><time>2026-04-04T08:50:32Z</time></trkpt><trkpt lat="42.78682801544798" lon="12.875388749938104"><ele>350.3333333333333</ele><time>2026-04-04T08:50:33Z</time></trkpt><trkpt lat="42.78687423123382" lon="12.875597162968031"><ele>361.66666666666663</ele><time>2026-04-04T08:50:34Z</time></trkpt><trkpt lat="42.7869174646938" lon="12.875802886464522"><ele>373.0</ele><time>2026-04-04T08:50:35Z</time></trkpt><trkpt lat="42.786960383875304" lon="12.87601202913717"><ele>373.0</ele><time>2026-04-04T08:50:36Z</time></trkpt><trkpt lat="42.787003931427854" lon="12.876224233039926"><ele>373.0</ele><time>2026-04-04T08:50:37Z</time></trkpt><trkpt lat="42.78704914317836" lon="12.876444546447107"><ele>373.0</ele><time>2026-04-04T08:50:38Z</time></trkpt><trkpt lat="42.787131979705684" lon="12.876648827078244"><ele>364.0</ele><time>2026-04-04T08:50:39Z</time></trkpt><trkpt lat="42.787175986001735" lon="12.876866319475257"><ele>355.0</ele><time>2026-04-04T08:50:40Z</time></trkpt><trkpt lat="42.78722011086533" lon="12.877083476661966"><ele>346.0</ele><time>2026-04-04T08:50:41Z</time></trkpt><trkpt lat="42.787272670712696" lon="12.877298022203801"><ele>346.0</ele><time>2026-04-04T08:50:42Z</time></trkpt><trkpt lat="42.78733393332478" lon="12.87752147803206"><ele>346.0</ele><time>2026-04-04T08:50:43Z</time></trkpt><trkpt lat="42.7874348093277" lon="12.877758376709549"><ele>346.0</ele><time>2026-04-04T08:50:44Z</time></trkpt><trkpt lat="42.78751463122747" lon="12.877984020075028"><ele>341.66666666666663</ele><time>2026-04-04T08:50:45Z</time></trkpt><trkpt lat="42.7875849413447" lon="12.878200794119644"><ele>337.3333333333333</ele><time>2026-04-04T08:50:46Z</time></trkpt><trkpt lat="42.787657331101734" lon="12.878420006244996"><ele>333.0</ele><time>2026-04-04T08:50:47Z</time></trkpt><trkpt lat="42.78771370074436" lon="12.878640625103928"><ele>338.3333333333333</ele><time>2026-04-04T08:50:48Z</time></trkpt><trkpt lat="42.78778366587694" lon="12.878865918809419"><ele>343.66666666666663</ele><time>2026-04-04T08:50:49Z</time></trkpt><trkpt lat="42.78785379617087" lon="12.879091551922368"><ele>349.0</ele><time>2026-04-04T08:50:50Z</time></trkpt><trkpt lat="42.787924896842114" lon="12.879320307043617"><ele>349.0</ele><time>2026-04-04T08:50:51Z</time></trkpt><trkpt lat="42.787994328097696" lon="12.879543691110117"><ele>349.0</ele><time>2026-04-04T08:50:52Z</time></trkpt><trkpt lat="42.78806356289771" lon="12.879764637459635"><ele>349.0</ele><time>2026-04-04T08:50:53Z</time></trkpt><trkpt lat="42.78812932988423" lon="12.879966479561503"><ele>344.3333333333333</ele><time>2026-04-04T08:50:54Z</time></trkpt><trkpt lat="42.78822371580647" lon="12.880154517170766"><ele>339.6666666666667</ele><time>2026-04-04T08:50:55Z</time></trkpt><trkpt lat="42.78834941614367" lon="12.880291507738868"><ele>335.0</ele><time>2026-04-04T08:50:56Z</time></trkpt><trkpt lat="42.788476542301694" lon="12.88041902267643"><ele>335.6666666666667</ele><time>2026-04-04T08:50:57Z</time></trkpt><trkpt lat="42.78862770800703" lon="12.880501480407494"><ele>336.3333333333333</ele><time>2026-04-04T08:50:58Z</time></trkpt><trkpt lat="42.788776427457265" lon="12.880570898161306"><ele>337.0</ele><time>2026-04-04T08:50:59Z</time></trkpt><trkpt lat="42.78892201445679" lon="12.880635119768593"><ele>337.0</ele><time>2026-04-04T08:51:00Z</time></trkpt><trkpt lat="42.78907908220706" lon="12.88069177566717"><ele>337.0</ele><time>2026-04-04T08:51:01Z</time></trkpt><trkpt lat="42.78921498764147" lon="12.880804545967305"><ele>337.0</ele><time>2026-04-04T08:51:02Z</time></trkpt><trkpt lat="42.789349873474556" lon="12.880923532788776"><ele>340.0</ele><time>2026-04-04T08:51:03Z</time></trkpt><trkpt lat="42.78947312517453" lon="12.881060053696455"><ele>343.0</ele><time>2026-04-04T08:51:04Z</time></trkpt><trkpt lat="42.789598325742034" lon="12.881208583338863"><ele>346.0</ele><time>2026-04-04T08:51:05Z</time></trkpt><trkpt lat="42.78971997172495" lon="12.881355843103192"><ele>346.0</ele><time>2026-04-04T08:51:06Z</time></trkpt><trkpt lat="42.78984807265549" lon="12.88151146512763"><ele>346.0</ele><time>2026-04-04T08:51:07Z</time></trkpt><trkpt lat="42.78997593044302" lon="12.881666791756325"><ele>346.0</ele><time>2026-04-04T08:51:08Z</time></trkpt><trkpt lat="42.79010574536386" lon="12.881824279390077"><ele>349.0</ele><time>2026-04-04T08:51:09Z</time></trkpt><trkpt lat="42.79023555244627" lon="12.881982341187651"><ele>352.0</ele><time>2026-04-04T08:51:10Z</time></trkpt><trkpt lat="42.79036213182357" lon="12.88214909439908"><ele>355.0</ele><time>2026-04-04T08:51:11Z</time></trkpt><trkpt lat="42.79047684961343" lon="12.882319991224689"><ele>355.0</ele><time>2026-04-04T08:51:12Z</time></trkpt><trkpt lat="42.7905890634657" lon="12.882504743882773"><ele>355.0</ele><time>2026-04-04T08:51:13Z</time></trkpt><trkpt lat="42.79069932097859" lon="12.882692346231584"><ele>355.0</ele><time>2026-04-04T08:51:14Z</time></trkpt><trkpt lat="42.79080576084531" lon="12.882878057602065"><ele>350.66666666666663</ele><time>2026-04-04T08:51:15Z</time></trkpt><trkpt lat="42.79090707947321" lon="12.883065569037537"><ele>346.3333333333333</ele><time>2026-04-04T08:51:16Z</time></trkpt><trkpt lat="42.79098980001973" lon="12.883264428057213"><ele>342.0</ele><time>2026-04-04T08:51:17Z</time></trkpt><trkpt lat="42.79103469539747" lon="12.883480105778377"><ele>353.6666666666667</ele><time>2026-04-04T08:51:18Z</time></trkpt><trkpt lat="42.79104717741485" lon="12.883709028791142"><ele>365.33333333333337</ele><time>2026-04-04T08:51:19Z</time></trkpt><trkpt lat="42.79104900599828" lon="12.883944799157266"><ele>377.0</ele><time>2026-04-04T08:51:20Z</time></trkpt><trkpt lat="42.791048885785756" lon="12.884165853545971"><ele>377.33333333333337</ele><time>2026-04-04T08:51:21Z</time></trkpt><trkpt lat="42.79104729117877" lon="12.884380555722775"><ele>377.6666666666667</ele><time>2026-04-04T08:51:22Z</time></trkpt><trkpt lat="42.79104463274016" lon="12.884599576250412"><ele>378.0</ele><time>2026-04-04T08:51:23Z</time></trkpt><trkpt lat="42.791041469897706" lon="12.884819691862768"><ele>378.0</ele><time>2026-04-04T08:51:24Z</time></trkpt><trkpt lat="42.79103905922992" lon="12.885030211705374"><ele>378.0</ele><time>2026-04-04T08:51:25Z</time></trkpt><trkpt lat="42.79103958573098" lon="12.88524299071787"><ele>378.0</ele><time>2026-04-04T08:51:26Z</time></trkpt><trkpt lat="42.79104818696739" lon="12.885441878003752"><ele>371.6666666666667</ele><time>2026-04-04T08:51:27Z</time></trkpt><trkpt lat="42.79109270283638" lon="12.885635379619982"><ele>365.33333333333337</ele><time>2026-04-04T08:51:28Z</time></trkpt><trkpt lat="42.791173749565864" lon="12.885810415823006"><ele>359.0</ele><time>2026-04-04T08:51:29Z</time></trkpt><trkpt lat="42.79128841649089" lon="12.885941958677863"><ele>353.6666666666667</ele><time>2026-04-04T08:51:30Z</time></trkpt><trkpt lat="42.7914097463991" lon="12.886073125902238"><ele>348.3333333333333</ele><time>2026-04-04T08:51:31Z</time></trkpt><trkpt lat="42.791531959594245" lon="12.886203906302761"><ele>343.0</ele><time>2026-04-04T08:51:32Z</time></trkpt><trkpt lat="42.791657030171045" lon="12.886336403363517"><ele>343.0</ele><time>2026-04-04T08:51:33Z</time></trkpt><trkpt lat="42.7917735348315" lon="12.886463388747977"><ele>343.0</ele><time>2026-04-04T08:51:34Z</time></trkpt><trkpt lat="42.79189168128876" lon="12.88659160534005"><ele>343.0</ele><time>2026-04-04T08:51:35Z</time></trkpt><trkpt lat="42.792012045019256" lon="12.886721936607465"><ele>342.3333333333333</ele><time>2026-04-04T08:51:36Z</time></trkpt><trkpt lat="42.792133665468015" lon="12.88685214124455"><ele>341.6666666666667</ele><time>2026-04-04T08:51:37Z</time></trkpt><trkpt lat="42.79226483643091" lon="12.886987833430439"><ele>341.0</ele><time>2026-04-04T08:51:38Z</time></trkpt><trkpt lat="42.79240283255964" lon="12.887117557202751"><ele>341.0</ele><time>2026-04-04T08:51:39Z</time></trkpt><trkpt lat="42.79254867135013" lon="12.887235935614843"><ele>341.0</ele><time>2026-04-04T08:51:40Z</time></trkpt><trkpt lat="42.792706150791396" lon="12.887344192311662"><ele>341.0</ele><time>2026-04-04T08:51:41Z</time></trkpt><trkpt lat="42.79288929684619" lon="12.887437452415263"><ele>339.0</ele><time>2026-04-04T08:51:42Z</time></trkpt><trkpt lat="42.79309682863984" lon="12.887519513465238"><ele>337.0</ele><time>2026-04-04T08:51:43Z</time></trkpt><trkpt lat="42.793323687015686" lon="12.887604879560323"><ele>338.0</ele><time>2026-04-04T08:51:44Z</time></trkpt><trkpt lat="42.79356511978312" lon="12.887691840933428"><ele>339.0</ele><time>2026-04-04T08:51:45Z</time></trkpt><trkpt lat="42.793821618274904" lon="12.887784369506159"><ele>339.0</ele><time>2026-04-04T08:51:46Z</time></trkpt><trkpt lat="42.79405761043065" lon="12.887867267867863"><ele>339.0</ele><time>2026-04-04T08:51:47Z</time></trkpt><trkpt lat="42.79426802989043" lon="12.887935350379452"><ele>340.3333333333333</ele><time>2026-04-04T08:51:48Z</time></trkpt><trkpt lat="42.79446770876098" lon="12.88800827509176"><ele>341.66666666666663</ele><time>2026-04-04T08:51:49Z</time></trkpt><trkpt lat="42.79465843783509" lon="12.888076590921555"><ele>343.0</ele><time>2026-04-04T08:51:50Z</time></trkpt><trkpt lat="42.79484692617259" lon="12.888145745305751"><ele>343.0</ele><time>2026-04-04T08:51:51Z</time></trkpt><trkpt lat="42.79503206732963" lon="12.888214372639496"><ele>343.0</ele><time>2026-04-04T08:51:52Z</time></trkpt><trkpt lat="42.79521228318614" lon="12.888259598764217"><ele>343.0</ele><time>2026-04-04T08:51:53Z</time></trkpt><trkpt lat="42.79537717249406" lon="12.8883276865356"><ele>346.0</ele><time>2026-04-04T08:51:54Z</time></trkpt><trkpt lat="42.79554414410685" lon="12.888367439986617"><ele>349.0</ele><time>2026-04-04T08:51:55Z</time></trkpt><trkpt lat="42.795697090891444" lon="12.888395154945645"><ele>352.0</ele><time>2026-04-04T08:51:56Z</time></trkpt><trkpt lat="42.795842097320026" lon="12.88841936833068"><ele>349.3333333333333</ele><time>2026-04-04T08:51:57Z</time></trkpt><trkpt lat="42.79599299080662" lon="12.888448290220497"><ele>346.6666666666667</ele><time>2026-04-04T08:51:58Z</time></trkpt><trkpt lat="42.79614652794747" lon="12.88849744692238"><ele>344.0</ele><time>2026-04-04T08:51:59Z</time></trkpt><trkpt lat="42.796291577111965" lon="12.888576061343665"><ele>344.0</ele><time>2026-04-04T08:52:00Z</time></trkpt><trkpt lat="42.79644215647797" lon="12.888682156427901"><ele>344.0</ele><time>2026-04-04T08:52:01Z</time></trkpt><trkpt lat="42.79660647818253" lon="12.888792653911505"><ele>344.0</ele><time>2026-04-04T08:52:02Z</time></trkpt><trkpt lat="42.79677311430687" lon="12.888934676332282"><ele>344.5</ele><time>2026-04-04T08:52:03Z</time></trkpt><trkpt lat="42.79694396912752" lon="12.889107247281212"><ele>345.0</ele><time>2026-04-04T08:52:04Z</time></trkpt><trkpt lat="42.79714625554133" lon="12.88927995636351"><ele>345.0</ele><time>2026-04-04T08:52:05Z</time></trkpt><trkpt lat="42.7973634957778" lon="12.88946709417429"><ele>345.0</ele><time>2026-04-04T08:52:06Z</time></trkpt><trkpt lat="42.79756075099222" lon="12.889624288301231"><ele>350.0</ele><time>2026-04-04T08:52:07Z</time></trkpt><trkpt lat="42.797719246165514" lon="12.889777219546968"><ele>355.0</ele><time>2026-04-04T08:52:08Z</time></trkpt><trkpt lat="42.79787225993424" lon="12.889913721584954"><ele>360.0</ele><time>2026-04-04T08:52:09Z</time></trkpt><trkpt lat="42.79800018259461" lon="12.89005221478725"><ele>361.3333333333333</ele><time>2026-04-04T08:52:10Z</time></trkpt><trkpt lat="42.798105637267405" lon="12.8901947029424"><ele>362.66666666666663</ele><time>2026-04-04T08:52:11Z</time></trkpt><trkpt lat="42.79818740714082" lon="12.890368720776653"><ele>364.0</ele><time>2026-04-04T08:52:12Z</time></trkpt><trkpt lat="42.798273036223776" lon="12.890550983500692"><ele>364.0</ele><time>2026-04-04T08:52:13Z</time></trkpt><trkpt lat="42.79834729553472" lon="12.890744312735468"><ele>364.0</ele><time>2026-04-04T08:52:14Z</time></trkpt><trkpt lat="42.79840873380722" lon="12.89096284038128"><ele>364.0</ele><time>2026-04-04T08:52:15Z</time></trkpt><trkpt lat="42.79846600252085" lon="12.89118050158092"><ele>372.3333333333333</ele><time>2026-04-04T08:52:16Z</time></trkpt><trkpt lat="42.798521384329675" lon="12.89140041820614"><ele>380.66666666666663</ele><time>2026-04-04T08:52:17Z</time></trkpt><trkpt lat="42.79857615751652" lon="12.89162111439721"><ele>389.0</ele><time>2026-04-04T08:52:18Z</time></trkpt><trkpt lat="42.79862429722794" lon="12.891840393841989"><ele>389.0</ele><time>2026-04-04T08:52:19Z</time></trkpt><trkpt lat="42.79866343414408" lon="12.892073757783548"><ele>389.0</ele><time>2026-04-04T08:52:20Z</time></trkpt><trkpt lat="42.79869470981941" lon="12.89230551804426"><ele>389.0</ele><time>2026-04-04T08:52:21Z</time></trkpt><trkpt lat="42.7987206956437" lon="12.892587898907646"><ele>387.0</ele><time>2026-04-04T08:52:22Z</time></trkpt><trkpt lat="42.79873672047808" lon="12.892903564317866"><ele>385.0</ele><time>2026-04-04T08:52:23Z</time></trkpt><trkpt lat="42.79875128913146" lon="12.89325464449262"><ele>381.5</ele><time>2026-04-04T08:52:24Z</time></trkpt><trkpt lat="42.79876837237721" lon="12.893616193215676"><ele>378.0</ele><time>2026-04-04T08:52:25Z</time></trkpt><trkpt lat="42.7987842222555" lon="12.893957004363795"><ele>371.6666666666667</ele><time>2026-04-04T08:52:26Z</time></trkpt><trkpt lat="42.79879996928925" lon="12.894256001287264"><ele>365.33333333333337</ele><time>2026-04-04T08:52:27Z</time></trkpt><trkpt lat="42.798829478163306" lon="12.89454186338655"><ele>359.0</ele><time>2026-04-04T08:52:28Z</time></trkpt><trkpt lat="42.79892436039281" lon="12.894831942178518"><ele>351.5</ele><time>2026-04-04T08:52:29Z</time></trkpt><trkpt lat="42.79907416478169" lon="12.89509777305399"><ele>344.0</ele><time>2026-04-04T08:52:30Z</time></trkpt><trkpt lat="42.79923094890946" lon="12.895366596988218"><ele>345.33333333333337</ele><time>2026-04-04T08:52:31Z</time></trkpt><trkpt lat="42.79937960702184" lon="12.895610926050523"><ele>346.6666666666667</ele><time>2026-04-04T08:52:32Z</time></trkpt><trkpt lat="42.799537850000206" lon="12.89581118610597"><ele>348.0</ele><time>2026-04-04T08:52:33Z</time></trkpt><trkpt lat="42.79971954003874" lon="12.895986929383067"><ele>348.0</ele><time>2026-04-04T08:52:34Z</time></trkpt><trkpt lat="42.799930214293745" lon="12.896113885353602"><ele>348.0</ele><time>2026-04-04T08:52:35Z</time></trkpt><trkpt lat="42.80014976582869" lon="12.896217701203001"><ele>346.5</ele><time>2026-04-04T08:52:36Z</time></trkpt><trkpt lat="42.80038142850375" lon="12.896272957103447"><ele>345.0</ele><time>2026-04-04T08:52:37Z</time></trkpt><trkpt lat="42.80061587134358" lon="12.896310080066517"><ele>345.0</ele><time>2026-04-04T08:52:38Z</time></trkpt><trkpt lat="42.80085605117333" lon="12.896326683376925"><ele>345.0</ele><time>2026-04-04T08:52:39Z</time></trkpt><trkpt lat="42.801083049795686" lon="12.896340150656885"><ele>345.5</ele><time>2026-04-04T08:52:40Z</time></trkpt><trkpt lat="42.8013104558228" lon="12.896356768667802"><ele>346.0</ele><time>2026-04-04T08:52:41Z</time></trkpt><trkpt lat="42.801532352039594" lon="12.896326935706357"><ele>346.0</ele><time>2026-04-04T08:52:42Z</time></trkpt><trkpt lat="42.8017547674695" lon="12.896269390572222"><ele>346.0</ele><time>2026-04-04T08:52:43Z</time></trkpt><trkpt lat="42.801956260884324" lon="12.896216732519484"><ele>346.0</ele><time>2026-04-04T08:52:44Z</time></trkpt><trkpt lat="42.8021286812273" lon="12.896182326613456"><ele>348.0</ele><time>2026-04-04T08:52:45Z</time></trkpt><trkpt lat="42.80228313695884" lon="12.89618220400291"><ele>350.0</ele><time>2026-04-04T08:52:46Z</time></trkpt><trkpt lat="42.80247333376067" lon="12.896241915898582"><ele>352.0</ele><time>2026-04-04T08:52:47Z</time></trkpt><trkpt lat="42.802656247227446" lon="12.896376494043265"><ele>352.0</ele><time>2026-04-04T08:52:48Z</time></trkpt><trkpt lat="42.80281323786717" lon="12.896556122872678"><ele>352.0</ele><time>2026-04-04T08:52:49Z</time></trkpt><trkpt lat="42.80294718680428" lon="12.896799102106868"><ele>352.0</ele><time>2026-04-04T08:52:50Z</time></trkpt><trkpt lat="42.80307379346491" lon="12.897062186699433"><ele>352.0</ele><time>2026-04-04T08:52:51Z</time></trkpt><trkpt lat="42.80323598412021" lon="12.897277305660074"><ele>352.0</ele><time>2026-04-04T08:52:52Z</time></trkpt><trkpt lat="42.80338746549858" lon="12.89748850922884"><ele>352.0</ele><time>2026-04-04T08:52:53Z</time></trkpt><trkpt lat="42.80351318381642" lon="12.897696417490991"><ele>351.3333333333333</ele><time>2026-04-04T08:52:54Z</time></trkpt><trkpt lat="42.80361393650864" lon="12.897878133763834"><ele>350.6666666666667</ele><time>2026-04-04T08:52:55Z</time></trkpt><trkpt lat="42.803708917771125" lon="12.898048333714483"><ele>350.0</ele><time>2026-04-04T08:52:56Z</time></trkpt><trkpt lat="42.803797801364354" lon="12.898196121314731"><ele>350.0</ele><time>2026-04-04T08:52:57Z</time></trkpt><trkpt lat="42.80414876554782" lon="12.8980459231269"><ele>350.0</ele><time>2026-04-04T08:52:58Z</time></trkpt><trkpt lat="42.804366765276065" lon="12.898020405938999"><ele>351.0</ele><time>2026-04-04T08:52:59Z</time></trkpt><trkpt lat="42.8046066129409" lon="12.897968867359667"><ele>352.0</ele><time>2026-04-04T08:53:00Z</time></trkpt><trkpt lat="42.80482594723829" lon="12.89793492016123"><ele>352.0</ele><time>2026-04-04T08:53:01Z</time></trkpt><trkpt lat="42.805058095138826" lon="12.8979121001515"><ele>352.0</ele><time>2026-04-04T08:53:02Z</time></trkpt><trkpt lat="42.80528726810283" lon="12.897911032393868"><ele>350.66666666666663</ele><time>2026-04-04T08:53:03Z</time></trkpt><trkpt lat="42.805503187758006" lon="12.89790505292581"><ele>349.3333333333333</ele><time>2026-04-04T08:53:04Z</time></trkpt><trkpt lat="42.80572159452218" lon="12.897876710003235"><ele>348.0</ele><time>2026-04-04T08:53:05Z</time></trkpt><trkpt lat="42.805932574936385" lon="12.897859843023449"><ele>349.0</ele><time>2026-04-04T08:53:06Z</time></trkpt><trkpt lat="42.8061530929325" lon="12.897870339731906"><ele>350.0</ele><time>2026-04-04T08:53:07Z</time></trkpt><trkpt lat="42.80637137956686" lon="12.897927006509613"><ele>351.0</ele><time>2026-04-04T08:53:08Z</time></trkpt><trkpt lat="42.80659256981735" lon="12.897987001093233"><ele>351.0</ele><time>2026-04-04T08:53:09Z</time></trkpt><trkpt lat="42.80681210502505" lon="12.898047718002742"><ele>351.0</ele><time>2026-04-04T08:53:10Z</time></trkpt><trkpt lat="42.80703425958513" lon="12.898107241000549"><ele>352.5</ele><time>2026-04-04T08:53:11Z</time></trkpt><trkpt lat="42.8072585852776" lon="12.898171037662896"><ele>354.0</ele><time>2026-04-04T08:53:12Z</time></trkpt><trkpt lat="42.8074867331869" lon="12.898233014370822"><ele>370.0</ele><time>2026-04-04T08:53:13Z</time></trkpt><trkpt lat="42.807719560179564" lon="12.898295290769124"><ele>386.0</ele><time>2026-04-04T08:53:14Z</time></trkpt><trkpt lat="42.80794819226542" lon="12.898350812826038"><ele>386.0</ele><time>2026-04-04T08:53:15Z</time></trkpt><trkpt lat="42.80815847940936" lon="12.898412855367969"><ele>386.0</ele><time>2026-04-04T08:53:16Z</time></trkpt><trkpt lat="42.808364632122654" lon="12.89849550761113"><ele>386.0</ele><time>2026-04-04T08:53:17Z</time></trkpt><trkpt lat="42.80856042562551" lon="12.898627687493477"><ele>382.66666666666663</ele><time>2026-04-04T08:53:18Z</time></trkpt><trkpt lat="42.80874612133435" lon="12.898790866411073"><ele>379.3333333333333</ele><time>2026-04-04T08:53:19Z</time></trkpt><trkpt lat="42.80890961627523" lon="12.898981653601913"><ele>376.0</ele><time>2026-04-04T08:53:20Z</time></trkpt><trkpt lat="42.809041713268186" lon="12.899205553753957"><ele>370.3333333333333</ele><time>2026-04-04T08:53:21Z</time></trkpt><trkpt lat="42.809136534759055" lon="12.899453333467614"><ele>364.6666666666667</ele><time>2026-04-04T08:53:22Z</time></trkpt><trkpt lat="42.80920157149442" lon="12.899725397577384"><ele>359.0</ele><time>2026-04-04T08:53:23Z</time></trkpt><trkpt lat="42.809223245013754" lon="12.900011661115729"><ele>362.0</ele><time>2026-04-04T08:53:24Z</time></trkpt><trkpt lat="42.80920719550055" lon="12.900296798784535"><ele>365.0</ele><time>2026-04-04T08:53:25Z</time></trkpt><trkpt lat="42.80915107942766" lon="12.900575826473428"><ele>368.0</ele><time>2026-04-04T08:53:26Z</time></trkpt><trkpt lat="42.80906942608046" lon="12.900844807016743"><ele>371.33333333333337</ele><time>2026-04-04T08:53:27Z</time></trkpt><trkpt lat="42.808974202701904" lon="12.901102511970972"><ele>374.6666666666667</ele><time>2026-04-04T08:53:28Z</time></trkpt><trkpt lat="42.80888682711019" lon="12.901358835319607"><ele>378.0</ele><time>2026-04-04T08:53:29Z</time></trkpt><trkpt lat="42.80883732861288" lon="12.901628808195836"><ele>378.0</ele><time>2026-04-04T08:53:30Z</time></trkpt><trkpt lat="42.80882472703555" lon="12.901914773112633"><ele>378.0</ele><time>2026-04-04T08:53:31Z</time></trkpt><trkpt lat="42.808852980295235" lon="12.902211238528148"><ele>378.0</ele><time>2026-04-04T08:53:32Z</time></trkpt><trkpt lat="42.80889882204411" lon="12.902504154413693"><ele>376.3333333333333</ele><time>2026-04-04T08:53:33Z</time></trkpt><trkpt lat="42.80894272718221" lon="12.902794621511683"><ele>374.66666666666663</ele><time>2026-04-04T08:53:34Z</time></trkpt><trkpt lat="42.8089761253688" lon="12.903088632311974"><ele>373.0</ele><time>2026-04-04T08:53:35Z</time></trkpt><trkpt lat="42.80900331794252" lon="12.90338153348497"><ele>373.0</ele><time>2026-04-04T08:53:36Z</time></trkpt><trkpt lat="42.80901198733612" lon="12.90367443876956"><ele>373.0</ele><time>2026-04-04T08:53:37Z</time></trkpt><trkpt lat="42.80900219147519" lon="12.903972815767016"><ele>373.0</ele><time>2026-04-04T08:53:38Z</time></trkpt><trkpt lat="42.808972168672796" lon="12.904274583083815"><ele>373.0</ele><time>2026-04-04T08:53:39Z</time></trkpt><trkpt lat="42.80893740464033" lon="12.904564964467593"><ele>373.0</ele><time>2026-04-04T08:53:40Z</time></trkpt><trkpt lat="42.80890867846829" lon="12.904845294662826"><ele>373.0</ele><time>2026-04-04T08:53:41Z</time></trkpt><trkpt lat="42.80889531698985" lon="12.905116033561285"><ele>371.0</ele><time>2026-04-04T08:53:42Z</time></trkpt><trkpt lat="42.80893064585786" lon="12.905391400353654"><ele>369.0</ele><time>2026-04-04T08:53:43Z</time></trkpt><trkpt lat="42.808999488269" lon="12.905653496560268"><ele>367.0</ele><time>2026-04-04T08:53:44Z</time></trkpt><trkpt lat="42.80911811515868" lon="12.905885904102089"><ele>363.66666666666663</ele><time>2026-04-04T08:53:45Z</time></trkpt><trkpt lat="42.809252470428945" lon="12.90611532378852"><ele>360.3333333333333</ele><time>2026-04-04T08:53:46Z</time></trkpt><trkpt lat="42.80938113075616" lon="12.906353524514987"><ele>357.0</ele><time>2026-04-04T08:53:47Z</time></trkpt><trkpt lat="42.80950033406168" lon="12.906600376399098"><ele>364.3333333333333</ele><time>2026-04-04T08:53:48Z</time></trkpt><trkpt lat="42.80958647651886" lon="12.90687172757633"><ele>371.66666666666663</ele><time>2026-04-04T08:53:49Z</time></trkpt><trkpt lat="42.809633169848055" lon="12.907167869076503"><ele>379.0</ele><time>2026-04-04T08:53:50Z</time></trkpt><trkpt lat="42.80968138276379" lon="12.90746529177723"><ele>376.66666666666663</ele><time>2026-04-04T08:53:51Z</time></trkpt><trkpt lat="42.80973491206379" lon="12.907752973730211"><ele>374.3333333333333</ele><time>2026-04-04T08:53:52Z</time></trkpt><trkpt lat="42.80977098353907" lon="12.9080548242091"><ele>372.0</ele><time>2026-04-04T08:53:53Z</time></trkpt><trkpt lat="42.80981262465556" lon="12.908353630151495"><ele>369.3333333333333</ele><time>2026-04-04T08:53:54Z</time></trkpt><trkpt lat="42.809856703392185" lon="12.90863810887923"><ele>366.66666666666663</ele><time>2026-04-04T08:53:55Z</time></trkpt><trkpt lat="42.80990194460277" lon="12.90889359194511"><ele>364.0</ele><time>2026-04-04T08:53:56Z</time></trkpt><trkpt lat="42.80999651686444" lon="12.9091227859551"><ele>361.0</ele><time>2026-04-04T08:53:57Z</time></trkpt><trkpt lat="42.81014064950005" lon="12.909306057534778"><ele>358.0</ele><time>2026-04-04T08:53:58Z</time></trkpt><trkpt lat="42.81029175723191" lon="12.909475346226861"><ele>355.0</ele><time>2026-04-04T08:53:59Z</time></trkpt><trkpt lat="42.81041242396514" lon="12.909637641836843"><ele>361.25</ele><time>2026-04-04T08:54:00Z</time></trkpt><trkpt lat="42.810499623738316" lon="12.909814874143871"><ele>367.5</ele><time>2026-04-04T08:54:01Z</time></trkpt><trkpt lat="42.810510365904214" lon="12.910019327826674"><ele>373.75</ele><time>2026-04-04T08:54:02Z</time></trkpt><trkpt lat="42.81051823665491" lon="12.91019752997515"><ele>380.0</ele><time>2026-04-04T08:54:03Z</time></trkpt><trkpt lat="42.810502494980014" lon="12.910382610422412"><ele>380.0</ele><time>2026-04-04T08:54:04Z</time></trkpt><trkpt lat="42.81047338649483" lon="12.91055446067023"><ele>380.0</ele><time>2026-04-04T08:54:05Z</time></trkpt><trkpt lat="42.810439940575066" lon="12.910730404420566"><ele>380.0</ele><time>2026-04-04T08:54:06Z</time></trkpt><trkpt lat="42.810408588584735" lon="12.910913924114139"><ele>380.0</ele><time>2026-04-04T08:54:07Z</time></trkpt><trkpt lat="42.810387791392195" lon="12.911099490641218"><ele>379.25</ele><time>2026-04-04T08:54:08Z</time></trkpt><trkpt lat="42.810380608503685" lon="12.911291302667586"><ele>378.5</ele><time>2026-04-04T08:54:09Z</time></trkpt><trkpt lat="42.81037731533527" lon="12.911480533005408"><ele>377.75</ele><time>2026-04-04T08:54:10Z</time></trkpt><trkpt lat="42.81037644761874" lon="12.911659305391678"><ele>377.0</ele><time>2026-04-04T08:54:11Z</time></trkpt><trkpt lat="42.8103812107372" lon="12.911826100981497"><ele>374.0</ele><time>2026-04-04T08:54:12Z</time></trkpt><trkpt lat="42.81039819578124" lon="12.911983627323865"><ele>371.0</ele><time>2026-04-04T08:54:13Z</time></trkpt><trkpt lat="42.81046470729608" lon="12.912121980939276"><ele>368.0</ele><time>2026-04-04T08:54:14Z</time></trkpt><trkpt lat="42.81054363747624" lon="12.912247303215432"><ele>365.0</ele><time>2026-04-04T08:54:15Z</time></trkpt><trkpt lat="42.810659678813515" lon="12.912339158560783"><ele>365.0</ele><time>2026-04-04T08:54:16Z</time></trkpt><trkpt lat="42.810810345517694" lon="12.912435775628056"><ele>365.0</ele><time>2026-04-04T08:54:17Z</time></trkpt><trkpt lat="42.8109806651104" lon="12.91254372835036"><ele>365.0</ele><time>2026-04-04T08:54:18Z</time></trkpt><trkpt lat="42.811142582644685" lon="12.91267721515282"><ele>365.33333333333337</ele><time>2026-04-04T08:54:19Z</time></trkpt><trkpt lat="42.81129146880833" lon="12.912810199744106"><ele>365.6666666666667</ele><time>2026-04-04T08:54:20Z</time></trkpt><trkpt lat="42.81140602774772" lon="12.912953646792324"><ele>366.0</ele><time>2026-04-04T08:54:21Z</time></trkpt><trkpt lat="42.811503585588895" lon="12.913085197359022"><ele>366.0</ele><time>2026-04-04T08:54:22Z</time></trkpt><trkpt lat="42.81159275759681" lon="12.913198814318992"><ele>366.0</ele><time>2026-04-04T08:54:23Z</time></trkpt><trkpt lat="42.81167681332238" lon="12.913294179988128"><ele>366.0</ele><time>2026-04-04T08:54:24Z</time></trkpt><trkpt lat="42.81175912000022" lon="12.913377107835561"><ele>366.0</ele><time>2026-04-04T08:54:25Z</time></trkpt><trkpt lat="42.811844468157126" lon="12.913446264389426"><ele>366.0</ele><time>2026-04-04T08:54:26Z</time></trkpt><trkpt lat="42.81194131926559" lon="12.913507030704624"><ele>364.4</ele><time>2026-04-04T08:54:27Z</time></trkpt><trkpt lat="42.81203633228446" lon="12.913550737651763"><ele>362.8</ele><time>2026-04-04T08:54:28Z</time></trkpt><trkpt lat="42.81212921711891" lon="12.913588329797225"><ele>361.2</ele><time>2026-04-04T08:54:29Z</time></trkpt><trkpt lat="42.81222038081354" lon="12.913627977341264"><ele>359.59999999999997</ele><time>2026-04-04T08:54:30Z</time></trkpt><trkpt lat="42.81230620952331" lon="12.91365480212442"><ele>358.0</ele><time>2026-04-04T08:54:31Z</time></trkpt><trkpt lat="42.81237885093867" lon="12.913684586816183"><ele>358.0</ele><time>2026-04-04T08:54:32Z</time></trkpt><trkpt lat="42.81244657506105" lon="12.913711160330946"><ele>358.0</ele><time>2026-04-04T08:54:33Z</time></trkpt><trkpt lat="42.8125096169698" lon="12.913735279926614"><ele>358.0</ele><time>2026-04-04T08:54:34Z</time></trkpt><trkpt lat="42.81261524020029" lon="12.91377600098171"><ele>358.0</ele><time>2026-04-04T08:54:36Z</time></trkpt><trkpt lat="42.81267814392908" lon="12.913810669080483"><ele>358.0</ele><time>2026-04-04T08:54:37Z</time></trkpt><trkpt lat="42.812751606593366" lon="12.913836018108245"><ele>358.0</ele><time>2026-04-04T08:54:38Z</time></trkpt><trkpt lat="42.81282554910415" lon="12.913862060200934"><ele>359.5</ele><time>2026-04-04T08:54:39Z</time></trkpt><trkpt lat="42.812893252489246" lon="12.913889269791074"><ele>361.0</ele><time>2026-04-04T08:54:40Z</time></trkpt><trkpt lat="42.81295663056768" lon="12.913915684000246"><ele>362.5</ele><time>2026-04-04T08:54:41Z</time></trkpt><trkpt lat="42.813021051082664" lon="12.913937734839694"><ele>364.0</ele><time>2026-04-04T08:54:42Z</time></trkpt><trkpt lat="42.81308758734854" lon="12.913957848769153"><ele>365.5</ele><time>2026-04-04T08:54:43Z</time></trkpt><trkpt lat="42.81320207071879" lon="12.913998370369441"><ele>367.0</ele><time>2026-04-04T08:54:45Z</time></trkpt><trkpt lat="42.81326632533022" lon="12.914045739981804"><ele>367.0</ele><time>2026-04-04T08:54:46Z</time></trkpt><trkpt lat="42.81334362458578" lon="12.914078217534952"><ele>367.0</ele><time>2026-04-04T08:54:47Z</time></trkpt><trkpt lat="42.813438583498" lon="12.914116169660835"><ele>367.0</ele><time>2026-04-04T08:54:48Z</time></trkpt><trkpt lat="42.81354250382806" lon="12.914157703537574"><ele>367.0</ele><time>2026-04-04T08:54:49Z</time></trkpt><trkpt lat="42.813649437654405" lon="12.914204296873566"><ele>367.0</ele><time>2026-04-04T08:54:50Z</time></trkpt><trkpt lat="42.8137563240468" lon="12.914255819359582"><ele>365.0</ele><time>2026-04-04T08:54:51Z</time></trkpt><trkpt lat="42.81385954149869" lon="12.914315497832474"><ele>363.0</ele><time>2026-04-04T08:54:52Z</time></trkpt><trkpt lat="42.81394810586113" lon="12.914375597688608"><ele>361.0</ele><time>2026-04-04T08:54:53Z</time></trkpt><trkpt lat="42.81403767870303" lon="12.914420113421842"><ele>359.0</ele><time>2026-04-04T08:54:54Z</time></trkpt><trkpt lat="42.814110457280876" lon="12.914485248826853"><ele>357.0</ele><time>2026-04-04T08:54:55Z</time></trkpt><trkpt lat="42.81418655712405" lon="12.914549963036988"><ele>357.0</ele><time>2026-04-04T08:54:56Z</time></trkpt><trkpt lat="42.814257620174" lon="12.914615951440963"><ele>357.0</ele><time>2026-04-04T08:54:57Z</time></trkpt><trkpt lat="42.814332947201706" lon="12.914687669902207"><ele>357.0</ele><time>2026-04-04T08:54:58Z</time></trkpt><trkpt lat="42.81441349567897" lon="12.914761215616169"><ele>357.0</ele><time>2026-04-04T08:54:59Z</time></trkpt><trkpt lat="42.81449540651715" lon="12.914833558054557"><ele>357.0</ele><time>2026-04-04T08:55:00Z</time></trkpt><trkpt lat="42.81457552829584" lon="12.914909234125625"><ele>357.6</ele><time>2026-04-04T08:55:01Z</time></trkpt><trkpt lat="42.81465261683761" lon="12.914991343217036"><ele>358.20000000000005</ele><time>2026-04-04T08:55:02Z</time></trkpt><trkpt lat="42.81472891083547" lon="12.915074172697635"><ele>358.8</ele><time>2026-04-04T08:55:03Z</time></trkpt><trkpt lat="42.81480737286602" lon="12.915160917031994"><ele>359.4</ele><time>2026-04-04T08:55:04Z</time></trkpt><trkpt lat="42.814881949681684" lon="12.915253505488689"><ele>360.0</ele><time>2026-04-04T08:55:05Z</time></trkpt><trkpt lat="42.81494631508537" lon="12.915351238831274"><ele>360.0</ele><time>2026-04-04T08:55:06Z</time></trkpt><trkpt lat="42.81501862683181" lon="12.915432565851203"><ele>360.0</ele><time>2026-04-04T08:55:07Z</time></trkpt><trkpt lat="42.81509304551239" lon="12.915508223606153"><ele>360.0</ele><time>2026-04-04T08:55:08Z</time></trkpt><trkpt lat="42.815171182798885" lon="12.915579369297769"><ele>360.0</ele><time>2026-04-04T08:55:09Z</time></trkpt><trkpt lat="42.81524606951373" lon="12.915637799754853"><ele>360.0</ele><time>2026-04-04T08:55:10Z</time></trkpt><trkpt lat="42.815327789666036" lon="12.915686499210219"><ele>360.2</ele><time>2026-04-04T08:55:11Z</time></trkpt><trkpt lat="42.81541038717887" lon="12.915738908020785"><ele>360.4</ele><time>2026-04-04T08:55:12Z</time></trkpt><trkpt lat="42.81550837962166" lon="12.915780593777928"><ele>360.6</ele><time>2026-04-04T08:55:13Z</time></trkpt><trkpt lat="42.81561262375056" lon="12.915821468978633"><ele>360.8</ele><time>2026-04-04T08:55:14Z</time></trkpt><trkpt lat="42.81572259996428" lon="12.915863575889034"><ele>361.0</ele><time>2026-04-04T08:55:15Z</time></trkpt><trkpt lat="42.81583925506557" lon="12.915910362783485"><ele>361.0</ele><time>2026-04-04T08:55:16Z</time></trkpt><trkpt lat="42.81596542707019" lon="12.915951640074521"><ele>361.0</ele><time>2026-04-04T08:55:17Z</time></trkpt><trkpt lat="42.81608819187629" lon="12.916014403487942"><ele>361.0</ele><time>2026-04-04T08:55:18Z</time></trkpt><trkpt lat="42.816200104079776" lon="12.916092074382739"><ele>361.0</ele><time>2026-04-04T08:55:19Z</time></trkpt><trkpt lat="42.8163205958014" lon="12.916175497015155"><ele>362.0</ele><time>2026-04-04T08:55:20Z</time></trkpt><trkpt lat="42.81642392801852" lon="12.916288341674628"><ele>363.0</ele><time>2026-04-04T08:55:21Z</time></trkpt><trkpt lat="42.816528132806276" lon="12.916414196993266"><ele>364.0</ele><time>2026-04-04T08:55:22Z</time></trkpt><trkpt lat="42.8166184041395" lon="12.916561819992781"><ele>365.0</ele><time>2026-04-04T08:55:23Z</time></trkpt><trkpt lat="42.81669460162603" lon="12.916728713468473"><ele>364.0</ele><time>2026-04-04T08:55:24Z</time></trkpt><trkpt lat="42.816736032042044" lon="12.91691905769099"><ele>363.0</ele><time>2026-04-04T08:55:25Z</time></trkpt><trkpt lat="42.816783971116" lon="12.917104057746261"><ele>362.0</ele><time>2026-04-04T08:55:26Z</time></trkpt><trkpt lat="42.816830423291805" lon="12.917285221579368"><ele>361.0</ele><time>2026-04-04T08:55:27Z</time></trkpt><trkpt lat="42.816875411976845" lon="12.917460870178406"><ele>368.25</ele><time>2026-04-04T08:55:28Z</time></trkpt><trkpt lat="42.816930964790714" lon="12.91761974883255"><ele>375.5</ele><time>2026-04-04T08:55:29Z</time></trkpt><trkpt lat="42.81696127273885" lon="12.91779606521277"><ele>382.75</ele><time>2026-04-04T08:55:30Z</time></trkpt><trkpt lat="42.81700368233563" lon="12.917967944763054"><ele>390.0</ele><time>2026-04-04T08:55:31Z</time></trkpt><trkpt lat="42.81704497565511" lon="12.918140397049118"><ele>390.0</ele><time>2026-04-04T08:55:32Z</time></trkpt><trkpt lat="42.817080804196394" lon="12.91831287716116"><ele>390.0</ele><time>2026-04-04T08:55:33Z</time></trkpt><trkpt lat="42.81710154808067" lon="12.918482673484961"><ele>390.0</ele><time>2026-04-04T08:55:34Z</time></trkpt><trkpt lat="42.817104600010005" lon="12.918659820866491"><ele>390.0</ele><time>2026-04-04T08:55:35Z</time></trkpt><trkpt lat="42.81709883454627" lon="12.91882767840281"><ele>387.4</ele><time>2026-04-04T08:55:36Z</time></trkpt><trkpt lat="42.817107574801526" lon="12.918981292049718"><ele>384.8</ele><time>2026-04-04T08:55:37Z</time></trkpt><trkpt lat="42.81710387972733" lon="12.919126055959463"><ele>382.20000000000005</ele><time>2026-04-04T08:55:38Z</time></trkpt><trkpt lat="42.81710859554125" lon="12.919271314979548"><ele>379.6</ele><time>2026-04-04T08:55:39Z</time></trkpt><trkpt lat="42.81713010643383" lon="12.919406062531321"><ele>377.0</ele><time>2026-04-04T08:55:40Z</time></trkpt><trkpt lat="42.81717382837461" lon="12.919532929901557"><ele>372.5</ele><time>2026-04-04T08:55:41Z</time></trkpt><trkpt lat="42.81726395819635" lon="12.919646333567368"><ele>368.0</ele><time>2026-04-04T08:55:42Z</time></trkpt><trkpt lat="42.81735099748699" lon="12.91972846026289"><ele>363.5</ele><time>2026-04-04T08:55:43Z</time></trkpt><trkpt lat="42.817464157050914" lon="12.919781198697825"><ele>359.0</ele><time>2026-04-04T08:55:44Z</time></trkpt><trkpt lat="42.81758177854487" lon="12.919798423216895"><ele>358.75</ele><time>2026-04-04T08:55:45Z</time></trkpt><trkpt lat="42.81770232596547" lon="12.919786665701897"><ele>358.5</ele><time>2026-04-04T08:55:46Z</time></trkpt><trkpt lat="42.817818447521084" lon="12.91975184834293"><ele>358.25</ele><time>2026-04-04T08:55:47Z</time></trkpt><trkpt lat="42.81792559004486" lon="12.91970698193684"><ele>358.0</ele><time>2026-04-04T08:55:48Z</time></trkpt><trkpt lat="42.818043467574654" lon="12.919679196629337"><ele>358.0</ele><time>2026-04-04T08:55:49Z</time></trkpt><trkpt lat="42.81815900326858" lon="12.919656979941195"><ele>358.0</ele><time>2026-04-04T08:55:50Z</time></trkpt><trkpt lat="42.8182757107662" lon="12.919638142847647"><ele>358.0</ele><time>2026-04-04T08:55:51Z</time></trkpt><trkpt lat="42.8183956424346" lon="12.919622974660937"><ele>358.0</ele><time>2026-04-04T08:55:52Z</time></trkpt><trkpt lat="42.818518667186844" lon="12.919619771090904"><ele>362.0</ele><time>2026-04-04T08:55:53Z</time></trkpt><trkpt lat="42.81863999147715" lon="12.919627792235007"><ele>366.0</ele><time>2026-04-04T08:55:54Z</time></trkpt><trkpt lat="42.81876484948746" lon="12.919637951038647"><ele>370.0</ele><time>2026-04-04T08:55:55Z</time></trkpt><trkpt lat="42.81888807032905" lon="12.919657057200826"><ele>374.0</ele><time>2026-04-04T08:55:56Z</time></trkpt><trkpt lat="42.819010626855984" lon="12.919686827138657"><ele>374.0</ele><time>2026-04-04T08:55:57Z</time></trkpt><trkpt lat="42.81912279902862" lon="12.919724111599383"><ele>374.0</ele><time>2026-04-04T08:55:58Z</time></trkpt><trkpt lat="42.81922987767664" lon="12.919766028405258"><ele>374.0</ele><time>2026-04-04T08:55:59Z</time></trkpt><trkpt lat="42.819330799204494" lon="12.919822679766241"><ele>374.0</ele><time>2026-04-04T08:56:00Z</time></trkpt><trkpt lat="42.8194257594637" lon="12.919916609560614"><ele>380.5</ele><time>2026-04-04T08:56:01Z</time></trkpt><trkpt lat="42.8194984821579" lon="12.920062630406578"><ele>387.0</ele><time>2026-04-04T08:56:02Z</time></trkpt><trkpt lat="42.819535037587116" lon="12.920240929487464"><ele>393.5</ele><time>2026-04-04T08:56:03Z</time></trkpt><trkpt lat="42.81956732653394" lon="12.920422996117324"><ele>400.0</ele><time>2026-04-04T08:56:04Z</time></trkpt><trkpt lat="42.819594737782026" lon="12.920613127619763"><ele>400.0</ele><time>2026-04-04T08:56:05Z</time></trkpt><trkpt lat="42.81961652996277" lon="12.920810273878116"><ele>400.0</ele><time>2026-04-04T08:56:06Z</time></trkpt><trkpt lat="42.81962404766232" lon="12.92101286191322"><ele>400.0</ele><time>2026-04-04T08:56:07Z</time></trkpt><trkpt lat="42.8196038220153" lon="12.921218308422104"><ele>400.0</ele><time>2026-04-04T08:56:08Z</time></trkpt><trkpt lat="42.81955464843894" lon="12.921416125572689"><ele>403.6666666666667</ele><time>2026-04-04T08:56:09Z</time></trkpt><trkpt lat="42.819477785703434" lon="12.921600040699776"><ele>407.33333333333337</ele><time>2026-04-04T08:56:10Z</time></trkpt><trkpt lat="42.81939530694488" lon="12.92177637729501"><ele>411.0</ele><time>2026-04-04T08:56:11Z</time></trkpt><trkpt lat="42.81932516872629" lon="12.921957187966344"><ele>401.75</ele><time>2026-04-04T08:56:12Z</time></trkpt><trkpt lat="42.81924073389998" lon="12.922122384539215"><ele>392.5</ele><time>2026-04-04T08:56:13Z</time></trkpt><trkpt lat="42.81916280964441" lon="12.922286200069516"><ele>383.25</ele><time>2026-04-04T08:56:14Z</time></trkpt><trkpt lat="42.81908474582619" lon="12.922439699416438"><ele>374.0</ele><time>2026-04-04T08:56:15Z</time></trkpt><trkpt lat="42.819054758008754" lon="12.92261195419543"><ele>372.5</ele><time>2026-04-04T08:56:16Z</time></trkpt><trkpt lat="42.81907315394024" lon="12.92277586992895"><ele>371.0</ele><time>2026-04-04T08:56:17Z</time></trkpt><trkpt lat="42.81911739911944" lon="12.922918281578507"><ele>369.5</ele><time>2026-04-04T08:56:18Z</time></trkpt><trkpt lat="42.81918303259013" lon="12.923033361027825"><ele>368.0</ele><time>2026-04-04T08:56:19Z</time></trkpt><trkpt lat="42.81927016817619" lon="12.923128691420796"><ele>372.25</ele><time>2026-04-04T08:56:20Z</time></trkpt><trkpt lat="42.819357435828785" lon="12.923222040771279"><ele>376.5</ele><time>2026-04-04T08:56:21Z</time></trkpt><trkpt lat="42.81945312300805" lon="12.923311655081104"><ele>380.75</ele><time>2026-04-04T08:56:22Z</time></trkpt><trkpt lat="42.819552739543326" lon="12.92340209758224"><ele>385.0</ele><time>2026-04-04T08:56:23Z</time></trkpt><trkpt lat="42.81965146093991" lon="12.92350710918377"><ele>385.0</ele><time>2026-04-04T08:56:24Z</time></trkpt><trkpt lat="42.819742289969575" lon="12.923635112914852"><ele>385.0</ele><time>2026-04-04T08:56:25Z</time></trkpt><trkpt lat="42.81982509655301" lon="12.92377913627727"><ele>385.0</ele><time>2026-04-04T08:56:26Z</time></trkpt><trkpt lat="42.81989780891907" lon="12.923940607797938"><ele>385.0</ele><time>2026-04-04T08:56:27Z</time></trkpt><trkpt lat="42.81995092065393" lon="12.924120566469007"><ele>382.0</ele><time>2026-04-04T08:56:28Z</time></trkpt><trkpt lat="42.82001165181159" lon="12.92429146655452"><ele>379.0</ele><time>2026-04-04T08:56:29Z</time></trkpt><trkpt lat="42.8200652437363" lon="12.92444349001325"><ele>376.0</ele><time>2026-04-04T08:56:30Z</time></trkpt><trkpt lat="42.82011529754091" lon="12.92458547695104"><ele>373.0</ele><time>2026-04-04T08:56:31Z</time></trkpt><trkpt lat="42.82016205606659" lon="12.92471811619915"><ele>382.25</ele><time>2026-04-04T08:56:32Z</time></trkpt><trkpt lat="42.820210053416815" lon="12.92485426958752"><ele>391.5</ele><time>2026-04-04T08:56:33Z</time></trkpt><trkpt lat="42.82025943789451" lon="12.924994357858635"><ele>400.75</ele><time>2026-04-04T08:56:34Z</time></trkpt><trkpt lat="42.820311043338926" lon="12.925140746298307"><ele>410.0</ele><time>2026-04-04T08:56:35Z</time></trkpt><trkpt lat="42.82036369682111" lon="12.925290120113795"><ele>410.0</ele><time>2026-04-04T08:56:36Z</time></trkpt><trkpt lat="42.820416810160275" lon="12.925440815026155"><ele>410.0</ele><time>2026-04-04T08:56:37Z</time></trkpt><trkpt lat="42.82046970187786" lon="12.92558829049769"><ele>410.0</ele><time>2026-04-04T08:56:38Z</time></trkpt><trkpt lat="42.820518360568265" lon="12.925733542813987"><ele>410.0</ele><time>2026-04-04T08:56:39Z</time></trkpt><trkpt lat="42.82055717917796" lon="12.925879891154583"><ele>407.8</ele><time>2026-04-04T08:56:40Z</time></trkpt><trkpt lat="42.820588372318255" lon="12.926024852995974"><ele>405.6</ele><time>2026-04-04T08:56:41Z</time></trkpt><trkpt lat="42.82060947866586" lon="12.926167791006973"><ele>403.4</ele><time>2026-04-04T08:56:42Z</time></trkpt><trkpt lat="42.820621389673086" lon="12.926320782580794"><ele>401.2</ele><time>2026-04-04T08:56:43Z</time></trkpt><trkpt lat="42.820624396507945" lon="12.926469669157086"><ele>399.0</ele><time>2026-04-04T08:56:44Z</time></trkpt><trkpt lat="42.82063316667063" lon="12.926625153705121"><ele>395.25</ele><time>2026-04-04T08:56:45Z</time></trkpt><trkpt lat="42.82064800808951" lon="12.926784877991627"><ele>391.5</ele><time>2026-04-04T08:56:46Z</time></trkpt><trkpt lat="42.8206761380098" lon="12.926944377184837"><ele>387.75</ele><time>2026-04-04T08:56:47Z</time></trkpt><trkpt lat="42.820721480894335" lon="12.927109388789555"><ele>384.0</ele><time>2026-04-04T08:56:48Z</time></trkpt><trkpt lat="42.820794858492526" lon="12.927248712214555"><ele>384.0</ele><time>2026-04-04T08:56:49Z</time></trkpt><trkpt lat="42.8208579113506" lon="12.927383357065695"><ele>384.0</ele><time>2026-04-04T08:56:50Z</time></trkpt><trkpt lat="42.82093233710437" lon="12.927513525366384"><ele>384.0</ele><time>2026-04-04T08:56:51Z</time></trkpt><trkpt lat="42.82098839741193" lon="12.927658898821411"><ele>384.0</ele><time>2026-04-04T08:56:52Z</time></trkpt><trkpt lat="42.8210744405211" lon="12.9277710184541"><ele>387.75</ele><time>2026-04-04T08:56:53Z</time></trkpt><trkpt lat="42.821123217957336" lon="12.927922865238667"><ele>391.5</ele><time>2026-04-04T08:56:54Z</time></trkpt><trkpt lat="42.82117601810114" lon="12.928069141288574"><ele>395.25</ele><time>2026-04-04T08:56:55Z</time></trkpt><trkpt lat="42.82120067624701" lon="12.928232745906756"><ele>399.0</ele><time>2026-04-04T08:56:56Z</time></trkpt><trkpt lat="42.821225655440884" lon="12.928393873002928"><ele>399.0</ele><time>2026-04-04T08:56:57Z</time></trkpt><trkpt lat="42.82120931588924" lon="12.928558455101385"><ele>399.0</ele><time>2026-04-04T08:56:58Z</time></trkpt><trkpt lat="42.82121898794819" lon="12.92871500488854"><ele>399.0</ele><time>2026-04-04T08:56:59Z</time></trkpt><trkpt lat="42.82122763456887" lon="12.928848184839593"><ele>399.0</ele><time>2026-04-04T08:57:00Z</time></trkpt><trkpt lat="42.82124065041123" lon="12.928972105199463"><ele>399.0</ele><time>2026-04-04T08:57:01Z</time></trkpt><trkpt lat="42.82127503358608" lon="12.929105072354174"><ele>399.5</ele><time>2026-04-04T08:57:02Z</time></trkpt><trkpt lat="42.821282022508434" lon="12.929249454398668"><ele>400.0</ele><time>2026-04-04T08:57:03Z</time></trkpt><trkpt lat="42.82128692802607" lon="12.929406333706286"><ele>400.5</ele><time>2026-04-04T08:57:04Z</time></trkpt><trkpt lat="42.82129063490777" lon="12.929573381373995"><ele>401.0</ele><time>2026-04-04T08:57:05Z</time></trkpt><trkpt lat="42.821296135226206" lon="12.929745566853601"><ele>401.0</ele><time>2026-04-04T08:57:06Z</time></trkpt><trkpt lat="42.82130576792594" lon="12.929925326657008"><ele>401.0</ele><time>2026-04-04T08:57:07Z</time></trkpt><trkpt lat="42.821317685065594" lon="12.930106164730924"><ele>401.0</ele><time>2026-04-04T08:57:08Z</time></trkpt><trkpt lat="42.82133202395251" lon="12.930272313570635"><ele>401.0</ele><time>2026-04-04T08:57:09Z</time></trkpt><trkpt lat="42.821330342298076" lon="12.930443828517403"><ele>399.75</ele><time>2026-04-04T08:57:10Z</time></trkpt><trkpt lat="42.82134771545385" lon="12.930609491763413"><ele>398.5</ele><time>2026-04-04T08:57:11Z</time></trkpt><trkpt lat="42.821353774878055" lon="12.930780556709555"><ele>397.25</ele><time>2026-04-04T08:57:12Z</time></trkpt><trkpt lat="42.821359681717176" lon="12.930953243760372"><ele>396.0</ele><time>2026-04-04T08:57:13Z</time></trkpt><trkpt lat="42.821366177780405" lon="12.931127669162109"><ele>394.0</ele><time>2026-04-04T08:57:14Z</time></trkpt><trkpt lat="42.821368566324864" lon="12.931305648675846"><ele>392.0</ele><time>2026-04-04T08:57:15Z</time></trkpt><trkpt lat="42.82136710394265" lon="12.93148322886021"><ele>390.0</ele><time>2026-04-04T08:57:16Z</time></trkpt><trkpt lat="42.82135965287339" lon="12.931658665958604"><ele>388.0</ele><time>2026-04-04T08:57:17Z</time></trkpt><trkpt lat="42.82135018812273" lon="12.931840297553855"><ele>384.5</ele><time>2026-04-04T08:57:18Z</time></trkpt><trkpt lat="42.82133196960089" lon="12.932020772537744"><ele>381.0</ele><time>2026-04-04T08:57:19Z</time></trkpt><trkpt lat="42.821306157097005" lon="12.93220454999087"><ele>377.5</ele><time>2026-04-04T08:57:20Z</time></trkpt><trkpt lat="42.82127694952987" lon="12.932394285438779"><ele>374.0</ele><time>2026-04-04T08:57:21Z</time></trkpt><trkpt lat="42.82124019001838" lon="12.932588844800808"><ele>370.33333333333337</ele><time>2026-04-04T08:57:22Z</time></trkpt><trkpt lat="42.821195136746645" lon="12.932785854540679"><ele>366.6666666666667</ele><time>2026-04-04T08:57:23Z</time></trkpt><trkpt lat="42.82114429056022" lon="12.932986828810538"><ele>363.0</ele><time>2026-04-04T08:57:24Z</time></trkpt><trkpt lat="42.82108826443357" lon="12.933186385898448"><ele>363.0</ele><time>2026-04-04T08:57:25Z</time></trkpt><trkpt lat="42.82100843563688" lon="12.9333758029846"><ele>363.0</ele><time>2026-04-04T08:57:26Z</time></trkpt><trkpt lat="42.820937335563606" lon="12.933569169912307"><ele>363.0</ele><time>2026-04-04T08:57:27Z</time></trkpt><trkpt lat="42.820860899185774" lon="12.933759065954511"><ele>365.0</ele><time>2026-04-04T08:57:28Z</time></trkpt><trkpt lat="42.82077620646877" lon="12.933945545064786"><ele>367.0</ele><time>2026-04-04T08:57:29Z</time></trkpt><trkpt lat="42.82068362967429" lon="12.934130640886282"><ele>369.0</ele><time>2026-04-04T08:57:30Z</time></trkpt><trkpt lat="42.82058298766714" lon="12.934306296558253"><ele>376.33333333333337</ele><time>2026-04-04T08:57:31Z</time></trkpt><trkpt lat="42.82047862541366" lon="12.934477583026696"><ele>383.6666666666667</ele><time>2026-04-04T08:57:32Z</time></trkpt><trkpt lat="42.82037151834261" lon="12.934641286514136"><ele>391.0</ele><time>2026-04-04T08:57:33Z</time></trkpt><trkpt lat="42.82026007300212" lon="12.93479290055473"><ele>391.6666666666667</ele><time>2026-04-04T08:57:34Z</time></trkpt><trkpt lat="42.82014391180768" lon="12.934940427717873"><ele>392.33333333333337</ele><time>2026-04-04T08:57:35Z</time></trkpt><trkpt lat="42.820027747145645" lon="12.935080895830778"><ele>393.0</ele><time>2026-04-04T08:57:36Z</time></trkpt><trkpt lat="42.81990800411393" lon="12.935218008206935"><ele>405.66666666666663</ele><time>2026-04-04T08:57:37Z</time></trkpt><trkpt lat="42.81978554954984" lon="12.935355372331369"><ele>418.3333333333333</ele><time>2026-04-04T08:57:38Z</time></trkpt><trkpt lat="42.81966580909481" lon="12.935495382890005"><ele>431.0</ele><time>2026-04-04T08:57:39Z</time></trkpt><trkpt lat="42.81954876504065" lon="12.935630941864495"><ele>431.0</ele><time>2026-04-04T08:57:40Z</time></trkpt><trkpt lat="42.819427802820826" lon="12.935768648615353"><ele>431.0</ele><time>2026-04-04T08:57:41Z</time></trkpt><trkpt lat="42.81930200980722" lon="12.935911855695982"><ele>431.0</ele><time>2026-04-04T08:57:42.016Z</time></trkpt><trkpt lat="42.81917786240942" lon="12.93605605889665"><ele>460.3333333333333</ele><time>2026-04-04T08:57:43.017Z</time></trkpt><trkpt lat="42.81905423814209" lon="12.936199814451491"><ele>489.66666666666663</ele><time>2026-04-04T08:57:44.016Z</time></trkpt><trkpt lat="42.81892867035588" lon="12.93634364679571"><ele>519.0</ele><time>2026-04-04T08:57:45.021Z</time></trkpt><trkpt lat="42.818802634868035" lon="12.936487223750353"><ele>639.0</ele><time>2026-04-04T08:57:46.022Z</time></trkpt><trkpt lat="42.81728659850124" lon="12.938266383418014"><ele>640.0</ele><time>2026-04-04T08:57:50.492Z</time></trkpt><trkpt lat="42.81694296499343" lon="12.938661322814387"><ele>641.0</ele><time>2026-04-04T08:57:51.492Z</time></trkpt><trkpt lat="42.81659937551867" lon="12.939056211603383"><ele>644.5</ele><time>2026-04-04T08:57:52.492Z</time></trkpt><trkpt lat="42.816256535780866" lon="12.939452083150952"><ele>648.0</ele><time>2026-04-04T08:57:53.492Z</time></trkpt><trkpt lat="42.815913735250966" lon="12.939848577570123"><ele>639.0</ele><time>2026-04-04T08:57:54.492Z</time></trkpt><trkpt lat="42.81557102414337" lon="12.940244882650722"><ele>630.0</ele><time>2026-04-04T08:57:55.492Z</time></trkpt><trkpt lat="42.815227600865555" lon="12.940640165985013"><ele>626.5</ele><time>2026-04-04T08:57:56.492Z</time></trkpt><trkpt lat="42.81488422103002" lon="12.941035523297394"><ele>623.0</ele><time>2026-04-04T08:57:57.492Z</time></trkpt><trkpt lat="42.81454206196611" lon="12.941432522237815"><ele>619.0</ele><time>2026-04-04T08:57:58.492Z</time></trkpt><trkpt lat="42.81419981216733" lon="12.94182962645571"><ele>615.0</ele><time>2026-04-04T08:57:59.492Z</time></trkpt><trkpt lat="42.8141439" lon="12.9418945"><ele>431.0</ele><time>2026-04-04T08:58:00.492Z</time></trkpt><trkpt lat="42.811224121863255" lon="12.94523024677068"><ele>431.0</ele><time>2026-04-04T08:58:45.999Z</time></trkpt><trkpt lat="42.81111533105972" lon="12.94535549476478"><ele>431.0</ele><time>2026-04-04T08:58:46.999Z</time></trkpt><trkpt lat="42.81098770975989" lon="12.945484669703447"><ele>431.0</ele><time>2026-04-04T08:58:47.999Z</time></trkpt><trkpt lat="42.81089486717435" lon="12.94561443384107"><ele>431.0</ele><time>2026-04-04T08:58:48.999Z</time></trkpt><trkpt lat="42.810739229175994" lon="12.945784571737686"><ele>438.66666666666663</ele><time>2026-04-04T08:58:49.999Z</time></trkpt><trkpt lat="42.81060837469576" lon="12.945934398342951"><ele>446.33333333333337</ele><time>2026-04-04T08:58:50.999Z</time></trkpt><trkpt lat="42.810492961218905" lon="12.946095037934693"><ele>454.0</ele><time>2026-04-04T08:58:51.999Z</time></trkpt><trkpt lat="42.81035504054255" lon="12.946225768647631"><ele>454.0</ele><time>2026-04-04T08:58:52.999Z</time></trkpt><trkpt lat="42.810236333962244" lon="12.946363624740433"><ele>454.0</ele><time>2026-04-04T08:58:53.999Z</time></trkpt><trkpt lat="42.81011006445676" lon="12.94650976540471"><ele>454.0</ele><time>2026-04-04T08:58:54.999Z</time></trkpt><trkpt lat="42.80998866301225" lon="12.946650041062865"><ele>461.0</ele><time>2026-04-04T08:58:55.999Z</time></trkpt><trkpt lat="42.80986608875273" lon="12.946791529047067"><ele>468.0</ele><time>2026-04-04T08:58:57Z</time></trkpt><trkpt lat="42.809743644376915" lon="12.946932849098804"><ele>475.0</ele><time>2026-04-04T08:58:58.018Z</time></trkpt><trkpt lat="42.8096246751556" lon="12.947070156960475"><ele>475.0</ele><time>2026-04-04T08:58:59.017Z</time></trkpt><trkpt lat="42.809505827056974" lon="12.94720547198398"><ele>475.0</ele><time>2026-04-04T08:59:00.022Z</time></trkpt><trkpt lat="42.80938770866713" lon="12.947334160645488"><ele>475.0</ele><time>2026-04-04T08:59:01Z</time></trkpt><trkpt lat="42.80920887451836" lon="12.9475272303142"><ele>483.6666666666667</ele><time>2026-04-04T08:59:02Z</time></trkpt><trkpt lat="42.80903787288285" lon="12.947637872373301"><ele>492.33333333333337</ele><time>2026-04-04T08:59:03Z</time></trkpt><trkpt lat="42.80888029026388" lon="12.947736727522036"><ele>501.0</ele><time>2026-04-04T08:59:04Z</time></trkpt><trkpt lat="42.80870996506348" lon="12.947834113697036"><ele>501.0</ele><time>2026-04-04T08:59:05Z</time></trkpt><trkpt lat="42.80853356739606" lon="12.947926187555856"><ele>501.0</ele><time>2026-04-04T08:59:06Z</time></trkpt><trkpt lat="42.80835848161879" lon="12.94801575152343"><ele>501.0</ele><time>2026-04-04T08:59:07Z</time></trkpt><trkpt lat="42.80818902709037" lon="12.948102434856336"><ele>486.66666666666663</ele><time>2026-04-04T08:59:08Z</time></trkpt><trkpt lat="42.80801828844793" lon="12.94818977506349"><ele>472.3333333333333</ele><time>2026-04-04T08:59:09Z</time></trkpt><trkpt lat="42.80786003276014" lon="12.948270729694658"><ele>458.0</ele><time>2026-04-04T08:59:10Z</time></trkpt><trkpt lat="42.80767856897427" lon="12.948364587948037"><ele>466.66666666666663</ele><time>2026-04-04T08:59:11Z</time></trkpt><trkpt lat="42.80750822133561" lon="12.948461497965212"><ele>475.33333333333337</ele><time>2026-04-04T08:59:12Z</time></trkpt><trkpt lat="42.80735592450131" lon="12.948544770826716"><ele>484.0</ele><time>2026-04-04T08:59:13Z</time></trkpt><trkpt lat="42.80719222910528" lon="12.948635564314843"><ele>484.0</ele><time>2026-04-04T08:59:14Z</time></trkpt><trkpt lat="42.80702963357204" lon="12.94872236707931"><ele>484.0</ele><time>2026-04-04T08:59:15Z</time></trkpt><trkpt lat="42.806861570098874" lon="12.948787637317716"><ele>484.0</ele><time>2026-04-04T08:59:16Z</time></trkpt><trkpt lat="42.80670323879677" lon="12.948869540276556"><ele>474.33333333333337</ele><time>2026-04-04T08:59:17Z</time></trkpt><trkpt lat="42.80652360942462" lon="12.948962460482976"><ele>464.66666666666663</ele><time>2026-04-04T08:59:18Z</time></trkpt><trkpt lat="42.806362490830935" lon="12.949045753102629"><ele>455.0</ele><time>2026-04-04T08:59:19Z</time></trkpt><trkpt lat="42.80620103850678" lon="12.949129046408956"><ele>455.0</ele><time>2026-04-04T08:59:20Z</time></trkpt><trkpt lat="42.806047662507865" lon="12.949208173131188"><ele>455.0</ele><time>2026-04-04T08:59:21Z</time></trkpt><trkpt lat="42.80589226426519" lon="12.949289832463295"><ele>455.0</ele><time>2026-04-04T08:59:22Z</time></trkpt><trkpt lat="42.805740207088434" lon="12.949376722130284"><ele>461.66666666666663</ele><time>2026-04-04T08:59:23Z</time></trkpt><trkpt lat="42.805595031781976" lon="12.949471070312729"><ele>468.33333333333337</ele><time>2026-04-04T08:59:24Z</time></trkpt><trkpt lat="42.80545380023747" lon="12.949565940607362"><ele>475.0</ele><time>2026-04-04T08:59:25Z</time></trkpt><trkpt lat="42.80531030591072" lon="12.94966269299046"><ele>475.0</ele><time>2026-04-04T08:59:26Z</time></trkpt><trkpt lat="42.80516466540178" lon="12.949758757580195"><ele>475.0</ele><time>2026-04-04T08:59:27Z</time></trkpt><trkpt lat="42.80502219368791" lon="12.949835692426452"><ele>475.0</ele><time>2026-04-04T08:59:28Z</time></trkpt><trkpt lat="42.80487260515397" lon="12.949890529943112"><ele>466.33333333333337</ele><time>2026-04-04T08:59:29Z</time></trkpt><trkpt lat="42.804738438951716" lon="12.949926445286664"><ele>457.66666666666663</ele><time>2026-04-04T08:59:30Z</time></trkpt><trkpt lat="42.80458616688225" lon="12.949972253764138"><ele>449.0</ele><time>2026-04-04T08:59:31Z</time></trkpt><trkpt lat="42.804429610239815" lon="12.94994893717848"><ele>447.3333333333333</ele><time>2026-04-04T08:59:32Z</time></trkpt><trkpt lat="42.80427444056302" lon="12.949939870784402"><ele>445.66666666666663</ele><time>2026-04-04T08:59:33Z</time></trkpt><trkpt lat="42.80412087531957" lon="12.949943812191444"><ele>444.0</ele><time>2026-04-04T08:59:34Z</time></trkpt><trkpt lat="42.80397267965492" lon="12.94997455412774"><ele>444.0</ele><time>2026-04-04T08:59:35Z</time></trkpt><trkpt lat="42.80382141605411" lon="12.950021195837337"><ele>444.0</ele><time>2026-04-04T08:59:36Z</time></trkpt><trkpt lat="42.80366787579739" lon="12.950089633854379"><ele>444.0</ele><time>2026-04-04T08:59:37Z</time></trkpt><trkpt lat="42.803521874849515" lon="12.950185759023022"><ele>448.0</ele><time>2026-04-04T08:59:38Z</time></trkpt><trkpt lat="42.80337805480945" lon="12.950307925242459"><ele>452.0</ele><time>2026-04-04T08:59:39Z</time></trkpt><trkpt lat="42.803241278801984" lon="12.950424529529187"><ele>456.0</ele><time>2026-04-04T08:59:40Z</time></trkpt><trkpt lat="42.80311301180065" lon="12.950540333602262"><ele>456.0</ele><time>2026-04-04T08:59:41Z</time></trkpt><trkpt lat="42.802990735704675" lon="12.950650349808019"><ele>456.0</ele><time>2026-04-04T08:59:42Z</time></trkpt><trkpt lat="42.80289009995907" lon="12.950755072980897"><ele>456.0</ele><time>2026-04-04T08:59:43Z</time></trkpt><trkpt lat="42.802765482016504" lon="12.950873787743204"><ele>456.0</ele><time>2026-04-04T08:59:44Z</time></trkpt><trkpt lat="42.802647621924805" lon="12.951008621039055"><ele>459.66666666666663</ele><time>2026-04-04T08:59:45Z</time></trkpt><trkpt lat="42.80254149432182" lon="12.95116261826326"><ele>463.3333333333333</ele><time>2026-04-04T08:59:46Z</time></trkpt><trkpt lat="42.80243980256977" lon="12.951317213725185"><ele>467.0</ele><time>2026-04-04T08:59:47Z</time></trkpt><trkpt lat="42.80233850377726" lon="12.951486714091597"><ele>467.0</ele><time>2026-04-04T08:59:48Z</time></trkpt><trkpt lat="42.80223486894166" lon="12.95166527161012"><ele>467.0</ele><time>2026-04-04T08:59:49.02Z</time></trkpt><trkpt lat="42.80213250542114" lon="12.951842598864134"><ele>467.0</ele><time>2026-04-04T08:59:50.019Z</time></trkpt><trkpt lat="42.80202558660565" lon="12.952017803293035"><ele>462.3333333333333</ele><time>2026-04-04T08:59:51.019Z</time></trkpt><trkpt lat="42.80191326034893" lon="12.952189422073177"><ele>457.66666666666663</ele><time>2026-04-04T08:59:52.015Z</time></trkpt><trkpt lat="42.80178879359657" lon="12.952350831282336"><ele>453.0</ele><time>2026-04-04T08:59:53.014Z</time></trkpt><trkpt lat="42.80165558470256" lon="12.95250626850719"><ele>475.5</ele><time>2026-04-04T08:59:54.019Z</time></trkpt><trkpt lat="42.8015234186027" lon="12.952661723898053"><ele>498.0</ele><time>2026-04-04T08:59:55.019Z</time></trkpt><trkpt lat="42.8011955414366" lon="12.952689081442498"><ele>498.0</ele><time>2026-04-04T08:59:57Z</time></trkpt><trkpt lat="42.801099430137256" lon="12.95290587500528"><ele>498.0</ele><time>2026-04-04T08:59:58Z</time></trkpt><trkpt lat="42.80095422073753" lon="12.953018304036888"><ele>498.0</ele><time>2026-04-04T08:59:59Z</time></trkpt><trkpt lat="42.80081600634149" lon="12.95311635271794"><ele>488.25</ele><time>2026-04-04T09:00:00Z</time></trkpt><trkpt lat="42.80068767267624" lon="12.95319461267338"><ele>478.5</ele><time>2026-04-04T09:00:01Z</time></trkpt><trkpt lat="42.80055208301323" lon="12.953267397775576"><ele>468.75</ele><time>2026-04-04T09:00:02Z</time></trkpt><trkpt lat="42.80041121282304" lon="12.953315177242555"><ele>459.0</ele><time>2026-04-04T09:00:03Z</time></trkpt><trkpt lat="42.80026745205779" lon="12.95333458817456"><ele>457.75</ele><time>2026-04-04T09:00:04Z</time></trkpt><trkpt lat="42.80012383751906" lon="12.95333871351218"><ele>456.5</ele><time>2026-04-04T09:00:05Z</time></trkpt><trkpt lat="42.79998137728799" lon="12.953340552265233"><ele>455.25</ele><time>2026-04-04T09:00:06Z</time></trkpt><trkpt lat="42.79984101257771" lon="12.953344699707452"><ele>454.0</ele><time>2026-04-04T09:00:07Z</time></trkpt><trkpt lat="42.79970259002054" lon="12.953370337360397"><ele>464.25</ele><time>2026-04-04T09:00:08Z</time></trkpt><trkpt lat="42.799557006621626" lon="12.953419529624508"><ele>474.5</ele><time>2026-04-04T09:00:09Z</time></trkpt><trkpt lat="42.79941348442982" lon="12.953465472384337"><ele>484.75</ele><time>2026-04-04T09:00:10Z</time></trkpt><trkpt lat="42.79926860360889" lon="12.953512093308266"><ele>495.0</ele><time>2026-04-04T09:00:11Z</time></trkpt><trkpt lat="42.79911940788487" lon="12.953562364149782"><ele>495.0</ele><time>2026-04-04T09:00:12Z</time></trkpt><trkpt lat="42.79896905531684" lon="12.953622126501847"><ele>495.0</ele><time>2026-04-04T09:00:13Z</time></trkpt><trkpt lat="42.79881868421198" lon="12.953676031536723"><ele>495.0</ele><time>2026-04-04T09:00:14Z</time></trkpt><trkpt lat="42.79866438682856" lon="12.953729970244863"><ele>495.0</ele><time>2026-04-04T09:00:15Z</time></trkpt><trkpt lat="42.798507697427475" lon="12.953774567185535"><ele>495.0</ele><time>2026-04-04T09:00:16Z</time></trkpt><trkpt lat="42.79835027685087" lon="12.953809054297155"><ele>495.0</ele><time>2026-04-04T09:00:17Z</time></trkpt><trkpt lat="42.798196729545964" lon="12.953835448837783"><ele>490.33333333333337</ele><time>2026-04-04T09:00:18Z</time></trkpt><trkpt lat="42.79804668603054" lon="12.953857297408044"><ele>485.6666666666667</ele><time>2026-04-04T09:00:19Z</time></trkpt><trkpt lat="42.797895697457264" lon="12.953867074763744"><ele>481.0</ele><time>2026-04-04T09:00:20Z</time></trkpt><trkpt lat="42.79774254459125" lon="12.953874951192823"><ele>474.6666666666667</ele><time>2026-04-04T09:00:21Z</time></trkpt><trkpt lat="42.797597751053665" lon="12.953886933376788"><ele>468.33333333333337</ele><time>2026-04-04T09:00:22Z</time></trkpt><trkpt lat="42.797444234021455" lon="12.953934967675423"><ele>462.0</ele><time>2026-04-04T09:00:23Z</time></trkpt><trkpt lat="42.797300807103305" lon="12.953996448807507"><ele>462.0</ele><time>2026-04-04T09:00:24Z</time></trkpt><trkpt lat="42.797152651436186" lon="12.954083286412395"><ele>462.0</ele><time>2026-04-04T09:00:25Z</time></trkpt><trkpt lat="42.79702963642667" lon="12.954203026684995"><ele>462.0</ele><time>2026-04-04T09:00:26Z</time></trkpt><trkpt lat="42.79689223578628" lon="12.954315656264631"><ele>461.66666666666663</ele><time>2026-04-04T09:00:27Z</time></trkpt><trkpt lat="42.79675758736923" lon="12.954430442913054"><ele>461.3333333333333</ele><time>2026-04-04T09:00:28Z</time></trkpt><trkpt lat="42.79662151021642" lon="12.954529947219674"><ele>461.0</ele><time>2026-04-04T09:00:29Z</time></trkpt><trkpt lat="42.79648417444129" lon="12.954627388650126"><ele>461.0</ele><time>2026-04-04T09:00:30Z</time></trkpt><trkpt lat="42.796337841539675" lon="12.954709097087655"><ele>461.0</ele><time>2026-04-04T09:00:31Z</time></trkpt><trkpt lat="42.79619160409043" lon="12.9547918737135"><ele>461.0</ele><time>2026-04-04T09:00:32Z</time></trkpt><trkpt lat="42.79604801079365" lon="12.954873196535837"><ele>464.66666666666663</ele><time>2026-04-04T09:00:33Z</time></trkpt><trkpt lat="42.79590500965486" lon="12.95495762794455"><ele>468.33333333333337</ele><time>2026-04-04T09:00:34Z</time></trkpt><trkpt lat="42.79576042208846" lon="12.955044267137927"><ele>472.0</ele><time>2026-04-04T09:00:35Z</time></trkpt><trkpt lat="42.79561610935911" lon="12.955139211609863"><ele>472.0</ele><time>2026-04-04T09:00:36Z</time></trkpt><trkpt lat="42.79547684768357" lon="12.955227128512533"><ele>472.0</ele><time>2026-04-04T09:00:37Z</time></trkpt><trkpt lat="42.795333489069534" lon="12.955315625585536"><ele>472.0</ele><time>2026-04-04T09:00:38Z</time></trkpt><trkpt lat="42.79519081939057" lon="12.955410621258798"><ele>465.33333333333337</ele><time>2026-04-04T09:00:39Z</time></trkpt><trkpt lat="42.795049202925924" lon="12.955502491622806"><ele>458.66666666666663</ele><time>2026-04-04T09:00:40Z</time></trkpt><trkpt lat="42.79490826341435" lon="12.955599633078279"><ele>452.0</ele><time>2026-04-04T09:00:41Z</time></trkpt><trkpt lat="42.794767465273274" lon="12.955705242805497"><ele>452.0</ele><time>2026-04-04T09:00:42Z</time></trkpt><trkpt lat="42.794629792625685" lon="12.955823777339209"><ele>452.0</ele><time>2026-04-04T09:00:43Z</time></trkpt><trkpt lat="42.794498181421616" lon="12.955959650023248"><ele>452.0</ele><time>2026-04-04T09:00:44Z</time></trkpt><trkpt lat="42.79437165972151" lon="12.956103566051596"><ele>454.0</ele><time>2026-04-04T09:00:45Z</time></trkpt><trkpt lat="42.79424371426167" lon="12.956254588919249"><ele>456.0</ele><time>2026-04-04T09:00:46Z</time></trkpt><trkpt lat="42.79411665266561" lon="12.95640610311049"><ele>458.0</ele><time>2026-04-04T09:00:47Z</time></trkpt><trkpt lat="42.79399244695341" lon="12.956552726161126"><ele>458.0</ele><time>2026-04-04T09:00:48Z</time></trkpt><trkpt lat="42.793868495649704" lon="12.956701115440488"><ele>458.0</ele><time>2026-04-04T09:00:49Z</time></trkpt><trkpt lat="42.793739612887286" lon="12.95684289683778"><ele>458.0</ele><time>2026-04-04T09:00:50Z</time></trkpt><trkpt lat="42.79362031099095" lon="12.956989975702905"><ele>457.0</ele><time>2026-04-04T09:00:51Z</time></trkpt><trkpt lat="42.79349612722417" lon="12.957124907582417"><ele>456.0</ele><time>2026-04-04T09:00:52Z</time></trkpt><trkpt lat="42.79337083914996" lon="12.957258699826763"><ele>455.0</ele><time>2026-04-04T09:00:53Z</time></trkpt><trkpt lat="42.79324698755046" lon="12.957397242700967"><ele>455.0</ele><time>2026-04-04T09:00:54Z</time></trkpt><trkpt lat="42.79313099987232" lon="12.957530105810996"><ele>455.0</ele><time>2026-04-04T09:00:55Z</time></trkpt><trkpt lat="42.79301899193292" lon="12.957656466291022"><ele>455.0</ele><time>2026-04-04T09:00:56Z</time></trkpt><trkpt lat="42.792897681595505" lon="12.957773144018086"><ele>455.0</ele><time>2026-04-04T09:00:57Z</time></trkpt><trkpt lat="42.79276787343432" lon="12.9578717253855"><ele>456.75</ele><time>2026-04-04T09:00:58Z</time></trkpt><trkpt lat="42.792631537656554" lon="12.9579577795734"><ele>458.5</ele><time>2026-04-04T09:00:59Z</time></trkpt><trkpt lat="42.79249374111072" lon="12.95803212174219"><ele>460.25</ele><time>2026-04-04T09:01:00Z</time></trkpt><trkpt lat="42.79235562231449" lon="12.958101709605337"><ele>462.0</ele><time>2026-04-04T09:01:01Z</time></trkpt><trkpt lat="42.792216001997616" lon="12.95816829145156"><ele>462.0</ele><time>2026-04-04T09:01:02Z</time></trkpt><trkpt lat="42.79207487456753" lon="12.958235048192732"><ele>462.0</ele><time>2026-04-04T09:01:03Z</time></trkpt><trkpt lat="42.79194180899226" lon="12.958307724036572"><ele>462.0</ele><time>2026-04-04T09:01:04Z</time></trkpt><trkpt lat="42.79179776025766" lon="12.958344124955442"><ele>462.0</ele><time>2026-04-04T09:01:05Z</time></trkpt><trkpt lat="42.791675719205415" lon="12.958449312745623"><ele>465.0</ele><time>2026-04-04T09:01:06Z</time></trkpt><trkpt lat="42.79156369270034" lon="12.958557126722493"><ele>468.0</ele><time>2026-04-04T09:01:07Z</time></trkpt><trkpt lat="42.791455799572354" lon="12.958665518194866"><ele>471.0</ele><time>2026-04-04T09:01:08Z</time></trkpt><trkpt lat="42.791351004137454" lon="12.958773861865648"><ele>474.0</ele><time>2026-04-04T09:01:09Z</time></trkpt><trkpt lat="42.79125025239513" lon="12.958879824780729"><ele>474.0</ele><time>2026-04-04T09:01:10Z</time></trkpt><trkpt lat="42.79116113801062" lon="12.95897730373347"><ele>474.0</ele><time>2026-04-04T09:01:11Z</time></trkpt><trkpt lat="42.79107800204191" lon="12.959076288235401"><ele>474.0</ele><time>2026-04-04T09:01:12Z</time></trkpt><trkpt lat="42.791011555072835" lon="12.959168956154311"><ele>474.0</ele><time>2026-04-04T09:01:13Z</time></trkpt><trkpt lat="42.79096264458082" lon="12.959292142484747"><ele>474.0</ele><time>2026-04-04T09:01:14Z</time></trkpt><trkpt lat="42.79093899239768" lon="12.959408704487705"><ele>475.4</ele><time>2026-04-04T09:01:15Z</time></trkpt><trkpt lat="42.790947363271" lon="12.959538220878285"><ele>476.79999999999995</ele><time>2026-04-04T09:01:16Z</time></trkpt><trkpt lat="42.79097380723515" lon="12.959690904836535"><ele>478.20000000000005</ele><time>2026-04-04T09:01:17Z</time></trkpt><trkpt lat="42.79099835196547" lon="12.959834640788754"><ele>479.6</ele><time>2026-04-04T09:01:18Z</time></trkpt><trkpt lat="42.790990212710106" lon="12.9599915853276"><ele>481.0</ele><time>2026-04-04T09:01:19Z</time></trkpt><trkpt lat="42.79098177329136" lon="12.960157893974186"><ele>481.0</ele><time>2026-04-04T09:01:20Z</time></trkpt><trkpt lat="42.79096877306903" lon="12.960332396166365"><ele>481.0</ele><time>2026-04-04T09:01:21Z</time></trkpt><trkpt lat="42.79095522167031" lon="12.960515037510143"><ele>481.0</ele><time>2026-04-04T09:01:22Z</time></trkpt><trkpt lat="42.79093279707057" lon="12.960700518827059"><ele>481.0</ele><time>2026-04-04T09:01:23Z</time></trkpt><trkpt lat="42.79091094439229" lon="12.960892088844407"><ele>482.25</ele><time>2026-04-04T09:01:24Z</time></trkpt><trkpt lat="42.79088680693898" lon="12.961087613304498"><ele>483.5</ele><time>2026-04-04T09:01:25Z</time></trkpt><trkpt lat="42.790860186120625" lon="12.96128609528713"><ele>484.75</ele><time>2026-04-04T09:01:26Z</time></trkpt><trkpt lat="42.7908331172789" lon="12.961488800040252"><ele>486.0</ele><time>2026-04-04T09:01:27Z</time></trkpt><trkpt lat="42.79080636976118" lon="12.961690940818551"><ele>482.25</ele><time>2026-04-04T09:01:28Z</time></trkpt><trkpt lat="42.790785053296695" lon="12.961893088081913"><ele>478.5</ele><time>2026-04-04T09:01:29Z</time></trkpt><trkpt lat="42.79077128530988" lon="12.962091122166923"><ele>474.75</ele><time>2026-04-04T09:01:30Z</time></trkpt><trkpt lat="42.79077136850422" lon="12.962289190178497"><ele>471.0</ele><time>2026-04-04T09:01:31Z</time></trkpt><trkpt lat="42.79079119050773" lon="12.96248722640297"><ele>471.0</ele><time>2026-04-04T09:01:32Z</time></trkpt><trkpt lat="42.79081021904195" lon="12.96268134305103"><ele>471.0</ele><time>2026-04-04T09:01:33Z</time></trkpt><trkpt lat="42.79083663950345" lon="12.962810580083284"><ele>471.0</ele><time>2026-04-04T09:01:35Z</time></trkpt><trkpt lat="42.79088718618628" lon="12.96301454901662"><ele>471.0</ele><time>2026-04-04T09:01:36Z</time></trkpt><trkpt lat="42.79092646781717" lon="12.963153837175852"><ele>471.0</ele><time>2026-04-04T09:01:37Z</time></trkpt><trkpt lat="42.79103001000115" lon="12.963548260273688"><ele>471.0</ele><time>2026-04-04T09:01:38Z</time></trkpt><trkpt lat="42.791113721749376" lon="12.96397779718954"><ele>471.0</ele><time>2026-04-04T09:01:39Z</time></trkpt><trkpt lat="42.79026829371082" lon="12.964529667342894"><ele>495.0</ele><time>2026-04-04T09:01:40Z</time></trkpt><trkpt lat="42.790225538385926" lon="12.964782828407325"><ele>519.0</ele><time>2026-04-04T09:01:41Z</time></trkpt><trkpt lat="42.79020923165162" lon="12.96517134079342"><ele>519.0</ele><time>2026-04-04T09:01:42Z</time></trkpt><trkpt lat="42.790373879316355" lon="12.96518696674798"><ele>519.0</ele><time>2026-04-04T09:01:43Z</time></trkpt><trkpt lat="42.79037336574815" lon="12.96536399252596"><ele>519.0</ele><time>2026-04-04T09:01:44Z</time></trkpt><trkpt lat="42.790449662172236" lon="12.965612034829526"><ele>508.5</ele><time>2026-04-04T09:01:45Z</time></trkpt><trkpt lat="42.79037935008388" lon="12.965945333399986"><ele>498.0</ele><time>2026-04-04T09:01:46Z</time></trkpt><trkpt lat="42.79038695686782" lon="12.966216814501438"><ele>498.0</ele><time>2026-04-04T09:01:47Z</time></trkpt><trkpt lat="42.79027977748711" lon="12.966268294288595"><ele>498.0</ele><time>2026-04-04T09:01:48Z</time></trkpt><trkpt lat="42.79051972382329" lon="12.966603637754766"><ele>491.25</ele><time>2026-04-04T09:01:50Z</time></trkpt><trkpt lat="42.790494838943054" lon="12.966750905804043"><ele>484.5</ele><time>2026-04-04T09:01:51Z</time></trkpt><trkpt lat="42.790645533101696" lon="12.966857381226792"><ele>477.75</ele><time>2026-04-04T09:01:52Z</time></trkpt><trkpt lat="42.79066486381054" lon="12.967050904082317"><ele>471.0</ele><time>2026-04-04T09:01:53Z</time></trkpt><trkpt lat="42.79051236272181" lon="12.967141735417863"><ele>471.0</ele><time>2026-04-04T09:01:54Z</time></trkpt><trkpt lat="42.79058229026608" lon="12.967271843684884"><ele>471.0</ele><time>2026-04-04T09:01:55Z</time></trkpt><trkpt lat="42.790490681998655" lon="12.967467961101166"><ele>471.0</ele><time>2026-04-04T09:01:56Z</time></trkpt><trkpt lat="42.79036805153764" lon="12.96760973970762"><ele>469.0</ele><time>2026-04-04T09:01:57Z</time></trkpt><trkpt lat="42.79049310445989" lon="12.967744392899087"><ele>467.0</ele><time>2026-04-04T09:01:58Z</time></trkpt><trkpt lat="42.79052965599378" lon="12.967819836868607"><ele>465.0</ele><time>2026-04-04T09:01:59Z</time></trkpt><trkpt lat="42.79056699449422" lon="12.967928259037382"><ele>463.0</ele><time>2026-04-04T09:02:00Z</time></trkpt><trkpt lat="42.79057922785265" lon="12.968141138618819"><ele>463.0</ele><time>2026-04-04T09:02:01Z</time></trkpt><trkpt lat="42.790661343654236" lon="12.968209209112114"><ele>463.0</ele><time>2026-04-04T09:02:02Z</time></trkpt><trkpt lat="42.79072916578756" lon="12.96838928002451"><ele>463.0</ele><time>2026-04-04T09:02:03Z</time></trkpt><trkpt lat="42.79077662603954" lon="12.968544800433895"><ele>463.0</ele><time>2026-04-04T09:02:04Z</time></trkpt><trkpt lat="42.79099968733686" lon="12.968683649958647"><ele>464.0</ele><time>2026-04-04T09:02:05Z</time></trkpt><trkpt lat="42.79090130075806" lon="12.969075547235283"><ele>465.0</ele><time>2026-04-04T09:02:06Z</time></trkpt><trkpt lat="42.79095480450978" lon="12.969286668241763"><ele>465.0</ele><time>2026-04-04T09:02:07Z</time></trkpt><trkpt lat="42.790953405728004" lon="12.969485113221353"><ele>465.0</ele><time>2026-04-04T09:02:08Z</time></trkpt><trkpt lat="42.79115962967812" lon="12.969602350521479"><ele>465.0</ele><time>2026-04-04T09:02:09Z</time></trkpt><trkpt lat="42.7913859022321" lon="12.969670864703808"><ele>473.0</ele><time>2026-04-04T09:02:10Z</time></trkpt><trkpt lat="42.79129229869817" lon="12.969929595941998"><ele>481.0</ele><time>2026-04-04T09:02:11Z</time></trkpt><trkpt lat="42.790996437462276" lon="12.97009421180523"><ele>481.0</ele><time>2026-04-04T09:02:12Z</time></trkpt><trkpt lat="42.79095061294453" lon="12.970293685254791"><ele>481.0</ele><time>2026-04-04T09:02:14Z</time></trkpt><trkpt lat="42.79084988163598" lon="12.970444889180301"><ele>481.0</ele><time>2026-04-04T09:02:15Z</time></trkpt><trkpt lat="42.790730852320905" lon="12.97055694831281"><ele>481.0</ele><time>2026-04-04T09:02:16Z</time></trkpt><trkpt lat="42.790603640689504" lon="12.970678331793462"><ele>481.0</ele><time>2026-04-04T09:02:17Z</time></trkpt><trkpt lat="42.790470565947786" lon="12.970792686887286"><ele>481.0</ele><time>2026-04-04T09:02:18Z</time></trkpt><trkpt lat="42.790339503555394" lon="12.970912288422094"><ele>481.0</ele><time>2026-04-04T09:02:19Z</time></trkpt><trkpt lat="42.790219439360754" lon="12.971041868737265"><ele>477.33333333333337</ele><time>2026-04-04T09:02:20Z</time></trkpt><trkpt lat="42.79010658136015" lon="12.971199341515865"><ele>473.66666666666663</ele><time>2026-04-04T09:02:21Z</time></trkpt><trkpt lat="42.79000338198424" lon="12.971365550786235"><ele>470.0</ele><time>2026-04-04T09:02:22Z</time></trkpt><trkpt lat="42.789902533497525" lon="12.971534484362104"><ele>479.5</ele><time>2026-04-04T09:02:23Z</time></trkpt><trkpt lat="42.789810472536814" lon="12.971695898518265"><ele>489.0</ele><time>2026-04-04T09:02:24Z</time></trkpt><trkpt lat="42.78972627689958" lon="12.971857522062399"><ele>498.5</ele><time>2026-04-04T09:02:25Z</time></trkpt><trkpt lat="42.78965412327189" lon="12.972016419495933"><ele>508.0</ele><time>2026-04-04T09:02:26Z</time></trkpt><trkpt lat="42.789610254240024" lon="12.972181080114867"><ele>508.0</ele><time>2026-04-04T09:02:27Z</time></trkpt><trkpt lat="42.78956667336254" lon="12.97234781403884"><ele>508.0</ele><time>2026-04-04T09:02:28Z</time></trkpt><trkpt lat="42.789520227367206" lon="12.972498468958818"><ele>508.0</ele><time>2026-04-04T09:02:29Z</time></trkpt><trkpt lat="42.78950118988816" lon="12.972676954597802"><ele>508.0</ele><time>2026-04-04T09:02:30Z</time></trkpt><trkpt lat="42.78949468795703" lon="12.97284935538331"><ele>513.0</ele><time>2026-04-04T09:02:31Z</time></trkpt><trkpt lat="42.78949654414137" lon="12.973016455463297"><ele>518.0</ele><time>2026-04-04T09:02:32Z</time></trkpt><trkpt lat="42.78950252080604" lon="12.973177564306715"><ele>523.0</ele><time>2026-04-04T09:02:33Z</time></trkpt><trkpt lat="42.78950850416985" lon="12.973338853713553"><ele>528.0</ele><time>2026-04-04T09:02:34Z</time></trkpt><trkpt lat="42.789514466805926" lon="12.973499584343841"><ele>528.0</ele><time>2026-04-04T09:02:35.02Z</time></trkpt><trkpt lat="42.789521380987466" lon="12.973655888508894"><ele>528.0</ele><time>2026-04-04T09:02:36.02Z</time></trkpt><trkpt lat="42.78952902586372" lon="12.973810928064351"><ele>528.0</ele><time>2026-04-04T09:02:37.021Z</time></trkpt><trkpt lat="42.78953672614146" lon="12.973967091122264"><ele>528.0</ele><time>2026-04-04T09:02:38.021Z</time></trkpt><trkpt lat="42.789542147938434" lon="12.974128342280883"><ele>522.6666666666666</ele><time>2026-04-04T09:02:39.023Z</time></trkpt><trkpt lat="42.78953542628414" lon="12.974285121891128"><ele>517.3333333333333</ele><time>2026-04-04T09:02:40.02Z</time></trkpt><trkpt lat="42.789517281624896" lon="12.974450479882176"><ele>512.0</ele><time>2026-04-04T09:02:41.022Z</time></trkpt><trkpt lat="42.78914215512833" lon="12.97635287047641"><ele>502.66666666666663</ele><time>2026-04-04T09:02:48Z</time></trkpt><trkpt lat="42.789096377342524" lon="12.9765671974851"><ele>493.33333333333337</ele><time>2026-04-04T09:02:49Z</time></trkpt><trkpt lat="42.78905443147335" lon="12.976736721364432"><ele>484.0</ele><time>2026-04-04T09:02:50Z</time></trkpt><trkpt lat="42.78902900270884" lon="12.976965384595115"><ele>484.0</ele><time>2026-04-04T09:02:51Z</time></trkpt><trkpt lat="42.78899403793686" lon="12.977157887642258"><ele>484.0</ele><time>2026-04-04T09:02:52Z</time></trkpt><trkpt lat="42.7889840829769" lon="12.977377529634534"><ele>484.0</ele><time>2026-04-04T09:02:53Z</time></trkpt><trkpt lat="42.789097952097244" lon="12.977616818042366"><ele>481.33333333333337</ele><time>2026-04-04T09:02:54Z</time></trkpt><trkpt lat="42.78915629767154" lon="12.977814189047416"><ele>478.66666666666663</ele><time>2026-04-04T09:02:55Z</time></trkpt><trkpt lat="42.789223532164556" lon="12.97801189178311"><ele>476.0</ele><time>2026-04-04T09:02:56Z</time></trkpt><trkpt lat="42.78929131361913" lon="12.978212644315459"><ele>490.3333333333333</ele><time>2026-04-04T09:02:57Z</time></trkpt><trkpt lat="42.78935427133165" lon="12.978404271173366"><ele>504.66666666666663</ele><time>2026-04-04T09:02:58Z</time></trkpt><trkpt lat="42.789401938396814" lon="12.978611398115536"><ele>519.0</ele><time>2026-04-04T09:02:59Z</time></trkpt><trkpt lat="42.789425174978696" lon="12.978819452513767"><ele>519.0</ele><time>2026-04-04T09:03:00Z</time></trkpt><trkpt lat="42.789441551024176" lon="12.97904699734719"><ele>519.0</ele><time>2026-04-04T09:03:01Z</time></trkpt><trkpt lat="42.78946101088988" lon="12.979256481154717"><ele>519.0</ele><time>2026-04-04T09:03:02Z</time></trkpt><trkpt lat="42.789470147906435" lon="12.979478180626515"><ele>516.6666666666666</ele><time>2026-04-04T09:03:03Z</time></trkpt><trkpt lat="42.78948816217971" lon="12.979690508458352"><ele>514.3333333333333</ele><time>2026-04-04T09:03:04Z</time></trkpt><trkpt lat="42.78951256029109" lon="12.979901453688452"><ele>512.0</ele><time>2026-04-04T09:03:05Z</time></trkpt><trkpt lat="42.789549729600886" lon="12.980109679649129"><ele>504.66666666666663</ele><time>2026-04-04T09:03:06Z</time></trkpt><trkpt lat="42.78960193076153" lon="12.980308456558411"><ele>497.33333333333337</ele><time>2026-04-04T09:03:07Z</time></trkpt><trkpt lat="42.78966368509791" lon="12.980496950703202"><ele>490.0</ele><time>2026-04-04T09:03:08Z</time></trkpt><trkpt lat="42.789731016623634" lon="12.980689867106896"><ele>487.0</ele><time>2026-04-04T09:03:09Z</time></trkpt><trkpt lat="42.789808117462265" lon="12.980860623725428"><ele>484.0</ele><time>2026-04-04T09:03:10Z</time></trkpt><trkpt lat="42.78988581540429" lon="12.981024362925591"><ele>481.0</ele><time>2026-04-04T09:03:11Z</time></trkpt><trkpt lat="42.789937946910946" lon="12.98117773340915"><ele>478.0</ele><time>2026-04-04T09:03:12Z</time></trkpt><trkpt lat="42.78997960657663" lon="12.981361076490453"><ele>478.0</ele><time>2026-04-04T09:03:13Z</time></trkpt><trkpt lat="42.790003983674545" lon="12.981548684223991"><ele>478.0</ele><time>2026-04-04T09:03:14Z</time></trkpt><trkpt lat="42.790027899576614" lon="12.981744467495112"><ele>478.0</ele><time>2026-04-04T09:03:15Z</time></trkpt><trkpt lat="42.79005043056407" lon="12.981948448042571"><ele>478.0</ele><time>2026-04-04T09:03:16Z</time></trkpt><trkpt lat="42.79007225554009" lon="12.982146037029691"><ele>478.0</ele><time>2026-04-04T09:03:17Z</time></trkpt><trkpt lat="42.790098673120276" lon="12.982354223719511"><ele>478.0</ele><time>2026-04-04T09:03:18Z</time></trkpt><trkpt lat="42.79012386651452" lon="12.982545199061109"><ele>478.0</ele><time>2026-04-04T09:03:19Z</time></trkpt><trkpt lat="42.79014614063239" lon="12.982732425514655"><ele>478.0</ele><time>2026-04-04T09:03:20Z</time></trkpt><trkpt lat="42.79017144202533" lon="12.982913270886595"><ele>478.5</ele><time>2026-04-04T09:03:21Z</time></trkpt><trkpt lat="42.790196878858204" lon="12.983089278061788"><ele>479.0</ele><time>2026-04-04T09:03:22Z</time></trkpt><trkpt lat="42.79023023623717" lon="12.98324640070135"><ele>479.5</ele><time>2026-04-04T09:03:23Z</time></trkpt><trkpt lat="42.79029962464052" lon="12.983387805396132"><ele>480.0</ele><time>2026-04-04T09:03:24Z</time></trkpt><trkpt lat="42.79038972222687" lon="12.983486495258104"><ele>480.0</ele><time>2026-04-04T09:03:25Z</time></trkpt><trkpt lat="42.79050478598424" lon="12.983551270383396"><ele>480.0</ele><time>2026-04-04T09:03:26Z</time></trkpt><trkpt lat="42.79064731311552" lon="12.983632549755807"><ele>480.0</ele><time>2026-04-04T09:03:27Z</time></trkpt><trkpt lat="42.7907673800847" lon="12.983689940307668"><ele>480.0</ele><time>2026-04-04T09:03:28Z</time></trkpt><trkpt lat="42.79088158798811" lon="12.983760257859057"><ele>480.0</ele><time>2026-04-04T09:03:29Z</time></trkpt><trkpt lat="42.790967890058546" lon="12.98390434167218"><ele>480.0</ele><time>2026-04-04T09:03:30Z</time></trkpt><trkpt lat="42.791053009953956" lon="12.984052209228327"><ele>480.0</ele><time>2026-04-04T09:03:31Z</time></trkpt><trkpt lat="42.79111831228191" lon="12.984216646723679"><ele>480.0</ele><time>2026-04-04T09:03:32Z</time></trkpt><trkpt lat="42.79116627954814" lon="12.984396880949209"><ele>489.5</ele><time>2026-04-04T09:03:33Z</time></trkpt><trkpt lat="42.791184888944336" lon="12.984590828112827"><ele>499.0</ele><time>2026-04-04T09:03:34Z</time></trkpt><trkpt lat="42.7911911478848" lon="12.98479363976985"><ele>508.5</ele><time>2026-04-04T09:03:35Z</time></trkpt><trkpt lat="42.7911774699858" lon="12.985002226405701"><ele>518.0</ele><time>2026-04-04T09:03:36Z</time></trkpt><trkpt lat="42.79114399589547" lon="12.985206100281816"><ele>522.6666666666666</ele><time>2026-04-04T09:03:37Z</time></trkpt><trkpt lat="42.79108456191878" lon="12.985397134344877"><ele>527.3333333333334</ele><time>2026-04-04T09:03:38Z</time></trkpt><trkpt lat="42.79099595652035" lon="12.985595645263864"><ele>532.0</ele><time>2026-04-04T09:03:39Z</time></trkpt><trkpt lat="42.79090325150448" lon="12.98575624860819"><ele>522.3333333333334</ele><time>2026-04-04T09:03:40Z</time></trkpt><trkpt lat="42.79080406576938" lon="12.985914207053519"><ele>512.6666666666666</ele><time>2026-04-04T09:03:41Z</time></trkpt><trkpt lat="42.79070106231979" lon="12.986070896393635"><ele>503.0</ele><time>2026-04-04T09:03:42Z</time></trkpt><trkpt lat="42.790600130014994" lon="12.986222541101299"><ele>503.0</ele><time>2026-04-04T09:03:43Z</time></trkpt><trkpt lat="42.79050442942007" lon="12.98637884203598"><ele>503.0</ele><time>2026-04-04T09:03:44Z</time></trkpt><trkpt lat="42.79041451302852" lon="12.98653774133987"><ele>503.0</ele><time>2026-04-04T09:03:45Z</time></trkpt><trkpt lat="42.790324926326555" lon="12.98670253576514"><ele>503.0</ele><time>2026-04-04T09:03:46Z</time></trkpt><trkpt lat="42.79028106970784" lon="12.986904260779975"><ele>502.3333333333333</ele><time>2026-04-04T09:03:47Z</time></trkpt><trkpt lat="42.79025155933118" lon="12.987111088003402"><ele>501.66666666666663</ele><time>2026-04-04T09:03:48Z</time></trkpt><trkpt lat="42.79025564229319" lon="12.987322945597505"><ele>501.0</ele><time>2026-04-04T09:03:49Z</time></trkpt><trkpt lat="42.790281636152926" lon="12.987536220091089"><ele>496.75</ele><time>2026-04-04T09:03:50Z</time></trkpt><trkpt lat="42.7903072735953" lon="12.987731351543639"><ele>492.5</ele><time>2026-04-04T09:03:51Z</time></trkpt><trkpt lat="42.79032903802374" lon="12.987925470811094"><ele>488.25</ele><time>2026-04-04T09:03:52Z</time></trkpt><trkpt lat="42.79035235601161" lon="12.9881271521263"><ele>484.0</ele><time>2026-04-04T09:03:53Z</time></trkpt><trkpt lat="42.790372882009905" lon="12.988340021548533"><ele>485.5</ele><time>2026-04-04T09:03:54Z</time></trkpt><trkpt lat="42.79039138807112" lon="12.988552754602672"><ele>487.0</ele><time>2026-04-04T09:03:55Z</time></trkpt><trkpt lat="42.79040532344377" lon="12.988728672897118"><ele>488.5</ele><time>2026-04-04T09:03:56Z</time></trkpt><trkpt lat="42.790425742098286" lon="12.988911965388372"><ele>490.0</ele><time>2026-04-04T09:03:57Z</time></trkpt><trkpt lat="42.790445104267384" lon="12.989093627661472"><ele>492.25</ele><time>2026-04-04T09:03:58Z</time></trkpt><trkpt lat="42.7904691330551" lon="12.989283050720578"><ele>494.5</ele><time>2026-04-04T09:03:59Z</time></trkpt><trkpt lat="42.790494384878606" lon="12.989476670410255"><ele>496.75</ele><time>2026-04-04T09:04:00Z</time></trkpt><trkpt lat="42.79051744069308" lon="12.989665370206968"><ele>499.0</ele><time>2026-04-04T09:04:01Z</time></trkpt><trkpt lat="42.79053205035595" lon="12.989839342794387"><ele>499.0</ele><time>2026-04-04T09:04:02Z</time></trkpt><trkpt lat="42.7905515789326" lon="12.990003420493265"><ele>499.0</ele><time>2026-04-04T09:04:03Z</time></trkpt><trkpt lat="42.79056651270772" lon="12.990164665335833"><ele>499.0</ele><time>2026-04-04T09:04:04Z</time></trkpt><trkpt lat="42.79058992850268" lon="12.99033101127281"><ele>499.0</ele><time>2026-04-04T09:04:05Z</time></trkpt><trkpt lat="42.79061184633267" lon="12.990494137708845"><ele>496.5</ele><time>2026-04-04T09:04:06Z</time></trkpt><trkpt lat="42.790641055430115" lon="12.99065911885093"><ele>494.0</ele><time>2026-04-04T09:04:07Z</time></trkpt><trkpt lat="42.79065707851566" lon="12.990823651628103"><ele>491.5</ele><time>2026-04-04T09:04:08Z</time></trkpt><trkpt lat="42.79067884898213" lon="12.990992258752831"><ele>489.0</ele><time>2026-04-04T09:04:09Z</time></trkpt><trkpt lat="42.79069714318627" lon="12.991167140890743"><ele>486.5</ele><time>2026-04-04T09:04:10Z</time></trkpt><trkpt lat="42.790718496694126" lon="12.991340001001372"><ele>484.0</ele><time>2026-04-04T09:04:11Z</time></trkpt><trkpt lat="42.79074012007452" lon="12.991513907265041"><ele>481.5</ele><time>2026-04-04T09:04:12Z</time></trkpt><trkpt lat="42.79076349706447" lon="12.991687702152246"><ele>479.0</ele><time>2026-04-04T09:04:13Z</time></trkpt><trkpt lat="42.79078339608755" lon="12.991864547634732"><ele>478.75</ele><time>2026-04-04T09:04:14Z</time></trkpt><trkpt lat="42.7908022378725" lon="12.992041678807272"><ele>478.5</ele><time>2026-04-04T09:04:15Z</time></trkpt><trkpt lat="42.790824381402274" lon="12.992221604973375"><ele>478.25</ele><time>2026-04-04T09:04:16Z</time></trkpt><trkpt lat="42.79084731553183" lon="12.992401511038796"><ele>478.0</ele><time>2026-04-04T09:04:17Z</time></trkpt><trkpt lat="42.7908695864648" lon="12.992583112992294"><ele>478.75</ele><time>2026-04-04T09:04:18Z</time></trkpt><trkpt lat="42.79089180039915" lon="12.992764608041254"><ele>479.5</ele><time>2026-04-04T09:04:19Z</time></trkpt><trkpt lat="42.790913308341175" lon="12.992943649880697"><ele>480.25</ele><time>2026-04-04T09:04:20Z</time></trkpt><trkpt lat="42.79093390582416" lon="12.993121586841694"><ele>481.0</ele><time>2026-04-04T09:04:21Z</time></trkpt><trkpt lat="42.79095215648256" lon="12.993302035665492"><ele>483.0</ele><time>2026-04-04T09:04:22Z</time></trkpt><trkpt lat="42.7909736148825" lon="12.993483567682416"><ele>485.0</ele><time>2026-04-04T09:04:23Z</time></trkpt><trkpt lat="42.79099732145244" lon="12.993663140472542"><ele>487.0</ele><time>2026-04-04T09:04:24Z</time></trkpt><trkpt lat="42.79101417830512" lon="12.99385822595049"><ele>489.0</ele><time>2026-04-04T09:04:25Z</time></trkpt><trkpt lat="42.79103589003522" lon="12.994044037787287"><ele>494.0</ele><time>2026-04-04T09:04:26Z</time></trkpt><trkpt lat="42.79105776476204" lon="12.99423298274753"><ele>499.0</ele><time>2026-04-04T09:04:27Z</time></trkpt><trkpt lat="42.79108007993559" lon="12.994425683536338"><ele>504.0</ele><time>2026-04-04T09:04:28Z</time></trkpt><trkpt lat="42.79110097259009" lon="12.994625864307423"><ele>509.0</ele><time>2026-04-04T09:04:29Z</time></trkpt><trkpt lat="42.79112089853149" lon="12.994832039832664"><ele>512.0</ele><time>2026-04-04T09:04:30Z</time></trkpt><trkpt lat="42.79114291369408" lon="12.995046305027119"><ele>515.0</ele><time>2026-04-04T09:04:31.022Z</time></trkpt><trkpt lat="42.791163242228585" lon="12.99526094943214"><ele>518.0</ele><time>2026-04-04T09:04:32.021Z</time></trkpt><trkpt lat="42.79118178139565" lon="12.995478133395629"><ele>518.0</ele><time>2026-04-04T09:04:33.022Z</time></trkpt><trkpt lat="42.79119885882354" lon="12.995692561091218"><ele>518.0</ele><time>2026-04-04T09:04:34.021Z</time></trkpt><trkpt lat="42.79121678071331" lon="12.995908701420623"><ele>518.0</ele><time>2026-04-04T09:04:35.02Z</time></trkpt><trkpt lat="42.79123422549063" lon="12.996121765038524"><ele>531.5</ele><time>2026-04-04T09:04:36.021Z</time></trkpt><trkpt lat="42.7912496563133" lon="12.99633835073231"><ele>545.0</ele><time>2026-04-04T09:04:37.019Z</time></trkpt><trkpt lat="42.79166387680366" lon="12.999012847550913"><ele>584.0</ele><time>2026-04-04T09:04:41.49Z</time></trkpt><trkpt lat="42.79173723774206" lon="12.99961581972284"><ele>623.0</ele><time>2026-04-04T09:04:42.49Z</time></trkpt><trkpt lat="42.79180975123637" lon="13.00021843048451"><ele>622.0</ele><time>2026-04-04T09:04:43.49Z</time></trkpt><trkpt lat="42.79188278116441" lon="13.000821981340541"><ele>621.0</ele><time>2026-04-04T09:04:44.49Z</time></trkpt><trkpt lat="42.79195926584387" lon="13.001424220232463"><ele>593.5</ele><time>2026-04-04T09:04:45.49Z</time></trkpt><trkpt lat="42.79201" lon="13.0018237"><ele>566.0</ele><time>2026-04-04T09:04:46.49Z</time></trkpt><trkpt lat="42.79200365305207" lon="13.002093946573327"><ele>566.0</ele><time>2026-04-04T09:05:04Z</time></trkpt><trkpt lat="42.7920301487523" lon="13.00231753739089"><ele>566.0</ele><time>2026-04-04T09:05:05Z</time></trkpt><trkpt lat="42.79207452112155" lon="13.00255186786236"><ele>566.0</ele><time>2026-04-04T09:05:06Z</time></trkpt><trkpt lat="42.79211049461638" lon="13.00275943621792"><ele>555.0</ele><time>2026-04-04T09:05:07Z</time></trkpt><trkpt lat="42.792138098513774" lon="13.002982103182978"><ele>544.0</ele><time>2026-04-04T09:05:08Z</time></trkpt><trkpt lat="42.792162202355115" lon="13.00319676079105"><ele>533.0</ele><time>2026-04-04T09:05:09Z</time></trkpt><trkpt lat="42.7921785605748" lon="13.00341650082906"><ele>532.0</ele><time>2026-04-04T09:05:10Z</time></trkpt><trkpt lat="42.79218908424539" lon="13.003640433827199"><ele>531.0</ele><time>2026-04-04T09:05:11Z</time></trkpt><trkpt lat="42.792195752338614" lon="13.003865646933047"><ele>530.0</ele><time>2026-04-04T09:05:12Z</time></trkpt><trkpt lat="42.792171498470694" lon="13.004085117195597"><ele>534.0</ele><time>2026-04-04T09:05:13Z</time></trkpt><trkpt lat="42.792150520528175" lon="13.00430346944594"><ele>538.0</ele><time>2026-04-04T09:05:14Z</time></trkpt><trkpt lat="42.792130548309494" lon="13.004511555244658"><ele>542.0</ele><time>2026-04-04T09:05:15Z</time></trkpt><trkpt lat="42.79210974208965" lon="13.004719541994243"><ele>542.0</ele><time>2026-04-04T09:05:16Z</time></trkpt><trkpt lat="42.792088427224435" lon="13.004932613340506"><ele>542.0</ele><time>2026-04-04T09:05:17.021Z</time></trkpt><trkpt lat="42.79206773267535" lon="13.005139483779683"><ele>542.0</ele><time>2026-04-04T09:05:18.016Z</time></trkpt><trkpt lat="42.79204686053466" lon="13.005348129381725"><ele>551.0</ele><time>2026-04-04T09:05:19.02Z</time></trkpt><trkpt lat="42.792025909250654" lon="13.005557566237087"><ele>560.0</ele><time>2026-04-04T09:05:20.02Z</time></trkpt><trkpt lat="42.79200470114635" lon="13.005769570457018"><ele>569.0</ele><time>2026-04-04T09:05:21.019Z</time></trkpt><trkpt lat="42.79198320566379" lon="13.005988373943595"><ele>516.0</ele><time>2026-04-04T09:05:22.021Z</time></trkpt><trkpt lat="42.79179602909233" lon="13.008068282589592"><ele>510.0</ele><time>2026-04-04T09:05:25.49Z</time></trkpt><trkpt lat="42.79160320762805" lon="13.008817238745287"><ele>510.0</ele><time>2026-04-04T09:05:36Z</time></trkpt><trkpt lat="42.791573100305705" lon="13.009010336436331"><ele>510.0</ele><time>2026-04-04T09:05:37Z</time></trkpt><trkpt lat="42.791588248610864" lon="13.009227355427107"><ele>510.0</ele><time>2026-04-04T09:05:38Z</time></trkpt><trkpt lat="42.791539096549386" lon="13.009422860025689"><ele>509.0</ele><time>2026-04-04T09:05:39Z</time></trkpt><trkpt lat="42.79147546631808" lon="13.009599201600954"><ele>508.0</ele><time>2026-04-04T09:05:40Z</time></trkpt><trkpt lat="42.791391563485966" lon="13.009752585708032"><ele>507.0</ele><time>2026-04-04T09:05:41Z</time></trkpt><trkpt lat="42.79131603151073" lon="13.009920953898531"><ele>506.0</ele><time>2026-04-04T09:05:42Z</time></trkpt><trkpt lat="42.79124094975956" lon="13.010086759496028"><ele>509.66666666666663</ele><time>2026-04-04T09:05:43Z</time></trkpt><trkpt lat="42.79116355362846" lon="13.010257675879263"><ele>513.3333333333334</ele><time>2026-04-04T09:05:44Z</time></trkpt><trkpt lat="42.79108596027341" lon="13.010439102382428"><ele>517.0</ele><time>2026-04-04T09:05:45Z</time></trkpt><trkpt lat="42.791013070498266" lon="13.010623995750672"><ele>510.33333333333337</ele><time>2026-04-04T09:05:46Z</time></trkpt><trkpt lat="42.790942704589" lon="13.01081549218013"><ele>503.66666666666663</ele><time>2026-04-04T09:05:47Z</time></trkpt><trkpt lat="42.79088955879316" lon="13.011026556117478"><ele>497.0</ele><time>2026-04-04T09:05:48Z</time></trkpt><trkpt lat="42.79082467634924" lon="13.011229374581688"><ele>497.0</ele><time>2026-04-04T09:05:49Z</time></trkpt><trkpt lat="42.790765817788625" lon="13.011442136909421"><ele>497.0</ele><time>2026-04-04T09:05:50Z</time></trkpt><trkpt lat="42.79071118865676" lon="13.011706926802278"><ele>497.0</ele><time>2026-04-04T09:05:51Z</time></trkpt><trkpt lat="42.7906470605762" lon="13.012020879549388"><ele>503.0</ele><time>2026-04-04T09:05:52Z</time></trkpt><trkpt lat="42.790593719945214" lon="13.012347187492061"><ele>509.0</ele><time>2026-04-04T09:05:53Z</time></trkpt><trkpt lat="42.79055689078428" lon="13.012696868892274"><ele>507.0</ele><time>2026-04-04T09:05:54Z</time></trkpt><trkpt lat="42.790498228333895" lon="13.013051121066786"><ele>505.0</ele><time>2026-04-04T09:05:55Z</time></trkpt><trkpt lat="42.79045905477701" lon="13.013362633297104"><ele>505.0</ele><time>2026-04-04T09:05:56Z</time></trkpt><trkpt lat="42.790420207137295" lon="13.013638837543095"><ele>505.0</ele><time>2026-04-04T09:05:57Z</time></trkpt><trkpt lat="42.7903633400562" lon="13.013888370703372"><ele>505.0</ele><time>2026-04-04T09:05:58Z</time></trkpt><trkpt lat="42.790295298369166" lon="13.014115805315084"><ele>502.6666666666667</ele><time>2026-04-04T09:05:59Z</time></trkpt><trkpt lat="42.790209621279914" lon="13.01432424292864"><ele>500.33333333333337</ele><time>2026-04-04T09:06:00Z</time></trkpt><trkpt lat="42.79011878834837" lon="13.014496579700474"><ele>498.0</ele><time>2026-04-04T09:06:01Z</time></trkpt><trkpt lat="42.79001688213683" lon="13.014651490310381"><ele>497.75</ele><time>2026-04-04T09:06:02Z</time></trkpt><trkpt lat="42.789905371342215" lon="13.014787288848007"><ele>497.5</ele><time>2026-04-04T09:06:03Z</time></trkpt><trkpt lat="42.78978304995568" lon="13.014909124102173"><ele>497.25</ele><time>2026-04-04T09:06:04Z</time></trkpt><trkpt lat="42.78966357930925" lon="13.015020289476155"><ele>497.0</ele><time>2026-04-04T09:06:05Z</time></trkpt><trkpt lat="42.78954862867216" lon="13.015120999835704"><ele>497.0</ele><time>2026-04-04T09:06:06Z</time></trkpt><trkpt lat="42.78943211083346" lon="13.01522225684808"><ele>497.0</ele><time>2026-04-04T09:06:07Z</time></trkpt><trkpt lat="42.789330056949275" lon="13.015316161283186"><ele>497.0</ele><time>2026-04-04T09:06:08Z</time></trkpt><trkpt lat="42.78923235605161" lon="13.015429721274472"><ele>497.0</ele><time>2026-04-04T09:06:09Z</time></trkpt><trkpt lat="42.7891449810194" lon="13.015566781433655"><ele>497.5</ele><time>2026-04-04T09:06:10Z</time></trkpt><trkpt lat="42.78906586191509" lon="13.015728497147009"><ele>498.0</ele><time>2026-04-04T09:06:11Z</time></trkpt><trkpt lat="42.78900078907115" lon="13.015903518938753"><ele>498.5</ele><time>2026-04-04T09:06:12Z</time></trkpt><trkpt lat="42.78894422846054" lon="13.01610205824666"><ele>499.0</ele><time>2026-04-04T09:06:13Z</time></trkpt><trkpt lat="42.78890116955606" lon="13.016311026476188"><ele>499.0</ele><time>2026-04-04T09:06:14Z</time></trkpt><trkpt lat="42.78886855690194" lon="13.016522590914681"><ele>499.0</ele><time>2026-04-04T09:06:15Z</time></trkpt><trkpt lat="42.788869404952536" lon="13.016736241400682"><ele>499.0</ele><time>2026-04-04T09:06:16Z</time></trkpt><trkpt lat="42.788866556607616" lon="13.016937960323531"><ele>500.0</ele><time>2026-04-04T09:06:17Z</time></trkpt><trkpt lat="42.78886469946851" lon="13.017131996107668"><ele>501.0</ele><time>2026-04-04T09:06:18Z</time></trkpt><trkpt lat="42.788878810881506" lon="13.017338839636436"><ele>502.0</ele><time>2026-04-04T09:06:19Z</time></trkpt><trkpt lat="42.78892620894524" lon="13.017580457271828"><ele>505.0</ele><time>2026-04-04T09:06:20Z</time></trkpt><trkpt lat="42.78899192141023" lon="13.017871914201686"><ele>508.0</ele><time>2026-04-04T09:06:21Z</time></trkpt><trkpt lat="42.789060673798616" lon="13.01818430830886"><ele>510.0</ele><time>2026-04-04T09:06:22Z</time></trkpt><trkpt lat="42.789112005300105" lon="13.018493136874472"><ele>512.0</ele><time>2026-04-04T09:06:23Z</time></trkpt><trkpt lat="42.78914712609024" lon="13.01875766454334"><ele>514.0</ele><time>2026-04-04T09:06:24Z</time></trkpt><trkpt lat="42.78917910450403" lon="13.018994026708548"><ele>514.3333333333334</ele><time>2026-04-04T09:06:25Z</time></trkpt><trkpt lat="42.789181508419574" lon="13.0192128182506"><ele>514.6666666666666</ele><time>2026-04-04T09:06:26Z</time></trkpt><trkpt lat="42.78915212128647" lon="13.019447099564598"><ele>515.0</ele><time>2026-04-04T09:06:27Z</time></trkpt><trkpt lat="42.789093690059936" lon="13.019665099595855"><ele>515.0</ele><time>2026-04-04T09:06:28Z</time></trkpt><trkpt lat="42.78899459096351" lon="13.01983864269885"><ele>515.0</ele><time>2026-04-04T09:06:29Z</time></trkpt><trkpt lat="42.788893955748115" lon="13.019985796914616"><ele>515.0</ele><time>2026-04-04T09:06:30Z</time></trkpt><trkpt lat="42.78879125713945" lon="13.020104026175453"><ele>515.0</ele><time>2026-04-04T09:06:31Z</time></trkpt><trkpt lat="42.78868488168957" lon="13.020200093952832"><ele>518.75</ele><time>2026-04-04T09:06:32Z</time></trkpt><trkpt lat="42.78858060188789" lon="13.020260891380559"><ele>522.5</ele><time>2026-04-04T09:06:33Z</time></trkpt><trkpt lat="42.788464549705516" lon="13.020294836438918"><ele>526.25</ele><time>2026-04-04T09:06:34Z</time></trkpt><trkpt lat="42.78835665429507" lon="13.020319279663578"><ele>530.0</ele><time>2026-04-04T09:06:35Z</time></trkpt><trkpt lat="42.788242608866476" lon="13.020338248824777"><ele>522.5</ele><time>2026-04-04T09:06:36Z</time></trkpt><trkpt lat="42.78813224468039" lon="13.020353920197275"><ele>515.0</ele><time>2026-04-04T09:06:37Z</time></trkpt><trkpt lat="42.78801747245858" lon="13.020375564442865"><ele>507.5</ele><time>2026-04-04T09:06:38Z</time></trkpt><trkpt lat="42.78790560025131" lon="13.02040488929143"><ele>500.0</ele><time>2026-04-04T09:06:39Z</time></trkpt><trkpt lat="42.78779209706884" lon="13.020445700815987"><ele>500.25</ele><time>2026-04-04T09:06:40Z</time></trkpt><trkpt lat="42.78767130646806" lon="13.020484267344818"><ele>500.5</ele><time>2026-04-04T09:06:41Z</time></trkpt><trkpt lat="42.787550847402144" lon="13.020520704464783"><ele>500.75</ele><time>2026-04-04T09:06:42Z</time></trkpt><trkpt lat="42.7874261785775" lon="13.02052920037008"><ele>501.0</ele><time>2026-04-04T09:06:43Z</time></trkpt><trkpt lat="42.78729531116044" lon="13.020567145551063"><ele>501.0</ele><time>2026-04-04T09:06:44Z</time></trkpt><trkpt lat="42.7871675254906" lon="13.020573159167359"><ele>501.0</ele><time>2026-04-04T09:06:45Z</time></trkpt><trkpt lat="42.78703842443314" lon="13.020570375594922"><ele>501.0</ele><time>2026-04-04T09:06:46Z</time></trkpt><trkpt lat="42.786908381689564" lon="13.020564759768446"><ele>501.0</ele><time>2026-04-04T09:06:47Z</time></trkpt><trkpt lat="42.78678113198115" lon="13.020520694981554"><ele>501.5</ele><time>2026-04-04T09:06:48Z</time></trkpt><trkpt lat="42.78665560403079" lon="13.020488284598231"><ele>502.0</ele><time>2026-04-04T09:06:49Z</time></trkpt><trkpt lat="42.786522784674844" lon="13.020448011836578"><ele>502.5</ele><time>2026-04-04T09:06:50Z</time></trkpt><trkpt lat="42.78638900192162" lon="13.020435391697125"><ele>503.0</ele><time>2026-04-04T09:06:51Z</time></trkpt><trkpt lat="42.78626052258257" lon="13.020456974554607"><ele>503.0</ele><time>2026-04-04T09:06:52Z</time></trkpt><trkpt lat="42.7861502647011" lon="13.020521186660517"><ele>502.99999999999994</ele><time>2026-04-04T09:06:53Z</time></trkpt><trkpt lat="42.78606326650269" lon="13.020611344922179"><ele>502.99999999999994</ele><time>2026-04-04T09:06:54Z</time></trkpt><trkpt lat="42.786009313128424" lon="13.02071502423324"><ele>503.0</ele><time>2026-04-04T09:06:55Z</time></trkpt><trkpt lat="42.78593300263251" lon="13.020785215943572"><ele>503.0</ele><time>2026-04-04T09:06:56Z</time></trkpt><trkpt lat="42.78586977466025" lon="13.02086797062386"><ele>503.99999999999994</ele><time>2026-04-04T09:06:57Z</time></trkpt><trkpt lat="42.78580711030162" lon="13.020950190133963"><ele>505.0</ele><time>2026-04-04T09:06:58Z</time></trkpt><trkpt lat="42.785752639782" lon="13.021027807681804"><ele>506.0</ele><time>2026-04-04T09:06:59Z</time></trkpt><trkpt lat="42.78571871616286" lon="13.021124924636215"><ele>507.0</ele><time>2026-04-04T09:07:00Z</time></trkpt><trkpt lat="42.7856782447197" lon="13.021217750091504"><ele>507.99999999999994</ele><time>2026-04-04T09:07:01Z</time></trkpt><trkpt lat="42.78564613693405" lon="13.02132034718571"><ele>509.0</ele><time>2026-04-04T09:07:02Z</time></trkpt><trkpt lat="42.78563359872464" lon="13.02144191670637"><ele>509.0</ele><time>2026-04-04T09:07:03Z</time></trkpt><trkpt lat="42.78563149106141" lon="13.021563521988163"><ele>509.0</ele><time>2026-04-04T09:07:04Z</time></trkpt><trkpt lat="42.78563912339513" lon="13.021687193843297"><ele>509.0</ele><time>2026-04-04T09:07:05Z</time></trkpt><trkpt lat="42.785648895843714" lon="13.021811797546299"><ele>509.0</ele><time>2026-04-04T09:07:06Z</time></trkpt><trkpt lat="42.785663531492155" lon="13.021933146167353"><ele>509.0</ele><time>2026-04-04T09:07:07Z</time></trkpt><trkpt lat="42.785675161676835" lon="13.022054824769105"><ele>510.66666666666663</ele><time>2026-04-04T09:07:08Z</time></trkpt><trkpt lat="42.78568166450262" lon="13.022169539472506"><ele>512.3333333333333</ele><time>2026-04-04T09:07:09Z</time></trkpt><trkpt lat="42.78569644795406" lon="13.022296091722016"><ele>514.0</ele><time>2026-04-04T09:07:10Z</time></trkpt><trkpt lat="42.78570832508741" lon="13.0223843124071"><ele>515.6666666666666</ele><time>2026-04-04T09:07:11Z</time></trkpt><trkpt lat="42.785731418767945" lon="13.022515617238625"><ele>517.3333333333334</ele><time>2026-04-04T09:07:13Z</time></trkpt><trkpt lat="42.78574450921789" lon="13.022604004039218"><ele>519.0</ele><time>2026-04-04T09:07:14Z</time></trkpt><trkpt lat="42.785737003369796" lon="13.022707191691406"><ele>519.0</ele><time>2026-04-04T09:07:15Z</time></trkpt><trkpt lat="42.78575727635562" lon="13.022828819170021"><ele>519.0</ele><time>2026-04-04T09:07:16Z</time></trkpt><trkpt lat="42.78575519879131" lon="13.022977015478475"><ele>519.0</ele><time>2026-04-04T09:07:17Z</time></trkpt><trkpt lat="42.78574165183372" lon="13.023139636407677"><ele>519.0</ele><time>2026-04-04T09:07:18Z</time></trkpt><trkpt lat="42.785739713758254" lon="13.023286284403254"><ele>519.0</ele><time>2026-04-04T09:07:19Z</time></trkpt><trkpt lat="42.785737337916245" lon="13.023461213032897"><ele>519.5</ele><time>2026-04-04T09:07:20Z</time></trkpt><trkpt lat="42.785734862401064" lon="13.023644107592546"><ele>520.0</ele><time>2026-04-04T09:07:21Z</time></trkpt><trkpt lat="42.7857331694136" lon="13.023842700755065"><ele>520.5</ele><time>2026-04-04T09:07:22Z</time></trkpt><trkpt lat="42.78573904659755" lon="13.024048274008164"><ele>521.0</ele><time>2026-04-04T09:07:23Z</time></trkpt><trkpt lat="42.78574513359458" lon="13.024256544107756"><ele>521.0</ele><time>2026-04-04T09:07:24Z</time></trkpt><trkpt lat="42.785750884557736" lon="13.024450703644089"><ele>521.0</ele><time>2026-04-04T09:07:25Z</time></trkpt><trkpt lat="42.78577450629688" lon="13.024633928514666"><ele>521.0</ele><time>2026-04-04T09:07:26Z</time></trkpt><trkpt lat="42.785783301062594" lon="13.024808961484931"><ele>521.0</ele><time>2026-04-04T09:07:27Z</time></trkpt><trkpt lat="42.78580652304761" lon="13.024979014414614"><ele>519.25</ele><time>2026-04-04T09:07:28Z</time></trkpt><trkpt lat="42.785842314544006" lon="13.025138553203048"><ele>517.5</ele><time>2026-04-04T09:07:29Z</time></trkpt><trkpt lat="42.78588246017143" lon="13.025286294218143"><ele>515.75</ele><time>2026-04-04T09:07:30Z</time></trkpt><trkpt lat="42.78592582395131" lon="13.025434506627963"><ele>514.0</ele><time>2026-04-04T09:07:31Z</time></trkpt><trkpt lat="42.78596433120332" lon="13.025572892400698"><ele>514.0</ele><time>2026-04-04T09:07:32Z</time></trkpt><trkpt lat="42.78600799277791" lon="13.025723205701203"><ele>514.0</ele><time>2026-04-04T09:07:33Z</time></trkpt><trkpt lat="42.78604493295908" lon="13.025866904110924"><ele>514.0</ele><time>2026-04-04T09:07:34Z</time></trkpt><trkpt lat="42.78608439466573" lon="13.026016703877435"><ele>514.0</ele><time>2026-04-04T09:07:35Z</time></trkpt><trkpt lat="42.7861237715535" lon="13.026168821666957"><ele>526.5</ele><time>2026-04-04T09:07:36Z</time></trkpt><trkpt lat="42.78616643029" lon="13.026327655769787"><ele>539.0</ele><time>2026-04-04T09:07:37Z</time></trkpt><trkpt lat="42.78620940168898" lon="13.026494155873204"><ele>551.5</ele><time>2026-04-04T09:07:38Z</time></trkpt><trkpt lat="42.786255185304505" lon="13.026666020251072"><ele>564.0</ele><time>2026-04-04T09:07:39Z</time></trkpt><trkpt lat="42.78630557764551" lon="13.026846053828598"><ele>564.0</ele><time>2026-04-04T09:07:40Z</time></trkpt><trkpt lat="42.78635709854185" lon="13.027037808690336"><ele>564.0</ele><time>2026-04-04T09:07:41Z</time></trkpt><trkpt lat="42.78641074640749" lon="13.027235843485851"><ele>564.0</ele><time>2026-04-04T09:07:42Z</time></trkpt><trkpt lat="42.78646653575765" lon="13.027435845014471"><ele>560.0</ele><time>2026-04-04T09:07:43.014Z</time></trkpt><trkpt lat="42.78652127867286" lon="13.027628331426376"><ele>556.0</ele><time>2026-04-04T09:07:44.017Z</time></trkpt><trkpt lat="42.786577760234074" lon="13.02781807584415"><ele>552.0</ele><time>2026-04-04T09:07:45.019Z</time></trkpt><trkpt lat="42.786630394550855" lon="13.02800474891888"><ele>548.0</ele><time>2026-04-04T09:07:46.016Z</time></trkpt><trkpt lat="42.786733573342474" lon="13.028380936023805"><ele>554.0</ele><time>2026-04-04T09:07:48Z</time></trkpt><trkpt lat="42.78678693165825" lon="13.028579552277431"><ele>560.0</ele><time>2026-04-04T09:07:49Z</time></trkpt><trkpt lat="42.7868205609899" lon="13.028767731339016"><ele>566.0</ele><time>2026-04-04T09:07:50Z</time></trkpt><trkpt lat="42.78687236096453" lon="13.028965307814405"><ele>561.6666666666666</ele><time>2026-04-04T09:07:51Z</time></trkpt><trkpt lat="42.786920849765345" lon="13.029184412309547"><ele>557.3333333333334</ele><time>2026-04-04T09:07:52Z</time></trkpt><trkpt lat="42.78696891246201" lon="13.029415781887794"><ele>553.0</ele><time>2026-04-04T09:07:53Z</time></trkpt><trkpt lat="42.787021307066006" lon="13.02967481588312"><ele>553.0</ele><time>2026-04-04T09:07:54Z</time></trkpt><trkpt lat="42.787077311099836" lon="13.029959413712566"><ele>553.0</ele><time>2026-04-04T09:07:55Z</time></trkpt><trkpt lat="42.78713307625825" lon="13.030251924009473"><ele>553.0</ele><time>2026-04-04T09:07:56Z</time></trkpt><trkpt lat="42.787189389927285" lon="13.030554275655494"><ele>547.0</ele><time>2026-04-04T09:07:57Z</time></trkpt><trkpt lat="42.78724352815342" lon="13.030844661895426"><ele>541.0</ele><time>2026-04-04T09:07:58Z</time></trkpt><trkpt lat="42.78729507271005" lon="13.031115189970498"><ele>535.0</ele><time>2026-04-04T09:07:59Z</time></trkpt><trkpt lat="42.78734206996424" lon="13.031368245266982"><ele>535.0</ele><time>2026-04-04T09:08:00Z</time></trkpt><trkpt lat="42.78738566656604" lon="13.031621677898437"><ele>535.0</ele><time>2026-04-04T09:08:01Z</time></trkpt><trkpt lat="42.787441300591446" lon="13.03187663485389"><ele>535.0</ele><time>2026-04-04T09:08:02Z</time></trkpt><trkpt lat="42.78745895198168" lon="13.032131344067237"><ele>534.0</ele><time>2026-04-04T09:08:03Z</time></trkpt><trkpt lat="42.78750654294784" lon="13.03237905659337"><ele>533.0</ele><time>2026-04-04T09:08:04Z</time></trkpt><trkpt lat="42.78753282478048" lon="13.03262956175977"><ele>532.0</ele><time>2026-04-04T09:08:05Z</time></trkpt><trkpt lat="42.78754866580005" lon="13.032877855043315"><ele>531.3333333333334</ele><time>2026-04-04T09:08:06Z</time></trkpt><trkpt lat="42.787573586149634" lon="13.033131634952335"><ele>530.6666666666666</ele><time>2026-04-04T09:08:07Z</time></trkpt><trkpt lat="42.78758600693514" lon="13.033378638266642"><ele>530.0</ele><time>2026-04-04T09:08:08Z</time></trkpt><trkpt lat="42.78758542625907" lon="13.03362434470451"><ele>529.0</ele><time>2026-04-04T09:08:09Z</time></trkpt><trkpt lat="42.78758221745202" lon="13.033862176980461"><ele>528.0</ele><time>2026-04-04T09:08:10Z</time></trkpt><trkpt lat="42.78758074797313" lon="13.034096135200372"><ele>527.0</ele><time>2026-04-04T09:08:11Z</time></trkpt><trkpt lat="42.78759513590722" lon="13.03433561056431"><ele>526.0</ele><time>2026-04-04T09:08:12Z</time></trkpt><trkpt lat="42.78762603819244" lon="13.034577602425486"><ele>525.0</ele><time>2026-04-04T09:08:13Z</time></trkpt><trkpt lat="42.78767023782057" lon="13.034821559000374"><ele>524.0</ele><time>2026-04-04T09:08:14Z</time></trkpt><trkpt lat="42.78774558030943" lon="13.035120333700432"><ele>541.5</ele><time>2026-04-04T09:08:15Z</time></trkpt><trkpt lat="42.78783862209976" lon="13.035431571668232"><ele>559.0</ele><time>2026-04-04T09:08:16Z</time></trkpt><trkpt lat="42.78793419163141" lon="13.035744206616119"><ele>550.5</ele><time>2026-04-04T09:08:17Z</time></trkpt><trkpt lat="42.78807271855278" lon="13.036064898237882"><ele>542.0</ele><time>2026-04-04T09:08:18Z</time></trkpt><trkpt lat="42.78817762865501" lon="13.036412568445826"><ele>534.0</ele><time>2026-04-04T09:08:19Z</time></trkpt><trkpt lat="42.788277847063576" lon="13.036751391657793"><ele>526.0</ele><time>2026-04-04T09:08:20Z</time></trkpt><trkpt lat="42.78837975466787" lon="13.037078089060385"><ele>526.0</ele><time>2026-04-04T09:08:21Z</time></trkpt><trkpt lat="42.788445565916575" lon="13.037427629174422"><ele>526.0</ele><time>2026-04-04T09:08:22Z</time></trkpt><trkpt lat="42.78854757362115" lon="13.037759526110456"><ele>530.5</ele><time>2026-04-04T09:08:23Z</time></trkpt><trkpt lat="42.78864871972838" lon="13.038091393986125"><ele>535.0</ele><time>2026-04-04T09:08:24Z</time></trkpt><trkpt lat="42.78875100290393" lon="13.038421784398528"><ele>535.0</ele><time>2026-04-04T09:08:25Z</time></trkpt><trkpt lat="42.78885263526713" lon="13.038749519492958"><ele>535.0</ele><time>2026-04-04T09:08:26Z</time></trkpt><trkpt lat="42.78895337585496" lon="13.039076086624322"><ele>535.5</ele><time>2026-04-04T09:08:27Z</time></trkpt><trkpt lat="42.78905371995306" lon="13.039401368470294"><ele>536.0</ele><time>2026-04-04T09:08:28Z</time></trkpt><trkpt lat="42.7891539065635" lon="13.039726139807444"><ele>535.0</ele><time>2026-04-04T09:08:29Z</time></trkpt><trkpt lat="42.789246641721164" lon="13.040030570025271"><ele>534.0</ele><time>2026-04-04T09:08:30Z</time></trkpt><trkpt lat="42.78933163432494" lon="13.04030966089344"><ele>545.3333333333334</ele><time>2026-04-04T09:08:31Z</time></trkpt><trkpt lat="42.78941468671946" lon="13.04057628362248"><ele>556.6666666666667</ele><time>2026-04-04T09:08:32Z</time></trkpt><trkpt lat="42.78946896514349" lon="13.040812719850516"><ele>568.0</ele><time>2026-04-04T09:08:33Z</time></trkpt><trkpt lat="42.78951619378411" lon="13.041029734683756"><ele>568.0</ele><time>2026-04-04T09:08:34Z</time></trkpt><trkpt lat="42.78955326657407" lon="13.041252491811433"><ele>568.0</ele><time>2026-04-04T09:08:35Z</time></trkpt><trkpt lat="42.78957736863783" lon="13.041473120035384"><ele>568.0</ele><time>2026-04-04T09:08:36Z</time></trkpt><trkpt lat="42.78957337866581" lon="13.041707249754625"><ele>565.3333333333334</ele><time>2026-04-04T09:08:37Z</time></trkpt><trkpt lat="42.78956970056815" lon="13.041943280477945"><ele>562.6666666666666</ele><time>2026-04-04T09:08:38Z</time></trkpt><trkpt lat="42.78955144416948" lon="13.042178975253806"><ele>560.0</ele><time>2026-04-04T09:08:39Z</time></trkpt><trkpt lat="42.78952050549744" lon="13.042415168805839"><ele>562.0</ele><time>2026-04-04T09:08:40Z</time></trkpt><trkpt lat="42.78947846733409" lon="13.042642417374493"><ele>564.0</ele><time>2026-04-04T09:08:41Z</time></trkpt><trkpt lat="42.789423745586795" lon="13.042861422269157"><ele>566.0</ele><time>2026-04-04T09:08:42Z</time></trkpt><trkpt lat="42.7893639554326" lon="13.043090422188591"><ele>555.0</ele><time>2026-04-04T09:08:43Z</time></trkpt><trkpt lat="42.789302746979146" lon="13.043316697740186"><ele>544.0</ele><time>2026-04-04T09:08:44Z</time></trkpt><trkpt lat="42.78924526869052" lon="13.043527360332655"><ele>533.0</ele><time>2026-04-04T09:08:45Z</time></trkpt><trkpt lat="42.789185207275686" lon="13.043749536661641"><ele>533.0</ele><time>2026-04-04T09:08:46Z</time></trkpt><trkpt lat="42.78912933140188" lon="13.043968090897256"><ele>533.0</ele><time>2026-04-04T09:08:47Z</time></trkpt><trkpt lat="42.789082125654595" lon="13.04418389676442"><ele>533.0</ele><time>2026-04-04T09:08:48Z</time></trkpt><trkpt lat="42.78904398839281" lon="13.044404872530183"><ele>536.6666666666666</ele><time>2026-04-04T09:08:49Z</time></trkpt><trkpt lat="42.78903168562973" lon="13.044632731445617"><ele>540.3333333333334</ele><time>2026-04-04T09:08:50Z</time></trkpt><trkpt lat="42.78899613437882" lon="13.044866021681475"><ele>544.0</ele><time>2026-04-04T09:08:51Z</time></trkpt><trkpt lat="42.78898628448914" lon="13.045104314743805"><ele>544.0</ele><time>2026-04-04T09:08:52Z</time></trkpt><trkpt lat="42.78898716129518" lon="13.045340134570576"><ele>544.0</ele><time>2026-04-04T09:08:53Z</time></trkpt><trkpt lat="42.78899882799176" lon="13.045575845115726"><ele>544.0</ele><time>2026-04-04T09:08:54Z</time></trkpt><trkpt lat="42.78902224949107" lon="13.045804159558035"><ele>544.0</ele><time>2026-04-04T09:08:55Z</time></trkpt><trkpt lat="42.78905129160709" lon="13.046018891150752"><ele>544.0</ele><time>2026-04-04T09:08:56Z</time></trkpt><trkpt lat="42.78909308855402" lon="13.046245551779664"><ele>544.0</ele><time>2026-04-04T09:08:57Z</time></trkpt><trkpt lat="42.78915081606697" lon="13.046494130415914"><ele>543.0</ele><time>2026-04-04T09:08:58Z</time></trkpt><trkpt lat="42.78923250991611" lon="13.046769046565684"><ele>542.0</ele><time>2026-04-04T09:08:59Z</time></trkpt><trkpt lat="42.78932977745895" lon="13.047044343602002"><ele>541.0</ele><time>2026-04-04T09:09:00Z</time></trkpt><trkpt lat="42.789440477561165" lon="13.047333075912748"><ele>553.5</ele><time>2026-04-04T09:09:01Z</time></trkpt><trkpt lat="42.78954784600454" lon="13.047613531947743"><ele>566.0</ele><time>2026-04-04T09:09:02Z</time></trkpt><trkpt lat="42.78966215496375" lon="13.047877018495056"><ele>566.0</ele><time>2026-04-04T09:09:03Z</time></trkpt><trkpt lat="42.789754939252155" lon="13.048153530782407"><ele>566.0</ele><time>2026-04-04T09:09:04Z</time></trkpt><trkpt lat="42.789846995088794" lon="13.048427867222953"><ele>566.0</ele><time>2026-04-04T09:09:05Z</time></trkpt><trkpt lat="42.7899269605019" lon="13.048702581088097"><ele>558.3333333333333</ele><time>2026-04-04T09:09:06Z</time></trkpt><trkpt lat="42.789965845695384" lon="13.04898213783617"><ele>550.6666666666666</ele><time>2026-04-04T09:09:07Z</time></trkpt><trkpt lat="42.7899933434533" lon="13.049263263205546"><ele>543.0</ele><time>2026-04-04T09:09:08Z</time></trkpt><trkpt lat="42.790006513217605" lon="13.049536843948975"><ele>542.6666666666666</ele><time>2026-04-04T09:09:09Z</time></trkpt><trkpt lat="42.790005777824774" lon="13.049794042915652"><ele>542.3333333333333</ele><time>2026-04-04T09:09:10Z</time></trkpt><trkpt lat="42.7900019308167" lon="13.050023906904105"><ele>542.0</ele><time>2026-04-04T09:09:11Z</time></trkpt><trkpt lat="42.78999826222954" lon="13.050225041094022"><ele>542.0</ele><time>2026-04-04T09:09:12Z</time></trkpt><trkpt lat="42.78999371488817" lon="13.050390886377471"><ele>542.0</ele><time>2026-04-04T09:09:13Z</time></trkpt><trkpt lat="42.7899896014864" lon="13.050540797096467"><ele>542.0</ele><time>2026-04-04T09:09:14Z</time></trkpt><trkpt lat="42.789986007063696" lon="13.050671794911281"><ele>542.0</ele><time>2026-04-04T09:09:15Z</time></trkpt><trkpt lat="42.79001793497292" lon="13.050765276503965"><ele>542.0</ele><time>2026-04-04T09:09:16Z</time></trkpt><trkpt lat="42.79001666832338" lon="13.050851654126097"><ele>542.0</ele><time>2026-04-04T09:09:17Z</time></trkpt><trkpt lat="42.790015318294365" lon="13.05093959663958"><ele>542.0</ele><time>2026-04-04T09:09:18Z</time></trkpt><trkpt lat="42.79001342504811" lon="13.05106196960036"><ele>542.0</ele><time>2026-04-04T09:09:19Z</time></trkpt><trkpt lat="42.79000540047219" lon="13.0512383704734"><ele>542.0</ele><time>2026-04-04T09:09:20Z</time></trkpt><trkpt lat="42.78999046327771" lon="13.05145496845605"><ele>542.0</ele><time>2026-04-04T09:09:21Z</time></trkpt><trkpt lat="42.789979587432086" lon="13.051712590911345"><ele>542.0</ele><time>2026-04-04T09:09:22Z</time></trkpt><trkpt lat="42.78997433803372" lon="13.051980827276854"><ele>542.0</ele><time>2026-04-04T09:09:23Z</time></trkpt><trkpt lat="42.78996514863631" lon="13.052278408637687"><ele>542.0</ele><time>2026-04-04T09:09:24Z</time></trkpt><trkpt lat="42.78994058243642" lon="13.052558001182646"><ele>541.3333333333333</ele><time>2026-04-04T09:09:25Z</time></trkpt><trkpt lat="42.78994847843461" lon="13.052849128575268"><ele>540.6666666666666</ele><time>2026-04-04T09:09:26Z</time></trkpt><trkpt lat="42.78992591556112" lon="13.053150336331003"><ele>540.0</ele><time>2026-04-04T09:09:27Z</time></trkpt><trkpt lat="42.78991803286332" lon="13.053445190388437"><ele>539.0</ele><time>2026-04-04T09:09:28Z</time></trkpt><trkpt lat="42.78991060823905" lon="13.053738357588415"><ele>538.0</ele><time>2026-04-04T09:09:29Z</time></trkpt><trkpt lat="42.78990404640127" lon="13.054028026761248"><ele>537.0</ele><time>2026-04-04T09:09:30Z</time></trkpt><trkpt lat="42.78989774524934" lon="13.054318594660472"><ele>536.3333333333334</ele><time>2026-04-04T09:09:31Z</time></trkpt><trkpt lat="42.78989120085248" lon="13.054605640608637"><ele>535.6666666666667</ele><time>2026-04-04T09:09:32Z</time></trkpt><trkpt lat="42.78988497816037" lon="13.054892713378019"><ele>535.0</ele><time>2026-04-04T09:09:33Z</time></trkpt><trkpt lat="42.7898786854458" lon="13.055179561362241"><ele>536.3333333333334</ele><time>2026-04-04T09:09:34Z</time></trkpt><trkpt lat="42.789872172996816" lon="13.055463630914442"><ele>537.6666666666666</ele><time>2026-04-04T09:09:35Z</time></trkpt><trkpt lat="42.78986561157326" lon="13.055749836767534"><ele>539.0</ele><time>2026-04-04T09:09:36Z</time></trkpt><trkpt lat="42.78985869915763" lon="13.056036693311691"><ele>539.0</ele><time>2026-04-04T09:09:37Z</time></trkpt><trkpt lat="42.78986478806135" lon="13.05631369128629"><ele>539.0</ele><time>2026-04-04T09:09:38Z</time></trkpt><trkpt lat="42.78985762035803" lon="13.05659972081606"><ele>539.0</ele><time>2026-04-04T09:09:39Z</time></trkpt><trkpt lat="42.789853330734786" lon="13.056879358218522"><ele>540.6666666666666</ele><time>2026-04-04T09:09:40Z</time></trkpt><trkpt lat="42.78986700601599" lon="13.057158727993674"><ele>542.3333333333334</ele><time>2026-04-04T09:09:41Z</time></trkpt><trkpt lat="42.78991585515119" lon="13.057438107158745"><ele>544.0</ele><time>2026-04-04T09:09:42Z</time></trkpt><trkpt lat="42.78998814265418" lon="13.05771433582434"><ele>544.6666666666667</ele><time>2026-04-04T09:09:43Z</time></trkpt><trkpt lat="42.790078189771116" lon="13.057982778568965"><ele>545.3333333333334</ele><time>2026-04-04T09:09:44Z</time></trkpt><trkpt lat="42.790180633497776" lon="13.058247473129049"><ele>546.0</ele><time>2026-04-04T09:09:45Z</time></trkpt><trkpt lat="42.79028698792786" lon="13.058522630597711"><ele>558.5</ele><time>2026-04-04T09:09:46Z</time></trkpt><trkpt lat="42.79038911538591" lon="13.05879920027048"><ele>571.0</ele><time>2026-04-04T09:09:47Z</time></trkpt><trkpt lat="42.79049059829481" lon="13.059073432657462"><ele>565.0</ele><time>2026-04-04T09:09:48Z</time></trkpt><trkpt lat="42.79059459879927" lon="13.059352121906443"><ele>559.0</ele><time>2026-04-04T09:09:49Z</time></trkpt><trkpt lat="42.79069384384847" lon="13.05962520230639"><ele>559.0</ele><time>2026-04-04T09:09:50Z</time></trkpt><trkpt lat="42.79080362544654" lon="13.059902883082717"><ele>559.0</ele><time>2026-04-04T09:09:51Z</time></trkpt><trkpt lat="42.79090909092774" lon="13.0601836338175"><ele>564.0</ele><time>2026-04-04T09:09:52Z</time></trkpt><trkpt lat="42.79101692760858" lon="13.060460266850889"><ele>569.0</ele><time>2026-04-04T09:09:53Z</time></trkpt><trkpt lat="42.791114323361235" lon="13.060733767909458"><ele>562.5</ele><time>2026-04-04T09:09:54Z</time></trkpt><trkpt lat="42.791216785972615" lon="13.061010787177185"><ele>556.0</ele><time>2026-04-04T09:09:55Z</time></trkpt><trkpt lat="42.791318322594165" lon="13.061287502684397"><ele>556.0</ele><time>2026-04-04T09:09:56Z</time></trkpt><trkpt lat="42.79142084517043" lon="13.06157010457098"><ele>556.0</ele><time>2026-04-04T09:09:57Z</time></trkpt><trkpt lat="42.791527720264625" lon="13.061852626330637"><ele>555.6666666666667</ele><time>2026-04-04T09:09:58Z</time></trkpt><trkpt lat="42.79162914682124" lon="13.062124859793819"><ele>555.3333333333334</ele><time>2026-04-04T09:09:59Z</time></trkpt><trkpt lat="42.7917309005929" lon="13.062394757316543"><ele>555.0</ele><time>2026-04-04T09:10:00Z</time></trkpt><trkpt lat="42.791835869500055" lon="13.062660358396354"><ele>557.3333333333334</ele><time>2026-04-04T09:10:01Z</time></trkpt><trkpt lat="42.79194233964014" lon="13.062928589756366"><ele>559.6666666666667</ele><time>2026-04-04T09:10:02Z</time></trkpt><trkpt lat="42.79205438827528" lon="13.063192919094876"><ele>562.0</ele><time>2026-04-04T09:10:03Z</time></trkpt><trkpt lat="42.79217824200864" lon="13.06344875695237"><ele>562.0</ele><time>2026-04-04T09:10:04Z</time></trkpt><trkpt lat="42.79230782879038" lon="13.063693168319562"><ele>562.0</ele><time>2026-04-04T09:10:05Z</time></trkpt><trkpt lat="42.79244060774577" lon="13.063946775558177"><ele>559.5</ele><time>2026-04-04T09:10:06Z</time></trkpt><trkpt lat="42.792581767671265" lon="13.06420230893617"><ele>557.0</ele><time>2026-04-04T09:10:07Z</time></trkpt><trkpt lat="42.79272204459563" lon="13.064459173714189"><ele>562.5</ele><time>2026-04-04T09:10:08Z</time></trkpt><trkpt lat="42.79285986497161" lon="13.064715509183626"><ele>568.0</ele><time>2026-04-04T09:10:09Z</time></trkpt><trkpt lat="42.792998201522025" lon="13.064972559812693"><ele>568.0</ele><time>2026-04-04T09:10:10Z</time></trkpt><trkpt lat="42.79313960140357" lon="13.065234015708132"><ele>568.0</ele><time>2026-04-04T09:10:11Z</time></trkpt><trkpt lat="42.79328200229476" lon="13.065495510938652"><ele>568.0</ele><time>2026-04-04T09:10:12Z</time></trkpt><trkpt lat="42.793425087897006" lon="13.065759360810041"><ele>568.0</ele><time>2026-04-04T09:10:13Z</time></trkpt><trkpt lat="42.79356474485178" lon="13.06602450060658"><ele>572.0</ele><time>2026-04-04T09:10:14Z</time></trkpt><trkpt lat="42.79371035453092" lon="13.066292808296781"><ele>576.0</ele><time>2026-04-04T09:10:15Z</time></trkpt><trkpt lat="42.79385195490037" lon="13.066560531335126"><ele>569.5</ele><time>2026-04-04T09:10:16Z</time></trkpt><trkpt lat="42.793995611893465" lon="13.066825585274175"><ele>563.0</ele><time>2026-04-04T09:10:17Z</time></trkpt><trkpt lat="42.79414061656967" lon="13.067092960147395"><ele>563.0</ele><time>2026-04-04T09:10:18Z</time></trkpt><trkpt lat="42.79429565464098" lon="13.067349829986464"><ele>563.0</ele><time>2026-04-04T09:10:19Z</time></trkpt><trkpt lat="42.79443755960672" lon="13.0676132552168"><ele>562.0</ele><time>2026-04-04T09:10:20Z</time></trkpt><trkpt lat="42.79456642125151" lon="13.067875022168693"><ele>561.0</ele><time>2026-04-04T09:10:21Z</time></trkpt><trkpt lat="42.794704497732965" lon="13.068135161460926"><ele>560.0</ele><time>2026-04-04T09:10:22Z</time></trkpt><trkpt lat="42.79484049308366" lon="13.068400531034778"><ele>559.0</ele><time>2026-04-04T09:10:23Z</time></trkpt><trkpt lat="42.79496202594708" lon="13.068673570473376"><ele>559.0</ele><time>2026-04-04T09:10:24Z</time></trkpt><trkpt lat="42.795059917941195" lon="13.0689548644128"><ele>559.0</ele><time>2026-04-04T09:10:25Z</time></trkpt><trkpt lat="42.79515178152876" lon="13.069243229622517"><ele>559.5</ele><time>2026-04-04T09:10:26Z</time></trkpt><trkpt lat="42.79523444096505" lon="13.069534234596995"><ele>560.0</ele><time>2026-04-04T09:10:27Z</time></trkpt><trkpt lat="42.79530205677786" lon="13.069833529430738"><ele>559.0</ele><time>2026-04-04T09:10:28Z</time></trkpt><trkpt lat="42.79535039372524" lon="13.07014083276684"><ele>558.0</ele><time>2026-04-04T09:10:29Z</time></trkpt><trkpt lat="42.795391271034894" lon="13.070451601420066"><ele>558.0</ele><time>2026-04-04T09:10:30Z</time></trkpt><trkpt lat="42.795425889489564" lon="13.07076313748861"><ele>558.0</ele><time>2026-04-04T09:10:31Z</time></trkpt><trkpt lat="42.79545938402955" lon="13.071069237774575"><ele>558.5</ele><time>2026-04-04T09:10:32Z</time></trkpt><trkpt lat="42.795496247098335" lon="13.071374938799575"><ele>559.0</ele><time>2026-04-04T09:10:33Z</time></trkpt><trkpt lat="42.795535620745156" lon="13.071673242611094"><ele>559.6666666666667</ele><time>2026-04-04T09:10:34Z</time></trkpt><trkpt lat="42.79556668226081" lon="13.071972880031128"><ele>560.3333333333334</ele><time>2026-04-04T09:10:35Z</time></trkpt><trkpt lat="42.79559859223393" lon="13.072271401561425"><ele>561.0</ele><time>2026-04-04T09:10:36Z</time></trkpt><trkpt lat="42.795629818689434" lon="13.072569741855506"><ele>561.6666666666666</ele><time>2026-04-04T09:10:37Z</time></trkpt><trkpt lat="42.79566662414347" lon="13.072867882585728"><ele>562.3333333333333</ele><time>2026-04-04T09:10:38Z</time></trkpt><trkpt lat="42.79569874444772" lon="13.073167811362216"><ele>563.0</ele><time>2026-04-04T09:10:39Z</time></trkpt><trkpt lat="42.79573012684627" lon="13.073468913567375"><ele>560.5</ele><time>2026-04-04T09:10:40Z</time></trkpt><trkpt lat="42.79575864171449" lon="13.073771685226273"><ele>558.0</ele><time>2026-04-04T09:10:41Z</time></trkpt><trkpt lat="42.79578827895048" lon="13.074078338614303"><ele>557.5</ele><time>2026-04-04T09:10:42Z</time></trkpt><trkpt lat="42.795823191644814" lon="13.074387466521587"><ele>557.0</ele><time>2026-04-04T09:10:43Z</time></trkpt><trkpt lat="42.79585845367985" lon="13.074699796746232"><ele>556.5</ele><time>2026-04-04T09:10:44Z</time></trkpt><trkpt lat="42.795894046723674" lon="13.075013435042068"><ele>556.0</ele><time>2026-04-04T09:10:45Z</time></trkpt><trkpt lat="42.79593052027708" lon="13.07532911548973"><ele>556.0</ele><time>2026-04-04T09:10:46Z</time></trkpt><trkpt lat="42.795968837635876" lon="13.075646320947031"><ele>556.0</ele><time>2026-04-04T09:10:47Z</time></trkpt><trkpt lat="42.79600628397432" lon="13.075964362696658"><ele>560.5</ele><time>2026-04-04T09:10:48Z</time></trkpt><trkpt lat="42.79603599465075" lon="13.076283970861056"><ele>565.0</ele><time>2026-04-04T09:10:49Z</time></trkpt><trkpt lat="42.796053347756384" lon="13.076604777822151"><ele>567.0</ele><time>2026-04-04T09:10:50Z</time></trkpt><trkpt lat="42.796053322484184" lon="13.076925491352794"><ele>569.0</ele><time>2026-04-04T09:10:51Z</time></trkpt><trkpt lat="42.796035161574714" lon="13.07724297509517"><ele>570.0</ele><time>2026-04-04T09:10:52Z</time></trkpt><trkpt lat="42.79600623556744" lon="13.077562807728476"><ele>571.0</ele><time>2026-04-04T09:10:53Z</time></trkpt><trkpt lat="42.79596736931123" lon="13.077870828991307"><ele>564.0</ele><time>2026-04-04T09:10:54Z</time></trkpt><trkpt lat="42.795931701844445" lon="13.078179768685622"><ele>557.0</ele><time>2026-04-04T09:10:55Z</time></trkpt><trkpt lat="42.79590040597782" lon="13.078489104778246"><ele>557.0</ele><time>2026-04-04T09:10:56Z</time></trkpt><trkpt lat="42.7958595841013" lon="13.07879753252974"><ele>557.0</ele><time>2026-04-04T09:10:57Z</time></trkpt><trkpt lat="42.795821093460425" lon="13.079108787722333"><ele>559.0</ele><time>2026-04-04T09:10:58Z</time></trkpt><trkpt lat="42.79578812881115" lon="13.07942437973056"><ele>561.0</ele><time>2026-04-04T09:10:59Z</time></trkpt><trkpt lat="42.79575445856331" lon="13.07974127444333"><ele>560.5</ele><time>2026-04-04T09:11:00Z</time></trkpt><trkpt lat="42.79571745479269" lon="13.080059894028603"><ele>560.0</ele><time>2026-04-04T09:11:01Z</time></trkpt><trkpt lat="42.79568043883487" lon="13.080377980614982"><ele>560.0</ele><time>2026-04-04T09:11:02Z</time></trkpt><trkpt lat="42.79564785026666" lon="13.080700174400757"><ele>560.0</ele><time>2026-04-04T09:11:03Z</time></trkpt><trkpt lat="42.79561553846734" lon="13.081023773185837"><ele>560.5</ele><time>2026-04-04T09:11:04Z</time></trkpt><trkpt lat="42.795583385978105" lon="13.081350773693407"><ele>561.0</ele><time>2026-04-04T09:11:05Z</time></trkpt><trkpt lat="42.79555543516833" lon="13.081681484209932"><ele>561.0</ele><time>2026-04-04T09:11:06Z</time></trkpt><trkpt lat="42.79552196605424" lon="13.082013019532608"><ele>561.0</ele><time>2026-04-04T09:11:07Z</time></trkpt><trkpt lat="42.795459447773375" lon="13.082315261146926"><ele>560.5</ele><time>2026-04-04T09:11:08Z</time></trkpt><trkpt lat="42.79539039058188" lon="13.082620293503107"><ele>560.0</ele><time>2026-04-04T09:11:09Z</time></trkpt><trkpt lat="42.795312895137265" lon="13.082924856124428"><ele>560.0</ele><time>2026-04-04T09:11:10Z</time></trkpt><trkpt lat="42.795250910977956" lon="13.083248564833612"><ele>560.0</ele><time>2026-04-04T09:11:11Z</time></trkpt><trkpt lat="42.79518344025186" lon="13.08356152132041"><ele>560.5</ele><time>2026-04-04T09:11:12Z</time></trkpt><trkpt lat="42.795091843380604" lon="13.083874377757823"><ele>561.0</ele><time>2026-04-04T09:11:13Z</time></trkpt><trkpt lat="42.795016887166014" lon="13.084189410169197"><ele>563.5</ele><time>2026-04-04T09:11:14Z</time></trkpt><trkpt lat="42.794936868677766" lon="13.084498306039736"><ele>566.0</ele><time>2026-04-04T09:11:15Z</time></trkpt><trkpt lat="42.79486125503326" lon="13.084801905051409"><ele>566.5</ele><time>2026-04-04T09:11:16Z</time></trkpt><trkpt lat="42.79479067321451" lon="13.085089381073262"><ele>567.0</ele><time>2026-04-04T09:11:17Z</time></trkpt><trkpt lat="42.794716828663724" lon="13.08538216052921"><ele>567.0</ele><time>2026-04-04T09:11:18Z</time></trkpt><trkpt lat="42.79465048084915" lon="13.085662980651806"><ele>567.0</ele><time>2026-04-04T09:11:19Z</time></trkpt><trkpt lat="42.794596008061184" lon="13.085943547380399"><ele>567.0</ele><time>2026-04-04T09:11:20Z</time></trkpt><trkpt lat="42.79456827178881" lon="13.086231898698559"><ele>568.3333333333334</ele><time>2026-04-04T09:11:21Z</time></trkpt><trkpt lat="42.79457223501504" lon="13.086514897886337"><ele>569.6666666666667</ele><time>2026-04-04T09:11:22Z</time></trkpt><trkpt lat="42.79451432411711" lon="13.08678860129732"><ele>571.0</ele><time>2026-04-04T09:11:23Z</time></trkpt><trkpt lat="42.79454461785299" lon="13.0870654984409"><ele>574.0</ele><time>2026-04-04T09:11:24Z</time></trkpt><trkpt lat="42.79460754250254" lon="13.087342059994889"><ele>577.0</ele><time>2026-04-04T09:11:25Z</time></trkpt><trkpt lat="42.79473229260404" lon="13.087603423931219"><ele>580.0</ele><time>2026-04-04T09:11:26Z</time></trkpt><trkpt lat="42.79482344275016" lon="13.087893443237586"><ele>582.0</ele><time>2026-04-04T09:11:27Z</time></trkpt><trkpt lat="42.79490837040341" lon="13.08818736455169"><ele>584.0</ele><time>2026-04-04T09:11:28Z</time></trkpt><trkpt lat="42.794994678655485" lon="13.088460084813304"><ele>584.6666666666666</ele><time>2026-04-04T09:11:29Z</time></trkpt><trkpt lat="42.79509214119502" lon="13.088734139838397"><ele>585.3333333333334</ele><time>2026-04-04T09:11:30Z</time></trkpt><trkpt lat="42.79516643015791" lon="13.088998348051222"><ele>586.0</ele><time>2026-04-04T09:11:31Z</time></trkpt><trkpt lat="42.795256352408366" lon="13.089223049867535"><ele>587.3333333333334</ele><time>2026-04-04T09:11:32Z</time></trkpt><trkpt lat="42.79532055602067" lon="13.089430408535302"><ele>588.6666666666666</ele><time>2026-04-04T09:11:33Z</time></trkpt><trkpt lat="42.795381616970886" lon="13.089620364898568"><ele>590.0</ele><time>2026-04-04T09:11:34Z</time></trkpt><trkpt lat="42.795435717475065" lon="13.089813333673337"><ele>591.0</ele><time>2026-04-04T09:11:35Z</time></trkpt><trkpt lat="42.795483529823976" lon="13.089973040363144"><ele>592.0</ele><time>2026-04-04T09:11:36Z</time></trkpt><trkpt lat="42.795510269803096" lon="13.0901199800341"><ele>593.0</ele><time>2026-04-04T09:11:37Z</time></trkpt><trkpt lat="42.7955288019602" lon="13.090249715574133"><ele>594.0</ele><time>2026-04-04T09:11:38Z</time></trkpt><trkpt lat="42.79552909835538" lon="13.090353700030759"><ele>595.0</ele><time>2026-04-04T09:11:39Z</time></trkpt><trkpt lat="42.795397393666235" lon="13.090466188565179"><ele>595.0</ele><time>2026-04-04T09:11:41Z</time></trkpt><trkpt lat="42.795288756670864" lon="13.090534026859576"><ele>595.0</ele><time>2026-04-04T09:11:42Z</time></trkpt><trkpt lat="42.79503958005002" lon="13.090567334286446"><ele>595.0</ele><time>2026-04-04T09:11:44Z</time></trkpt><trkpt lat="42.79497165069315" lon="13.090433659692785"><ele>593.3333333333334</ele><time>2026-04-04T09:11:45Z</time></trkpt><trkpt lat="42.794864668932355" lon="13.090306726385869"><ele>591.6666666666666</ele><time>2026-04-04T09:11:46Z</time></trkpt><trkpt lat="42.794727560818906" lon="13.090126338145666"><ele>590.0</ele><time>2026-04-04T09:11:47Z</time></trkpt><trkpt lat="42.79458192293589" lon="13.089937617120897"><ele>589.0</ele><time>2026-04-04T09:11:48Z</time></trkpt><trkpt lat="42.794440129732955" lon="13.089766147829884"><ele>588.0</ele><time>2026-04-04T09:11:49Z</time></trkpt><trkpt lat="42.79432485568137" lon="13.089638399296957"><ele>587.0</ele><time>2026-04-04T09:11:50Z</time></trkpt><trkpt lat="42.79426029037119" lon="13.089547046051246"><ele>586.0</ele><time>2026-04-04T09:11:51Z</time></trkpt><trkpt lat="42.794130855712126" lon="13.089460208703132"><ele>585.75</ele><time>2026-04-04T09:11:52Z</time></trkpt><trkpt lat="42.793997110821614" lon="13.08934735086018"><ele>585.5</ele><time>2026-04-04T09:11:53Z</time></trkpt><trkpt lat="42.793866480691456" lon="13.08925476187692"><ele>585.25</ele><time>2026-04-04T09:11:54Z</time></trkpt><trkpt lat="42.793729373252866" lon="13.089212590669733"><ele>585.0</ele><time>2026-04-04T09:11:55Z</time></trkpt><trkpt lat="42.79359323505828" lon="13.089191115183503"><ele>584.75</ele><time>2026-04-04T09:11:56Z</time></trkpt><trkpt lat="42.79346099840976" lon="13.089237321819557"><ele>584.5</ele><time>2026-04-04T09:11:57Z</time></trkpt><trkpt lat="42.7933297211157" lon="13.089309792524784"><ele>584.25</ele><time>2026-04-04T09:11:58Z</time></trkpt><trkpt lat="42.79319158471061" lon="13.089371018652596"><ele>584.0</ele><time>2026-04-04T09:11:59Z</time></trkpt><trkpt lat="42.79306246233695" lon="13.08955268145158"><ele>584.0</ele><time>2026-04-04T09:12:00Z</time></trkpt><trkpt lat="42.79295714619574" lon="13.089689321917039"><ele>584.0</ele><time>2026-04-04T09:12:01Z</time></trkpt><trkpt lat="42.79282609821718" lon="13.089830671397461"><ele>584.0</ele><time>2026-04-04T09:12:02Z</time></trkpt><trkpt lat="42.79267782828645" lon="13.08996058604128"><ele>584.3333333333333</ele><time>2026-04-04T09:12:03Z</time></trkpt><trkpt lat="42.792527537271226" lon="13.09011996972333"><ele>584.6666666666666</ele><time>2026-04-04T09:12:04Z</time></trkpt><trkpt lat="42.79238896096793" lon="13.090268768901858"><ele>585.0</ele><time>2026-04-04T09:12:05Z</time></trkpt><trkpt lat="42.79222979050531" lon="13.090440078635028"><ele>585.0</ele><time>2026-04-04T09:12:06Z</time></trkpt><trkpt lat="42.79208134442693" lon="13.090596715080535"><ele>585.0</ele><time>2026-04-04T09:12:07Z</time></trkpt><trkpt lat="42.791956002955814" lon="13.090727549440983"><ele>585.0</ele><time>2026-04-04T09:12:08Z</time></trkpt><trkpt lat="42.7917950165474" lon="13.090898186010934"><ele>584.3333333333334</ele><time>2026-04-04T09:12:09Z</time></trkpt><trkpt lat="42.791641329149506" lon="13.091074447333314"><ele>583.6666666666667</ele><time>2026-04-04T09:12:10Z</time></trkpt><trkpt lat="42.79149774447698" lon="13.091257708686161"><ele>583.0</ele><time>2026-04-04T09:12:11Z</time></trkpt><trkpt lat="42.79138921293143" lon="13.091482950466846"><ele>588.0</ele><time>2026-04-04T09:12:12Z</time></trkpt><trkpt lat="42.791259746779126" lon="13.091674486271279"><ele>593.0</ele><time>2026-04-04T09:12:13Z</time></trkpt><trkpt lat="42.791139388543904" lon="13.091870933426462"><ele>598.0</ele><time>2026-04-04T09:12:14Z</time></trkpt><trkpt lat="42.79102076555291" lon="13.092060764772839"><ele>597.6666666666667</ele><time>2026-04-04T09:12:15Z</time></trkpt><trkpt lat="42.79085852938275" lon="13.0922454475613"><ele>597.3333333333334</ele><time>2026-04-04T09:12:16Z</time></trkpt><trkpt lat="42.79070343342505" lon="13.09236278828194"><ele>597.0</ele><time>2026-04-04T09:12:17Z</time></trkpt><trkpt lat="42.79055944864633" lon="13.092507971350395"><ele>597.0</ele><time>2026-04-04T09:12:18Z</time></trkpt><trkpt lat="42.790394970716726" lon="13.092674156344026"><ele>597.0</ele><time>2026-04-04T09:12:19Z</time></trkpt><trkpt lat="42.790269439790926" lon="13.092806156104016"><ele>597.0</ele><time>2026-04-04T09:12:20Z</time></trkpt><trkpt lat="42.79015789502687" lon="13.09296770739464"><ele>595.75</ele><time>2026-04-04T09:12:21Z</time></trkpt><trkpt lat="42.790057603848794" lon="13.093097465870379"><ele>594.5</ele><time>2026-04-04T09:12:22Z</time></trkpt><trkpt lat="42.7899829839276" lon="13.093213671393459"><ele>593.25</ele><time>2026-04-04T09:12:23Z</time></trkpt><trkpt lat="42.78994020515756" lon="13.093357180519748"><ele>592.0</ele><time>2026-04-04T09:12:24Z</time></trkpt><trkpt lat="42.78992855532412" lon="13.093518580835964"><ele>592.0</ele><time>2026-04-04T09:12:25Z</time></trkpt><trkpt lat="42.78993766447407" lon="13.093692995474381"><ele>592.0</ele><time>2026-04-04T09:12:26Z</time></trkpt><trkpt lat="42.78994531559785" lon="13.093880514536714"><ele>592.0</ele><time>2026-04-04T09:12:27Z</time></trkpt><trkpt lat="42.78994413967031" lon="13.094031138280206"><ele>592.0</ele><time>2026-04-04T09:12:28Z</time></trkpt><trkpt lat="42.789918485663016" lon="13.09426242212422"><ele>592.25</ele><time>2026-04-04T09:12:29Z</time></trkpt><trkpt lat="42.789898084433595" lon="13.094451879861948"><ele>592.5</ele><time>2026-04-04T09:12:30Z</time></trkpt><trkpt lat="42.78987343713702" lon="13.094638034500482"><ele>592.75</ele><time>2026-04-04T09:12:31Z</time></trkpt><trkpt lat="42.789849431307836" lon="13.094795918317324"><ele>593.0</ele><time>2026-04-04T09:12:32Z</time></trkpt><trkpt lat="42.78981206244011" lon="13.094917607696537"><ele>593.1999999999999</ele><time>2026-04-04T09:12:33Z</time></trkpt><trkpt lat="42.78977102370877" lon="13.095040974637442"><ele>593.4</ele><time>2026-04-04T09:12:34Z</time></trkpt><trkpt lat="42.78976555601062" lon="13.09520008169039"><ele>593.5999999999999</ele><time>2026-04-04T09:12:35Z</time></trkpt><trkpt lat="42.789697609886545" lon="13.095317026980837"><ele>593.8</ele><time>2026-04-04T09:12:36Z</time></trkpt><trkpt lat="42.78964033699535" lon="13.095414199036425"><ele>594.0</ele><time>2026-04-04T09:12:37Z</time></trkpt><trkpt lat="42.78961515778368" lon="13.095503489343514"><ele>594.0</ele><time>2026-04-04T09:12:38Z</time></trkpt><trkpt lat="42.78957639765638" lon="13.095593524281137"><ele>594.0</ele><time>2026-04-04T09:12:41Z</time></trkpt><trkpt lat="42.78952545921933" lon="13.09568975021919"><ele>594.0</ele><time>2026-04-04T09:12:44Z</time></trkpt><trkpt lat="42.78944990644613" lon="13.09574249146616"><ele>594.0</ele><time>2026-04-04T09:12:45Z</time></trkpt><trkpt lat="42.78935785029174" lon="13.095776223276456"><ele>594.0</ele><time>2026-04-04T09:12:46Z</time></trkpt><trkpt lat="42.78926636722296" lon="13.0958086185995"><ele>594.0</ele><time>2026-04-04T09:12:47Z</time></trkpt><trkpt lat="42.78916822602899" lon="13.095775656881631"><ele>594.1666666666666</ele><time>2026-04-04T09:12:48Z</time></trkpt><trkpt lat="42.789089940742166" lon="13.095806779891873"><ele>594.3333333333334</ele><time>2026-04-04T09:12:49Z</time></trkpt><trkpt lat="42.78901820664414" lon="13.095834778593021"><ele>594.5</ele><time>2026-04-04T09:12:50Z</time></trkpt><trkpt lat="42.78893867418034" lon="13.09586525825294"><ele>594.6666666666667</ele><time>2026-04-04T09:12:51Z</time></trkpt><trkpt lat="42.788856903169304" lon="13.095896595787087"><ele>594.8333333333334</ele><time>2026-04-04T09:12:52Z</time></trkpt><trkpt lat="42.78877930922134" lon="13.095926332545357"><ele>595.0</ele><time>2026-04-04T09:12:53Z</time></trkpt><trkpt lat="42.78870358532468" lon="13.095955352624255"><ele>595.0</ele><time>2026-04-04T09:12:54Z</time></trkpt><trkpt lat="42.788629807389036" lon="13.095983626941537"><ele>595.0</ele><time>2026-04-04T09:12:55Z</time></trkpt><trkpt lat="42.78855582731618" lon="13.096011978730573"><ele>595.0</ele><time>2026-04-04T09:12:56Z</time></trkpt><trkpt lat="42.78847881898825" lon="13.096041491055713"><ele>595.0</ele><time>2026-04-04T09:12:57Z</time></trkpt><trkpt lat="42.788402119855625" lon="13.096071001629122"><ele>595.0</ele><time>2026-04-04T09:12:58Z</time></trkpt><trkpt lat="42.788316763258905" lon="13.096104155653821"><ele>595.0</ele><time>2026-04-04T09:12:59Z</time></trkpt><trkpt lat="42.78822644696816" lon="13.096139236103873"><ele>593.6</ele><time>2026-04-04T09:13:00Z</time></trkpt><trkpt lat="42.788133062256904" lon="13.096175508403022"><ele>592.2</ele><time>2026-04-04T09:13:01Z</time></trkpt><trkpt lat="42.788039380208055" lon="13.096211896187686"><ele>590.8</ele><time>2026-04-04T09:13:02Z</time></trkpt><trkpt lat="42.78794042242993" lon="13.096250333153657"><ele>589.4</ele><time>2026-04-04T09:13:03Z</time></trkpt><trkpt lat="42.787838387746504" lon="13.096289965246134"><ele>588.0</ele><time>2026-04-04T09:13:04Z</time></trkpt><trkpt lat="42.78773132031303" lon="13.096330855986942"><ele>587.25</ele><time>2026-04-04T09:13:05Z</time></trkpt><trkpt lat="42.7876177282582" lon="13.096373818596984"><ele>586.5</ele><time>2026-04-04T09:13:06Z</time></trkpt><trkpt lat="42.78750479954333" lon="13.096416531792848"><ele>585.75</ele><time>2026-04-04T09:13:07Z</time></trkpt><trkpt lat="42.78738680632971" lon="13.096460878704548"><ele>585.0</ele><time>2026-04-04T09:13:08Z</time></trkpt><trkpt lat="42.78726950325704" lon="13.096505748327788"><ele>585.0</ele><time>2026-04-04T09:13:09Z</time></trkpt><trkpt lat="42.78714807575022" lon="13.096552844710285"><ele>585.0</ele><time>2026-04-04T09:13:10Z</time></trkpt><trkpt lat="42.78703856068693" lon="13.096662752284736"><ele>585.0</ele><time>2026-04-04T09:13:11Z</time></trkpt><trkpt lat="42.786916805186905" lon="13.0967069250246"><ele>585.0</ele><time>2026-04-04T09:13:12Z</time></trkpt><trkpt lat="42.78679520406154" lon="13.096753878786103"><ele>586.0</ele><time>2026-04-04T09:13:13Z</time></trkpt><trkpt lat="42.78667554906095" lon="13.096799375917975"><ele>587.0</ele><time>2026-04-04T09:13:14Z</time></trkpt><trkpt lat="42.7865554780685" lon="13.09683970712951"><ele>588.0</ele><time>2026-04-04T09:13:15Z</time></trkpt><trkpt lat="42.7864287610658" lon="13.096831949392477"><ele>589.0</ele><time>2026-04-04T09:13:16Z</time></trkpt><trkpt lat="42.786319831019334" lon="13.096873994544351"><ele>589.0</ele><time>2026-04-04T09:13:17Z</time></trkpt><trkpt lat="42.78621443341991" lon="13.096914676268646"><ele>589.0</ele><time>2026-04-04T09:13:18Z</time></trkpt><trkpt lat="42.7860810172937" lon="13.096980441150246"><ele>589.0</ele><time>2026-04-04T09:13:19Z</time></trkpt><trkpt lat="42.786013012551614" lon="13.09699242138062"><ele>589.0</ele><time>2026-04-04T09:13:20Z</time></trkpt><trkpt lat="42.785937518222894" lon="13.09702156093312"><ele>589.0</ele><time>2026-04-04T09:13:21Z</time></trkpt><trkpt lat="42.785677344475694" lon="13.097121983668641"><ele>589.2</ele><time>2026-04-04T09:13:23Z</time></trkpt><trkpt lat="42.7855800049053" lon="13.097159555084449"><ele>589.4</ele><time>2026-04-04T09:13:24Z</time></trkpt><trkpt lat="42.785473229179125" lon="13.09720076877377"><ele>589.6</ele><time>2026-04-04T09:13:25Z</time></trkpt><trkpt lat="42.785369024391166" lon="13.09724099006913"><ele>589.8</ele><time>2026-04-04T09:13:26Z</time></trkpt><trkpt lat="42.785271757379775" lon="13.097278451084062"><ele>590.0</ele><time>2026-04-04T09:13:27Z</time></trkpt><trkpt lat="42.7851722703311" lon="13.097316759921327"><ele>590.2</ele><time>2026-04-04T09:13:28Z</time></trkpt><trkpt lat="42.78507270517969" lon="13.097355098770496"><ele>590.4</ele><time>2026-04-04T09:13:29Z</time></trkpt><trkpt lat="42.784971965144535" lon="13.09739389006287"><ele>590.6</ele><time>2026-04-04T09:13:30Z</time></trkpt><trkpt lat="42.78486614184234" lon="13.097434638741982"><ele>590.8</ele><time>2026-04-04T09:13:31Z</time></trkpt><trkpt lat="42.784752512167096" lon="13.097478922183505"><ele>591.0</ele><time>2026-04-04T09:13:32Z</time></trkpt><trkpt lat="42.78464825008812" lon="13.097519567678578"><ele>591.2</ele><time>2026-04-04T09:13:33Z</time></trkpt><trkpt lat="42.78454652073536" lon="13.097559225839097"><ele>591.4000000000001</ele><time>2026-04-04T09:13:34Z</time></trkpt><trkpt lat="42.78444157435104" lon="13.097600138553222"><ele>591.6</ele><time>2026-04-04T09:13:35Z</time></trkpt><trkpt lat="42.78434143197398" lon="13.097639444592728"><ele>591.8000000000001</ele><time>2026-04-04T09:13:36Z</time></trkpt><trkpt lat="42.78424647493763" lon="13.097676627634876"><ele>592.0</ele><time>2026-04-04T09:13:37Z</time></trkpt><trkpt lat="42.78415164482223" lon="13.097713761563647"><ele>592.3333333333334</ele><time>2026-04-04T09:13:38Z</time></trkpt><trkpt lat="42.784074576101894" lon="13.09780215906878"><ele>592.6666666666667</ele><time>2026-04-04T09:13:39Z</time></trkpt><trkpt lat="42.7839746296569" lon="13.09782885036469"><ele>593.0</ele><time>2026-04-04T09:13:40Z</time></trkpt><trkpt lat="42.783916189912105" lon="13.09786121923383"><ele>593.3333333333334</ele><time>2026-04-04T09:13:41Z</time></trkpt><trkpt lat="42.7838163496423" lon="13.097843034383372"><ele>593.6666666666666</ele><time>2026-04-04T09:13:43Z</time></trkpt><trkpt lat="42.783750398130636" lon="13.097868454624406"><ele>594.0</ele><time>2026-04-04T09:13:44Z</time></trkpt><trkpt lat="42.78365616604945" lon="13.097903980315786"><ele>594.0</ele><time>2026-04-04T09:13:46Z</time></trkpt><trkpt lat="42.783594675015586" lon="13.097927327447342"><ele>594.0</ele><time>2026-04-04T09:13:48Z</time></trkpt><trkpt lat="42.78353068558502" lon="13.097864291654217"><ele>594.0</ele><time>2026-04-04T09:13:51Z</time></trkpt><trkpt lat="42.783490918476865" lon="13.09779104577547"><ele>594.0</ele><time>2026-04-04T09:13:53Z</time></trkpt><trkpt lat="42.7834387726371" lon="13.097702470637685"><ele>594.0</ele><time>2026-04-04T09:13:55Z</time></trkpt><trkpt lat="42.783376488339755" lon="13.097605959322275"><ele>594.0</ele><time>2026-04-04T09:13:57Z</time></trkpt><trkpt lat="42.78333161675744" lon="13.097536062596365"><ele>594.5714285714286</ele><time>2026-04-04T09:13:59Z</time></trkpt><trkpt lat="42.783274617284" lon="13.097448413719306"><ele>595.1428571428572</ele><time>2026-04-04T09:14:01Z</time></trkpt><trkpt lat="42.78322510222688" lon="13.097373764351401"><ele>595.7142857142858</ele><time>2026-04-04T09:14:03Z</time></trkpt><trkpt lat="42.78318121315014" lon="13.097307596786093"><ele>596.2857142857143</ele><time>2026-04-04T09:14:07Z</time></trkpt><trkpt lat="42.78313579233455" lon="13.097239119950643"><ele>596.8571428571429</ele><time>2026-04-04T09:14:10Z</time></trkpt><trkpt lat="42.78308546196803" lon="13.097158276416595"><ele>597.4285714285714</ele><time>2026-04-04T09:14:13Z</time></trkpt><trkpt lat="42.7830520464253" lon="13.097079381335172"><ele>598.0</ele><time>2026-04-04T09:14:16Z</time></trkpt><trkpt lat="42.783124341278366" lon="13.096910352435364"><ele>598.0</ele><time>2026-04-04T09:14:19Z</time></trkpt><trkpt lat="42.783205025606996" lon="13.096864555507686"><ele>598.0</ele><time>2026-04-04T09:14:21Z</time></trkpt><trkpt lat="42.783292589682375" lon="13.096787429294649"><ele>598.0</ele><time>2026-04-04T09:14:23Z</time></trkpt><trkpt lat="42.783362258206" lon="13.096717696619901"><ele>598.0</ele><time>2026-04-04T09:14:25Z</time></trkpt><trkpt lat="42.78344180815082" lon="13.096689598262717"><ele>598.0</ele><time>2026-04-04T09:14:27Z</time></trkpt><trkpt lat="42.78351388632375" lon="13.096775656110884"><ele>597.3333333333334</ele><time>2026-04-04T09:14:29Z</time></trkpt><trkpt lat="42.78356248434377" lon="13.096873824435214"><ele>596.6666666666667</ele><time>2026-04-04T09:14:31Z</time></trkpt><trkpt lat="42.78359293314621" lon="13.096954825051013"><ele>596.0</ele><time>2026-04-04T09:14:33Z</time></trkpt><trkpt lat="42.78362555811584" lon="13.097032461960119"><ele>595.3333333333334</ele><time>2026-04-04T09:14:37Z</time></trkpt><trkpt lat="42.78368816001451" lon="13.097020034448269"><ele>594.6666666666666</ele><time>2026-04-04T09:17:16Z</time></trkpt><trkpt lat="42.78356844834226" lon="13.096968821671384"><ele>594.0</ele><time>2026-04-04T09:17:19Z</time></trkpt><trkpt lat="42.7835958786164" lon="13.097065881522337"><ele>594.0</ele><time>2026-04-04T09:17:34Z</time></trkpt></trkseg><trkseg><trkpt lat="42.78386280262842" lon="13.097185482733286"><ele>594.0</ele><time>2026-04-04T12:16:31Z</time></trkpt><trkpt lat="42.78391777578569" lon="13.097247885859439"><ele>594.0</ele><time>2026-04-04T12:16:42Z</time></trkpt><trkpt lat="42.78398048821028" lon="13.097299458248765"><ele>594.0</ele><time>2026-04-04T12:16:43Z</time></trkpt><trkpt lat="42.78411554869689" lon="13.097291891372896"><ele>594.0</ele><time>2026-04-04T12:16:45Z</time></trkpt><trkpt lat="42.7842043684692" lon="13.097273668031919"><ele>594.0</ele><time>2026-04-04T12:16:46Z</time></trkpt><trkpt lat="42.78427608318096" lon="13.097270482695258"><ele>594.0</ele><time>2026-04-04T12:16:47Z</time></trkpt><trkpt lat="42.78434921985303" lon="13.097258858863457"><ele>593.25</ele><time>2026-04-04T12:16:48Z</time></trkpt><trkpt lat="42.78448107982738" lon="13.097157548782812"><ele>592.5</ele><time>2026-04-04T12:16:50Z</time></trkpt><trkpt lat="42.784571965254635" lon="13.097108462921097"><ele>591.75</ele><time>2026-04-04T12:16:51Z</time></trkpt><trkpt lat="42.78467001430187" lon="13.097063975757045"><ele>591.0</ele><time>2026-04-04T12:16:52Z</time></trkpt><trkpt lat="42.7847737607333" lon="13.097020023368632"><ele>591.0</ele><time>2026-04-04T12:16:53Z</time></trkpt><trkpt lat="42.784864921658716" lon="13.096983395334123"><ele>591.0</ele><time>2026-04-04T12:16:54Z</time></trkpt><trkpt lat="42.78493458807483" lon="13.096953222416614"><ele>591.0</ele><time>2026-04-04T12:16:55Z</time></trkpt><trkpt lat="42.785055082484575" lon="13.096913882857951"><ele>591.0</ele><time>2026-04-04T12:16:57Z</time></trkpt><trkpt lat="42.78514586662658" lon="13.096840211344285"><ele>591.0</ele><time>2026-04-04T12:16:59Z</time></trkpt><trkpt lat="42.78521164193478" lon="13.096832880318757"><ele>591.0</ele><time>2026-04-04T12:17:01Z</time></trkpt><trkpt lat="42.78529123568725" lon="13.096963762990663"><ele>591.0</ele><time>2026-04-04T12:17:03Z</time></trkpt><trkpt lat="42.78530949702879" lon="13.09705730359571"><ele>591.0</ele><time>2026-04-04T12:17:04Z</time></trkpt><trkpt lat="42.78531617453439" lon="13.09715164837831"><ele>591.0</ele><time>2026-04-04T12:17:05Z</time></trkpt><trkpt lat="42.78531644336321" lon="13.097259542344034"><ele>591.0</ele><time>2026-04-04T12:17:07Z</time></trkpt><trkpt lat="42.785221632636656" lon="13.09729775413093"><ele>591.0</ele><time>2026-04-04T12:17:09Z</time></trkpt><trkpt lat="42.78512007159858" lon="13.097336861326593"><ele>591.0</ele><time>2026-04-04T12:17:10Z</time></trkpt><trkpt lat="42.78498683123066" lon="13.097388167327646"><ele>591.0</ele><time>2026-04-04T12:17:11Z</time></trkpt><trkpt lat="42.78485347973193" lon="13.097439562608491"><ele>591.0</ele><time>2026-04-04T12:17:12Z</time></trkpt><trkpt lat="42.78470924755322" lon="13.09749579004833"><ele>591.0</ele><time>2026-04-04T12:17:13Z</time></trkpt><trkpt lat="42.7845731688698" lon="13.097548838852045"><ele>591.25</ele><time>2026-04-04T12:17:14Z</time></trkpt><trkpt lat="42.784437057657534" lon="13.097602001389996"><ele>591.5</ele><time>2026-04-04T12:17:15Z</time></trkpt><trkpt lat="42.78429643091552" lon="13.097657067587535"><ele>591.75</ele><time>2026-04-04T12:17:16Z</time></trkpt><trkpt lat="42.78415702264031" lon="13.097723663881304"><ele>592.0</ele><time>2026-04-04T12:17:17Z</time></trkpt><trkpt lat="42.784019096226665" lon="13.09777542297978"><ele>592.5</ele><time>2026-04-04T12:17:18Z</time></trkpt><trkpt lat="42.783879311171994" lon="13.097830573118282"><ele>593.0</ele><time>2026-04-04T12:17:19Z</time></trkpt><trkpt lat="42.78373579052222" lon="13.097886222075488"><ele>593.5</ele><time>2026-04-04T12:17:20Z</time></trkpt><trkpt lat="42.78359222338806" lon="13.097940662980164"><ele>594.0</ele><time>2026-04-04T12:17:21Z</time></trkpt><trkpt lat="42.78345036225131" lon="13.097996829928968"><ele>596.0</ele><time>2026-04-04T12:17:22Z</time></trkpt><trkpt lat="42.78330854372108" lon="13.098057319439464"><ele>598.0</ele><time>2026-04-04T12:17:23Z</time></trkpt><trkpt lat="42.783161320154505" lon="13.098094706834678"><ele>600.0</ele><time>2026-04-04T12:17:24Z</time></trkpt><trkpt lat="42.78301150954058" lon="13.098152669320523"><ele>600.0</ele><time>2026-04-04T12:17:25Z</time></trkpt><trkpt lat="42.782864282873916" lon="13.098210480845104"><ele>600.0</ele><time>2026-04-04T12:17:26Z</time></trkpt><trkpt lat="42.78271969314483" lon="13.098289280045169"><ele>600.0</ele><time>2026-04-04T12:17:27Z</time></trkpt><trkpt lat="42.782566701255476" lon="13.098348418539137"><ele>600.25</ele><time>2026-04-04T12:17:28Z</time></trkpt><trkpt lat="42.78241079619784" lon="13.098407318571468"><ele>600.5</ele><time>2026-04-04T12:17:29Z</time></trkpt><trkpt lat="42.7822669575218" lon="13.098468445205064"><ele>600.75</ele><time>2026-04-04T12:17:30Z</time></trkpt><trkpt lat="42.78215645431895" lon="13.098527740192049"><ele>601.0</ele><time>2026-04-04T12:17:31Z</time></trkpt><trkpt lat="42.7820364995371" lon="13.098578616789766"><ele>601.0</ele><time>2026-04-04T12:17:32Z</time></trkpt><trkpt lat="42.78187886775374" lon="13.09863953725894"><ele>601.0</ele><time>2026-04-04T12:17:33Z</time></trkpt><trkpt lat="42.78168241996574" lon="13.098668872328393"><ele>601.0</ele><time>2026-04-04T12:17:34Z</time></trkpt><trkpt lat="42.781514017735425" lon="13.098732667647019"><ele>602.0</ele><time>2026-04-04T12:17:35Z</time></trkpt><trkpt lat="42.781350659156196" lon="13.098794576726897"><ele>603.0</ele><time>2026-04-04T12:17:36Z</time></trkpt><trkpt lat="42.7811925636356" lon="13.098907581452256"><ele>604.0</ele><time>2026-04-04T12:17:37Z</time></trkpt><trkpt lat="42.78102753444577" lon="13.09897733206541"><ele>605.0</ele><time>2026-04-04T12:17:38Z</time></trkpt><trkpt lat="42.78085882180865" lon="13.09903677586564"><ele>606.0</ele><time>2026-04-04T12:17:39Z</time></trkpt><trkpt lat="42.7806863156046" lon="13.09910141760704"><ele>607.0</ele><time>2026-04-04T12:17:40Z</time></trkpt><trkpt lat="42.78050146200015" lon="13.099124908150033"><ele>607.0</ele><time>2026-04-04T12:17:41Z</time></trkpt><trkpt lat="42.78033088048685" lon="13.099190493361233"><ele>607.0</ele><time>2026-04-04T12:17:42Z</time></trkpt><trkpt lat="42.78015648144013" lon="13.099257737014394"><ele>607.0</ele><time>2026-04-04T12:17:43Z</time></trkpt><trkpt lat="42.779975635708" lon="13.099327731946332"><ele>608.0</ele><time>2026-04-04T12:17:44Z</time></trkpt><trkpt lat="42.77979931481898" lon="13.099395884484444"><ele>609.0</ele><time>2026-04-04T12:17:45Z</time></trkpt><trkpt lat="42.77961957557111" lon="13.099465407653911"><ele>610.0</ele><time>2026-04-04T12:17:46Z</time></trkpt><trkpt lat="42.779438878735945" lon="13.099535400894366"><ele>610.6666666666667</ele><time>2026-04-04T12:17:47Z</time></trkpt><trkpt lat="42.779256783284424" lon="13.09960605281775"><ele>611.3333333333334</ele><time>2026-04-04T12:17:48Z</time></trkpt><trkpt lat="42.77907468423877" lon="13.099677239745956"><ele>612.0</ele><time>2026-04-04T12:17:49Z</time></trkpt><trkpt lat="42.77889094386" lon="13.09974760749743"><ele>612.0</ele><time>2026-04-04T12:17:50Z</time></trkpt><trkpt lat="42.77870804044596" lon="13.099817196345107"><ele>612.0</ele><time>2026-04-04T12:17:51Z</time></trkpt><trkpt lat="42.7785281276379" lon="13.099885647820209"><ele>612.0</ele><time>2026-04-04T12:17:52Z</time></trkpt><trkpt lat="42.7783485780689" lon="13.09995606082688"><ele>613.3333333333334</ele><time>2026-04-04T12:17:53Z</time></trkpt><trkpt lat="42.7781696170378" lon="13.100025854420162"><ele>614.6666666666667</ele><time>2026-04-04T12:17:54Z</time></trkpt><trkpt lat="42.777993102252495" lon="13.100094691780725"><ele>616.0</ele><time>2026-04-04T12:17:55Z</time></trkpt><trkpt lat="42.77781824412495" lon="13.100162103107072"><ele>617.3333333333334</ele><time>2026-04-04T12:17:56Z</time></trkpt><trkpt lat="42.77764743713175" lon="13.10026469959143"><ele>618.6666666666666</ele><time>2026-04-04T12:17:57Z</time></trkpt><trkpt lat="42.777469118797605" lon="13.100338731698159"><ele>620.0</ele><time>2026-04-04T12:17:58Z</time></trkpt><trkpt lat="42.77729323054316" lon="13.100411737849214"><ele>620.0</ele><time>2026-04-04T12:17:59Z</time></trkpt><trkpt lat="42.77711510395519" lon="13.100480310073637"><ele>620.0</ele><time>2026-04-04T12:18:00Z</time></trkpt><trkpt lat="42.776936092779074" lon="13.100545202139344"><ele>620.0</ele><time>2026-04-04T12:18:01Z</time></trkpt><trkpt lat="42.77676401389278" lon="13.1005841965071"><ele>620.6666666666666</ele><time>2026-04-04T12:18:02Z</time></trkpt><trkpt lat="42.77659093899256" lon="13.100631440258615"><ele>621.3333333333334</ele><time>2026-04-04T12:18:03Z</time></trkpt><trkpt lat="42.77638767767689" lon="13.10071536850542"><ele>622.0</ele><time>2026-04-04T12:18:04Z</time></trkpt><trkpt lat="42.77621289099337" lon="13.100804713897976"><ele>622.3333333333334</ele><time>2026-04-04T12:18:05Z</time></trkpt><trkpt lat="42.776021550274265" lon="13.100856437014194"><ele>622.6666666666666</ele><time>2026-04-04T12:18:06Z</time></trkpt><trkpt lat="42.77584288617986" lon="13.100924432049002"><ele>623.0</ele><time>2026-04-04T12:18:07Z</time></trkpt><trkpt lat="42.77566321232435" lon="13.100992811440328"><ele>624.6666666666666</ele><time>2026-04-04T12:18:08Z</time></trkpt><trkpt lat="42.775486542520824" lon="13.101060047526984"><ele>626.3333333333334</ele><time>2026-04-04T12:18:09Z</time></trkpt><trkpt lat="42.77534722484036" lon="13.101113068407779"><ele>628.0</ele><time>2026-04-04T12:18:10Z</time></trkpt><trkpt lat="42.775158852413746" lon="13.101184758155721"><ele>629.0</ele><time>2026-04-04T12:18:11Z</time></trkpt><trkpt lat="42.77500135803793" lon="13.101244696619402"><ele>630.0</ele><time>2026-04-04T12:18:12Z</time></trkpt><trkpt lat="42.774853869959934" lon="13.101300826775551"><ele>631.0</ele><time>2026-04-04T12:18:13Z</time></trkpt><trkpt lat="42.774711745282445" lon="13.101355259967383"><ele>631.0</ele><time>2026-04-04T12:18:14Z</time></trkpt><trkpt lat="42.774579886488915" lon="13.101405978714242"><ele>631.0</ele><time>2026-04-04T12:18:15Z</time></trkpt><trkpt lat="42.77444939230751" lon="13.10145617252743"><ele>631.0</ele><time>2026-04-04T12:18:16Z</time></trkpt><trkpt lat="42.77431840646876" lon="13.101506555502253"><ele>631.0</ele><time>2026-04-04T12:18:17Z</time></trkpt><trkpt lat="42.774189094492684" lon="13.101556294592172"><ele>632.0</ele><time>2026-04-04T12:18:18Z</time></trkpt><trkpt lat="42.77405806861616" lon="13.101606692963582"><ele>633.0</ele><time>2026-04-04T12:18:19Z</time></trkpt><trkpt lat="42.77392790734425" lon="13.101679962171577"><ele>634.0</ele><time>2026-04-04T12:18:20Z</time></trkpt><trkpt lat="42.77377129282216" lon="13.101728596728918"><ele>635.0</ele><time>2026-04-04T12:18:21Z</time></trkpt><trkpt lat="42.773618036006354" lon="13.101794944547855"><ele>636.3333333333333</ele><time>2026-04-04T12:18:22Z</time></trkpt><trkpt lat="42.7734683602857" lon="13.10185761402509"><ele>637.6666666666666</ele><time>2026-04-04T12:18:23Z</time></trkpt><trkpt lat="42.77330049934731" lon="13.101899501503354"><ele>639.0</ele><time>2026-04-04T12:18:24Z</time></trkpt><trkpt lat="42.77313486329505" lon="13.101963573585792"><ele>639.0</ele><time>2026-04-04T12:18:25Z</time></trkpt><trkpt lat="42.77296627985062" lon="13.102028787358066"><ele>639.0</ele><time>2026-04-04T12:18:26Z</time></trkpt><trkpt lat="42.77279150889575" lon="13.10209537585044"><ele>639.0</ele><time>2026-04-04T12:18:27Z</time></trkpt><trkpt lat="42.77261274135598" lon="13.102163329822845"><ele>639.6666666666666</ele><time>2026-04-04T12:18:28Z</time></trkpt><trkpt lat="42.77243112753817" lon="13.102232365786271"><ele>640.3333333333333</ele><time>2026-04-04T12:18:29Z</time></trkpt><trkpt lat="42.77224811469484" lon="13.102302372469365"><ele>641.0</ele><time>2026-04-04T12:18:30Z</time></trkpt><trkpt lat="42.772065811326485" lon="13.10237245074693"><ele>641.3333333333333</ele><time>2026-04-04T12:18:31Z</time></trkpt><trkpt lat="42.77188569692592" lon="13.102441687574307"><ele>641.6666666666666</ele><time>2026-04-04T12:18:32Z</time></trkpt><trkpt lat="42.7717090654704" lon="13.102508962205277"><ele>642.0</ele><time>2026-04-04T12:18:33Z</time></trkpt><trkpt lat="42.77150626815984" lon="13.102586162216362"><ele>643.3333333333334</ele><time>2026-04-04T12:18:34Z</time></trkpt><trkpt lat="42.7713307221256" lon="13.102652988078018"><ele>644.6666666666667</ele><time>2026-04-04T12:18:35Z</time></trkpt><trkpt lat="42.77113996867645" lon="13.10272627332427"><ele>646.0</ele><time>2026-04-04T12:18:36Z</time></trkpt><trkpt lat="42.77095436616683" lon="13.102798795717616"><ele>646.0</ele><time>2026-04-04T12:18:37Z</time></trkpt><trkpt lat="42.770772028610196" lon="13.102870042359337"><ele>646.0</ele><time>2026-04-04T12:18:38Z</time></trkpt><trkpt lat="42.770608377889516" lon="13.102934247116005"><ele>646.0</ele><time>2026-04-04T12:18:39Z</time></trkpt><trkpt lat="42.770464700477575" lon="13.102990070778382"><ele>646.0</ele><time>2026-04-04T12:18:40Z</time></trkpt><trkpt lat="42.77034163394189" lon="13.103037503425117"><ele>646.0</ele><time>2026-04-04T12:18:41Z</time></trkpt><trkpt lat="42.77023251576184" lon="13.103079285474715"><ele>646.0</ele><time>2026-04-04T12:18:42Z</time></trkpt><trkpt lat="42.77015106535298" lon="13.103109512745528"><ele>646.0</ele><time>2026-04-04T12:18:43Z</time></trkpt><trkpt lat="42.77009987862703" lon="13.103348000222779"><ele>647.25</ele><time>2026-04-04T12:18:45Z</time></trkpt><trkpt lat="42.77011540293812" lon="13.103500985570381"><ele>648.5</ele><time>2026-04-04T12:18:46Z</time></trkpt><trkpt lat="42.7701114163528" lon="13.103696085976761"><ele>649.75</ele><time>2026-04-04T12:18:47Z</time></trkpt><trkpt lat="42.770058448925624" lon="13.10388576578004"><ele>651.0</ele><time>2026-04-04T12:18:48Z</time></trkpt><trkpt lat="42.769959514399936" lon="13.104080777528631"><ele>655.0</ele><time>2026-04-04T12:18:49Z</time></trkpt><trkpt lat="42.76984486447602" lon="13.104249752297143"><ele>659.0</ele><time>2026-04-04T12:18:50Z</time></trkpt><trkpt lat="42.769752218581026" lon="13.104446007473742"><ele>663.0</ele><time>2026-04-04T12:18:51Z</time></trkpt><trkpt lat="42.76965635530118" lon="13.104635073331023"><ele>663.0</ele><time>2026-04-04T12:18:52Z</time></trkpt><trkpt lat="42.769545439738444" lon="13.10483704268207"><ele>663.0</ele><time>2026-04-04T12:18:53Z</time></trkpt><trkpt lat="42.76944124448111" lon="13.105020828395567"><ele>663.0</ele><time>2026-04-04T12:18:54Z</time></trkpt><trkpt lat="42.76937289608685" lon="13.105211172024273"><ele>663.0</ele><time>2026-04-04T12:18:55Z</time></trkpt><trkpt lat="42.7693174396668" lon="13.10541176815124"><ele>663.0</ele><time>2026-04-04T12:18:56Z</time></trkpt><trkpt lat="42.769294593127626" lon="13.105670591797608"><ele>663.0</ele><time>2026-04-04T12:18:57Z</time></trkpt><trkpt lat="42.76928515537867" lon="13.105915692975897"><ele>663.0</ele><time>2026-04-04T12:18:58Z</time></trkpt><trkpt lat="42.76925204088404" lon="13.106161917917165"><ele>663.0</ele><time>2026-04-04T12:18:59Z</time></trkpt><trkpt lat="42.76923153428036" lon="13.106418548502415"><ele>663.0</ele><time>2026-04-04T12:19:00Z</time></trkpt><trkpt lat="42.76921555415855" lon="13.106668573027132"><ele>664.6666666666666</ele><time>2026-04-04T12:19:01Z</time></trkpt><trkpt lat="42.76920587521345" lon="13.106922077563821"><ele>666.3333333333333</ele><time>2026-04-04T12:19:02Z</time></trkpt><trkpt lat="42.769199267348824" lon="13.107179640892584"><ele>668.0</ele><time>2026-04-04T12:19:03Z</time></trkpt><trkpt lat="42.76919349613245" lon="13.107438869563474"><ele>669.3333333333333</ele><time>2026-04-04T12:19:04Z</time></trkpt><trkpt lat="42.769189848339245" lon="13.107704139610915"><ele>670.6666666666666</ele><time>2026-04-04T12:19:05Z</time></trkpt><trkpt lat="42.769192729507616" lon="13.107969607369132"><ele>672.0</ele><time>2026-04-04T12:19:06Z</time></trkpt><trkpt lat="42.76920004234897" lon="13.108238880934843"><ele>672.6666666666666</ele><time>2026-04-04T12:19:07Z</time></trkpt><trkpt lat="42.76920104306119" lon="13.108507011186447"><ele>673.3333333333333</ele><time>2026-04-04T12:19:08Z</time></trkpt><trkpt lat="42.76919474833646" lon="13.10877166204707"><ele>674.0</ele><time>2026-04-04T12:19:09Z</time></trkpt><trkpt lat="42.769210717680735" lon="13.109060711978088"><ele>674.6666666666666</ele><time>2026-04-04T12:19:10Z</time></trkpt><trkpt lat="42.76923515704649" lon="13.109315291504956"><ele>675.3333333333334</ele><time>2026-04-04T12:19:11Z</time></trkpt><trkpt lat="42.76927549933448" lon="13.109595020098952"><ele>676.0</ele><time>2026-04-04T12:19:12Z</time></trkpt><trkpt lat="42.769320583292874" lon="13.10986842611585"><ele>683.6666666666667</ele><time>2026-04-04T12:19:13Z</time></trkpt><trkpt lat="42.76936728244304" lon="13.110139693220415"><ele>691.3333333333334</ele><time>2026-04-04T12:19:14Z</time></trkpt><trkpt lat="42.769411357799264" lon="13.110411288627938"><ele>699.0</ele><time>2026-04-04T12:19:15Z</time></trkpt><trkpt lat="42.76945723121429" lon="13.110683178602043"><ele>700.0</ele><time>2026-04-04T12:19:16Z</time></trkpt><trkpt lat="42.76950481736976" lon="13.110959170145339"><ele>701.0</ele><time>2026-04-04T12:19:17Z</time></trkpt><trkpt lat="42.7695611425182" lon="13.11123015129349"><ele>702.0</ele><time>2026-04-04T12:19:18Z</time></trkpt><trkpt lat="42.76962562302249" lon="13.111499312936242"><ele>701.3333333333334</ele><time>2026-04-04T12:19:19Z</time></trkpt><trkpt lat="42.769698961922515" lon="13.111765533362886"><ele>700.6666666666667</ele><time>2026-04-04T12:19:20Z</time></trkpt><trkpt lat="42.7697833558739" lon="13.112023549649752"><ele>700.0</ele><time>2026-04-04T12:19:21Z</time></trkpt><trkpt lat="42.7698721355481" lon="13.112267521109619"><ele>699.3333333333334</ele><time>2026-04-04T12:19:22Z</time></trkpt><trkpt lat="42.769955145242825" lon="13.112505635335056"><ele>698.6666666666666</ele><time>2026-04-04T12:19:23Z</time></trkpt><trkpt lat="42.770028909166236" lon="13.112727022396642"><ele>698.0</ele><time>2026-04-04T12:19:24Z</time></trkpt><trkpt lat="42.770108707330394" lon="13.112920472483818"><ele>703.6666666666666</ele><time>2026-04-04T12:19:25Z</time></trkpt><trkpt lat="42.77022394556282" lon="13.113082416350764"><ele>709.3333333333334</ele><time>2026-04-04T12:19:26Z</time></trkpt><trkpt lat="42.770368026101515" lon="13.11314199299329"><ele>715.0</ele><time>2026-04-04T12:19:27Z</time></trkpt><trkpt lat="42.770525634080805" lon="13.11320143086838"><ele>712.0</ele><time>2026-04-04T12:19:28Z</time></trkpt><trkpt lat="42.770683992853876" lon="13.113254927681853"><ele>709.0</ele><time>2026-04-04T12:19:29Z</time></trkpt><trkpt lat="42.77082569908702" lon="13.113338232419444"><ele>706.0</ele><time>2026-04-04T12:19:30Z</time></trkpt><trkpt lat="42.77090654377255" lon="13.113483805391155"><ele>706.0</ele><time>2026-04-04T12:19:31Z</time></trkpt><trkpt lat="42.77094312132424" lon="13.113670676471"><ele>706.0</ele><time>2026-04-04T12:19:32Z</time></trkpt><trkpt lat="42.770981825776246" lon="13.113888489830403"><ele>706.0</ele><time>2026-04-04T12:19:33Z</time></trkpt><trkpt lat="42.77100847558867" lon="13.114130267096549"><ele>711.0</ele><time>2026-04-04T12:19:34Z</time></trkpt><trkpt lat="42.771032086173754" lon="13.114367274781321"><ele>716.0</ele><time>2026-04-04T12:19:35Z</time></trkpt><trkpt lat="42.77107107374581" lon="13.114606658341215"><ele>721.0</ele><time>2026-04-04T12:19:36Z</time></trkpt><trkpt lat="42.771114859911854" lon="13.114826893572179"><ele>720.3333333333334</ele><time>2026-04-04T12:19:37Z</time></trkpt><trkpt lat="42.771186512633264" lon="13.115049118966283"><ele>719.6666666666666</ele><time>2026-04-04T12:19:38Z</time></trkpt><trkpt lat="42.77128493725217" lon="13.115246732831533"><ele>719.0</ele><time>2026-04-04T12:19:39Z</time></trkpt><trkpt lat="42.77140744390866" lon="13.115434302740656"><ele>719.0</ele><time>2026-04-04T12:19:40Z</time></trkpt><trkpt lat="42.771543357690135" lon="13.115597070458417"><ele>719.0</ele><time>2026-04-04T12:19:41Z</time></trkpt><trkpt lat="42.77165208773236" lon="13.115776222111474"><ele>719.0</ele><time>2026-04-04T12:19:42Z</time></trkpt><trkpt lat="42.771755707578286" lon="13.115975224794322"><ele>717.0</ele><time>2026-04-04T12:19:43Z</time></trkpt><trkpt lat="42.771842767972" lon="13.116157020290606"><ele>715.0</ele><time>2026-04-04T12:19:44Z</time></trkpt><trkpt lat="42.77190251835138" lon="13.116340479383343"><ele>713.0</ele><time>2026-04-04T12:19:45Z</time></trkpt><trkpt lat="42.7719060325635" lon="13.116551249679878"><ele>712.6666666666666</ele><time>2026-04-04T12:19:46Z</time></trkpt><trkpt lat="42.771876411865485" lon="13.116780907060171"><ele>712.3333333333334</ele><time>2026-04-04T12:19:47Z</time></trkpt><trkpt lat="42.7718236174574" lon="13.117008585995617"><ele>712.0</ele><time>2026-04-04T12:19:48Z</time></trkpt><trkpt lat="42.77171101603789" lon="13.117188167088047"><ele>712.0</ele><time>2026-04-04T12:19:49Z</time></trkpt><trkpt lat="42.771580765311526" lon="13.117343708071898"><ele>712.0</ele><time>2026-04-04T12:19:50Z</time></trkpt><trkpt lat="42.77146561936501" lon="13.117528102575772"><ele>712.0</ele><time>2026-04-04T12:19:51Z</time></trkpt><trkpt lat="42.771391543700425" lon="13.117764290355751"><ele>716.6666666666667</ele><time>2026-04-04T12:19:52Z</time></trkpt><trkpt lat="42.771362652855444" lon="13.118017564418263"><ele>721.3333333333334</ele><time>2026-04-04T12:19:53Z</time></trkpt><trkpt lat="42.7713647792021" lon="13.118287073179967"><ele>726.0</ele><time>2026-04-04T12:19:54Z</time></trkpt><trkpt lat="42.77141656692362" lon="13.118541186321204"><ele>727.75</ele><time>2026-04-04T12:19:55Z</time></trkpt><trkpt lat="42.7714812631577" lon="13.118760235619872"><ele>729.5</ele><time>2026-04-04T12:19:56Z</time></trkpt><trkpt lat="42.77153049572306" lon="13.118948653112918"><ele>731.25</ele><time>2026-04-04T12:19:57Z</time></trkpt><trkpt lat="42.77155721361819" lon="13.11912082998054"><ele>733.0</ele><time>2026-04-04T12:19:58Z</time></trkpt><trkpt lat="42.771543018526934" lon="13.119312812313744"><ele>733.0</ele><time>2026-04-04T12:19:59Z</time></trkpt><trkpt lat="42.77145979574237" lon="13.119502665886824"><ele>733.0</ele><time>2026-04-04T12:20:00Z</time></trkpt><trkpt lat="42.771335019545" lon="13.11964448224687"><ele>733.0</ele><time>2026-04-04T12:20:01Z</time></trkpt><trkpt lat="42.77117606738094" lon="13.119734865345812"><ele>735.3333333333334</ele><time>2026-04-04T12:20:02Z</time></trkpt><trkpt lat="42.77100095811672" lon="13.119761766719861"><ele>737.6666666666666</ele><time>2026-04-04T12:20:03Z</time></trkpt><trkpt lat="42.77081601757968" lon="13.119821624310747"><ele>740.0</ele><time>2026-04-04T12:20:04Z</time></trkpt><trkpt lat="42.77064389194713" lon="13.119945552179935"><ele>740.0</ele><time>2026-04-04T12:20:05Z</time></trkpt><trkpt lat="42.77047319232186" lon="13.120076159295413"><ele>740.0</ele><time>2026-04-04T12:20:06Z</time></trkpt><trkpt lat="42.770305402323196" lon="13.120215497831841"><ele>740.0</ele><time>2026-04-04T12:20:07Z</time></trkpt><trkpt lat="42.7701339875131" lon="13.120359031590759"><ele>742.6666666666666</ele><time>2026-04-04T12:20:08Z</time></trkpt><trkpt lat="42.769964611115135" lon="13.120514561699798"><ele>745.3333333333334</ele><time>2026-04-04T12:20:09Z</time></trkpt><trkpt lat="42.769794939394274" lon="13.120674431729576"><ele>748.0</ele><time>2026-04-04T12:20:10Z</time></trkpt><trkpt lat="42.76961626443406" lon="13.1208202290735"><ele>748.0</ele><time>2026-04-04T12:20:11Z</time></trkpt><trkpt lat="42.76944748589482" lon="13.120981117244316"><ele>748.0</ele><time>2026-04-04T12:20:12Z</time></trkpt><trkpt lat="42.76928316704362" lon="13.121156804210262"><ele>748.0</ele><time>2026-04-04T12:20:13Z</time></trkpt><trkpt lat="42.76909287061133" lon="13.121276580543842"><ele>748.0</ele><time>2026-04-04T12:20:14Z</time></trkpt><trkpt lat="42.768891526931334" lon="13.121364308333675"><ele>748.0</ele><time>2026-04-04T12:20:15Z</time></trkpt><trkpt lat="42.76869613853327" lon="13.121477730363843"><ele>748.0</ele><time>2026-04-04T12:20:16Z</time></trkpt><trkpt lat="42.76851249898506" lon="13.121637183721406"><ele>748.0</ele><time>2026-04-04T12:20:17Z</time></trkpt><trkpt lat="42.768345205762635" lon="13.121809294921032"><ele>748.0</ele><time>2026-04-04T12:20:18Z</time></trkpt><trkpt lat="42.768194610457286" lon="13.122003961971075"><ele>748.0</ele><time>2026-04-04T12:20:19Z</time></trkpt><trkpt lat="42.768068599644046" lon="13.122229038404909"><ele>747.6666666666667</ele><time>2026-04-04T12:20:20Z</time></trkpt><trkpt lat="42.767973690410926" lon="13.122456805706506"><ele>747.3333333333334</ele><time>2026-04-04T12:20:21Z</time></trkpt><trkpt lat="42.7678540447684" lon="13.122656775266703"><ele>747.0</ele><time>2026-04-04T12:20:22Z</time></trkpt><trkpt lat="42.76767825588063" lon="13.12278171620054"><ele>747.0</ele><time>2026-04-04T12:20:23Z</time></trkpt><trkpt lat="42.76751321403897" lon="13.122938131233393"><ele>747.0</ele><time>2026-04-04T12:20:24Z</time></trkpt><trkpt lat="42.767340977752305" lon="13.123082604428081"><ele>747.0</ele><time>2026-04-04T12:20:25Z</time></trkpt><trkpt lat="42.76715964076613" lon="13.123219185517229"><ele>751.6666666666666</ele><time>2026-04-04T12:20:26Z</time></trkpt><trkpt lat="42.76697981175667" lon="13.123350533948278"><ele>756.3333333333333</ele><time>2026-04-04T12:20:27Z</time></trkpt><trkpt lat="42.76680025914813" lon="13.123481553666956"><ele>761.0</ele><time>2026-04-04T12:20:28Z</time></trkpt><trkpt lat="42.76660643361414" lon="13.123583305267733"><ele>761.0</ele><time>2026-04-04T12:20:29Z</time></trkpt><trkpt lat="42.76641169319758" lon="13.123655055787175"><ele>761.0</ele><time>2026-04-04T12:20:30Z</time></trkpt><trkpt lat="42.76621450322515" lon="13.123760933419833"><ele>761.0</ele><time>2026-04-04T12:20:31Z</time></trkpt><trkpt lat="42.76603652625845" lon="13.123897284583117"><ele>757.6666666666666</ele><time>2026-04-04T12:20:32Z</time></trkpt><trkpt lat="42.76585287158899" lon="13.12402297327937"><ele>754.3333333333334</ele><time>2026-04-04T12:20:33Z</time></trkpt><trkpt lat="42.765702075040124" lon="13.124197979724107"><ele>751.0</ele><time>2026-04-04T12:20:34Z</time></trkpt><trkpt lat="42.76555147592527" lon="13.124357848423854"><ele>756.0</ele><time>2026-04-04T12:20:35Z</time></trkpt><trkpt lat="42.76536710088994" lon="13.12440812368128"><ele>761.0</ele><time>2026-04-04T12:20:36Z</time></trkpt><trkpt lat="42.765168212246905" lon="13.124482124708688"><ele>766.0</ele><time>2026-04-04T12:20:37Z</time></trkpt><trkpt lat="42.76496239146464" lon="13.124534135538623"><ele>766.0</ele><time>2026-04-04T12:20:38Z</time></trkpt><trkpt lat="42.76475405177843" lon="13.124619369923673"><ele>766.0</ele><time>2026-04-04T12:20:39Z</time></trkpt><trkpt lat="42.764556639456856" lon="13.124751404502339"><ele>766.0</ele><time>2026-04-04T12:20:40Z</time></trkpt><trkpt lat="42.764365514055555" lon="13.124903508520163"><ele>770.3333333333334</ele><time>2026-04-04T12:20:41Z</time></trkpt><trkpt lat="42.76417204702275" lon="13.125057097084603"><ele>774.6666666666667</ele><time>2026-04-04T12:20:42Z</time></trkpt><trkpt lat="42.76397023541991" lon="13.125185088690225"><ele>779.0</ele><time>2026-04-04T12:20:43Z</time></trkpt><trkpt lat="42.763764455387886" lon="13.125319263928965"><ele>779.0</ele><time>2026-04-04T12:20:44Z</time></trkpt><trkpt lat="42.76355250720691" lon="13.125438713308428"><ele>779.0</ele><time>2026-04-04T12:20:45Z</time></trkpt><trkpt lat="42.76334480461666" lon="13.125549360179546"><ele>776.5</ele><time>2026-04-04T12:20:46Z</time></trkpt><trkpt lat="42.76314118498691" lon="13.125677747127797"><ele>774.0</ele><time>2026-04-04T12:20:47Z</time></trkpt><trkpt lat="42.76292559412377" lon="13.12579599864525"><ele>778.6666666666667</ele><time>2026-04-04T12:20:48Z</time></trkpt><trkpt lat="42.76271989829458" lon="13.125920623110988"><ele>783.3333333333334</ele><time>2026-04-04T12:20:49Z</time></trkpt><trkpt lat="42.762519109010775" lon="13.12604906873999"><ele>788.0</ele><time>2026-04-04T12:20:50Z</time></trkpt><trkpt lat="42.76232974486986" lon="13.126179988204376"><ele>788.0</ele><time>2026-04-04T12:20:51Z</time></trkpt><trkpt lat="42.762164211386526" lon="13.126323553094954"><ele>788.0</ele><time>2026-04-04T12:20:52Z</time></trkpt><trkpt lat="42.76203626937096" lon="13.126487110810537"><ele>788.0</ele><time>2026-04-04T12:20:53Z</time></trkpt><trkpt lat="42.76192523940504" lon="13.126684336634115"><ele>788.0</ele><time>2026-04-04T12:20:54Z</time></trkpt><trkpt lat="42.761851832234186" lon="13.126929096563849"><ele>788.0</ele><time>2026-04-04T12:20:55Z</time></trkpt><trkpt lat="42.761784017398895" lon="13.127198208350972"><ele>788.0</ele><time>2026-04-04T12:20:56Z</time></trkpt><trkpt lat="42.761728043082925" lon="13.127470292183553"><ele>788.0</ele><time>2026-04-04T12:20:57Z</time></trkpt><trkpt lat="42.761711061552234" lon="13.127767224227036"><ele>788.0</ele><time>2026-04-04T12:20:58Z</time></trkpt><trkpt lat="42.76172956391926" lon="13.128069724747485"><ele>788.0</ele><time>2026-04-04T12:20:59Z</time></trkpt><trkpt lat="42.761786417659195" lon="13.12836516487729"><ele>800.5</ele><time>2026-04-04T12:21:00Z</time></trkpt><trkpt lat="42.761894930381274" lon="13.128660321027201"><ele>813.0</ele><time>2026-04-04T12:21:01Z</time></trkpt><trkpt lat="42.76199035015107" lon="13.128942903216704"><ele>811.6666666666667</ele><time>2026-04-04T12:21:02Z</time></trkpt><trkpt lat="42.762073061810966" lon="13.129228499870829"><ele>810.3333333333334</ele><time>2026-04-04T12:21:03Z</time></trkpt><trkpt lat="42.76217684616305" lon="13.129498688776005"><ele>809.0</ele><time>2026-04-04T12:21:04Z</time></trkpt><trkpt lat="42.762310179230624" lon="13.129744880946296"><ele>806.3333333333334</ele><time>2026-04-04T12:21:05Z</time></trkpt><trkpt lat="42.76243985159994" lon="13.129988491271925"><ele>803.6666666666667</ele><time>2026-04-04T12:21:06Z</time></trkpt><trkpt lat="42.7625793903779" lon="13.130215522304235"><ele>801.0</ele><time>2026-04-04T12:21:07Z</time></trkpt><trkpt lat="42.76272296543016" lon="13.13045159550693"><ele>805.6666666666667</ele><time>2026-04-04T12:21:08Z</time></trkpt><trkpt lat="42.762872221388605" lon="13.130662992338937"><ele>810.3333333333334</ele><time>2026-04-04T12:21:09Z</time></trkpt><trkpt lat="42.76302536250845" lon="13.130876409997814"><ele>815.0</ele><time>2026-04-04T12:21:10Z</time></trkpt><trkpt lat="42.76317446333594" lon="13.131084486789693"><ele>815.0</ele><time>2026-04-04T12:21:11Z</time></trkpt><trkpt lat="42.76332526852819" lon="13.131292449081096"><ele>815.0</ele><time>2026-04-04T12:21:12Z</time></trkpt><trkpt lat="42.76347580737631" lon="13.13149750680838"><ele>815.0</ele><time>2026-04-04T12:21:13Z</time></trkpt><trkpt lat="42.763628863444524" lon="13.131703217874557"><ele>819.3333333333334</ele><time>2026-04-04T12:21:14Z</time></trkpt><trkpt lat="42.763783119085254" lon="13.13190629225548"><ele>823.6666666666667</ele><time>2026-04-04T12:21:15Z</time></trkpt><trkpt lat="42.76393749720794" lon="13.13210675704771"><ele>828.0</ele><time>2026-04-04T12:21:16Z</time></trkpt><trkpt lat="42.76409187335173" lon="13.132303646832444"><ele>830.6666666666667</ele><time>2026-04-04T12:21:17Z</time></trkpt><trkpt lat="42.76424633762203" lon="13.132500648650161"><ele>833.3333333333334</ele><time>2026-04-04T12:21:18Z</time></trkpt><trkpt lat="42.76440180578088" lon="13.132698015507447"><ele>836.0</ele><time>2026-04-04T12:21:19Z</time></trkpt><trkpt lat="42.76456053292693" lon="13.132897778038606"><ele>836.0</ele><time>2026-04-04T12:21:20Z</time></trkpt><trkpt lat="42.764723513543856" lon="13.133095095026418"><ele>836.0</ele><time>2026-04-04T12:21:21Z</time></trkpt><trkpt lat="42.764891720584735" lon="13.133288275849646"><ele>836.0</ele><time>2026-04-04T12:21:22Z</time></trkpt><trkpt lat="42.76506464375592" lon="13.133478731970465"><ele>838.0</ele><time>2026-04-04T12:21:23Z</time></trkpt><trkpt lat="42.7652439738084" lon="13.133669953599872"><ele>840.0</ele><time>2026-04-04T12:21:24Z</time></trkpt><trkpt lat="42.76542563302755" lon="13.133858647621304"><ele>840.0</ele><time>2026-04-04T12:21:25Z</time></trkpt><trkpt lat="42.765607537527266" lon="13.134046408697843"><ele>840.0</ele><time>2026-04-04T12:21:26Z</time></trkpt><trkpt lat="42.76579024835972" lon="13.134228984568795"><ele>837.5</ele><time>2026-04-04T12:21:27Z</time></trkpt><trkpt lat="42.765978768326164" lon="13.134398686289877"><ele>835.0</ele><time>2026-04-04T12:21:28Z</time></trkpt><trkpt lat="42.76617667906711" lon="13.134544712192445"><ele>835.0</ele><time>2026-04-04T12:21:29Z</time></trkpt><trkpt lat="42.766372769395666" lon="13.134666674125585"><ele>835.0</ele><time>2026-04-04T12:21:30Z</time></trkpt><trkpt lat="42.766533313394795" lon="13.134773333878977"><ele>835.0</ele><time>2026-04-04T12:21:31Z</time></trkpt><trkpt lat="42.766706945088984" lon="13.134954603437098"><ele>829.0</ele><time>2026-04-04T12:21:32Z</time></trkpt><trkpt lat="42.76688236737451" lon="13.135128296676763"><ele>823.0</ele><time>2026-04-04T12:21:33Z</time></trkpt><trkpt lat="42.76705120281106" lon="13.135292743823696"><ele>817.0</ele><time>2026-04-04T12:21:34Z</time></trkpt><trkpt lat="42.76720127639937" lon="13.135446625158668"><ele>817.0</ele><time>2026-04-04T12:21:35Z</time></trkpt><trkpt lat="42.767283010435364" lon="13.135578895406868"><ele>817.0</ele><time>2026-04-04T12:21:36Z</time></trkpt><trkpt lat="42.76732009536534" lon="13.135734290783983"><ele>817.0</ele><time>2026-04-04T12:21:37Z</time></trkpt><trkpt lat="42.76733404838131" lon="13.135935568451753"><ele>817.0</ele><time>2026-04-04T12:21:38Z</time></trkpt><trkpt lat="42.767343744037106" lon="13.136187475095808"><ele>815.0</ele><time>2026-04-04T12:21:39Z</time></trkpt><trkpt lat="42.767364635514014" lon="13.13644529218949"><ele>813.0</ele><time>2026-04-04T12:21:40Z</time></trkpt><trkpt lat="42.76738528671859" lon="13.136700142427497"><ele>811.0</ele><time>2026-04-04T12:21:41Z</time></trkpt><trkpt lat="42.7674037215037" lon="13.136927640474832"><ele>811.0</ele><time>2026-04-04T12:21:42Z</time></trkpt><trkpt lat="42.76763923709661" lon="13.137093855230768"><ele>811.0</ele><time>2026-04-04T12:21:43Z</time></trkpt><trkpt lat="42.76778737652051" lon="13.137237248956307"><ele>811.0</ele><time>2026-04-04T12:21:44Z</time></trkpt><trkpt lat="42.76796174099288" lon="13.137369068110214"><ele>814.3333333333333</ele><time>2026-04-04T12:21:45Z</time></trkpt><trkpt lat="42.7681478486176" lon="13.137495643548217"><ele>817.6666666666667</ele><time>2026-04-04T12:21:46Z</time></trkpt><trkpt lat="42.7683381961058" lon="13.137634570530585"><ele>821.0</ele><time>2026-04-04T12:21:47Z</time></trkpt><trkpt lat="42.76852452031184" lon="13.137785041203554"><ele>817.3333333333334</ele><time>2026-04-04T12:21:48Z</time></trkpt><trkpt lat="42.76870319005774" lon="13.137932082553982"><ele>813.6666666666667</ele><time>2026-04-04T12:21:49Z</time></trkpt><trkpt lat="42.768886042053246" lon="13.138072256789586"><ele>810.0</ele><time>2026-04-04T12:21:50Z</time></trkpt><trkpt lat="42.76906795398523" lon="13.13818616000104"><ele>812.0</ele><time>2026-04-04T12:21:51Z</time></trkpt><trkpt lat="42.76926084014851" lon="13.138251096538076"><ele>814.0</ele><time>2026-04-04T12:21:52Z</time></trkpt><trkpt lat="42.76944718039227" lon="13.138295061321845"><ele>816.0</ele><time>2026-04-04T12:21:53Z</time></trkpt><trkpt lat="42.76961223285513" lon="13.138352414348628"><ele>816.0</ele><time>2026-04-04T12:21:54Z</time></trkpt><trkpt lat="42.769766092344376" lon="13.138478800730855"><ele>816.0</ele><time>2026-04-04T12:21:55Z</time></trkpt><trkpt lat="42.76991870861726" lon="13.138650837225857"><ele>816.0</ele><time>2026-04-04T12:21:56Z</time></trkpt><trkpt lat="42.77006122050677" lon="13.138846577757699"><ele>815.3333333333333</ele><time>2026-04-04T12:21:57Z</time></trkpt><trkpt lat="42.77019466695244" lon="13.13905506644558"><ele>814.6666666666666</ele><time>2026-04-04T12:21:58Z</time></trkpt><trkpt lat="42.77030970537496" lon="13.139280939461424"><ele>814.0</ele><time>2026-04-04T12:21:59Z</time></trkpt><trkpt lat="42.77041861405852" lon="13.139528874114411"><ele>814.0</ele><time>2026-04-04T12:22:00Z</time></trkpt><trkpt lat="42.77051821509326" lon="13.139771314414233"><ele>814.0</ele><time>2026-04-04T12:22:01Z</time></trkpt><trkpt lat="42.770633047065765" lon="13.139998389105378"><ele>814.0</ele><time>2026-04-04T12:22:02Z</time></trkpt><trkpt lat="42.77075984828164" lon="13.140220399514634"><ele>816.6666666666666</ele><time>2026-04-04T12:22:03Z</time></trkpt><trkpt lat="42.77088615701546" lon="13.140443153733335"><ele>819.3333333333333</ele><time>2026-04-04T12:22:04Z</time></trkpt><trkpt lat="42.771007153768146" lon="13.140674266949036"><ele>822.0</ele><time>2026-04-04T12:22:05Z</time></trkpt><trkpt lat="42.77111125062184" lon="13.140922189669304"><ele>822.0</ele><time>2026-04-04T12:22:06Z</time></trkpt><trkpt lat="42.77118724415305" lon="13.141190305666212"><ele>822.0</ele><time>2026-04-04T12:22:07Z</time></trkpt><trkpt lat="42.77123789838736" lon="13.141465229045622"><ele>822.0</ele><time>2026-04-04T12:22:08Z</time></trkpt><trkpt lat="42.771266005204495" lon="13.141742724724109"><ele>825.0</ele><time>2026-04-04T12:22:09Z</time></trkpt><trkpt lat="42.77126938934643" lon="13.141994351950668"><ele>828.0</ele><time>2026-04-04T12:22:10Z</time></trkpt><trkpt lat="42.771242017387216" lon="13.142236684233175"><ele>831.0</ele><time>2026-04-04T12:22:11Z</time></trkpt><trkpt lat="42.771199284464956" lon="13.142473567229649"><ele>833.6666666666667</ele><time>2026-04-04T12:22:12Z</time></trkpt><trkpt lat="42.77115353446975" lon="13.142699421271097"><ele>836.3333333333334</ele><time>2026-04-04T12:22:13Z</time></trkpt><trkpt lat="42.77110922508345" lon="13.14292084560292"><ele>839.0</ele><time>2026-04-04T12:22:14Z</time></trkpt><trkpt lat="42.771072347214414" lon="13.143122398632359"><ele>840.25</ele><time>2026-04-04T12:22:15Z</time></trkpt><trkpt lat="42.77103486421097" lon="13.143307812198003"><ele>841.5</ele><time>2026-04-04T12:22:16Z</time></trkpt><trkpt lat="42.7709909099185" lon="13.143484040838173"><ele>842.75</ele><time>2026-04-04T12:22:17Z</time></trkpt><trkpt lat="42.770945796329876" lon="13.143633460459212"><ele>844.0</ele><time>2026-04-04T12:22:18Z</time></trkpt><trkpt lat="42.77091352477203" lon="13.143772061711092"><ele>848.0</ele><time>2026-04-04T12:22:19Z</time></trkpt><trkpt lat="42.770919445778" lon="13.14392278525876"><ele>852.0</ele><time>2026-04-04T12:22:20Z</time></trkpt><trkpt lat="42.77096278593442" lon="13.14404198214329"><ele>856.0000000000001</ele><time>2026-04-04T12:22:21Z</time></trkpt><trkpt lat="42.771051157395426" lon="13.144138767175127"><ele>860.0</ele><time>2026-04-04T12:22:23Z</time></trkpt><trkpt lat="42.771145810842036" lon="13.144186378923576"><ele>864.0</ele><time>2026-04-04T12:22:24Z</time></trkpt><trkpt lat="42.77128656139281" lon="13.144213940972215"><ele>864.0</ele><time>2026-04-04T12:22:25Z</time></trkpt><trkpt lat="42.771457133383564" lon="13.14424083115752"><ele>864.0</ele><time>2026-04-04T12:22:26Z</time></trkpt><trkpt lat="42.77167315407429" lon="13.144230032227673"><ele>864.0</ele><time>2026-04-04T12:22:27Z</time></trkpt><trkpt lat="42.77188344592101" lon="13.144232261663872"><ele>864.0</ele><time>2026-04-04T12:22:28Z</time></trkpt><trkpt lat="42.772115631800865" lon="13.144237014974841"><ele>864.0</ele><time>2026-04-04T12:22:29Z</time></trkpt><trkpt lat="42.772360499419456" lon="13.144252842025974"><ele>864.0</ele><time>2026-04-04T12:22:30Z</time></trkpt><trkpt lat="42.77259986569834" lon="13.144252607444011"><ele>864.0</ele><time>2026-04-04T12:22:31Z</time></trkpt><trkpt lat="42.77286167125148" lon="13.14428307533708"><ele>864.0</ele><time>2026-04-04T12:22:32Z</time></trkpt><trkpt lat="42.77311949250119" lon="13.144308343166518"><ele>864.0</ele><time>2026-04-04T12:22:33Z</time></trkpt><trkpt lat="42.77337152694228" lon="13.144372342773837"><ele>866.0</ele><time>2026-04-04T12:22:34Z</time></trkpt><trkpt lat="42.77362770172769" lon="13.144475212315129"><ele>868.0</ele><time>2026-04-04T12:22:35Z</time></trkpt><trkpt lat="42.773861974508414" lon="13.144549571249525"><ele>868.0</ele><time>2026-04-04T12:22:36Z</time></trkpt><trkpt lat="42.77406128044506" lon="13.14458317642216"><ele>868.0</ele><time>2026-04-04T12:22:37Z</time></trkpt><trkpt lat="42.77428643004795" lon="13.14454577932693"><ele>868.0</ele><time>2026-04-04T12:22:38Z</time></trkpt><trkpt lat="42.77450800622428" lon="13.144458086756854"><ele>873.0</ele><time>2026-04-04T12:22:39Z</time></trkpt><trkpt lat="42.77473079616322" lon="13.144340863623215"><ele>878.0</ele><time>2026-04-04T12:22:40Z</time></trkpt><trkpt lat="42.77493344641715" lon="13.144200859089747"><ele>878.0</ele><time>2026-04-04T12:22:41Z</time></trkpt><trkpt lat="42.775121614356685" lon="13.144079615493446"><ele>878.0</ele><time>2026-04-04T12:22:42Z</time></trkpt><trkpt lat="42.775299408490596" lon="13.143982486685212"><ele>878.0</ele><time>2026-04-04T12:22:43Z</time></trkpt><trkpt lat="42.77548009513399" lon="13.143937769924337"><ele>880.6666666666667</ele><time>2026-04-04T12:22:44Z</time></trkpt><trkpt lat="42.77567139182385" lon="13.14397018427993"><ele>883.3333333333333</ele><time>2026-04-04T12:22:45Z</time></trkpt><trkpt lat="42.775874175247665" lon="13.144064171522773"><ele>886.0</ele><time>2026-04-04T12:22:46Z</time></trkpt><trkpt lat="42.77607438977493" lon="13.144191175205162"><ele>886.6666666666666</ele><time>2026-04-04T12:22:47Z</time></trkpt><trkpt lat="42.77626347079107" lon="13.144256546010523"><ele>887.3333333333333</ele><time>2026-04-04T12:22:48Z</time></trkpt><trkpt lat="42.776431301561004" lon="13.144312957477647"><ele>888.0</ele><time>2026-04-04T12:22:49Z</time></trkpt><trkpt lat="42.776594659008" lon="13.144342759225758"><ele>888.0</ele><time>2026-04-04T12:22:50Z</time></trkpt><trkpt lat="42.776775614732756" lon="13.144320269542268"><ele>888.0</ele><time>2026-04-04T12:22:51Z</time></trkpt><trkpt lat="42.77696700213346" lon="13.144263115452947"><ele>888.0</ele><time>2026-04-04T12:22:52Z</time></trkpt><trkpt lat="42.7771498094519" lon="13.144093874358797"><ele>885.3333333333333</ele><time>2026-04-04T12:22:53Z</time></trkpt><trkpt lat="42.777346203818624" lon="13.143979706040291"><ele>882.6666666666666</ele><time>2026-04-04T12:22:54Z</time></trkpt><trkpt lat="42.77753971233385" lon="13.143829865167621"><ele>880.0</ele><time>2026-04-04T12:22:55Z</time></trkpt><trkpt lat="42.777734550112825" lon="13.143671744776148"><ele>892.0</ele><time>2026-04-04T12:22:56Z</time></trkpt><trkpt lat="42.77793397505482" lon="13.143519425343639"><ele>904.0</ele><time>2026-04-04T12:22:57Z</time></trkpt><trkpt lat="42.77813092972405" lon="13.143361237689136"><ele>901.5</ele><time>2026-04-04T12:22:58Z</time></trkpt><trkpt lat="42.778321724520715" lon="13.14319822353963"><ele>899.0</ele><time>2026-04-04T12:22:59Z</time></trkpt><trkpt lat="42.7785192603242" lon="13.143034878632514"><ele>899.0</ele><time>2026-04-04T12:23:00Z</time></trkpt><trkpt lat="42.77870524224642" lon="13.14290182041494"><ele>899.0</ele><time>2026-04-04T12:23:01Z</time></trkpt><trkpt lat="42.77888473715088" lon="13.14279714859739"><ele>899.0</ele><time>2026-04-04T12:23:02Z</time></trkpt><trkpt lat="42.779075441005865" lon="13.14272433480605"><ele>899.0</ele><time>2026-04-04T12:23:03Z</time></trkpt><trkpt lat="42.77927881532459" lon="13.142686029904757"><ele>899.0</ele><time>2026-04-04T12:23:04Z</time></trkpt><trkpt lat="42.77948756790897" lon="13.14268522764939"><ele>899.0</ele><time>2026-04-04T12:23:05Z</time></trkpt><trkpt lat="42.77971351147382" lon="13.142713580779759"><ele>902.0</ele><time>2026-04-04T12:23:06Z</time></trkpt><trkpt lat="42.77993969085295" lon="13.142742652188364"><ele>905.0</ele><time>2026-04-04T12:23:07Z</time></trkpt><trkpt lat="42.780167288795425" lon="13.142751196572412"><ele>909.0</ele><time>2026-04-04T12:23:08Z</time></trkpt><trkpt lat="42.78039427630608" lon="13.142725202453388"><ele>913.0</ele><time>2026-04-04T12:23:09Z</time></trkpt><trkpt lat="42.78061793539674" lon="13.142674229444653"><ele>913.0</ele><time>2026-04-04T12:23:10Z</time></trkpt><trkpt lat="42.78083794279522" lon="13.142597491257243"><ele>913.0</ele><time>2026-04-04T12:23:11Z</time></trkpt><trkpt lat="42.78105447361176" lon="13.1425182370077"><ele>917.6666666666666</ele><time>2026-04-04T12:23:12Z</time></trkpt><trkpt lat="42.781268312794666" lon="13.142449635028141"><ele>922.3333333333333</ele><time>2026-04-04T12:23:13Z</time></trkpt><trkpt lat="42.78148400800106" lon="13.14242087249386"><ele>927.0</ele><time>2026-04-04T12:23:14Z</time></trkpt><trkpt lat="42.781702257323694" lon="13.142414107417032"><ele>924.3333333333333</ele><time>2026-04-04T12:23:15Z</time></trkpt><trkpt lat="42.78190043102528" lon="13.142416039906436"><ele>921.6666666666666</ele><time>2026-04-04T12:23:16Z</time></trkpt><trkpt lat="42.78206904126018" lon="13.142410702197267"><ele>919.0</ele><time>2026-04-04T12:23:17Z</time></trkpt><trkpt lat="42.78221708456441" lon="13.142326804407256"><ele>919.0</ele><time>2026-04-04T12:23:18Z</time></trkpt><trkpt lat="42.78234845189306" lon="13.142159109597392"><ele>919.0</ele><time>2026-04-04T12:23:19Z</time></trkpt><trkpt lat="42.78251156189786" lon="13.142004555324327"><ele>919.0</ele><time>2026-04-04T12:23:20Z</time></trkpt><trkpt lat="42.78268183555325" lon="13.141830675293493"><ele>920.0</ele><time>2026-04-04T12:23:21Z</time></trkpt><trkpt lat="42.78286509853219" lon="13.141658509754302"><ele>921.0</ele><time>2026-04-04T12:23:22Z</time></trkpt><trkpt lat="42.783059548955066" lon="13.141485320951034"><ele>921.0</ele><time>2026-04-04T12:23:23Z</time></trkpt><trkpt lat="42.78325442013027" lon="13.141318782500486"><ele>921.0</ele><time>2026-04-04T12:23:24Z</time></trkpt><trkpt lat="42.783437455511006" lon="13.14118628147465"><ele>921.0</ele><time>2026-04-04T12:23:25Z</time></trkpt><trkpt lat="42.783607610345754" lon="13.141086672597766"><ele>931.0</ele><time>2026-04-04T12:23:26Z</time></trkpt><trkpt lat="42.78376503195867" lon="13.141010262971678"><ele>941.0</ele><time>2026-04-04T12:23:27Z</time></trkpt><trkpt lat="42.78388751813536" lon="13.140909799124792"><ele>951.0</ele><time>2026-04-04T12:23:28Z</time></trkpt><trkpt lat="42.783966203157334" lon="13.140718862592212"><ele>945.6666666666667</ele><time>2026-04-04T12:23:29Z</time></trkpt><trkpt lat="42.784030286926615" lon="13.140478244380875"><ele>940.3333333333334</ele><time>2026-04-04T12:23:30Z</time></trkpt><trkpt lat="42.784127049921054" lon="13.140256992272688"><ele>935.0</ele><time>2026-04-04T12:23:31Z</time></trkpt><trkpt lat="42.78425424129228" lon="13.14002178482274"><ele>942.5</ele><time>2026-04-04T12:23:32Z</time></trkpt><trkpt lat="42.78440539144937" lon="13.139778794346396"><ele>950.0</ele><time>2026-04-04T12:23:33Z</time></trkpt><trkpt lat="42.784561635843254" lon="13.139541115928878"><ele>950.0</ele><time>2026-04-04T12:23:34Z</time></trkpt><trkpt lat="42.78472329051764" lon="13.139304549472277"><ele>950.0</ele><time>2026-04-04T12:23:35Z</time></trkpt><trkpt lat="42.78489022182449" lon="13.13907973333151"><ele>954.5</ele><time>2026-04-04T12:23:36Z</time></trkpt><trkpt lat="42.78506783499816" lon="13.138865444955284"><ele>959.0</ele><time>2026-04-04T12:23:37Z</time></trkpt><trkpt lat="42.785253365251116" lon="13.138656373714936"><ele>959.0</ele><time>2026-04-04T12:23:38Z</time></trkpt><trkpt lat="42.78543802411512" lon="13.138454119881061"><ele>959.0</ele><time>2026-04-04T12:23:39Z</time></trkpt><trkpt lat="42.78562697274325" lon="13.138258023688053"><ele>961.0</ele><time>2026-04-04T12:23:40Z</time></trkpt><trkpt lat="42.78581975148949" lon="13.138065420879776"><ele>963.0</ele><time>2026-04-04T12:23:41Z</time></trkpt><trkpt lat="42.786017990903154" lon="13.137882443151247"><ele>963.0</ele><time>2026-04-04T12:23:42Z</time></trkpt><trkpt lat="42.78621980943881" lon="13.13770485862171"><ele>963.0</ele><time>2026-04-04T12:23:43Z</time></trkpt><trkpt lat="42.786421022822495" lon="13.137529109345452"><ele>946.5</ele><time>2026-04-04T12:23:44Z</time></trkpt><trkpt lat="42.786626281512" lon="13.137359588044028"><ele>930.0</ele><time>2026-04-04T12:23:45Z</time></trkpt><trkpt lat="42.78683169946158" lon="13.137206647409315"><ele>942.5</ele><time>2026-04-04T12:23:46Z</time></trkpt><trkpt lat="42.787040372934044" lon="13.13706079843685"><ele>955.0</ele><time>2026-04-04T12:23:47Z</time></trkpt><trkpt lat="42.787241316231885" lon="13.136929096574953"><ele>955.0</ele><time>2026-04-04T12:23:48Z</time></trkpt><trkpt lat="42.78743337272857" lon="13.136820111018084"><ele>955.0</ele><time>2026-04-04T12:23:49Z</time></trkpt><trkpt lat="42.78763471416435" lon="13.136706418471386"><ele>955.0</ele><time>2026-04-04T12:23:50Z</time></trkpt><trkpt lat="42.78783214707027" lon="13.13657411672576"><ele>946.0</ele><time>2026-04-04T12:23:51Z</time></trkpt><trkpt lat="42.788055998017086" lon="13.136495460299763"><ele>937.0</ele><time>2026-04-04T12:23:52Z</time></trkpt><trkpt lat="42.78827923772818" lon="13.136423262979347"><ele>937.0</ele><time>2026-04-04T12:23:53Z</time></trkpt><trkpt lat="42.78850794123753" lon="13.136353599687384"><ele>937.0</ele><time>2026-04-04T12:23:54Z</time></trkpt><trkpt lat="42.788743141348114" lon="13.136288731903884"><ele>941.6666666666666</ele><time>2026-04-04T12:23:55Z</time></trkpt><trkpt lat="42.78896883098743" lon="13.136231392011016"><ele>946.3333333333333</ele><time>2026-04-04T12:23:56Z</time></trkpt><trkpt lat="42.789177225114166" lon="13.136186591267036"><ele>951.0</ele><time>2026-04-04T12:23:57Z</time></trkpt><trkpt lat="42.78936973973161" lon="13.136163005665347"><ele>952.3333333333333</ele><time>2026-04-04T12:23:58Z</time></trkpt><trkpt lat="42.78953608429282" lon="13.136149071464304"><ele>953.6666666666666</ele><time>2026-04-04T12:23:59Z</time></trkpt><trkpt lat="42.78970769178062" lon="13.136182392830587"><ele>955.0</ele><time>2026-04-04T12:24:00Z</time></trkpt><trkpt lat="42.78987612686234" lon="13.13625923594903"><ele>955.0</ele><time>2026-04-04T12:24:01Z</time></trkpt><trkpt lat="42.79003982289793" lon="13.136335425446534"><ele>955.0</ele><time>2026-04-04T12:24:02Z</time></trkpt><trkpt lat="42.79020065099842" lon="13.136362895268842"><ele>955.0</ele><time>2026-04-04T12:24:03Z</time></trkpt><trkpt lat="42.79033946180939" lon="13.136329307404116"><ele>962.6666666666666</ele><time>2026-04-04T12:24:04Z</time></trkpt><trkpt lat="42.79044531404091" lon="13.136242073577234"><ele>970.3333333333333</ele><time>2026-04-04T12:24:05Z</time></trkpt><trkpt lat="42.790583129783855" lon="13.136072138442092"><ele>978.0</ele><time>2026-04-04T12:24:06Z</time></trkpt><trkpt lat="42.790701972105836" lon="13.135876464463456"><ele>977.0</ele><time>2026-04-04T12:24:07Z</time></trkpt><trkpt lat="42.790819833267065" lon="13.135680530757977"><ele>976.0</ele><time>2026-04-04T12:24:08Z</time></trkpt><trkpt lat="42.79094635362774" lon="13.135507200318115"><ele>975.0</ele><time>2026-04-04T12:24:09Z</time></trkpt><trkpt lat="42.79108698283535" lon="13.135375703319536"><ele>975.0</ele><time>2026-04-04T12:24:10Z</time></trkpt><trkpt lat="42.79125359429451" lon="13.135277567430686"><ele>975.0</ele><time>2026-04-04T12:24:11Z</time></trkpt><trkpt lat="42.79144641880212" lon="13.135206296699296"><ele>975.0</ele><time>2026-04-04T12:24:12Z</time></trkpt><trkpt lat="42.79165006141613" lon="13.135151085358647"><ele>975.0</ele><time>2026-04-04T12:24:13Z</time></trkpt><trkpt lat="42.791837905208986" lon="13.135123775332017"><ele>975.0</ele><time>2026-04-04T12:24:14Z</time></trkpt><trkpt lat="42.79200238732738" lon="13.135099098935806"><ele>975.0</ele><time>2026-04-04T12:24:15Z</time></trkpt><trkpt lat="42.79214537403086" lon="13.135032613135913"><ele>972.3333333333333</ele><time>2026-04-04T12:24:16Z</time></trkpt><trkpt lat="42.79225792530361" lon="13.13489820582604"><ele>969.6666666666666</ele><time>2026-04-04T12:24:17Z</time></trkpt><trkpt lat="42.79236162676593" lon="13.134729179682592"><ele>967.0</ele><time>2026-04-04T12:24:18Z</time></trkpt><trkpt lat="42.792500370733336" lon="13.134605555123864"><ele>967.0</ele><time>2026-04-04T12:24:19Z</time></trkpt><trkpt lat="42.792666365947035" lon="13.13449842164803"><ele>967.0</ele><time>2026-04-04T12:24:20Z</time></trkpt><trkpt lat="42.7928395858387" lon="13.13438609285256"><ele>967.0</ele><time>2026-04-04T12:24:21Z</time></trkpt><trkpt lat="42.79302141497216" lon="13.134274084449396"><ele>966.3333333333333</ele><time>2026-04-04T12:24:22Z</time></trkpt><trkpt lat="42.79321116098008" lon="13.134160559162492"><ele>965.6666666666667</ele><time>2026-04-04T12:24:23Z</time></trkpt><trkpt lat="42.79340105601132" lon="13.134034193209802"><ele>965.0</ele><time>2026-04-04T12:24:24Z</time></trkpt><trkpt lat="42.79358588380473" lon="13.13388489098912"><ele>974.6666666666667</ele><time>2026-04-04T12:24:25Z</time></trkpt><trkpt lat="42.79376620466011" lon="13.133728994213874"><ele>984.3333333333333</ele><time>2026-04-04T12:24:26Z</time></trkpt><trkpt lat="42.79395038354803" lon="13.133584907014004"><ele>994.0</ele><time>2026-04-04T12:24:27Z</time></trkpt><trkpt lat="42.79414859806368" lon="13.133470181589143"><ele>990.6666666666666</ele><time>2026-04-04T12:24:28Z</time></trkpt><trkpt lat="42.794353644197216" lon="13.133370707248385"><ele>987.3333333333333</ele><time>2026-04-04T12:24:29Z</time></trkpt><trkpt lat="42.79455897786221" lon="13.133265264582699"><ele>984.0</ele><time>2026-04-04T12:24:30Z</time></trkpt><trkpt lat="42.79476014317711" lon="13.13314266320435"><ele>984.0</ele><time>2026-04-04T12:24:31Z</time></trkpt><trkpt lat="42.794952790982876" lon="13.13300221675868"><ele>984.0</ele><time>2026-04-04T12:24:32Z</time></trkpt><trkpt lat="42.795131474940334" lon="13.132851824297587"><ele>984.0</ele><time>2026-04-04T12:24:33Z</time></trkpt><trkpt lat="42.795287877000234" lon="13.132722097758945"><ele>988.2</ele><time>2026-04-04T12:24:34Z</time></trkpt><trkpt lat="42.79541356039219" lon="13.132643592230218"><ele>992.4000000000001</ele><time>2026-04-04T12:24:35Z</time></trkpt><trkpt lat="42.79550061198478" lon="13.132601759895714"><ele>996.6</ele><time>2026-04-04T12:24:36Z</time></trkpt><trkpt lat="42.795571876747054" lon="13.132599473539008"><ele>1000.8</ele><time>2026-04-04T12:24:37Z</time></trkpt><trkpt lat="42.79563931578794" lon="13.132731370355984"><ele>1005.0</ele><time>2026-04-04T12:24:39Z</time></trkpt><trkpt lat="42.795611679713" lon="13.132827859293915"><ele>1005.0</ele><time>2026-04-04T12:24:40Z</time></trkpt><trkpt lat="42.795519107900034" lon="13.132897881753872"><ele>1005.0</ele><time>2026-04-04T12:24:41Z</time></trkpt><trkpt lat="42.79538826723294" lon="13.132964199071246"><ele>1005.0</ele><time>2026-04-04T12:24:42Z</time></trkpt><trkpt lat="42.795241230639355" lon="13.133052442586282"><ele>1005.0</ele><time>2026-04-04T12:24:43Z</time></trkpt><trkpt lat="42.795085594944794" lon="13.133190235758802"><ele>1008.0</ele><time>2026-04-04T12:24:44Z</time></trkpt><trkpt lat="42.79491977307413" lon="13.133342135513992"><ele>1011.0</ele><time>2026-04-04T12:24:45Z</time></trkpt><trkpt lat="42.79472927375451" lon="13.133492229584409"><ele>1014.0</ele><time>2026-04-04T12:24:46Z</time></trkpt><trkpt lat="42.79452479819621" lon="13.133638729711576"><ele>1018.3333333333333</ele><time>2026-04-04T12:24:47Z</time></trkpt><trkpt lat="42.79432688385459" lon="13.133781189522063"><ele>1022.6666666666666</ele><time>2026-04-04T12:24:48Z</time></trkpt><trkpt lat="42.79413905071713" lon="13.133916761821064"><ele>1027.0</ele><time>2026-04-04T12:24:49Z</time></trkpt><trkpt lat="42.79396652756828" lon="13.13409588424773"><ele>1027.0</ele><time>2026-04-04T12:24:50Z</time></trkpt><trkpt lat="42.79381306373033" lon="13.13432534450819"><ele>1027.0</ele><time>2026-04-04T12:24:51Z</time></trkpt><trkpt lat="42.79363707578463" lon="13.134529566920664"><ele>1012.5</ele><time>2026-04-04T12:24:52Z</time></trkpt><trkpt lat="42.79343825519141" lon="13.134694457756124"><ele>998.0</ele><time>2026-04-04T12:24:53Z</time></trkpt><trkpt lat="42.793244557688155" lon="13.134873063311396"><ele>1010.6666666666667</ele><time>2026-04-04T12:24:54Z</time></trkpt><trkpt lat="42.79306511726193" lon="13.135050392877313"><ele>1023.3333333333333</ele><time>2026-04-04T12:24:55Z</time></trkpt><trkpt lat="42.79290091706481" lon="13.135229167831028"><ele>1036.0</ele><time>2026-04-04T12:24:56Z</time></trkpt><trkpt lat="42.79275467541449" lon="13.135403997215422"><ele>1036.3333333333333</ele><time>2026-04-04T12:24:57Z</time></trkpt><trkpt lat="42.79265153711814" lon="13.135602793468204"><ele>1036.6666666666667</ele><time>2026-04-04T12:24:58Z</time></trkpt><trkpt lat="42.79256258440077" lon="13.135785709884608"><ele>1037.0</ele><time>2026-04-04T12:24:59Z</time></trkpt><trkpt lat="42.792410691028394" lon="13.135874641303769"><ele>1037.0</ele><time>2026-04-04T12:25:00Z</time></trkpt><trkpt lat="42.79222679071765" lon="13.135974217672073"><ele>1037.0</ele><time>2026-04-04T12:25:01Z</time></trkpt><trkpt lat="42.792030514699654" lon="13.13609365715715"><ele>1037.0</ele><time>2026-04-04T12:25:02Z</time></trkpt><trkpt lat="42.7918569147111" lon="13.136181392568785"><ele>1040.0</ele><time>2026-04-04T12:25:03Z</time></trkpt><trkpt lat="42.79170237859926" lon="13.136295746530825"><ele>1043.0</ele><time>2026-04-04T12:25:04Z</time></trkpt><trkpt lat="42.791566819281606" lon="13.136437491036455"><ele>1046.0</ele><time>2026-04-04T12:25:05Z</time></trkpt><trkpt lat="42.791441591328095" lon="13.136682907728977"><ele>1046.0</ele><time>2026-04-04T12:25:06Z</time></trkpt><trkpt lat="42.79132317139172" lon="13.136950713057386"><ele>1046.0</ele><time>2026-04-04T12:25:07Z</time></trkpt><trkpt lat="42.79120443671844" lon="13.137192327115734"><ele>1046.0</ele><time>2026-04-04T12:25:08Z</time></trkpt><trkpt lat="42.79105686497508" lon="13.137418854627915"><ele>1045.5</ele><time>2026-04-04T12:25:09Z</time></trkpt><trkpt lat="42.79094048569771" lon="13.137609675002805"><ele>1045.0</ele><time>2026-04-04T12:25:10Z</time></trkpt><trkpt lat="42.79085218318231" lon="13.137754283175516"><ele>1044.5</ele><time>2026-04-04T12:25:11Z</time></trkpt><trkpt lat="42.7907731069665" lon="13.137855389282986"><ele>1044.0</ele><time>2026-04-04T12:25:12Z</time></trkpt><trkpt lat="42.79066594263645" lon="13.137937136025764"><ele>1044.0</ele><time>2026-04-04T12:25:13Z</time></trkpt><trkpt lat="42.790534929388954" lon="13.137878158770567"><ele>1044.0</ele><time>2026-04-04T12:25:14Z</time></trkpt><trkpt lat="42.79036355769624" lon="13.137851623568427"><ele>1044.0</ele><time>2026-04-04T12:25:15Z</time></trkpt><trkpt lat="42.79016991236482" lon="13.13786770369555"><ele>1039.6666666666667</ele><time>2026-04-04T12:25:16Z</time></trkpt><trkpt lat="42.78998108904827" lon="13.137949794780452"><ele>1035.3333333333335</ele><time>2026-04-04T12:25:17Z</time></trkpt><trkpt lat="42.78981116823811" lon="13.137984091490566"><ele>1031.0</ele><time>2026-04-04T12:25:18Z</time></trkpt><trkpt lat="42.78963655476253" lon="13.137918654357932"><ele>1031.0</ele><time>2026-04-04T12:25:19Z</time></trkpt><trkpt lat="42.78942655463693" lon="13.137900708989582"><ele>1031.0</ele><time>2026-04-04T12:25:20Z</time></trkpt><trkpt lat="42.78923612340965" lon="13.137914321520347"><ele>1031.0</ele><time>2026-04-04T12:25:21Z</time></trkpt><trkpt lat="42.78905683711685" lon="13.138019492484803"><ele>1031.0</ele><time>2026-04-04T12:25:22Z</time></trkpt><trkpt lat="42.78888777768051" lon="13.13815872459396"><ele>1031.0</ele><time>2026-04-04T12:25:23Z</time></trkpt><trkpt lat="42.78872342132354" lon="13.138279903210858"><ele>1031.0</ele><time>2026-04-04T12:25:24Z</time></trkpt><trkpt lat="42.788574753546904" lon="13.138410792381832"><ele>1037.3333333333335</ele><time>2026-04-04T12:25:25Z</time></trkpt><trkpt lat="42.788437587016574" lon="13.1385170017324"><ele>1043.6666666666667</ele><time>2026-04-04T12:25:26Z</time></trkpt><trkpt lat="42.78830173840618" lon="13.138624387656678"><ele>1050.0</ele><time>2026-04-04T12:25:27Z</time></trkpt><trkpt lat="42.78816508484218" lon="13.138734925093562"><ele>1050.0</ele><time>2026-04-04T12:25:28Z</time></trkpt><trkpt lat="42.78803483515508" lon="13.138857614806877"><ele>1050.0</ele><time>2026-04-04T12:25:29Z</time></trkpt><trkpt lat="42.78789997742278" lon="13.138991968835402"><ele>1050.0</ele><time>2026-04-04T12:25:30Z</time></trkpt><trkpt lat="42.787782026591806" lon="13.139128143976395"><ele>1051.6666666666667</ele><time>2026-04-04T12:25:31Z</time></trkpt><trkpt lat="42.78765742906219" lon="13.139304172205879"><ele>1053.3333333333335</ele><time>2026-04-04T12:25:32Z</time></trkpt><trkpt lat="42.787544487818934" lon="13.139476845414867"><ele>1055.0</ele><time>2026-04-04T12:25:33Z</time></trkpt><trkpt lat="42.787428775315725" lon="13.139652290183626"><ele>1055.0</ele><time>2026-04-04T12:25:34Z</time></trkpt><trkpt lat="42.78734203343571" lon="13.139818687528528"><ele>1055.0</ele><time>2026-04-04T12:25:35Z</time></trkpt><trkpt lat="42.78722319511503" lon="13.140046181765003"><ele>1055.0</ele><time>2026-04-04T12:25:36Z</time></trkpt><trkpt lat="42.78712930144011" lon="13.14023301911083"><ele>1066.6666666666667</ele><time>2026-04-04T12:25:37Z</time></trkpt><trkpt lat="42.787036291409045" lon="13.140421176503729"><ele>1078.3333333333333</ele><time>2026-04-04T12:25:38Z</time></trkpt><trkpt lat="42.78694499936575" lon="13.140605935896371"><ele>1090.0</ele><time>2026-04-04T12:25:39Z</time></trkpt><trkpt lat="42.78685440722961" lon="13.140798288389654"><ele>1083.6666666666665</ele><time>2026-04-04T12:25:40Z</time></trkpt><trkpt lat="42.786768149339984" lon="13.140994688224586"><ele>1077.3333333333333</ele><time>2026-04-04T12:25:41Z</time></trkpt><trkpt lat="42.786684086630565" lon="13.141197619766233"><ele>1071.0</ele><time>2026-04-04T12:25:42Z</time></trkpt><trkpt lat="42.78660239941523" lon="13.141413210946391"><ele>1076.0</ele><time>2026-04-04T12:25:43Z</time></trkpt><trkpt lat="42.78653673137616" lon="13.141633589259515"><ele>1081.0</ele><time>2026-04-04T12:25:44Z</time></trkpt><trkpt lat="42.78648547829019" lon="13.141871369040969"><ele>1086.0</ele><time>2026-04-04T12:25:45Z</time></trkpt><trkpt lat="42.78644365892067" lon="13.14211575433924"><ele>1086.0</ele><time>2026-04-04T12:25:46Z</time></trkpt><trkpt lat="42.78640860975276" lon="13.142360930015194"><ele>1086.0</ele><time>2026-04-04T12:25:47Z</time></trkpt><trkpt lat="42.78638526434107" lon="13.142609919668317"><ele>1086.0</ele><time>2026-04-04T12:25:48Z</time></trkpt><trkpt lat="42.786369710111494" lon="13.142861471105054"><ele>1090.0</ele><time>2026-04-04T12:25:49Z</time></trkpt><trkpt lat="42.78636463110115" lon="13.143102629135061"><ele>1094.0</ele><time>2026-04-04T12:25:50Z</time></trkpt><trkpt lat="42.786361250075736" lon="13.143330181673916"><ele>1098.0</ele><time>2026-04-04T12:25:51Z</time></trkpt><trkpt lat="42.78633932288211" lon="13.143555265679952"><ele>1102.3333333333333</ele><time>2026-04-04T12:25:52Z</time></trkpt><trkpt lat="42.78626329898609" lon="13.143750679063166"><ele>1106.6666666666665</ele><time>2026-04-04T12:25:53Z</time></trkpt><trkpt lat="42.78621361280423" lon="13.143956203057273"><ele>1111.0</ele><time>2026-04-04T12:25:54Z</time></trkpt><trkpt lat="42.786166368478135" lon="13.144154369594407"><ele>1113.5</ele><time>2026-04-04T12:25:55Z</time></trkpt><trkpt lat="42.786108485400874" lon="13.144347756628658"><ele>1116.0</ele><time>2026-04-04T12:25:56Z</time></trkpt><trkpt lat="42.78607903454524" lon="13.144543453253739"><ele>1118.5</ele><time>2026-04-04T12:25:57Z</time></trkpt><trkpt lat="42.78604928081974" lon="13.144735628376278"><ele>1121.0</ele><time>2026-04-04T12:25:58Z</time></trkpt><trkpt lat="42.78601685027115" lon="13.144914583168452"><ele>1115.6</ele><time>2026-04-04T12:25:59Z</time></trkpt><trkpt lat="42.78598792442389" lon="13.145070369396532"><ele>1110.1999999999998</ele><time>2026-04-04T12:26:00Z</time></trkpt><trkpt lat="42.7859567701719" lon="13.145208207740328"><ele>1104.8000000000002</ele><time>2026-04-04T12:26:01Z</time></trkpt><trkpt lat="42.785905551505785" lon="13.145323370855468"><ele>1099.4</ele><time>2026-04-04T12:26:02Z</time></trkpt><trkpt lat="42.78580583779493" lon="13.14537241477484"><ele>1094.0</ele><time>2026-04-04T12:26:03Z</time></trkpt><trkpt lat="42.78569955172311" lon="13.145365679479793"><ele>1094.0</ele><time>2026-04-04T12:26:04Z</time></trkpt><trkpt lat="42.78557756896784" lon="13.145359840579847"><ele>1094.0</ele><time>2026-04-04T12:26:05Z</time></trkpt><trkpt lat="42.78543128154756" lon="13.145416221884895"><ele>1094.0</ele><time>2026-04-04T12:26:06Z</time></trkpt><trkpt lat="42.7852959069164" lon="13.145515822998213"><ele>1094.0</ele><time>2026-04-04T12:26:07Z</time></trkpt><trkpt lat="42.78516850523651" lon="13.145629355300839"><ele>1095.25</ele><time>2026-04-04T12:26:08Z</time></trkpt><trkpt lat="42.78506467009542" lon="13.145748481739806"><ele>1096.5</ele><time>2026-04-04T12:26:09Z</time></trkpt><trkpt lat="42.78496551722472" lon="13.145892707917106"><ele>1097.75</ele><time>2026-04-04T12:26:10Z</time></trkpt><trkpt lat="42.78488058079066" lon="13.146054572640274"><ele>1099.0</ele><time>2026-04-04T12:26:11Z</time></trkpt><trkpt lat="42.78478686942496" lon="13.146206639118393"><ele>1099.0</ele><time>2026-04-04T12:26:12Z</time></trkpt><trkpt lat="42.78467943222753" lon="13.146353277847693"><ele>1099.0</ele><time>2026-04-04T12:26:13Z</time></trkpt><trkpt lat="42.784554174628575" lon="13.146483280905201"><ele>1099.0</ele><time>2026-04-04T12:26:14Z</time></trkpt><trkpt lat="42.784432560384815" lon="13.146613865380068"><ele>1101.75</ele><time>2026-04-04T12:26:15Z</time></trkpt><trkpt lat="42.78431273731896" lon="13.146712724100533"><ele>1104.5</ele><time>2026-04-04T12:26:16Z</time></trkpt><trkpt lat="42.784178046297015" lon="13.146770717993391"><ele>1107.25</ele><time>2026-04-04T12:26:17Z</time></trkpt><trkpt lat="42.78403274585634" lon="13.146783935911426"><ele>1110.0</ele><time>2026-04-04T12:26:18Z</time></trkpt><trkpt lat="42.78387832242061" lon="13.146801562660698"><ele>1110.0</ele><time>2026-04-04T12:26:19Z</time></trkpt><trkpt lat="42.78371473595899" lon="13.146796977079337"><ele>1110.0</ele><time>2026-04-04T12:26:20Z</time></trkpt><trkpt lat="42.78355207680076" lon="13.146813896080197"><ele>1110.0</ele><time>2026-04-04T12:26:21Z</time></trkpt><trkpt lat="42.783374952022186" lon="13.146885241256959"><ele>1107.6666666666667</ele><time>2026-04-04T12:26:22Z</time></trkpt><trkpt lat="42.783222245259175" lon="13.146945213504148"><ele>1105.3333333333335</ele><time>2026-04-04T12:26:23Z</time></trkpt><trkpt lat="42.783066484847225" lon="13.1470150241934"><ele>1103.0</ele><time>2026-04-04T12:26:24Z</time></trkpt><trkpt lat="42.78291137100535" lon="13.147083341277254"><ele>1103.0</ele><time>2026-04-04T12:26:25Z</time></trkpt><trkpt lat="42.78275359587836" lon="13.147173534182592"><ele>1103.0</ele><time>2026-04-04T12:26:26Z</time></trkpt><trkpt lat="42.782586363162814" lon="13.147249126644052"><ele>1103.0</ele><time>2026-04-04T12:26:27Z</time></trkpt><trkpt lat="42.7824216323339" lon="13.147349784965195"><ele>1110.6666666666667</ele><time>2026-04-04T12:26:28Z</time></trkpt><trkpt lat="42.782266897030155" lon="13.147447998886594"><ele>1118.3333333333333</ele><time>2026-04-04T12:26:29Z</time></trkpt><trkpt lat="42.7821344470679" lon="13.147533069187624"><ele>1126.0</ele><time>2026-04-04T12:26:30Z</time></trkpt><trkpt lat="42.78197277898634" lon="13.147638250833527"><ele>1119.6666666666665</ele><time>2026-04-04T12:26:31Z</time></trkpt><trkpt lat="42.781823651457096" lon="13.14775353988966"><ele>1113.3333333333333</ele><time>2026-04-04T12:26:32Z</time></trkpt><trkpt lat="42.78166572493849" lon="13.147857952937013"><ele>1107.0</ele><time>2026-04-04T12:26:33Z</time></trkpt><trkpt lat="42.78150699875352" lon="13.147975459510294"><ele>1107.0</ele><time>2026-04-04T12:26:34Z</time></trkpt><trkpt lat="42.78134795708672" lon="13.148095463949682"><ele>1107.0</ele><time>2026-04-04T12:26:35Z</time></trkpt><trkpt lat="42.78119410213726" lon="13.148226825029296"><ele>1107.0</ele><time>2026-04-04T12:26:36Z</time></trkpt><trkpt lat="42.78103868383539" lon="13.148375784399823"><ele>1113.6666666666667</ele><time>2026-04-04T12:26:37Z</time></trkpt><trkpt lat="42.7808995458674" lon="13.148530626032723"><ele>1120.3333333333335</ele><time>2026-04-04T12:26:38Z</time></trkpt><trkpt lat="42.78077678932332" lon="13.148694054477824"><ele>1127.0</ele><time>2026-04-04T12:26:39Z</time></trkpt><trkpt lat="42.78061738053541" lon="13.148806324738308"><ele>1127.0</ele><time>2026-04-04T12:26:40Z</time></trkpt><trkpt lat="42.78045110912622" lon="13.148897122598438"><ele>1127.0</ele><time>2026-04-04T12:26:41Z</time></trkpt><trkpt lat="42.78028249364811" lon="13.148988673883169"><ele>1127.0</ele><time>2026-04-04T12:26:42Z</time></trkpt><trkpt lat="42.780121101747184" lon="13.149095260457456"><ele>1131.6666666666667</ele><time>2026-04-04T12:26:43Z</time></trkpt><trkpt lat="42.77996852414835" lon="13.149219086068735"><ele>1136.3333333333333</ele><time>2026-04-04T12:26:44Z</time></trkpt><trkpt lat="42.779813463196106" lon="13.14933086680205"><ele>1141.0</ele><time>2026-04-04T12:26:45Z</time></trkpt><trkpt lat="42.7796467076964" lon="13.149429015430114"><ele>1141.0</ele><time>2026-04-04T12:26:46Z</time></trkpt><trkpt lat="42.779480215767514" lon="13.14949288871958"><ele>1141.0</ele><time>2026-04-04T12:26:47Z</time></trkpt><trkpt lat="42.77932192518297" lon="13.149577363118224"><ele>1141.0</ele><time>2026-04-04T12:26:48Z</time></trkpt><trkpt lat="42.77917045369427" lon="13.149705946926634"><ele>1136.0</ele><time>2026-04-04T12:26:49Z</time></trkpt><trkpt lat="42.779020130484476" lon="13.149843732223015"><ele>1131.0</ele><time>2026-04-04T12:26:50Z</time></trkpt><trkpt lat="42.77887323156258" lon="13.149988153336789"><ele>1126.0</ele><time>2026-04-04T12:26:51Z</time></trkpt><trkpt lat="42.7787315470678" lon="13.150131603541082"><ele>1129.3333333333333</ele><time>2026-04-04T12:26:52Z</time></trkpt><trkpt lat="42.77859266356177" lon="13.15027640723824"><ele>1132.6666666666667</ele><time>2026-04-04T12:26:53Z</time></trkpt><trkpt lat="42.77845682030359" lon="13.15042622365805"><ele>1136.0</ele><time>2026-04-04T12:26:54Z</time></trkpt><trkpt lat="42.77833083595444" lon="13.150589693642827"><ele>1145.0</ele><time>2026-04-04T12:26:55Z</time></trkpt><trkpt lat="42.778209555986905" lon="13.150760486976573"><ele>1154.0</ele><time>2026-04-04T12:26:56Z</time></trkpt><trkpt lat="42.778088347698045" lon="13.150929049104104"><ele>1163.0</ele><time>2026-04-04T12:26:57Z</time></trkpt><trkpt lat="42.77796646908629" lon="13.151094112830117"><ele>1163.0</ele><time>2026-04-04T12:26:58Z</time></trkpt><trkpt lat="42.77784406970419" lon="13.151261578162606"><ele>1163.0</ele><time>2026-04-04T12:26:59Z</time></trkpt><trkpt lat="42.777726433593294" lon="13.151439145236694"><ele>1163.0</ele><time>2026-04-04T12:27:00Z</time></trkpt><trkpt lat="42.77761417987684" lon="13.151620197584794"><ele>1160.0</ele><time>2026-04-04T12:27:01Z</time></trkpt><trkpt lat="42.777493477168505" lon="13.151793072648108"><ele>1157.0</ele><time>2026-04-04T12:27:02Z</time></trkpt><trkpt lat="42.77740914197281" lon="13.151976307312397"><ele>1154.0</ele><time>2026-04-04T12:27:03Z</time></trkpt><trkpt lat="42.77732259183053" lon="13.15213370549126"><ele>1154.0</ele><time>2026-04-04T12:27:04Z</time></trkpt><trkpt lat="42.777248000288104" lon="13.152262967564084"><ele>1154.0</ele><time>2026-04-04T12:27:05Z</time></trkpt><trkpt lat="42.77717237758041" lon="13.15236929499694"><ele>1154.0</ele><time>2026-04-04T12:27:06Z</time></trkpt><trkpt lat="42.77707749793202" lon="13.152417051653092"><ele>1154.0</ele><time>2026-04-04T12:27:07Z</time></trkpt><trkpt lat="42.77699119458724" lon="13.152391629625678"><ele>1154.0</ele><time>2026-04-04T12:27:08Z</time></trkpt><trkpt lat="42.776910334128225" lon="13.152330581990903"><ele>1152.0</ele><time>2026-04-04T12:27:09Z</time></trkpt><trkpt lat="42.776823452750556" lon="13.1522411189129"><ele>1150.0</ele><time>2026-04-04T12:27:10Z</time></trkpt><trkpt lat="42.77674769226792" lon="13.152114893600034"><ele>1148.0</ele><time>2026-04-04T12:27:11Z</time></trkpt><trkpt lat="42.77667831348609" lon="13.151984488410909"><ele>1146.0</ele><time>2026-04-04T12:27:12Z</time></trkpt><trkpt lat="42.77660299209569" lon="13.15184984962755"><ele>1146.0</ele><time>2026-04-04T12:27:13Z</time></trkpt><trkpt lat="42.776518261179376" lon="13.1517260251897"><ele>1146.0</ele><time>2026-04-04T12:27:14Z</time></trkpt><trkpt lat="42.77640142609653" lon="13.151649638428948"><ele>1146.0</ele><time>2026-04-04T12:27:15Z</time></trkpt><trkpt lat="42.77627573216007" lon="13.151599317132074"><ele>1146.0</ele><time>2026-04-04T12:27:16Z</time></trkpt><trkpt lat="42.77615420527764" lon="13.151526314406476"><ele>1145.75</ele><time>2026-04-04T12:27:17Z</time></trkpt><trkpt lat="42.77603381747089" lon="13.151455644739297"><ele>1145.5</ele><time>2026-04-04T12:27:18Z</time></trkpt><trkpt lat="42.775908846316156" lon="13.151383231059306"><ele>1145.25</ele><time>2026-04-04T12:27:19Z</time></trkpt><trkpt lat="42.77578091642326" lon="13.15132287417597"><ele>1145.0</ele><time>2026-04-04T12:27:20Z</time></trkpt><trkpt lat="42.775666444475156" lon="13.151228017919802"><ele>1145.0</ele><time>2026-04-04T12:27:21Z</time></trkpt><trkpt lat="42.775552915422985" lon="13.15112743894148"><ele>1145.0</ele><time>2026-04-04T12:27:22Z</time></trkpt><trkpt lat="42.7754383819851" lon="13.15105738932622"><ele>1145.0</ele><time>2026-04-04T12:27:23Z</time></trkpt><trkpt lat="42.77533602394036" lon="13.15097280385232"><ele>1145.0</ele><time>2026-04-04T12:27:24Z</time></trkpt><trkpt lat="42.77521634836784" lon="13.15095043245165"><ele>1150.25</ele><time>2026-04-04T12:27:25Z</time></trkpt><trkpt lat="42.77507936825809" lon="13.150979247979963"><ele>1155.5</ele><time>2026-04-04T12:27:26Z</time></trkpt><trkpt lat="42.77493671543855" lon="13.150973216931012"><ele>1160.75</ele><time>2026-04-04T12:27:27Z</time></trkpt><trkpt lat="42.77480076338186" lon="13.150943391054613"><ele>1166.0</ele><time>2026-04-04T12:27:28Z</time></trkpt><trkpt lat="42.774677389369934" lon="13.15093809709436"><ele>1166.0</ele><time>2026-04-04T12:27:29Z</time></trkpt><trkpt lat="42.7745375539556" lon="13.150966038388237"><ele>1166.0</ele><time>2026-04-04T12:27:30Z</time></trkpt><trkpt lat="42.77441905369517" lon="13.15101230988903"><ele>1166.0</ele><time>2026-04-04T12:27:31Z</time></trkpt><trkpt lat="42.77429825029414" lon="13.151069039375916"><ele>1166.0</ele><time>2026-04-04T12:27:32Z</time></trkpt><trkpt lat="42.774189107728624" lon="13.151124320988473"><ele>1164.0</ele><time>2026-04-04T12:27:33Z</time></trkpt><trkpt lat="42.77404547220874" lon="13.15119982334288"><ele>1162.0</ele><time>2026-04-04T12:27:34Z</time></trkpt><trkpt lat="42.773927368567804" lon="13.151288884824114"><ele>1160.0</ele><time>2026-04-04T12:27:35Z</time></trkpt><trkpt lat="42.77380123467536" lon="13.1513558789901"><ele>1158.0</ele><time>2026-04-04T12:27:36Z</time></trkpt><trkpt lat="42.773684743927156" lon="13.15144413145233"><ele>1158.0</ele><time>2026-04-04T12:27:37Z</time></trkpt><trkpt lat="42.77359142066577" lon="13.15150422876666"><ele>1158.0</ele><time>2026-04-04T12:27:38Z</time></trkpt><trkpt lat="42.773467928159135" lon="13.151601666932114"><ele>1158.0</ele><time>2026-04-04T12:27:39Z</time></trkpt><trkpt lat="42.773349111926734" lon="13.151640228846029"><ele>1158.0</ele><time>2026-04-04T12:27:40Z</time></trkpt><trkpt lat="42.773217088466595" lon="13.151613617681958"><ele>1155.75</ele><time>2026-04-04T12:27:41Z</time></trkpt><trkpt lat="42.77311595007158" lon="13.151572977501024"><ele>1153.5</ele><time>2026-04-04T12:27:42Z</time></trkpt><trkpt lat="42.77298205821742" lon="13.151522350226882"><ele>1151.25</ele><time>2026-04-04T12:27:43Z</time></trkpt><trkpt lat="42.772847068511176" lon="13.151475603491948"><ele>1149.0</ele><time>2026-04-04T12:27:44Z</time></trkpt><trkpt lat="42.77272451070566" lon="13.151481404678115"><ele>1150.5</ele><time>2026-04-04T12:27:45Z</time></trkpt><trkpt lat="42.77257779443513" lon="13.151518469320663"><ele>1152.0</ele><time>2026-04-04T12:27:46Z</time></trkpt><trkpt lat="42.772433792774095" lon="13.151566129331307"><ele>1153.5</ele><time>2026-04-04T12:27:47Z</time></trkpt><trkpt lat="42.77228451854747" lon="13.15157706829025"><ele>1155.0</ele><time>2026-04-04T12:27:48Z</time></trkpt><trkpt lat="42.77214847224832" lon="13.151583198889705"><ele>1167.3333333333333</ele><time>2026-04-04T12:27:49Z</time></trkpt><trkpt lat="42.771997483422155" lon="13.151580625776802"><ele>1179.6666666666665</ele><time>2026-04-04T12:27:50Z</time></trkpt><trkpt lat="42.77183335903117" lon="13.151568015137913"><ele>1192.0</ele><time>2026-04-04T12:27:51Z</time></trkpt><trkpt lat="42.7716892923481" lon="13.151552129651051"><ele>1181.3333333333333</ele><time>2026-04-04T12:27:52Z</time></trkpt><trkpt lat="42.77154380995701" lon="13.151535062870199"><ele>1170.6666666666667</ele><time>2026-04-04T12:27:53Z</time></trkpt><trkpt lat="42.771392211758084" lon="13.151512513637607"><ele>1160.0</ele><time>2026-04-04T12:27:54Z</time></trkpt><trkpt lat="42.771234206480116" lon="13.151474615808125"><ele>1160.0</ele><time>2026-04-04T12:27:55Z</time></trkpt><trkpt lat="42.77110387747973" lon="13.151439233011036"><ele>1160.0</ele><time>2026-04-04T12:27:56Z</time></trkpt><trkpt lat="42.77097083784357" lon="13.151428343836255"><ele>1160.0</ele><time>2026-04-04T12:27:57Z</time></trkpt><trkpt lat="42.77082815210714" lon="13.151461622109933"><ele>1160.0</ele><time>2026-04-04T12:27:58Z</time></trkpt><trkpt lat="42.77069511753783" lon="13.15151383176019"><ele>1170.0</ele><time>2026-04-04T12:27:59Z</time></trkpt><trkpt lat="42.77055122142091" lon="13.151554583576704"><ele>1180.0</ele><time>2026-04-04T12:28:00Z</time></trkpt><trkpt lat="42.77046603971895" lon="13.151642180814962"><ele>1190.0</ele><time>2026-04-04T12:28:01Z</time></trkpt><trkpt lat="42.77037406528037" lon="13.151727437232283"><ele>1200.0</ele><time>2026-04-04T12:28:02Z</time></trkpt><trkpt lat="42.77028994202754" lon="13.151851988384282"><ele>1200.0</ele><time>2026-04-04T12:28:03Z</time></trkpt><trkpt lat="42.77022817277793" lon="13.152014985830963"><ele>1200.0</ele><time>2026-04-04T12:28:04Z</time></trkpt><trkpt lat="42.77017857899969" lon="13.152206173405911"><ele>1200.0</ele><time>2026-04-04T12:28:05Z</time></trkpt><trkpt lat="42.77012642130361" lon="13.152406475626552"><ele>1200.0</ele><time>2026-04-04T12:28:06Z</time></trkpt><trkpt lat="42.770070415761744" lon="13.15260417701711"><ele>1198.25</ele><time>2026-04-04T12:28:07Z</time></trkpt><trkpt lat="42.77001822692919" lon="13.152791696472082"><ele>1196.5</ele><time>2026-04-04T12:28:08Z</time></trkpt><trkpt lat="42.76997100109305" lon="13.152982112304944"><ele>1194.75</ele><time>2026-04-04T12:28:09Z</time></trkpt><trkpt lat="42.76992058224575" lon="13.153173034207844"><ele>1193.0</ele><time>2026-04-04T12:28:10Z</time></trkpt><trkpt lat="42.76985101577602" lon="13.15336151177622"><ele>1200.3333333333335</ele><time>2026-04-04T12:28:11Z</time></trkpt><trkpt lat="42.76980185545439" lon="13.153566027757781"><ele>1207.6666666666667</ele><time>2026-04-04T12:28:12Z</time></trkpt><trkpt lat="42.76972281039559" lon="13.153757008034207"><ele>1215.0</ele><time>2026-04-04T12:28:13Z</time></trkpt><trkpt lat="42.76963590815912" lon="13.153951965053365"><ele>1209.0</ele><time>2026-04-04T12:28:14Z</time></trkpt><trkpt lat="42.76953254969764" lon="13.15414048252481"><ele>1203.0</ele><time>2026-04-04T12:28:15Z</time></trkpt><trkpt lat="42.769412659266244" lon="13.154319552641159"><ele>1197.0</ele><time>2026-04-04T12:28:16Z</time></trkpt><trkpt lat="42.76928822920318" lon="13.15449242155017"><ele>1197.0</ele><time>2026-04-04T12:28:17Z</time></trkpt><trkpt lat="42.76918094800551" lon="13.154651648642314"><ele>1197.0</ele><time>2026-04-04T12:28:18Z</time></trkpt><trkpt lat="42.76908968441727" lon="13.154832960942189"><ele>1197.0</ele><time>2026-04-04T12:28:19Z</time></trkpt><trkpt lat="42.76900027599397" lon="13.15501910430422"><ele>1206.3333333333333</ele><time>2026-04-04T12:28:20Z</time></trkpt><trkpt lat="42.76889160584029" lon="13.155165811329825"><ele>1215.6666666666665</ele><time>2026-04-04T12:28:21Z</time></trkpt><trkpt lat="42.768776027311404" lon="13.155325446273356"><ele>1225.0</ele><time>2026-04-04T12:28:22Z</time></trkpt><trkpt lat="42.76865370779679" lon="13.155462564501507"><ele>1223.3333333333333</ele><time>2026-04-04T12:28:23Z</time></trkpt><trkpt lat="42.76852410281002" lon="13.155594347825621"><ele>1221.6666666666667</ele><time>2026-04-04T12:28:24Z</time></trkpt><trkpt lat="42.768371803219694" lon="13.15570566032351"><ele>1220.0</ele><time>2026-04-04T12:28:25Z</time></trkpt><trkpt lat="42.76823618022494" lon="13.155829008031962"><ele>1220.0</ele><time>2026-04-04T12:28:26Z</time></trkpt><trkpt lat="42.76812065755987" lon="13.155951434853323"><ele>1220.0</ele><time>2026-04-04T12:28:27Z</time></trkpt><trkpt lat="42.76799944752962" lon="13.156145679422533"><ele>1220.0</ele><time>2026-04-04T12:28:28Z</time></trkpt><trkpt lat="42.767905691191814" lon="13.156345885760025"><ele>1216.3333333333335</ele><time>2026-04-04T12:28:29Z</time></trkpt><trkpt lat="42.767806236988015" lon="13.156550305891109"><ele>1212.6666666666667</ele><time>2026-04-04T12:28:30Z</time></trkpt><trkpt lat="42.76770872769851" lon="13.156759360588367"><ele>1209.0</ele><time>2026-04-04T12:28:31Z</time></trkpt><trkpt lat="42.76761314766508" lon="13.156962746702032"><ele>1209.0</ele><time>2026-04-04T12:28:32Z</time></trkpt><trkpt lat="42.76751007280623" lon="13.157149319756908"><ele>1209.0</ele><time>2026-04-04T12:28:33Z</time></trkpt><trkpt lat="42.76743111745868" lon="13.157346167863475"><ele>1209.0</ele><time>2026-04-04T12:28:34Z</time></trkpt><trkpt lat="42.76735786821731" lon="13.157560864282635"><ele>1216.0</ele><time>2026-04-04T12:28:35Z</time></trkpt><trkpt lat="42.76730050517083" lon="13.157779631501738"><ele>1223.0</ele><time>2026-04-04T12:28:36Z</time></trkpt><trkpt lat="42.76725705477505" lon="13.157997873886721"><ele>1230.0</ele><time>2026-04-04T12:28:37Z</time></trkpt><trkpt lat="42.76722157150787" lon="13.158208355348263"><ele>1235.3333333333333</ele><time>2026-04-04T12:28:38Z</time></trkpt><trkpt lat="42.76718350612779" lon="13.158428035399487"><ele>1240.6666666666665</ele><time>2026-04-04T12:28:39Z</time></trkpt><trkpt lat="42.76714888886898" lon="13.158667902156237"><ele>1246.0</ele><time>2026-04-04T12:28:40Z</time></trkpt><trkpt lat="42.76711679410444" lon="13.1588941030702"><ele>1249.6666666666665</ele><time>2026-04-04T12:28:41Z</time></trkpt><trkpt lat="42.76708213109358" lon="13.1591218314469"><ele>1253.3333333333333</ele><time>2026-04-04T12:28:42Z</time></trkpt><trkpt lat="42.76704482921727" lon="13.159350026966447"><ele>1257.0</ele><time>2026-04-04T12:28:43Z</time></trkpt><trkpt lat="42.76700846009376" lon="13.159580885727575"><ele>1257.0</ele><time>2026-04-04T12:28:44Z</time></trkpt><trkpt lat="42.76698564208342" lon="13.159819526559096"><ele>1257.0</ele><time>2026-04-04T12:28:45Z</time></trkpt><trkpt lat="42.766981423133934" lon="13.160047711438851"><ele>1257.0</ele><time>2026-04-04T12:28:46Z</time></trkpt><trkpt lat="42.76699408009134" lon="13.16027909280258"><ele>1260.6666666666667</ele><time>2026-04-04T12:28:47Z</time></trkpt><trkpt lat="42.767017383568785" lon="13.160484674768808"><ele>1264.3333333333335</ele><time>2026-04-04T12:28:48Z</time></trkpt><trkpt lat="42.76706926792749" lon="13.160735542829416"><ele>1268.0</ele><time>2026-04-04T12:28:49Z</time></trkpt><trkpt lat="42.76713310481334" lon="13.160953084179624"><ele>1268.3333333333335</ele><time>2026-04-04T12:28:50Z</time></trkpt><trkpt lat="42.76718711027075" lon="13.161173667694847"><ele>1268.6666666666667</ele><time>2026-04-04T12:28:51Z</time></trkpt><trkpt lat="42.76723061338959" lon="13.161397298600516"><ele>1269.0</ele><time>2026-04-04T12:28:52Z</time></trkpt><trkpt lat="42.767273856435864" lon="13.161624531586995"><ele>1268.0</ele><time>2026-04-04T12:28:53Z</time></trkpt><trkpt lat="42.76731510157329" lon="13.16185536252565"><ele>1267.0</ele><time>2026-04-04T12:28:54Z</time></trkpt><trkpt lat="42.76735463495791" lon="13.162088446817927"><ele>1266.0</ele><time>2026-04-04T12:28:55Z</time></trkpt><trkpt lat="42.7673895750068" lon="13.162293983089508"><ele>1264.75</ele><time>2026-04-04T12:28:56Z</time></trkpt><trkpt lat="42.767426835718645" lon="13.16247859980744"><ele>1263.5</ele><time>2026-04-04T12:28:57Z</time></trkpt><trkpt lat="42.76747308804819" lon="13.162643283401115"><ele>1262.25</ele><time>2026-04-04T12:28:58Z</time></trkpt><trkpt lat="42.76751536972838" lon="13.162780661228867"><ele>1261.0</ele><time>2026-04-04T12:28:59Z</time></trkpt><trkpt lat="42.76754667478856" lon="13.16289967217916"><ele>1261.0</ele><time>2026-04-04T12:29:00Z</time></trkpt><trkpt lat="42.76756961833437" lon="13.163026495876569"><ele>1261.0</ele><time>2026-04-04T12:29:01Z</time></trkpt><trkpt lat="42.76756713393546" lon="13.16313932688607"><ele>1261.0</ele><time>2026-04-04T12:29:02Z</time></trkpt><trkpt lat="42.76752671133067" lon="13.16323682354006"><ele>1261.0</ele><time>2026-04-04T12:29:03Z</time></trkpt><trkpt lat="42.76746607267334" lon="13.16333151689327"><ele>1261.0</ele><time>2026-04-04T12:29:04Z</time></trkpt><trkpt lat="42.76736586211142" lon="13.163368555725846"><ele>1262.6666666666665</ele><time>2026-04-04T12:29:05Z</time></trkpt><trkpt lat="42.76722780291404" lon="13.163384235335032"><ele>1264.3333333333333</ele><time>2026-04-04T12:29:06Z</time></trkpt><trkpt lat="42.76707492475045" lon="13.163385247402536"><ele>1266.0</ele><time>2026-04-04T12:29:07Z</time></trkpt><trkpt lat="42.76687095269071" lon="13.163378725944668"><ele>1264.0</ele><time>2026-04-04T12:29:08Z</time></trkpt><trkpt lat="42.766684485167794" lon="13.163363884819265"><ele>1262.0</ele><time>2026-04-04T12:29:09Z</time></trkpt><trkpt lat="42.766502048103725" lon="13.163360439637227"><ele>1260.0</ele><time>2026-04-04T12:29:10Z</time></trkpt><trkpt lat="42.76631784395738" lon="13.163351684485239"><ele>1260.0</ele><time>2026-04-04T12:29:11Z</time></trkpt><trkpt lat="42.76613513241566" lon="13.163328248444529"><ele>1260.0</ele><time>2026-04-04T12:29:12Z</time></trkpt><trkpt lat="42.76595716267845" lon="13.163293787001795"><ele>1260.0</ele><time>2026-04-04T12:29:13Z</time></trkpt><trkpt lat="42.76578874750942" lon="13.163255530476123"><ele>1263.0</ele><time>2026-04-04T12:29:14Z</time></trkpt><trkpt lat="42.765627478831384" lon="13.163208636217028"><ele>1266.0</ele><time>2026-04-04T12:29:15Z</time></trkpt><trkpt lat="42.765471390877394" lon="13.163147248489706"><ele>1269.0</ele><time>2026-04-04T12:29:16Z</time></trkpt><trkpt lat="42.765330872693525" lon="13.16307000785812"><ele>1264.5</ele><time>2026-04-04T12:29:17Z</time></trkpt><trkpt lat="42.76520215263442" lon="13.162985411802786"><ele>1260.0</ele><time>2026-04-04T12:29:18Z</time></trkpt><trkpt lat="42.76507657610195" lon="13.162912952607718"><ele>1255.5</ele><time>2026-04-04T12:29:19Z</time></trkpt><trkpt lat="42.76494361761318" lon="13.162869961668715"><ele>1251.0</ele><time>2026-04-04T12:29:20Z</time></trkpt><trkpt lat="42.7648061717925" lon="13.162857988322514"><ele>1251.0</ele><time>2026-04-04T12:29:21Z</time></trkpt><trkpt lat="42.76466928804841" lon="13.162881319770761"><ele>1251.0</ele><time>2026-04-04T12:29:22Z</time></trkpt><trkpt lat="42.7645359824372" lon="13.162938035500547"><ele>1251.0</ele><time>2026-04-04T12:29:23Z</time></trkpt><trkpt lat="42.76440775215778" lon="13.162998218555948"><ele>1251.0</ele><time>2026-04-04T12:29:24Z</time></trkpt><trkpt lat="42.7642741841401" lon="13.163055779896679"><ele>1250.5</ele><time>2026-04-04T12:29:25Z</time></trkpt><trkpt lat="42.76414513954635" lon="13.163100852210624"><ele>1250.0</ele><time>2026-04-04T12:29:26Z</time></trkpt><trkpt lat="42.76402725503135" lon="13.163162384976062"><ele>1249.5</ele><time>2026-04-04T12:29:27Z</time></trkpt><trkpt lat="42.76392666067395" lon="13.163245439391375"><ele>1249.0</ele><time>2026-04-04T12:29:28Z</time></trkpt><trkpt lat="42.76385001869672" lon="13.163354570116859"><ele>1256.0</ele><time>2026-04-04T12:29:29Z</time></trkpt><trkpt lat="42.76380032665129" lon="13.163484318975152"><ele>1263.0</ele><time>2026-04-04T12:29:30Z</time></trkpt><trkpt lat="42.763786229656645" lon="13.16363517760074"><ele>1270.0</ele><time>2026-04-04T12:29:31Z</time></trkpt><trkpt lat="42.763806075494976" lon="13.163805967919298"><ele>1277.0</ele><time>2026-04-04T12:29:32Z</time></trkpt><trkpt lat="42.76384750220404" lon="13.163974344946777"><ele>1281.25</ele><time>2026-04-04T12:29:33Z</time></trkpt><trkpt lat="42.763883679554404" lon="13.164159494316381"><ele>1285.5</ele><time>2026-04-04T12:29:34Z</time></trkpt><trkpt lat="42.763913367450606" lon="13.164353507075633"><ele>1289.75</ele><time>2026-04-04T12:29:35Z</time></trkpt><trkpt lat="42.76393069131719" lon="13.164547176348835"><ele>1294.0</ele><time>2026-04-04T12:29:36Z</time></trkpt><trkpt lat="42.76393966863504" lon="13.164740304557373"><ele>1294.5</ele><time>2026-04-04T12:29:37Z</time></trkpt><trkpt lat="42.76393751348898" lon="13.164934463629999"><ele>1295.0</ele><time>2026-04-04T12:29:38Z</time></trkpt><trkpt lat="42.7639644221525" lon="13.16512880638719"><ele>1295.5</ele><time>2026-04-04T12:29:39Z</time></trkpt><trkpt lat="42.764028985056996" lon="13.16530791687807"><ele>1296.0</ele><time>2026-04-04T12:29:40Z</time></trkpt><trkpt lat="42.7641227772144" lon="13.165461309275148"><ele>1296.0</ele><time>2026-04-04T12:29:41Z</time></trkpt><trkpt lat="42.764232582395245" lon="13.165588570534714"><ele>1296.0</ele><time>2026-04-04T12:29:42Z</time></trkpt><trkpt lat="42.76434689920042" lon="13.165708816712511"><ele>1296.0</ele><time>2026-04-04T12:29:43Z</time></trkpt><trkpt lat="42.76445786450893" lon="13.165833638855677"><ele>1296.0</ele><time>2026-04-04T12:29:44Z</time></trkpt><trkpt lat="42.764580367654375" lon="13.165936051519962"><ele>1304.0</ele><time>2026-04-04T12:29:45Z</time></trkpt><trkpt lat="42.76468560172417" lon="13.166065492767567"><ele>1312.0</ele><time>2026-04-04T12:29:46Z</time></trkpt><trkpt lat="42.764807560647526" lon="13.166171594108896"><ele>1320.0</ele><time>2026-04-04T12:29:47Z</time></trkpt><trkpt lat="42.76491259747269" lon="13.166310088421675"><ele>1328.0</ele><time>2026-04-04T12:29:48Z</time></trkpt><trkpt lat="42.76501212389866" lon="13.16646266181595"><ele>1337.0</ele><time>2026-04-04T12:29:49Z</time></trkpt><trkpt lat="42.76508501996381" lon="13.166642527844472"><ele>1346.0</ele><time>2026-04-04T12:29:50Z</time></trkpt><trkpt lat="42.7651747904055" lon="13.166808124817202"><ele>1355.0</ele><time>2026-04-04T12:29:51Z</time></trkpt><trkpt lat="42.76527592392941" lon="13.16696266494456"><ele>1355.0</ele><time>2026-04-04T12:29:52Z</time></trkpt><trkpt lat="42.765382891003476" lon="13.167112215786076"><ele>1355.0</ele><time>2026-04-04T12:29:53Z</time></trkpt><trkpt lat="42.76548561624906" lon="13.167265829353127"><ele>1355.0</ele><time>2026-04-04T12:29:54Z</time></trkpt><trkpt lat="42.76557725153956" lon="13.16744257357209"><ele>1343.0</ele><time>2026-04-04T12:29:55Z</time></trkpt><trkpt lat="42.76567295017778" lon="13.167614876660222"><ele>1331.0</ele><time>2026-04-04T12:29:56Z</time></trkpt><trkpt lat="42.76578373520294" lon="13.167780082515476"><ele>1319.0</ele><time>2026-04-04T12:29:57Z</time></trkpt><trkpt lat="42.765927548222884" lon="13.167907355709369"><ele>1322.0</ele><time>2026-04-04T12:29:58Z</time></trkpt><trkpt lat="42.766062022395666" lon="13.168007688212287"><ele>1325.0</ele><time>2026-04-04T12:29:59Z</time></trkpt><trkpt lat="42.76619048979985" lon="13.168106738992876"><ele>1328.0</ele><time>2026-04-04T12:30:00Z</time></trkpt><trkpt lat="42.76631216823024" lon="13.168219748964372"><ele>1331.0</ele><time>2026-04-04T12:30:01Z</time></trkpt><trkpt lat="42.766416123557136" lon="13.168362353986717"><ele>1331.0</ele><time>2026-04-04T12:30:02Z</time></trkpt><trkpt lat="42.76651465330061" lon="13.168521549138998"><ele>1331.0</ele><time>2026-04-04T12:30:03Z</time></trkpt><trkpt lat="42.766611708769425" lon="13.16869470502248"><ele>1331.0</ele><time>2026-04-04T12:30:04Z</time></trkpt><trkpt lat="42.76670762329567" lon="13.168868798115337"><ele>1324.0</ele><time>2026-04-04T12:30:05Z</time></trkpt><trkpt lat="42.76679690887902" lon="13.169031515116977"><ele>1317.0</ele><time>2026-04-04T12:30:06Z</time></trkpt><trkpt lat="42.766896550902075" lon="13.169212487810631"><ele>1310.0</ele><time>2026-04-04T12:30:07Z</time></trkpt><trkpt lat="42.766993201394776" lon="13.169387453999875"><ele>1316.3333333333335</ele><time>2026-04-04T12:30:08Z</time></trkpt><trkpt lat="42.767105149355665" lon="13.169584906409693"><ele>1322.6666666666667</ele><time>2026-04-04T12:30:09Z</time></trkpt><trkpt lat="42.76720323939017" lon="13.169758977247088"><ele>1329.0</ele><time>2026-04-04T12:30:10Z</time></trkpt><trkpt lat="42.767294650774765" lon="13.169928108346923"><ele>1329.0</ele><time>2026-04-04T12:30:11Z</time></trkpt><trkpt lat="42.767389433719885" lon="13.170106064029437"><ele>1329.0</ele><time>2026-04-04T12:30:12Z</time></trkpt><trkpt lat="42.767484007944546" lon="13.170283627866915"><ele>1329.0</ele><time>2026-04-04T12:30:13Z</time></trkpt><trkpt lat="42.76757390739203" lon="13.170459071848947"><ele>1329.0</ele><time>2026-04-04T12:30:14Z</time></trkpt><trkpt lat="42.76766286516537" lon="13.170639420834062"><ele>1329.0</ele><time>2026-04-04T12:30:15Z</time></trkpt><trkpt lat="42.76774501867155" lon="13.1708171522609"><ele>1329.0</ele><time>2026-04-04T12:30:16Z</time></trkpt><trkpt lat="42.76781598930117" lon="13.170987849922241"><ele>1332.75</ele><time>2026-04-04T12:30:17Z</time></trkpt><trkpt lat="42.767870623545456" lon="13.171147854809762"><ele>1336.5</ele><time>2026-04-04T12:30:18Z</time></trkpt><trkpt lat="42.767915787587235" lon="13.17131545859408"><ele>1340.25</ele><time>2026-04-04T12:30:19Z</time></trkpt><trkpt lat="42.767946692762685" lon="13.171479260045917"><ele>1344.0</ele><time>2026-04-04T12:30:20Z</time></trkpt><trkpt lat="42.76794858312621" lon="13.171603828750424"><ele>1344.0</ele><time>2026-04-04T12:30:21Z</time></trkpt><trkpt lat="42.76792541207112" lon="13.171730383392559"><ele>1344.0</ele><time>2026-04-04T12:30:22Z</time></trkpt><trkpt lat="42.76787176547959" lon="13.171839859715552"><ele>1344.0</ele><time>2026-04-04T12:30:23Z</time></trkpt><trkpt lat="42.767783716252865" lon="13.171937167002604"><ele>1344.0</ele><time>2026-04-04T12:30:24Z</time></trkpt><trkpt lat="42.76764746578577" lon="13.172001608744482"><ele>1335.6666666666667</ele><time>2026-04-04T12:30:25Z</time></trkpt><trkpt lat="42.767496479975875" lon="13.172047709274876"><ele>1327.3333333333335</ele><time>2026-04-04T12:30:26Z</time></trkpt><trkpt lat="42.76734757923123" lon="13.17208108012617"><ele>1319.0</ele><time>2026-04-04T12:30:27Z</time></trkpt><trkpt lat="42.76719329237059" lon="13.172119683203793"><ele>1319.0</ele><time>2026-04-04T12:30:28Z</time></trkpt><trkpt lat="42.76703792603577" lon="13.172164758052531"><ele>1319.0</ele><time>2026-04-04T12:30:29Z</time></trkpt><trkpt lat="42.7668810384663" lon="13.1721998639096"><ele>1319.0</ele><time>2026-04-04T12:30:30Z</time></trkpt><trkpt lat="42.766717386691816" lon="13.172236961903199"><ele>1316.0</ele><time>2026-04-04T12:30:31Z</time></trkpt><trkpt lat="42.766560473994126" lon="13.172281861038211"><ele>1313.0</ele><time>2026-04-04T12:30:32Z</time></trkpt><trkpt lat="42.76642037903613" lon="13.172336321789562"><ele>1310.0</ele><time>2026-04-04T12:30:33Z</time></trkpt><trkpt lat="42.76629523680279" lon="13.172413430808252"><ele>1307.0</ele><time>2026-04-04T12:30:34Z</time></trkpt><trkpt lat="42.766185634528235" lon="13.172524392999401"><ele>1308.75</ele><time>2026-04-04T12:30:35Z</time></trkpt><trkpt lat="42.76609452511113" lon="13.172657846889692"><ele>1310.5</ele><time>2026-04-04T12:30:36Z</time></trkpt><trkpt lat="42.766018766641736" lon="13.172813754437705"><ele>1312.25</ele><time>2026-04-04T12:30:37Z</time></trkpt><trkpt lat="42.76593847749848" lon="13.172962448500028"><ele>1314.0</ele><time>2026-04-04T12:30:38Z</time></trkpt><trkpt lat="42.7658614276896" lon="13.173115903690272"><ele>1320.75</ele><time>2026-04-04T12:30:39Z</time></trkpt><trkpt lat="42.765773013218826" lon="13.173278675639649"><ele>1327.5</ele><time>2026-04-04T12:30:40Z</time></trkpt><trkpt lat="42.7656979850785" lon="13.173432944835442"><ele>1334.25</ele><time>2026-04-04T12:30:41Z</time></trkpt><trkpt lat="42.76561826508784" lon="13.17359319843204"><ele>1341.0</ele><time>2026-04-04T12:30:42Z</time></trkpt><trkpt lat="42.76553274329961" lon="13.17374519848848"><ele>1341.0</ele><time>2026-04-04T12:30:43Z</time></trkpt><trkpt lat="42.76544950250911" lon="13.173910571935286"><ele>1341.0</ele><time>2026-04-04T12:30:44Z</time></trkpt><trkpt lat="42.76537375198778" lon="13.174062547508083"><ele>1341.0</ele><time>2026-04-04T12:30:45Z</time></trkpt><trkpt lat="42.765276259751516" lon="13.174204056311616"><ele>1341.0</ele><time>2026-04-04T12:30:46Z</time></trkpt><trkpt lat="42.76519558752419" lon="13.174351766460362"><ele>1339.5</ele><time>2026-04-04T12:30:47Z</time></trkpt><trkpt lat="42.76511800449193" lon="13.174488746476724"><ele>1338.0</ele><time>2026-04-04T12:30:48Z</time></trkpt><trkpt lat="42.76504587607246" lon="13.174594933153257"><ele>1336.5</ele><time>2026-04-04T12:30:49Z</time></trkpt><trkpt lat="42.764968142415825" lon="13.174698197375369"><ele>1335.0</ele><time>2026-04-04T12:30:50Z</time></trkpt><trkpt lat="42.76486339594318" lon="13.174739970787549"><ele>1335.0</ele><time>2026-04-04T12:30:51Z</time></trkpt><trkpt lat="42.764752245236295" lon="13.174729142547447"><ele>1335.0</ele><time>2026-04-04T12:30:52Z</time></trkpt><trkpt lat="42.764641906710104" lon="13.174681047867324"><ele>1335.0</ele><time>2026-04-04T12:30:53Z</time></trkpt><trkpt lat="42.76452159801614" lon="13.17465224115563"><ele>1335.0</ele><time>2026-04-04T12:30:54Z</time></trkpt><trkpt lat="42.76439763765138" lon="13.174668813677178"><ele>1335.0</ele><time>2026-04-04T12:30:55Z</time></trkpt><trkpt lat="42.76428751130122" lon="13.1747479094567"><ele>1335.0</ele><time>2026-04-04T12:30:56Z</time></trkpt><trkpt lat="42.764198460114365" lon="13.174842913240182"><ele>1335.0</ele><time>2026-04-04T12:30:57Z</time></trkpt><trkpt lat="42.76412707338374" lon="13.174939629927021"><ele>1335.0</ele><time>2026-04-04T12:30:58Z</time></trkpt><trkpt lat="42.764050572474375" lon="13.175003692518404"><ele>1335.0</ele><time>2026-04-04T12:30:59Z</time></trkpt><trkpt lat="42.76397556484359" lon="13.17505386472738"><ele>1335.0</ele><time>2026-04-04T12:31:00Z</time></trkpt><trkpt lat="42.76389477570198" lon="13.175036793615359"><ele>1335.0</ele><time>2026-04-04T12:31:01Z</time></trkpt><trkpt lat="42.763832187662906" lon="13.174958486209379"><ele>1335.0</ele><time>2026-04-04T12:31:02Z</time></trkpt><trkpt lat="42.76377375171929" lon="13.174859760192996"><ele>1335.0</ele><time>2026-04-04T12:31:03Z</time></trkpt><trkpt lat="42.76370648458352" lon="13.174731707986107"><ele>1335.0</ele><time>2026-04-04T12:31:04Z</time></trkpt><trkpt lat="42.76363171072683" lon="13.174598524511483"><ele>1339.75</ele><time>2026-04-04T12:31:05Z</time></trkpt><trkpt lat="42.76352658214978" lon="13.17448345277427"><ele>1344.5</ele><time>2026-04-04T12:31:06Z</time></trkpt><trkpt lat="42.7634136075805" lon="13.174363407899929"><ele>1349.25</ele><time>2026-04-04T12:31:07Z</time></trkpt><trkpt lat="42.76328568508701" lon="13.174250031793092"><ele>1354.0</ele><time>2026-04-04T12:31:08Z</time></trkpt><trkpt lat="42.76316378008756" lon="13.174122225357955"><ele>1347.25</ele><time>2026-04-04T12:31:09Z</time></trkpt><trkpt lat="42.76305667139713" lon="13.1739722538453"><ele>1340.5</ele><time>2026-04-04T12:31:10Z</time></trkpt><trkpt lat="42.762946471731986" lon="13.173847146091664"><ele>1333.75</ele><time>2026-04-04T12:31:11Z</time></trkpt><trkpt lat="42.762835043114606" lon="13.173755351304845"><ele>1327.0</ele><time>2026-04-04T12:31:12Z</time></trkpt><trkpt lat="42.762735860357296" lon="13.173673671064167"><ele>1330.0</ele><time>2026-04-04T12:31:13Z</time></trkpt><trkpt lat="42.76262487304677" lon="13.173620168522291"><ele>1333.0</ele><time>2026-04-04T12:31:14Z</time></trkpt><trkpt lat="42.762508603136816" lon="13.173616679689271"><ele>1336.0</ele><time>2026-04-04T12:31:15Z</time></trkpt><trkpt lat="42.76239355821383" lon="13.173641214157271"><ele>1339.0</ele><time>2026-04-04T12:31:16Z</time></trkpt><trkpt lat="42.762275262861266" lon="13.173704375923217"><ele>1339.0</ele><time>2026-04-04T12:31:17Z</time></trkpt><trkpt lat="42.762164049991725" lon="13.173760786401237"><ele>1339.0</ele><time>2026-04-04T12:31:18Z</time></trkpt><trkpt lat="42.76206723272607" lon="13.17384782765262"><ele>1339.0</ele><time>2026-04-04T12:31:19Z</time></trkpt><trkpt lat="42.76198935892286" lon="13.173936403191634"><ele>1339.0</ele><time>2026-04-04T12:31:20Z</time></trkpt><trkpt lat="42.76193263990537" lon="13.17403788246614"><ele>1339.0</ele><time>2026-04-04T12:31:21Z</time></trkpt><trkpt lat="42.76189893400808" lon="13.17418477753614"><ele>1340.25</ele><time>2026-04-04T12:31:22Z</time></trkpt><trkpt lat="42.76184080273913" lon="13.174300759478015"><ele>1341.5</ele><time>2026-04-04T12:31:23Z</time></trkpt><trkpt lat="42.761818352056736" lon="13.17447995886599"><ele>1342.75</ele><time>2026-04-04T12:31:24Z</time></trkpt><trkpt lat="42.76178243821715" lon="13.174635766324263"><ele>1344.0</ele><time>2026-04-04T12:31:25Z</time></trkpt><trkpt lat="42.7617377271931" lon="13.174803469973227"><ele>1348.25</ele><time>2026-04-04T12:31:26Z</time></trkpt><trkpt lat="42.761697771651555" lon="13.174978857955942"><ele>1352.5</ele><time>2026-04-04T12:31:27Z</time></trkpt><trkpt lat="42.76167002112316" lon="13.175166473637134"><ele>1356.75</ele><time>2026-04-04T12:31:28Z</time></trkpt><trkpt lat="42.76166139561241" lon="13.17535868413328"><ele>1361.0</ele><time>2026-04-04T12:31:29Z</time></trkpt><trkpt lat="42.76164277617551" lon="13.175543256742568"><ele>1363.75</ele><time>2026-04-04T12:31:30Z</time></trkpt><trkpt lat="42.761624269963285" lon="13.17574621360422"><ele>1366.5</ele><time>2026-04-04T12:31:31Z</time></trkpt><trkpt lat="42.761606798584566" lon="13.175927436259274"><ele>1369.25</ele><time>2026-04-04T12:31:32Z</time></trkpt><trkpt lat="42.76159106476892" lon="13.17609687859139"><ele>1372.0</ele><time>2026-04-04T12:31:33Z</time></trkpt><trkpt lat="42.76156830843126" lon="13.176242149978657"><ele>1372.0</ele><time>2026-04-04T12:31:34Z</time></trkpt><trkpt lat="42.761556346525616" lon="13.176350956062159"><ele>1372.0</ele><time>2026-04-04T12:31:35Z</time></trkpt><trkpt lat="42.761540406971044" lon="13.176501497056504"><ele>1372.0</ele><time>2026-04-04T12:31:36Z</time></trkpt><trkpt lat="42.761530318922254" lon="13.176608824736027"><ele>1372.0</ele><time>2026-04-04T12:31:37Z</time></trkpt><trkpt lat="42.76151531180149" lon="13.176767896216381"><ele>1372.0</ele><time>2026-04-04T12:31:39Z</time></trkpt><trkpt lat="42.76150580975448" lon="13.176866284344262"><ele>1374.0</ele><time>2026-04-04T12:31:52Z</time></trkpt><trkpt lat="42.7614930468506" lon="13.176997744920913"><ele>1376.0</ele><time>2026-04-04T12:31:54Z</time></trkpt><trkpt lat="42.76148975897546" lon="13.177111101434765"><ele>1378.0</ele><time>2026-04-04T12:31:55Z</time></trkpt><trkpt lat="42.76146775490735" lon="13.17723800496937"><ele>1380.0</ele><time>2026-04-04T12:31:56Z</time></trkpt><trkpt lat="42.761449826117854" lon="13.177404814310806"><ele>1382.0</ele><time>2026-04-04T12:31:57Z</time></trkpt><trkpt lat="42.76143687734477" lon="13.177614795048253"><ele>1384.6666666666667</ele><time>2026-04-04T12:31:58Z</time></trkpt><trkpt lat="42.761425875090154" lon="13.177823787098673"><ele>1387.3333333333333</ele><time>2026-04-04T12:31:59Z</time></trkpt><trkpt lat="42.761413572731946" lon="13.17802969673349"><ele>1390.0</ele><time>2026-04-04T12:32:00Z</time></trkpt><trkpt lat="42.761405174148365" lon="13.178230490780239"><ele>1393.25</ele><time>2026-04-04T12:32:01Z</time></trkpt><trkpt lat="42.76138070283648" lon="13.178440966912826"><ele>1396.5</ele><time>2026-04-04T12:32:02Z</time></trkpt><trkpt lat="42.76136279890837" lon="13.178631719420046"><ele>1399.75</ele><time>2026-04-04T12:32:03Z</time></trkpt><trkpt lat="42.76134291116299" lon="13.178819557001958"><ele>1403.0</ele><time>2026-04-04T12:32:04Z</time></trkpt><trkpt lat="42.7613210198506" lon="13.178991420755786"><ele>1402.4</ele><time>2026-04-04T12:32:05Z</time></trkpt><trkpt lat="42.761295164048704" lon="13.179137942994561"><ele>1401.8000000000002</ele><time>2026-04-04T12:32:06Z</time></trkpt><trkpt lat="42.761257075609265" lon="13.179259473049251"><ele>1401.2</ele><time>2026-04-04T12:32:07Z</time></trkpt><trkpt lat="42.76119793845255" lon="13.179352056200935"><ele>1400.6</ele><time>2026-04-04T12:32:08Z</time></trkpt><trkpt lat="42.761123820414475" lon="13.179399511203727"><ele>1400.0</ele><time>2026-04-04T12:32:09Z</time></trkpt><trkpt lat="42.76102538092292" lon="13.179395570161573"><ele>1400.0</ele><time>2026-04-04T12:32:10Z</time></trkpt><trkpt lat="42.76093135381176" lon="13.179328801436592"><ele>1400.0</ele><time>2026-04-04T12:32:11Z</time></trkpt><trkpt lat="42.76085381446357" lon="13.179203615688252"><ele>1400.0</ele><time>2026-04-04T12:32:12Z</time></trkpt><trkpt lat="42.76080471971411" lon="13.179008470706544"><ele>1400.0</ele><time>2026-04-04T12:32:13Z</time></trkpt><trkpt lat="42.760718151457745" lon="13.178806936487323"><ele>1394.3333333333335</ele><time>2026-04-04T12:32:14Z</time></trkpt><trkpt lat="42.760598984782696" lon="13.178553226065462"><ele>1388.6666666666667</ele><time>2026-04-04T12:32:15Z</time></trkpt><trkpt lat="42.76046974805578" lon="13.178341984818413"><ele>1383.0</ele><time>2026-04-04T12:32:16Z</time></trkpt><trkpt lat="42.760338704088554" lon="13.178057272475108"><ele>1387.3333333333333</ele><time>2026-04-04T12:32:17Z</time></trkpt><trkpt lat="42.76021074285375" lon="13.177861314279296"><ele>1391.6666666666665</ele><time>2026-04-04T12:32:18Z</time></trkpt><trkpt lat="42.76005795889829" lon="13.17767157848561"><ele>1396.0</ele><time>2026-04-04T12:32:19Z</time></trkpt><trkpt lat="42.759920811206165" lon="13.177496541456957"><ele>1389.25</ele><time>2026-04-04T12:32:20Z</time></trkpt><trkpt lat="42.759812007453135" lon="13.177342033358203"><ele>1382.5</ele><time>2026-04-04T12:32:21Z</time></trkpt><trkpt lat="42.75971810819808" lon="13.177233507842276"><ele>1375.75</ele><time>2026-04-04T12:32:22Z</time></trkpt><trkpt lat="42.75963715665201" lon="13.177090845916553"><ele>1369.0</ele><time>2026-04-04T12:32:23Z</time></trkpt><trkpt lat="42.75956750534817" lon="13.176993562191578"><ele>1369.0</ele><time>2026-04-04T12:32:24Z</time></trkpt><trkpt lat="42.759503017904834" lon="13.176916563313554"><ele>1369.0</ele><time>2026-04-04T12:32:25Z</time></trkpt><trkpt lat="42.75942016838863" lon="13.176876290649973"><ele>1369.0</ele><time>2026-04-04T12:32:27Z</time></trkpt><trkpt lat="42.75940482963142" lon="13.177050106659967"><ele>1369.0</ele><time>2026-04-04T12:32:30Z</time></trkpt><trkpt lat="42.759461126102515" lon="13.177118790620275"><ele>1369.0</ele><time>2026-04-04T12:32:31Z</time></trkpt><trkpt lat="42.75953324195174" lon="13.177227069171666"><ele>1378.0</ele><time>2026-04-04T12:32:32Z</time></trkpt><trkpt lat="42.75962121272201" lon="13.177384247280314"><ele>1387.0</ele><time>2026-04-04T12:32:33Z</time></trkpt><trkpt lat="42.75971844144987" lon="13.177536598946062"><ele>1396.0</ele><time>2026-04-04T12:32:34Z</time></trkpt><trkpt lat="42.75981788678329" lon="13.177708269453133"><ele>1396.0</ele><time>2026-04-04T12:32:35Z</time></trkpt><trkpt lat="42.75991193408367" lon="13.177900651001515"><ele>1396.0</ele><time>2026-04-04T12:32:36Z</time></trkpt><trkpt lat="42.760000471734045" lon="13.178095546086107"><ele>1396.0</ele><time>2026-04-04T12:32:37Z</time></trkpt><trkpt lat="42.7600910580664" lon="13.178305941884235"><ele>1391.6666666666665</ele><time>2026-04-04T12:32:38Z</time></trkpt><trkpt lat="42.76017820738165" lon="13.178520032578373"><ele>1387.3333333333333</ele><time>2026-04-04T12:32:39Z</time></trkpt><trkpt lat="42.76026325235132" lon="13.178730544772403"><ele>1383.0</ele><time>2026-04-04T12:32:40Z</time></trkpt><trkpt lat="42.76034630378731" lon="13.178944857052397"><ele>1388.6666666666667</ele><time>2026-04-04T12:32:41Z</time></trkpt><trkpt lat="42.76041164514176" lon="13.179157351577592"><ele>1394.3333333333335</ele><time>2026-04-04T12:32:42Z</time></trkpt><trkpt lat="42.760474652564476" lon="13.179378129287793"><ele>1400.0</ele><time>2026-04-04T12:32:43Z</time></trkpt><trkpt lat="42.7605364086457" lon="13.179595307248874"><ele>1400.0</ele><time>2026-04-04T12:32:44Z</time></trkpt><trkpt lat="42.760593151048425" lon="13.179809327083397"><ele>1400.0</ele><time>2026-04-04T12:32:45Z</time></trkpt><trkpt lat="42.7606416172585" lon="13.18001663309298"><ele>1400.0</ele><time>2026-04-04T12:32:46Z</time></trkpt><trkpt lat="42.7606752069392" lon="13.180188550000633"><ele>1403.0</ele><time>2026-04-04T12:32:47Z</time></trkpt><trkpt lat="42.76069761241984" lon="13.18034198677542"><ele>1406.0</ele><time>2026-04-04T12:32:48Z</time></trkpt><trkpt lat="42.76070232849435" lon="13.180463623414857"><ele>1409.0</ele><time>2026-04-04T12:32:49Z</time></trkpt><trkpt lat="42.760691049716584" lon="13.180601639666765"><ele>1412.0</ele><time>2026-04-04T12:32:50Z</time></trkpt><trkpt lat="42.76064042649442" lon="13.180719621815436"><ele>1415.0</ele><time>2026-04-04T12:32:51Z</time></trkpt><trkpt lat="42.760574954120955" lon="13.18086526879395"><ele>1417.2</ele><time>2026-04-04T12:32:52Z</time></trkpt><trkpt lat="42.76048448448352" lon="13.180996302955695"><ele>1419.4</ele><time>2026-04-04T12:32:53Z</time></trkpt><trkpt lat="42.760418405025185" lon="13.181115415508083"><ele>1421.6</ele><time>2026-04-04T12:32:54Z</time></trkpt><trkpt lat="42.760375184231656" lon="13.18123578562581"><ele>1423.8</ele><time>2026-04-04T12:32:55Z</time></trkpt><trkpt lat="42.76034402120953" lon="13.181330935422881"><ele>1426.0</ele><time>2026-04-04T12:32:56Z</time></trkpt><trkpt lat="42.7603522608829" lon="13.181447736722005"><ele>1428.6</ele><time>2026-04-04T12:32:57Z</time></trkpt><trkpt lat="42.76040451487532" lon="13.181546261457578"><ele>1431.1999999999998</ele><time>2026-04-04T12:32:58Z</time></trkpt><trkpt lat="42.76049044422989" lon="13.181610580035345"><ele>1433.8000000000002</ele><time>2026-04-04T12:32:59Z</time></trkpt><trkpt lat="42.76060449758342" lon="13.181631774415676"><ele>1436.4</ele><time>2026-04-04T12:33:00Z</time></trkpt><trkpt lat="42.760697031191405" lon="13.181637737166891"><ele>1439.0</ele><time>2026-04-04T12:33:01Z</time></trkpt><trkpt lat="42.76082012596257" lon="13.181616256277845"><ele>1439.0</ele><time>2026-04-04T12:33:02Z</time></trkpt><trkpt lat="42.76096240976363" lon="13.181630238034487"><ele>1439.0</ele><time>2026-04-04T12:33:03Z</time></trkpt><trkpt lat="42.761111867464955" lon="13.181615693326929"><ele>1439.0</ele><time>2026-04-04T12:33:04Z</time></trkpt><trkpt lat="42.761256499731914" lon="13.181577187914298"><ele>1439.0</ele><time>2026-04-04T12:33:05Z</time></trkpt><trkpt lat="42.761390178055606" lon="13.181506769998121"><ele>1439.0</ele><time>2026-04-04T12:33:06Z</time></trkpt><trkpt lat="42.761509116815176" lon="13.181385285860639"><ele>1439.0</ele><time>2026-04-04T12:33:07Z</time></trkpt><trkpt lat="42.76160741959512" lon="13.18123414249217"><ele>1439.0</ele><time>2026-04-04T12:33:08Z</time></trkpt><trkpt lat="42.761692121616285" lon="13.18103479613495"><ele>1439.0</ele><time>2026-04-04T12:33:09Z</time></trkpt><trkpt lat="42.76176198663445" lon="13.180813763675745"><ele>1439.0</ele><time>2026-04-04T12:33:10Z</time></trkpt><trkpt lat="42.76181330983575" lon="13.180567620870734"><ele>1439.0</ele><time>2026-04-04T12:33:11Z</time></trkpt><trkpt lat="42.76188811187021" lon="13.180314682545973"><ele>1450.3333333333335</ele><time>2026-04-04T12:33:12Z</time></trkpt><trkpt lat="42.76195659900078" lon="13.180045157296306"><ele>1461.6666666666667</ele><time>2026-04-04T12:33:13Z</time></trkpt><trkpt lat="42.76205246615773" lon="13.17977302973221"><ele>1473.0</ele><time>2026-04-04T12:33:14Z</time></trkpt><trkpt lat="42.76213972612662" lon="13.179505332057838"><ele>1473.0</ele><time>2026-04-04T12:33:15Z</time></trkpt><trkpt lat="42.762211194388485" lon="13.179209145594728"><ele>1473.0</ele><time>2026-04-04T12:33:16Z</time></trkpt><trkpt lat="42.76227369671153" lon="13.178923650990217"><ele>1473.0</ele><time>2026-04-04T12:33:17Z</time></trkpt><trkpt lat="42.762357815020394" lon="13.178620832232117"><ele>1469.0</ele><time>2026-04-04T12:33:18Z</time></trkpt><trkpt lat="42.76243068938289" lon="13.178335031458404"><ele>1465.0</ele><time>2026-04-04T12:33:19Z</time></trkpt><trkpt lat="42.762510356983455" lon="13.17804981815487"><ele>1461.0</ele><time>2026-04-04T12:33:20Z</time></trkpt><trkpt lat="42.76258644927215" lon="13.177792033094631"><ele>1462.0</ele><time>2026-04-04T12:33:21Z</time></trkpt><trkpt lat="42.762654607187635" lon="13.177562664185725"><ele>1463.0</ele><time>2026-04-04T12:33:22Z</time></trkpt><trkpt lat="42.76271134540734" lon="13.177378653487091"><ele>1464.0</ele><time>2026-04-04T12:33:23Z</time></trkpt><trkpt lat="42.76276694614966" lon="13.177211412638083"><ele>1460.3333333333333</ele><time>2026-04-04T12:33:24Z</time></trkpt><trkpt lat="42.76281598340668" lon="13.177101020330351"><ele>1456.6666666666667</ele><time>2026-04-04T12:33:25Z</time></trkpt><trkpt lat="42.76286941997352" lon="13.177019321205927"><ele>1453.0</ele><time>2026-04-04T12:33:26Z</time></trkpt><trkpt lat="42.76292426296216" lon="13.176972469771881"><ele>1449.3333333333335</ele><time>2026-04-04T12:33:27Z</time></trkpt><trkpt lat="42.76301825360486" lon="13.177009870258107"><ele>1445.6666666666667</ele><time>2026-04-04T12:33:29Z</time></trkpt><trkpt lat="42.76308413825879" lon="13.17709301359086"><ele>1442.0</ele><time>2026-04-04T12:33:30Z</time></trkpt><trkpt lat="42.763153164412586" lon="13.177174964255785"><ele>1442.0</ele><time>2026-04-04T12:33:31Z</time></trkpt><trkpt lat="42.763238454661234" lon="13.177280412241737"><ele>1442.0</ele><time>2026-04-04T12:33:32Z</time></trkpt><trkpt lat="42.76331795132014" lon="13.177396373967623"><ele>1442.0</ele><time>2026-04-04T12:33:33Z</time></trkpt><trkpt lat="42.763401263574096" lon="13.177515851171469"><ele>1442.0</ele><time>2026-04-04T12:33:34Z</time></trkpt><trkpt lat="42.76349544586826" lon="13.177627039671078"><ele>1444.0</ele><time>2026-04-04T12:33:35Z</time></trkpt><trkpt lat="42.76357860628241" lon="13.177761339352244"><ele>1446.0</ele><time>2026-04-04T12:33:36Z</time></trkpt><trkpt lat="42.76368493083176" lon="13.17786869459653"><ele>1448.0</ele><time>2026-04-04T12:33:37Z</time></trkpt><trkpt lat="42.76378870843494" lon="13.177987551193297"><ele>1450.0</ele><time>2026-04-04T12:33:38Z</time></trkpt><trkpt lat="42.76389168614594" lon="13.178134601768486"><ele>1455.5</ele><time>2026-04-04T12:33:39Z</time></trkpt><trkpt lat="42.76399006407678" lon="13.178261035462944"><ele>1461.0</ele><time>2026-04-04T12:33:40Z</time></trkpt><trkpt lat="42.76409010666359" lon="13.178380577830474"><ele>1466.5</ele><time>2026-04-04T12:33:41Z</time></trkpt><trkpt lat="42.76419755304118" lon="13.178499601049328"><ele>1472.0</ele><time>2026-04-04T12:33:42Z</time></trkpt><trkpt lat="42.76427888737108" lon="13.178614906508866"><ele>1472.0</ele><time>2026-04-04T12:33:43Z</time></trkpt><trkpt lat="42.76439537689947" lon="13.17874134547974"><ele>1472.0</ele><time>2026-04-04T12:33:44Z</time></trkpt><trkpt lat="42.76449909084862" lon="13.1788740928299"><ele>1472.0</ele><time>2026-04-04T12:33:45Z</time></trkpt><trkpt lat="42.76458721165039" lon="13.179025509757198"><ele>1472.0</ele><time>2026-04-04T12:33:46Z</time></trkpt><trkpt lat="42.76468156655219" lon="13.179176889610618"><ele>1472.75</ele><time>2026-04-04T12:33:47Z</time></trkpt><trkpt lat="42.764747333162354" lon="13.179334997033674"><ele>1473.5</ele><time>2026-04-04T12:33:48Z</time></trkpt><trkpt lat="42.76478764857205" lon="13.17948116450355"><ele>1474.25</ele><time>2026-04-04T12:33:49Z</time></trkpt><trkpt lat="42.76481421472989" lon="13.179647072198582"><ele>1475.0</ele><time>2026-04-04T12:33:50Z</time></trkpt><trkpt lat="42.764830693108536" lon="13.17981190836789"><ele>1475.6</ele><time>2026-04-04T12:33:51Z</time></trkpt><trkpt lat="42.76485215461258" lon="13.179982020305456"><ele>1476.2</ele><time>2026-04-04T12:33:52Z</time></trkpt><trkpt lat="42.764881625828195" lon="13.18016003359575"><ele>1476.8000000000002</ele><time>2026-04-04T12:33:53Z</time></trkpt><trkpt lat="42.76492733175663" lon="13.180227997344405"><ele>1477.4</ele><time>2026-04-04T12:33:54Z</time></trkpt><trkpt lat="42.764993046377775" lon="13.180315299991491"><ele>1478.0</ele><time>2026-04-04T12:33:55Z</time></trkpt><trkpt lat="42.76509481001397" lon="13.180366023023094"><ele>1478.0</ele><time>2026-04-04T12:33:56Z</time></trkpt><trkpt lat="42.76519046410256" lon="13.180381305390657"><ele>1478.0</ele><time>2026-04-04T12:33:57Z</time></trkpt><trkpt lat="42.765286533452056" lon="13.180371473095832"><ele>1478.0</ele><time>2026-04-04T12:33:58Z</time></trkpt><trkpt lat="42.765383640604426" lon="13.180332914468085"><ele>1478.0</ele><time>2026-04-04T12:33:59Z</time></trkpt><trkpt lat="42.76548367816818" lon="13.180271929111278"><ele>1478.0</ele><time>2026-04-04T12:34:00Z</time></trkpt><trkpt lat="42.76558345793403" lon="13.180200053472168"><ele>1480.25</ele><time>2026-04-04T12:34:01Z</time></trkpt><trkpt lat="42.765680780656865" lon="13.180115403041652"><ele>1482.5</ele><time>2026-04-04T12:34:02Z</time></trkpt><trkpt lat="42.765776697114596" lon="13.180024056331302"><ele>1484.75</ele><time>2026-04-04T12:34:03Z</time></trkpt><trkpt lat="42.76586699816599" lon="13.17993514772952"><ele>1487.0</ele><time>2026-04-04T12:34:04Z</time></trkpt><trkpt lat="42.76596584578114" lon="13.17986376387892"><ele>1487.6666666666667</ele><time>2026-04-04T12:34:05Z</time></trkpt><trkpt lat="42.76604978270758" lon="13.179795655455507"><ele>1488.3333333333335</ele><time>2026-04-04T12:34:06Z</time></trkpt><trkpt lat="42.7661175714351" lon="13.179735740863448"><ele>1489.0</ele><time>2026-04-04T12:34:07Z</time></trkpt><trkpt lat="42.76618938713119" lon="13.179744380905355"><ele>1489.6666666666667</ele><time>2026-04-04T12:34:08Z</time></trkpt><trkpt lat="42.7662545347555" lon="13.179805219062478"><ele>1490.3333333333333</ele><time>2026-04-04T12:34:09Z</time></trkpt><trkpt lat="42.76630931143027" lon="13.17988771710962"><ele>1491.0</ele><time>2026-04-04T12:34:10Z</time></trkpt><trkpt lat="42.766341371499315" lon="13.179988376009751"><ele>1492.6</ele><time>2026-04-04T12:34:11Z</time></trkpt><trkpt lat="42.766338991264206" lon="13.180106297025494"><ele>1494.1999999999998</ele><time>2026-04-04T12:34:12Z</time></trkpt><trkpt lat="42.76631637171476" lon="13.18024096852296"><ele>1495.8000000000002</ele><time>2026-04-04T12:34:13Z</time></trkpt><trkpt lat="42.766271960390924" lon="13.180366123166252"><ele>1497.4</ele><time>2026-04-04T12:34:14Z</time></trkpt><trkpt lat="42.76620758160486" lon="13.180473597723182"><ele>1499.0</ele><time>2026-04-04T12:34:15Z</time></trkpt><trkpt lat="42.7661349458882" lon="13.180565687812681"><ele>1499.0</ele><time>2026-04-04T12:34:16Z</time></trkpt><trkpt lat="42.76606292158704" lon="13.18064111131707"><ele>1499.0</ele><time>2026-04-04T12:34:17Z</time></trkpt><trkpt lat="42.76599150361169" lon="13.180710143485193"><ele>1499.0</ele><time>2026-04-04T12:34:18Z</time></trkpt><trkpt lat="42.76593188787799" lon="13.180788111460151"><ele>1499.0</ele><time>2026-04-04T12:34:19Z</time></trkpt><trkpt lat="42.765864018327704" lon="13.180890708899636"><ele>1499.0</ele><time>2026-04-04T12:34:20Z</time></trkpt><trkpt lat="42.76580599916096" lon="13.180988237423128"><ele>1498.8000000000002</ele><time>2026-04-04T12:34:21Z</time></trkpt><trkpt lat="42.765756065613935" lon="13.181111157554435"><ele>1498.6000000000001</ele><time>2026-04-04T12:34:22Z</time></trkpt><trkpt lat="42.765713156451966" lon="13.181246106500126"><ele>1498.4</ele><time>2026-04-04T12:34:23Z</time></trkpt><trkpt lat="42.765682952944694" lon="13.181386384963945"><ele>1498.2</ele><time>2026-04-04T12:34:24Z</time></trkpt><trkpt lat="42.76566515134606" lon="13.18153984873869"><ele>1498.0</ele><time>2026-04-04T12:34:25Z</time></trkpt><trkpt lat="42.76564446479013" lon="13.181712250198984"><ele>1500.0</ele><time>2026-04-04T12:34:26Z</time></trkpt><trkpt lat="42.765636191851826" lon="13.18185413202093"><ele>1502.0</ele><time>2026-04-04T12:34:27Z</time></trkpt><trkpt lat="42.76564229028722" lon="13.182000605996938"><ele>1504.0</ele><time>2026-04-04T12:34:28Z</time></trkpt><trkpt lat="42.76564768542976" lon="13.182129137295277"><ele>1506.0</ele><time>2026-04-04T12:34:29Z</time></trkpt><trkpt lat="42.765651554662156" lon="13.182235143025423"><ele>1508.0</ele><time>2026-04-04T12:34:30Z</time></trkpt><trkpt lat="42.76565448259247" lon="13.182333077401195"><ele>1508.8333333333335</ele><time>2026-04-04T12:34:31Z</time></trkpt><trkpt lat="42.76565736920657" lon="13.18244047926937"><ele>1509.6666666666667</ele><time>2026-04-04T12:34:32Z</time></trkpt><trkpt lat="42.76566030639112" lon="13.18256127345108"><ele>1510.5</ele><time>2026-04-04T12:34:34Z</time></trkpt><trkpt lat="42.765678197251454" lon="13.182687688205146"><ele>1511.3333333333333</ele><time>2026-04-04T12:34:35Z</time></trkpt><trkpt lat="42.76571572019646" lon="13.182799555592066"><ele>1512.1666666666665</ele><time>2026-04-04T12:34:36Z</time></trkpt><trkpt lat="42.76573456558677" lon="13.182898941230816"><ele>1513.0</ele><time>2026-04-04T12:34:37Z</time></trkpt><trkpt lat="42.7657508761339" lon="13.18298641948414"><ele>1513.0</ele><time>2026-04-04T12:34:38Z</time></trkpt><trkpt lat="42.76577400915023" lon="13.183087759326588"><ele>1513.0</ele><time>2026-04-04T12:34:40Z</time></trkpt><trkpt lat="42.76583489740616" lon="13.183180983955753"><ele>1513.0</ele><time>2026-04-04T12:34:42Z</time></trkpt><trkpt lat="42.76588826239111" lon="13.183319455988043"><ele>1513.0</ele><time>2026-04-04T12:34:44Z</time></trkpt><trkpt lat="42.76597709683965" lon="13.183440225693495"><ele>1513.0</ele><time>2026-04-04T12:34:46Z</time></trkpt><trkpt lat="42.76606122334494" lon="13.183480298737495"><ele>1512.4</ele><time>2026-04-04T12:34:47Z</time></trkpt><trkpt lat="42.76613980267565" lon="13.18352921302822"><ele>1511.8000000000002</ele><time>2026-04-04T12:34:48Z</time></trkpt><trkpt lat="42.76623843720785" lon="13.18355075690056"><ele>1511.2</ele><time>2026-04-04T12:34:49Z</time></trkpt><trkpt lat="42.76634850012313" lon="13.183548778561454"><ele>1510.6</ele><time>2026-04-04T12:34:50Z</time></trkpt><trkpt lat="42.76647674529841" lon="13.183540592170614"><ele>1510.0</ele><time>2026-04-04T12:34:51Z</time></trkpt><trkpt lat="42.76662336458308" lon="13.18352514949055"><ele>1510.0</ele><time>2026-04-04T12:34:52Z</time></trkpt><trkpt lat="42.76676744708137" lon="13.183508013782179"><ele>1510.0</ele><time>2026-04-04T12:34:53Z</time></trkpt><trkpt lat="42.76691934311985" lon="13.183487467466767"><ele>1510.0</ele><time>2026-04-04T12:34:54Z</time></trkpt><trkpt lat="42.76705876060001" lon="13.18346865363908"><ele>1510.0</ele><time>2026-04-04T12:34:55Z</time></trkpt><trkpt lat="42.7671944047372" lon="13.183441256952646"><ele>1509.5</ele><time>2026-04-04T12:34:56Z</time></trkpt><trkpt lat="42.76732924699792" lon="13.183387689469946"><ele>1509.0</ele><time>2026-04-04T12:34:57Z</time></trkpt><trkpt lat="42.7674595947124" lon="13.183309064839804"><ele>1508.5</ele><time>2026-04-04T12:34:58Z</time></trkpt><trkpt lat="42.76759179398585" lon="13.183213715005847"><ele>1508.0</ele><time>2026-04-04T12:34:59Z</time></trkpt><trkpt lat="42.76772822932868" lon="13.18313077192899"><ele>1508.0</ele><time>2026-04-04T12:35:00Z</time></trkpt><trkpt lat="42.76787277849257" lon="13.183066362397113"><ele>1508.0</ele><time>2026-04-04T12:35:01Z</time></trkpt><trkpt lat="42.768027751073575" lon="13.183021365080346"><ele>1508.0</ele><time>2026-04-04T12:35:02Z</time></trkpt><trkpt lat="42.768185632240225" lon="13.182989971414214"><ele>1508.0</ele><time>2026-04-04T12:35:03Z</time></trkpt><trkpt lat="42.76834368037777" lon="13.182950853604083"><ele>1508.0</ele><time>2026-04-04T12:35:04Z</time></trkpt><trkpt lat="42.7684980721169" lon="13.182904970466847"><ele>1508.0</ele><time>2026-04-04T12:35:05Z</time></trkpt><trkpt lat="42.76864721795574" lon="13.18286923803841"><ele>1506.0</ele><time>2026-04-04T12:35:06Z</time></trkpt><trkpt lat="42.76879376979203" lon="13.182834310359809"><ele>1504.0</ele><time>2026-04-04T12:35:07Z</time></trkpt><trkpt lat="42.76893894451528" lon="13.182810129473996"><ele>1502.0</ele><time>2026-04-04T12:35:08Z</time></trkpt><trkpt lat="42.76909259202413" lon="13.182797944895144"><ele>1500.0</ele><time>2026-04-04T12:35:09Z</time></trkpt><trkpt lat="42.76925028514585" lon="13.182799926738575"><ele>1497.0</ele><time>2026-04-04T12:35:10Z</time></trkpt><trkpt lat="42.76941461530294" lon="13.18281298857952"><ele>1494.0</ele><time>2026-04-04T12:35:11Z</time></trkpt><trkpt lat="42.76957355289068" lon="13.182834671808227"><ele>1491.0</ele><time>2026-04-04T12:35:12Z</time></trkpt><trkpt lat="42.76972702926708" lon="13.182867785785739"><ele>1491.0</ele><time>2026-04-04T12:35:13Z</time></trkpt><trkpt lat="42.76987282046815" lon="13.182915913868134"><ele>1491.0</ele><time>2026-04-04T12:35:14Z</time></trkpt><trkpt lat="42.770015804928384" lon="13.182972938476569"><ele>1491.0</ele><time>2026-04-04T12:35:15Z</time></trkpt><trkpt lat="42.77015640060017" lon="13.18302427606111"><ele>1491.0</ele><time>2026-04-04T12:35:16Z</time></trkpt><trkpt lat="42.770301684236536" lon="13.183074024582638"><ele>1490.6666666666667</ele><time>2026-04-04T12:35:17Z</time></trkpt><trkpt lat="42.77044904403842" lon="13.18311878051793"><ele>1490.3333333333335</ele><time>2026-04-04T12:35:18Z</time></trkpt><trkpt lat="42.770596914556926" lon="13.183165286797419"><ele>1490.0</ele><time>2026-04-04T12:35:19Z</time></trkpt><trkpt lat="42.770748240174676" lon="13.1832053570422"><ele>1482.0</ele><time>2026-04-04T12:35:20Z</time></trkpt><trkpt lat="42.77089984834521" lon="13.183248746832604"><ele>1474.0</ele><time>2026-04-04T12:35:21Z</time></trkpt><trkpt lat="42.77105030708052" lon="13.183293890561087"><ele>1466.0</ele><time>2026-04-04T12:35:22Z</time></trkpt><trkpt lat="42.77120334119137" lon="13.183314990120925"><ele>1464.5</ele><time>2026-04-04T12:35:23Z</time></trkpt><trkpt lat="42.77135216590273" lon="13.18335207321755"><ele>1463.0</ele><time>2026-04-04T12:35:24Z</time></trkpt><trkpt lat="42.77149616943965" lon="13.183379184646629"><ele>1461.5</ele><time>2026-04-04T12:35:25Z</time></trkpt><trkpt lat="42.77162612152399" lon="13.183403650620827"><ele>1460.0</ele><time>2026-04-04T12:35:26Z</time></trkpt><trkpt lat="42.771775458651675" lon="13.183196665567557"><ele>1460.5</ele><time>2026-04-04T12:35:27Z</time></trkpt><trkpt lat="42.771905128282526" lon="13.183171311645685"><ele>1461.0</ele><time>2026-04-04T12:35:28Z</time></trkpt><trkpt lat="42.77203304584784" lon="13.183187486777914"><ele>1461.5</ele><time>2026-04-04T12:35:29Z</time></trkpt><trkpt lat="42.772157596496584" lon="13.183252578254002"><ele>1462.0</ele><time>2026-04-04T12:35:30Z</time></trkpt><trkpt lat="42.772275855359325" lon="13.183363930441542"><ele>1462.0</ele><time>2026-04-04T12:35:31Z</time></trkpt><trkpt lat="42.772393076888385" lon="13.18349260305567"><ele>1462.0</ele><time>2026-04-04T12:35:32Z</time></trkpt><trkpt lat="42.77253655855858" lon="13.18359429693948"><ele>1462.0</ele><time>2026-04-04T12:35:33Z</time></trkpt><trkpt lat="42.772688629219495" lon="13.18365791927895"><ele>1463.5</ele><time>2026-04-04T12:35:34Z</time></trkpt><trkpt lat="42.77283721422235" lon="13.183685977686142"><ele>1465.0</ele><time>2026-04-04T12:35:35Z</time></trkpt><trkpt lat="42.772979852043484" lon="13.183708213489457"><ele>1466.5</ele><time>2026-04-04T12:35:36Z</time></trkpt><trkpt lat="42.77311471070282" lon="13.183761336071623"><ele>1468.0</ele><time>2026-04-04T12:35:37Z</time></trkpt><trkpt lat="42.77323582497236" lon="13.183873577487525"><ele>1464.6666666666665</ele><time>2026-04-04T12:35:38Z</time></trkpt><trkpt lat="42.77334130577885" lon="13.18402576495777"><ele>1461.3333333333333</ele><time>2026-04-04T12:35:39Z</time></trkpt><trkpt lat="42.77345298034868" lon="13.184189074254565"><ele>1458.0</ele><time>2026-04-04T12:35:40Z</time></trkpt><trkpt lat="42.77356767424915" lon="13.184355492705885"><ele>1458.0</ele><time>2026-04-04T12:35:41Z</time></trkpt><trkpt lat="42.773690766919415" lon="13.18451564337194"><ele>1458.0</ele><time>2026-04-04T12:35:42Z</time></trkpt><trkpt lat="42.77381962084039" lon="13.184665930960941"><ele>1458.0</ele><time>2026-04-04T12:35:43Z</time></trkpt><trkpt lat="42.773954653088055" lon="13.184795693190827"><ele>1451.6666666666667</ele><time>2026-04-04T12:35:44Z</time></trkpt><trkpt lat="42.7740956402793" lon="13.184914241913958"><ele>1445.3333333333335</ele><time>2026-04-04T12:35:45Z</time></trkpt><trkpt lat="42.77423869275462" lon="13.18502781601095"><ele>1439.0</ele><time>2026-04-04T12:35:46Z</time></trkpt><trkpt lat="42.774382821716955" lon="13.185123836932487"><ele>1439.0</ele><time>2026-04-04T12:35:47Z</time></trkpt><trkpt lat="42.774511280287264" lon="13.1852248119419"><ele>1439.0</ele><time>2026-04-04T12:35:48Z</time></trkpt><trkpt lat="42.7746343178534" lon="13.185304123727924"><ele>1439.0</ele><time>2026-04-04T12:35:49Z</time></trkpt><trkpt lat="42.774757711890146" lon="13.185362572699661"><ele>1439.0</ele><time>2026-04-04T12:35:50Z</time></trkpt><trkpt lat="42.7749017278043" lon="13.185379241777083"><ele>1439.0</ele><time>2026-04-04T12:35:51Z</time></trkpt><trkpt lat="42.77504789319544" lon="13.185347878301863"><ele>1439.0</ele><time>2026-04-04T12:35:52Z</time></trkpt><trkpt lat="42.77519786506431" lon="13.185314797294472"><ele>1439.0</ele><time>2026-04-04T12:35:53Z</time></trkpt><trkpt lat="42.77535425566398" lon="13.18531482712164"><ele>1437.0</ele><time>2026-04-04T12:35:54Z</time></trkpt><trkpt lat="42.77551336256735" lon="13.18534786060002"><ele>1435.0</ele><time>2026-04-04T12:35:55Z</time></trkpt><trkpt lat="42.77567281050096" lon="13.185390720556668"><ele>1433.0</ele><time>2026-04-04T12:35:56Z</time></trkpt><trkpt lat="42.77582856254634" lon="13.185417121498732"><ele>1433.0</ele><time>2026-04-04T12:35:57Z</time></trkpt><trkpt lat="42.77597923195326" lon="13.185426087723371"><ele>1433.0</ele><time>2026-04-04T12:35:58Z</time></trkpt><trkpt lat="42.77612627484589" lon="13.18543245140659"><ele>1433.0</ele><time>2026-04-04T12:35:59Z</time></trkpt><trkpt lat="42.77627234173528" lon="13.18543898016187"><ele>1433.0</ele><time>2026-04-04T12:36:00Z</time></trkpt><trkpt lat="42.776415606709115" lon="13.185435327206058"><ele>1429.0</ele><time>2026-04-04T12:36:01Z</time></trkpt><trkpt lat="42.77656437560443" lon="13.185401669025193"><ele>1425.0</ele><time>2026-04-04T12:36:02Z</time></trkpt><trkpt lat="42.77671659730945" lon="13.185335154552194"><ele>1421.0</ele><time>2026-04-04T12:36:03Z</time></trkpt><trkpt lat="42.77686587541451" lon="13.185258771112327"><ele>1418.0</ele><time>2026-04-04T12:36:04Z</time></trkpt><trkpt lat="42.777020946013" lon="13.185199350661952"><ele>1415.0</ele><time>2026-04-04T12:36:05Z</time></trkpt><trkpt lat="42.77717304097936" lon="13.185157693051053"><ele>1412.0</ele><time>2026-04-04T12:36:06Z</time></trkpt><trkpt lat="42.77732519863452" lon="13.18512681295038"><ele>1412.0</ele><time>2026-04-04T12:36:07Z</time></trkpt><trkpt lat="42.77746691419632" lon="13.185082373235385"><ele>1412.0</ele><time>2026-04-04T12:36:08Z</time></trkpt><trkpt lat="42.777599318575454" lon="13.185013768913336"><ele>1412.0</ele><time>2026-04-04T12:36:09Z</time></trkpt><trkpt lat="42.7777240431245" lon="13.184958337919554"><ele>1412.0</ele><time>2026-04-04T12:36:10Z</time></trkpt><trkpt lat="42.77787172774022" lon="13.184930804449603"><ele>1407.0</ele><time>2026-04-04T12:36:11Z</time></trkpt><trkpt lat="42.778025626007036" lon="13.18494386318728"><ele>1402.0</ele><time>2026-04-04T12:36:12Z</time></trkpt><trkpt lat="42.778182655101524" lon="13.184959852649888"><ele>1397.0</ele><time>2026-04-04T12:36:13Z</time></trkpt><trkpt lat="42.778345451807425" lon="13.184953440931697"><ele>1393.3333333333335</ele><time>2026-04-04T12:36:14Z</time></trkpt><trkpt lat="42.778520894906144" lon="13.184884815756545"><ele>1389.6666666666667</ele><time>2026-04-04T12:36:15Z</time></trkpt><trkpt lat="42.77870025257934" lon="13.184876306217728"><ele>1386.0</ele><time>2026-04-04T12:36:16Z</time></trkpt><trkpt lat="42.77887696712442" lon="13.184858227751223"><ele>1386.0</ele><time>2026-04-04T12:36:17Z</time></trkpt><trkpt lat="42.77905386441914" lon="13.18484744055898"><ele>1386.0</ele><time>2026-04-04T12:36:18Z</time></trkpt><trkpt lat="42.779233337390444" lon="13.184848537718684"><ele>1386.0</ele><time>2026-04-04T12:36:19Z</time></trkpt><trkpt lat="42.77941698313449" lon="13.18485614907994"><ele>1383.3333333333333</ele><time>2026-04-04T12:36:20Z</time></trkpt><trkpt lat="42.77959785357667" lon="13.184859163897835"><ele>1380.6666666666665</ele><time>2026-04-04T12:36:21Z</time></trkpt><trkpt lat="42.77978007182449" lon="13.184850798427615"><ele>1378.0</ele><time>2026-04-04T12:36:22Z</time></trkpt><trkpt lat="42.77995332594" lon="13.184840558772969"><ele>1384.0</ele><time>2026-04-04T12:36:23Z</time></trkpt><trkpt lat="42.78010682696608" lon="13.184823553268618"><ele>1390.0</ele><time>2026-04-04T12:36:24Z</time></trkpt><trkpt lat="42.78024727312367" lon="13.184786602432773"><ele>1396.0</ele><time>2026-04-04T12:36:25Z</time></trkpt><trkpt lat="42.780385683118666" lon="13.184729023157402"><ele>1402.0</ele><time>2026-04-04T12:36:26Z</time></trkpt><trkpt lat="42.780507690931444" lon="13.184640476601471"><ele>1402.0</ele><time>2026-04-04T12:36:27Z</time></trkpt><trkpt lat="42.78063053389057" lon="13.18455889705171"><ele>1402.0</ele><time>2026-04-04T12:36:28Z</time></trkpt><trkpt lat="42.78077101178069" lon="13.184519390921869"><ele>1402.0</ele><time>2026-04-04T12:36:29Z</time></trkpt><trkpt lat="42.780925216578446" lon="13.184514989036236"><ele>1402.0</ele><time>2026-04-04T12:36:30Z</time></trkpt><trkpt lat="42.78108198543929" lon="13.184508204300903"><ele>1396.3333333333333</ele><time>2026-04-04T12:36:31Z</time></trkpt><trkpt lat="42.781242935009146" lon="13.184492587351354"><ele>1390.6666666666667</ele><time>2026-04-04T12:36:32Z</time></trkpt><trkpt lat="42.781408277435496" lon="13.18446393967931"><ele>1385.0</ele><time>2026-04-04T12:36:33Z</time></trkpt><trkpt lat="42.78157585272584" lon="13.184444617956599"><ele>1385.0</ele><time>2026-04-04T12:36:34Z</time></trkpt><trkpt lat="42.78175162751745" lon="13.184428402617204"><ele>1385.0</ele><time>2026-04-04T12:36:35Z</time></trkpt><trkpt lat="42.78192700365808" lon="13.184415631273254"><ele>1385.0</ele><time>2026-04-04T12:36:36Z</time></trkpt><trkpt lat="42.78209761726473" lon="13.184394251784559"><ele>1381.0</ele><time>2026-04-04T12:36:37Z</time></trkpt><trkpt lat="42.78226202146656" lon="13.184367698601525"><ele>1377.0</ele><time>2026-04-04T12:36:38Z</time></trkpt><trkpt lat="42.78242278007548" lon="13.184337535522161"><ele>1373.0</ele><time>2026-04-04T12:36:39Z</time></trkpt><trkpt lat="42.782579711260006" lon="13.184301056615656"><ele>1367.0</ele><time>2026-04-04T12:36:40Z</time></trkpt><trkpt lat="42.782731266123456" lon="13.184259667929533"><ele>1361.0</ele><time>2026-04-04T12:36:41Z</time></trkpt><trkpt lat="42.782881936727385" lon="13.184217237866923"><ele>1355.0</ele><time>2026-04-04T12:36:42Z</time></trkpt><trkpt lat="42.78303120329629" lon="13.184178762354422"><ele>1355.0</ele><time>2026-04-04T12:36:43Z</time></trkpt><trkpt lat="42.78317753403136" lon="13.18413675134728"><ele>1355.0</ele><time>2026-04-04T12:36:44Z</time></trkpt><trkpt lat="42.78331876241582" lon="13.184083193535159"><ele>1355.0</ele><time>2026-04-04T12:36:45Z</time></trkpt><trkpt lat="42.783446896515095" lon="13.183991658851902"><ele>1355.0</ele><time>2026-04-04T12:36:46Z</time></trkpt><trkpt lat="42.78357362532748" lon="13.18387229340218"><ele>1350.3333333333335</ele><time>2026-04-04T12:36:47Z</time></trkpt><trkpt lat="42.783693787637915" lon="13.1837433433756"><ele>1345.6666666666667</ele><time>2026-04-04T12:36:48Z</time></trkpt><trkpt lat="42.783813221940605" lon="13.18360105768109"><ele>1341.0</ele><time>2026-04-04T12:36:49Z</time></trkpt><trkpt lat="42.78390853767161" lon="13.183427907418222"><ele>1341.0</ele><time>2026-04-04T12:36:50Z</time></trkpt><trkpt lat="42.78401572476083" lon="13.183248538610238"><ele>1341.0</ele><time>2026-04-04T12:36:51Z</time></trkpt><trkpt lat="42.78412343290543" lon="13.183070918642288"><ele>1341.0</ele><time>2026-04-04T12:36:52Z</time></trkpt><trkpt lat="42.78422994790337" lon="13.182891049188681"><ele>1337.0</ele><time>2026-04-04T12:36:53Z</time></trkpt><trkpt lat="42.784333996082566" lon="13.182714475739145"><ele>1333.0</ele><time>2026-04-04T12:36:54Z</time></trkpt><trkpt lat="42.7844243722394" lon="13.182538452251746"><ele>1329.0</ele><time>2026-04-04T12:36:55Z</time></trkpt><trkpt lat="42.784505084145266" lon="13.182377240826442"><ele>1336.75</ele><time>2026-04-04T12:36:56Z</time></trkpt><trkpt lat="42.784582375297504" lon="13.182232159416477"><ele>1344.5</ele><time>2026-04-04T12:36:57Z</time></trkpt><trkpt lat="42.78467652978755" lon="13.182109759625583"><ele>1352.25</ele><time>2026-04-04T12:36:58Z</time></trkpt><trkpt lat="42.784800970170714" lon="13.182021330591095"><ele>1360.0</ele><time>2026-04-04T12:36:59Z</time></trkpt><trkpt lat="42.78494501253495" lon="13.181981238860162"><ele>1360.0</ele><time>2026-04-04T12:37:00Z</time></trkpt><trkpt lat="42.78509990481081" lon="13.181983492638633"><ele>1360.0</ele><time>2026-04-04T12:37:01Z</time></trkpt><trkpt lat="42.78526028018646" lon="13.18201010680382"><ele>1360.0</ele><time>2026-04-04T12:37:02Z</time></trkpt><trkpt lat="42.7854267472633" lon="13.182047748722928"><ele>1359.6666666666665</ele><time>2026-04-04T12:37:03Z</time></trkpt><trkpt lat="42.78559708777108" lon="13.182094730055912"><ele>1359.3333333333333</ele><time>2026-04-04T12:37:04Z</time></trkpt><trkpt lat="42.785768392479" lon="13.182131735413057"><ele>1359.0</ele><time>2026-04-04T12:37:05Z</time></trkpt><trkpt lat="42.78594399773341" lon="13.182163662942164"><ele>1361.3333333333333</ele><time>2026-04-04T12:37:06Z</time></trkpt><trkpt lat="42.7861177466794" lon="13.182195193185517"><ele>1363.6666666666665</ele><time>2026-04-04T12:37:07Z</time></trkpt><trkpt lat="42.78629218846572" lon="13.182234653851348"><ele>1366.0</ele><time>2026-04-04T12:37:08Z</time></trkpt><trkpt lat="42.786462426154245" lon="13.18227982768002"><ele>1366.0</ele><time>2026-04-04T12:37:09Z</time></trkpt><trkpt lat="42.78662588014029" lon="13.182327658316666"><ele>1366.0</ele><time>2026-04-04T12:37:10Z</time></trkpt><trkpt lat="42.78678467736157" lon="13.182371644937184"><ele>1366.0</ele><time>2026-04-04T12:37:11Z</time></trkpt><trkpt lat="42.7869390408443" lon="13.18240618327777"><ele>1353.0</ele><time>2026-04-04T12:37:12Z</time></trkpt><trkpt lat="42.78709025085526" lon="13.1824275841233"><ele>1340.0</ele><time>2026-04-04T12:37:13Z</time></trkpt><trkpt lat="42.78723719403689" lon="13.182457433325471"><ele>1327.0</ele><time>2026-04-04T12:37:14Z</time></trkpt><trkpt lat="42.78738574537556" lon="13.182494121940424"><ele>1327.0</ele><time>2026-04-04T12:37:15Z</time></trkpt><trkpt lat="42.78753820041895" lon="13.182528597782637"><ele>1327.0</ele><time>2026-04-04T12:37:16Z</time></trkpt><trkpt lat="42.78768867935395" lon="13.182572813721553"><ele>1327.0</ele><time>2026-04-04T12:37:17Z</time></trkpt><trkpt lat="42.787838463761396" lon="13.18262702885782"><ele>1331.0</ele><time>2026-04-04T12:37:18Z</time></trkpt><trkpt lat="42.78798918413133" lon="13.182681116091478"><ele>1335.0</ele><time>2026-04-04T12:37:19Z</time></trkpt><trkpt lat="42.78813932787378" lon="13.182732018790093"><ele>1339.0</ele><time>2026-04-04T12:37:20Z</time></trkpt><trkpt lat="42.78829182597" lon="13.182775435765672"><ele>1339.0</ele><time>2026-04-04T12:37:21Z</time></trkpt><trkpt lat="42.78844228539873" lon="13.182825107832798"><ele>1339.0</ele><time>2026-04-04T12:37:22Z</time></trkpt><trkpt lat="42.788587052017604" lon="13.18287125490852"><ele>1339.0</ele><time>2026-04-04T12:37:23Z</time></trkpt><trkpt lat="42.788733755625664" lon="13.18290328082564"><ele>1338.6666666666665</ele><time>2026-04-04T12:37:24Z</time></trkpt><trkpt lat="42.7888800772378" lon="13.182915637276272"><ele>1338.3333333333333</ele><time>2026-04-04T12:37:25Z</time></trkpt><trkpt lat="42.789036707400896" lon="13.1829084243169"><ele>1338.0</ele><time>2026-04-04T12:37:26Z</time></trkpt><trkpt lat="42.789192305431186" lon="13.182898607449669"><ele>1335.6666666666667</ele><time>2026-04-04T12:37:27Z</time></trkpt><trkpt lat="42.789354067477475" lon="13.182889133451061"><ele>1333.3333333333335</ele><time>2026-04-04T12:37:28Z</time></trkpt><trkpt lat="42.78951888305633" lon="13.18288390292887"><ele>1331.0</ele><time>2026-04-04T12:37:29Z</time></trkpt><trkpt lat="42.789686465738576" lon="13.182886285140707"><ele>1331.0</ele><time>2026-04-04T12:37:30Z</time></trkpt><trkpt lat="42.789855854591956" lon="13.18290779807378"><ele>1331.0</ele><time>2026-04-04T12:37:31Z</time></trkpt><trkpt lat="42.79002615252134" lon="13.18292781738574"><ele>1331.0</ele><time>2026-04-04T12:37:32Z</time></trkpt><trkpt lat="42.79019527563457" lon="13.182933035022808"><ele>1328.0</ele><time>2026-04-04T12:37:33Z</time></trkpt><trkpt lat="42.790356408531444" lon="13.182927965939154"><ele>1325.0</ele><time>2026-04-04T12:37:34Z</time></trkpt><trkpt lat="42.79051786674534" lon="13.182911422880164"><ele>1322.0</ele><time>2026-04-04T12:37:35Z</time></trkpt><trkpt lat="42.79067888970942" lon="13.182880451787389"><ele>1322.0</ele><time>2026-04-04T12:37:36Z</time></trkpt><trkpt lat="42.79083775775147" lon="13.182836922563245"><ele>1322.0</ele><time>2026-04-04T12:37:37Z</time></trkpt><trkpt lat="42.79099747514969" lon="13.182786207608181"><ele>1322.0</ele><time>2026-04-04T12:37:38Z</time></trkpt><trkpt lat="42.79115546091662" lon="13.182736562063752"><ele>1315.6666666666667</ele><time>2026-04-04T12:37:39Z</time></trkpt><trkpt lat="42.791317501139524" lon="13.18268756086448"><ele>1309.3333333333333</ele><time>2026-04-04T12:37:40Z</time></trkpt><trkpt lat="42.791474259033734" lon="13.182640379293959"><ele>1303.0</ele><time>2026-04-04T12:37:41Z</time></trkpt><trkpt lat="42.79161950242749" lon="13.182591234885832"><ele>1303.0</ele><time>2026-04-04T12:37:42Z</time></trkpt><trkpt lat="42.79176150592593" lon="13.182544918181044"><ele>1303.0</ele><time>2026-04-04T12:37:43Z</time></trkpt><trkpt lat="42.791898938240905" lon="13.18249455122677"><ele>1303.0</ele><time>2026-04-04T12:37:44Z</time></trkpt><trkpt lat="42.79202745997186" lon="13.18243245407395"><ele>1303.0</ele><time>2026-04-04T12:37:45Z</time></trkpt><trkpt lat="42.79215060332209" lon="13.182358619275432"><ele>1303.75</ele><time>2026-04-04T12:37:46Z</time></trkpt><trkpt lat="42.79226989469705" lon="13.18228412315537"><ele>1304.5</ele><time>2026-04-04T12:37:47Z</time></trkpt><trkpt lat="42.792387542791225" lon="13.182202812416957"><ele>1305.25</ele><time>2026-04-04T12:37:48Z</time></trkpt><trkpt lat="42.79249741504522" lon="13.182122080387508"><ele>1306.0</ele><time>2026-04-04T12:37:49Z</time></trkpt><trkpt lat="42.792602782624414" lon="13.182039852489284"><ele>1302.6</ele><time>2026-04-04T12:37:50Z</time></trkpt><trkpt lat="42.792698739671025" lon="13.181954454325284"><ele>1299.1999999999998</ele><time>2026-04-04T12:37:51Z</time></trkpt><trkpt lat="42.792782812939265" lon="13.181880177568257"><ele>1295.8000000000002</ele><time>2026-04-04T12:37:52Z</time></trkpt><trkpt lat="42.792865371515326" lon="13.181813821863155"><ele>1292.4</ele><time>2026-04-04T12:37:53Z</time></trkpt><trkpt lat="42.79294257158107" lon="13.181756721783387"><ele>1289.0</ele><time>2026-04-04T12:37:54Z</time></trkpt><trkpt lat="42.79301392124386" lon="13.181698716403117"><ele>1289.0</ele><time>2026-04-04T12:37:55Z</time></trkpt><trkpt lat="42.7930851606662" lon="13.181638562105698"><ele>1289.0</ele><time>2026-04-04T12:37:56Z</time></trkpt><trkpt lat="42.79316166780746" lon="13.181581959640615"><ele>1289.0</ele><time>2026-04-04T12:37:57Z</time></trkpt><trkpt lat="42.793241348998045" lon="13.181534818681676"><ele>1289.0</ele><time>2026-04-04T12:37:58Z</time></trkpt><trkpt lat="42.79332286736317" lon="13.181491123524307"><ele>1289.0</ele><time>2026-04-04T12:37:59Z</time></trkpt><trkpt lat="42.79340699107634" lon="13.181453700745799"><ele>1289.0</ele><time>2026-04-04T12:38:00Z</time></trkpt><trkpt lat="42.793493540801634" lon="13.181430101916746"><ele>1288.3333333333335</ele><time>2026-04-04T12:38:01Z</time></trkpt><trkpt lat="42.79358151658638" lon="13.181425590503427"><ele>1287.6666666666667</ele><time>2026-04-04T12:38:02Z</time></trkpt><trkpt lat="42.79366749075663" lon="13.181434564039398"><ele>1287.0</ele><time>2026-04-04T12:38:03Z</time></trkpt><trkpt lat="42.793749840348546" lon="13.181453610264741"><ele>1286.3333333333333</ele><time>2026-04-04T12:38:04Z</time></trkpt><trkpt lat="42.79382634818666" lon="13.181486837016756"><ele>1285.6666666666665</ele><time>2026-04-04T12:38:05Z</time></trkpt><trkpt lat="42.79389660158985" lon="13.181529710199607"><ele>1285.0</ele><time>2026-04-04T12:38:06Z</time></trkpt><trkpt lat="42.79395640661888" lon="13.18158265998729"><ele>1285.0</ele><time>2026-04-04T12:38:07Z</time></trkpt><trkpt lat="42.79404911356019" lon="13.181676135973701"><ele>1285.0</ele><time>2026-04-04T12:38:09Z</time></trkpt><trkpt lat="42.794116804237824" lon="13.181754498548617"><ele>1285.0</ele><time>2026-04-04T12:38:11Z</time></trkpt><trkpt lat="42.794115272225596" lon="13.181842184271893"><ele>1285.0</ele><time>2026-04-04T12:38:15Z</time></trkpt><trkpt lat="42.794053749595385" lon="13.181821411791317"><ele>1285.0</ele><time>2026-04-04T12:39:41Z</time></trkpt><trkpt lat="42.794072457825" lon="13.181918461888007"><ele>1285.0</ele><time>2026-04-04T12:40:58Z</time></trkpt><trkpt lat="42.794050270971795" lon="13.181828745435281"><ele>1285.0</ele><time>2026-04-04T12:41:09Z</time></trkpt><trkpt lat="42.7941279066165" lon="13.181807939617268"><ele>1285.0</ele><time>2026-04-04T12:50:15Z</time></trkpt><trkpt lat="42.79420031053841" lon="13.181825522625527"><ele>1285.0</ele><time>2026-04-04T12:50:17Z</time></trkpt><trkpt lat="42.79425099936422" lon="13.181916055500881"><ele>1285.0</ele><time>2026-04-04T12:50:18Z</time></trkpt><trkpt lat="42.794308015778896" lon="13.182009733627414"><ele>1285.0</ele><time>2026-04-04T12:50:19Z</time></trkpt><trkpt lat="42.79437763780417" lon="13.182102008153375"><ele>1285.0</ele><time>2026-04-04T12:50:20Z</time></trkpt><trkpt lat="42.79446533420157" lon="13.182200158198578"><ele>1284.75</ele><time>2026-04-04T12:50:21Z</time></trkpt><trkpt lat="42.7945503440173" lon="13.1822991896719"><ele>1284.5</ele><time>2026-04-04T12:50:22Z</time></trkpt><trkpt lat="42.794630106223956" lon="13.182401596713433"><ele>1284.25</ele><time>2026-04-04T12:50:23Z</time></trkpt><trkpt lat="42.7947228087351" lon="13.182518239834048"><ele>1284.0</ele><time>2026-04-04T12:50:24Z</time></trkpt><trkpt lat="42.79482205073194" lon="13.182628245162697"><ele>1283.5</ele><time>2026-04-04T12:50:25Z</time></trkpt><trkpt lat="42.79490157998051" lon="13.182749033108115"><ele>1283.0</ele><time>2026-04-04T12:50:26Z</time></trkpt><trkpt lat="42.79498709955238" lon="13.182870622963609"><ele>1282.5</ele><time>2026-04-04T12:50:27Z</time></trkpt><trkpt lat="42.79508324676361" lon="13.182987254517577"><ele>1282.0</ele><time>2026-04-04T12:50:28Z</time></trkpt><trkpt lat="42.795176994607424" lon="13.183104840320661"><ele>1281.75</ele><time>2026-04-04T12:50:29Z</time></trkpt><trkpt lat="42.79526912178345" lon="13.183223336699449"><ele>1281.5</ele><time>2026-04-04T12:50:30Z</time></trkpt><trkpt lat="42.79536883551456" lon="13.183341223363213"><ele>1281.25</ele><time>2026-04-04T12:50:31Z</time></trkpt><trkpt lat="42.79545491028135" lon="13.183457284061047"><ele>1281.0</ele><time>2026-04-04T12:50:32Z</time></trkpt><trkpt lat="42.79554400693064" lon="13.183571636390022"><ele>1281.0</ele><time>2026-04-04T12:50:33Z</time></trkpt><trkpt lat="42.79563360848999" lon="13.183686467068178"><ele>1281.0</ele><time>2026-04-04T12:50:34Z</time></trkpt><trkpt lat="42.7957231130382" lon="13.183799641370976"><ele>1281.0</ele><time>2026-04-04T12:50:35Z</time></trkpt><trkpt lat="42.79580973923944" lon="13.183913045877114"><ele>1281.0</ele><time>2026-04-04T12:50:36Z</time></trkpt><trkpt lat="42.7959022421296" lon="13.184027561691078"><ele>1280.5</ele><time>2026-04-04T12:50:37Z</time></trkpt><trkpt lat="42.7959947086536" lon="13.184140000678804"><ele>1280.0</ele><time>2026-04-04T12:50:38Z</time></trkpt><trkpt lat="42.79608708004185" lon="13.184249670848681"><ele>1279.5</ele><time>2026-04-04T12:50:39Z</time></trkpt><trkpt lat="42.796181056983954" lon="13.184356215999689"><ele>1279.0</ele><time>2026-04-04T12:50:40Z</time></trkpt><trkpt lat="42.79627122495938" lon="13.18446803312997"><ele>1279.0</ele><time>2026-04-04T12:50:41Z</time></trkpt><trkpt lat="42.79635888580599" lon="13.184579815392397"><ele>1279.0</ele><time>2026-04-04T12:50:42Z</time></trkpt><trkpt lat="42.796447749522954" lon="13.18469382123606"><ele>1279.0</ele><time>2026-04-04T12:50:43Z</time></trkpt><trkpt lat="42.79653527052094" lon="13.184806296989148"><ele>1279.0</ele><time>2026-04-04T12:50:44Z</time></trkpt><trkpt lat="42.79662211659183" lon="13.184921547823482"><ele>1278.25</ele><time>2026-04-04T12:50:45Z</time></trkpt><trkpt lat="42.796719904201694" lon="13.185015275064329"><ele>1277.5</ele><time>2026-04-04T12:50:46Z</time></trkpt><trkpt lat="42.796801520223205" lon="13.18513357507477"><ele>1276.75</ele><time>2026-04-04T12:50:47Z</time></trkpt><trkpt lat="42.7968694192088" lon="13.18526497388864"><ele>1276.0</ele><time>2026-04-04T12:50:48Z</time></trkpt><trkpt lat="42.79695995298017" lon="13.185372138277312"><ele>1276.0</ele><time>2026-04-04T12:50:49Z</time></trkpt><trkpt lat="42.797051305176545" lon="13.18546773768902"><ele>1276.0</ele><time>2026-04-04T12:50:50Z</time></trkpt><trkpt lat="42.79712914119343" lon="13.18559429905351"><ele>1276.0</ele><time>2026-04-04T12:50:51Z</time></trkpt><trkpt lat="42.79721602166126" lon="13.185698924863539"><ele>1276.0</ele><time>2026-04-04T12:50:52Z</time></trkpt><trkpt lat="42.79730141305309" lon="13.185801751342636"><ele>1276.25</ele><time>2026-04-04T12:50:53Z</time></trkpt><trkpt lat="42.79739258578414" lon="13.185914480798639"><ele>1276.5</ele><time>2026-04-04T12:50:54Z</time></trkpt><trkpt lat="42.797479773011005" lon="13.186027284147842"><ele>1276.75</ele><time>2026-04-04T12:50:55Z</time></trkpt><trkpt lat="42.797535612639514" lon="13.186145541477408"><ele>1277.0</ele><time>2026-04-04T12:50:56Z</time></trkpt><trkpt lat="42.79763954145913" lon="13.186248583645249"><ele>1277.0</ele><time>2026-04-04T12:50:57Z</time></trkpt><trkpt lat="42.7977291730489" lon="13.186354947574763"><ele>1277.0</ele><time>2026-04-04T12:50:58Z</time></trkpt><trkpt lat="42.79781642417704" lon="13.186461456374351"><ele>1277.0</ele><time>2026-04-04T12:50:59Z</time></trkpt><trkpt lat="42.79790657054261" lon="13.186574262717613"><ele>1277.0</ele><time>2026-04-04T12:51:00Z</time></trkpt><trkpt lat="42.797995617274154" lon="13.186689876053215"><ele>1276.5</ele><time>2026-04-04T12:51:01Z</time></trkpt><trkpt lat="42.79808230053672" lon="13.186799192727358"><ele>1276.0</ele><time>2026-04-04T12:51:02Z</time></trkpt><trkpt lat="42.79816949212824" lon="13.18689987270952"><ele>1275.5</ele><time>2026-04-04T12:51:03Z</time></trkpt><trkpt lat="42.79825419623053" lon="13.187008252960238"><ele>1275.0</ele><time>2026-04-04T12:51:04Z</time></trkpt><trkpt lat="42.79833845658672" lon="13.18711710995936"><ele>1275.0</ele><time>2026-04-04T12:51:05Z</time></trkpt><trkpt lat="42.79842402590413" lon="13.187215099241895"><ele>1275.0</ele><time>2026-04-04T12:51:06Z</time></trkpt><trkpt lat="42.798502155057236" lon="13.18730758025568"><ele>1275.0</ele><time>2026-04-04T12:51:07Z</time></trkpt><trkpt lat="42.79857549253231" lon="13.187406891790737"><ele>1275.0</ele><time>2026-04-04T12:51:08Z</time></trkpt><trkpt lat="42.79865187811972" lon="13.187509694057375"><ele>1275.0</ele><time>2026-04-04T12:51:09Z</time></trkpt><trkpt lat="42.798734694485816" lon="13.187612012382552"><ele>1275.25</ele><time>2026-04-04T12:51:10Z</time></trkpt><trkpt lat="42.79882140020755" lon="13.187719707530938"><ele>1275.5</ele><time>2026-04-04T12:51:11Z</time></trkpt><trkpt lat="42.798906629513255" lon="13.187824498619214"><ele>1275.75</ele><time>2026-04-04T12:51:12Z</time></trkpt><trkpt lat="42.79900091800419" lon="13.187926385317553"><ele>1276.0</ele><time>2026-04-04T12:51:13Z</time></trkpt><trkpt lat="42.799101154885086" lon="13.188035124579221"><ele>1276.0</ele><time>2026-04-04T12:51:14Z</time></trkpt><trkpt lat="42.79920030556102" lon="13.188149472381896"><ele>1276.0</ele><time>2026-04-04T12:51:15Z</time></trkpt><trkpt lat="42.79929321831798" lon="13.188275538894105"><ele>1276.0</ele><time>2026-04-04T12:51:16Z</time></trkpt><trkpt lat="42.79938789795455" lon="13.188401319171684"><ele>1276.0</ele><time>2026-04-04T12:51:17Z</time></trkpt><trkpt lat="42.799480900947046" lon="13.188529204935454"><ele>1275.5</ele><time>2026-04-04T12:51:18Z</time></trkpt><trkpt lat="42.79957038598979" lon="13.188650474811771"><ele>1275.0</ele><time>2026-04-04T12:51:19Z</time></trkpt><trkpt lat="42.799660310826894" lon="13.188764546778645"><ele>1274.5</ele><time>2026-04-04T12:51:20Z</time></trkpt><trkpt lat="42.799744163683194" lon="13.18887138955921"><ele>1274.0</ele><time>2026-04-04T12:51:21Z</time></trkpt><trkpt lat="42.79983473838259" lon="13.188981385080004"><ele>1273.5</ele><time>2026-04-04T12:51:22Z</time></trkpt><trkpt lat="42.79992098242499" lon="13.189083994609241"><ele>1273.0</ele><time>2026-04-04T12:51:23Z</time></trkpt><trkpt lat="42.80000743691695" lon="13.189189830424851"><ele>1272.5</ele><time>2026-04-04T12:51:24Z</time></trkpt><trkpt lat="42.80009041068124" lon="13.189289627890684"><ele>1272.0</ele><time>2026-04-04T12:51:25Z</time></trkpt><trkpt lat="42.80016461409629" lon="13.189411679118965"><ele>1272.0</ele><time>2026-04-04T12:51:26Z</time></trkpt><trkpt lat="42.800270371961176" lon="13.189539140176208"><ele>1272.0</ele><time>2026-04-04T12:51:27Z</time></trkpt><trkpt lat="42.80034721908547" lon="13.189628068381163"><ele>1272.0</ele><time>2026-04-04T12:51:28Z</time></trkpt><trkpt lat="42.80041505612922" lon="13.189729039832395"><ele>1272.0</ele><time>2026-04-04T12:51:29Z</time></trkpt><trkpt lat="42.80049296516098" lon="13.18984483223066"><ele>1272.5</ele><time>2026-04-04T12:51:30Z</time></trkpt><trkpt lat="42.800553808156046" lon="13.189959452525954"><ele>1273.0</ele><time>2026-04-04T12:51:31Z</time></trkpt><trkpt lat="42.80065692700661" lon="13.190067610343686"><ele>1273.5</ele><time>2026-04-04T12:51:32Z</time></trkpt><trkpt lat="42.80074785311312" lon="13.190178422358862"><ele>1274.0</ele><time>2026-04-04T12:51:33Z</time></trkpt><trkpt lat="42.80084514724013" lon="13.190290276037107"><ele>1274.0</ele><time>2026-04-04T12:51:34Z</time></trkpt><trkpt lat="42.8009294479011" lon="13.190408799679433"><ele>1274.0</ele><time>2026-04-04T12:51:35Z</time></trkpt><trkpt lat="42.80100197932188" lon="13.190540823348359"><ele>1274.0</ele><time>2026-04-04T12:51:36Z</time></trkpt><trkpt lat="42.80111087734992" lon="13.1906269461184"><ele>1274.0</ele><time>2026-04-04T12:51:37Z</time></trkpt><trkpt lat="42.80120296334142" lon="13.190738505681164"><ele>1274.0</ele><time>2026-04-04T12:51:38Z</time></trkpt><trkpt lat="42.80129463599702" lon="13.190863633910347"><ele>1274.0</ele><time>2026-04-04T12:51:39Z</time></trkpt><trkpt lat="42.801385616913954" lon="13.190981896787068"><ele>1274.0</ele><time>2026-04-04T12:51:40Z</time></trkpt><trkpt lat="42.80148320544124" lon="13.191102481496484"><ele>1274.0</ele><time>2026-04-04T12:51:41Z</time></trkpt><trkpt lat="42.80158157782355" lon="13.191218237655246"><ele>1274.0</ele><time>2026-04-04T12:51:42Z</time></trkpt><trkpt lat="42.80167743721164" lon="13.19133958541341"><ele>1274.0</ele><time>2026-04-04T12:51:43Z</time></trkpt><trkpt lat="42.80177302824823" lon="13.191453779675907"><ele>1274.0</ele><time>2026-04-04T12:51:44Z</time></trkpt><trkpt lat="42.8018639549742" lon="13.191575123032466"><ele>1274.0</ele><time>2026-04-04T12:51:45Z</time></trkpt><trkpt lat="42.80195700566083" lon="13.191686579148834"><ele>1274.0</ele><time>2026-04-04T12:51:46Z</time></trkpt><trkpt lat="42.80204968929586" lon="13.191802647869393"><ele>1274.0</ele><time>2026-04-04T12:51:47Z</time></trkpt><trkpt lat="42.80213955477633" lon="13.19191899334584"><ele>1274.0</ele><time>2026-04-04T12:51:48Z</time></trkpt><trkpt lat="42.80222934908155" lon="13.192033848316887"><ele>1274.0</ele><time>2026-04-04T12:51:49Z</time></trkpt><trkpt lat="42.80232119888971" lon="13.192149417273216"><ele>1274.0</ele><time>2026-04-04T12:51:50Z</time></trkpt><trkpt lat="42.80240713514229" lon="13.192262670326983"><ele>1274.0</ele><time>2026-04-04T12:51:51Z</time></trkpt><trkpt lat="42.802509858061484" lon="13.192360914613545"><ele>1274.0</ele><time>2026-04-04T12:51:52Z</time></trkpt><trkpt lat="42.802601387175045" lon="13.192477824320141"><ele>1274.0</ele><time>2026-04-04T12:51:53Z</time></trkpt><trkpt lat="42.80269047848247" lon="13.192591455490286"><ele>1274.5</ele><time>2026-04-04T12:51:54Z</time></trkpt><trkpt lat="42.80278082262111" lon="13.192702750463086"><ele>1275.0</ele><time>2026-04-04T12:51:55Z</time></trkpt><trkpt lat="42.80288210789578" lon="13.192787948993443"><ele>1275.5</ele><time>2026-04-04T12:51:56Z</time></trkpt><trkpt lat="42.80296480130283" lon="13.192913411603895"><ele>1276.0</ele><time>2026-04-04T12:51:57Z</time></trkpt><trkpt lat="42.80305425387997" lon="13.193020003817962"><ele>1276.0</ele><time>2026-04-04T12:51:58Z</time></trkpt><trkpt lat="42.803144570642175" lon="13.193127703349488"><ele>1276.0</ele><time>2026-04-04T12:51:59Z</time></trkpt><trkpt lat="42.80322969535014" lon="13.193241108723267"><ele>1276.0</ele><time>2026-04-04T12:52:00Z</time></trkpt><trkpt lat="42.803316098557175" lon="13.193345139928951"><ele>1276.0</ele><time>2026-04-04T12:52:01Z</time></trkpt><trkpt lat="42.80340411607487" lon="13.19345364505875"><ele>1276.25</ele><time>2026-04-04T12:52:02Z</time></trkpt><trkpt lat="42.803484589678064" lon="13.193573552672792"><ele>1276.5</ele><time>2026-04-04T12:52:03Z</time></trkpt><trkpt lat="42.80357262173154" lon="13.193679539204908"><ele>1276.75</ele><time>2026-04-04T12:52:04Z</time></trkpt><trkpt lat="42.80365646777424" lon="13.193790331138306"><ele>1277.0</ele><time>2026-04-04T12:52:05Z</time></trkpt><trkpt lat="42.80373433298799" lon="13.193907389418243"><ele>1277.0</ele><time>2026-04-04T12:52:06Z</time></trkpt><trkpt lat="42.80382812827922" lon="13.194005848865155"><ele>1277.0</ele><time>2026-04-04T12:52:07Z</time></trkpt><trkpt lat="42.803912651958306" lon="13.19411933450691"><ele>1277.0</ele><time>2026-04-04T12:52:08Z</time></trkpt><trkpt lat="42.80399766913537" lon="13.194223806559075"><ele>1277.0</ele><time>2026-04-04T12:52:09Z</time></trkpt><trkpt lat="42.8040744024635" lon="13.194330074672086"><ele>1277.0</ele><time>2026-04-04T12:52:10Z</time></trkpt><trkpt lat="42.80416557859679" lon="13.194435317654378"><ele>1277.0</ele><time>2026-04-04T12:52:11Z</time></trkpt><trkpt lat="42.80423933451146" lon="13.19458421001519"><ele>1277.0</ele><time>2026-04-04T12:52:12Z</time></trkpt><trkpt lat="42.80433192393429" lon="13.194712086663369"><ele>1277.0</ele><time>2026-04-04T12:52:13Z</time></trkpt><trkpt lat="42.804412778739724" lon="13.194741324005676"><ele>1277.6</ele><time>2026-04-04T12:52:14Z</time></trkpt><trkpt lat="42.80449667814666" lon="13.194846579872818"><ele>1278.2</ele><time>2026-04-04T12:52:15Z</time></trkpt><trkpt lat="42.804577129945194" lon="13.194949146291176"><ele>1278.8</ele><time>2026-04-04T12:52:16Z</time></trkpt><trkpt lat="42.804662075915594" lon="13.195050108873826"><ele>1279.4</ele><time>2026-04-04T12:52:17Z</time></trkpt><trkpt lat="42.80474102091072" lon="13.195147305889819"><ele>1280.0</ele><time>2026-04-04T12:52:18Z</time></trkpt><trkpt lat="42.80482319689553" lon="13.195253264711125"><ele>1280.0</ele><time>2026-04-04T12:52:19Z</time></trkpt><trkpt lat="42.80486681703132" lon="13.195337761589515"><ele>1280.0</ele><time>2026-04-04T12:52:20Z</time></trkpt><trkpt lat="42.80494311342283" lon="13.19542771911357"><ele>1280.0</ele><time>2026-04-04T12:52:21Z</time></trkpt><trkpt lat="42.80501935831857" lon="13.195511875349899"><ele>1280.0</ele><time>2026-04-04T12:52:22Z</time></trkpt><trkpt lat="42.80507862566796" lon="13.195584551090615"><ele>1280.0</ele><time>2026-04-04T12:52:23Z</time></trkpt><trkpt lat="42.805132826016155" lon="13.195653873345169"><ele>1280.0</ele><time>2026-04-04T12:52:24Z</time></trkpt><trkpt lat="42.805186679207395" lon="13.195729390984253"><ele>1280.3333333333335</ele><time>2026-04-04T12:52:25Z</time></trkpt><trkpt lat="42.80524536271955" lon="13.195806439129687"><ele>1280.6666666666667</ele><time>2026-04-04T12:52:26Z</time></trkpt><trkpt lat="42.805311972949156" lon="13.195887176216186"><ele>1281.0</ele><time>2026-04-04T12:52:27Z</time></trkpt><trkpt lat="42.80537563811368" lon="13.19595728563141"><ele>1281.3333333333333</ele><time>2026-04-04T12:52:28Z</time></trkpt><trkpt lat="42.805446085670525" lon="13.196043861758449"><ele>1281.6666666666665</ele><time>2026-04-04T12:52:29Z</time></trkpt><trkpt lat="42.80551825779479" lon="13.196127625620194"><ele>1282.0</ele><time>2026-04-04T12:52:30Z</time></trkpt><trkpt lat="42.80560204429204" lon="13.196222055435753"><ele>1282.0</ele><time>2026-04-04T12:52:31Z</time></trkpt><trkpt lat="42.80567260220951" lon="13.196312688135762"><ele>1282.0</ele><time>2026-04-04T12:52:32Z</time></trkpt><trkpt lat="42.805750159999725" lon="13.196405909170949"><ele>1282.0</ele><time>2026-04-04T12:52:33Z</time></trkpt><trkpt lat="42.80582781287675" lon="13.196507921005745"><ele>1282.0</ele><time>2026-04-04T12:52:34Z</time></trkpt><trkpt lat="42.80587770548887" lon="13.196601586824714"><ele>1282.0</ele><time>2026-04-04T12:52:35Z</time></trkpt><trkpt lat="42.805981791067566" lon="13.196724890507536"><ele>1281.25</ele><time>2026-04-04T12:52:36Z</time></trkpt><trkpt lat="42.80607354711079" lon="13.196836706566556"><ele>1280.5</ele><time>2026-04-04T12:52:37Z</time></trkpt><trkpt lat="42.80617070452012" lon="13.196955900623333"><ele>1279.75</ele><time>2026-04-04T12:52:38Z</time></trkpt><trkpt lat="42.80626625687222" lon="13.197084743551624"><ele>1279.0</ele><time>2026-04-04T12:52:39Z</time></trkpt><trkpt lat="42.80635384827238" lon="13.197222848022673"><ele>1279.0</ele><time>2026-04-04T12:52:40Z</time></trkpt><trkpt lat="42.806456974416534" lon="13.197328674333324"><ele>1279.0</ele><time>2026-04-04T12:52:41Z</time></trkpt><trkpt lat="42.8065578849015" lon="13.197455245639286"><ele>1279.0</ele><time>2026-04-04T12:52:42Z</time></trkpt><trkpt lat="42.8066527955709" lon="13.197608357596943"><ele>1279.0</ele><time>2026-04-04T12:52:43Z</time></trkpt><trkpt lat="42.80675605949503" lon="13.197758467871886"><ele>1279.5</ele><time>2026-04-04T12:52:44Z</time></trkpt><trkpt lat="42.8068502218356" lon="13.197852115887029"><ele>1280.0</ele><time>2026-04-04T12:52:45Z</time></trkpt><trkpt lat="42.8069539571065" lon="13.19796769917457"><ele>1280.5</ele><time>2026-04-04T12:52:46Z</time></trkpt><trkpt lat="42.80705170651313" lon="13.198094164111865"><ele>1281.0</ele><time>2026-04-04T12:52:47Z</time></trkpt><trkpt lat="42.807149241061545" lon="13.198217497993305"><ele>1281.0</ele><time>2026-04-04T12:52:48Z</time></trkpt><trkpt lat="42.80724273942449" lon="13.198336096070609"><ele>1281.0</ele><time>2026-04-04T12:52:49Z</time></trkpt><trkpt lat="42.80733457364515" lon="13.198452818888844"><ele>1281.0</ele><time>2026-04-04T12:52:50Z</time></trkpt><trkpt lat="42.80743162890541" lon="13.198563747030265"><ele>1281.0</ele><time>2026-04-04T12:52:51Z</time></trkpt><trkpt lat="42.807526453905204" lon="13.198666272927142"><ele>1281.0</ele><time>2026-04-04T12:52:52Z</time></trkpt><trkpt lat="42.807624134995464" lon="13.198780427339237"><ele>1281.0</ele><time>2026-04-04T12:52:53Z</time></trkpt><trkpt lat="42.80771161883955" lon="13.198903444797365"><ele>1281.0</ele><time>2026-04-04T12:52:54Z</time></trkpt><trkpt lat="42.807804948514345" lon="13.199014130619751"><ele>1281.0</ele><time>2026-04-04T12:52:55Z</time></trkpt><trkpt lat="42.80790610528038" lon="13.199127706381269"><ele>1281.25</ele><time>2026-04-04T12:52:56Z</time></trkpt><trkpt lat="42.807991050458554" lon="13.199235271167849"><ele>1281.5</ele><time>2026-04-04T12:52:57Z</time></trkpt><trkpt lat="42.80809400942473" lon="13.199364952340252"><ele>1281.75</ele><time>2026-04-04T12:52:58Z</time></trkpt><trkpt lat="42.80819453471348" lon="13.199490088929767"><ele>1282.0</ele><time>2026-04-04T12:52:59Z</time></trkpt><trkpt lat="42.80829668928558" lon="13.199617253683673"><ele>1282.0</ele><time>2026-04-04T12:53:00Z</time></trkpt><trkpt lat="42.80840284641599" lon="13.199730791870257"><ele>1282.0</ele><time>2026-04-04T12:53:01Z</time></trkpt><trkpt lat="42.80849359817632" lon="13.199844921385376"><ele>1282.0</ele><time>2026-04-04T12:53:02Z</time></trkpt><trkpt lat="42.808586464031805" lon="13.19996527496988"><ele>1282.0</ele><time>2026-04-04T12:53:03Z</time></trkpt><trkpt lat="42.80868677211927" lon="13.200090672552482"><ele>1282.0</ele><time>2026-04-04T12:53:04Z</time></trkpt><trkpt lat="42.80878936845613" lon="13.200222299528443"><ele>1282.0</ele><time>2026-04-04T12:53:05Z</time></trkpt><trkpt lat="42.80889546434469" lon="13.200354123017787"><ele>1282.0</ele><time>2026-04-04T12:53:06Z</time></trkpt><trkpt lat="42.80900312997228" lon="13.200490500923651"><ele>1282.0</ele><time>2026-04-04T12:53:07Z</time></trkpt><trkpt lat="42.809110161751015" lon="13.200630722762448"><ele>1282.0</ele><time>2026-04-04T12:53:08Z</time></trkpt><trkpt lat="42.80922578278128" lon="13.200766428736582"><ele>1282.0</ele><time>2026-04-04T12:53:09Z</time></trkpt><trkpt lat="42.80933249823342" lon="13.200921589587638"><ele>1282.0</ele><time>2026-04-04T12:53:10Z</time></trkpt><trkpt lat="42.8094584737975" lon="13.20105070466872"><ele>1282.6666666666665</ele><time>2026-04-04T12:53:11Z</time></trkpt><trkpt lat="42.80957779670282" lon="13.201199866828409"><ele>1283.3333333333333</ele><time>2026-04-04T12:53:12Z</time></trkpt><trkpt lat="42.809672967895594" lon="13.201349592286462"><ele>1284.0</ele><time>2026-04-04T12:53:13Z</time></trkpt><trkpt lat="42.80979292758937" lon="13.20150016754527"><ele>1284.3333333333333</ele><time>2026-04-04T12:53:14Z</time></trkpt><trkpt lat="42.809913485086945" lon="13.201651493209896"><ele>1284.6666666666665</ele><time>2026-04-04T12:53:15Z</time></trkpt><trkpt lat="42.81004254280413" lon="13.201786230943881"><ele>1285.0</ele><time>2026-04-04T12:53:16Z</time></trkpt><trkpt lat="42.810157399394335" lon="13.201938727742002"><ele>1285.6666666666665</ele><time>2026-04-04T12:53:17Z</time></trkpt><trkpt lat="42.81027446353505" lon="13.202085303743921"><ele>1286.3333333333333</ele><time>2026-04-04T12:53:18Z</time></trkpt><trkpt lat="42.81038409473566" lon="13.202242209767062"><ele>1287.0</ele><time>2026-04-04T12:53:19Z</time></trkpt><trkpt lat="42.81051065674787" lon="13.20237230659737"><ele>1287.0</ele><time>2026-04-04T12:53:20Z</time></trkpt><trkpt lat="42.81062319157194" lon="13.202514822113729"><ele>1287.0</ele><time>2026-04-04T12:53:21Z</time></trkpt><trkpt lat="42.81072466822866" lon="13.202674379726334"><ele>1287.0</ele><time>2026-04-04T12:53:22Z</time></trkpt><trkpt lat="42.81084751156202" lon="13.202802370437675"><ele>1287.0</ele><time>2026-04-04T12:53:23Z</time></trkpt><trkpt lat="42.810959380809194" lon="13.202938707601707"><ele>1287.0</ele><time>2026-04-04T12:53:24Z</time></trkpt><trkpt lat="42.81105952782868" lon="13.203095108512642"><ele>1287.0</ele><time>2026-04-04T12:53:25Z</time></trkpt><trkpt lat="42.811167280805535" lon="13.20323041854679"><ele>1287.0</ele><time>2026-04-04T12:53:26Z</time></trkpt><trkpt lat="42.81128263803678" lon="13.203375277582257"><ele>1286.0</ele><time>2026-04-04T12:53:27Z</time></trkpt><trkpt lat="42.81140990835531" lon="13.203510070535772"><ele>1285.0</ele><time>2026-04-04T12:53:28Z</time></trkpt><trkpt lat="42.811524509429425" lon="13.203651634853058"><ele>1284.0</ele><time>2026-04-04T12:53:29Z</time></trkpt><trkpt lat="42.81163946326436" lon="13.203797201591604"><ele>1284.0</ele><time>2026-04-04T12:53:30Z</time></trkpt><trkpt lat="42.811755149893536" lon="13.203945171474942"><ele>1284.0</ele><time>2026-04-04T12:53:31Z</time></trkpt><trkpt lat="42.81187435385442" lon="13.204094792795129"><ele>1284.0</ele><time>2026-04-04T12:53:32Z</time></trkpt><trkpt lat="42.811986615938274" lon="13.204243704013289"><ele>1285.6666666666667</ele><time>2026-04-04T12:53:33Z</time></trkpt><trkpt lat="42.81210651113588" lon="13.204390079808846"><ele>1287.3333333333335</ele><time>2026-04-04T12:53:34Z</time></trkpt><trkpt lat="42.81222126208551" lon="13.20452949972504"><ele>1289.0</ele><time>2026-04-04T12:53:35Z</time></trkpt><trkpt lat="42.81234819783889" lon="13.204680577851402"><ele>1289.6666666666667</ele><time>2026-04-04T12:53:36Z</time></trkpt><trkpt lat="42.81246556128485" lon="13.20483342725654"><ele>1290.3333333333333</ele><time>2026-04-04T12:53:37Z</time></trkpt><trkpt lat="42.81258293162083" lon="13.20499096560459"><ele>1291.0</ele><time>2026-04-04T12:53:38Z</time></trkpt><trkpt lat="42.81270366412445" lon="13.205130445446315"><ele>1291.6666666666665</ele><time>2026-04-04T12:53:39Z</time></trkpt><trkpt lat="42.81280577372357" lon="13.205283158574103"><ele>1292.3333333333333</ele><time>2026-04-04T12:53:40Z</time></trkpt><trkpt lat="42.812931551875934" lon="13.205433618634322"><ele>1293.0</ele><time>2026-04-04T12:53:41Z</time></trkpt><trkpt lat="42.81303563708072" lon="13.205563211681687"><ele>1292.25</ele><time>2026-04-04T12:53:42Z</time></trkpt><trkpt lat="42.813128051213525" lon="13.205695778812613"><ele>1291.5</ele><time>2026-04-04T12:53:43Z</time></trkpt><trkpt lat="42.81321588397851" lon="13.205782940940404"><ele>1290.75</ele><time>2026-04-04T12:53:44Z</time></trkpt><trkpt lat="42.81329677879266" lon="13.205885051692084"><ele>1290.0</ele><time>2026-04-04T12:53:45Z</time></trkpt><trkpt lat="42.81336285691648" lon="13.205982553660164"><ele>1290.0</ele><time>2026-04-04T12:53:46Z</time></trkpt><trkpt lat="42.813451911047316" lon="13.206090041896653"><ele>1290.0</ele><time>2026-04-04T12:53:47Z</time></trkpt><trkpt lat="42.81354810179353" lon="13.206206405217465"><ele>1290.0</ele><time>2026-04-04T12:53:48Z</time></trkpt><trkpt lat="42.813645581289094" lon="13.206325165277972"><ele>1290.0</ele><time>2026-04-04T12:53:49Z</time></trkpt><trkpt lat="42.813748395358274" lon="13.206455695487932"><ele>1290.5</ele><time>2026-04-04T12:53:50Z</time></trkpt><trkpt lat="42.81384884738722" lon="13.206586572426401"><ele>1291.0</ele><time>2026-04-04T12:53:51Z</time></trkpt><trkpt lat="42.81395359321265" lon="13.206714579434642"><ele>1291.5</ele><time>2026-04-04T12:53:52Z</time></trkpt><trkpt lat="42.814060211343005" lon="13.206844825215232"><ele>1292.0</ele><time>2026-04-04T12:53:53Z</time></trkpt><trkpt lat="42.814165969210286" lon="13.20697527077296"><ele>1292.0</ele><time>2026-04-04T12:53:54Z</time></trkpt><trkpt lat="42.81426753985981" lon="13.207117407890852"><ele>1292.0</ele><time>2026-04-04T12:53:55Z</time></trkpt><trkpt lat="42.814380751671806" lon="13.207263323853345"><ele>1292.0</ele><time>2026-04-04T12:53:56Z</time></trkpt><trkpt lat="42.81448909778867" lon="13.207405848154917"><ele>1292.0</ele><time>2026-04-04T12:53:57Z</time></trkpt><trkpt lat="42.81459732410418" lon="13.207548314641343"><ele>1292.0</ele><time>2026-04-04T12:53:58Z</time></trkpt><trkpt lat="42.81471486456676" lon="13.207690431958213"><ele>1292.0</ele><time>2026-04-04T12:53:59Z</time></trkpt><trkpt lat="42.814827059365804" lon="13.207828762060197"><ele>1292.0</ele><time>2026-04-04T12:54:00Z</time></trkpt><trkpt lat="42.81494306856997" lon="13.20796645931412"><ele>1292.0</ele><time>2026-04-04T12:54:01Z</time></trkpt><trkpt lat="42.815058874537115" lon="13.20810763818599"><ele>1292.0</ele><time>2026-04-04T12:54:02Z</time></trkpt><trkpt lat="42.815173475088685" lon="13.20824938132613"><ele>1292.3333333333335</ele><time>2026-04-04T12:54:03Z</time></trkpt><trkpt lat="42.81528744829757" lon="13.20839416465846"><ele>1292.6666666666667</ele><time>2026-04-04T12:54:04Z</time></trkpt><trkpt lat="42.815404741884" lon="13.208536977024693"><ele>1293.0</ele><time>2026-04-04T12:54:05Z</time></trkpt><trkpt lat="42.81550742383063" lon="13.208670050665159"><ele>1293.0</ele><time>2026-04-04T12:54:06Z</time></trkpt><trkpt lat="42.81561036168706" lon="13.208803349614428"><ele>1293.0</ele><time>2026-04-04T12:54:07Z</time></trkpt><trkpt lat="42.81575225099469" lon="13.209000364944067"><ele>1293.0</ele><time>2026-04-04T12:54:08Z</time></trkpt><trkpt lat="42.815867405550854" lon="13.209145046315847"><ele>1294.0</ele><time>2026-04-04T12:54:09Z</time></trkpt><trkpt lat="42.815963029022456" lon="13.20926470255643"><ele>1295.0</ele><time>2026-04-04T12:54:10Z</time></trkpt><trkpt lat="42.81607363728968" lon="13.209403109697286"><ele>1296.0</ele><time>2026-04-04T12:54:11Z</time></trkpt><trkpt lat="42.81618982415733" lon="13.209548497641874"><ele>1297.0</ele><time>2026-04-04T12:54:12Z</time></trkpt><trkpt lat="42.816311896703525" lon="13.209683709845221"><ele>1297.0</ele><time>2026-04-04T12:54:13Z</time></trkpt><trkpt lat="42.816392867222525" lon="13.209806950284554"><ele>1297.0</ele><time>2026-04-04T12:54:14Z</time></trkpt><trkpt lat="42.81649991953763" lon="13.20994364121529"><ele>1297.0</ele><time>2026-04-04T12:54:15Z</time></trkpt><trkpt lat="42.816592666014564" lon="13.210062065612489"><ele>1297.0</ele><time>2026-04-04T12:54:16Z</time></trkpt><trkpt lat="42.81668095039848" lon="13.210156390593296"><ele>1297.0</ele><time>2026-04-04T12:54:17Z</time></trkpt><trkpt lat="42.81675796214137" lon="13.21027027950681"><ele>1297.0</ele><time>2026-04-04T12:54:18Z</time></trkpt><trkpt lat="42.81683255010995" lon="13.210363105335881"><ele>1297.0</ele><time>2026-04-04T12:54:19Z</time></trkpt><trkpt lat="42.8169243341719" lon="13.210450523638452"><ele>1297.0</ele><time>2026-04-04T12:54:20Z</time></trkpt><trkpt lat="42.81700012235306" lon="13.210548274427875"><ele>1297.0</ele><time>2026-04-04T12:54:21Z</time></trkpt><trkpt lat="42.817062630536284" lon="13.210628098421097"><ele>1297.0</ele><time>2026-04-04T12:54:22Z</time></trkpt><trkpt lat="42.81712410090165" lon="13.210699705968752"><ele>1297.0</ele><time>2026-04-04T12:54:23Z</time></trkpt><trkpt lat="42.817173870124364" lon="13.210772175235464"><ele>1297.0</ele><time>2026-04-04T12:54:24Z</time></trkpt><trkpt lat="42.81723377923797" lon="13.210840238264888"><ele>1297.0</ele><time>2026-04-04T12:54:25Z</time></trkpt><trkpt lat="42.81730013465616" lon="13.210909028342536"><ele>1297.0</ele><time>2026-04-04T12:54:26Z</time></trkpt><trkpt lat="42.81736344648914" lon="13.210956085370254"><ele>1297.0</ele><time>2026-04-04T12:54:27Z</time></trkpt><trkpt lat="42.817429450374725" lon="13.211007497228916"><ele>1297.0</ele><time>2026-04-04T12:54:28Z</time></trkpt><trkpt lat="42.81749639973979" lon="13.21106058776441"><ele>1297.0</ele><time>2026-04-04T12:54:29Z</time></trkpt><trkpt lat="42.81757077100894" lon="13.211134113935145"><ele>1297.0</ele><time>2026-04-04T12:54:30Z</time></trkpt><trkpt lat="42.81764609450369" lon="13.21117597005981"><ele>1297.0</ele><time>2026-04-04T12:54:31Z</time></trkpt><trkpt lat="42.81771752354365" lon="13.211217767111807"><ele>1297.0</ele><time>2026-04-04T12:54:32Z</time></trkpt><trkpt lat="42.81778718534375" lon="13.211300751118273"><ele>1297.0</ele><time>2026-04-04T12:54:33Z</time></trkpt><trkpt lat="42.81787799510004" lon="13.211374698120224"><ele>1297.0</ele><time>2026-04-04T12:54:34Z</time></trkpt><trkpt lat="42.81794022405423" lon="13.211424965782205"><ele>1297.0</ele><time>2026-04-04T12:54:35Z</time></trkpt><trkpt lat="42.81801157955622" lon="13.211482606029803"><ele>1297.0</ele><time>2026-04-04T12:54:36Z</time></trkpt><trkpt lat="42.81808734405699" lon="13.211543807815298"><ele>1297.0</ele><time>2026-04-04T12:54:37Z</time></trkpt><trkpt lat="42.81815339649165" lon="13.211574943937379"><ele>1297.0</ele><time>2026-04-04T12:54:38Z</time></trkpt><trkpt lat="42.81820882916867" lon="13.211641941808649"><ele>1297.0</ele><time>2026-04-04T12:54:39Z</time></trkpt><trkpt lat="42.81827756179168" lon="13.211697528212929"><ele>1297.0</ele><time>2026-04-04T12:54:40Z</time></trkpt><trkpt lat="42.81835891415029" lon="13.211764120875511"><ele>1297.0</ele><time>2026-04-04T12:54:41Z</time></trkpt><trkpt lat="42.81845455104961" lon="13.211842406357528"><ele>1297.0</ele><time>2026-04-04T12:54:42Z</time></trkpt><trkpt lat="42.81856215700772" lon="13.211930489308786"><ele>1297.0</ele><time>2026-04-04T12:54:43Z</time></trkpt><trkpt lat="42.81867825350144" lon="13.212025522568272"><ele>1297.5</ele><time>2026-04-04T12:54:44Z</time></trkpt><trkpt lat="42.81879644302683" lon="13.212120044186562"><ele>1298.0</ele><time>2026-04-04T12:54:45Z</time></trkpt><trkpt lat="42.81890851059503" lon="13.212188533988629"><ele>1298.5</ele><time>2026-04-04T12:54:46Z</time></trkpt><trkpt lat="42.81902761934453" lon="13.212288808462608"><ele>1299.0</ele><time>2026-04-04T12:54:47Z</time></trkpt><trkpt lat="42.819138277849426" lon="13.21238056194723"><ele>1299.0</ele><time>2026-04-04T12:54:48Z</time></trkpt><trkpt lat="42.8192511026802" lon="13.212461537911523"><ele>1299.0</ele><time>2026-04-04T12:54:49Z</time></trkpt><trkpt lat="42.81935838059642" lon="13.212556002168196"><ele>1299.0</ele><time>2026-04-04T12:54:50Z</time></trkpt><trkpt lat="42.819487969331206" lon="13.212641165874425"><ele>1299.0</ele><time>2026-04-04T12:54:51Z</time></trkpt><trkpt lat="42.819610343246985" lon="13.212717905719762"><ele>1299.25</ele><time>2026-04-04T12:54:52Z</time></trkpt><trkpt lat="42.819737768343835" lon="13.212794813163281"><ele>1299.5</ele><time>2026-04-04T12:54:53Z</time></trkpt><trkpt lat="42.81986151066413" lon="13.21287595731641"><ele>1299.75</ele><time>2026-04-04T12:54:54Z</time></trkpt><trkpt lat="42.819979163952524" lon="13.212954051047067"><ele>1300.0</ele><time>2026-04-04T12:54:55Z</time></trkpt><trkpt lat="42.82010145663365" lon="13.213026226164212"><ele>1300.25</ele><time>2026-04-04T12:54:56Z</time></trkpt><trkpt lat="42.82021595251731" lon="13.213092082424922"><ele>1300.5</ele><time>2026-04-04T12:54:57Z</time></trkpt><trkpt lat="42.820325338249866" lon="13.213146674234784"><ele>1300.75</ele><time>2026-04-04T12:54:58Z</time></trkpt><trkpt lat="42.82044065358912" lon="13.213201835541359"><ele>1301.0</ele><time>2026-04-04T12:54:59Z</time></trkpt><trkpt lat="42.82055702301099" lon="13.213244193522579"><ele>1301.0</ele><time>2026-04-04T12:55:00Z</time></trkpt><trkpt lat="42.8206734476981" lon="13.213273554883143"><ele>1301.0</ele><time>2026-04-04T12:55:01Z</time></trkpt><trkpt lat="42.82079638262104" lon="13.213296227168644"><ele>1301.0</ele><time>2026-04-04T12:55:02Z</time></trkpt><trkpt lat="42.820917125077" lon="13.213301384808288"><ele>1301.0</ele><time>2026-04-04T12:55:03Z</time></trkpt><trkpt lat="42.82104110744582" lon="13.213308149584712"><ele>1301.5</ele><time>2026-04-04T12:55:04Z</time></trkpt><trkpt lat="42.821158109049854" lon="13.213336372495016"><ele>1302.0</ele><time>2026-04-04T12:55:05Z</time></trkpt><trkpt lat="42.82127700590371" lon="13.213348550187616"><ele>1302.5</ele><time>2026-04-04T12:55:06Z</time></trkpt><trkpt lat="42.82139584742607" lon="13.213360722212107"><ele>1303.0</ele><time>2026-04-04T12:55:07Z</time></trkpt><trkpt lat="42.82151721910616" lon="13.21337307203972"><ele>1303.0</ele><time>2026-04-04T12:55:08Z</time></trkpt><trkpt lat="42.82164161347575" lon="13.213385596871857"><ele>1303.0</ele><time>2026-04-04T12:55:09Z</time></trkpt><trkpt lat="42.821768279151456" lon="13.21339835039555"><ele>1303.0</ele><time>2026-04-04T12:55:10Z</time></trkpt><trkpt lat="42.821898374707416" lon="13.213399338617323"><ele>1303.0</ele><time>2026-04-04T12:55:11Z</time></trkpt><trkpt lat="42.82202835278788" lon="13.21342086713491"><ele>1302.75</ele><time>2026-04-04T12:55:12Z</time></trkpt><trkpt lat="42.82216024880064" lon="13.213436657562463"><ele>1302.5</ele><time>2026-04-04T12:55:13Z</time></trkpt><trkpt lat="42.82229578071246" lon="13.213450825824905"><ele>1302.25</ele><time>2026-04-04T12:55:14Z</time></trkpt><trkpt lat="42.822433462635416" lon="13.213460122918283"><ele>1302.0</ele><time>2026-04-04T12:55:15Z</time></trkpt><trkpt lat="42.82257322586128" lon="13.213473211512964"><ele>1302.5</ele><time>2026-04-04T12:55:16Z</time></trkpt><trkpt lat="42.822715975311624" lon="13.21348538326451"><ele>1303.0</ele><time>2026-04-04T12:55:17Z</time></trkpt><trkpt lat="42.822860006126405" lon="13.213499186159066"><ele>1303.5</ele><time>2026-04-04T12:55:18Z</time></trkpt><trkpt lat="42.8230053495804" lon="13.213515200831113"><ele>1304.0</ele><time>2026-04-04T12:55:19Z</time></trkpt><trkpt lat="42.82315374786444" lon="13.213529918770847"><ele>1304.0</ele><time>2026-04-04T12:55:20Z</time></trkpt><trkpt lat="42.82330339442921" lon="13.213544823966672"><ele>1304.0</ele><time>2026-04-04T12:55:21Z</time></trkpt><trkpt lat="42.823453100805565" lon="13.213559517742123"><ele>1304.0</ele><time>2026-04-04T12:55:22Z</time></trkpt><trkpt lat="42.82360418533928" lon="13.213570836026797"><ele>1304.0</ele><time>2026-04-04T12:55:23Z</time></trkpt><trkpt lat="42.823756768193725" lon="13.213599805867728"><ele>1304.0</ele><time>2026-04-04T12:55:24Z</time></trkpt><trkpt lat="42.823906200398575" lon="13.213615203177534"><ele>1304.0</ele><time>2026-04-04T12:55:25Z</time></trkpt><trkpt lat="42.824059842921585" lon="13.213630821652842"><ele>1304.0</ele><time>2026-04-04T12:55:26Z</time></trkpt><trkpt lat="42.824204359481755" lon="13.21364544589528"><ele>1304.0</ele><time>2026-04-04T12:55:27Z</time></trkpt><trkpt lat="42.824354792905964" lon="13.213648822433896"><ele>1304.0</ele><time>2026-04-04T12:55:28Z</time></trkpt><trkpt lat="42.82450397637188" lon="13.213658218218916"><ele>1304.0</ele><time>2026-04-04T12:55:29Z</time></trkpt><trkpt lat="42.82465181679115" lon="13.21366811383449"><ele>1304.5</ele><time>2026-04-04T12:55:30Z</time></trkpt><trkpt lat="42.82479834491315" lon="13.213682579335856"><ele>1305.0</ele><time>2026-04-04T12:55:31Z</time></trkpt><trkpt lat="42.82494286013238" lon="13.2136999688202"><ele>1305.5</ele><time>2026-04-04T12:55:32Z</time></trkpt><trkpt lat="42.82508896597148" lon="13.213711426134369"><ele>1306.0</ele><time>2026-04-04T12:55:33Z</time></trkpt><trkpt lat="42.825231725267365" lon="13.213746862242154"><ele>1306.25</ele><time>2026-04-04T12:55:34Z</time></trkpt><trkpt lat="42.82537717161352" lon="13.213743728341218"><ele>1306.5</ele><time>2026-04-04T12:55:35Z</time></trkpt><trkpt lat="42.825518824780495" lon="13.213758734380212"><ele>1306.75</ele><time>2026-04-04T12:55:36Z</time></trkpt><trkpt lat="42.82565921364103" lon="13.213776206487037"><ele>1307.0</ele><time>2026-04-04T12:55:37Z</time></trkpt><trkpt lat="42.82580143666404" lon="13.213791047422864"><ele>1307.0</ele><time>2026-04-04T12:55:38Z</time></trkpt><trkpt lat="42.8259419072898" lon="13.213802746529346"><ele>1307.0</ele><time>2026-04-04T12:55:39Z</time></trkpt><trkpt lat="42.82608027151112" lon="13.213816928828328"><ele>1307.0</ele><time>2026-04-04T12:55:40Z</time></trkpt><trkpt lat="42.826217409099044" lon="13.213833731986014"><ele>1307.0</ele><time>2026-04-04T12:55:41Z</time></trkpt><trkpt lat="42.826353472448695" lon="13.21384554744104"><ele>1309.25</ele><time>2026-04-04T12:55:42Z</time></trkpt><trkpt lat="42.826488616691975" lon="13.213857640570826"><ele>1311.5</ele><time>2026-04-04T12:55:43Z</time></trkpt><trkpt lat="42.82662422832133" lon="13.21386699223772"><ele>1313.75</ele><time>2026-04-04T12:55:44Z</time></trkpt><trkpt lat="42.82675901908901" lon="13.213880116170788"><ele>1316.0</ele><time>2026-04-04T12:55:45Z</time></trkpt><trkpt lat="42.82689248073706" lon="13.213890418381348"><ele>1318.0</ele><time>2026-04-04T12:55:46Z</time></trkpt><trkpt lat="42.827024216319096" lon="13.213906916797567"><ele>1320.0</ele><time>2026-04-04T12:55:47Z</time></trkpt><trkpt lat="42.82715070003684" lon="13.213951340464314"><ele>1322.0</ele><time>2026-04-04T12:55:48Z</time></trkpt><trkpt lat="42.82726089350279" lon="13.214016254015034"><ele>1324.0</ele><time>2026-04-04T12:55:49Z</time></trkpt><trkpt lat="42.82736019090606" lon="13.214106225921174"><ele>1324.0</ele><time>2026-04-04T12:55:50Z</time></trkpt><trkpt lat="42.82742504593398" lon="13.214233774593387"><ele>1324.0</ele><time>2026-04-04T12:55:51Z</time></trkpt><trkpt lat="42.82750639537224" lon="13.214348449314311"><ele>1324.0</ele><time>2026-04-04T12:55:52Z</time></trkpt><trkpt lat="42.82756815008893" lon="13.214479902098743"><ele>1324.0</ele><time>2026-04-04T12:55:53Z</time></trkpt><trkpt lat="42.82763563562491" lon="13.214604531643865"><ele>1325.0</ele><time>2026-04-04T12:55:54Z</time></trkpt><trkpt lat="42.827703527186735" lon="13.214724316761883"><ele>1326.0</ele><time>2026-04-04T12:55:55Z</time></trkpt><trkpt lat="42.82778056272303" lon="13.214831591467396"><ele>1327.0</ele><time>2026-04-04T12:55:56Z</time></trkpt><trkpt lat="42.82786575783819" lon="13.21492169874504"><ele>1328.0</ele><time>2026-04-04T12:55:57Z</time></trkpt><trkpt lat="42.82796420729679" lon="13.2149816879814"><ele>1329.0</ele><time>2026-04-04T12:55:58Z</time></trkpt><trkpt lat="42.828078107433804" lon="13.215004243689766"><ele>1329.0</ele><time>2026-04-04T12:55:59Z</time></trkpt><trkpt lat="42.82819851244422" lon="13.215000615409554"><ele>1329.0</ele><time>2026-04-04T12:56:00Z</time></trkpt><trkpt lat="42.828321426213066" lon="13.21499608101091"><ele>1329.0</ele><time>2026-04-04T12:56:01Z</time></trkpt><trkpt lat="42.828444729742195" lon="13.215001201404895"><ele>1329.0</ele><time>2026-04-04T12:56:02Z</time></trkpt><trkpt lat="42.828569630492936" lon="13.215008469944708"><ele>1330.75</ele><time>2026-04-04T12:56:03Z</time></trkpt><trkpt lat="42.82869669256827" lon="13.21501772566471"><ele>1332.5</ele><time>2026-04-04T12:56:04Z</time></trkpt><trkpt lat="42.82882410013055" lon="13.215025177847616"><ele>1334.25</ele><time>2026-04-04T12:56:05Z</time></trkpt><trkpt lat="42.82895039910224" lon="13.215030997484194"><ele>1336.0</ele><time>2026-04-04T12:56:06Z</time></trkpt><trkpt lat="42.829070420142266" lon="13.215035421840124"><ele>1336.0</ele><time>2026-04-04T12:56:07Z</time></trkpt><trkpt lat="42.82917468502587" lon="13.215044948526492"><ele>1336.0</ele><time>2026-04-04T12:56:08Z</time></trkpt><trkpt lat="42.82926616665625" lon="13.214996015552327"><ele>1336.0</ele><time>2026-04-04T12:56:09Z</time></trkpt><trkpt lat="42.829349387286996" lon="13.214939538815743"><ele>1336.0</ele><time>2026-04-04T12:56:10Z</time></trkpt><trkpt lat="42.8294167957193" lon="13.21483318945129"><ele>1336.0</ele><time>2026-04-04T12:56:11Z</time></trkpt><trkpt lat="42.829468049915484" lon="13.214718712298597"><ele>1336.5</ele><time>2026-04-04T12:56:12Z</time></trkpt><trkpt lat="42.82949390679482" lon="13.21460086153009"><ele>1337.0</ele><time>2026-04-04T12:56:13Z</time></trkpt><trkpt lat="42.8294890250207" lon="13.214478520993229"><ele>1337.5</ele><time>2026-04-04T12:56:14Z</time></trkpt><trkpt lat="42.82945397064755" lon="13.214362004044373"><ele>1338.0</ele><time>2026-04-04T12:56:15Z</time></trkpt><trkpt lat="42.82939586083832" lon="13.21426429630346"><ele>1338.5</ele><time>2026-04-04T12:56:16Z</time></trkpt><trkpt lat="42.82933496319017" lon="13.21419899786035"><ele>1339.0</ele><time>2026-04-04T12:56:17Z</time></trkpt><trkpt lat="42.82927421704226" lon="13.214140333757086"><ele>1340.6666666666665</ele><time>2026-04-04T12:56:18Z</time></trkpt><trkpt lat="42.82921584646084" lon="13.214081433472991"><ele>1342.3333333333333</ele><time>2026-04-04T12:56:19Z</time></trkpt><trkpt lat="42.82914478813319" lon="13.214027721525854"><ele>1344.0</ele><time>2026-04-04T12:56:20Z</time></trkpt><trkpt lat="42.829080926796976" lon="13.213945541070283"><ele>1345.6666666666667</ele><time>2026-04-04T12:56:21Z</time></trkpt><trkpt lat="42.82899383891909" lon="13.213891093027621"><ele>1347.3333333333335</ele><time>2026-04-04T12:56:22Z</time></trkpt><trkpt lat="42.82892166023233" lon="13.213805161316557"><ele>1349.0</ele><time>2026-04-04T12:56:23Z</time></trkpt><trkpt lat="42.828838518153205" lon="13.213725861473916"><ele>1350.6</ele><time>2026-04-04T12:56:24Z</time></trkpt><trkpt lat="42.82875635259901" lon="13.213635140985408"><ele>1352.2</ele><time>2026-04-04T12:56:25Z</time></trkpt><trkpt lat="42.82867963102005" lon="13.213531041354745"><ele>1353.8</ele><time>2026-04-04T12:56:26Z</time></trkpt><trkpt lat="42.82861603005404" lon="13.213412654766614"><ele>1355.3999999999999</ele><time>2026-04-04T12:56:27Z</time></trkpt><trkpt lat="42.82857239796778" lon="13.213287659009826"><ele>1357.0</ele><time>2026-04-04T12:56:28Z</time></trkpt><trkpt lat="42.82854588209805" lon="13.213175118154087"><ele>1357.1666666666665</ele><time>2026-04-04T12:56:29Z</time></trkpt><trkpt lat="42.82852401857304" lon="13.213084936576431"><ele>1357.3333333333333</ele><time>2026-04-04T12:56:30Z</time></trkpt><trkpt lat="42.82852131610228" lon="13.212990232424396"><ele>1357.5</ele><time>2026-04-04T12:56:31Z</time></trkpt><trkpt lat="42.82850871376642" lon="13.212876007740284"><ele>1357.6666666666667</ele><time>2026-04-04T12:56:32Z</time></trkpt><trkpt lat="42.82849450336512" lon="13.212747927703768"><ele>1357.8333333333335</ele><time>2026-04-04T12:56:33Z</time></trkpt><trkpt lat="42.828480185391776" lon="13.212610716782077"><ele>1358.0</ele><time>2026-04-04T12:56:34Z</time></trkpt><trkpt lat="42.8284574237525" lon="13.212465512437745"><ele>1361.75</ele><time>2026-04-04T12:56:35Z</time></trkpt><trkpt lat="42.828439500631774" lon="13.212311067082714"><ele>1365.5</ele><time>2026-04-04T12:56:36Z</time></trkpt><trkpt lat="42.828406395087534" lon="13.212150275165003"><ele>1369.25</ele><time>2026-04-04T12:56:37Z</time></trkpt><trkpt lat="42.82836025634248" lon="13.211987092483565"><ele>1373.0</ele><time>2026-04-04T12:56:38Z</time></trkpt><trkpt lat="42.82830150215977" lon="13.21181958614436"><ele>1373.0</ele><time>2026-04-04T12:56:39Z</time></trkpt><trkpt lat="42.828242532100894" lon="13.211645933016303"><ele>1373.0</ele><time>2026-04-04T12:56:40Z</time></trkpt><trkpt lat="42.82818082112237" lon="13.211469356017057"><ele>1373.0</ele><time>2026-04-04T12:56:41Z</time></trkpt><trkpt lat="42.82810794604342" lon="13.211292183771523"><ele>1373.0</ele><time>2026-04-04T12:56:42Z</time></trkpt><trkpt lat="42.82803026617939" lon="13.21112138948788"><ele>1377.25</ele><time>2026-04-04T12:56:43Z</time></trkpt><trkpt lat="42.82795156469722" lon="13.210955726364736"><ele>1381.5</ele><time>2026-04-04T12:56:44Z</time></trkpt><trkpt lat="42.82787596840154" lon="13.210778617644152"><ele>1385.75</ele><time>2026-04-04T12:56:45Z</time></trkpt><trkpt lat="42.827805510936614" lon="13.210597345013483"><ele>1390.0</ele><time>2026-04-04T12:56:46Z</time></trkpt><trkpt lat="42.82774036334974" lon="13.210414235898366"><ele>1391.25</ele><time>2026-04-04T12:56:47Z</time></trkpt><trkpt lat="42.82770015658857" lon="13.210217573949745"><ele>1392.5</ele><time>2026-04-04T12:56:48Z</time></trkpt><trkpt lat="42.827633826093546" lon="13.210036144806255"><ele>1393.75</ele><time>2026-04-04T12:56:49Z</time></trkpt><trkpt lat="42.82758369524023" lon="13.209850333966044"><ele>1395.0</ele><time>2026-04-04T12:56:50Z</time></trkpt><trkpt lat="42.82753329754995" lon="13.209664513461952"><ele>1395.0</ele><time>2026-04-04T12:56:51Z</time></trkpt><trkpt lat="42.82748866905217" lon="13.209478534922313"><ele>1395.0</ele><time>2026-04-04T12:56:52Z</time></trkpt><trkpt lat="42.82745303738005" lon="13.20929211650105"><ele>1395.0</ele><time>2026-04-04T12:56:53Z</time></trkpt><trkpt lat="42.82742687112268" lon="13.209100756425116"><ele>1395.0</ele><time>2026-04-04T12:56:54Z</time></trkpt><trkpt lat="42.82742805000082" lon="13.208906452128147"><ele>1397.0</ele><time>2026-04-04T12:56:55Z</time></trkpt><trkpt lat="42.82741901936794" lon="13.208713314508701"><ele>1399.0</ele><time>2026-04-04T12:56:56Z</time></trkpt><trkpt lat="42.827413421579564" lon="13.208520017830045"><ele>1401.0</ele><time>2026-04-04T12:56:57Z</time></trkpt><trkpt lat="42.827401316459955" lon="13.208324307908908"><ele>1403.0</ele><time>2026-04-04T12:56:58Z</time></trkpt><trkpt lat="42.8274152816609" lon="13.20813054967039"><ele>1403.0</ele><time>2026-04-04T12:56:59Z</time></trkpt><trkpt lat="42.82744721103173" lon="13.207936371740542"><ele>1403.0</ele><time>2026-04-04T12:57:00Z</time></trkpt><trkpt lat="42.82748683785648" lon="13.207747868290602"><ele>1403.0</ele><time>2026-04-04T12:57:01Z</time></trkpt><trkpt lat="42.82754209286299" lon="13.207562964962865"><ele>1403.0</ele><time>2026-04-04T12:57:02Z</time></trkpt><trkpt lat="42.8276140283287" lon="13.2073941154247"><ele>1407.5</ele><time>2026-04-04T12:57:03Z</time></trkpt><trkpt lat="42.82765355661017" lon="13.207207337738872"><ele>1412.0</ele><time>2026-04-04T12:57:04Z</time></trkpt><trkpt lat="42.82771128825204" lon="13.207044750719888"><ele>1416.5</ele><time>2026-04-04T12:57:05Z</time></trkpt><trkpt lat="42.827780970394045" lon="13.206901625841324"><ele>1421.0</ele><time>2026-04-04T12:57:06Z</time></trkpt><trkpt lat="42.82783712638683" lon="13.206758774065513"><ele>1421.0</ele><time>2026-04-04T12:57:07Z</time></trkpt><trkpt lat="42.827921512566675" lon="13.206649707651724"><ele>1421.0</ele><time>2026-04-04T12:57:08Z</time></trkpt><trkpt lat="42.82801395325013" lon="13.206554974098934"><ele>1421.0</ele><time>2026-04-04T12:57:09Z</time></trkpt><trkpt lat="42.8281048553411" lon="13.206470053330271"><ele>1421.0</ele><time>2026-04-04T12:57:10Z</time></trkpt><trkpt lat="42.82819723143817" lon="13.206394121960248"><ele>1421.0</ele><time>2026-04-04T12:57:11Z</time></trkpt><trkpt lat="42.82828694451616" lon="13.206326566262494"><ele>1421.0</ele><time>2026-04-04T12:57:12Z</time></trkpt><trkpt lat="42.82836877514371" lon="13.206255935223538"><ele>1421.0</ele><time>2026-04-04T12:57:13Z</time></trkpt><trkpt lat="42.82844386702559" lon="13.206178676082983"><ele>1421.0</ele><time>2026-04-04T12:57:14Z</time></trkpt><trkpt lat="42.828514147744286" lon="13.206096044131607"><ele>1421.0</ele><time>2026-04-04T12:57:15Z</time></trkpt><trkpt lat="42.82858061295085" lon="13.206016073563687"><ele>1421.0</ele><time>2026-04-04T12:57:16Z</time></trkpt><trkpt lat="42.82864543041713" lon="13.205935781114285"><ele>1421.0</ele><time>2026-04-04T12:57:17Z</time></trkpt><trkpt lat="42.8287073520994" lon="13.205864067143304"><ele>1421.0</ele><time>2026-04-04T12:57:18Z</time></trkpt><trkpt lat="42.82876670962313" lon="13.20579463840018"><ele>1421.0</ele><time>2026-04-04T12:57:19Z</time></trkpt><trkpt lat="42.828824447748254" lon="13.20572405960649"><ele>1421.0</ele><time>2026-04-04T12:57:20Z</time></trkpt><trkpt lat="42.82887697309515" lon="13.205652814512167"><ele>1421.0</ele><time>2026-04-04T12:57:21Z</time></trkpt><trkpt lat="42.82895221842841" lon="13.205596053281306"><ele>1422.0</ele><time>2026-04-04T12:57:23Z</time></trkpt><trkpt lat="42.82904388951008" lon="13.205592246188091"><ele>1423.0</ele><time>2026-04-04T12:57:27Z</time></trkpt><trkpt lat="42.829134510330526" lon="13.205616495546991"><ele>1424.0</ele><time>2026-04-04T12:57:29Z</time></trkpt><trkpt lat="42.82925068147629" lon="13.205653850486257"><ele>1425.0</ele><time>2026-04-04T12:57:31Z</time></trkpt><trkpt lat="42.82931776312809" lon="13.205651398199503"><ele>1426.0</ele><time>2026-04-04T12:57:32Z</time></trkpt><trkpt lat="42.82938995445817" lon="13.205639073985811"><ele>1427.0</ele><time>2026-04-04T12:57:33Z</time></trkpt><trkpt lat="42.829464994073156" lon="13.205631955743119"><ele>1427.0</ele><time>2026-04-04T12:57:34Z</time></trkpt><trkpt lat="42.82954139892648" lon="13.205624948623289"><ele>1427.0</ele><time>2026-04-04T12:57:35Z</time></trkpt><trkpt lat="42.82961689175379" lon="13.205639870262278"><ele>1427.0</ele><time>2026-04-04T12:57:36Z</time></trkpt><trkpt lat="42.8296965738108" lon="13.205628145515798"><ele>1427.0</ele><time>2026-04-04T12:57:37Z</time></trkpt><trkpt lat="42.82977039985464" lon="13.205612217406076"><ele>1427.0</ele><time>2026-04-04T12:57:38Z</time></trkpt><trkpt lat="42.829840273420146" lon="13.205588981890099"><ele>1427.0</ele><time>2026-04-04T12:57:39Z</time></trkpt><trkpt lat="42.82990450024662" lon="13.205562720696848"><ele>1427.0</ele><time>2026-04-04T12:57:40Z</time></trkpt><trkpt lat="42.82996746338782" lon="13.205522809015662"><ele>1427.0</ele><time>2026-04-04T12:57:41Z</time></trkpt><trkpt lat="42.83002633139849" lon="13.205478767314517"><ele>1427.0</ele><time>2026-04-04T12:57:42Z</time></trkpt><trkpt lat="42.83008274222705" lon="13.205426704280287"><ele>1427.0</ele><time>2026-04-04T12:57:43Z</time></trkpt><trkpt lat="42.830138489023525" lon="13.205366713214227"><ele>1427.0</ele><time>2026-04-04T12:57:44Z</time></trkpt><trkpt lat="42.83019817921912" lon="13.205295719004521"><ele>1427.0</ele><time>2026-04-04T12:57:45Z</time></trkpt><trkpt lat="42.83025912420608" lon="13.205213785906349"><ele>1427.0</ele><time>2026-04-04T12:57:46Z</time></trkpt><trkpt lat="42.83029094344555" lon="13.205083733246726"><ele>1423.1999999999998</ele><time>2026-04-04T12:57:47Z</time></trkpt><trkpt lat="42.830356357095816" lon="13.204990134293435"><ele>1419.4</ele><time>2026-04-04T12:57:48Z</time></trkpt><trkpt lat="42.83042719448566" lon="13.204903891399594"><ele>1415.6</ele><time>2026-04-04T12:57:49Z</time></trkpt><trkpt lat="42.83050211732027" lon="13.20480362335073"><ele>1411.8000000000002</ele><time>2026-04-04T12:57:50Z</time></trkpt><trkpt lat="42.830574549871834" lon="13.204703436850489"><ele>1408.0</ele><time>2026-04-04T12:57:51Z</time></trkpt><trkpt lat="42.8306467627876" lon="13.204599698019384"><ele>1408.0</ele><time>2026-04-04T12:57:52Z</time></trkpt><trkpt lat="42.83072140647696" lon="13.204495790221543"><ele>1408.0</ele><time>2026-04-04T12:57:53Z</time></trkpt><trkpt lat="42.83082255441415" lon="13.20442747177653"><ele>1408.0</ele><time>2026-04-04T12:57:54Z</time></trkpt><trkpt lat="42.8308998814714" lon="13.204324565274653"><ele>1408.0</ele><time>2026-04-04T12:57:55Z</time></trkpt><trkpt lat="42.83097763091276" lon="13.204221096648038"><ele>1408.0</ele><time>2026-04-04T12:57:56Z</time></trkpt><trkpt lat="42.831056851935514" lon="13.204115669656302"><ele>1406.75</ele><time>2026-04-04T12:57:57Z</time></trkpt><trkpt lat="42.83112710326793" lon="13.203993769645695"><ele>1405.5</ele><time>2026-04-04T12:57:58Z</time></trkpt><trkpt lat="42.83121292833484" lon="13.203900779940202"><ele>1404.25</ele><time>2026-04-04T12:57:59Z</time></trkpt><trkpt lat="42.831300481335674" lon="13.203798520269332"><ele>1403.0</ele><time>2026-04-04T12:58:00Z</time></trkpt><trkpt lat="42.83139643282418" lon="13.20371211928833"><ele>1403.0</ele><time>2026-04-04T12:58:01Z</time></trkpt><trkpt lat="42.83150783257557" lon="13.203645200893089"><ele>1403.0</ele><time>2026-04-04T12:58:02Z</time></trkpt><trkpt lat="42.831628496217604" lon="13.203581249999303"><ele>1403.0</ele><time>2026-04-04T12:58:03Z</time></trkpt><trkpt lat="42.83175417250894" lon="13.203515781947907"><ele>1403.0</ele><time>2026-04-04T12:58:04Z</time></trkpt><trkpt lat="42.83187906328846" lon="13.203454883315834"><ele>1405.25</ele><time>2026-04-04T12:58:05Z</time></trkpt><trkpt lat="42.83201151790938" lon="13.203390294175978"><ele>1407.5</ele><time>2026-04-04T12:58:06Z</time></trkpt><trkpt lat="42.832141686472724" lon="13.203306362387131"><ele>1409.75</ele><time>2026-04-04T12:58:07Z</time></trkpt><trkpt lat="42.83227387575803" lon="13.20321812822379"><ele>1412.0</ele><time>2026-04-04T12:58:08Z</time></trkpt><trkpt lat="42.83240979036606" lon="13.203119890282581"><ele>1412.0</ele><time>2026-04-04T12:58:09Z</time></trkpt><trkpt lat="42.83254682612659" lon="13.203021253287945"><ele>1412.0</ele><time>2026-04-04T12:58:10Z</time></trkpt><trkpt lat="42.83268915648895" lon="13.2029307908216"><ele>1412.0</ele><time>2026-04-04T12:58:11Z</time></trkpt><trkpt lat="42.83282433307237" lon="13.202840123492741"><ele>1402.3333333333335</ele><time>2026-04-04T12:58:12Z</time></trkpt><trkpt lat="42.832971990646335" lon="13.20274574568772"><ele>1392.6666666666667</ele><time>2026-04-04T12:58:13Z</time></trkpt><trkpt lat="42.833110658192446" lon="13.20264952241903"><ele>1383.0</ele><time>2026-04-04T12:58:14Z</time></trkpt><trkpt lat="42.83324680338367" lon="13.202551234763133"><ele>1383.0</ele><time>2026-04-04T12:58:15Z</time></trkpt><trkpt lat="42.83338473664924" lon="13.202461032025667"><ele>1383.0</ele><time>2026-04-04T12:58:16Z</time></trkpt><trkpt lat="42.83352377731885" lon="13.202369491543557"><ele>1383.0</ele><time>2026-04-04T12:58:17Z</time></trkpt><trkpt lat="42.83366347119503" lon="13.202277636149192"><ele>1383.6666666666667</ele><time>2026-04-04T12:58:18Z</time></trkpt><trkpt lat="42.83380723584201" lon="13.202203637460489"><ele>1384.3333333333335</ele><time>2026-04-04T12:58:19Z</time></trkpt><trkpt lat="42.83394795454278" lon="13.202110586355392"><ele>1385.0</ele><time>2026-04-04T12:58:20Z</time></trkpt><trkpt lat="42.8340882338785" lon="13.202021284322791"><ele>1385.0</ele><time>2026-04-04T12:58:21Z</time></trkpt><trkpt lat="42.83422703572266" lon="13.201937663269305"><ele>1385.0</ele><time>2026-04-04T12:58:22Z</time></trkpt><trkpt lat="42.834369464489065" lon="13.201857297085711"><ele>1385.0</ele><time>2026-04-04T12:58:23Z</time></trkpt><trkpt lat="42.834513057591614" lon="13.20177970765296"><ele>1376.6666666666667</ele><time>2026-04-04T12:58:24Z</time></trkpt><trkpt lat="42.83465175033548" lon="13.201708664145444"><ele>1368.3333333333333</ele><time>2026-04-04T12:58:25Z</time></trkpt><trkpt lat="42.83478764256407" lon="13.201621900069748"><ele>1360.0</ele><time>2026-04-04T12:58:26Z</time></trkpt><trkpt lat="42.83493730374723" lon="13.201584076975765"><ele>1360.0</ele><time>2026-04-04T12:58:27Z</time></trkpt><trkpt lat="42.835080604497996" lon="13.201528272621687"><ele>1360.0</ele><time>2026-04-04T12:58:28Z</time></trkpt><trkpt lat="42.83522548146618" lon="13.20147060019007"><ele>1360.0</ele><time>2026-04-04T12:58:29Z</time></trkpt><trkpt lat="42.83537079765047" lon="13.201406896906427"><ele>1360.0</ele><time>2026-04-04T12:58:30Z</time></trkpt><trkpt lat="42.835509819821624" lon="13.20133618037563"><ele>1360.0</ele><time>2026-04-04T12:58:31Z</time></trkpt><trkpt lat="42.835636955385056" lon="13.201268346382134"><ele>1360.0</ele><time>2026-04-04T12:58:32Z</time></trkpt><trkpt lat="42.83575347707814" lon="13.201205805439875"><ele>1360.0</ele><time>2026-04-04T12:58:33Z</time></trkpt><trkpt lat="42.83586248916074" lon="13.201147296441837"><ele>1360.0</ele><time>2026-04-04T12:58:34Z</time></trkpt><trkpt lat="42.83595970417182" lon="13.201095119172766"><ele>1360.0</ele><time>2026-04-04T12:58:35Z</time></trkpt><trkpt lat="42.835984755524834" lon="13.200850605389705"><ele>1360.0</ele><time>2026-04-04T12:58:36Z</time></trkpt><trkpt lat="42.83603679421218" lon="13.200728517898725"><ele>1360.0</ele><time>2026-04-04T12:58:37Z</time></trkpt><trkpt lat="42.83611943156647" lon="13.20063345297265"><ele>1360.25</ele><time>2026-04-04T12:58:38Z</time></trkpt><trkpt lat="42.83623118519466" lon="13.200574401553107"><ele>1360.5</ele><time>2026-04-04T12:58:39Z</time></trkpt><trkpt lat="42.83635821553613" lon="13.200564052109694"><ele>1360.75</ele><time>2026-04-04T12:58:40Z</time></trkpt><trkpt lat="42.83649016079656" lon="13.200587814716695"><ele>1361.0</ele><time>2026-04-04T12:58:41Z</time></trkpt><trkpt lat="42.83661565051502" lon="13.200599728784656"><ele>1361.0</ele><time>2026-04-04T12:58:42Z</time></trkpt><trkpt lat="42.836739279959" lon="13.200573985986663"><ele>1361.0</ele><time>2026-04-04T12:58:43Z</time></trkpt><trkpt lat="42.83686189692573" lon="13.200509705925693"><ele>1361.0</ele><time>2026-04-04T12:58:44Z</time></trkpt><trkpt lat="42.83697537275507" lon="13.200408796524899"><ele>1361.0</ele><time>2026-04-04T12:58:45Z</time></trkpt><trkpt lat="42.837069907729905" lon="13.200277762191304"><ele>1356.0</ele><time>2026-04-04T12:58:46Z</time></trkpt><trkpt lat="42.83715665492043" lon="13.200126121581683"><ele>1351.0</ele><time>2026-04-04T12:58:47Z</time></trkpt><trkpt lat="42.83724261188708" lon="13.199974449329481"><ele>1346.0</ele><time>2026-04-04T12:58:48Z</time></trkpt><trkpt lat="42.83732178248472" lon="13.199812810796935"><ele>1341.0</ele><time>2026-04-04T12:58:49Z</time></trkpt><trkpt lat="42.8373842904882" lon="13.199648427547157"><ele>1340.75</ele><time>2026-04-04T12:58:50Z</time></trkpt><trkpt lat="42.83742860240335" lon="13.199486571867135"><ele>1340.5</ele><time>2026-04-04T12:58:51Z</time></trkpt><trkpt lat="42.83746173280104" lon="13.199328723960623"><ele>1340.25</ele><time>2026-04-04T12:58:52Z</time></trkpt><trkpt lat="42.837500098138186" lon="13.199176859431464"><ele>1340.0</ele><time>2026-04-04T12:58:53Z</time></trkpt><trkpt lat="42.837553428866315" lon="13.199038870578889"><ele>1339.4</ele><time>2026-04-04T12:58:54Z</time></trkpt><trkpt lat="42.837630108730956" lon="13.198915389951754"><ele>1338.8</ele><time>2026-04-04T12:58:55Z</time></trkpt><trkpt lat="42.837715936051794" lon="13.198808940831993"><ele>1338.1999999999998</ele><time>2026-04-04T12:58:56Z</time></trkpt><trkpt lat="42.83780170052019" lon="13.198718931130951"><ele>1337.6</ele><time>2026-04-04T12:58:57Z</time></trkpt><trkpt lat="42.837888260425856" lon="13.19863885669338"><ele>1337.0</ele><time>2026-04-04T12:58:58Z</time></trkpt><trkpt lat="42.83797362154586" lon="13.198569157790224"><ele>1336.6</ele><time>2026-04-04T12:58:59Z</time></trkpt><trkpt lat="42.838056892541246" lon="13.19850162287814"><ele>1336.1999999999998</ele><time>2026-04-04T12:59:00Z</time></trkpt><trkpt lat="42.83813744375964" lon="13.198436373005489"><ele>1335.8</ele><time>2026-04-04T12:59:01Z</time></trkpt><trkpt lat="42.83822659732933" lon="13.198371575931818"><ele>1335.4</ele><time>2026-04-04T12:59:02Z</time></trkpt><trkpt lat="42.838313791253434" lon="13.198284837573869"><ele>1335.0</ele><time>2026-04-04T12:59:03Z</time></trkpt><trkpt lat="42.8384044372889" lon="13.19821134826995"><ele>1335.0</ele><time>2026-04-04T12:59:04Z</time></trkpt><trkpt lat="42.838498351653925" lon="13.19813115168261"><ele>1335.0</ele><time>2026-04-04T12:59:05Z</time></trkpt><trkpt lat="42.83859206995507" lon="13.198050493354156"><ele>1335.0</ele><time>2026-04-04T12:59:06Z</time></trkpt><trkpt lat="42.838688628551274" lon="13.197970958121013"><ele>1335.0</ele><time>2026-04-04T12:59:07Z</time></trkpt><trkpt lat="42.83877962890471" lon="13.197887197319913"><ele>1335.0</ele><time>2026-04-04T12:59:08Z</time></trkpt><trkpt lat="42.838871835058995" lon="13.197806006030092"><ele>1335.0</ele><time>2026-04-04T12:59:09Z</time></trkpt><trkpt lat="42.83896265190633" lon="13.197728306796556"><ele>1335.0</ele><time>2026-04-04T12:59:10Z</time></trkpt><trkpt lat="42.839057446899616" lon="13.197654332895404"><ele>1335.0</ele><time>2026-04-04T12:59:11Z</time></trkpt><trkpt lat="42.83915296157012" lon="13.1975771625327"><ele>1335.0</ele><time>2026-04-04T12:59:12Z</time></trkpt><trkpt lat="42.83924337262878" lon="13.197496041832558"><ele>1335.0</ele><time>2026-04-04T12:59:13Z</time></trkpt><trkpt lat="42.83933575790028" lon="13.197416736265282"><ele>1335.2</ele><time>2026-04-04T12:59:14Z</time></trkpt><trkpt lat="42.839423882981194" lon="13.197338127185702"><ele>1335.4</ele><time>2026-04-04T12:59:15Z</time></trkpt><trkpt lat="42.83951158349945" lon="13.197261119559945"><ele>1335.6</ele><time>2026-04-04T12:59:16Z</time></trkpt><trkpt lat="42.83960011222184" lon="13.197190388420703"><ele>1335.8</ele><time>2026-04-04T12:59:17Z</time></trkpt><trkpt lat="42.83968648139409" lon="13.197112841232068"><ele>1336.0</ele><time>2026-04-04T12:59:18Z</time></trkpt><trkpt lat="42.83976672378108" lon="13.197053603514071"><ele>1336.0</ele><time>2026-04-04T12:59:19Z</time></trkpt><trkpt lat="42.839855306014925" lon="13.196984530655543"><ele>1336.0</ele><time>2026-04-04T12:59:20Z</time></trkpt><trkpt lat="42.83993722084668" lon="13.196905855492064"><ele>1336.0</ele><time>2026-04-04T12:59:21Z</time></trkpt><trkpt lat="42.840022922506044" lon="13.196836305774513"><ele>1336.0</ele><time>2026-04-04T12:59:22Z</time></trkpt><trkpt lat="42.8401082406176" lon="13.196758367262525"><ele>1336.0</ele><time>2026-04-04T12:59:23Z</time></trkpt><trkpt lat="42.8401923236343" lon="13.196675685993155"><ele>1335.6</ele><time>2026-04-04T12:59:24Z</time></trkpt><trkpt lat="42.84027255056077" lon="13.196598538875563"><ele>1335.1999999999998</ele><time>2026-04-04T12:59:25Z</time></trkpt><trkpt lat="42.8403523967614" lon="13.1965220435162"><ele>1334.8000000000002</ele><time>2026-04-04T12:59:26Z</time></trkpt><trkpt lat="42.84043222347166" lon="13.196445152656693"><ele>1334.4</ele><time>2026-04-04T12:59:27Z</time></trkpt><trkpt lat="42.840508447174294" lon="13.19638305679023"><ele>1334.0</ele><time>2026-04-04T12:59:28Z</time></trkpt><trkpt lat="42.840595721372146" lon="13.196321519094184"><ele>1334.6</ele><time>2026-04-04T12:59:29Z</time></trkpt><trkpt lat="42.84068342433676" lon="13.196255401534698"><ele>1335.2</ele><time>2026-04-04T12:59:30Z</time></trkpt><trkpt lat="42.840768080421256" lon="13.196196381707802"><ele>1335.8</ele><time>2026-04-04T12:59:31Z</time></trkpt><trkpt lat="42.84086047459792" lon="13.196158017229044"><ele>1336.3999999999999</ele><time>2026-04-04T12:59:32Z</time></trkpt><trkpt lat="42.84095572546042" lon="13.196156816982896"><ele>1337.0</ele><time>2026-04-04T12:59:33Z</time></trkpt><trkpt lat="42.84105072041744" lon="13.196163967464038"><ele>1337.0</ele><time>2026-04-04T12:59:34Z</time></trkpt><trkpt lat="42.84114863917525" lon="13.19617739658497"><ele>1337.0</ele><time>2026-04-04T12:59:35Z</time></trkpt><trkpt lat="42.84124561500589" lon="13.196190963620866"><ele>1337.0</ele><time>2026-04-04T12:59:36Z</time></trkpt><trkpt lat="42.8413571107614" lon="13.19617403049109"><ele>1337.0</ele><time>2026-04-04T12:59:37Z</time></trkpt><trkpt lat="42.841443905244375" lon="13.19620227466868"><ele>1337.0</ele><time>2026-04-04T12:59:38Z</time></trkpt><trkpt lat="42.84154149903957" lon="13.196209249354844"><ele>1337.0</ele><time>2026-04-04T12:59:39Z</time></trkpt><trkpt lat="42.84164187081217" lon="13.196211908185532"><ele>1337.0</ele><time>2026-04-04T12:59:40Z</time></trkpt><trkpt lat="42.84174271324684" lon="13.196213529340527"><ele>1337.0</ele><time>2026-04-04T12:59:41Z</time></trkpt><trkpt lat="42.84183646303453" lon="13.19620581956193"><ele>1337.0</ele><time>2026-04-04T12:59:42Z</time></trkpt><trkpt lat="42.84192463512664" lon="13.196187473397071"><ele>1337.0</ele><time>2026-04-04T12:59:43Z</time></trkpt><trkpt lat="42.84201385481894" lon="13.19618015910793"><ele>1336.8333333333335</ele><time>2026-04-04T12:59:44Z</time></trkpt><trkpt lat="42.84209705867061" lon="13.196172768290161"><ele>1336.6666666666667</ele><time>2026-04-04T12:59:45Z</time></trkpt><trkpt lat="42.8421820728185" lon="13.196171999805191"><ele>1336.5</ele><time>2026-04-04T12:59:46Z</time></trkpt><trkpt lat="42.84226692157264" lon="13.196173507289032"><ele>1336.3333333333333</ele><time>2026-04-04T12:59:47Z</time></trkpt><trkpt lat="42.84235223016445" lon="13.196167842779532"><ele>1336.1666666666665</ele><time>2026-04-04T12:59:48Z</time></trkpt><trkpt lat="42.842427152235885" lon="13.196158670756859"><ele>1336.0</ele><time>2026-04-04T12:59:49Z</time></trkpt><trkpt lat="42.84249412247982" lon="13.19615673048951"><ele>1336.0</ele><time>2026-04-04T12:59:50Z</time></trkpt><trkpt lat="42.842599040845315" lon="13.196157152698568"><ele>1336.0</ele><time>2026-04-04T12:59:52Z</time></trkpt><trkpt lat="42.84258975203432" lon="13.196070982404654"><ele>1336.0</ele><time>2026-04-04T12:59:57Z</time></trkpt><trkpt lat="42.842509730172544" lon="13.196095712131415"><ele>1336.0</ele><time>2026-04-04T13:01:38Z</time></trkpt><trkpt lat="42.84257384293061" lon="13.19606964035776"><ele>1336.0</ele><time>2026-04-04T13:02:01Z</time></trkpt><trkpt lat="42.842493298168186" lon="13.196115766116694"><ele>1336.0</ele><time>2026-04-04T13:02:57Z</time></trkpt><trkpt lat="42.84241892901771" lon="13.196173464269732"><ele>1336.0</ele><time>2026-04-04T13:02:59Z</time></trkpt><trkpt lat="42.84247537517389" lon="13.196120762483257"><ele>1336.0</ele><time>2026-04-04T13:03:31Z</time></trkpt><trkpt lat="42.84254332179225" lon="13.196087475524074"><ele>1336.0</ele><time>2026-04-04T13:03:34Z</time></trkpt><trkpt lat="42.842586791336856" lon="13.196150138954241"><ele>1336.0</ele><time>2026-04-04T13:03:52Z</time></trkpt><trkpt lat="42.84265376682054" lon="13.19611705074471"><ele>1336.0</ele><time>2026-04-04T13:04:07Z</time></trkpt><trkpt lat="42.8426020293126" lon="13.196045331080326"><ele>1336.0</ele><time>2026-04-04T13:04:18Z</time></trkpt><trkpt lat="42.84261189279739" lon="13.19613360717344"><ele>1336.0</ele><time>2026-04-04T13:04:46Z</time></trkpt><trkpt lat="42.842676269791994" lon="13.196120660766281"><ele>1335.8</ele><time>2026-04-04T13:07:20Z</time></trkpt><trkpt lat="42.84275227046478" lon="13.196105255792343"><ele>1335.6</ele><time>2026-04-04T13:07:21Z</time></trkpt><trkpt lat="42.84285322868316" lon="13.196100042157628"><ele>1335.4</ele><time>2026-04-04T13:07:22Z</time></trkpt><trkpt lat="42.842955700438864" lon="13.196086930192523"><ele>1335.2</ele><time>2026-04-04T13:07:23Z</time></trkpt><trkpt lat="42.84306541116655" lon="13.19606929663206"><ele>1335.0</ele><time>2026-04-04T13:07:24Z</time></trkpt><trkpt lat="42.84317445528548" lon="13.196047244675707"><ele>1335.0</ele><time>2026-04-04T13:07:25Z</time></trkpt><trkpt lat="42.843286331975584" lon="13.196027899265111"><ele>1335.0</ele><time>2026-04-04T13:07:26Z</time></trkpt><trkpt lat="42.84340315909457" lon="13.196008819070608"><ele>1335.0</ele><time>2026-04-04T13:07:27Z</time></trkpt><trkpt lat="42.84352241776234" lon="13.195985839108939"><ele>1335.0</ele><time>2026-04-04T13:07:28Z</time></trkpt><trkpt lat="42.843645319097405" lon="13.195959498420425"><ele>1335.75</ele><time>2026-04-04T13:07:29Z</time></trkpt><trkpt lat="42.84377055492967" lon="13.195924314661973"><ele>1336.5</ele><time>2026-04-04T13:07:30Z</time></trkpt><trkpt lat="42.84390728754522" lon="13.195906275781924"><ele>1337.25</ele><time>2026-04-04T13:07:31Z</time></trkpt><trkpt lat="42.84404210445011" lon="13.195887360504418"><ele>1338.0</ele><time>2026-04-04T13:07:32Z</time></trkpt><trkpt lat="42.84417953505165" lon="13.19586975337718"><ele>1338.25</ele><time>2026-04-04T13:07:33Z</time></trkpt><trkpt lat="42.84431407335261" lon="13.19584576574061"><ele>1338.5</ele><time>2026-04-04T13:07:34Z</time></trkpt><trkpt lat="42.8444494159852" lon="13.195822322347503"><ele>1338.75</ele><time>2026-04-04T13:07:35Z</time></trkpt><trkpt lat="42.84458631606617" lon="13.195796948213264"><ele>1339.0</ele><time>2026-04-04T13:07:36Z</time></trkpt><trkpt lat="42.84472531358573" lon="13.195770481159405"><ele>1339.0</ele><time>2026-04-04T13:07:37Z</time></trkpt><trkpt lat="42.84486429315166" lon="13.195748483455052"><ele>1339.0</ele><time>2026-04-04T13:07:38Z</time></trkpt><trkpt lat="42.84500560859675" lon="13.195730970009386"><ele>1339.0</ele><time>2026-04-04T13:07:39Z</time></trkpt><trkpt lat="42.84514675795796" lon="13.195712969234124"><ele>1339.0</ele><time>2026-04-04T13:07:40Z</time></trkpt><trkpt lat="42.845289713087055" lon="13.195694719770332"><ele>1339.25</ele><time>2026-04-04T13:07:41Z</time></trkpt><trkpt lat="42.845432603629675" lon="13.19567959762668"><ele>1339.5</ele><time>2026-04-04T13:07:42Z</time></trkpt><trkpt lat="42.84557599219698" lon="13.195666416301535"><ele>1339.75</ele><time>2026-04-04T13:07:43Z</time></trkpt><trkpt lat="42.84571918962672" lon="13.195651709545803"><ele>1340.0</ele><time>2026-04-04T13:07:44Z</time></trkpt><trkpt lat="42.84584914984925" lon="13.19564171350693"><ele>1340.5</ele><time>2026-04-04T13:07:45Z</time></trkpt><trkpt lat="42.845975751140635" lon="13.19563084495864"><ele>1341.0</ele><time>2026-04-04T13:07:46Z</time></trkpt><trkpt lat="42.84610653369973" lon="13.195619431939797"><ele>1341.5</ele><time>2026-04-04T13:07:47Z</time></trkpt><trkpt lat="42.846230924610474" lon="13.195601632824255"><ele>1342.0</ele><time>2026-04-04T13:07:48Z</time></trkpt><trkpt lat="42.84634705418039" lon="13.1955631461884"><ele>1342.0</ele><time>2026-04-04T13:07:49Z</time></trkpt><trkpt lat="42.84645306773564" lon="13.195484294520867"><ele>1342.0</ele><time>2026-04-04T13:07:50Z</time></trkpt><trkpt lat="42.84653841712854" lon="13.195365573203457"><ele>1342.0</ele><time>2026-04-04T13:07:51Z</time></trkpt><trkpt lat="42.846597021417054" lon="13.195238802201699"><ele>1342.0</ele><time>2026-04-04T13:07:52Z</time></trkpt><trkpt lat="42.84663865125285" lon="13.195100273146736"><ele>1342.0</ele><time>2026-04-04T13:07:53Z</time></trkpt><trkpt lat="42.84668432552232" lon="13.194964823056196"><ele>1342.0</ele><time>2026-04-04T13:07:54Z</time></trkpt><trkpt lat="42.84673843886935" lon="13.194830239584535"><ele>1342.0</ele><time>2026-04-04T13:07:55Z</time></trkpt><trkpt lat="42.84680978706103" lon="13.194734082629573"><ele>1342.0</ele><time>2026-04-04T13:07:56Z</time></trkpt><trkpt lat="42.84688824692845" lon="13.19463960513357"><ele>1342.0</ele><time>2026-04-04T13:07:57Z</time></trkpt><trkpt lat="42.846976311881974" lon="13.194566572083259"><ele>1343.8</ele><time>2026-04-04T13:07:58Z</time></trkpt><trkpt lat="42.847080643137176" lon="13.194533435667791"><ele>1345.6</ele><time>2026-04-04T13:07:59Z</time></trkpt><trkpt lat="42.847183118083265" lon="13.19450925596469"><ele>1347.3999999999999</ele><time>2026-04-04T13:08:00Z</time></trkpt><trkpt lat="42.847285324463606" lon="13.194476097994029"><ele>1349.1999999999998</ele><time>2026-04-04T13:08:01Z</time></trkpt><trkpt lat="42.84738835139838" lon="13.194436963765902"><ele>1351.0</ele><time>2026-04-04T13:08:02Z</time></trkpt><trkpt lat="42.84749434586476" lon="13.194393551702886"><ele>1351.0</ele><time>2026-04-04T13:08:03Z</time></trkpt><trkpt lat="42.8475978393273" lon="13.194342093680484"><ele>1351.0</ele><time>2026-04-04T13:08:04Z</time></trkpt><trkpt lat="42.84769184342902" lon="13.19428066921254"><ele>1351.0</ele><time>2026-04-04T13:08:05Z</time></trkpt><trkpt lat="42.84777348197177" lon="13.194215607693799"><ele>1351.0</ele><time>2026-04-04T13:08:06Z</time></trkpt><trkpt lat="42.847852475911296" lon="13.194138988452789"><ele>1351.0</ele><time>2026-04-04T13:08:07Z</time></trkpt><trkpt lat="42.84793217446962" lon="13.194079355004634"><ele>1350.8</ele><time>2026-04-04T13:08:08Z</time></trkpt><trkpt lat="42.84801070136827" lon="13.194011500244763"><ele>1350.6</ele><time>2026-04-04T13:08:09Z</time></trkpt><trkpt lat="42.848088654640925" lon="13.193948783542181"><ele>1350.4</ele><time>2026-04-04T13:08:10Z</time></trkpt><trkpt lat="42.84816567238356" lon="13.193882367062916"><ele>1350.2</ele><time>2026-04-04T13:08:11Z</time></trkpt><trkpt lat="42.84825170630467" lon="13.193830486711079"><ele>1350.0</ele><time>2026-04-04T13:08:12Z</time></trkpt><trkpt lat="42.848343822986045" lon="13.193735476632211"><ele>1352.0</ele><time>2026-04-04T13:08:13Z</time></trkpt><trkpt lat="42.848437108215464" lon="13.193643981969725"><ele>1354.0</ele><time>2026-04-04T13:08:14Z</time></trkpt><trkpt lat="42.84853216654326" lon="13.193533876348422"><ele>1356.0</ele><time>2026-04-04T13:08:15Z</time></trkpt><trkpt lat="42.84862977767781" lon="13.193421608074438"><ele>1358.0</ele><time>2026-04-04T13:08:16Z</time></trkpt><trkpt lat="42.848730344178506" lon="13.193301114904562"><ele>1363.0</ele><time>2026-04-04T13:08:17Z</time></trkpt><trkpt lat="42.84883192469786" lon="13.193168907823889"><ele>1368.0</ele><time>2026-04-04T13:08:18Z</time></trkpt><trkpt lat="42.848947519798706" lon="13.193041351953244"><ele>1373.0</ele><time>2026-04-04T13:08:19Z</time></trkpt><trkpt lat="42.84906207880758" lon="13.192925705977808"><ele>1378.0</ele><time>2026-04-04T13:08:20Z</time></trkpt><trkpt lat="42.849176756816945" lon="13.192794408790514"><ele>1378.0</ele><time>2026-04-04T13:08:21Z</time></trkpt><trkpt lat="42.84929164653263" lon="13.192664936028551"><ele>1378.0</ele><time>2026-04-04T13:08:22Z</time></trkpt><trkpt lat="42.84941017111793" lon="13.192531861523786"><ele>1378.0</ele><time>2026-04-04T13:08:23Z</time></trkpt><trkpt lat="42.849521349572925" lon="13.19239430170404"><ele>1379.0</ele><time>2026-04-04T13:08:24Z</time></trkpt><trkpt lat="42.8496350828081" lon="13.192233768445954"><ele>1380.0</ele><time>2026-04-04T13:08:25Z</time></trkpt><trkpt lat="42.84974782025831" lon="13.19206254782636"><ele>1381.0</ele><time>2026-04-04T13:08:26Z</time></trkpt><trkpt lat="42.84986071777892" lon="13.191884777832541"><ele>1381.0</ele><time>2026-04-04T13:08:27Z</time></trkpt><trkpt lat="42.84997670230121" lon="13.191688246124622"><ele>1381.0</ele><time>2026-04-04T13:08:28Z</time></trkpt><trkpt lat="42.85009987394427" lon="13.191504876819701"><ele>1381.0</ele><time>2026-04-04T13:08:29Z</time></trkpt><trkpt lat="42.850223530067545" lon="13.191337700773445"><ele>1381.6666666666665</ele><time>2026-04-04T13:08:30Z</time></trkpt><trkpt lat="42.85033177946559" lon="13.191157143991266"><ele>1382.3333333333333</ele><time>2026-04-04T13:08:31Z</time></trkpt><trkpt lat="42.85043159016083" lon="13.190992938155366"><ele>1383.0</ele><time>2026-04-04T13:08:32Z</time></trkpt><trkpt lat="42.850525785223226" lon="13.19083685626246"><ele>1383.0</ele><time>2026-04-04T13:08:33Z</time></trkpt><trkpt lat="42.850615276165136" lon="13.190687652388908"><ele>1383.0</ele><time>2026-04-04T13:08:34Z</time></trkpt><trkpt lat="42.85070060198329" lon="13.19055449300144"><ele>1383.0</ele><time>2026-04-04T13:08:35Z</time></trkpt><trkpt lat="42.85079119354678" lon="13.190425518834862"><ele>1383.0</ele><time>2026-04-04T13:08:36Z</time></trkpt><trkpt lat="42.85088835283976" lon="13.190315333012324"><ele>1389.25</ele><time>2026-04-04T13:08:37Z</time></trkpt><trkpt lat="42.8509936671476" lon="13.190230383753851"><ele>1395.5</ele><time>2026-04-04T13:08:38Z</time></trkpt><trkpt lat="42.8511074761417" lon="13.190168958909629"><ele>1401.75</ele><time>2026-04-04T13:08:39Z</time></trkpt><trkpt lat="42.851229289325076" lon="13.190134974760161"><ele>1408.0</ele><time>2026-04-04T13:08:40Z</time></trkpt><trkpt lat="42.851355248810926" lon="13.190130573752688"><ele>1408.0</ele><time>2026-04-04T13:08:41Z</time></trkpt><trkpt lat="42.85147895171422" lon="13.19014958886514"><ele>1408.0</ele><time>2026-04-04T13:08:42Z</time></trkpt><trkpt lat="42.85160527824559" lon="13.190177377121985"><ele>1408.0</ele><time>2026-04-04T13:08:43Z</time></trkpt><trkpt lat="42.85172988366957" lon="13.190208705494879"><ele>1408.0</ele><time>2026-04-04T13:08:44Z</time></trkpt><trkpt lat="42.85185911520528" lon="13.19022818423"><ele>1411.25</ele><time>2026-04-04T13:08:45Z</time></trkpt><trkpt lat="42.852001385146195" lon="13.190240962198793"><ele>1414.5</ele><time>2026-04-04T13:08:46Z</time></trkpt><trkpt lat="42.852126037272654" lon="13.190263883771044"><ele>1417.75</ele><time>2026-04-04T13:08:47Z</time></trkpt><trkpt lat="42.852261093842436" lon="13.190284373326728"><ele>1421.0</ele><time>2026-04-04T13:08:48Z</time></trkpt><trkpt lat="42.852400132702044" lon="13.190309562260875"><ele>1421.0</ele><time>2026-04-04T13:08:49Z</time></trkpt><trkpt lat="42.852531609559826" lon="13.190337821318591"><ele>1421.0</ele><time>2026-04-04T13:08:50Z</time></trkpt><trkpt lat="42.85266958530626" lon="13.190365734646289"><ele>1421.0</ele><time>2026-04-04T13:08:51Z</time></trkpt><trkpt lat="42.85280581929095" lon="13.190399109333452"><ele>1421.0</ele><time>2026-04-04T13:08:52Z</time></trkpt><trkpt lat="42.85294683259881" lon="13.19043250665096"><ele>1424.25</ele><time>2026-04-04T13:08:53Z</time></trkpt><trkpt lat="42.85308121474" lon="13.190467124686197"><ele>1427.5</ele><time>2026-04-04T13:08:54Z</time></trkpt><trkpt lat="42.85322550706666" lon="13.190500841456796"><ele>1430.75</ele><time>2026-04-04T13:08:55Z</time></trkpt><trkpt lat="42.85336086006195" lon="13.190539730327629"><ele>1434.0</ele><time>2026-04-04T13:08:56Z</time></trkpt><trkpt lat="42.85348808872121" lon="13.190587480500811"><ele>1431.75</ele><time>2026-04-04T13:08:57Z</time></trkpt><trkpt lat="42.8536128529647" lon="13.190634489730233"><ele>1429.5</ele><time>2026-04-04T13:08:58Z</time></trkpt><trkpt lat="42.85374183088921" lon="13.190681208367113"><ele>1427.25</ele><time>2026-04-04T13:08:59Z</time></trkpt><trkpt lat="42.85388827050198" lon="13.190725993511965"><ele>1425.0</ele><time>2026-04-04T13:09:00Z</time></trkpt><trkpt lat="42.854026758246285" lon="13.190775229986713"><ele>1425.0</ele><time>2026-04-04T13:09:01Z</time></trkpt><trkpt lat="42.85416591209588" lon="13.190830061822691"><ele>1425.0</ele><time>2026-04-04T13:09:02Z</time></trkpt><trkpt lat="42.85429952936907" lon="13.190887049732027"><ele>1425.0</ele><time>2026-04-04T13:09:03Z</time></trkpt><trkpt lat="42.85442026452988" lon="13.190935523583175"><ele>1425.0</ele><time>2026-04-04T13:09:04Z</time></trkpt><trkpt lat="42.8545415769712" lon="13.190992842691161"><ele>1429.75</ele><time>2026-04-04T13:09:05Z</time></trkpt><trkpt lat="42.85466377140878" lon="13.191049128816497"><ele>1434.5</ele><time>2026-04-04T13:09:06Z</time></trkpt><trkpt lat="42.85478518424411" lon="13.191106294195718"><ele>1439.25</ele><time>2026-04-04T13:09:07Z</time></trkpt><trkpt lat="42.8549070456652" lon="13.191160367074232"><ele>1444.0</ele><time>2026-04-04T13:09:08Z</time></trkpt><trkpt lat="42.85503082753752" lon="13.191214027908188"><ele>1446.6</ele><time>2026-04-04T13:09:09Z</time></trkpt><trkpt lat="42.85513387002714" lon="13.1912860369317"><ele>1449.2</ele><time>2026-04-04T13:09:10Z</time></trkpt><trkpt lat="42.855179674851684" lon="13.191381497408493"><ele>1451.8</ele><time>2026-04-04T13:09:11Z</time></trkpt><trkpt lat="42.85520183393227" lon="13.191511387208527"><ele>1454.3999999999999</ele><time>2026-04-04T13:09:12Z</time></trkpt><trkpt lat="42.855223368907595" lon="13.191662702171477"><ele>1457.0</ele><time>2026-04-04T13:09:13Z</time></trkpt><trkpt lat="42.85523021507254" lon="13.191807998540089"><ele>1457.0</ele><time>2026-04-04T13:09:14Z</time></trkpt><trkpt lat="42.855222622998326" lon="13.191938149075508"><ele>1457.0</ele><time>2026-04-04T13:09:15Z</time></trkpt><trkpt lat="42.8552174466351" lon="13.192081976450579"><ele>1457.0</ele><time>2026-04-04T13:09:16Z</time></trkpt><trkpt lat="42.8552144775761" lon="13.192231616902635"><ele>1457.0</ele><time>2026-04-04T13:09:17Z</time></trkpt><trkpt lat="42.85522855920399" lon="13.192360431154201"><ele>1457.0</ele><time>2026-04-04T13:09:18Z</time></trkpt><trkpt lat="42.85524116331144" lon="13.192475271557672"><ele>1457.1666666666667</ele><time>2026-04-04T13:09:19Z</time></trkpt><trkpt lat="42.85524245425906" lon="13.192567895211235"><ele>1457.3333333333335</ele><time>2026-04-04T13:09:20Z</time></trkpt><trkpt lat="42.855269701557354" lon="13.192702758912374"><ele>1457.5</ele><time>2026-04-04T13:09:22Z</time></trkpt><trkpt lat="42.85528398890216" lon="13.1927922013866"><ele>1457.6666666666667</ele><time>2026-04-04T13:09:24Z</time></trkpt><trkpt lat="42.85536221410686" lon="13.192774358352581"><ele>1457.8333333333333</ele><time>2026-04-04T13:09:28Z</time></trkpt><trkpt lat="42.85533226991303" lon="13.192634664960861"><ele>1458.0</ele><time>2026-04-04T13:09:30Z</time></trkpt><trkpt lat="42.85530827394934" lon="13.192546722102616"><ele>1458.0</ele><time>2026-04-04T13:09:31Z</time></trkpt><trkpt lat="42.8552897122507" lon="13.192452016322777"><ele>1458.0</ele><time>2026-04-04T13:09:32Z</time></trkpt><trkpt lat="42.855276822188124" lon="13.192347726870231"><ele>1458.0</ele><time>2026-04-04T13:09:33Z</time></trkpt><trkpt lat="42.85526762474311" lon="13.192254508197466"><ele>1458.0</ele><time>2026-04-04T13:09:34Z</time></trkpt><trkpt lat="42.85525886720369" lon="13.19210990464927"><ele>1458.0</ele><time>2026-04-04T13:09:36Z</time></trkpt><trkpt lat="42.855263501033555" lon="13.191961725110986"><ele>1458.0</ele><time>2026-04-04T13:09:38Z</time></trkpt><trkpt lat="42.855269462147724" lon="13.191853478383166"><ele>1458.0</ele><time>2026-04-04T13:09:41Z</time></trkpt><trkpt lat="42.85521501961624" lon="13.19194318758918"><ele>1458.0</ele><time>2026-04-04T13:10:41Z</time></trkpt><trkpt lat="42.85522312541852" lon="13.192044732247776"><ele>1458.0</ele><time>2026-04-04T13:10:42Z</time></trkpt><trkpt lat="42.85523492885358" lon="13.192183750610834"><ele>1458.0</ele><time>2026-04-04T13:10:43Z</time></trkpt><trkpt lat="42.85524535779341" lon="13.19233994699243"><ele>1458.0</ele><time>2026-04-04T13:10:44Z</time></trkpt><trkpt lat="42.855252673731336" lon="13.192449015064714"><ele>1458.0</ele><time>2026-04-04T13:10:45Z</time></trkpt><trkpt lat="42.85525829414923" lon="13.192539094317478"><ele>1458.0</ele><time>2026-04-04T13:10:46Z</time></trkpt><trkpt lat="42.855280963924166" lon="13.192695506987077"><ele>1458.0</ele><time>2026-04-04T13:10:48Z</time></trkpt><trkpt lat="42.85530185963745" lon="13.19278164323608"><ele>1458.0</ele><time>2026-04-04T13:10:50Z</time></trkpt><trkpt lat="42.855352327404894" lon="13.192891729670256"><ele>1458.0</ele><time>2026-04-04T13:10:56Z</time></trkpt><trkpt lat="42.85538787645756" lon="13.193060156143105"><ele>1457.5</ele><time>2026-04-04T13:10:58Z</time></trkpt><trkpt lat="42.855407919798544" lon="13.19317367652177"><ele>1457.0</ele><time>2026-04-04T13:10:59Z</time></trkpt><trkpt lat="42.855430705562604" lon="13.193285057542871"><ele>1456.5</ele><time>2026-04-04T13:11:00Z</time></trkpt><trkpt lat="42.85545962079441" lon="13.193399633677203"><ele>1456.0</ele><time>2026-04-04T13:11:01Z</time></trkpt><trkpt lat="42.85548591950448" lon="13.193520815643902"><ele>1455.5</ele><time>2026-04-04T13:11:02Z</time></trkpt><trkpt lat="42.855509948404716" lon="13.193642136232864"><ele>1455.0</ele><time>2026-04-04T13:11:03Z</time></trkpt><trkpt lat="42.855543950262316" lon="13.193747595668144"><ele>1455.0</ele><time>2026-04-04T13:11:04Z</time></trkpt><trkpt lat="42.85558437730392" lon="13.19382309330442"><ele>1455.0</ele><time>2026-04-04T13:11:05Z</time></trkpt><trkpt lat="42.85569250165639" lon="13.193881206669664"><ele>1455.0</ele><time>2026-04-04T13:11:07Z</time></trkpt><trkpt lat="42.855780193933" lon="13.193793068181318"><ele>1455.0</ele><time>2026-04-04T13:11:09Z</time></trkpt><trkpt lat="42.85579332568784" lon="13.193698029461094"><ele>1455.0</ele><time>2026-04-04T13:11:10Z</time></trkpt><trkpt lat="42.85578391821363" lon="13.193609795247992"><ele>1455.0</ele><time>2026-04-04T13:11:11Z</time></trkpt><trkpt lat="42.855782370995804" lon="13.193441996937766"><ele>1455.0</ele><time>2026-04-04T13:11:13Z</time></trkpt><trkpt lat="42.85577308518098" lon="13.193347831389936"><ele>1455.0</ele><time>2026-04-04T13:11:14Z</time></trkpt><trkpt lat="42.85576007836497" lon="13.193234843727074"><ele>1455.0</ele><time>2026-04-04T13:11:15Z</time></trkpt><trkpt lat="42.85575199308632" lon="13.193104232549278"><ele>1455.0</ele><time>2026-04-04T13:11:16Z</time></trkpt><trkpt lat="42.85575703654938" lon="13.192965343994361"><ele>1455.0</ele><time>2026-04-04T13:11:17Z</time></trkpt><trkpt lat="42.855772234184144" lon="13.19282314006046"><ele>1455.5</ele><time>2026-04-04T13:11:18Z</time></trkpt><trkpt lat="42.8557963137471" lon="13.192669555189863"><ele>1456.0</ele><time>2026-04-04T13:11:19Z</time></trkpt><trkpt lat="42.85581919595959" lon="13.192517408858185"><ele>1456.5</ele><time>2026-04-04T13:11:20Z</time></trkpt><trkpt lat="42.855834916772864" lon="13.192364680741054"><ele>1457.0</ele><time>2026-04-04T13:11:21Z</time></trkpt><trkpt lat="42.85585263433746" lon="13.192207584395275"><ele>1457.0</ele><time>2026-04-04T13:11:22Z</time></trkpt><trkpt lat="42.85586442553451" lon="13.192051643197587"><ele>1457.0</ele><time>2026-04-04T13:11:23Z</time></trkpt><trkpt lat="42.8558693257373" lon="13.191909849963558"><ele>1457.0</ele><time>2026-04-04T13:11:24Z</time></trkpt><trkpt lat="42.855873006155974" lon="13.191794776613786"><ele>1457.0</ele><time>2026-04-04T13:11:25Z</time></trkpt><trkpt lat="42.855877959524946" lon="13.19170698174175"><ele>1457.0</ele><time>2026-04-04T13:11:26Z</time></trkpt><trkpt lat="42.85596221200623" lon="13.191605816093213"><ele>1460.8333333333335</ele><time>2026-04-04T13:11:28Z</time></trkpt><trkpt lat="42.856026279639714" lon="13.191633191995372"><ele>1464.6666666666667</ele><time>2026-04-04T13:11:29Z</time></trkpt><trkpt lat="42.8560805656779" lon="13.191787010835311"><ele>1468.5</ele><time>2026-04-04T13:11:31Z</time></trkpt><trkpt lat="42.85609780142048" lon="13.191869709770861"><ele>1472.3333333333333</ele><time>2026-04-04T13:11:32Z</time></trkpt><trkpt lat="42.8561096585526" lon="13.191980788980048"><ele>1476.1666666666665</ele><time>2026-04-04T13:11:33Z</time></trkpt><trkpt lat="42.856116516343" lon="13.192103131615735"><ele>1480.0</ele><time>2026-04-04T13:11:34Z</time></trkpt><trkpt lat="42.85612983719722" lon="13.192213344035752"><ele>1480.0</ele><time>2026-04-04T13:11:35Z</time></trkpt><trkpt lat="42.85615021277873" lon="13.192305724140393"><ele>1480.0</ele><time>2026-04-04T13:11:36Z</time></trkpt><trkpt lat="42.85621982410401" lon="13.192460830654305"><ele>1480.0</ele><time>2026-04-04T13:11:38Z</time></trkpt><trkpt lat="42.85625674730746" lon="13.192550260500836"><ele>1480.0</ele><time>2026-04-04T13:11:39Z</time></trkpt><trkpt lat="42.856295710067535" lon="13.192642059169245"><ele>1480.0</ele><time>2026-04-04T13:11:40Z</time></trkpt><trkpt lat="42.856347029884994" lon="13.192738364308031"><ele>1480.0</ele><time>2026-04-04T13:11:41Z</time></trkpt><trkpt lat="42.856404496941" lon="13.192833687285521"><ele>1479.6</ele><time>2026-04-04T13:11:42Z</time></trkpt><trkpt lat="42.85646795121577" lon="13.192926320976058"><ele>1479.2</ele><time>2026-04-04T13:11:43Z</time></trkpt><trkpt lat="42.85651751905973" lon="13.19302578021847"><ele>1478.8000000000002</ele><time>2026-04-04T13:11:44Z</time></trkpt><trkpt lat="42.85660872720004" lon="13.193074730298168"><ele>1478.4</ele><time>2026-04-04T13:11:45Z</time></trkpt><trkpt lat="42.85669038182763" lon="13.193113558153845"><ele>1478.0</ele><time>2026-04-04T13:11:46Z</time></trkpt><trkpt lat="42.85678117923784" lon="13.193115976239776"><ele>1479.6000000000001</ele><time>2026-04-04T13:11:47Z</time></trkpt><trkpt lat="42.856870421605485" lon="13.193077933275546"><ele>1481.2</ele><time>2026-04-04T13:11:48Z</time></trkpt><trkpt lat="42.856951463944036" lon="13.193008270528923"><ele>1482.8</ele><time>2026-04-04T13:11:49Z</time></trkpt><trkpt lat="42.857023404640955" lon="13.19291437296681"><ele>1484.4</ele><time>2026-04-04T13:11:50Z</time></trkpt><trkpt lat="42.85709687015812" lon="13.192818806657204"><ele>1486.0</ele><time>2026-04-04T13:11:51Z</time></trkpt><trkpt lat="42.85717442502622" lon="13.192724846833748"><ele>1486.0</ele><time>2026-04-04T13:11:52Z</time></trkpt><trkpt lat="42.857248194210875" lon="13.192630066666165"><ele>1486.0</ele><time>2026-04-04T13:11:53Z</time></trkpt><trkpt lat="42.857308803316386" lon="13.192530399688714"><ele>1486.0</ele><time>2026-04-04T13:11:54Z</time></trkpt><trkpt lat="42.8573741887062" lon="13.192429522848306"><ele>1486.0</ele><time>2026-04-04T13:11:55Z</time></trkpt><trkpt lat="42.8574361021912" lon="13.192332555640618"><ele>1486.0</ele><time>2026-04-04T13:11:56Z</time></trkpt><trkpt lat="42.85750684060416" lon="13.192235931850542"><ele>1486.6</ele><time>2026-04-04T13:11:57Z</time></trkpt><trkpt lat="42.85757272451071" lon="13.19213041285734"><ele>1487.1999999999998</ele><time>2026-04-04T13:11:58Z</time></trkpt><trkpt lat="42.85763797381564" lon="13.19201978548872"><ele>1487.8000000000002</ele><time>2026-04-04T13:11:59Z</time></trkpt><trkpt lat="42.857709684390855" lon="13.1919090381097"><ele>1488.4</ele><time>2026-04-04T13:12:00Z</time></trkpt><trkpt lat="42.85778260705939" lon="13.191798583496555"><ele>1489.0</ele><time>2026-04-04T13:12:01Z</time></trkpt><trkpt lat="42.85785018367023" lon="13.191689216724232"><ele>1490.0</ele><time>2026-04-04T13:12:02Z</time></trkpt><trkpt lat="42.857923217504585" lon="13.191578868348754"><ele>1491.0</ele><time>2026-04-04T13:12:03Z</time></trkpt><trkpt lat="42.85799938890348" lon="13.191472091788453"><ele>1492.0</ele><time>2026-04-04T13:12:04Z</time></trkpt><trkpt lat="42.85807202152041" lon="13.191363533277745"><ele>1493.0</ele><time>2026-04-04T13:12:05Z</time></trkpt><trkpt lat="42.85814526441116" lon="13.191256405785214"><ele>1494.0</ele><time>2026-04-04T13:12:06Z</time></trkpt><trkpt lat="42.85821413377662" lon="13.191151757836304"><ele>1494.0</ele><time>2026-04-04T13:12:07Z</time></trkpt><trkpt lat="42.85828225157346" lon="13.191050462899693"><ele>1494.0</ele><time>2026-04-04T13:12:08Z</time></trkpt><trkpt lat="42.85834528753035" lon="13.19094861671539"><ele>1494.0</ele><time>2026-04-04T13:12:09Z</time></trkpt><trkpt lat="42.85840073480985" lon="13.190856035353391"><ele>1494.0</ele><time>2026-04-04T13:12:10Z</time></trkpt><trkpt lat="42.85845001965348" lon="13.190774809080164"><ele>1494.0</ele><time>2026-04-04T13:12:11Z</time></trkpt><trkpt lat="42.858487497981564" lon="13.190699989317038"><ele>1494.0</ele><time>2026-04-04T13:12:12Z</time></trkpt><trkpt lat="42.85854098515753" lon="13.1906008471883"><ele>1493.8333333333333</ele><time>2026-04-04T13:12:14Z</time></trkpt><trkpt lat="42.858593454596175" lon="13.190523085448215"><ele>1493.6666666666667</ele><time>2026-04-04T13:12:16Z</time></trkpt><trkpt lat="42.85864296846254" lon="13.190415883133529"><ele>1493.5</ele><time>2026-04-04T13:12:18Z</time></trkpt><trkpt lat="42.85870426052124" lon="13.1902685616646"><ele>1493.3333333333335</ele><time>2026-04-04T13:12:20Z</time></trkpt><trkpt lat="42.85872959403448" lon="13.190179520268117"><ele>1493.1666666666667</ele><time>2026-04-04T13:12:21Z</time></trkpt><trkpt lat="42.85875864194697" lon="13.190091030615376"><ele>1493.0</ele><time>2026-04-04T13:12:22Z</time></trkpt><trkpt lat="42.85878482354934" lon="13.18999906679583"><ele>1493.0</ele><time>2026-04-04T13:12:23Z</time></trkpt><trkpt lat="42.85881240150439" lon="13.189895422841253"><ele>1493.0</ele><time>2026-04-04T13:12:24Z</time></trkpt><trkpt lat="42.858846624104615" lon="13.189782814188332"><ele>1493.0</ele><time>2026-04-04T13:12:25Z</time></trkpt><trkpt lat="42.85888622456248" lon="13.189663092975032"><ele>1493.0</ele><time>2026-04-04T13:12:26Z</time></trkpt><trkpt lat="42.858929632624395" lon="13.189540876725838"><ele>1493.0</ele><time>2026-04-04T13:12:27Z</time></trkpt><trkpt lat="42.8589722138056" lon="13.189420119738005"><ele>1492.1666666666667</ele><time>2026-04-04T13:12:28Z</time></trkpt><trkpt lat="42.85901365548273" lon="13.189314489757756"><ele>1491.3333333333335</ele><time>2026-04-04T13:12:29Z</time></trkpt><trkpt lat="42.85906567951091" lon="13.189234310202199"><ele>1490.5</ele><time>2026-04-04T13:12:30Z</time></trkpt><trkpt lat="42.85913694711045" lon="13.18919869688959"><ele>1489.6666666666667</ele><time>2026-04-04T13:12:31Z</time></trkpt><trkpt lat="42.85921644889821" lon="13.18922735219497"><ele>1488.8333333333333</ele><time>2026-04-04T13:12:32Z</time></trkpt><trkpt lat="42.859277821175525" lon="13.189316667920432"><ele>1488.0</ele><time>2026-04-04T13:12:33Z</time></trkpt><trkpt lat="42.85931702601333" lon="13.189441674237335"><ele>1485.2</ele><time>2026-04-04T13:12:34Z</time></trkpt><trkpt lat="42.85935131965506" lon="13.189582480937075"><ele>1482.4</ele><time>2026-04-04T13:12:35Z</time></trkpt><trkpt lat="42.85939685319411" lon="13.189722380016889"><ele>1479.6000000000001</ele><time>2026-04-04T13:12:36Z</time></trkpt><trkpt lat="42.85945206515032" lon="13.189860135682283"><ele>1476.8000000000002</ele><time>2026-04-04T13:12:37Z</time></trkpt><trkpt lat="42.85952181164174" lon="13.18997098579328"><ele>1474.0</ele><time>2026-04-04T13:12:38Z</time></trkpt><trkpt lat="42.85961734529368" lon="13.190050526026297"><ele>1474.0</ele><time>2026-04-04T13:12:39Z</time></trkpt><trkpt lat="42.85974421058796" lon="13.190102449508531"><ele>1474.0</ele><time>2026-04-04T13:12:40Z</time></trkpt><trkpt lat="42.859856436692745" lon="13.190168439617732"><ele>1474.0</ele><time>2026-04-04T13:12:41Z</time></trkpt><trkpt lat="42.859983470008906" lon="13.190251267146902"><ele>1474.0</ele><time>2026-04-04T13:12:42Z</time></trkpt><trkpt lat="42.860107247223205" lon="13.190353580018876"><ele>1467.0</ele><time>2026-04-04T13:12:43Z</time></trkpt><trkpt lat="42.86022217149101" lon="13.190439931801393"><ele>1460.0</ele><time>2026-04-04T13:12:44Z</time></trkpt><trkpt lat="42.86033642285484" lon="13.190490926027021"><ele>1453.0</ele><time>2026-04-04T13:12:45Z</time></trkpt><trkpt lat="42.86046792415182" lon="13.190497354993852"><ele>1446.0</ele><time>2026-04-04T13:12:46Z</time></trkpt><trkpt lat="42.860604295347706" lon="13.190487058273458"><ele>1446.0</ele><time>2026-04-04T13:12:47Z</time></trkpt><trkpt lat="42.860721385196015" lon="13.190510566028706"><ele>1446.0</ele><time>2026-04-04T13:12:48Z</time></trkpt><trkpt lat="42.86083199420695" lon="13.190593380869688"><ele>1446.0</ele><time>2026-04-04T13:12:49Z</time></trkpt><trkpt lat="42.86093009886309" lon="13.190710628434491"><ele>1446.0</ele><time>2026-04-04T13:12:50Z</time></trkpt><trkpt lat="42.861016507094604" lon="13.190823213195523"><ele>1449.5</ele><time>2026-04-04T13:12:51Z</time></trkpt><trkpt lat="42.86112556666351" lon="13.190913748721046"><ele>1453.0</ele><time>2026-04-04T13:12:52Z</time></trkpt><trkpt lat="42.861264664710085" lon="13.190959437260418"><ele>1456.5</ele><time>2026-04-04T13:12:53Z</time></trkpt><trkpt lat="42.86141550373619" lon="13.190976337333632"><ele>1460.0</ele><time>2026-04-04T13:12:54Z</time></trkpt><trkpt lat="42.86156462776975" lon="13.191006423632116"><ele>1460.0</ele><time>2026-04-04T13:12:55Z</time></trkpt><trkpt lat="42.86170914502495" lon="13.191050710783529"><ele>1460.0</ele><time>2026-04-04T13:12:56Z</time></trkpt><trkpt lat="42.861844760196604" lon="13.191106984819616"><ele>1460.0</ele><time>2026-04-04T13:12:57Z</time></trkpt><trkpt lat="42.86197526835323" lon="13.19115040529523"><ele>1460.0</ele><time>2026-04-04T13:12:58Z</time></trkpt><trkpt lat="42.862103729039994" lon="13.191147011467724"><ele>1457.75</ele><time>2026-04-04T13:12:59Z</time></trkpt><trkpt lat="42.862228597895346" lon="13.191111528790536"><ele>1455.5</ele><time>2026-04-04T13:13:00Z</time></trkpt><trkpt lat="42.862361229303154" lon="13.191062791890149"><ele>1453.25</ele><time>2026-04-04T13:13:01Z</time></trkpt><trkpt lat="42.86249295476114" lon="13.190991901968635"><ele>1451.0</ele><time>2026-04-04T13:13:02Z</time></trkpt><trkpt lat="42.86262162653076" lon="13.190892755704683"><ele>1457.0</ele><time>2026-04-04T13:13:03Z</time></trkpt><trkpt lat="42.862746007010976" lon="13.190779041632794"><ele>1463.0</ele><time>2026-04-04T13:13:04Z</time></trkpt><trkpt lat="42.86288119056833" lon="13.190662510157978"><ele>1469.0</ele><time>2026-04-04T13:13:05Z</time></trkpt><trkpt lat="42.86301164808318" lon="13.19054093763863"><ele>1466.0</ele><time>2026-04-04T13:13:06Z</time></trkpt><trkpt lat="42.863161044110306" lon="13.190422619598147"><ele>1463.0</ele><time>2026-04-04T13:13:07Z</time></trkpt><trkpt lat="42.86330736187608" lon="13.190304107195114"><ele>1460.0</ele><time>2026-04-04T13:13:08Z</time></trkpt><trkpt lat="42.863452014304755" lon="13.190174440848818"><ele>1460.0</ele><time>2026-04-04T13:13:09Z</time></trkpt><trkpt lat="42.86359802429554" lon="13.19004508468848"><ele>1460.0</ele><time>2026-04-04T13:13:10Z</time></trkpt><trkpt lat="42.86373645770185" lon="13.189897141137156"><ele>1460.0</ele><time>2026-04-04T13:13:11Z</time></trkpt><trkpt lat="42.86386921133594" lon="13.189736653581264"><ele>1457.3333333333335</ele><time>2026-04-04T13:13:12Z</time></trkpt><trkpt lat="42.86400214143928" lon="13.189573950148198"><ele>1454.6666666666667</ele><time>2026-04-04T13:13:13Z</time></trkpt><trkpt lat="42.86414436049881" lon="13.189427630440456"><ele>1452.0</ele><time>2026-04-04T13:13:14Z</time></trkpt><trkpt lat="42.86429714516034" lon="13.18930105739157"><ele>1452.0</ele><time>2026-04-04T13:13:15Z</time></trkpt><trkpt lat="42.86445482484242" lon="13.189185667882736"><ele>1452.0</ele><time>2026-04-04T13:13:16Z</time></trkpt><trkpt lat="42.86461333450328" lon="13.189060942450991"><ele>1452.0</ele><time>2026-04-04T13:13:17Z</time></trkpt><trkpt lat="42.864766765052266" lon="13.188940787918954"><ele>1450.6666666666667</ele><time>2026-04-04T13:13:18Z</time></trkpt><trkpt lat="42.86492072752255" lon="13.188815860768015"><ele>1449.3333333333335</ele><time>2026-04-04T13:13:19Z</time></trkpt><trkpt lat="42.86507494993667" lon="13.188689335786455"><ele>1448.0</ele><time>2026-04-04T13:13:20Z</time></trkpt><trkpt lat="42.86522328920119" lon="13.188557500947596"><ele>1448.0</ele><time>2026-04-04T13:13:21Z</time></trkpt><trkpt lat="42.86535793121483" lon="13.188407697267921"><ele>1448.0</ele><time>2026-04-04T13:13:22Z</time></trkpt><trkpt lat="42.8654765409409" lon="13.188220549786822"><ele>1448.0</ele><time>2026-04-04T13:13:23Z</time></trkpt><trkpt lat="42.8655808261474" lon="13.188012132916645"><ele>1449.6666666666667</ele><time>2026-04-04T13:13:24Z</time></trkpt><trkpt lat="42.86570714569964" lon="13.18783051665452"><ele>1451.3333333333333</ele><time>2026-04-04T13:13:25Z</time></trkpt><trkpt lat="42.86583630474875" lon="13.187642862829245"><ele>1453.0</ele><time>2026-04-04T13:13:26Z</time></trkpt><trkpt lat="42.86597265175261" lon="13.187460015303538"><ele>1440.0</ele><time>2026-04-04T13:13:27Z</time></trkpt><trkpt lat="42.866106636251374" lon="13.187274001748122"><ele>1427.0</ele><time>2026-04-04T13:13:28Z</time></trkpt><trkpt lat="42.86624434955964" lon="13.187088279581126"><ele>1414.0</ele><time>2026-04-04T13:13:29Z</time></trkpt><trkpt lat="42.866385895215785" lon="13.186906180426666"><ele>1414.0</ele><time>2026-04-04T13:13:30Z</time></trkpt><trkpt lat="42.86653150468817" lon="13.186728053207448"><ele>1414.0</ele><time>2026-04-04T13:13:31Z</time></trkpt><trkpt lat="42.86667813244119" lon="13.186557947894677"><ele>1414.0</ele><time>2026-04-04T13:13:32Z</time></trkpt><trkpt lat="42.866822711119944" lon="13.18640173523676"><ele>1410.6666666666665</ele><time>2026-04-04T13:13:33Z</time></trkpt><trkpt lat="42.86696501121249" lon="13.186254580450976"><ele>1407.3333333333333</ele><time>2026-04-04T13:13:34Z</time></trkpt><trkpt lat="42.867105499212684" lon="13.186115077677492"><ele>1404.0</ele><time>2026-04-04T13:13:35Z</time></trkpt><trkpt lat="42.86724451309351" lon="13.185984107032816"><ele>1404.0</ele><time>2026-04-04T13:13:36Z</time></trkpt><trkpt lat="42.8673815719315" lon="13.185865385820362"><ele>1404.0</ele><time>2026-04-04T13:13:37Z</time></trkpt><trkpt lat="42.86752027027873" lon="13.185764070233747"><ele>1404.0</ele><time>2026-04-04T13:13:38Z</time></trkpt><trkpt lat="42.867666621618675" lon="13.185677309079779"><ele>1394.25</ele><time>2026-04-04T13:13:39Z</time></trkpt><trkpt lat="42.86780813366038" lon="13.185623162188259"><ele>1384.5</ele><time>2026-04-04T13:13:40Z</time></trkpt><trkpt lat="42.86793595936043" lon="13.18557908079129"><ele>1374.75</ele><time>2026-04-04T13:13:41Z</time></trkpt><trkpt lat="42.86806545841545" lon="13.185559806506076"><ele>1365.0</ele><time>2026-04-04T13:13:42Z</time></trkpt><trkpt lat="42.86819037431911" lon="13.185556532706439"><ele>1365.0</ele><time>2026-04-04T13:13:43Z</time></trkpt><trkpt lat="42.86829660234768" lon="13.185581409203937"><ele>1365.0</ele><time>2026-04-04T13:13:44Z</time></trkpt><trkpt lat="42.86840210051739" lon="13.18562969247121"><ele>1365.0</ele><time>2026-04-04T13:13:45Z</time></trkpt><trkpt lat="42.86851195065809" lon="13.185705227881039"><ele>1365.0</ele><time>2026-04-04T13:13:46Z</time></trkpt><trkpt lat="42.868621732241486" lon="13.185797553540667"><ele>1368.75</ele><time>2026-04-04T13:13:47Z</time></trkpt><trkpt lat="42.868729848001614" lon="13.185898911360173"><ele>1372.5</ele><time>2026-04-04T13:13:48Z</time></trkpt><trkpt lat="42.86883530344858" lon="13.186016684343846"><ele>1376.25</ele><time>2026-04-04T13:13:49Z</time></trkpt><trkpt lat="42.86893307278566" lon="13.186159689189012"><ele>1380.0</ele><time>2026-04-04T13:13:50Z</time></trkpt><trkpt lat="42.86902467461783" lon="13.186314771281364"><ele>1380.0</ele><time>2026-04-04T13:13:51Z</time></trkpt><trkpt lat="42.86912102008852" lon="13.186470484146353"><ele>1380.0</ele><time>2026-04-04T13:13:52Z</time></trkpt><trkpt lat="42.86922771190489" lon="13.186621082207942"><ele>1380.0</ele><time>2026-04-04T13:13:53Z</time></trkpt><trkpt lat="42.86934191152715" lon="13.186771605781024"><ele>1376.3333333333333</ele><time>2026-04-04T13:13:54Z</time></trkpt><trkpt lat="42.869458234671804" lon="13.186919131027748"><ele>1372.6666666666665</ele><time>2026-04-04T13:13:55Z</time></trkpt><trkpt lat="42.869577180180215" lon="13.187061854975425"><ele>1369.0</ele><time>2026-04-04T13:13:56Z</time></trkpt><trkpt lat="42.86969815298964" lon="13.187195707657189"><ele>1369.0</ele><time>2026-04-04T13:13:57Z</time></trkpt><trkpt lat="42.86981544010049" lon="13.187325376130875"><ele>1369.0</ele><time>2026-04-04T13:13:58Z</time></trkpt><trkpt lat="42.869924383758274" lon="13.187445415857036"><ele>1369.0</ele><time>2026-04-04T13:13:59Z</time></trkpt><trkpt lat="42.87003744869018" lon="13.187549953776607"><ele>1369.0</ele><time>2026-04-04T13:14:00Z</time></trkpt><trkpt lat="42.87014999036707" lon="13.187635680543911"><ele>1375.75</ele><time>2026-04-04T13:14:01Z</time></trkpt><trkpt lat="42.87026031801045" lon="13.187701376276971"><ele>1382.5</ele><time>2026-04-04T13:14:02Z</time></trkpt><trkpt lat="42.870362247445705" lon="13.187757859178936"><ele>1389.25</ele><time>2026-04-04T13:14:03Z</time></trkpt><trkpt lat="42.87047297558089" lon="13.187780855240899"><ele>1396.0</ele><time>2026-04-04T13:14:04Z</time></trkpt><trkpt lat="42.87058283421111" lon="13.187746694618369"><ele>1396.0</ele><time>2026-04-04T13:14:05Z</time></trkpt><trkpt lat="42.87068740231577" lon="13.187672442896396"><ele>1396.0</ele><time>2026-04-04T13:14:06Z</time></trkpt><trkpt lat="42.870787177656425" lon="13.187564921392887"><ele>1396.0</ele><time>2026-04-04T13:14:07Z</time></trkpt><trkpt lat="42.870883196829325" lon="13.187447493852792"><ele>1396.0</ele><time>2026-04-04T13:14:08Z</time></trkpt><trkpt lat="42.87098089176874" lon="13.187318314161885"><ele>1400.0</ele><time>2026-04-04T13:14:09Z</time></trkpt><trkpt lat="42.87107386013445" lon="13.187168437684479"><ele>1404.0</ele><time>2026-04-04T13:14:10Z</time></trkpt><trkpt lat="42.8711555407606" lon="13.186993439854703"><ele>1408.0</ele><time>2026-04-04T13:14:11Z</time></trkpt><trkpt lat="42.8712326987125" lon="13.186806158406121"><ele>1408.0</ele><time>2026-04-04T13:14:12Z</time></trkpt><trkpt lat="42.871306824280126" lon="13.186604731186161"><ele>1408.0</ele><time>2026-04-04T13:14:13Z</time></trkpt><trkpt lat="42.871383094364106" lon="13.186387564098462"><ele>1408.0</ele><time>2026-04-04T13:14:14Z</time></trkpt><trkpt lat="42.871474287388295" lon="13.186168895423684"><ele>1400.6666666666665</ele><time>2026-04-04T13:14:15Z</time></trkpt><trkpt lat="42.8715457371171" lon="13.18593931712176"><ele>1393.3333333333333</ele><time>2026-04-04T13:14:16Z</time></trkpt><trkpt lat="42.87161734118224" lon="13.185698635159882"><ele>1386.0</ele><time>2026-04-04T13:14:17Z</time></trkpt><trkpt lat="42.87168843127976" lon="13.185456990125687"><ele>1391.0</ele><time>2026-04-04T13:14:18Z</time></trkpt><trkpt lat="42.8717601542181" lon="13.185213194029494"><ele>1396.0</ele><time>2026-04-04T13:14:19Z</time></trkpt><trkpt lat="42.87183134079402" lon="13.184970036381154"><ele>1401.0</ele><time>2026-04-04T13:14:20Z</time></trkpt><trkpt lat="42.871898455212346" lon="13.184736070839724"><ele>1401.0</ele><time>2026-04-04T13:14:21Z</time></trkpt><trkpt lat="42.87196483493738" lon="13.184489767532977"><ele>1401.0</ele><time>2026-04-04T13:14:22Z</time></trkpt><trkpt lat="42.87202220735925" lon="13.184260143135816"><ele>1401.0</ele><time>2026-04-04T13:14:23Z</time></trkpt><trkpt lat="42.872077464368274" lon="13.184021630519846"><ele>1395.0</ele><time>2026-04-04T13:14:24Z</time></trkpt><trkpt lat="42.872122775133995" lon="13.183794321281853"><ele>1389.0</ele><time>2026-04-04T13:14:25Z</time></trkpt><trkpt lat="42.872153154935376" lon="13.183586763762037"><ele>1383.0</ele><time>2026-04-04T13:14:26Z</time></trkpt><trkpt lat="42.87217082892861" lon="13.183382532163266"><ele>1383.0</ele><time>2026-04-04T13:14:27Z</time></trkpt><trkpt lat="42.87218847897715" lon="13.183182741927938"><ele>1383.0</ele><time>2026-04-04T13:14:28Z</time></trkpt><trkpt lat="42.87221198606867" lon="13.183002316943284"><ele>1383.0</ele><time>2026-04-04T13:14:29Z</time></trkpt><trkpt lat="42.87225954802831" lon="13.18282716071154"><ele>1383.0</ele><time>2026-04-04T13:14:30Z</time></trkpt><trkpt lat="42.872329363188356" lon="13.182647684413382"><ele>1375.6666666666667</ele><time>2026-04-04T13:14:31Z</time></trkpt><trkpt lat="42.87241063960395" lon="13.182464663851496"><ele>1368.3333333333335</ele><time>2026-04-04T13:14:32Z</time></trkpt><trkpt lat="42.872498935747686" lon="13.182278882784129"><ele>1361.0</ele><time>2026-04-04T13:14:33Z</time></trkpt><trkpt lat="42.87259279489211" lon="13.182093161279827"><ele>1363.6666666666667</ele><time>2026-04-04T13:14:34Z</time></trkpt><trkpt lat="42.872693492948315" lon="13.181904324645574"><ele>1366.3333333333333</ele><time>2026-04-04T13:14:35Z</time></trkpt><trkpt lat="42.87279891576476" lon="13.18171510560662"><ele>1369.0</ele><time>2026-04-04T13:14:36Z</time></trkpt><trkpt lat="42.872912311392774" lon="13.181525528200375"><ele>1359.0</ele><time>2026-04-04T13:14:37Z</time></trkpt><trkpt lat="42.87303681789018" lon="13.181349938828534"><ele>1349.0</ele><time>2026-04-04T13:14:38Z</time></trkpt><trkpt lat="42.87317224195813" lon="13.181181715801301"><ele>1339.0</ele><time>2026-04-04T13:14:39Z</time></trkpt><trkpt lat="42.87331239130361" lon="13.181007459038351"><ele>1339.0</ele><time>2026-04-04T13:14:40Z</time></trkpt><trkpt lat="42.8734381175087" lon="13.180830866629085"><ele>1339.0</ele><time>2026-04-04T13:14:41Z</time></trkpt><trkpt lat="42.87358134128974" lon="13.180690163650787"><ele>1339.0</ele><time>2026-04-04T13:14:42Z</time></trkpt><trkpt lat="42.87373552396141" lon="13.180559725104624"><ele>1337.0</ele><time>2026-04-04T13:14:43Z</time></trkpt><trkpt lat="42.87389637782242" lon="13.180433845063298"><ele>1335.0</ele><time>2026-04-04T13:14:44Z</time></trkpt><trkpt lat="42.87406043546574" lon="13.180316518732972"><ele>1333.0</ele><time>2026-04-04T13:14:45Z</time></trkpt><trkpt lat="42.87422982475443" lon="13.18020836736045"><ele>1338.3333333333333</ele><time>2026-04-04T13:14:46Z</time></trkpt><trkpt lat="42.874401115324005" lon="13.180099002054822"><ele>1343.6666666666667</ele><time>2026-04-04T13:14:47Z</time></trkpt><trkpt lat="42.8745738837658" lon="13.17999019407373"><ele>1349.0</ele><time>2026-04-04T13:14:48Z</time></trkpt><trkpt lat="42.874753165136255" lon="13.179879840514452"><ele>1344.6666666666667</ele><time>2026-04-04T13:14:49Z</time></trkpt><trkpt lat="42.874927667799184" lon="13.179772978982996"><ele>1340.3333333333333</ele><time>2026-04-04T13:14:50Z</time></trkpt><trkpt lat="42.87510534652175" lon="13.179678761798446"><ele>1336.0</ele><time>2026-04-04T13:14:51Z</time></trkpt><trkpt lat="42.87528511869831" lon="13.179616238043257"><ele>1336.0</ele><time>2026-04-04T13:14:52Z</time></trkpt><trkpt lat="42.87546434528257" lon="13.179554564792786"><ele>1336.0</ele><time>2026-04-04T13:14:53Z</time></trkpt><trkpt lat="42.87563241036093" lon="13.179496732302693"><ele>1336.0</ele><time>2026-04-04T13:14:54Z</time></trkpt><trkpt lat="42.87579627667627" lon="13.179440344640188"><ele>1336.0</ele><time>2026-04-04T13:14:55Z</time></trkpt><trkpt lat="42.875908807549536" lon="13.179175209488081"><ele>1336.0</ele><time>2026-04-04T13:14:56Z</time></trkpt><trkpt lat="42.876050444415355" lon="13.179063182996797"><ele>1336.0</ele><time>2026-04-04T13:14:57Z</time></trkpt><trkpt lat="42.87618773560042" lon="13.1789478065096"><ele>1334.0</ele><time>2026-04-04T13:14:58Z</time></trkpt><trkpt lat="42.87632383060325" lon="13.178833331728505"><ele>1332.0</ele><time>2026-04-04T13:14:59Z</time></trkpt><trkpt lat="42.87645964927636" lon="13.178716808829337"><ele>1330.0</ele><time>2026-04-04T13:15:00Z</time></trkpt><trkpt lat="42.87659238898288" lon="13.178611257015886"><ele>1330.0</ele><time>2026-04-04T13:15:01Z</time></trkpt><trkpt lat="42.87670870630654" lon="13.178518886395764"><ele>1330.0</ele><time>2026-04-04T13:15:02Z</time></trkpt><trkpt lat="42.87681480447783" lon="13.178429306421979"><ele>1330.0</ele><time>2026-04-04T13:15:03Z</time></trkpt><trkpt lat="42.87691251479296" lon="13.1783420732169"><ele>1330.0</ele><time>2026-04-04T13:15:04Z</time></trkpt><trkpt lat="42.87698939256078" lon="13.178236684361794"><ele>1326.0</ele><time>2026-04-04T13:15:05Z</time></trkpt><trkpt lat="42.87703713798397" lon="13.178093207844686"><ele>1322.0</ele><time>2026-04-04T13:15:06Z</time></trkpt><trkpt lat="42.87703760086021" lon="13.177933996446665"><ele>1318.0</ele><time>2026-04-04T13:15:07Z</time></trkpt><trkpt lat="42.877003113833325" lon="13.177779806609088"><ele>1314.0</ele><time>2026-04-04T13:15:08Z</time></trkpt><trkpt lat="42.876969201517056" lon="13.177623666453318"><ele>1314.0</ele><time>2026-04-04T13:15:09Z</time></trkpt><trkpt lat="42.87696569915158" lon="13.177473336907958"><ele>1314.0</ele><time>2026-04-04T13:15:10Z</time></trkpt><trkpt lat="42.87701385688511" lon="13.177330039531094"><ele>1314.0</ele><time>2026-04-04T13:15:11Z</time></trkpt><trkpt lat="42.877108378693826" lon="13.1772179782863"><ele>1314.0</ele><time>2026-04-04T13:15:12Z</time></trkpt><trkpt lat="42.877230176588355" lon="13.177144773653959"><ele>1315.3333333333333</ele><time>2026-04-04T13:15:13Z</time></trkpt><trkpt lat="42.877370957873566" lon="13.177103404419217"><ele>1316.6666666666665</ele><time>2026-04-04T13:15:14Z</time></trkpt><trkpt lat="42.87751757796444" lon="13.177080359045556"><ele>1318.0</ele><time>2026-04-04T13:15:15Z</time></trkpt><trkpt lat="42.87767717763491" lon="13.1770589866044"><ele>1318.0</ele><time>2026-04-04T13:15:16Z</time></trkpt><trkpt lat="42.87784697970103" lon="13.177043682166303"><ele>1318.0</ele><time>2026-04-04T13:15:17Z</time></trkpt><trkpt lat="42.87801982559248" lon="13.177031911567987"><ele>1318.0</ele><time>2026-04-04T13:15:18Z</time></trkpt><trkpt lat="42.87819956017955" lon="13.177007199405288"><ele>1318.0</ele><time>2026-04-04T13:15:19Z</time></trkpt><trkpt lat="42.8783794854128" lon="13.176997456827419"><ele>1318.0</ele><time>2026-04-04T13:15:20Z</time></trkpt><trkpt lat="42.878556089292836" lon="13.17697477952934"><ele>1318.0</ele><time>2026-04-04T13:15:21Z</time></trkpt><trkpt lat="42.87873374870838" lon="13.176927822494829"><ele>1312.6666666666665</ele><time>2026-04-04T13:15:22Z</time></trkpt><trkpt lat="42.878909500796176" lon="13.17686926348349"><ele>1307.3333333333333</ele><time>2026-04-04T13:15:23Z</time></trkpt><trkpt lat="42.87908540883234" lon="13.176802268126703"><ele>1302.0</ele><time>2026-04-04T13:15:24Z</time></trkpt><trkpt lat="42.879264345426215" lon="13.17672319830745"><ele>1301.3333333333333</ele><time>2026-04-04T13:15:25Z</time></trkpt><trkpt lat="42.87943840967009" lon="13.176635610379007"><ele>1300.6666666666665</ele><time>2026-04-04T13:15:26Z</time></trkpt><trkpt lat="42.879607416986666" lon="13.176533131161113"><ele>1300.0</ele><time>2026-04-04T13:15:27Z</time></trkpt><trkpt lat="42.87977031705803" lon="13.176422855891234"><ele>1300.0</ele><time>2026-04-04T13:15:28Z</time></trkpt><trkpt lat="42.87992754203936" lon="13.176305180573124"><ele>1300.0</ele><time>2026-04-04T13:15:29Z</time></trkpt><trkpt lat="42.88008589306655" lon="13.176185450296858"><ele>1300.0</ele><time>2026-04-04T13:15:30Z</time></trkpt><trkpt lat="42.88024461749523" lon="13.176068959722448"><ele>1292.3333333333333</ele><time>2026-04-04T13:15:31Z</time></trkpt><trkpt lat="42.880395799467806" lon="13.17595643262342"><ele>1284.6666666666667</ele><time>2026-04-04T13:15:32Z</time></trkpt><trkpt lat="42.8805396664654" lon="13.175848259476217"><ele>1277.0</ele><time>2026-04-04T13:15:33Z</time></trkpt><trkpt lat="42.88066970901137" lon="13.17572139455155"><ele>1273.0</ele><time>2026-04-04T13:15:34Z</time></trkpt><trkpt lat="42.88078483710114" lon="13.175569124310766"><ele>1269.0</ele><time>2026-04-04T13:15:35Z</time></trkpt><trkpt lat="42.88088916324118" lon="13.175400303934163"><ele>1265.0</ele><time>2026-04-04T13:15:36Z</time></trkpt><trkpt lat="42.88098934612871" lon="13.175222601142341"><ele>1265.0</ele><time>2026-04-04T13:15:37Z</time></trkpt><trkpt lat="42.88108278091795" lon="13.17503416525364"><ele>1265.0</ele><time>2026-04-04T13:15:38Z</time></trkpt><trkpt lat="42.88117622931344" lon="13.174838747079363"><ele>1265.0</ele><time>2026-04-04T13:15:39Z</time></trkpt><trkpt lat="42.88126804290429" lon="13.174647363349226"><ele>1267.25</ele><time>2026-04-04T13:15:40Z</time></trkpt><trkpt lat="42.88134864934168" lon="13.174460565299205"><ele>1269.5</ele><time>2026-04-04T13:15:41Z</time></trkpt><trkpt lat="42.88142101981698" lon="13.17428886436355"><ele>1271.75</ele><time>2026-04-04T13:15:42Z</time></trkpt><trkpt lat="42.8814905131683" lon="13.174139297218733"><ele>1274.0</ele><time>2026-04-04T13:15:43Z</time></trkpt><trkpt lat="42.88154649763731" lon="13.174008842847924"><ele>1276.0</ele><time>2026-04-04T13:15:44Z</time></trkpt><trkpt lat="42.88159980880872" lon="13.173905876734178"><ele>1278.0</ele><time>2026-04-04T13:15:45Z</time></trkpt><trkpt lat="42.88165731491944" lon="13.173848586442956"><ele>1280.0</ele><time>2026-04-04T13:15:46Z</time></trkpt><trkpt lat="42.88177917118616" lon="13.173895955768954"><ele>1282.0</ele><time>2026-04-04T13:15:48Z</time></trkpt><trkpt lat="42.88181802851773" lon="13.173988964090729"><ele>1284.0</ele><time>2026-04-04T13:15:49Z</time></trkpt><trkpt lat="42.88181564612231" lon="13.174110417097944"><ele>1282.0</ele><time>2026-04-04T13:15:50Z</time></trkpt><trkpt lat="42.88177490586444" lon="13.174233571936961"><ele>1280.0</ele><time>2026-04-04T13:15:51Z</time></trkpt><trkpt lat="42.8817199310207" lon="13.174366829972517"><ele>1278.0</ele><time>2026-04-04T13:15:52Z</time></trkpt><trkpt lat="42.881679529408856" lon="13.174514684699203"><ele>1276.0</ele><time>2026-04-04T13:15:53Z</time></trkpt><trkpt lat="42.881664460173475" lon="13.174656996185691"><ele>1274.0</ele><time>2026-04-04T13:15:54Z</time></trkpt><trkpt lat="42.88166834141191" lon="13.174797100995473"><ele>1272.2</ele><time>2026-04-04T13:15:55Z</time></trkpt><trkpt lat="42.88166842448748" lon="13.174933208785022"><ele>1270.4</ele><time>2026-04-04T13:15:56Z</time></trkpt><trkpt lat="42.88166650270963" lon="13.175066353992134"><ele>1268.6</ele><time>2026-04-04T13:15:57Z</time></trkpt><trkpt lat="42.881659050674585" lon="13.175196728978582"><ele>1266.8</ele><time>2026-04-04T13:15:58Z</time></trkpt><trkpt lat="42.88164177058624" lon="13.175321204540415"><ele>1265.0</ele><time>2026-04-04T13:15:59Z</time></trkpt><trkpt lat="42.88161849124229" lon="13.175441876524806"><ele>1265.0</ele><time>2026-04-04T13:16:00Z</time></trkpt><trkpt lat="42.88159438528404" lon="13.175557533163847"><ele>1265.0</ele><time>2026-04-04T13:16:01Z</time></trkpt><trkpt lat="42.881569385094636" lon="13.175667533692584"><ele>1265.0</ele><time>2026-04-04T13:16:02Z</time></trkpt><trkpt lat="42.88155039222689" lon="13.17577514711087"><ele>1265.0</ele><time>2026-04-04T13:16:03Z</time></trkpt><trkpt lat="42.8815353974945" lon="13.17587139446539"><ele>1265.0</ele><time>2026-04-04T13:16:04Z</time></trkpt><trkpt lat="42.88152871499403" lon="13.175960571833969"><ele>1265.0</ele><time>2026-04-04T13:16:05Z</time></trkpt><trkpt lat="42.88154190280074" lon="13.17604598856162"><ele>1263.8333333333335</ele><time>2026-04-04T13:16:06Z</time></trkpt><trkpt lat="42.88158230725975" lon="13.176113949583845"><ele>1262.6666666666667</ele><time>2026-04-04T13:16:07Z</time></trkpt><trkpt lat="42.88169747486531" lon="13.17617982927394"><ele>1261.5</ele><time>2026-04-04T13:16:09Z</time></trkpt><trkpt lat="42.88177210589134" lon="13.176172003988023"><ele>1260.3333333333333</ele><time>2026-04-04T13:16:10Z</time></trkpt><trkpt lat="42.88184592662942" lon="13.176122270916077"><ele>1259.1666666666665</ele><time>2026-04-04T13:16:11Z</time></trkpt><trkpt lat="42.88191255299996" lon="13.176030279831464"><ele>1258.0</ele><time>2026-04-04T13:16:12Z</time></trkpt><trkpt lat="42.88197419377108" lon="13.17591672392049"><ele>1254.75</ele><time>2026-04-04T13:16:13Z</time></trkpt><trkpt lat="42.882039089283474" lon="13.175792031824125"><ele>1251.5</ele><time>2026-04-04T13:16:14Z</time></trkpt><trkpt lat="42.88210848987409" lon="13.175665107463262"><ele>1248.25</ele><time>2026-04-04T13:16:15Z</time></trkpt><trkpt lat="42.8821840900794" lon="13.175540398187666"><ele>1245.0</ele><time>2026-04-04T13:16:16Z</time></trkpt><trkpt lat="42.882260395811265" lon="13.175413569845228"><ele>1245.0</ele><time>2026-04-04T13:16:17Z</time></trkpt><trkpt lat="42.88233568903276" lon="13.175279704650116"><ele>1245.0</ele><time>2026-04-04T13:16:18Z</time></trkpt><trkpt lat="42.88241401300218" lon="13.175145396551912"><ele>1245.0</ele><time>2026-04-04T13:16:19Z</time></trkpt><trkpt lat="42.8824900508959" lon="13.17500570644551"><ele>1245.0</ele><time>2026-04-04T13:16:20Z</time></trkpt><trkpt lat="42.88256505037405" lon="13.174862826029248"><ele>1238.75</ele><time>2026-04-04T13:16:21Z</time></trkpt><trkpt lat="42.882631261700304" lon="13.174707893688943"><ele>1232.5</ele><time>2026-04-04T13:16:22Z</time></trkpt><trkpt lat="42.8826849114148" lon="13.17454281975913"><ele>1226.25</ele><time>2026-04-04T13:16:23Z</time></trkpt><trkpt lat="42.88272773079811" lon="13.174370266151577"><ele>1220.0</ele><time>2026-04-04T13:16:24Z</time></trkpt><trkpt lat="42.88276468006385" lon="13.174196199786492"><ele>1221.0</ele><time>2026-04-04T13:16:25Z</time></trkpt><trkpt lat="42.882801162028024" lon="13.174014887556535"><ele>1222.0</ele><time>2026-04-04T13:16:26Z</time></trkpt><trkpt lat="42.882839486355415" lon="13.173838013614978"><ele>1223.0</ele><time>2026-04-04T13:16:27Z</time></trkpt><trkpt lat="42.88287738149751" lon="13.173658492138394"><ele>1224.0</ele><time>2026-04-04T13:16:28Z</time></trkpt><trkpt lat="42.88291347859968" lon="13.173490088061579"><ele>1224.0</ele><time>2026-04-04T13:16:29Z</time></trkpt><trkpt lat="42.88294996010861" lon="13.173344779748254"><ele>1224.0</ele><time>2026-04-04T13:16:30Z</time></trkpt><trkpt lat="42.88299224323814" lon="13.173190691233755"><ele>1224.0</ele><time>2026-04-04T13:16:31Z</time></trkpt><trkpt lat="42.88302882952921" lon="13.173026912049089"><ele>1224.0</ele><time>2026-04-04T13:16:32Z</time></trkpt><trkpt lat="42.883079762350604" lon="13.172887818623659"><ele>1223.8</ele><time>2026-04-04T13:16:33Z</time></trkpt><trkpt lat="42.883109142928326" lon="13.172745986670227"><ele>1223.6000000000001</ele><time>2026-04-04T13:16:34Z</time></trkpt><trkpt lat="42.883148266446696" lon="13.172614802700544"><ele>1223.4</ele><time>2026-04-04T13:16:35Z</time></trkpt><trkpt lat="42.8831842313448" lon="13.172494264175938"><ele>1223.2</ele><time>2026-04-04T13:16:36Z</time></trkpt><trkpt lat="42.88320485301402" lon="13.172370771776839"><ele>1223.0</ele><time>2026-04-04T13:16:37Z</time></trkpt><trkpt lat="42.88322395819195" lon="13.172262680457516"><ele>1223.0</ele><time>2026-04-04T13:16:38Z</time></trkpt><trkpt lat="42.883247951668814" lon="13.172178705996187"><ele>1223.0</ele><time>2026-04-04T13:16:39Z</time></trkpt><trkpt lat="42.88331681383362" lon="13.172070890118935"><ele>1223.0</ele><time>2026-04-04T13:16:41Z</time></trkpt><trkpt lat="42.88342854744395" lon="13.172150668981255"><ele>1223.0</ele><time>2026-04-04T13:16:43Z</time></trkpt><trkpt lat="42.88345660849834" lon="13.172242228960714"><ele>1223.0</ele><time>2026-04-04T13:16:44Z</time></trkpt><trkpt lat="42.88343920084883" lon="13.172352043793417"><ele>1223.8333333333335</ele><time>2026-04-04T13:16:45Z</time></trkpt><trkpt lat="42.8834000151518" lon="13.172471865613062"><ele>1224.6666666666667</ele><time>2026-04-04T13:16:46Z</time></trkpt><trkpt lat="42.88336807490192" lon="13.172602342134939"><ele>1225.5</ele><time>2026-04-04T13:16:47Z</time></trkpt><trkpt lat="42.883347477679116" lon="13.172716512189645"><ele>1226.3333333333333</ele><time>2026-04-04T13:16:48Z</time></trkpt><trkpt lat="42.883335470183454" lon="13.172820527816322"><ele>1227.1666666666665</ele><time>2026-04-04T13:16:49Z</time></trkpt><trkpt lat="42.883320192026005" lon="13.17292643210963"><ele>1228.0</ele><time>2026-04-04T13:16:50Z</time></trkpt><trkpt lat="42.88330573930302" lon="13.173048099231758"><ele>1228.0</ele><time>2026-04-04T13:16:51Z</time></trkpt><trkpt lat="42.88329989747954" lon="13.173178055335065"><ele>1228.0</ele><time>2026-04-04T13:16:52Z</time></trkpt><trkpt lat="42.883300006795366" lon="13.173307160716318"><ele>1228.0</ele><time>2026-04-04T13:16:53Z</time></trkpt><trkpt lat="42.88331365655427" lon="13.173446024897826"><ele>1228.0</ele><time>2026-04-04T13:16:54Z</time></trkpt><trkpt lat="42.88331793494114" lon="13.173583165717117"><ele>1228.0</ele><time>2026-04-04T13:16:55Z</time></trkpt><trkpt lat="42.88333742340988" lon="13.173714475948419"><ele>1227.2</ele><time>2026-04-04T13:16:56Z</time></trkpt><trkpt lat="42.88335698202881" lon="13.173844688809197"><ele>1226.4</ele><time>2026-04-04T13:16:57Z</time></trkpt><trkpt lat="42.883377703885635" lon="13.173969166467597"><ele>1225.6000000000001</ele><time>2026-04-04T13:16:58Z</time></trkpt><trkpt lat="42.883400024316806" lon="13.174101121613061"><ele>1224.8</ele><time>2026-04-04T13:16:59Z</time></trkpt><trkpt lat="42.883422383272226" lon="13.174233304506979"><ele>1224.0</ele><time>2026-04-04T13:17:00Z</time></trkpt><trkpt lat="42.883452421549165" lon="13.174370111574106"><ele>1219.2</ele><time>2026-04-04T13:17:01Z</time></trkpt><trkpt lat="42.88349250103585" lon="13.174497910119015"><ele>1214.4</ele><time>2026-04-04T13:17:02Z</time></trkpt><trkpt lat="42.883554608441514" lon="13.174617052453076"><ele>1209.6</ele><time>2026-04-04T13:17:03Z</time></trkpt><trkpt lat="42.8836274930292" lon="13.174737071375228"><ele>1204.8</ele><time>2026-04-04T13:17:04Z</time></trkpt><trkpt lat="42.88370283660288" lon="13.174851941914286"><ele>1200.0</ele><time>2026-04-04T13:17:05Z</time></trkpt><trkpt lat="42.883787669052346" lon="13.174973647921693"><ele>1200.0</ele><time>2026-04-04T13:17:06Z</time></trkpt><trkpt lat="42.88387303339559" lon="13.175090777976429"><ele>1200.0</ele><time>2026-04-04T13:17:07Z</time></trkpt><trkpt lat="42.88397046833809" lon="13.17520277502574"><ele>1200.0</ele><time>2026-04-04T13:17:08Z</time></trkpt><trkpt lat="42.88405365704071" lon="13.175333996889865"><ele>1200.0</ele><time>2026-04-04T13:17:09Z</time></trkpt><trkpt lat="42.884127949802334" lon="13.175464222691938"><ele>1200.0</ele><time>2026-04-04T13:17:10Z</time></trkpt><trkpt lat="42.88420048145902" lon="13.175591024264019"><ele>1200.0</ele><time>2026-04-04T13:17:11Z</time></trkpt><trkpt lat="42.88427217623871" lon="13.175721404550238"><ele>1200.0</ele><time>2026-04-04T13:17:12Z</time></trkpt><trkpt lat="42.88434324865868" lon="13.175855486816744"><ele>1200.0</ele><time>2026-04-04T13:17:13Z</time></trkpt><trkpt lat="42.88440922206623" lon="13.17599777222476"><ele>1196.75</ele><time>2026-04-04T13:17:14Z</time></trkpt><trkpt lat="42.8844719260658" lon="13.176144644196762"><ele>1193.5</ele><time>2026-04-04T13:17:15Z</time></trkpt><trkpt lat="42.88453464610723" lon="13.176294956004995"><ele>1190.25</ele><time>2026-04-04T13:17:16Z</time></trkpt><trkpt lat="42.88459872583766" lon="13.17644814672949"><ele>1187.0</ele><time>2026-04-04T13:17:17Z</time></trkpt><trkpt lat="42.8846563849288" lon="13.176599330936508"><ele>1187.0</ele><time>2026-04-04T13:17:18Z</time></trkpt><trkpt lat="42.88471379771066" lon="13.176755168093933"><ele>1187.0</ele><time>2026-04-04T13:17:19Z</time></trkpt><trkpt lat="42.884766040961885" lon="13.176905384002712"><ele>1187.0</ele><time>2026-04-04T13:17:20Z</time></trkpt><trkpt lat="42.8848113447097" lon="13.177054078281293"><ele>1187.0</ele><time>2026-04-04T13:17:21Z</time></trkpt><trkpt lat="42.88484331595226" lon="13.177199116976515"><ele>1187.0</ele><time>2026-04-04T13:17:22Z</time></trkpt><trkpt lat="42.88486229327809" lon="13.177341110257192"><ele>1187.0</ele><time>2026-04-04T13:17:23Z</time></trkpt><trkpt lat="42.88487271955428" lon="13.177478534754217"><ele>1187.0</ele><time>2026-04-04T13:17:24Z</time></trkpt><trkpt lat="42.88487022149589" lon="13.177611732377134"><ele>1187.0</ele><time>2026-04-04T13:17:25Z</time></trkpt><trkpt lat="42.88486347913509" lon="13.177736702390494"><ele>1187.0</ele><time>2026-04-04T13:17:26Z</time></trkpt><trkpt lat="42.88485906399023" lon="13.177855417425098"><ele>1187.1666666666667</ele><time>2026-04-04T13:17:27Z</time></trkpt><trkpt lat="42.884856636044795" lon="13.177966387592326"><ele>1187.3333333333335</ele><time>2026-04-04T13:17:28Z</time></trkpt><trkpt lat="42.884863057236814" lon="13.178071673027972"><ele>1187.5</ele><time>2026-04-04T13:17:29Z</time></trkpt><trkpt lat="42.88488965841882" lon="13.178166715721822"><ele>1187.6666666666667</ele><time>2026-04-04T13:17:30Z</time></trkpt><trkpt lat="42.88494827935484" lon="13.178231799800221"><ele>1187.8333333333333</ele><time>2026-04-04T13:17:31Z</time></trkpt><trkpt lat="42.885022525022684" lon="13.17825184916491"><ele>1188.0</ele><time>2026-04-04T13:17:32Z</time></trkpt><trkpt lat="42.885093613836474" lon="13.17821531924472"><ele>1182.0</ele><time>2026-04-04T13:17:33Z</time></trkpt><trkpt lat="42.88514691267687" lon="13.178132141878624"><ele>1176.0</ele><time>2026-04-04T13:17:34Z</time></trkpt><trkpt lat="42.88518604402787" lon="13.17801377966008"><ele>1170.0</ele><time>2026-04-04T13:17:35Z</time></trkpt><trkpt lat="42.88520412170006" lon="13.1778716148779"><ele>1164.0</ele><time>2026-04-04T13:17:36Z</time></trkpt><trkpt lat="42.885217561130204" lon="13.177710908954559"><ele>1158.0</ele><time>2026-04-04T13:17:37Z</time></trkpt><trkpt lat="42.88523959332576" lon="13.177542887476694"><ele>1158.0</ele><time>2026-04-04T13:17:38Z</time></trkpt><trkpt lat="42.88526658713054" lon="13.17736928876209"><ele>1158.0</ele><time>2026-04-04T13:17:39Z</time></trkpt><trkpt lat="42.88528976548557" lon="13.17719238130233"><ele>1158.0</ele><time>2026-04-04T13:17:40Z</time></trkpt><trkpt lat="42.88530614742128" lon="13.177017818279483"><ele>1158.0</ele><time>2026-04-04T13:17:41Z</time></trkpt><trkpt lat="42.88531472103864" lon="13.176844145496515"><ele>1157.25</ele><time>2026-04-04T13:17:42Z</time></trkpt><trkpt lat="42.885306834549525" lon="13.176674267515432"><ele>1156.5</ele><time>2026-04-04T13:17:43Z</time></trkpt><trkpt lat="42.88529892734939" lon="13.17649822083934"><ele>1155.75</ele><time>2026-04-04T13:17:44Z</time></trkpt><trkpt lat="42.88529212107354" lon="13.176313784359502"><ele>1155.0</ele><time>2026-04-04T13:17:45Z</time></trkpt><trkpt lat="42.88528710854524" lon="13.176140201771343"><ele>1154.75</ele><time>2026-04-04T13:17:46Z</time></trkpt><trkpt lat="42.885277652303245" lon="13.175959524519751"><ele>1154.5</ele><time>2026-04-04T13:17:47Z</time></trkpt><trkpt lat="42.885272688425935" lon="13.175766799998701"><ele>1154.25</ele><time>2026-04-04T13:17:48Z</time></trkpt><trkpt lat="42.885258980989185" lon="13.175570569809802"><ele>1154.0</ele><time>2026-04-04T13:17:49Z</time></trkpt><trkpt lat="42.88524780627447" lon="13.175364560574444"><ele>1152.75</ele><time>2026-04-04T13:17:50Z</time></trkpt><trkpt lat="42.88523748510857" lon="13.175162600284246"><ele>1151.5</ele><time>2026-04-04T13:17:51Z</time></trkpt><trkpt lat="42.88520874913643" lon="13.174972250979884"><ele>1150.25</ele><time>2026-04-04T13:17:52Z</time></trkpt><trkpt lat="42.88515720223107" lon="13.174787788672193"><ele>1149.0</ele><time>2026-04-04T13:17:53Z</time></trkpt><trkpt lat="42.885087547763305" lon="13.17461785385315"><ele>1149.0</ele><time>2026-04-04T13:17:54Z</time></trkpt><trkpt lat="42.88500611720791" lon="13.174459575840416"><ele>1149.0</ele><time>2026-04-04T13:17:55Z</time></trkpt><trkpt lat="42.8849180161503" lon="13.17431513608958"><ele>1149.0</ele><time>2026-04-04T13:17:56Z</time></trkpt><trkpt lat="42.88482939091429" lon="13.174190651813893"><ele>1149.0</ele><time>2026-04-04T13:17:57Z</time></trkpt><trkpt lat="42.88473564405231" lon="13.174082723417712"><ele>1146.4</ele><time>2026-04-04T13:17:58Z</time></trkpt><trkpt lat="42.8846436294238" lon="13.17399851606399"><ele>1143.8000000000002</ele><time>2026-04-04T13:17:59Z</time></trkpt><trkpt lat="42.884558294231844" lon="13.173927228804946"><ele>1141.1999999999998</ele><time>2026-04-04T13:18:00Z</time></trkpt><trkpt lat="42.88448889606751" lon="13.173854827901952"><ele>1138.6</ele><time>2026-04-04T13:18:01Z</time></trkpt><trkpt lat="42.88444014557487" lon="13.173760882892488"><ele>1136.0</ele><time>2026-04-04T13:18:02Z</time></trkpt><trkpt lat="42.88441637305384" lon="13.173645157608973"><ele>1136.0</ele><time>2026-04-04T13:18:03Z</time></trkpt><trkpt lat="42.88442771660402" lon="13.17351564589597"><ele>1136.0</ele><time>2026-04-04T13:18:04Z</time></trkpt><trkpt lat="42.88450805604603" lon="13.173393697706112"><ele>1136.0</ele><time>2026-04-04T13:18:05Z</time></trkpt><trkpt lat="42.8845825740729" lon="13.173289358040426"><ele>1136.0</ele><time>2026-04-04T13:18:06Z</time></trkpt><trkpt lat="42.884660128598895" lon="13.173170094012262"><ele>1136.0</ele><time>2026-04-04T13:18:07Z</time></trkpt><trkpt lat="42.88475212328488" lon="13.173064479591794"><ele>1138.0</ele><time>2026-04-04T13:18:08Z</time></trkpt><trkpt lat="42.88483361205992" lon="13.172966399991784"><ele>1140.0</ele><time>2026-04-04T13:18:09Z</time></trkpt><trkpt lat="42.88491414105326" lon="13.172866236539896"><ele>1142.0</ele><time>2026-04-04T13:18:10Z</time></trkpt><trkpt lat="42.88499575628263" lon="13.172779451731246"><ele>1144.0</ele><time>2026-04-04T13:18:11Z</time></trkpt><trkpt lat="42.885066998705284" lon="13.172696131911959"><ele>1146.0</ele><time>2026-04-04T13:18:12Z</time></trkpt><trkpt lat="42.88510738214251" lon="13.172564614384076"><ele>1132.75</ele><time>2026-04-04T13:18:13Z</time></trkpt><trkpt lat="42.88512491573407" lon="13.172409282920116"><ele>1119.5</ele><time>2026-04-04T13:18:14Z</time></trkpt><trkpt lat="42.88512458267327" lon="13.172224172334806"><ele>1106.25</ele><time>2026-04-04T13:18:15Z</time></trkpt><trkpt lat="42.88511674972348" lon="13.172035045035784"><ele>1093.0</ele><time>2026-04-04T13:18:16Z</time></trkpt><trkpt lat="42.885095948557726" lon="13.171852384526062"><ele>1092.25</ele><time>2026-04-04T13:18:17Z</time></trkpt><trkpt lat="42.88508220598105" lon="13.171672723700388"><ele>1091.5</ele><time>2026-04-04T13:18:18Z</time></trkpt><trkpt lat="42.88509578831173" lon="13.17150199206712"><ele>1090.75</ele><time>2026-04-04T13:18:19Z</time></trkpt><trkpt lat="42.88510998330951" lon="13.171337018865415"><ele>1090.0</ele><time>2026-04-04T13:18:20Z</time></trkpt><trkpt lat="42.885128074321564" lon="13.171183424516764"><ele>1090.0</ele><time>2026-04-04T13:18:21Z</time></trkpt><trkpt lat="42.885190130114964" lon="13.171056663863954"><ele>1090.0</ele><time>2026-04-04T13:18:22Z</time></trkpt><trkpt lat="42.885213144147635" lon="13.170929848787745"><ele>1090.0</ele><time>2026-04-04T13:18:23Z</time></trkpt><trkpt lat="42.88523765692298" lon="13.170797328809362"><ele>1090.0</ele><time>2026-04-04T13:18:24Z</time></trkpt><trkpt lat="42.885236012180336" lon="13.17065455372191"><ele>1090.0</ele><time>2026-04-04T13:18:25Z</time></trkpt><trkpt lat="42.885228296810666" lon="13.170503829362277"><ele>1089.25</ele><time>2026-04-04T13:18:26Z</time></trkpt><trkpt lat="42.88521921846607" lon="13.170335501053852"><ele>1088.5</ele><time>2026-04-04T13:18:27Z</time></trkpt><trkpt lat="42.8852056504929" lon="13.170166749149773"><ele>1087.75</ele><time>2026-04-04T13:18:28Z</time></trkpt><trkpt lat="42.88518372426952" lon="13.170000151324722"><ele>1087.0</ele><time>2026-04-04T13:18:29Z</time></trkpt><trkpt lat="42.88517367432552" lon="13.16983565235576"><ele>1084.25</ele><time>2026-04-04T13:18:30Z</time></trkpt><trkpt lat="42.88512275130189" lon="13.169687851342124"><ele>1081.5</ele><time>2026-04-04T13:18:31Z</time></trkpt><trkpt lat="42.88507783618575" lon="13.169545578234263"><ele>1078.75</ele><time>2026-04-04T13:18:32Z</time></trkpt><trkpt lat="42.88500986867907" lon="13.169420396037584"><ele>1076.0</ele><time>2026-04-04T13:18:33Z</time></trkpt><trkpt lat="42.88492665391804" lon="13.169321419155631"><ele>1083.5</ele><time>2026-04-04T13:18:34Z</time></trkpt><trkpt lat="42.88482569337453" lon="13.169273608264882"><ele>1091.0</ele><time>2026-04-04T13:18:35Z</time></trkpt><trkpt lat="42.884703343860785" lon="13.169251719530632"><ele>1098.5</ele><time>2026-04-04T13:18:36Z</time></trkpt><trkpt lat="42.88457383631218" lon="13.169234557637187"><ele>1106.0</ele><time>2026-04-04T13:18:37Z</time></trkpt><trkpt lat="42.88443483106794" lon="13.169226402217474"><ele>1106.0</ele><time>2026-04-04T13:18:38Z</time></trkpt><trkpt lat="42.88429227220189" lon="13.169222258829873"><ele>1106.0</ele><time>2026-04-04T13:18:39Z</time></trkpt><trkpt lat="42.884152000072625" lon="13.16922225882619"><ele>1106.0</ele><time>2026-04-04T13:18:40Z</time></trkpt><trkpt lat="42.88401065623946" lon="13.169222258822698"><ele>1106.0</ele><time>2026-04-04T13:18:41Z</time></trkpt><trkpt lat="42.883871227770044" lon="13.169240349764989"><ele>1106.5</ele><time>2026-04-04T13:18:42Z</time></trkpt><trkpt lat="42.88373872112832" lon="13.169219501762083"><ele>1107.0</ele><time>2026-04-04T13:18:43Z</time></trkpt><trkpt lat="42.883602961437475" lon="13.169205197398615"><ele>1107.5</ele><time>2026-04-04T13:18:44Z</time></trkpt><trkpt lat="42.883474634511686" lon="13.169188872715779"><ele>1108.0</ele><time>2026-04-04T13:18:45Z</time></trkpt><trkpt lat="42.883342423206415" lon="13.169157767027734"><ele>1108.25</ele><time>2026-04-04T13:18:46Z</time></trkpt><trkpt lat="42.88320890819408" lon="13.169102977667702"><ele>1108.5</ele><time>2026-04-04T13:18:47Z</time></trkpt><trkpt lat="42.88308496571361" lon="13.16906239047626"><ele>1108.75</ele><time>2026-04-04T13:18:48Z</time></trkpt><trkpt lat="42.882958593359184" lon="13.169038824235944"><ele>1109.0</ele><time>2026-04-04T13:18:49Z</time></trkpt><trkpt lat="42.88283496789924" lon="13.16899295073175"><ele>1102.2</ele><time>2026-04-04T13:18:50Z</time></trkpt><trkpt lat="42.88270642657598" lon="13.168978615151666"><ele>1095.4</ele><time>2026-04-04T13:18:51Z</time></trkpt><trkpt lat="42.882591705131574" lon="13.168971156481293"><ele>1088.6</ele><time>2026-04-04T13:18:52Z</time></trkpt><trkpt lat="42.882497611402904" lon="13.168965264056341"><ele>1081.8</ele><time>2026-04-04T13:18:53Z</time></trkpt><trkpt lat="42.88241671228799" lon="13.168962660619375"><ele>1075.0</ele><time>2026-04-04T13:18:54Z</time></trkpt><trkpt lat="42.88233979042799" lon="13.168981137225314"><ele>1075.0</ele><time>2026-04-04T13:18:55Z</time></trkpt><trkpt lat="42.88227871055817" lon="13.168935070257268"><ele>1075.0</ele><time>2026-04-04T13:18:56Z</time></trkpt><trkpt lat="42.882224898630206" lon="13.168849635545962"><ele>1075.0</ele><time>2026-04-04T13:18:58Z</time></trkpt><trkpt lat="42.88226821249575" lon="13.168745333621894"><ele>1075.0</ele><time>2026-04-04T13:19:00Z</time></trkpt><trkpt lat="42.88236251849812" lon="13.168726559072303"><ele>1075.0</ele><time>2026-04-04T13:19:01Z</time></trkpt><trkpt lat="42.882460158156846" lon="13.168726964258138"><ele>1075.0</ele><time>2026-04-04T13:19:02Z</time></trkpt><trkpt lat="42.882568969838715" lon="13.168725407092415"><ele>1073.5</ele><time>2026-04-04T13:19:03Z</time></trkpt><trkpt lat="42.882684421490964" lon="13.168725114971268"><ele>1072.0</ele><time>2026-04-04T13:19:04Z</time></trkpt><trkpt lat="42.882802763447216" lon="13.168721714016115"><ele>1070.5</ele><time>2026-04-04T13:19:05Z</time></trkpt><trkpt lat="42.882919906287505" lon="13.168724044009464"><ele>1069.0</ele><time>2026-04-04T13:19:06Z</time></trkpt><trkpt lat="42.88303414656109" lon="13.168725002848607"><ele>1069.0</ele><time>2026-04-04T13:19:07Z</time></trkpt><trkpt lat="42.88315154783279" lon="13.168725325496363"><ele>1069.0</ele><time>2026-04-04T13:19:08Z</time></trkpt><trkpt lat="42.88326254188611" lon="13.168728309050202"><ele>1069.0</ele><time>2026-04-04T13:19:09Z</time></trkpt><trkpt lat="42.88336230479252" lon="13.168730050828831"><ele>1069.0</ele><time>2026-04-04T13:19:10Z</time></trkpt><trkpt lat="42.883455570586385" lon="13.168738039491679"><ele>1069.0</ele><time>2026-04-04T13:19:11Z</time></trkpt><trkpt lat="42.88353973748866" lon="13.168745528950101"><ele>1069.0</ele><time>2026-04-04T13:19:12Z</time></trkpt><trkpt lat="42.883607663419355" lon="13.168723555139602"><ele>1069.0</ele><time>2026-04-04T13:19:13Z</time></trkpt><trkpt lat="42.88365912284652" lon="13.168666655881873"><ele>1069.0</ele><time>2026-04-04T13:19:14Z</time></trkpt><trkpt lat="42.883698600168145" lon="13.168596932669008"><ele>1069.0</ele><time>2026-04-04T13:19:15Z</time></trkpt><trkpt lat="42.883685727878344" lon="13.168487997526583"><ele>1069.0</ele><time>2026-04-04T13:19:16Z</time></trkpt><trkpt lat="42.8835906734762" lon="13.16841542901751"><ele>1069.0</ele><time>2026-04-04T13:19:17Z</time></trkpt><trkpt lat="42.88349301697902" lon="13.168392725957458"><ele>1069.0</ele><time>2026-04-04T13:19:18Z</time></trkpt><trkpt lat="42.883379978811845" lon="13.168356587346036"><ele>1069.0</ele><time>2026-04-04T13:19:19Z</time></trkpt><trkpt lat="42.883268717270674" lon="13.168314865986515"><ele>1069.0</ele><time>2026-04-04T13:19:20Z</time></trkpt><trkpt lat="42.883165205246364" lon="13.168258075283902"><ele>1069.0</ele><time>2026-04-04T13:19:21Z</time></trkpt><trkpt lat="42.883067434235684" lon="13.1681974460799"><ele>1064.2</ele><time>2026-04-04T13:19:22Z</time></trkpt><trkpt lat="42.88297313574875" lon="13.168136265519205"><ele>1059.4</ele><time>2026-04-04T13:19:23Z</time></trkpt><trkpt lat="42.88288361974144" lon="13.168061968982915"><ele>1054.6</ele><time>2026-04-04T13:19:24Z</time></trkpt><trkpt lat="42.88278440341256" lon="13.168021240331795"><ele>1049.8</ele><time>2026-04-04T13:19:25Z</time></trkpt><trkpt lat="42.88268429519484" lon="13.167968072399333"><ele>1045.0</ele><time>2026-04-04T13:19:26Z</time></trkpt><trkpt lat="42.882586780181256" lon="13.167935781063433"><ele>1045.0</ele><time>2026-04-04T13:19:27Z</time></trkpt><trkpt lat="42.88250234186385" lon="13.16792166474471"><ele>1045.0</ele><time>2026-04-04T13:19:28Z</time></trkpt><trkpt lat="42.88242318104073" lon="13.167917822969565"><ele>1045.0</ele><time>2026-04-04T13:19:29Z</time></trkpt><trkpt lat="42.88234568955294" lon="13.167913945237864"><ele>1045.0</ele><time>2026-04-04T13:19:30Z</time></trkpt><trkpt lat="42.88227840714557" lon="13.167910378722093"><ele>1045.0</ele><time>2026-04-04T13:19:31Z</time></trkpt><trkpt lat="42.88219882201694" lon="13.167831432267961"><ele>1045.0</ele><time>2026-04-04T13:19:33Z</time></trkpt><trkpt lat="42.88221480104699" lon="13.167728195845978"><ele>1045.0</ele><time>2026-04-04T13:19:34Z</time></trkpt><trkpt lat="42.88227527566282" lon="13.167640118723602"><ele>1045.0</ele><time>2026-04-04T13:19:35Z</time></trkpt><trkpt lat="42.88238472719502" lon="13.167652986078211"><ele>1045.0</ele><time>2026-04-04T13:19:36Z</time></trkpt><trkpt lat="42.88248462306414" lon="13.167613238096681"><ele>1045.0</ele><time>2026-04-04T13:19:37Z</time></trkpt><trkpt lat="42.8825870604171" lon="13.167588206234434"><ele>1045.0</ele><time>2026-04-04T13:19:38Z</time></trkpt><trkpt lat="42.882693665075806" lon="13.167544458586173"><ele>1044.75</ele><time>2026-04-04T13:19:39Z</time></trkpt><trkpt lat="42.882803790887415" lon="13.167488856321503"><ele>1044.5</ele><time>2026-04-04T13:19:40Z</time></trkpt><trkpt lat="42.882915509166985" lon="13.167438452077436"><ele>1044.25</ele><time>2026-04-04T13:19:41Z</time></trkpt><trkpt lat="42.883026515866085" lon="13.16739391171777"><ele>1044.0</ele><time>2026-04-04T13:19:42Z</time></trkpt><trkpt lat="42.88313821377046" lon="13.16735997119197"><ele>1038.25</ele><time>2026-04-04T13:19:43Z</time></trkpt><trkpt lat="42.88326036051933" lon="13.167338414397987"><ele>1032.5</ele><time>2026-04-04T13:19:44Z</time></trkpt><trkpt lat="42.88338915783979" lon="13.167349562274904"><ele>1026.75</ele><time>2026-04-04T13:19:45Z</time></trkpt><trkpt lat="42.88351573105855" lon="13.16734433130177"><ele>1021.0</ele><time>2026-04-04T13:19:46Z</time></trkpt><trkpt lat="42.883644063147365" lon="13.167341607397828"><ele>1020.25</ele><time>2026-04-04T13:19:47Z</time></trkpt><trkpt lat="42.883774870636856" lon="13.167318530877994"><ele>1019.5</ele><time>2026-04-04T13:19:48Z</time></trkpt><trkpt lat="42.88390559265038" lon="13.167325338572686"><ele>1018.75</ele><time>2026-04-04T13:19:49Z</time></trkpt><trkpt lat="42.88403808775451" lon="13.16733463204753"><ele>1018.0</ele><time>2026-04-04T13:19:50Z</time></trkpt><trkpt lat="42.88417305953198" lon="13.167342184949693"><ele>1016.25</ele><time>2026-04-04T13:19:51Z</time></trkpt><trkpt lat="42.88431213482533" lon="13.16734510973166"><ele>1014.5</ele><time>2026-04-04T13:19:52Z</time></trkpt><trkpt lat="42.884454928898805" lon="13.167347669967452"><ele>1012.75</ele><time>2026-04-04T13:19:53Z</time></trkpt><trkpt lat="42.884600400287525" lon="13.167347609708775"><ele>1011.0</ele><time>2026-04-04T13:19:54Z</time></trkpt><trkpt lat="42.884750640868546" lon="13.167332653382077"><ele>1011.0</ele><time>2026-04-04T13:19:55Z</time></trkpt><trkpt lat="42.88490335963289" lon="13.167307763658416"><ele>1011.0</ele><time>2026-04-04T13:19:56Z</time></trkpt><trkpt lat="42.88505542485584" lon="13.167264679372204"><ele>1011.0</ele><time>2026-04-04T13:19:57Z</time></trkpt><trkpt lat="42.88520342375343" lon="13.167229726165436"><ele>1010.5</ele><time>2026-04-04T13:19:58Z</time></trkpt><trkpt lat="42.88535654214728" lon="13.167199360524204"><ele>1010.0</ele><time>2026-04-04T13:19:59Z</time></trkpt><trkpt lat="42.88549012882418" lon="13.167152188022778"><ele>1009.5</ele><time>2026-04-04T13:20:00Z</time></trkpt><trkpt lat="42.8856020254571" lon="13.167063494314851"><ele>1009.0</ele><time>2026-04-04T13:20:01Z</time></trkpt><trkpt lat="42.88572036563864" lon="13.166969619524032"><ele>1009.0</ele><time>2026-04-04T13:20:02Z</time></trkpt><trkpt lat="42.885833381841806" lon="13.16686860917405"><ele>1009.0</ele><time>2026-04-04T13:20:03Z</time></trkpt><trkpt lat="42.88593297135805" lon="13.166783601130925"><ele>1009.0</ele><time>2026-04-04T13:20:04Z</time></trkpt><trkpt lat="42.88602858228232" lon="13.166747026976052"><ele>1009.0</ele><time>2026-04-04T13:20:05Z</time></trkpt><trkpt lat="42.88617881617347" lon="13.166682141063859"><ele>1008.0</ele><time>2026-04-04T13:20:06Z</time></trkpt><trkpt lat="42.8862974894206" lon="13.166676195617123"><ele>1007.0000000000001</ele><time>2026-04-04T13:20:07Z</time></trkpt><trkpt lat="42.88639622563778" lon="13.166663289319139"><ele>1006.0000000000001</ele><time>2026-04-04T13:20:08Z</time></trkpt><trkpt lat="42.886505610803724" lon="13.166645973536976"><ele>1005.0</ele><time>2026-04-04T13:20:09Z</time></trkpt><trkpt lat="42.88660802717877" lon="13.166631557596647"><ele>1004.0</ele><time>2026-04-04T13:20:10Z</time></trkpt><trkpt lat="42.8867000773699" lon="13.1665926529706"><ele>1001.25</ele><time>2026-04-04T13:20:11Z</time></trkpt><trkpt lat="42.886785126990546" lon="13.166515865661713"><ele>998.5</ele><time>2026-04-04T13:20:12Z</time></trkpt><trkpt lat="42.88685381217284" lon="13.16640178457635"><ele>995.75</ele><time>2026-04-04T13:20:13Z</time></trkpt><trkpt lat="42.88689979524209" lon="13.166254883229687"><ele>993.0</ele><time>2026-04-04T13:20:14Z</time></trkpt><trkpt lat="42.88694665989589" lon="13.166099668452942"><ele>993.0</ele><time>2026-04-04T13:20:15Z</time></trkpt><trkpt lat="42.8869963505394" lon="13.165945340801137"><ele>993.0</ele><time>2026-04-04T13:20:16Z</time></trkpt><trkpt lat="42.88703838248547" lon="13.165800318139985"><ele>993.0</ele><time>2026-04-04T13:20:17Z</time></trkpt><trkpt lat="42.88708091709356" lon="13.165688353081023"><ele>993.0</ele><time>2026-04-04T13:20:18Z</time></trkpt><trkpt lat="42.88710550497783" lon="13.165570449535295"><ele>993.0</ele><time>2026-04-04T13:20:19Z</time></trkpt><trkpt lat="42.88712439633688" lon="13.165450604273257"><ele>991.4</ele><time>2026-04-04T13:20:20Z</time></trkpt><trkpt lat="42.887097762306006" lon="13.165334900696312"><ele>989.8</ele><time>2026-04-04T13:20:21Z</time></trkpt><trkpt lat="42.88702629575112" lon="13.165237463486719"><ele>988.2</ele><time>2026-04-04T13:20:22Z</time></trkpt><trkpt lat="42.88692788266952" lon="13.165191124431077"><ele>986.6</ele><time>2026-04-04T13:20:23Z</time></trkpt><trkpt lat="42.88681119771132" lon="13.16519414683188"><ele>985.0</ele><time>2026-04-04T13:20:24Z</time></trkpt><trkpt lat="42.8866944581457" lon="13.165210628467557"><ele>984.8</ele><time>2026-04-04T13:20:25Z</time></trkpt><trkpt lat="42.886583138154904" lon="13.165211408428274"><ele>984.6</ele><time>2026-04-04T13:20:26Z</time></trkpt><trkpt lat="42.8864726466764" lon="13.165201971907486"><ele>984.4000000000001</ele><time>2026-04-04T13:20:27Z</time></trkpt><trkpt lat="42.88636230761066" lon="13.16519911941709"><ele>984.2</ele><time>2026-04-04T13:20:28Z</time></trkpt><trkpt lat="42.88625286050952" lon="13.165195072376891"><ele>984.0</ele><time>2026-04-04T13:20:29Z</time></trkpt><trkpt lat="42.8861431394297" lon="13.165185262003321"><ele>984.0</ele><time>2026-04-04T13:20:30Z</time></trkpt><trkpt lat="42.88603684412669" lon="13.16517607210765"><ele>984.0000000000001</ele><time>2026-04-04T13:20:31Z</time></trkpt><trkpt lat="42.88593317916217" lon="13.16516067277699"><ele>984.0000000000001</ele><time>2026-04-04T13:20:32Z</time></trkpt><trkpt lat="42.8858395969259" lon="13.165138670030286"><ele>984.0</ele><time>2026-04-04T13:20:33Z</time></trkpt><trkpt lat="42.88575953430242" lon="13.165103886993707"><ele>984.0</ele><time>2026-04-04T13:20:34Z</time></trkpt><trkpt lat="42.88569190452252" lon="13.165061685920687"><ele>983.6</ele><time>2026-04-04T13:20:35Z</time></trkpt><trkpt lat="42.88564589122652" lon="13.16498573045975"><ele>983.2</ele><time>2026-04-04T13:20:36Z</time></trkpt><trkpt lat="42.8856438999786" lon="13.164886109805229"><ele>982.8000000000001</ele><time>2026-04-04T13:20:37Z</time></trkpt><trkpt lat="42.885695525584154" lon="13.16477674509105"><ele>982.4000000000001</ele><time>2026-04-04T13:20:38Z</time></trkpt><trkpt lat="42.8857852607443" lon="13.164700742027085"><ele>982.0</ele><time>2026-04-04T13:20:39Z</time></trkpt><trkpt lat="42.88588169442212" lon="13.16463197215973"><ele>980.4000000000001</ele><time>2026-04-04T13:20:40Z</time></trkpt><trkpt lat="42.885973276844126" lon="13.164561527529806"><ele>978.8000000000001</ele><time>2026-04-04T13:20:41Z</time></trkpt><trkpt lat="42.88606176219698" lon="13.164492787150003"><ele>977.2</ele><time>2026-04-04T13:20:42Z</time></trkpt><trkpt lat="42.886152268563" lon="13.164426232035265"><ele>975.6</ele><time>2026-04-04T13:20:43Z</time></trkpt><trkpt lat="42.88624396460468" lon="13.164360915959234"><ele>974.0</ele><time>2026-04-04T13:20:44Z</time></trkpt><trkpt lat="42.886337846143064" lon="13.164290858647231"><ele>974.0</ele><time>2026-04-04T13:20:45Z</time></trkpt><trkpt lat="42.88643362302648" lon="13.164213474072376"><ele>974.0000000000001</ele><time>2026-04-04T13:20:46Z</time></trkpt><trkpt lat="42.886518388419496" lon="13.164157066935259"><ele>974.0000000000001</ele><time>2026-04-04T13:20:47Z</time></trkpt><trkpt lat="42.88658609428735" lon="13.164078875489562"><ele>974.0</ele><time>2026-04-04T13:20:48Z</time></trkpt><trkpt lat="42.88663043767243" lon="13.163981667577136"><ele>974.0</ele><time>2026-04-04T13:20:49Z</time></trkpt><trkpt lat="42.88663583964889" lon="13.163873260237507"><ele>970.2</ele><time>2026-04-04T13:20:50Z</time></trkpt><trkpt lat="42.88661882831686" lon="13.16376696135463"><ele>966.4000000000001</ele><time>2026-04-04T13:20:51Z</time></trkpt><trkpt lat="42.886533549671164" lon="13.163691115689408"><ele>962.6</ele><time>2026-04-04T13:20:52Z</time></trkpt><trkpt lat="42.886423165468614" lon="13.163703254935111"><ele>958.8</ele><time>2026-04-04T13:20:53Z</time></trkpt><trkpt lat="42.88631578905945" lon="13.16366793103117"><ele>955.0</ele><time>2026-04-04T13:20:54Z</time></trkpt><trkpt lat="42.886214757815715" lon="13.163600201856857"><ele>955.0</ele><time>2026-04-04T13:20:55Z</time></trkpt><trkpt lat="42.88613288849108" lon="13.163496099171264"><ele>955.0</ele><time>2026-04-04T13:20:56Z</time></trkpt><trkpt lat="42.88605235203243" lon="13.163414645888803"><ele>955.0</ele><time>2026-04-04T13:20:57Z</time></trkpt><trkpt lat="42.88598422137914" lon="13.16331867248528"><ele>955.0</ele><time>2026-04-04T13:20:58Z</time></trkpt><trkpt lat="42.88590126923886" lon="13.163253722501112"><ele>955.0</ele><time>2026-04-04T13:20:59Z</time></trkpt><trkpt lat="42.88579182924367" lon="13.163210142205244"><ele>954.75</ele><time>2026-04-04T13:21:00Z</time></trkpt><trkpt lat="42.88566792025036" lon="13.163183318125316"><ele>954.5</ele><time>2026-04-04T13:21:01Z</time></trkpt><trkpt lat="42.88553786270712" lon="13.16318408549677"><ele>954.25</ele><time>2026-04-04T13:21:02Z</time></trkpt><trkpt lat="42.88541359109622" lon="13.163190337257868"><ele>954.0</ele><time>2026-04-04T13:21:03Z</time></trkpt><trkpt lat="42.88529640331085" lon="13.16320438376733"><ele>954.0</ele><time>2026-04-04T13:21:04Z</time></trkpt><trkpt lat="42.88518663644801" lon="13.163218425091987"><ele>954.0000000000001</ele><time>2026-04-04T13:21:05Z</time></trkpt><trkpt lat="42.885075543723524" lon="13.163231872369106"><ele>954.0000000000001</ele><time>2026-04-04T13:21:06Z</time></trkpt><trkpt lat="42.88496576159747" lon="13.163239140734351"><ele>954.0</ele><time>2026-04-04T13:21:07Z</time></trkpt><trkpt lat="42.884858795941234" lon="13.16321471363698"><ele>954.0</ele><time>2026-04-04T13:21:08Z</time></trkpt><trkpt lat="42.88475585293193" lon="13.163203292197514"><ele>949.8000000000001</ele><time>2026-04-04T13:21:09Z</time></trkpt><trkpt lat="42.88465340022461" lon="13.163185983659487"><ele>945.6000000000001</ele><time>2026-04-04T13:21:10Z</time></trkpt><trkpt lat="42.88456956936344" lon="13.163152878210466"><ele>941.4</ele><time>2026-04-04T13:21:11Z</time></trkpt><trkpt lat="42.88449003854327" lon="13.163090615165649"><ele>937.2</ele><time>2026-04-04T13:21:12Z</time></trkpt><trkpt lat="42.884435661344014" lon="13.16299062433928"><ele>933.0</ele><time>2026-04-04T13:21:13Z</time></trkpt><trkpt lat="42.884450669300215" lon="13.16282763717239"><ele>933.0</ele><time>2026-04-04T13:21:14Z</time></trkpt><trkpt lat="42.884526243553964" lon="13.162673274753788"><ele>933.0</ele><time>2026-04-04T13:21:15Z</time></trkpt><trkpt lat="42.88463528358337" lon="13.162537757276981"><ele>933.0</ele><time>2026-04-04T13:21:16Z</time></trkpt><trkpt lat="42.884757045788234" lon="13.16242230260035"><ele>933.0</ele><time>2026-04-04T13:21:17Z</time></trkpt><trkpt lat="42.884880648175084" lon="13.162325263498365"><ele>928.25</ele><time>2026-04-04T13:21:18Z</time></trkpt><trkpt lat="42.88500548520664" lon="13.162249561962893"><ele>923.5</ele><time>2026-04-04T13:21:19Z</time></trkpt><trkpt lat="42.88513444816257" lon="13.162191304455337"><ele>918.75</ele><time>2026-04-04T13:21:20Z</time></trkpt><trkpt lat="42.88526592214852" lon="13.16215375736786"><ele>914.0</ele><time>2026-04-04T13:21:21Z</time></trkpt><trkpt lat="42.88540236328122" lon="13.162132250137581"><ele>913.0</ele><time>2026-04-04T13:21:22Z</time></trkpt><trkpt lat="42.88554132847689" lon="13.162111509468598"><ele>912.0</ele><time>2026-04-04T13:21:23Z</time></trkpt><trkpt lat="42.885686487612936" lon="13.162084444758912"><ele>911.0</ele><time>2026-04-04T13:21:24Z</time></trkpt><trkpt lat="42.88583169967365" lon="13.162051222400962"><ele>910.0</ele><time>2026-04-04T13:21:25Z</time></trkpt><trkpt lat="42.88597204290854" lon="13.162001832490365"><ele>913.0</ele><time>2026-04-04T13:21:26Z</time></trkpt><trkpt lat="42.88611143410346" lon="13.161922463090608"><ele>916.0</ele><time>2026-04-04T13:21:27Z</time></trkpt><trkpt lat="42.886231254573744" lon="13.161814975704367"><ele>919.0</ele><time>2026-04-04T13:21:28Z</time></trkpt><trkpt lat="42.886335281778564" lon="13.161654258203361"><ele>913.3333333333333</ele><time>2026-04-04T13:21:29Z</time></trkpt><trkpt lat="42.886427181253694" lon="13.16145159875314"><ele>907.6666666666667</ele><time>2026-04-04T13:21:30Z</time></trkpt><trkpt lat="42.88651503465576" lon="13.161258931095812"><ele>902.0</ele><time>2026-04-04T13:21:31Z</time></trkpt><trkpt lat="42.88662520305153" lon="13.161074927231748"><ele>902.0</ele><time>2026-04-04T13:21:32Z</time></trkpt><trkpt lat="42.88672771869336" lon="13.16086712317513"><ele>902.0</ele><time>2026-04-04T13:21:33Z</time></trkpt><trkpt lat="42.886832944074094" lon="13.16065382634448"><ele>902.0</ele><time>2026-04-04T13:21:34Z</time></trkpt><trkpt lat="42.8869379746908" lon="13.160440924313347"><ele>902.0</ele><time>2026-04-04T13:21:35Z</time></trkpt><trkpt lat="42.887039967164704" lon="13.160234180741144"><ele>902.0</ele><time>2026-04-04T13:21:36Z</time></trkpt><trkpt lat="42.88713443325051" lon="13.160015272424314"><ele>902.0</ele><time>2026-04-04T13:21:37Z</time></trkpt><trkpt lat="42.88725617817583" lon="13.159819512185035"><ele>898.6666666666667</ele><time>2026-04-04T13:21:38Z</time></trkpt><trkpt lat="42.88736966581575" lon="13.159614593301834"><ele>895.3333333333333</ele><time>2026-04-04T13:21:39Z</time></trkpt><trkpt lat="42.88748740756517" lon="13.15941827930795"><ele>892.0</ele><time>2026-04-04T13:21:40Z</time></trkpt><trkpt lat="42.88761337026511" lon="13.159224313028615"><ele>886.6666666666666</ele><time>2026-04-04T13:21:41Z</time></trkpt><trkpt lat="42.8877443615119" lon="13.159034095867156"><ele>881.3333333333333</ele><time>2026-04-04T13:21:42Z</time></trkpt><trkpt lat="42.887876493441766" lon="13.158849160176858"><ele>876.0</ele><time>2026-04-04T13:21:43Z</time></trkpt><trkpt lat="42.88801582283704" lon="13.158669249445452"><ele>876.0</ele><time>2026-04-04T13:21:44Z</time></trkpt><trkpt lat="42.88816227358534" lon="13.158502289634566"><ele>876.0</ele><time>2026-04-04T13:21:45Z</time></trkpt><trkpt lat="42.888315256141155" lon="13.158344866485242"><ele>876.0</ele><time>2026-04-04T13:21:46Z</time></trkpt><trkpt lat="42.88847713123029" lon="13.158197311097224"><ele>869.6666666666667</ele><time>2026-04-04T13:21:47Z</time></trkpt><trkpt lat="42.888643293325245" lon="13.158058731471789"><ele>863.3333333333334</ele><time>2026-04-04T13:21:48Z</time></trkpt><trkpt lat="42.888802323547" lon="13.157936774800987"><ele>857.0</ele><time>2026-04-04T13:21:49Z</time></trkpt><trkpt lat="42.88894780328036" lon="13.157831977325626"><ele>857.0</ele><time>2026-04-04T13:21:50Z</time></trkpt><trkpt lat="42.889085570572014" lon="13.157737503656435"><ele>857.0</ele><time>2026-04-04T13:21:51Z</time></trkpt><trkpt lat="42.889210891577996" lon="13.157659530514254"><ele>857.0</ele><time>2026-04-04T13:21:52Z</time></trkpt><trkpt lat="42.889338658033374" lon="13.157601472358909"><ele>857.0</ele><time>2026-04-04T13:21:53Z</time></trkpt><trkpt lat="42.88945855169074" lon="13.157572083946693"><ele>857.2</ele><time>2026-04-04T13:21:54Z</time></trkpt><trkpt lat="42.889574470790386" lon="13.157571510228832"><ele>857.4000000000001</ele><time>2026-04-04T13:21:55Z</time></trkpt><trkpt lat="42.88968190947557" lon="13.157555203946687"><ele>857.5999999999999</ele><time>2026-04-04T13:21:56Z</time></trkpt><trkpt lat="42.88977467366932" lon="13.157565503402632"><ele>857.8</ele><time>2026-04-04T13:21:57Z</time></trkpt><trkpt lat="42.88983969856828" lon="13.157547822694966"><ele>858.0</ele><time>2026-04-04T13:21:58Z</time></trkpt><trkpt lat="42.88991483811171" lon="13.157407638899537"><ele>853.4</ele><time>2026-04-04T13:22:00Z</time></trkpt><trkpt lat="42.88989609544967" lon="13.157300878942383"><ele>848.8</ele><time>2026-04-04T13:22:01Z</time></trkpt><trkpt lat="42.889831707554265" lon="13.157228446972253"><ele>844.2</ele><time>2026-04-04T13:22:02Z</time></trkpt><trkpt lat="42.88972488081863" lon="13.157192455252325"><ele>839.6</ele><time>2026-04-04T13:22:03Z</time></trkpt><trkpt lat="42.88960212012465" lon="13.157187400018014"><ele>835.0</ele><time>2026-04-04T13:22:04Z</time></trkpt><trkpt lat="42.88947030568047" lon="13.157175088383255"><ele>835.0</ele><time>2026-04-04T13:22:05Z</time></trkpt><trkpt lat="42.889335586194335" lon="13.157147751720736"><ele>835.0</ele><time>2026-04-04T13:22:06Z</time></trkpt><trkpt lat="42.88920868436575" lon="13.15711574059453"><ele>835.0</ele><time>2026-04-04T13:22:07Z</time></trkpt><trkpt lat="42.8890903885377" lon="13.157097173839253"><ele>835.0</ele><time>2026-04-04T13:22:08Z</time></trkpt><trkpt lat="42.888970909242005" lon="13.157081204665667"><ele>835.25</ele><time>2026-04-04T13:22:09Z</time></trkpt><trkpt lat="42.88885029750758" lon="13.15706088072513"><ele>835.5</ele><time>2026-04-04T13:22:10Z</time></trkpt><trkpt lat="42.88872981389001" lon="13.157041371462872"><ele>835.75</ele><time>2026-04-04T13:22:11Z</time></trkpt><trkpt lat="42.88861743108534" lon="13.15702931329363"><ele>836.0</ele><time>2026-04-04T13:22:12Z</time></trkpt><trkpt lat="42.88852004406913" lon="13.157003672943983"><ele>836.0000000000001</ele><time>2026-04-04T13:22:13Z</time></trkpt><trkpt lat="42.88843416290518" lon="13.156985621583948"><ele>836.0</ele><time>2026-04-04T13:22:14Z</time></trkpt><trkpt lat="42.88835382507265" lon="13.15699124125488"><ele>836.0</ele><time>2026-04-04T13:22:15Z</time></trkpt><trkpt lat="42.88829467121438" lon="13.15694682847125"><ele>836.0</ele><time>2026-04-04T13:22:16Z</time></trkpt><trkpt lat="42.88825166502349" lon="13.156806720180874"><ele>836.0000000000001</ele><time>2026-04-04T13:22:18Z</time></trkpt><trkpt lat="42.888329471764855" lon="13.15672192175428"><ele>836.0</ele><time>2026-04-04T13:22:19Z</time></trkpt><trkpt lat="42.888442265709706" lon="13.156708886677782"><ele>836.0</ele><time>2026-04-04T13:22:20Z</time></trkpt><trkpt lat="42.88860108583988" lon="13.156677006544456"><ele>836.0</ele><time>2026-04-04T13:22:21Z</time></trkpt><trkpt lat="42.88879909755896" lon="13.156629986666871"><ele>836.0</ele><time>2026-04-04T13:22:22Z</time></trkpt><trkpt lat="42.8890180253624" lon="13.156582507685222"><ele>836.0</ele><time>2026-04-04T13:22:23Z</time></trkpt><trkpt lat="42.88922815192986" lon="13.156542742817773"><ele>836.0</ele><time>2026-04-04T13:22:24Z</time></trkpt><trkpt lat="42.88939440898776" lon="13.15650019040146"><ele>836.0</ele><time>2026-04-04T13:22:25Z</time></trkpt><trkpt lat="42.8895118726222" lon="13.156479963704099"><ele>831.1999999999999</ele><time>2026-04-04T13:22:26Z</time></trkpt><trkpt lat="42.88959508109424" lon="13.156444235845722"><ele>826.4</ele><time>2026-04-04T13:22:27Z</time></trkpt><trkpt lat="42.88963707459805" lon="13.156354038172935"><ele>821.6</ele><time>2026-04-04T13:22:28Z</time></trkpt><trkpt lat="42.88964161159114" lon="13.156261604811274"><ele>816.8</ele><time>2026-04-04T13:22:29Z</time></trkpt><trkpt lat="42.88952140020055" lon="13.156137624654235"><ele>812.0</ele><time>2026-04-04T13:22:30Z</time></trkpt><trkpt lat="42.889380828717364" lon="13.156119089530012"><ele>812.6666666666667</ele><time>2026-04-04T13:22:31Z</time></trkpt><trkpt lat="42.88919632438877" lon="13.156149825421334"><ele>813.3333333333333</ele><time>2026-04-04T13:22:32Z</time></trkpt><trkpt lat="42.88897321643819" lon="13.156115720133672"><ele>814.0</ele><time>2026-04-04T13:22:33Z</time></trkpt><trkpt lat="42.888721142206194" lon="13.156046435306958"><ele>814.0</ele><time>2026-04-04T13:22:34Z</time></trkpt><trkpt lat="42.888495101570896" lon="13.156003356519886"><ele>814.0</ele><time>2026-04-04T13:22:35Z</time></trkpt><trkpt lat="42.88833470740828" lon="13.155957026853695"><ele>814.0</ele><time>2026-04-04T13:22:36Z</time></trkpt><trkpt lat="42.88819540172766" lon="13.155927333797182"><ele>814.6</ele><time>2026-04-04T13:22:37Z</time></trkpt><trkpt lat="42.8880915922615" lon="13.155886242459124"><ele>815.2</ele><time>2026-04-04T13:22:38Z</time></trkpt><trkpt lat="42.88802092369641" lon="13.155850573224823"><ele>815.8000000000001</ele><time>2026-04-04T13:22:39Z</time></trkpt><trkpt lat="42.8879823984432" lon="13.155722733020333"><ele>816.4000000000001</ele><time>2026-04-04T13:22:41Z</time></trkpt><trkpt lat="42.888053807952076" lon="13.155641630958078"><ele>817.0</ele><time>2026-04-04T13:22:42Z</time></trkpt><trkpt lat="42.888156787000355" lon="13.155629224164068"><ele>811.5</ele><time>2026-04-04T13:22:43Z</time></trkpt><trkpt lat="42.88828993154756" lon="13.15563815249597"><ele>806.0</ele><time>2026-04-04T13:22:44Z</time></trkpt><trkpt lat="42.8884346558839" lon="13.155618972309501"><ele>800.5</ele><time>2026-04-04T13:22:45Z</time></trkpt><trkpt lat="42.8885575874207" lon="13.15557323421812"><ele>795.0</ele><time>2026-04-04T13:22:46Z</time></trkpt><trkpt lat="42.888672672010216" lon="13.155538307110296"><ele>795.0</ele><time>2026-04-04T13:22:47Z</time></trkpt><trkpt lat="42.88878017566853" lon="13.155513427539796"><ele>795.0</ele><time>2026-04-04T13:22:48Z</time></trkpt><trkpt lat="42.88889493363552" lon="13.155491787220448"><ele>795.0</ele><time>2026-04-04T13:22:49Z</time></trkpt><trkpt lat="42.88901472189169" lon="13.155460968907134"><ele>795.0</ele><time>2026-04-04T13:22:50Z</time></trkpt><trkpt lat="42.889140640289234" lon="13.155423767604022"><ele>793.0</ele><time>2026-04-04T13:22:51Z</time></trkpt><trkpt lat="42.889269415919856" lon="13.155398254036493"><ele>791.0</ele><time>2026-04-04T13:22:52Z</time></trkpt><trkpt lat="42.88940990729393" lon="13.15536216616389"><ele>789.0</ele><time>2026-04-04T13:22:53Z</time></trkpt><trkpt lat="42.88955140744466" lon="13.155340160445064"><ele>787.0</ele><time>2026-04-04T13:22:54Z</time></trkpt><trkpt lat="42.88970211417747" lon="13.15532540743819"><ele>787.0</ele><time>2026-04-04T13:22:55Z</time></trkpt><trkpt lat="42.88986901595885" lon="13.155328394573344"><ele>787.0</ele><time>2026-04-04T13:22:56Z</time></trkpt><trkpt lat="42.89005538028428" lon="13.155361960177016"><ele>787.0</ele><time>2026-04-04T13:22:57Z</time></trkpt><trkpt lat="42.89027627946963" lon="13.155393516776252"><ele>779.0</ele><time>2026-04-04T13:22:58Z</time></trkpt><trkpt lat="42.89051073170537" lon="13.155430058198514"><ele>771.0</ele><time>2026-04-04T13:22:59Z</time></trkpt><trkpt lat="42.89075072530956" lon="13.155462254192754"><ele>768.0</ele><time>2026-04-04T13:23:00Z</time></trkpt><trkpt lat="42.890975157584535" lon="13.155533088120718"><ele>765.0</ele><time>2026-04-04T13:23:01Z</time></trkpt><trkpt lat="42.89117967982679" lon="13.155571426228635"><ele>762.0</ele><time>2026-04-04T13:23:02Z</time></trkpt><trkpt lat="42.891378667447334" lon="13.15559122032968"><ele>762.0</ele><time>2026-04-04T13:23:03Z</time></trkpt><trkpt lat="42.891590170049916" lon="13.155585123339742"><ele>762.0</ele><time>2026-04-04T13:23:04Z</time></trkpt><trkpt lat="42.89181077839561" lon="13.155526078780285"><ele>762.0</ele><time>2026-04-04T13:23:05Z</time></trkpt><trkpt lat="42.892019174796076" lon="13.155447369819758"><ele>761.3333333333334</ele><time>2026-04-04T13:23:06Z</time></trkpt><trkpt lat="42.89221147956773" lon="13.155379732496911"><ele>760.6666666666667</ele><time>2026-04-04T13:23:07Z</time></trkpt><trkpt lat="42.892378950717394" lon="13.155344313956363"><ele>760.0</ele><time>2026-04-04T13:23:08Z</time></trkpt><trkpt lat="42.89252233500543" lon="13.155389695458995"><ele>758.2</ele><time>2026-04-04T13:23:09Z</time></trkpt><trkpt lat="42.8926404833769" lon="13.155403977809161"><ele>756.4</ele><time>2026-04-04T13:23:10Z</time></trkpt><trkpt lat="42.89274098300002" lon="13.155414530518266"><ele>754.5999999999999</ele><time>2026-04-04T13:23:11Z</time></trkpt><trkpt lat="42.89283092779962" lon="13.155325120878194"><ele>752.8</ele><time>2026-04-04T13:23:12Z</time></trkpt><trkpt lat="42.89287744811896" lon="13.155182627150579"><ele>751.0</ele><time>2026-04-04T13:23:13Z</time></trkpt><trkpt lat="42.89287116727879" lon="13.155024521528487"><ele>751.0</ele><time>2026-04-04T13:23:14Z</time></trkpt><trkpt lat="42.89280468650737" lon="13.15489402379569"><ele>751.0</ele><time>2026-04-04T13:23:15Z</time></trkpt><trkpt lat="42.89268870250679" lon="13.154824554018923"><ele>751.0</ele><time>2026-04-04T13:23:16Z</time></trkpt><trkpt lat="42.89253401065912" lon="13.154827127710467"><ele>751.0</ele><time>2026-04-04T13:23:17Z</time></trkpt><trkpt lat="42.89234149101318" lon="13.154871219720347"><ele>754.0</ele><time>2026-04-04T13:23:18Z</time></trkpt><trkpt lat="42.89212873325505" lon="13.154895898487924"><ele>757.0</ele><time>2026-04-04T13:23:19Z</time></trkpt><trkpt lat="42.89192228620353" lon="13.154917709716004"><ele>760.0</ele><time>2026-04-04T13:23:20Z</time></trkpt><trkpt lat="42.89176186470335" lon="13.154912006597945"><ele>760.5</ele><time>2026-04-04T13:23:21Z</time></trkpt><trkpt lat="42.89164835681013" lon="13.154915554114815"><ele>761.0</ele><time>2026-04-04T13:23:22Z</time></trkpt><trkpt lat="42.891545149886944" lon="13.154885711151314"><ele>761.5</ele><time>2026-04-04T13:23:23Z</time></trkpt><trkpt lat="42.89144521590605" lon="13.154800095436787"><ele>762.0</ele><time>2026-04-04T13:23:24Z</time></trkpt><trkpt lat="42.891336806944366" lon="13.154642639332826"><ele>759.0</ele><time>2026-04-04T13:23:25Z</time></trkpt><trkpt lat="42.891202596170444" lon="13.154465755694474"><ele>756.0</ele><time>2026-04-04T13:23:26Z</time></trkpt><trkpt lat="42.89106240938698" lon="13.154282953208524"><ele>753.0</ele><time>2026-04-04T13:23:27Z</time></trkpt><trkpt lat="42.890887465880176" lon="13.154155258304664"><ele>747.6666666666666</ele><time>2026-04-04T13:23:28Z</time></trkpt><trkpt lat="42.89071743101218" lon="13.154021077396683"><ele>742.3333333333333</ele><time>2026-04-04T13:23:29Z</time></trkpt><trkpt lat="42.89056725825607" lon="13.153903322165528"><ele>737.0</ele><time>2026-04-04T13:23:30Z</time></trkpt><trkpt lat="42.890435020408006" lon="13.153749659925651"><ele>737.0</ele><time>2026-04-04T13:23:31Z</time></trkpt><trkpt lat="42.89031173498275" lon="13.153569540852276"><ele>737.0</ele><time>2026-04-04T13:23:32Z</time></trkpt><trkpt lat="42.890201409116465" lon="13.153399603419063"><ele>737.0</ele><time>2026-04-04T13:23:33Z</time></trkpt><trkpt lat="42.890102142334825" lon="13.153246700551621"><ele>738.5</ele><time>2026-04-04T13:23:34Z</time></trkpt><trkpt lat="42.89001230414909" lon="13.153113595267717"><ele>740.0</ele><time>2026-04-04T13:23:35Z</time></trkpt><trkpt lat="42.88991363822088" lon="13.153031965918586"><ele>741.5</ele><time>2026-04-04T13:23:36Z</time></trkpt><trkpt lat="42.88980214011115" lon="13.152989014285176"><ele>743.0</ele><time>2026-04-04T13:23:37Z</time></trkpt><trkpt lat="42.88967678350268" lon="13.15299947308168"><ele>743.0</ele><time>2026-04-04T13:23:38Z</time></trkpt><trkpt lat="42.88957583860355" lon="13.152984405272681"><ele>743.0</ele><time>2026-04-04T13:23:39Z</time></trkpt><trkpt lat="42.889493275317804" lon="13.152937736576291"><ele>743.0</ele><time>2026-04-04T13:23:40Z</time></trkpt><trkpt lat="42.889461729029556" lon="13.152837790198245"><ele>743.0</ele><time>2026-04-04T13:23:41Z</time></trkpt><trkpt lat="42.889452583564236" lon="13.15272631064633"><ele>743.0</ele><time>2026-04-04T13:23:42Z</time></trkpt><trkpt lat="42.889509545234915" lon="13.15261685081628"><ele>743.0</ele><time>2026-04-04T13:23:43Z</time></trkpt><trkpt lat="42.889597425015616" lon="13.152569110204482"><ele>743.0</ele><time>2026-04-04T13:23:45Z</time></trkpt><trkpt lat="42.889754354445955" lon="13.152616292625243"><ele>743.0</ele><time>2026-04-04T13:23:47Z</time></trkpt><trkpt lat="42.88986840300829" lon="13.152692030125557"><ele>743.0</ele><time>2026-04-04T13:23:48Z</time></trkpt><trkpt lat="42.88999763572883" lon="13.152767934833214"><ele>741.5</ele><time>2026-04-04T13:23:49Z</time></trkpt><trkpt lat="42.89012817867177" lon="13.1528384048106"><ele>740.0</ele><time>2026-04-04T13:23:50Z</time></trkpt><trkpt lat="42.89026446557394" lon="13.152907733368354"><ele>738.5</ele><time>2026-04-04T13:23:51Z</time></trkpt><trkpt lat="42.890400731567546" lon="13.152984764307291"><ele>737.0</ele><time>2026-04-04T13:23:52Z</time></trkpt><trkpt lat="42.890542238501055" lon="13.15306670644227"><ele>737.0</ele><time>2026-04-04T13:23:53Z</time></trkpt><trkpt lat="42.890686854085985" lon="13.153154832874202"><ele>737.0</ele><time>2026-04-04T13:23:54Z</time></trkpt><trkpt lat="42.89082582742987" lon="13.153237904802346"><ele>737.0</ele><time>2026-04-04T13:23:55Z</time></trkpt><trkpt lat="42.89095479441625" lon="13.153319791598095"><ele>735.75</ele><time>2026-04-04T13:23:56Z</time></trkpt><trkpt lat="42.89107254553778" lon="13.153396839166742"><ele>734.5</ele><time>2026-04-04T13:23:57Z</time></trkpt><trkpt lat="42.89118519649454" lon="13.153471444410648"><ele>733.25</ele><time>2026-04-04T13:23:58Z</time></trkpt><trkpt lat="42.89129729605825" lon="13.15355336116875"><ele>732.0</ele><time>2026-04-04T13:23:59Z</time></trkpt><trkpt lat="42.89141910319994" lon="13.153634328454894"><ele>732.0</ele><time>2026-04-04T13:24:00Z</time></trkpt><trkpt lat="42.89154651475587" lon="13.153713762942361"><ele>732.0</ele><time>2026-04-04T13:24:01Z</time></trkpt><trkpt lat="42.8916784805883" lon="13.153784583121697"><ele>732.0</ele><time>2026-04-04T13:24:02Z</time></trkpt><trkpt lat="42.891806805048134" lon="13.153839434689017"><ele>732.0</ele><time>2026-04-04T13:24:03Z</time></trkpt><trkpt lat="42.891945150029684" lon="13.153888469154538"><ele>731.5</ele><time>2026-04-04T13:24:04Z</time></trkpt><trkpt lat="42.89208789278721" lon="13.15390296318632"><ele>731.0</ele><time>2026-04-04T13:24:05Z</time></trkpt><trkpt lat="42.892227111239656" lon="13.15388841101334"><ele>730.5</ele><time>2026-04-04T13:24:06Z</time></trkpt><trkpt lat="42.89236254062883" lon="13.15386199281553"><ele>730.0</ele><time>2026-04-04T13:24:07Z</time></trkpt><trkpt lat="42.89249879729857" lon="13.15381864560596"><ele>730.25</ele><time>2026-04-04T13:24:08Z</time></trkpt><trkpt lat="42.892624654882134" lon="13.153748727207837"><ele>730.5</ele><time>2026-04-04T13:24:09Z</time></trkpt><trkpt lat="42.89274203091783" lon="13.153655973439701"><ele>730.75</ele><time>2026-04-04T13:24:10Z</time></trkpt><trkpt lat="42.8928460064001" lon="13.153549878617211"><ele>731.0</ele><time>2026-04-04T13:24:11Z</time></trkpt><trkpt lat="42.89293954352" lon="13.153453385860864"><ele>731.0</ele><time>2026-04-04T13:24:12Z</time></trkpt><trkpt lat="42.893021595409515" lon="13.153377744241656"><ele>731.0</ele><time>2026-04-04T13:24:13Z</time></trkpt><trkpt lat="42.893100263755066" lon="13.153288537604361"><ele>731.0</ele><time>2026-04-04T13:24:14Z</time></trkpt><trkpt lat="42.893174791858556" lon="13.153216716418987"><ele>731.0</ele><time>2026-04-04T13:24:15Z</time></trkpt><trkpt lat="42.89324709954408" lon="13.153145087766951"><ele>731.0</ele><time>2026-04-04T13:24:16Z</time></trkpt><trkpt lat="42.893321545966955" lon="13.153070002775667"><ele>731.0</ele><time>2026-04-04T13:24:17Z</time></trkpt><trkpt lat="42.89340134315355" lon="13.152994339268307"><ele>731.0</ele><time>2026-04-04T13:24:18Z</time></trkpt><trkpt lat="42.893482782885926" lon="13.152909225276492"><ele>731.0</ele><time>2026-04-04T13:24:19Z</time></trkpt><trkpt lat="42.8935672185595" lon="13.15282476736351"><ele>731.0</ele><time>2026-04-04T13:24:20Z</time></trkpt><trkpt lat="42.89364897813466" lon="13.152735171014308"><ele>731.0</ele><time>2026-04-04T13:24:21Z</time></trkpt><trkpt lat="42.8937413194691" lon="13.152656352468975"><ele>731.0</ele><time>2026-04-04T13:24:22Z</time></trkpt><trkpt lat="42.89382990644782" lon="13.152572475019989"><ele>731.0</ele><time>2026-04-04T13:24:23Z</time></trkpt><trkpt lat="42.89391543388801" lon="13.152492687183265"><ele>731.0</ele><time>2026-04-04T13:24:24Z</time></trkpt><trkpt lat="42.89400141490234" lon="13.15241067538774"><ele>731.0</ele><time>2026-04-04T13:24:25Z</time></trkpt><trkpt lat="42.89408608059453" lon="13.152327845166612"><ele>731.0</ele><time>2026-04-04T13:24:26Z</time></trkpt><trkpt lat="42.89417545475748" lon="13.152247568459806"><ele>730.5999999999999</ele><time>2026-04-04T13:24:27Z</time></trkpt><trkpt lat="42.89427165687479" lon="13.152179708821508"><ele>730.2</ele><time>2026-04-04T13:24:28Z</time></trkpt><trkpt lat="42.89437919045602" lon="13.152116234297244"><ele>729.8</ele><time>2026-04-04T13:24:29Z</time></trkpt><trkpt lat="42.894488237242534" lon="13.152074553948305"><ele>729.4000000000001</ele><time>2026-04-04T13:24:30Z</time></trkpt><trkpt lat="42.89459450161851" lon="13.15203566840711"><ele>729.0</ele><time>2026-04-04T13:24:31Z</time></trkpt><trkpt lat="42.8946988494858" lon="13.15199340320278"><ele>729.0</ele><time>2026-04-04T13:24:32Z</time></trkpt><trkpt lat="42.89479627645165" lon="13.151990564308413"><ele>729.0</ele><time>2026-04-04T13:24:33Z</time></trkpt><trkpt lat="42.89489099549566" lon="13.151966849223607"><ele>729.0</ele><time>2026-04-04T13:24:34Z</time></trkpt><trkpt lat="42.894989689411396" lon="13.151943913303715"><ele>729.0</ele><time>2026-04-04T13:24:35Z</time></trkpt><trkpt lat="42.89508640144682" lon="13.151914749856358"><ele>729.0</ele><time>2026-04-04T13:24:36Z</time></trkpt><trkpt lat="42.895185997705866" lon="13.151890290787684"><ele>731.75</ele><time>2026-04-04T13:24:37Z</time></trkpt><trkpt lat="42.89528578677941" lon="13.15185190495537"><ele>734.5</ele><time>2026-04-04T13:24:38Z</time></trkpt><trkpt lat="42.895387568962576" lon="13.151798978145175"><ele>737.25</ele><time>2026-04-04T13:24:39Z</time></trkpt><trkpt lat="42.89548111972983" lon="13.15171186123788"><ele>740.0</ele><time>2026-04-04T13:24:40Z</time></trkpt><trkpt lat="42.89556512519254" lon="13.151584014104307"><ele>734.6666666666666</ele><time>2026-04-04T13:24:41Z</time></trkpt><trkpt lat="42.89567706496318" lon="13.151454905547114"><ele>729.3333333333334</ele><time>2026-04-04T13:24:42Z</time></trkpt><trkpt lat="42.895799097313656" lon="13.151297364335836"><ele>724.0</ele><time>2026-04-04T13:24:43Z</time></trkpt><trkpt lat="42.895917963831735" lon="13.151112953614389"><ele>726.0</ele><time>2026-04-04T13:24:44Z</time></trkpt><trkpt lat="42.89606231165372" lon="13.150948439711957"><ele>728.0</ele><time>2026-04-04T13:24:45Z</time></trkpt><trkpt lat="42.896200952282385" lon="13.150769402628288"><ele>730.0</ele><time>2026-04-04T13:24:46Z</time></trkpt><trkpt lat="42.89633443987728" lon="13.150586193560255"><ele>730.0</ele><time>2026-04-04T13:24:47Z</time></trkpt><trkpt lat="42.89645979912541" lon="13.150395470194121"><ele>730.0</ele><time>2026-04-04T13:24:48Z</time></trkpt><trkpt lat="42.896569348479446" lon="13.150187759713615"><ele>730.0</ele><time>2026-04-04T13:24:49Z</time></trkpt><trkpt lat="42.89666452929257" lon="13.149960626749184"><ele>728.0</ele><time>2026-04-04T13:24:50Z</time></trkpt><trkpt lat="42.89674676565184" lon="13.149719859169968"><ele>726.0</ele><time>2026-04-04T13:24:51Z</time></trkpt><trkpt lat="42.8968253830697" lon="13.14948088389458"><ele>724.0</ele><time>2026-04-04T13:24:52Z</time></trkpt><trkpt lat="42.89690384224205" lon="13.149241186620737"><ele>725.0</ele><time>2026-04-04T13:24:53Z</time></trkpt><trkpt lat="42.89698633971462" lon="13.149009345577696"><ele>726.0</ele><time>2026-04-04T13:24:54Z</time></trkpt><trkpt lat="42.89707428541925" lon="13.148791821251866"><ele>727.0</ele><time>2026-04-04T13:24:55Z</time></trkpt><trkpt lat="42.89717293196641" lon="13.14858508232421"><ele>727.0</ele><time>2026-04-04T13:24:56Z</time></trkpt><trkpt lat="42.897292417147575" lon="13.148412307041333"><ele>727.0</ele><time>2026-04-04T13:24:57Z</time></trkpt><trkpt lat="42.897429553864775" lon="13.148263283114884"><ele>727.0</ele><time>2026-04-04T13:24:58Z</time></trkpt><trkpt lat="42.897587594615224" lon="13.148150327295319"><ele>725.6666666666667</ele><time>2026-04-04T13:24:59Z</time></trkpt><trkpt lat="42.89773742984634" lon="13.148017553902264"><ele>724.3333333333334</ele><time>2026-04-04T13:25:00Z</time></trkpt><trkpt lat="42.89788784185877" lon="13.147870920772291"><ele>723.0</ele><time>2026-04-04T13:25:01Z</time></trkpt><trkpt lat="42.898037872168985" lon="13.147734429905203"><ele>723.0</ele><time>2026-04-04T13:25:02Z</time></trkpt><trkpt lat="42.8981870624511" lon="13.147593550970138"><ele>723.0</ele><time>2026-04-04T13:25:03Z</time></trkpt><trkpt lat="42.89831406850397" lon="13.147424156726498"><ele>723.0</ele><time>2026-04-04T13:25:04Z</time></trkpt><trkpt lat="42.89843046405128" lon="13.147246466012966"><ele>724.3333333333334</ele><time>2026-04-04T13:25:05Z</time></trkpt><trkpt lat="42.89853996232512" lon="13.147059523465513"><ele>725.6666666666667</ele><time>2026-04-04T13:25:06Z</time></trkpt><trkpt lat="42.89864376146259" lon="13.146866487093503"><ele>727.0</ele><time>2026-04-04T13:25:07Z</time></trkpt><trkpt lat="42.8987499814883" lon="13.14668221437111"><ele>725.75</ele><time>2026-04-04T13:25:08Z</time></trkpt><trkpt lat="42.898830485721305" lon="13.146505007616998"><ele>724.5</ele><time>2026-04-04T13:25:09Z</time></trkpt><trkpt lat="42.89891836687831" lon="13.146356134921142"><ele>723.25</ele><time>2026-04-04T13:25:10Z</time></trkpt><trkpt lat="42.899000648496795" lon="13.146208274826195"><ele>722.0</ele><time>2026-04-04T13:25:11Z</time></trkpt><trkpt lat="42.89910039673569" lon="13.146065417155594"><ele>722.0</ele><time>2026-04-04T13:25:12Z</time></trkpt><trkpt lat="42.899213993792785" lon="13.145931348850862"><ele>722.0</ele><time>2026-04-04T13:25:13Z</time></trkpt><trkpt lat="42.89933198883159" lon="13.145818669326227"><ele>722.0</ele><time>2026-04-04T13:25:14Z</time></trkpt><trkpt lat="42.89945074026234" lon="13.14570648771571"><ele>722.0</ele><time>2026-04-04T13:25:15Z</time></trkpt><trkpt lat="42.89957064101619" lon="13.145597931936845"><ele>721.3333333333333</ele><time>2026-04-04T13:25:16Z</time></trkpt><trkpt lat="42.89969024732572" lon="13.145489448725215"><ele>720.6666666666666</ele><time>2026-04-04T13:25:17Z</time></trkpt><trkpt lat="42.899811168919996" lon="13.145374985126814"><ele>720.0</ele><time>2026-04-04T13:25:18Z</time></trkpt><trkpt lat="42.89993930398482" lon="13.145237943159675"><ele>720.0</ele><time>2026-04-04T13:25:19Z</time></trkpt><trkpt lat="42.90006804965822" lon="13.145062292875307"><ele>720.0</ele><time>2026-04-04T13:25:20Z</time></trkpt><trkpt lat="42.90019607472285" lon="13.144843927031276"><ele>720.0</ele><time>2026-04-04T13:25:21Z</time></trkpt><trkpt lat="42.90034445792865" lon="13.144623515031423"><ele>722.0</ele><time>2026-04-04T13:25:22Z</time></trkpt><trkpt lat="42.90047918342623" lon="13.144384655571951"><ele>724.0</ele><time>2026-04-04T13:25:23Z</time></trkpt><trkpt lat="42.90060027529576" lon="13.144155527094313"><ele>726.0</ele><time>2026-04-04T13:25:24Z</time></trkpt><trkpt lat="42.90071909240548" lon="13.143946954443232"><ele>728.0</ele><time>2026-04-04T13:25:25Z</time></trkpt><trkpt lat="42.9008274059148" lon="13.14374605830841"><ele>730.0</ele><time>2026-04-04T13:25:26Z</time></trkpt><trkpt lat="42.90094176855739" lon="13.14355677448043"><ele>732.0</ele><time>2026-04-04T13:25:27Z</time></trkpt><trkpt lat="42.90107603103204" lon="13.143381317814676"><ele>732.0</ele><time>2026-04-04T13:25:28Z</time></trkpt><trkpt lat="42.90123684681169" lon="13.1432486851285"><ele>732.0</ele><time>2026-04-04T13:25:29Z</time></trkpt><trkpt lat="42.90138267967545" lon="13.143087349015854"><ele>732.0</ele><time>2026-04-04T13:25:30Z</time></trkpt><trkpt lat="42.901535790712124" lon="13.142938830098634"><ele>730.6666666666666</ele><time>2026-04-04T13:25:31Z</time></trkpt><trkpt lat="42.90167472495852" lon="13.142771257220696"><ele>729.3333333333333</ele><time>2026-04-04T13:25:32Z</time></trkpt><trkpt lat="42.90178838546426" lon="13.142566900328612"><ele>728.0</ele><time>2026-04-04T13:25:33Z</time></trkpt><trkpt lat="42.90187958549895" lon="13.142343271108492"><ele>728.0</ele><time>2026-04-04T13:25:34Z</time></trkpt><trkpt lat="42.901968596464194" lon="13.14210885856777"><ele>728.0</ele><time>2026-04-04T13:25:35Z</time></trkpt><trkpt lat="42.90205119778592" lon="13.141886158552357"><ele>728.0</ele><time>2026-04-04T13:25:36Z</time></trkpt><trkpt lat="42.90212127263918" lon="13.141653005865438"><ele>724.3333333333333</ele><time>2026-04-04T13:25:37Z</time></trkpt><trkpt lat="42.902170414849564" lon="13.14140228179821"><ele>720.6666666666666</ele><time>2026-04-04T13:25:38Z</time></trkpt><trkpt lat="42.90220756105711" lon="13.14115051748122"><ele>717.0</ele><time>2026-04-04T13:25:39Z</time></trkpt><trkpt lat="42.902242593684" lon="13.140931067943852"><ele>717.0</ele><time>2026-04-04T13:25:40Z</time></trkpt><trkpt lat="42.902295718868615" lon="13.14073624314259"><ele>717.0</ele><time>2026-04-04T13:25:41Z</time></trkpt><trkpt lat="42.90237623243865" lon="13.14055129806538"><ele>717.0</ele><time>2026-04-04T13:25:42Z</time></trkpt><trkpt lat="42.902503058204" lon="13.140385517845635"><ele>718.6666666666666</ele><time>2026-04-04T13:25:43Z</time></trkpt><trkpt lat="42.90265587932044" lon="13.14023474176856"><ele>720.3333333333333</ele><time>2026-04-04T13:25:44Z</time></trkpt><trkpt lat="42.90281817695337" lon="13.140078514638157"><ele>722.0</ele><time>2026-04-04T13:25:45Z</time></trkpt><trkpt lat="42.902979911192105" lon="13.13991394866787"><ele>721.3333333333333</ele><time>2026-04-04T13:25:46Z</time></trkpt><trkpt lat="42.903143860403006" lon="13.139738888272854"><ele>720.6666666666666</ele><time>2026-04-04T13:25:47Z</time></trkpt><trkpt lat="42.90330884489689" lon="13.139564573761525"><ele>720.0</ele><time>2026-04-04T13:25:48Z</time></trkpt><trkpt lat="42.90347388477698" lon="13.13939224859612"><ele>720.0</ele><time>2026-04-04T13:25:49Z</time></trkpt><trkpt lat="42.903643194763745" lon="13.13925760353901"><ele>720.0</ele><time>2026-04-04T13:25:50Z</time></trkpt><trkpt lat="42.903817305315286" lon="13.13914548071321"><ele>720.0</ele><time>2026-04-04T13:25:51Z</time></trkpt><trkpt lat="42.903987686145264" lon="13.139022441284261"><ele>715.0</ele><time>2026-04-04T13:25:52Z</time></trkpt><trkpt lat="42.90413845048834" lon="13.138848820653157"><ele>710.0</ele><time>2026-04-04T13:25:53Z</time></trkpt><trkpt lat="42.90426989405655" lon="13.138637037022473"><ele>705.0</ele><time>2026-04-04T13:25:54Z</time></trkpt><trkpt lat="42.90439194108774" lon="13.138416250367657"><ele>707.3333333333334</ele><time>2026-04-04T13:25:55Z</time></trkpt><trkpt lat="42.904516828146704" lon="13.138198320821116"><ele>709.6666666666667</ele><time>2026-04-04T13:25:56Z</time></trkpt><trkpt lat="42.904652373542966" lon="13.137996149889439"><ele>712.0</ele><time>2026-04-04T13:25:57Z</time></trkpt><trkpt lat="42.904794477930146" lon="13.137819797493005"><ele>712.0</ele><time>2026-04-04T13:25:58Z</time></trkpt><trkpt lat="42.90492485035679" lon="13.137636517414428"><ele>712.0</ele><time>2026-04-04T13:25:59Z</time></trkpt><trkpt lat="42.90502731375902" lon="13.137419007724702"><ele>712.0</ele><time>2026-04-04T13:26:00Z</time></trkpt><trkpt lat="42.90510343574471" lon="13.137169952422061"><ele>714.3333333333334</ele><time>2026-04-04T13:26:01Z</time></trkpt><trkpt lat="42.905171393100396" lon="13.13691220990821"><ele>716.6666666666666</ele><time>2026-04-04T13:26:02Z</time></trkpt><trkpt lat="42.90524348946616" lon="13.136655922988988"><ele>719.0</ele><time>2026-04-04T13:26:03Z</time></trkpt><trkpt lat="42.90531099703784" lon="13.136404654993502"><ele>719.0</ele><time>2026-04-04T13:26:04Z</time></trkpt><trkpt lat="42.90538061975365" lon="13.136159023989334"><ele>719.0</ele><time>2026-04-04T13:26:05Z</time></trkpt><trkpt lat="42.90546374536262" lon="13.135918873323991"><ele>719.0</ele><time>2026-04-04T13:26:06Z</time></trkpt><trkpt lat="42.905570782956374" lon="13.13569717862661"><ele>725.6666666666666</ele><time>2026-04-04T13:26:07Z</time></trkpt><trkpt lat="42.90569494639053" lon="13.135490851047567"><ele>732.3333333333334</ele><time>2026-04-04T13:26:08Z</time></trkpt><trkpt lat="42.905820675361106" lon="13.135282629882433"><ele>739.0</ele><time>2026-04-04T13:26:09Z</time></trkpt><trkpt lat="42.905946079522515" lon="13.135069955271325"><ele>731.6666666666667</ele><time>2026-04-04T13:26:10Z</time></trkpt><trkpt lat="42.906067715357544" lon="13.134849232268579"><ele>724.3333333333334</ele><time>2026-04-04T13:26:11Z</time></trkpt><trkpt lat="42.906189069819014" lon="13.134623998050168"><ele>717.0</ele><time>2026-04-04T13:26:12Z</time></trkpt><trkpt lat="42.90630315330964" lon="13.134391429491469"><ele>717.0</ele><time>2026-04-04T13:26:13Z</time></trkpt><trkpt lat="42.906407533430496" lon="13.134161426603152"><ele>717.0</ele><time>2026-04-04T13:26:14Z</time></trkpt><trkpt lat="42.906496945218294" lon="13.133933547303945"><ele>717.0</ele><time>2026-04-04T13:26:15Z</time></trkpt><trkpt lat="42.90657042838511" lon="13.13369569456929"><ele>713.6666666666666</ele><time>2026-04-04T13:26:16Z</time></trkpt><trkpt lat="42.90662145754935" lon="13.13345727240364"><ele>710.3333333333333</ele><time>2026-04-04T13:26:17Z</time></trkpt><trkpt lat="42.90663831873012" lon="13.133223820687437"><ele>707.0</ele><time>2026-04-04T13:26:18Z</time></trkpt><trkpt lat="42.906666312654025" lon="13.13300526939829"><ele>707.5</ele><time>2026-04-04T13:26:19Z</time></trkpt><trkpt lat="42.90670811121541" lon="13.13280935956706"><ele>708.0</ele><time>2026-04-04T13:26:20Z</time></trkpt><trkpt lat="42.90679197721293" lon="13.1326524500593"><ele>708.5</ele><time>2026-04-04T13:26:21Z</time></trkpt><trkpt lat="42.90691277714468" lon="13.132529563815055"><ele>709.0</ele><time>2026-04-04T13:26:22Z</time></trkpt><trkpt lat="42.907070273126" lon="13.132434480961164"><ele>709.6666666666667</ele><time>2026-04-04T13:26:23Z</time></trkpt><trkpt lat="42.90724319131538" lon="13.132347315312414"><ele>710.3333333333334</ele><time>2026-04-04T13:26:24Z</time></trkpt><trkpt lat="42.907409293462734" lon="13.132235871516608"><ele>711.0</ele><time>2026-04-04T13:26:25Z</time></trkpt><trkpt lat="42.90758356569238" lon="13.132141561165058"><ele>711.0</ele><time>2026-04-04T13:26:26Z</time></trkpt><trkpt lat="42.90775498792075" lon="13.132041046051043"><ele>711.0</ele><time>2026-04-04T13:26:27Z</time></trkpt><trkpt lat="42.90790427454637" lon="13.131915073649838"><ele>711.0</ele><time>2026-04-04T13:26:28Z</time></trkpt><trkpt lat="42.90803533489514" lon="13.13176987630598"><ele>706.3333333333334</ele><time>2026-04-04T13:26:29Z</time></trkpt><trkpt lat="42.9080994822556" lon="13.131551154480729"><ele>701.6666666666667</ele><time>2026-04-04T13:26:30Z</time></trkpt><trkpt lat="42.90815804967521" lon="13.131324604895267"><ele>697.0</ele><time>2026-04-04T13:26:31Z</time></trkpt><trkpt lat="42.90817813767518" lon="13.131088748010542"><ele>697.0</ele><time>2026-04-04T13:26:32Z</time></trkpt><trkpt lat="42.908209683651016" lon="13.130874312604876"><ele>697.0</ele><time>2026-04-04T13:26:33Z</time></trkpt><trkpt lat="42.908262448993185" lon="13.130686975599446"><ele>697.0</ele><time>2026-04-04T13:26:34Z</time></trkpt><trkpt lat="42.90836159061314" lon="13.130530217799498"><ele>697.0</ele><time>2026-04-04T13:26:35Z</time></trkpt><trkpt lat="42.90850207520445" lon="13.1303908101645"><ele>697.0</ele><time>2026-04-04T13:26:36Z</time></trkpt><trkpt lat="42.90866195128337" lon="13.13025800465846"><ele>697.0</ele><time>2026-04-04T13:26:37Z</time></trkpt><trkpt lat="42.90883332601873" lon="13.130135139108255"><ele>697.0</ele><time>2026-04-04T13:26:38Z</time></trkpt><trkpt lat="42.90899680984977" lon="13.13003564035986"><ele>697.0</ele><time>2026-04-04T13:26:39Z</time></trkpt><trkpt lat="42.90916654616492" lon="13.129972993503024"><ele>697.0</ele><time>2026-04-04T13:26:40Z</time></trkpt><trkpt lat="42.909348153658904" lon="13.129948840850561"><ele>698.0</ele><time>2026-04-04T13:26:41Z</time></trkpt><trkpt lat="42.90953367682196" lon="13.129925538679514"><ele>699.0</ele><time>2026-04-04T13:26:42Z</time></trkpt><trkpt lat="42.90971463008374" lon="13.129874395106995"><ele>700.0</ele><time>2026-04-04T13:26:43Z</time></trkpt><trkpt lat="42.90988484003065" lon="13.129811171259199"><ele>699.0</ele><time>2026-04-04T13:26:44Z</time></trkpt><trkpt lat="42.91003663751614" lon="13.129675141039828"><ele>698.0</ele><time>2026-04-04T13:26:45Z</time></trkpt><trkpt lat="42.91017714613196" lon="13.129517086647082"><ele>697.0</ele><time>2026-04-04T13:26:46Z</time></trkpt><trkpt lat="42.91031332511175" lon="13.129349571489788"><ele>697.0</ele><time>2026-04-04T13:26:47Z</time></trkpt><trkpt lat="42.9104472345933" lon="13.129181414763995"><ele>697.0</ele><time>2026-04-04T13:26:48Z</time></trkpt><trkpt lat="42.9105934483286" lon="13.129034581480273"><ele>697.0</ele><time>2026-04-04T13:26:49Z</time></trkpt><trkpt lat="42.91075093023066" lon="13.128917578245934"><ele>695.3333333333334</ele><time>2026-04-04T13:26:50Z</time></trkpt><trkpt lat="42.91092036697098" lon="13.128824910915867"><ele>693.6666666666666</ele><time>2026-04-04T13:26:51Z</time></trkpt><trkpt lat="42.91109732316734" lon="13.12875962750617"><ele>692.0</ele><time>2026-04-04T13:26:52Z</time></trkpt><trkpt lat="42.91128132801148" lon="13.12872162855525"><ele>692.0</ele><time>2026-04-04T13:26:53Z</time></trkpt><trkpt lat="42.91147169640378" lon="13.128687632518359"><ele>692.0</ele><time>2026-04-04T13:26:54Z</time></trkpt><trkpt lat="42.91166376731755" lon="13.12864738680862"><ele>692.0</ele><time>2026-04-04T13:26:55Z</time></trkpt><trkpt lat="42.91185815993297" lon="13.128606621609817"><ele>691.3333333333333</ele><time>2026-04-04T13:26:56Z</time></trkpt><trkpt lat="42.9120504511751" lon="13.12856943278555"><ele>690.6666666666666</ele><time>2026-04-04T13:26:57Z</time></trkpt><trkpt lat="42.91223228112922" lon="13.128539579387628"><ele>690.0</ele><time>2026-04-04T13:26:58Z</time></trkpt><trkpt lat="42.912403080925706" lon="13.128496403186539"><ele>690.0</ele><time>2026-04-04T13:26:59Z</time></trkpt><trkpt lat="42.91256610395241" lon="13.128421031648221"><ele>690.0</ele><time>2026-04-04T13:27:00Z</time></trkpt><trkpt lat="42.912724854007344" lon="13.128301971619443"><ele>690.0</ele><time>2026-04-04T13:27:01Z</time></trkpt><trkpt lat="42.912867843974006" lon="13.128144367522028"><ele>688.0</ele><time>2026-04-04T13:27:02Z</time></trkpt><trkpt lat="42.91300269776876" lon="13.127968560594939"><ele>686.0</ele><time>2026-04-04T13:27:03Z</time></trkpt><trkpt lat="42.91313873663922" lon="13.127790307293894"><ele>684.0</ele><time>2026-04-04T13:27:04Z</time></trkpt><trkpt lat="42.91327633986255" lon="13.127606847139667"><ele>686.6666666666666</ele><time>2026-04-04T13:27:05Z</time></trkpt><trkpt lat="42.91341577773017" lon="13.127421122703092"><ele>689.3333333333333</ele><time>2026-04-04T13:27:06Z</time></trkpt><trkpt lat="42.91355310110644" lon="13.127229708500453"><ele>692.0</ele><time>2026-04-04T13:27:07Z</time></trkpt><trkpt lat="42.913691428893614" lon="13.127037891706404"><ele>692.0</ele><time>2026-04-04T13:27:08Z</time></trkpt><trkpt lat="42.9138321938166" lon="13.126848182801051"><ele>692.0</ele><time>2026-04-04T13:27:09Z</time></trkpt><trkpt lat="42.913971854348326" lon="13.126663144227452"><ele>692.0</ele><time>2026-04-04T13:27:10Z</time></trkpt><trkpt lat="42.91410587250806" lon="13.12647734963322"><ele>689.0</ele><time>2026-04-04T13:27:11Z</time></trkpt><trkpt lat="42.914232503723824" lon="13.12629431225533"><ele>686.0</ele><time>2026-04-04T13:27:12Z</time></trkpt><trkpt lat="42.91433725429418" lon="13.126102585876803"><ele>683.0</ele><time>2026-04-04T13:27:13Z</time></trkpt><trkpt lat="42.91440648172046" lon="13.125889159480545"><ele>687.6666666666666</ele><time>2026-04-04T13:27:14Z</time></trkpt><trkpt lat="42.91442457908521" lon="13.125645392249162"><ele>692.3333333333334</ele><time>2026-04-04T13:27:15Z</time></trkpt><trkpt lat="42.914418447044554" lon="13.12540723236176"><ele>697.0</ele><time>2026-04-04T13:27:16Z</time></trkpt><trkpt lat="42.91440816405156" lon="13.12518995339993"><ele>697.0</ele><time>2026-04-04T13:27:17Z</time></trkpt><trkpt lat="42.9144259808295" lon="13.124985115466876"><ele>697.0</ele><time>2026-04-04T13:27:18Z</time></trkpt><trkpt lat="42.91449538284608" lon="13.124803168387372"><ele>697.0</ele><time>2026-04-04T13:27:19Z</time></trkpt><trkpt lat="42.914615245695074" lon="13.124635815009421"><ele>690.0</ele><time>2026-04-04T13:27:20Z</time></trkpt><trkpt lat="42.914765042878564" lon="13.124479814711128"><ele>683.0</ele><time>2026-04-04T13:27:21Z</time></trkpt><trkpt lat="42.91491590421379" lon="13.124302982426942"><ele>676.0</ele><time>2026-04-04T13:27:22Z</time></trkpt><trkpt lat="42.91507089471516" lon="13.12411592347551"><ele>675.6666666666667</ele><time>2026-04-04T13:27:23Z</time></trkpt><trkpt lat="42.91522947585818" lon="13.123920660761446"><ele>675.3333333333334</ele><time>2026-04-04T13:27:24Z</time></trkpt><trkpt lat="42.91539539669676" lon="13.12372171455877"><ele>675.0</ele><time>2026-04-04T13:27:25Z</time></trkpt><trkpt lat="42.9155637886407" lon="13.123519921912894"><ele>675.0</ele><time>2026-04-04T13:27:26Z</time></trkpt><trkpt lat="42.91573245236109" lon="13.123313991204617"><ele>675.0</ele><time>2026-04-04T13:27:27Z</time></trkpt><trkpt lat="42.91589980332475" lon="13.123109060265932"><ele>673.3333333333334</ele><time>2026-04-04T13:27:28Z</time></trkpt><trkpt lat="42.91606046933399" lon="13.12292583539926"><ele>671.6666666666667</ele><time>2026-04-04T13:27:29Z</time></trkpt><trkpt lat="42.91621580008187" lon="13.1227524673016"><ele>670.0</ele><time>2026-04-04T13:27:30Z</time></trkpt><trkpt lat="42.91638321824337" lon="13.122606906686126"><ele>670.0</ele><time>2026-04-04T13:27:31Z</time></trkpt><trkpt lat="42.91656965370231" lon="13.12250641178314"><ele>670.0</ele><time>2026-04-04T13:27:32Z</time></trkpt><trkpt lat="42.916772123183044" lon="13.122448723068764"><ele>670.0</ele><time>2026-04-04T13:27:33Z</time></trkpt><trkpt lat="42.91697913514222" lon="13.122433157032125"><ele>670.3333333333334</ele><time>2026-04-04T13:27:34Z</time></trkpt><trkpt lat="42.91718428356821" lon="13.122374211714844"><ele>670.6666666666666</ele><time>2026-04-04T13:27:35Z</time></trkpt><trkpt lat="42.9173872604376" lon="13.122338184796483"><ele>671.0</ele><time>2026-04-04T13:27:36Z</time></trkpt><trkpt lat="42.91757411733681" lon="13.12229912623132"><ele>671.0</ele><time>2026-04-04T13:27:37Z</time></trkpt><trkpt lat="42.917744667445845" lon="13.12221360676454"><ele>671.0</ele><time>2026-04-04T13:27:38Z</time></trkpt><trkpt lat="42.91789438469542" lon="13.122033714642782"><ele>671.0</ele><time>2026-04-04T13:27:39Z</time></trkpt><trkpt lat="42.91803168218189" lon="13.121848013314237"><ele>671.0</ele><time>2026-04-04T13:27:40Z</time></trkpt><trkpt lat="42.91815848373825" lon="13.121642563256112"><ele>671.0</ele><time>2026-04-04T13:27:41Z</time></trkpt><trkpt lat="42.91827551913967" lon="13.121423348124027"><ele>671.0</ele><time>2026-04-04T13:27:42Z</time></trkpt><trkpt lat="42.91838956511532" lon="13.121202871825384"><ele>673.0</ele><time>2026-04-04T13:27:43Z</time></trkpt><trkpt lat="42.91849326042448" lon="13.120959049076125"><ele>675.0</ele><time>2026-04-04T13:27:44Z</time></trkpt><trkpt lat="42.91857864412378" lon="13.120707288993206"><ele>677.0</ele><time>2026-04-04T13:27:45Z</time></trkpt><trkpt lat="42.91865235397342" lon="13.120447191806475"><ele>677.0</ele><time>2026-04-04T13:27:46Z</time></trkpt><trkpt lat="42.91872585610053" lon="13.120186958522773"><ele>677.0</ele><time>2026-04-04T13:27:47Z</time></trkpt><trkpt lat="42.91880163470032" lon="13.11993031055049"><ele>677.0</ele><time>2026-04-04T13:27:48Z</time></trkpt><trkpt lat="42.91887460712988" lon="13.119685042659688"><ele>674.0</ele><time>2026-04-04T13:27:49Z</time></trkpt><trkpt lat="42.91894465386532" lon="13.11945056372696"><ele>671.0</ele><time>2026-04-04T13:27:50Z</time></trkpt><trkpt lat="42.919028080218936" lon="13.119233220563569"><ele>668.0</ele><time>2026-04-04T13:27:51Z</time></trkpt><trkpt lat="42.9191428261401" lon="13.119039289945809"><ele>675.0</ele><time>2026-04-04T13:27:52Z</time></trkpt><trkpt lat="42.91923533961728" lon="13.118825644001605"><ele>682.0</ele><time>2026-04-04T13:27:53Z</time></trkpt><trkpt lat="42.919338439782756" lon="13.118628000730325"><ele>689.0</ele><time>2026-04-04T13:27:54Z</time></trkpt><trkpt lat="42.919431247454185" lon="13.118430556729816"><ele>689.0</ele><time>2026-04-04T13:27:55Z</time></trkpt><trkpt lat="42.919511954982326" lon="13.118239299807898"><ele>689.0</ele><time>2026-04-04T13:27:56Z</time></trkpt><trkpt lat="42.919572892574806" lon="13.118047774269634"><ele>689.0</ele><time>2026-04-04T13:27:57Z</time></trkpt><trkpt lat="42.9196251830216" lon="13.1178538075787"><ele>683.6666666666666</ele><time>2026-04-04T13:27:58Z</time></trkpt><trkpt lat="42.91967327113108" lon="13.117653564947645"><ele>678.3333333333334</ele><time>2026-04-04T13:27:59Z</time></trkpt><trkpt lat="42.91972135259206" lon="13.117451022270524"><ele>673.0</ele><time>2026-04-04T13:28:00Z</time></trkpt><trkpt lat="42.91976422011427" lon="13.117253802423068"><ele>672.25</ele><time>2026-04-04T13:28:01Z</time></trkpt><trkpt lat="42.91979240272088" lon="13.117065789966185"><ele>671.5</ele><time>2026-04-04T13:28:02Z</time></trkpt><trkpt lat="42.91981401653917" lon="13.116882790912227"><ele>670.75</ele><time>2026-04-04T13:28:03Z</time></trkpt><trkpt lat="42.91981473242637" lon="13.116692433478635"><ele>670.0</ele><time>2026-04-04T13:28:04Z</time></trkpt><trkpt lat="42.91979421314312" lon="13.11651158401215"><ele>669.25</ele><time>2026-04-04T13:28:05Z</time></trkpt><trkpt lat="42.91979698510016" lon="13.116328354571223"><ele>668.5</ele><time>2026-04-04T13:28:06Z</time></trkpt><trkpt lat="42.91979953837528" lon="13.116136890148217"><ele>667.75</ele><time>2026-04-04T13:28:07Z</time></trkpt><trkpt lat="42.91983105822091" lon="13.115945909868987"><ele>667.0</ele><time>2026-04-04T13:28:08Z</time></trkpt><trkpt lat="42.919865488434915" lon="13.115759940850115"><ele>665.0</ele><time>2026-04-04T13:28:09Z</time></trkpt><trkpt lat="42.91992739023601" lon="13.115589991702645"><ele>663.0</ele><time>2026-04-04T13:28:10Z</time></trkpt><trkpt lat="42.91998614139102" lon="13.115429348781563"><ele>661.0</ele><time>2026-04-04T13:28:11Z</time></trkpt><trkpt lat="42.92005613716016" lon="13.11527416854164"><ele>659.0</ele><time>2026-04-04T13:28:12Z</time></trkpt><trkpt lat="42.92012759159734" lon="13.115117891483957"><ele>664.75</ele><time>2026-04-04T13:28:13Z</time></trkpt><trkpt lat="42.92019656408609" lon="13.114959720262991"><ele>670.5</ele><time>2026-04-04T13:28:14Z</time></trkpt><trkpt lat="42.920250359532425" lon="13.114775006997226"><ele>676.25</ele><time>2026-04-04T13:28:15Z</time></trkpt><trkpt lat="42.92028924612837" lon="13.114572925700127"><ele>682.0</ele><time>2026-04-04T13:28:16Z</time></trkpt><trkpt lat="42.92031932205802" lon="13.114352238159778"><ele>682.0</ele><time>2026-04-04T13:28:17Z</time></trkpt><trkpt lat="42.92034506735958" lon="13.114095249685416"><ele>682.0</ele><time>2026-04-04T13:28:18Z</time></trkpt><trkpt lat="42.92037243849684" lon="13.113812361113265"><ele>682.0</ele><time>2026-04-04T13:28:19Z</time></trkpt><trkpt lat="42.920401181033554" lon="13.113529364408919"><ele>682.0</ele><time>2026-04-04T13:28:20Z</time></trkpt><trkpt lat="42.92043043492316" lon="13.113245297312432"><ele>682.0</ele><time>2026-04-04T13:28:21Z</time></trkpt><trkpt lat="42.92045840431287" lon="13.112951345232423"><ele>682.0</ele><time>2026-04-04T13:28:22Z</time></trkpt><trkpt lat="42.920453832631836" lon="13.112652208817678"><ele>681.3333333333334</ele><time>2026-04-04T13:28:23Z</time></trkpt><trkpt lat="42.920442218474314" lon="13.112358152274425"><ele>680.6666666666666</ele><time>2026-04-04T13:28:24Z</time></trkpt><trkpt lat="42.920444911156224" lon="13.11206218977064"><ele>680.0</ele><time>2026-04-04T13:28:25Z</time></trkpt><trkpt lat="42.92043555799365" lon="13.111776167109884"><ele>677.6666666666666</ele><time>2026-04-04T13:28:26Z</time></trkpt><trkpt lat="42.92045337690112" lon="13.111498797291175"><ele>675.3333333333334</ele><time>2026-04-04T13:28:27Z</time></trkpt><trkpt lat="42.920519286422405" lon="13.111237750127044"><ele>673.0</ele><time>2026-04-04T13:28:28Z</time></trkpt><trkpt lat="42.9205784122884" lon="13.110970534342687"><ele>667.3333333333334</ele><time>2026-04-04T13:28:29Z</time></trkpt><trkpt lat="42.92064666949743" lon="13.110698972902462"><ele>661.6666666666666</ele><time>2026-04-04T13:28:30Z</time></trkpt><trkpt lat="42.92070143621404" lon="13.110415876049036"><ele>656.0</ele><time>2026-04-04T13:28:31Z</time></trkpt><trkpt lat="42.92077165023635" lon="13.110144348867312"><ele>654.3333333333333</ele><time>2026-04-04T13:28:32Z</time></trkpt><trkpt lat="42.92083123041539" lon="13.109877777081104"><ele>652.6666666666666</ele><time>2026-04-04T13:28:33Z</time></trkpt><trkpt lat="42.92092156130158" lon="13.10965191289424"><ele>651.0</ele><time>2026-04-04T13:28:34Z</time></trkpt><trkpt lat="42.92102328280574" lon="13.109427088214382"><ele>651.6666666666666</ele><time>2026-04-04T13:28:35Z</time></trkpt><trkpt lat="42.9211489737423" lon="13.109214994279686"><ele>652.3333333333333</ele><time>2026-04-04T13:28:36Z</time></trkpt><trkpt lat="42.921289147919715" lon="13.10899708076112"><ele>653.0</ele><time>2026-04-04T13:28:37Z</time></trkpt><trkpt lat="42.92143097505995" lon="13.108784659025588"><ele>653.0</ele><time>2026-04-04T13:28:38Z</time></trkpt><trkpt lat="42.92157416980116" lon="13.108562309568644"><ele>653.0</ele><time>2026-04-04T13:28:39Z</time></trkpt><trkpt lat="42.92171413036192" lon="13.108352371315737"><ele>653.0</ele><time>2026-04-04T13:28:40Z</time></trkpt><trkpt lat="42.92183960964649" lon="13.10809916086944"><ele>652.0</ele><time>2026-04-04T13:28:41Z</time></trkpt><trkpt lat="42.921939012665234" lon="13.107828928823748"><ele>651.0</ele><time>2026-04-04T13:28:42Z</time></trkpt><trkpt lat="42.92205566281937" lon="13.107569764308412"><ele>650.0</ele><time>2026-04-04T13:28:43Z</time></trkpt><trkpt lat="42.922159002542884" lon="13.107306069548986"><ele>650.0</ele><time>2026-04-04T13:28:44Z</time></trkpt><trkpt lat="42.92227223827309" lon="13.10704545118107"><ele>650.0</ele><time>2026-04-04T13:28:45Z</time></trkpt><trkpt lat="42.92238918303029" lon="13.106787250470953"><ele>650.0</ele><time>2026-04-04T13:28:46Z</time></trkpt><trkpt lat="42.92251608297183" lon="13.106542864425778"><ele>652.6666666666666</ele><time>2026-04-04T13:28:47Z</time></trkpt><trkpt lat="42.92265040881909" lon="13.106299462642692"><ele>655.3333333333334</ele><time>2026-04-04T13:28:48Z</time></trkpt><trkpt lat="42.922783070242815" lon="13.10605669598552"><ele>658.0</ele><time>2026-04-04T13:28:49Z</time></trkpt><trkpt lat="42.922903395767555" lon="13.105843357760824"><ele>652.6666666666667</ele><time>2026-04-04T13:28:50Z</time></trkpt><trkpt lat="42.923016866301346" lon="13.10565651194908"><ele>647.3333333333334</ele><time>2026-04-04T13:28:51Z</time></trkpt><trkpt lat="42.92314372188649" lon="13.10551150148624"><ele>642.0</ele><time>2026-04-04T13:28:52Z</time></trkpt><trkpt lat="42.92330142522003" lon="13.10537035002255"><ele>644.0</ele><time>2026-04-04T13:28:53Z</time></trkpt><trkpt lat="42.923469664508374" lon="13.105223338279698"><ele>646.0</ele><time>2026-04-04T13:28:54Z</time></trkpt><trkpt lat="42.923640347056" lon="13.105065653157506"><ele>648.0</ele><time>2026-04-04T13:28:55Z</time></trkpt><trkpt lat="42.9237933556835" lon="13.104878111760097"><ele>648.0</ele><time>2026-04-04T13:28:56Z</time></trkpt><trkpt lat="42.92392169643811" lon="13.104705391179087"><ele>648.0</ele><time>2026-04-04T13:28:57Z</time></trkpt><trkpt lat="42.9240369377505" lon="13.104419079402911"><ele>648.0</ele><time>2026-04-04T13:28:58Z</time></trkpt><trkpt lat="42.92412055962" lon="13.104152760688118"><ele>652.6666666666666</ele><time>2026-04-04T13:28:59Z</time></trkpt><trkpt lat="42.92424263082293" lon="13.10393552915187"><ele>657.3333333333333</ele><time>2026-04-04T13:29:00Z</time></trkpt><trkpt lat="42.92437921247615" lon="13.103713767551236"><ele>662.0</ele><time>2026-04-04T13:29:01Z</time></trkpt><trkpt lat="42.92451590911792" lon="13.10349761833378"><ele>662.0</ele><time>2026-04-04T13:29:02Z</time></trkpt><trkpt lat="42.92465646189276" lon="13.103277123263492"><ele>662.0</ele><time>2026-04-04T13:29:03Z</time></trkpt><trkpt lat="42.92479699633592" lon="13.103058509617831"><ele>662.0</ele><time>2026-04-04T13:29:04Z</time></trkpt><trkpt lat="42.92493852709096" lon="13.10283704580839"><ele>658.6666666666666</ele><time>2026-04-04T13:29:05Z</time></trkpt><trkpt lat="42.9250675897296" lon="13.10260215420846"><ele>655.3333333333334</ele><time>2026-04-04T13:29:06Z</time></trkpt><trkpt lat="42.925208534778996" lon="13.102376010679452"><ele>652.0</ele><time>2026-04-04T13:29:07Z</time></trkpt><trkpt lat="42.925345273618774" lon="13.102147449927953"><ele>652.0</ele><time>2026-04-04T13:29:08Z</time></trkpt><trkpt lat="42.92548745704389" lon="13.101931007017203"><ele>652.0</ele><time>2026-04-04T13:29:09Z</time></trkpt><trkpt lat="42.925611560232696" lon="13.10170197548341"><ele>652.0</ele><time>2026-04-04T13:29:10Z</time></trkpt><trkpt lat="42.925729645238974" lon="13.101473224268398"><ele>648.6666666666667</ele><time>2026-04-04T13:29:11Z</time></trkpt><trkpt lat="42.92582004756201" lon="13.101225070835019"><ele>645.3333333333334</ele><time>2026-04-04T13:29:12Z</time></trkpt><trkpt lat="42.92590144796561" lon="13.100973128644666"><ele>642.0</ele><time>2026-04-04T13:29:13Z</time></trkpt><trkpt lat="42.92596177441495" lon="13.100716360900241"><ele>654.0</ele><time>2026-04-04T13:29:14Z</time></trkpt><trkpt lat="42.92600610689017" lon="13.100464009976957"><ele>666.0</ele><time>2026-04-04T13:29:15Z</time></trkpt><trkpt lat="42.92600840744329" lon="13.100193232044882"><ele>678.0</ele><time>2026-04-04T13:29:16Z</time></trkpt><trkpt lat="42.92597771886701" lon="13.099929568558698"><ele>676.3333333333334</ele><time>2026-04-04T13:29:17Z</time></trkpt><trkpt lat="42.92592510773063" lon="13.099678784003567"><ele>674.6666666666667</ele><time>2026-04-04T13:29:18Z</time></trkpt><trkpt lat="42.92588760750627" lon="13.09944665248586"><ele>673.0</ele><time>2026-04-04T13:29:19Z</time></trkpt><trkpt lat="42.92591636697911" lon="13.0992371224016"><ele>668.6666666666667</ele><time>2026-04-04T13:29:20Z</time></trkpt><trkpt lat="42.92597996960048" lon="13.099063482500304"><ele>664.3333333333334</ele><time>2026-04-04T13:29:21Z</time></trkpt><trkpt lat="42.92607518334855" lon="13.098857983311257"><ele>660.0</ele><time>2026-04-04T13:29:22Z</time></trkpt><trkpt lat="42.926176862005974" lon="13.098622376647215"><ele>660.0</ele><time>2026-04-04T13:29:23Z</time></trkpt><trkpt lat="42.92627731162652" lon="13.098367946426315"><ele>660.0</ele><time>2026-04-04T13:29:24Z</time></trkpt><trkpt lat="42.92635592571308" lon="13.098091304034075"><ele>660.0</ele><time>2026-04-04T13:29:25Z</time></trkpt><trkpt lat="42.92642518616123" lon="13.0978068009575"><ele>657.6666666666666</ele><time>2026-04-04T13:29:26Z</time></trkpt><trkpt lat="42.92649537579888" lon="13.097531880470173"><ele>655.3333333333333</ele><time>2026-04-04T13:29:27Z</time></trkpt><trkpt lat="42.92655867517988" lon="13.097275325672616"><ele>653.0</ele><time>2026-04-04T13:29:28Z</time></trkpt><trkpt lat="42.9266146990533" lon="13.097044748326292"><ele>652.3333333333333</ele><time>2026-04-04T13:29:29Z</time></trkpt><trkpt lat="42.92665505661741" lon="13.096817888414787"><ele>651.6666666666666</ele><time>2026-04-04T13:29:30Z</time></trkpt><trkpt lat="42.9266585359787" lon="13.096571193684353"><ele>651.0</ele><time>2026-04-04T13:29:31Z</time></trkpt><trkpt lat="42.92661920491109" lon="13.096322183319085"><ele>649.3333333333334</ele><time>2026-04-04T13:29:32Z</time></trkpt><trkpt lat="42.92658700910383" lon="13.096064043363715"><ele>647.6666666666667</ele><time>2026-04-04T13:29:33Z</time></trkpt><trkpt lat="42.926558879808816" lon="13.095855804587467"><ele>646.0</ele><time>2026-04-04T13:29:34Z</time></trkpt><trkpt lat="42.92654215049102" lon="13.095670825951897"><ele>643.3333333333334</ele><time>2026-04-04T13:29:35Z</time></trkpt><trkpt lat="42.926576793581596" lon="13.095480144787329"><ele>640.6666666666666</ele><time>2026-04-04T13:29:36Z</time></trkpt><trkpt lat="42.92664456741662" lon="13.095273248855573"><ele>638.0</ele><time>2026-04-04T13:29:37Z</time></trkpt><trkpt lat="42.92673943819157" lon="13.09506110190688"><ele>640.6666666666666</ele><time>2026-04-04T13:29:38Z</time></trkpt><trkpt lat="42.926825655537385" lon="13.094838819675687"><ele>643.3333333333334</ele><time>2026-04-04T13:29:39Z</time></trkpt><trkpt lat="42.926921082234315" lon="13.094623387233181"><ele>646.0</ele><time>2026-04-04T13:29:40Z</time></trkpt><trkpt lat="42.927032589841026" lon="13.094424962452797"><ele>646.0</ele><time>2026-04-04T13:29:41Z</time></trkpt><trkpt lat="42.927143247881595" lon="13.094243289586561"><ele>646.0</ele><time>2026-04-04T13:29:42Z</time></trkpt><trkpt lat="42.927236878540114" lon="13.094080274928377"><ele>646.0</ele><time>2026-04-04T13:29:43Z</time></trkpt><trkpt lat="42.927308527430746" lon="13.093914387060991"><ele>642.5</ele><time>2026-04-04T13:29:44Z</time></trkpt><trkpt lat="42.92734219791086" lon="13.093729800572024"><ele>639.0</ele><time>2026-04-04T13:29:45Z</time></trkpt><trkpt lat="42.92733886458795" lon="13.093535167486992"><ele>635.5</ele><time>2026-04-04T13:29:46Z</time></trkpt><trkpt lat="42.92730903519395" lon="13.093320561577332"><ele>632.0</ele><time>2026-04-04T13:29:47Z</time></trkpt><trkpt lat="42.927293073329245" lon="13.093113714700657"><ele>631.25</ele><time>2026-04-04T13:29:48Z</time></trkpt><trkpt lat="42.92729435576323" lon="13.092924492064737"><ele>630.5</ele><time>2026-04-04T13:29:49Z</time></trkpt><trkpt lat="42.92729812788875" lon="13.092746500890337"><ele>629.75</ele><time>2026-04-04T13:29:50Z</time></trkpt><trkpt lat="42.92733729278247" lon="13.092565366760818"><ele>629.0</ele><time>2026-04-04T13:29:51Z</time></trkpt><trkpt lat="42.927397215012434" lon="13.092377736225226"><ele>625.6666666666666</ele><time>2026-04-04T13:29:52Z</time></trkpt><trkpt lat="42.92748177568987" lon="13.092198408754399"><ele>622.3333333333334</ele><time>2026-04-04T13:29:53Z</time></trkpt><trkpt lat="42.92759584072562" lon="13.092037105234361"><ele>619.0</ele><time>2026-04-04T13:29:54Z</time></trkpt><trkpt lat="42.92773504874055" lon="13.09189758954284"><ele>619.0</ele><time>2026-04-04T13:29:55Z</time></trkpt><trkpt lat="42.92787952523217" lon="13.09178621830152"><ele>619.0</ele><time>2026-04-04T13:29:56Z</time></trkpt><trkpt lat="42.927999657806815" lon="13.091689978855518"><ele>619.0</ele><time>2026-04-04T13:29:57Z</time></trkpt><trkpt lat="42.92811333851311" lon="13.091612187354187"><ele>619.0</ele><time>2026-04-04T13:29:58Z</time></trkpt><trkpt lat="42.92822473638418" lon="13.09153554104523"><ele>619.0</ele><time>2026-04-04T13:29:59Z</time></trkpt><trkpt lat="42.928306756120236" lon="13.091442293008258"><ele>619.0</ele><time>2026-04-04T13:30:00Z</time></trkpt><trkpt lat="42.92834326112356" lon="13.09130451396985"><ele>619.0</ele><time>2026-04-04T13:30:01Z</time></trkpt><trkpt lat="42.92836664755842" lon="13.091117297276766"><ele>619.0</ele><time>2026-04-04T13:30:02Z</time></trkpt><trkpt lat="42.928405697403726" lon="13.090926836795743"><ele>619.0</ele><time>2026-04-04T13:30:03Z</time></trkpt><trkpt lat="42.928484752534864" lon="13.09077059822721"><ele>619.0</ele><time>2026-04-04T13:30:04Z</time></trkpt><trkpt lat="42.92857598308053" lon="13.090645355293079"><ele>619.0</ele><time>2026-04-04T13:30:05Z</time></trkpt><trkpt lat="42.9286721554105" lon="13.090541621338533"><ele>619.0</ele><time>2026-04-04T13:30:06Z</time></trkpt><trkpt lat="42.92876375066339" lon="13.090456134161565"><ele>618.5</ele><time>2026-04-04T13:30:07Z</time></trkpt><trkpt lat="42.92884016200115" lon="13.090352061110817"><ele>618.0</ele><time>2026-04-04T13:30:08Z</time></trkpt><trkpt lat="42.928893852272104" lon="13.090243864623291"><ele>617.5</ele><time>2026-04-04T13:30:09Z</time></trkpt><trkpt lat="42.92892823764736" lon="13.090079321968101"><ele>617.0</ele><time>2026-04-04T13:30:10Z</time></trkpt><trkpt lat="42.92895649109498" lon="13.089918250459549"><ele>618.75</ele><time>2026-04-04T13:30:11Z</time></trkpt><trkpt lat="42.928985029028425" lon="13.089747069295804"><ele>620.5</ele><time>2026-04-04T13:30:12Z</time></trkpt><trkpt lat="42.92903088810458" lon="13.08958764271233"><ele>622.25</ele><time>2026-04-04T13:30:13Z</time></trkpt><trkpt lat="42.929067414655954" lon="13.089433006073804"><ele>624.0</ele><time>2026-04-04T13:30:14Z</time></trkpt><trkpt lat="42.92908552996079" lon="13.089279530099999"><ele>624.0</ele><time>2026-04-04T13:30:15Z</time></trkpt><trkpt lat="42.92919972376967" lon="13.089135563524662"><ele>624.0</ele><time>2026-04-04T13:30:16Z</time></trkpt><trkpt lat="42.929225014485716" lon="13.088972899829482"><ele>624.0</ele><time>2026-04-04T13:30:17Z</time></trkpt><trkpt lat="42.92926964806637" lon="13.08882391042388"><ele>624.0</ele><time>2026-04-04T13:30:18Z</time></trkpt><trkpt lat="42.92930702676877" lon="13.08865331927928"><ele>622.0</ele><time>2026-04-04T13:30:19Z</time></trkpt><trkpt lat="42.929324903867034" lon="13.088491797335546"><ele>620.0</ele><time>2026-04-04T13:30:20Z</time></trkpt><trkpt lat="42.92932934079342" lon="13.088335915632697"><ele>618.0</ele><time>2026-04-04T13:30:21Z</time></trkpt><trkpt lat="42.92933931424018" lon="13.088195312440012"><ele>616.0</ele><time>2026-04-04T13:30:22Z</time></trkpt><trkpt lat="42.92934535021651" lon="13.088064119378286"><ele>614.0</ele><time>2026-04-04T13:30:23Z</time></trkpt><trkpt lat="42.92936107994254" lon="13.087934229748036"><ele>614.0</ele><time>2026-04-04T13:30:24Z</time></trkpt><trkpt lat="42.92938072804884" lon="13.087813643572293"><ele>614.0</ele><time>2026-04-04T13:30:25Z</time></trkpt><trkpt lat="42.92941007883183" lon="13.087694344199345"><ele>614.0</ele><time>2026-04-04T13:30:26Z</time></trkpt><trkpt lat="42.92943534177528" lon="13.087565629215893"><ele>614.0</ele><time>2026-04-04T13:30:27Z</time></trkpt><trkpt lat="42.9294735873918" lon="13.087438935586936"><ele>614.0</ele><time>2026-04-04T13:30:28Z</time></trkpt><trkpt lat="42.92950113876466" lon="13.087313081976019"><ele>614.25</ele><time>2026-04-04T13:30:29Z</time></trkpt><trkpt lat="42.92953689555825" lon="13.087180762006083"><ele>614.5</ele><time>2026-04-04T13:30:30Z</time></trkpt><trkpt lat="42.929580520299105" lon="13.087040144395962"><ele>614.75</ele><time>2026-04-04T13:30:31Z</time></trkpt><trkpt lat="42.92964281460641" lon="13.086899547058021"><ele>615.0</ele><time>2026-04-04T13:30:32Z</time></trkpt><trkpt lat="42.92972243842244" lon="13.08678266221526"><ele>615.0</ele><time>2026-04-04T13:30:33Z</time></trkpt><trkpt lat="42.92982959686832" lon="13.086707111332212"><ele>615.0</ele><time>2026-04-04T13:30:34Z</time></trkpt><trkpt lat="42.9299291520711" lon="13.086603415258796"><ele>615.0</ele><time>2026-04-04T13:30:35Z</time></trkpt><trkpt lat="42.93003191874323" lon="13.086515854355678"><ele>615.0</ele><time>2026-04-04T13:30:36Z</time></trkpt><trkpt lat="42.930125510418925" lon="13.086436528755577"><ele>614.8</ele><time>2026-04-04T13:30:37Z</time></trkpt><trkpt lat="42.930221516294644" lon="13.086358222719964"><ele>614.6</ele><time>2026-04-04T13:30:38Z</time></trkpt><trkpt lat="42.93031774171808" lon="13.086277599695665"><ele>614.4</ele><time>2026-04-04T13:30:39Z</time></trkpt><trkpt lat="42.93040192392874" lon="13.086196121791836"><ele>614.2</ele><time>2026-04-04T13:30:40Z</time></trkpt><trkpt lat="42.93048682901102" lon="13.086123901419878"><ele>614.0</ele><time>2026-04-04T13:30:41Z</time></trkpt><trkpt lat="42.930561187045626" lon="13.08605545494603"><ele>614.0</ele><time>2026-04-04T13:30:42Z</time></trkpt><trkpt lat="42.930635869570416" lon="13.085991859928518"><ele>614.0</ele><time>2026-04-04T13:30:43Z</time></trkpt><trkpt lat="42.93070630100575" lon="13.08593414506316"><ele>614.0</ele><time>2026-04-04T13:30:44Z</time></trkpt><trkpt lat="42.93077189681457" lon="13.085878054329148"><ele>614.0</ele><time>2026-04-04T13:30:45Z</time></trkpt><trkpt lat="42.930835424194925" lon="13.085826232749714"><ele>614.0</ele><time>2026-04-04T13:30:46Z</time></trkpt><trkpt lat="42.93090707262526" lon="13.085794819521617"><ele>614.0</ele><time>2026-04-04T13:30:47Z</time></trkpt><trkpt lat="42.93097009134201" lon="13.085783467443013"><ele>613.3333333333333</ele><time>2026-04-04T13:30:48Z</time></trkpt><trkpt lat="42.9310583803807" lon="13.08579543545344"><ele>612.6666666666666</ele><time>2026-04-04T13:30:50Z</time></trkpt><trkpt lat="42.93113021753352" lon="13.085814727877747"><ele>612.0</ele><time>2026-04-04T13:30:52Z</time></trkpt><trkpt lat="42.93117753160836" lon="13.085876481044684"><ele>611.3333333333334</ele><time>2026-04-04T13:30:54Z</time></trkpt><trkpt lat="42.931163902525206" lon="13.086003564109369"><ele>610.6666666666667</ele><time>2026-04-04T13:30:56Z</time></trkpt><trkpt lat="42.93112203249274" lon="13.086136762805774"><ele>610.0</ele><time>2026-04-04T13:30:58Z</time></trkpt><trkpt lat="42.93112426522042" lon="13.086224835333358"><ele>610.0</ele><time>2026-04-04T13:30:59Z</time></trkpt><trkpt lat="42.931110723653916" lon="13.08634510034535"><ele>610.0</ele><time>2026-04-04T13:31:01Z</time></trkpt><trkpt lat="42.9311257795086" lon="13.08644567277887"><ele>610.0</ele><time>2026-04-04T13:31:03Z</time></trkpt><trkpt lat="42.93115262000771" lon="13.086526924314775"><ele>610.0</ele><time>2026-04-04T13:31:06Z</time></trkpt><trkpt lat="42.93127586110727" lon="13.086461821674966"><ele>610.0</ele><time>2026-04-04T13:31:07Z</time></trkpt><trkpt lat="42.93134832111945" lon="13.086366320870205"><ele>610.0</ele><time>2026-04-04T13:31:09Z</time></trkpt><trkpt lat="42.931394726962196" lon="13.086253967762902"><ele>610.0</ele><time>2026-04-04T13:31:11Z</time></trkpt><trkpt lat="42.93147183512239" lon="13.086115961251458"><ele>610.0</ele><time>2026-04-04T13:31:13Z</time></trkpt><trkpt lat="42.9315150659646" lon="13.086039718307266"><ele>610.0</ele><time>2026-04-04T13:31:14Z</time></trkpt><trkpt lat="42.931547633651256" lon="13.08596220476337"><ele>610.0</ele><time>2026-04-04T13:31:15Z</time></trkpt><trkpt lat="42.93158759053826" lon="13.085888198569576"><ele>610.0</ele><time>2026-04-04T13:31:16Z</time></trkpt><trkpt lat="42.931622436125714" lon="13.085811615968039"><ele>609.8333333333334</ele><time>2026-04-04T13:31:17Z</time></trkpt><trkpt lat="42.9316731989812" lon="13.08571875961078"><ele>609.6666666666667</ele><time>2026-04-04T13:31:18Z</time></trkpt><trkpt lat="42.93172552352464" lon="13.085626673155812"><ele>609.5</ele><time>2026-04-04T13:31:19Z</time></trkpt><trkpt lat="42.931762646537635" lon="13.085521120457116"><ele>609.3333333333334</ele><time>2026-04-04T13:31:20Z</time></trkpt><trkpt lat="42.93181131844811" lon="13.085441986516697"><ele>609.1666666666666</ele><time>2026-04-04T13:31:21Z</time></trkpt><trkpt lat="42.93185765720281" lon="13.085362271232073"><ele>609.0</ele><time>2026-04-04T13:31:22Z</time></trkpt><trkpt lat="42.93190164111865" lon="13.085291937250435"><ele>609.0</ele><time>2026-04-04T13:31:23Z</time></trkpt><trkpt lat="42.93194432848225" lon="13.085213665231896"><ele>609.0</ele><time>2026-04-04T13:31:24Z</time></trkpt><trkpt lat="42.931994106195795" lon="13.085143417328908"><ele>609.0</ele><time>2026-04-04T13:31:25Z</time></trkpt><trkpt lat="42.93203310015447" lon="13.085055486917193"><ele>609.0</ele><time>2026-04-04T13:31:26Z</time></trkpt><trkpt lat="42.932080850448294" lon="13.084977097211008"><ele>609.0</ele><time>2026-04-04T13:31:27Z</time></trkpt><trkpt lat="42.93214869239836" lon="13.084869444702184"><ele>609.0</ele><time>2026-04-04T13:31:29Z</time></trkpt><trkpt lat="42.93218726998256" lon="13.084792286842019"><ele>608.8333333333334</ele><time>2026-04-04T13:31:31Z</time></trkpt><trkpt lat="42.932236704543286" lon="13.084709826419964"><ele>608.6666666666666</ele><time>2026-04-04T13:31:33Z</time></trkpt><trkpt lat="42.93229735287447" lon="13.084594806588706"><ele>608.5</ele><time>2026-04-04T13:31:35Z</time></trkpt><trkpt lat="42.932347923871994" lon="13.084527782605731"><ele>608.3333333333333</ele><time>2026-04-04T13:31:36Z</time></trkpt><trkpt lat="42.9323978561759" lon="13.084441729041528"><ele>608.1666666666666</ele><time>2026-04-04T13:31:37Z</time></trkpt><trkpt lat="42.93245236928876" lon="13.084345410974688"><ele>608.0</ele><time>2026-04-04T13:31:38Z</time></trkpt><trkpt lat="42.93250858480855" lon="13.084246750150372"><ele>609.0</ele><time>2026-04-04T13:31:39Z</time></trkpt><trkpt lat="42.93256228061416" lon="13.084152809080685"><ele>610.0</ele><time>2026-04-04T13:31:40Z</time></trkpt><trkpt lat="42.93261367526329" lon="13.084063952131332"><ele>611.0</ele><time>2026-04-04T13:31:41Z</time></trkpt><trkpt lat="42.932666873029284" lon="13.083970579374544"><ele>612.0</ele><time>2026-04-04T13:31:42Z</time></trkpt><trkpt lat="42.93272228427083" lon="13.083871431196503"><ele>613.0</ele><time>2026-04-04T13:31:43Z</time></trkpt><trkpt lat="42.93277173256366" lon="13.083771200316116"><ele>614.0</ele><time>2026-04-04T13:31:44Z</time></trkpt><trkpt lat="42.93283007464713" lon="13.083664857935787"><ele>614.0</ele><time>2026-04-04T13:31:45Z</time></trkpt><trkpt lat="42.93290103398008" lon="13.083572094210327"><ele>614.0</ele><time>2026-04-04T13:31:46Z</time></trkpt><trkpt lat="42.932951848754605" lon="13.083446051567368"><ele>614.0</ele><time>2026-04-04T13:31:47Z</time></trkpt><trkpt lat="42.93301432094237" lon="13.083336552707879"><ele>614.0</ele><time>2026-04-04T13:31:48Z</time></trkpt><trkpt lat="42.93307546098236" lon="13.083228246174015"><ele>614.0</ele><time>2026-04-04T13:31:49Z</time></trkpt><trkpt lat="42.93313224302884" lon="13.083131203193753"><ele>613.3333333333333</ele><time>2026-04-04T13:31:50Z</time></trkpt><trkpt lat="42.93318588153298" lon="13.08304148449438"><ele>612.6666666666666</ele><time>2026-04-04T13:31:51Z</time></trkpt><trkpt lat="42.93323156789903" lon="13.082959086679972"><ele>612.0</ele><time>2026-04-04T13:31:52Z</time></trkpt><trkpt lat="42.93327708950634" lon="13.082882233812905"><ele>611.3333333333334</ele><time>2026-04-04T13:31:53Z</time></trkpt><trkpt lat="42.933332604655156" lon="13.082810804082728"><ele>610.6666666666667</ele><time>2026-04-04T13:31:54Z</time></trkpt><trkpt lat="42.93336859062837" lon="13.082712136396362"><ele>610.0</ele><time>2026-04-04T13:31:55Z</time></trkpt><trkpt lat="42.93343238230086" lon="13.082633833589579"><ele>610.1666666666667</ele><time>2026-04-04T13:31:56Z</time></trkpt><trkpt lat="42.93348082195325" lon="13.082548988126874"><ele>610.3333333333334</ele><time>2026-04-04T13:31:57Z</time></trkpt><trkpt lat="42.93352328223775" lon="13.082477825249637"><ele>610.5</ele><time>2026-04-04T13:31:58Z</time></trkpt><trkpt lat="42.9335652403124" lon="13.082413025376432"><ele>610.6666666666666</ele><time>2026-04-04T13:31:59Z</time></trkpt><trkpt lat="42.933618757210645" lon="13.08233746574048"><ele>610.8333333333333</ele><time>2026-04-04T13:32:00Z</time></trkpt><trkpt lat="42.93370040965053" lon="13.082246878132976"><ele>611.0</ele><time>2026-04-04T13:32:01Z</time></trkpt><trkpt lat="42.933796338334155" lon="13.082166886076774"><ele>611.0</ele><time>2026-04-04T13:32:02Z</time></trkpt><trkpt lat="42.93389721769191" lon="13.08210440956821"><ele>611.0</ele><time>2026-04-04T13:32:03Z</time></trkpt><trkpt lat="42.93400437688243" lon="13.082065287712108"><ele>611.0</ele><time>2026-04-04T13:32:04Z</time></trkpt><trkpt lat="42.934133055542574" lon="13.082034425452898"><ele>611.0</ele><time>2026-04-04T13:32:05Z</time></trkpt><trkpt lat="42.934264746161574" lon="13.082035020037658"><ele>611.0</ele><time>2026-04-04T13:32:06Z</time></trkpt><trkpt lat="42.93439923618735" lon="13.082017610463097"><ele>611.0</ele><time>2026-04-04T13:32:07Z</time></trkpt><trkpt lat="42.93453302426193" lon="13.082031815967188"><ele>611.0</ele><time>2026-04-04T13:32:08Z</time></trkpt><trkpt lat="42.93466273764818" lon="13.082044229008384"><ele>611.0</ele><time>2026-04-04T13:32:09Z</time></trkpt><trkpt lat="42.93479789343705" lon="13.08205178391554"><ele>611.0</ele><time>2026-04-04T13:32:10Z</time></trkpt><trkpt lat="42.934942100739775" lon="13.082059740744517"><ele>611.0</ele><time>2026-04-04T13:32:11Z</time></trkpt><trkpt lat="42.93507393354761" lon="13.082060979684018"><ele>611.0</ele><time>2026-04-04T13:32:12Z</time></trkpt><trkpt lat="42.935189105582346" lon="13.082066851341787"><ele>611.0</ele><time>2026-04-04T13:32:13Z</time></trkpt><trkpt lat="42.9352957789387" lon="13.082069079602872"><ele>611.6</ele><time>2026-04-04T13:32:14Z</time></trkpt><trkpt lat="42.93538957934455" lon="13.08206618395793"><ele>612.2</ele><time>2026-04-04T13:32:15Z</time></trkpt><trkpt lat="42.93548444527919" lon="13.082065235652422"><ele>612.8</ele><time>2026-04-04T13:32:16Z</time></trkpt><trkpt lat="42.93558472881075" lon="13.082066396993174"><ele>613.4</ele><time>2026-04-04T13:32:17Z</time></trkpt><trkpt lat="42.93568849887731" lon="13.082065209191615"><ele>614.0</ele><time>2026-04-04T13:32:18Z</time></trkpt><trkpt lat="42.93580108666703" lon="13.082065193839298"><ele>614.75</ele><time>2026-04-04T13:32:19Z</time></trkpt><trkpt lat="42.93591842833783" lon="13.082065731359002"><ele>615.5</ele><time>2026-04-04T13:32:20Z</time></trkpt><trkpt lat="42.93603813158864" lon="13.082066756915964"><ele>616.25</ele><time>2026-04-04T13:32:21Z</time></trkpt><trkpt lat="42.93615650600482" lon="13.082070439343417"><ele>617.0</ele><time>2026-04-04T13:32:22Z</time></trkpt><trkpt lat="42.93627394453042" lon="13.082072684068336"><ele>617.0</ele><time>2026-04-04T13:32:23Z</time></trkpt><trkpt lat="42.9363939983174" lon="13.082071312246454"><ele>617.0</ele><time>2026-04-04T13:32:24Z</time></trkpt><trkpt lat="42.93651382333497" lon="13.082071270937199"><ele>617.0</ele><time>2026-04-04T13:32:25Z</time></trkpt><trkpt lat="42.93663582352484" lon="13.082071629436514"><ele>617.0</ele><time>2026-04-04T13:32:26Z</time></trkpt><trkpt lat="42.93675251298238" lon="13.082073864553177"><ele>619.25</ele><time>2026-04-04T13:32:27Z</time></trkpt><trkpt lat="42.93687697278238" lon="13.08207205337891"><ele>621.5</ele><time>2026-04-04T13:32:28Z</time></trkpt><trkpt lat="42.93700477484064" lon="13.082075399600887"><ele>623.75</ele><time>2026-04-04T13:32:29Z</time></trkpt><trkpt lat="42.937137814074944" lon="13.082077003884088"><ele>626.0</ele><time>2026-04-04T13:32:30Z</time></trkpt><trkpt lat="42.937275780758505" lon="13.082085337392758"><ele>626.0</ele><time>2026-04-04T13:32:31Z</time></trkpt><trkpt lat="42.93742255123315" lon="13.082110174772401"><ele>626.0</ele><time>2026-04-04T13:32:32Z</time></trkpt><trkpt lat="42.93755756526514" lon="13.082138613105537"><ele>626.0</ele><time>2026-04-04T13:32:33Z</time></trkpt><trkpt lat="42.93769629507951" lon="13.082170183707714"><ele>626.0</ele><time>2026-04-04T13:32:34Z</time></trkpt><trkpt lat="42.93783466039229" lon="13.082202126987173"><ele>628.25</ele><time>2026-04-04T13:32:35Z</time></trkpt><trkpt lat="42.93797634328925" lon="13.082229372921368"><ele>630.5</ele><time>2026-04-04T13:32:36Z</time></trkpt><trkpt lat="42.93811661311734" lon="13.082259529376513"><ele>632.75</ele><time>2026-04-04T13:32:37Z</time></trkpt><trkpt lat="42.93825902953793" lon="13.082283171257963"><ele>635.0</ele><time>2026-04-04T13:32:38Z</time></trkpt><trkpt lat="42.93840677145291" lon="13.08231030853913"><ele>638.0</ele><time>2026-04-04T13:32:39Z</time></trkpt><trkpt lat="42.93855515753491" lon="13.082343063712866"><ele>641.0</ele><time>2026-04-04T13:32:40Z</time></trkpt><trkpt lat="42.93870698367218" lon="13.082382079210118"><ele>644.0</ele><time>2026-04-04T13:32:41Z</time></trkpt><trkpt lat="42.93886146282065" lon="13.082420852332865"><ele>640.3333333333333</ele><time>2026-04-04T13:32:42Z</time></trkpt><trkpt lat="42.939018137300636" lon="13.082469890104283"><ele>636.6666666666666</ele><time>2026-04-04T13:32:43Z</time></trkpt><trkpt lat="42.93917930647242" lon="13.08251471499699"><ele>633.0</ele><time>2026-04-04T13:32:44Z</time></trkpt><trkpt lat="42.939338018546486" lon="13.082579271513126"><ele>633.0</ele><time>2026-04-04T13:32:45Z</time></trkpt><trkpt lat="42.93949339664918" lon="13.082646542643223"><ele>633.0</ele><time>2026-04-04T13:32:46Z</time></trkpt><trkpt lat="42.939644966749846" lon="13.082719703384504"><ele>633.0</ele><time>2026-04-04T13:32:47Z</time></trkpt><trkpt lat="42.939802961073774" lon="13.082796951080862"><ele>633.0</ele><time>2026-04-04T13:32:48Z</time></trkpt><trkpt lat="42.939960952490935" lon="13.082870941198577"><ele>633.0</ele><time>2026-04-04T13:32:49Z</time></trkpt><trkpt lat="42.940122478157264" lon="13.082941344598384"><ele>633.0</ele><time>2026-04-04T13:32:50Z</time></trkpt><trkpt lat="42.94028763886775" lon="13.083006717303142"><ele>633.6666666666666</ele><time>2026-04-04T13:32:51Z</time></trkpt><trkpt lat="42.940453653194496" lon="13.083066001314586"><ele>634.3333333333333</ele><time>2026-04-04T13:32:52Z</time></trkpt><trkpt lat="42.940624032934586" lon="13.083118798714338"><ele>635.0</ele><time>2026-04-04T13:32:53Z</time></trkpt><trkpt lat="42.94079857202563" lon="13.083175369590872"><ele>635.0</ele><time>2026-04-04T13:32:54Z</time></trkpt><trkpt lat="42.94097555143737" lon="13.08323188581234"><ele>635.0</ele><time>2026-04-04T13:32:55Z</time></trkpt><trkpt lat="42.94115306626258" lon="13.08328319460768"><ele>635.0</ele><time>2026-04-04T13:32:56Z</time></trkpt><trkpt lat="42.94133307203722" lon="13.083329785280023"><ele>635.0</ele><time>2026-04-04T13:32:57Z</time></trkpt><trkpt lat="42.94151196135062" lon="13.083372230185246"><ele>635.0</ele><time>2026-04-04T13:32:58Z</time></trkpt><trkpt lat="42.94169512748633" lon="13.08340606224029"><ele>635.0</ele><time>2026-04-04T13:32:59Z</time></trkpt><trkpt lat="42.94187548394454" lon="13.08344270419158"><ele>635.6666666666666</ele><time>2026-04-04T13:33:00Z</time></trkpt><trkpt lat="42.94205736540748" lon="13.083475934671254"><ele>636.3333333333334</ele><time>2026-04-04T13:33:01Z</time></trkpt><trkpt lat="42.94223406227709" lon="13.0835016143734"><ele>637.0</ele><time>2026-04-04T13:33:02Z</time></trkpt><trkpt lat="42.94240589120058" lon="13.083518726742637"><ele>637.0</ele><time>2026-04-04T13:33:03Z</time></trkpt><trkpt lat="42.94257418787501" lon="13.083530560410754"><ele>637.0</ele><time>2026-04-04T13:33:04Z</time></trkpt><trkpt lat="42.942736775613945" lon="13.083535358086246"><ele>637.0</ele><time>2026-04-04T13:33:05Z</time></trkpt><trkpt lat="42.94288990228635" lon="13.083537611210502"><ele>637.0</ele><time>2026-04-04T13:33:06Z</time></trkpt><trkpt lat="42.943037163186126" lon="13.083534269407378"><ele>637.0</ele><time>2026-04-04T13:33:07Z</time></trkpt><trkpt lat="42.94317747173045" lon="13.083531062520418"><ele>637.0</ele><time>2026-04-04T13:33:08Z</time></trkpt><trkpt lat="42.94331568239055" lon="13.083532418108579"><ele>637.0</ele><time>2026-04-04T13:33:09Z</time></trkpt><trkpt lat="42.943456811973434" lon="13.083539419025973"><ele>637.75</ele><time>2026-04-04T13:33:10Z</time></trkpt><trkpt lat="42.943599793822514" lon="13.083532649606424"><ele>638.5</ele><time>2026-04-04T13:33:11Z</time></trkpt><trkpt lat="42.94374739329476" lon="13.083515352604888"><ele>639.25</ele><time>2026-04-04T13:33:12Z</time></trkpt><trkpt lat="42.94389795575583" lon="13.08351254473842"><ele>640.0</ele><time>2026-04-04T13:33:13Z</time></trkpt><trkpt lat="42.944050020859756" lon="13.083506891934015"><ele>640.0</ele><time>2026-04-04T13:33:14Z</time></trkpt><trkpt lat="42.94420925060031" lon="13.083491598263658"><ele>640.0</ele><time>2026-04-04T13:33:15Z</time></trkpt><trkpt lat="42.94436766895793" lon="13.083475760704255"><ele>640.0</ele><time>2026-04-04T13:33:16Z</time></trkpt><trkpt lat="42.944522320414734" lon="13.083462074494388"><ele>641.0</ele><time>2026-04-04T13:33:17Z</time></trkpt><trkpt lat="42.94467155421901" lon="13.08344569254362"><ele>642.0</ele><time>2026-04-04T13:33:18Z</time></trkpt><trkpt lat="42.94481142442777" lon="13.083427727564553"><ele>643.0</ele><time>2026-04-04T13:33:19Z</time></trkpt><trkpt lat="42.944946243107104" lon="13.08341225279598"><ele>644.0</ele><time>2026-04-04T13:33:20Z</time></trkpt><trkpt lat="42.945082278631745" lon="13.083395323124853"><ele>644.75</ele><time>2026-04-04T13:33:21Z</time></trkpt><trkpt lat="42.94522049364407" lon="13.08337679681923"><ele>645.5</ele><time>2026-04-04T13:33:22Z</time></trkpt><trkpt lat="42.945360597193385" lon="13.083361296043687"><ele>646.25</ele><time>2026-04-04T13:33:23Z</time></trkpt><trkpt lat="42.94549758717213" lon="13.083349280288726"><ele>647.0</ele><time>2026-04-04T13:33:24Z</time></trkpt><trkpt lat="42.94563320138306" lon="13.08333751481814"><ele>647.0</ele><time>2026-04-04T13:33:25Z</time></trkpt><trkpt lat="42.94577118408518" lon="13.083322269976634"><ele>647.0</ele><time>2026-04-04T13:33:26Z</time></trkpt><trkpt lat="42.94590842725577" lon="13.08330795826983"><ele>647.0</ele><time>2026-04-04T13:33:27Z</time></trkpt><trkpt lat="42.94604389148883" lon="13.083293888438455"><ele>647.0</ele><time>2026-04-04T13:33:28Z</time></trkpt><trkpt lat="42.94618071733106" lon="13.083283992085551"><ele>647.75</ele><time>2026-04-04T13:33:29Z</time></trkpt><trkpt lat="42.9463183334304" lon="13.083289872329418"><ele>648.5</ele><time>2026-04-04T13:33:30Z</time></trkpt><trkpt lat="42.94645946653383" lon="13.083311613870773"><ele>649.25</ele><time>2026-04-04T13:33:31Z</time></trkpt><trkpt lat="42.94659819175587" lon="13.083351242462257"><ele>650.0</ele><time>2026-04-04T13:33:32Z</time></trkpt><trkpt lat="42.94673507797544" lon="13.083413213816605"><ele>650.75</ele><time>2026-04-04T13:33:33Z</time></trkpt><trkpt lat="42.94687039000543" lon="13.083487118835036"><ele>651.5</ele><time>2026-04-04T13:33:34Z</time></trkpt><trkpt lat="42.9470049036022" lon="13.08356687433496"><ele>652.25</ele><time>2026-04-04T13:33:35Z</time></trkpt><trkpt lat="42.947140416664865" lon="13.083646900145908"><ele>653.0</ele><time>2026-04-04T13:33:36Z</time></trkpt><trkpt lat="42.947277306290395" lon="13.083727328129806"><ele>653.0</ele><time>2026-04-04T13:33:37Z</time></trkpt><trkpt lat="42.94741595522738" lon="13.083809000608227"><ele>653.0</ele><time>2026-04-04T13:33:38Z</time></trkpt><trkpt lat="42.94755610320061" lon="13.08388893680667"><ele>653.0</ele><time>2026-04-04T13:33:39Z</time></trkpt><trkpt lat="42.94769231360694" lon="13.083965098726233"><ele>653.5</ele><time>2026-04-04T13:33:40Z</time></trkpt><trkpt lat="42.94782777227707" lon="13.084035005751634"><ele>654.0</ele><time>2026-04-04T13:33:41Z</time></trkpt><trkpt lat="42.94796628787354" lon="13.084083251862346"><ele>654.5</ele><time>2026-04-04T13:33:42Z</time></trkpt><trkpt lat="42.94810008135436" lon="13.084107587970147"><ele>655.0</ele><time>2026-04-04T13:33:43Z</time></trkpt><trkpt lat="42.94823492243871" lon="13.084108242342152"><ele>657.25</ele><time>2026-04-04T13:33:44Z</time></trkpt><trkpt lat="42.948367720546074" lon="13.084100174218989"><ele>659.5</ele><time>2026-04-04T13:33:45Z</time></trkpt><trkpt lat="42.948501236351305" lon="13.084080802455187"><ele>661.75</ele><time>2026-04-04T13:33:46Z</time></trkpt><trkpt lat="42.94863306918291" lon="13.08405741739214"><ele>664.0</ele><time>2026-04-04T13:33:47Z</time></trkpt><trkpt lat="42.948765152495376" lon="13.084030571617898"><ele>664.0</ele><time>2026-04-04T13:33:48Z</time></trkpt><trkpt lat="42.94889780485786" lon="13.083996947656834"><ele>664.0</ele><time>2026-04-04T13:33:49Z</time></trkpt><trkpt lat="42.949028974521894" lon="13.083944886627995"><ele>664.0</ele><time>2026-04-04T13:33:50Z</time></trkpt><trkpt lat="42.94915892982849" lon="13.083868033523972"><ele>664.0</ele><time>2026-04-04T13:33:51Z</time></trkpt><trkpt lat="42.94928306312094" lon="13.083773834372124"><ele>665.75</ele><time>2026-04-04T13:33:52Z</time></trkpt><trkpt lat="42.94941020174466" lon="13.08367822671104"><ele>667.5</ele><time>2026-04-04T13:33:53Z</time></trkpt><trkpt lat="42.94954470185451" lon="13.083583613767848"><ele>669.25</ele><time>2026-04-04T13:33:54Z</time></trkpt><trkpt lat="42.94968729294522" lon="13.083512327549975"><ele>671.0</ele><time>2026-04-04T13:33:55Z</time></trkpt><trkpt lat="42.94983683035991" lon="13.083464236868426"><ele>671.0</ele><time>2026-04-04T13:33:56Z</time></trkpt><trkpt lat="42.949990804896174" lon="13.083448715579935"><ele>671.0</ele><time>2026-04-04T13:33:57Z</time></trkpt><trkpt lat="42.95014690108849" lon="13.083438594396902"><ele>671.0</ele><time>2026-04-04T13:33:58Z</time></trkpt><trkpt lat="42.950307723459424" lon="13.083431956313014"><ele>674.3333333333333</ele><time>2026-04-04T13:33:59Z</time></trkpt><trkpt lat="42.9504689045032" lon="13.083390199218384"><ele>677.6666666666666</ele><time>2026-04-04T13:34:00Z</time></trkpt><trkpt lat="42.95062790294288" lon="13.083325319388909"><ele>681.0</ele><time>2026-04-04T13:34:01Z</time></trkpt><trkpt lat="42.950797088366485" lon="13.083307075631149"><ele>682.6666666666666</ele><time>2026-04-04T13:34:02Z</time></trkpt><trkpt lat="42.95096899826066" lon="13.083315910265908"><ele>684.3333333333333</ele><time>2026-04-04T13:34:03Z</time></trkpt><trkpt lat="42.95114369636059" lon="13.083335981809581"><ele>686.0</ele><time>2026-04-04T13:34:04Z</time></trkpt><trkpt lat="42.95131558866817" lon="13.083384701366212"><ele>686.0</ele><time>2026-04-04T13:34:05Z</time></trkpt><trkpt lat="42.95149586690985" lon="13.083396644194607"><ele>686.0</ele><time>2026-04-04T13:34:06Z</time></trkpt><trkpt lat="42.95167854872449" lon="13.0833679049782"><ele>686.0</ele><time>2026-04-04T13:34:07Z</time></trkpt><trkpt lat="42.951864373834496" lon="13.08331771535114"><ele>684.0</ele><time>2026-04-04T13:34:08Z</time></trkpt><trkpt lat="42.95204309164498" lon="13.083265665366083"><ele>682.0</ele><time>2026-04-04T13:34:09Z</time></trkpt><trkpt lat="42.95221227384739" lon="13.083215055854561"><ele>680.0</ele><time>2026-04-04T13:34:10Z</time></trkpt><trkpt lat="42.95237801042675" lon="13.083187264183778"><ele>680.0</ele><time>2026-04-04T13:34:11Z</time></trkpt><trkpt lat="42.95253301299917" lon="13.083142958041526"><ele>680.0</ele><time>2026-04-04T13:34:12Z</time></trkpt><trkpt lat="42.952685270947164" lon="13.083082695802778"><ele>680.0</ele><time>2026-04-04T13:34:13Z</time></trkpt><trkpt lat="42.95284239812432" lon="13.083076517390396"><ele>682.3333333333333</ele><time>2026-04-04T13:34:14Z</time></trkpt><trkpt lat="42.95300832867697" lon="13.083125721453962"><ele>684.6666666666666</ele><time>2026-04-04T13:34:15Z</time></trkpt><trkpt lat="42.953172398029054" lon="13.083203222150921"><ele>687.0</ele><time>2026-04-04T13:34:16Z</time></trkpt><trkpt lat="42.95333171390974" lon="13.083299607356334"><ele>691.0</ele><time>2026-04-04T13:34:17Z</time></trkpt><trkpt lat="42.95348875417489" lon="13.083391453479932"><ele>695.0</ele><time>2026-04-04T13:34:18Z</time></trkpt><trkpt lat="42.95365444946998" lon="13.083444817603477"><ele>699.0</ele><time>2026-04-04T13:34:19Z</time></trkpt><trkpt lat="42.953817414063266" lon="13.08344136037595"><ele>699.0</ele><time>2026-04-04T13:34:20Z</time></trkpt><trkpt lat="42.95397511584973" lon="13.083403797630073"><ele>699.0</ele><time>2026-04-04T13:34:21Z</time></trkpt><trkpt lat="42.954120401463584" lon="13.083365584258948"><ele>699.0</ele><time>2026-04-04T13:34:22Z</time></trkpt><trkpt lat="42.95426214196151" lon="13.083343612534112"><ele>699.0</ele><time>2026-04-04T13:34:23Z</time></trkpt><trkpt lat="42.954398328316124" lon="13.083356195562853"><ele>699.0</ele><time>2026-04-04T13:34:24Z</time></trkpt><trkpt lat="42.95452079435224" lon="13.08340960338603"><ele>699.0</ele><time>2026-04-04T13:34:25Z</time></trkpt><trkpt lat="42.95461589964435" lon="13.083543468795993"><ele>699.0</ele><time>2026-04-04T13:34:26Z</time></trkpt><trkpt lat="42.954689153070056" lon="13.08369945181324"><ele>699.0</ele><time>2026-04-04T13:34:27Z</time></trkpt><trkpt lat="42.95473491487958" lon="13.083871206333287"><ele>699.0</ele><time>2026-04-04T13:34:28Z</time></trkpt><trkpt lat="42.95477856225422" lon="13.084030886872299"><ele>699.0</ele><time>2026-04-04T13:34:29Z</time></trkpt><trkpt lat="42.95482939734745" lon="13.084183016132211"><ele>699.0</ele><time>2026-04-04T13:34:30Z</time></trkpt><trkpt lat="42.95490433424678" lon="13.084326191126387"><ele>702.25</ele><time>2026-04-04T13:34:31Z</time></trkpt><trkpt lat="42.95498863263908" lon="13.084465456786148"><ele>705.5</ele><time>2026-04-04T13:34:32Z</time></trkpt><trkpt lat="42.955078105181876" lon="13.08459952840969"><ele>708.75</ele><time>2026-04-04T13:34:33Z</time></trkpt><trkpt lat="42.95516354847831" lon="13.084731755080083"><ele>712.0</ele><time>2026-04-04T13:34:34Z</time></trkpt><trkpt lat="42.95524665405291" lon="13.084855311255414"><ele>714.6</ele><time>2026-04-04T13:34:35Z</time></trkpt><trkpt lat="42.95532495364892" lon="13.084966679487145"><ele>717.2</ele><time>2026-04-04T13:34:36Z</time></trkpt><trkpt lat="42.95540260289845" lon="13.085067530658643"><ele>719.8</ele><time>2026-04-04T13:34:37Z</time></trkpt><trkpt lat="42.955487867856135" lon="13.085149960038764"><ele>722.4</ele><time>2026-04-04T13:34:38Z</time></trkpt><trkpt lat="42.95559238564826" lon="13.08518729221183"><ele>725.0</ele><time>2026-04-04T13:34:39Z</time></trkpt><trkpt lat="42.95570219881302" lon="13.08518421604647"><ele>725.0</ele><time>2026-04-04T13:34:40Z</time></trkpt><trkpt lat="42.955813794606655" lon="13.085153262860405"><ele>725.0</ele><time>2026-04-04T13:34:41Z</time></trkpt><trkpt lat="42.955922227725836" lon="13.085118646128418"><ele>725.0</ele><time>2026-04-04T13:34:42Z</time></trkpt><trkpt lat="42.956025700037834" lon="13.08508458578959"><ele>725.0</ele><time>2026-04-04T13:34:43Z</time></trkpt><trkpt lat="42.95612029157546" lon="13.08505492458543"><ele>725.0</ele><time>2026-04-04T13:34:44Z</time></trkpt><trkpt lat="42.95621314806202" lon="13.085020753382487"><ele>729.2</ele><time>2026-04-04T13:34:45Z</time></trkpt><trkpt lat="42.95629221373334" lon="13.084970965146379"><ele>733.4</ele><time>2026-04-04T13:34:46Z</time></trkpt><trkpt lat="42.95634620751286" lon="13.084879362240317"><ele>737.5999999999999</ele><time>2026-04-04T13:34:47Z</time></trkpt><trkpt lat="42.95636153556255" lon="13.084759908114176"><ele>741.8</ele><time>2026-04-04T13:34:48Z</time></trkpt><trkpt lat="42.95632877335909" lon="13.08463433156331"><ele>746.0</ele><time>2026-04-04T13:34:49Z</time></trkpt><trkpt lat="42.956262125490206" lon="13.084522430865281"><ele>745.1999999999999</ele><time>2026-04-04T13:34:50Z</time></trkpt><trkpt lat="42.95617778609991" lon="13.08441818334252"><ele>744.4</ele><time>2026-04-04T13:34:51Z</time></trkpt><trkpt lat="42.95609528655899" lon="13.08431451566274"><ele>743.6</ele><time>2026-04-04T13:34:52Z</time></trkpt><trkpt lat="42.956018408951046" lon="13.084200775411658"><ele>742.8</ele><time>2026-04-04T13:34:53Z</time></trkpt><trkpt lat="42.95595632599813" lon="13.084076493895807"><ele>742.0</ele><time>2026-04-04T13:34:54Z</time></trkpt><trkpt lat="42.95592594188477" lon="13.083923931332958"><ele>742.0</ele><time>2026-04-04T13:34:55Z</time></trkpt><trkpt lat="42.95593436899307" lon="13.083761934083022"><ele>742.0</ele><time>2026-04-04T13:34:56Z</time></trkpt><trkpt lat="42.95597389954349" lon="13.0836024608975"><ele>742.0</ele><time>2026-04-04T13:34:57Z</time></trkpt><trkpt lat="42.95601372569389" lon="13.083456818115499"><ele>742.0</ele><time>2026-04-04T13:34:58Z</time></trkpt><trkpt lat="42.956059834896266" lon="13.083310506111724"><ele>735.75</ele><time>2026-04-04T13:34:59Z</time></trkpt><trkpt lat="42.956120073233734" lon="13.083177106977628"><ele>729.5</ele><time>2026-04-04T13:35:00Z</time></trkpt><trkpt lat="42.95620129017155" lon="13.083062359564172"><ele>723.25</ele><time>2026-04-04T13:35:01Z</time></trkpt><trkpt lat="42.95630794341758" lon="13.082974872334956"><ele>717.0</ele><time>2026-04-04T13:35:02Z</time></trkpt><trkpt lat="42.956422735843276" lon="13.082911413237154"><ele>717.0</ele><time>2026-04-04T13:35:03Z</time></trkpt><trkpt lat="42.95654006343388" lon="13.082859961093737"><ele>717.0</ele><time>2026-04-04T13:35:04Z</time></trkpt><trkpt lat="42.95666640013705" lon="13.082858654832286"><ele>717.0</ele><time>2026-04-04T13:35:05Z</time></trkpt><trkpt lat="42.95677121190392" lon="13.082966345371162"><ele>717.0</ele><time>2026-04-04T13:35:06Z</time></trkpt><trkpt lat="42.956852403390876" lon="13.083094543279236"><ele>719.0</ele><time>2026-04-04T13:35:07Z</time></trkpt><trkpt lat="42.95694795368966" lon="13.0832135103453"><ele>721.0</ele><time>2026-04-04T13:35:08Z</time></trkpt><trkpt lat="42.95702679126266" lon="13.083355671418929"><ele>723.0</ele><time>2026-04-04T13:35:09Z</time></trkpt><trkpt lat="42.957107829508864" lon="13.083483379737288"><ele>725.0</ele><time>2026-04-04T13:35:10Z</time></trkpt><trkpt lat="42.957186079789686" lon="13.083600850467286"><ele>728.0</ele><time>2026-04-04T13:35:11Z</time></trkpt><trkpt lat="42.95726599046357" lon="13.083705125600664"><ele>731.0</ele><time>2026-04-04T13:35:12Z</time></trkpt><trkpt lat="42.95734132181933" lon="13.083791177457059"><ele>734.0</ele><time>2026-04-04T13:35:13Z</time></trkpt><trkpt lat="42.95742358423564" lon="13.083861241235455"><ele>737.0</ele><time>2026-04-04T13:35:14Z</time></trkpt><trkpt lat="42.95751912817379" lon="13.083899754094288"><ele>740.0</ele><time>2026-04-04T13:35:15Z</time></trkpt><trkpt lat="42.95762298571299" lon="13.083908819443748"><ele>742.25</ele><time>2026-04-04T13:35:16Z</time></trkpt><trkpt lat="42.957735655211145" lon="13.083895836283883"><ele>744.5</ele><time>2026-04-04T13:35:17Z</time></trkpt><trkpt lat="42.95785476198623" lon="13.08386364110306"><ele>746.75</ele><time>2026-04-04T13:35:18Z</time></trkpt><trkpt lat="42.9579751234356" lon="13.08378046725879"><ele>749.0</ele><time>2026-04-04T13:35:19Z</time></trkpt><trkpt lat="42.95808726688101" lon="13.08365811694591"><ele>749.0</ele><time>2026-04-04T13:35:20Z</time></trkpt><trkpt lat="42.958195020543215" lon="13.083518669190031"><ele>749.0</ele><time>2026-04-04T13:35:21Z</time></trkpt><trkpt lat="42.958302455880485" lon="13.0833652364245"><ele>749.0</ele><time>2026-04-04T13:35:22Z</time></trkpt><trkpt lat="42.958413060194424" lon="13.08320852760618"><ele>748.3333333333333</ele><time>2026-04-04T13:35:23Z</time></trkpt><trkpt lat="42.95853196950457" lon="13.083058894683624"><ele>747.6666666666666</ele><time>2026-04-04T13:35:24Z</time></trkpt><trkpt lat="42.958654763470754" lon="13.082934181883155"><ele>747.0</ele><time>2026-04-04T13:35:25Z</time></trkpt><trkpt lat="42.958788657630684" lon="13.082822107148196"><ele>747.0</ele><time>2026-04-04T13:35:26Z</time></trkpt><trkpt lat="42.95892816305908" lon="13.082714755088118"><ele>747.0</ele><time>2026-04-04T13:35:27Z</time></trkpt><trkpt lat="42.95906632518257" lon="13.08260561894355"><ele>747.0</ele><time>2026-04-04T13:35:28Z</time></trkpt><trkpt lat="42.95920370236372" lon="13.082493479878877"><ele>748.6666666666666</ele><time>2026-04-04T13:35:29Z</time></trkpt><trkpt lat="42.95934267567956" lon="13.082392170203255"><ele>750.3333333333333</ele><time>2026-04-04T13:35:30Z</time></trkpt><trkpt lat="42.95947938012626" lon="13.082289878144758"><ele>752.0</ele><time>2026-04-04T13:35:31Z</time></trkpt><trkpt lat="42.959612302352326" lon="13.082184891996738"><ele>752.0</ele><time>2026-04-04T13:35:32Z</time></trkpt><trkpt lat="42.959744424490296" lon="13.082082074813354"><ele>752.0</ele><time>2026-04-04T13:35:33Z</time></trkpt><trkpt lat="42.95987641337885" lon="13.08198086147737"><ele>752.0</ele><time>2026-04-04T13:35:34Z</time></trkpt><trkpt lat="42.96000514903605" lon="13.081878098464783"><ele>754.75</ele><time>2026-04-04T13:35:35Z</time></trkpt><trkpt lat="42.9601355128242" lon="13.081777618008218"><ele>757.5</ele><time>2026-04-04T13:35:36Z</time></trkpt><trkpt lat="42.96026403618671" lon="13.08167635935994"><ele>760.25</ele><time>2026-04-04T13:35:37Z</time></trkpt><trkpt lat="42.96039408246582" lon="13.0815729730781"><ele>763.0</ele><time>2026-04-04T13:35:38Z</time></trkpt><trkpt lat="42.96052900650958" lon="13.081472776583114"><ele>771.6666666666667</ele><time>2026-04-04T13:35:39Z</time></trkpt><trkpt lat="42.96067013523974" lon="13.081377854357951"><ele>780.3333333333334</ele><time>2026-04-04T13:35:40Z</time></trkpt><trkpt lat="42.96082298358977" lon="13.08130309399109"><ele>789.0</ele><time>2026-04-04T13:35:41Z</time></trkpt><trkpt lat="42.96097702735668" lon="13.081238683325203"><ele>789.0</ele><time>2026-04-04T13:35:42Z</time></trkpt><trkpt lat="42.96114235507445" lon="13.081192429456198"><ele>789.0</ele><time>2026-04-04T13:35:43Z</time></trkpt><trkpt lat="42.961314089394655" lon="13.081157176485618"><ele>789.0</ele><time>2026-04-04T13:35:44Z</time></trkpt><trkpt lat="42.96149020257923" lon="13.081130234790306"><ele>789.0</ele><time>2026-04-04T13:35:45Z</time></trkpt><trkpt lat="42.96166282837008" lon="13.081109400343859"><ele>789.0</ele><time>2026-04-04T13:35:46Z</time></trkpt><trkpt lat="42.961839283141906" lon="13.08109019466593"><ele>789.0</ele><time>2026-04-04T13:35:47Z</time></trkpt><trkpt lat="42.96201670608132" lon="13.081074877345852"><ele>790.0</ele><time>2026-04-04T13:35:48Z</time></trkpt><trkpt lat="42.96219342969868" lon="13.081053522228508"><ele>791.0</ele><time>2026-04-04T13:35:49Z</time></trkpt><trkpt lat="42.962371576565076" lon="13.081035828513766"><ele>792.0</ele><time>2026-04-04T13:35:50Z</time></trkpt><trkpt lat="42.96255296472724" lon="13.081014778072195"><ele>792.0</ele><time>2026-04-04T13:35:51Z</time></trkpt><trkpt lat="42.962728323652684" lon="13.08099600880388"><ele>792.0</ele><time>2026-04-04T13:35:52Z</time></trkpt><trkpt lat="42.96290459725867" lon="13.080975612756323"><ele>792.0</ele><time>2026-04-04T13:35:53Z</time></trkpt><trkpt lat="42.96308088184248" lon="13.080951077980204"><ele>792.0</ele><time>2026-04-04T13:35:54Z</time></trkpt><trkpt lat="42.96325988556533" lon="13.080924468502378"><ele>792.0</ele><time>2026-04-04T13:35:55.02Z</time></trkpt><trkpt lat="42.9634331746527" lon="13.080893880553383"><ele>792.0</ele><time>2026-04-04T13:35:56.02Z</time></trkpt><trkpt lat="42.96360507418498" lon="13.080855545497583"><ele>794.3333333333333</ele><time>2026-04-04T13:35:57.021Z</time></trkpt><trkpt lat="42.96377305952682" lon="13.080805757508724"><ele>796.6666666666666</ele><time>2026-04-04T13:35:58.016Z</time></trkpt><trkpt lat="42.963939070059375" lon="13.080756452133862"><ele>799.0</ele><time>2026-04-04T13:35:59.015Z</time></trkpt><trkpt lat="42.96576935392448" lon="13.07969272655132"><ele>796.0</ele><time>2026-04-04T13:36:03.436Z</time></trkpt><trkpt lat="42.96618296294536" lon="13.07945111429099"><ele>796.0</ele><time>2026-04-04T13:36:04.436Z</time></trkpt><trkpt lat="42.966596192797844" lon="13.079208271773648"><ele>782.0</ele><time>2026-04-04T13:36:05.436Z</time></trkpt><trkpt lat="42.96717373658248" lon="13.078822558757922"><ele>782.0</ele><time>2026-04-04T13:36:18Z</time></trkpt><trkpt lat="42.967322779500066" lon="13.078737031461415"><ele>782.0</ele><time>2026-04-04T13:36:19Z</time></trkpt><trkpt lat="42.96744293732126" lon="13.078733338159061"><ele>782.0</ele><time>2026-04-04T13:36:20Z</time></trkpt><trkpt lat="42.96759824949702" lon="13.07864187614825"><ele>779.3333333333334</ele><time>2026-04-04T13:36:20.999Z</time></trkpt><trkpt lat="42.967747089823334" lon="13.078529881254529"><ele>776.6666666666667</ele><time>2026-04-04T13:36:21.999Z</time></trkpt><trkpt lat="42.96791454704395" lon="13.078433743822073"><ele>774.0</ele><time>2026-04-04T13:36:22.999Z</time></trkpt><trkpt lat="42.96808735724592" lon="13.078343697528359"><ele>775.3333333333333</ele><time>2026-04-04T13:36:24Z</time></trkpt><trkpt lat="42.96826549395858" lon="13.078241451898299"><ele>776.6666666666666</ele><time>2026-04-04T13:36:25Z</time></trkpt><trkpt lat="42.96845062412581" lon="13.07813387761925"><ele>778.0</ele><time>2026-04-04T13:36:26Z</time></trkpt><trkpt lat="42.96864118413845" lon="13.078023507111359"><ele>774.3333333333333</ele><time>2026-04-04T13:36:27Z</time></trkpt><trkpt lat="42.968838550730254" lon="13.077912084297555"><ele>770.6666666666666</ele><time>2026-04-04T13:36:28Z</time></trkpt><trkpt lat="42.969041010308146" lon="13.077799394105842"><ele>767.0</ele><time>2026-04-04T13:36:29Z</time></trkpt><trkpt lat="42.969246288721926" lon="13.07768174931772"><ele>763.5</ele><time>2026-04-04T13:36:30Z</time></trkpt><trkpt lat="42.96945317086047" lon="13.077559842706558"><ele>760.0</ele><time>2026-04-04T13:36:31Z</time></trkpt><trkpt lat="42.96966235037226" lon="13.077439785943588"><ele>758.5</ele><time>2026-04-04T13:36:32Z</time></trkpt><trkpt lat="42.96987276930257" lon="13.077315234152868"><ele>757.0</ele><time>2026-04-04T13:36:33Z</time></trkpt><trkpt lat="42.97008507402002" lon="13.077187565781875"><ele>757.0</ele><time>2026-04-04T13:36:34Z</time></trkpt><trkpt lat="42.97029799280907" lon="13.077060236555077"><ele>757.0</ele><time>2026-04-04T13:36:35Z</time></trkpt><trkpt lat="42.970510129890094" lon="13.076935163248233"><ele>757.0</ele><time>2026-04-04T13:36:36Z</time></trkpt><trkpt lat="42.97071832419081" lon="13.076813363441815"><ele>757.0</ele><time>2026-04-04T13:36:37Z</time></trkpt><trkpt lat="42.97092693573207" lon="13.076694684003291"><ele>757.5</ele><time>2026-04-04T13:36:38Z</time></trkpt><trkpt lat="42.97113920830853" lon="13.076591310221117"><ele>758.0</ele><time>2026-04-04T13:36:39Z</time></trkpt><trkpt lat="42.97135658361524" lon="13.076515806535125"><ele>758.0</ele><time>2026-04-04T13:36:40Z</time></trkpt><trkpt lat="42.971580586593646" lon="13.076485574979234"><ele>758.0</ele><time>2026-04-04T13:36:41Z</time></trkpt><trkpt lat="42.97180739052507" lon="13.076487512594099"><ele>753.0</ele><time>2026-04-04T13:36:42Z</time></trkpt><trkpt lat="42.972032785287595" lon="13.076521790229272"><ele>748.0</ele><time>2026-04-04T13:36:43Z</time></trkpt><trkpt lat="42.97225696431153" lon="13.076583493639685"><ele>743.5</ele><time>2026-04-04T13:36:44Z</time></trkpt><trkpt lat="42.97247450717867" lon="13.076668685399875"><ele>739.0</ele><time>2026-04-04T13:36:45Z</time></trkpt><trkpt lat="42.9726845271154" lon="13.076782449132223"><ele>734.0</ele><time>2026-04-04T13:36:46Z</time></trkpt><trkpt lat="42.97288755285917" lon="13.076924201802074"><ele>729.0</ele><time>2026-04-04T13:36:47Z</time></trkpt><trkpt lat="42.973087719969506" lon="13.077079049891868"><ele>729.0</ele><time>2026-04-04T13:36:48Z</time></trkpt><trkpt lat="42.973289824873824" lon="13.07722903013182"><ele>729.0</ele><time>2026-04-04T13:36:49Z</time></trkpt><trkpt lat="42.97349537684107" lon="13.077372099590756"><ele>728.5</ele><time>2026-04-04T13:36:50Z</time></trkpt><trkpt lat="42.97370291844384" lon="13.077502622168508"><ele>728.0</ele><time>2026-04-04T13:36:51Z</time></trkpt><trkpt lat="42.97391244123646" lon="13.077599134525569"><ele>728.0</ele><time>2026-04-04T13:36:52Z</time></trkpt><trkpt lat="42.974146498463504" lon="13.07766736167075"><ele>728.0</ele><time>2026-04-04T13:36:53Z</time></trkpt><trkpt lat="42.97438534420363" lon="13.077709907030307"><ele>728.5</ele><time>2026-04-04T13:36:54Z</time></trkpt><trkpt lat="42.97462681647213" lon="13.077708868344736"><ele>729.0</ele><time>2026-04-04T13:36:55Z</time></trkpt><trkpt lat="42.9748727099331" lon="13.077661099979581"><ele>728.5</ele><time>2026-04-04T13:36:56Z</time></trkpt><trkpt lat="42.975114617295084" lon="13.077579822477665"><ele>728.0</ele><time>2026-04-04T13:36:57Z</time></trkpt><trkpt lat="42.97535365702912" lon="13.077466285415518"><ele>724.5</ele><time>2026-04-04T13:36:58Z</time></trkpt><trkpt lat="42.97559004533471" lon="13.077333366646355"><ele>721.0</ele><time>2026-04-04T13:36:59Z</time></trkpt><trkpt lat="42.97582824381046" lon="13.077203665294345"><ele>715.0</ele><time>2026-04-04T13:37:00Z</time></trkpt><trkpt lat="42.976062964692055" lon="13.077073653185124"><ele>709.0</ele><time>2026-04-04T13:37:01Z</time></trkpt><trkpt lat="42.97629171001217" lon="13.076949918910064"><ele>709.0</ele><time>2026-04-04T13:37:02Z</time></trkpt><trkpt lat="42.976515010930186" lon="13.076823054714163"><ele>709.0</ele><time>2026-04-04T13:37:03Z</time></trkpt><trkpt lat="42.97673677675432" lon="13.076692363443831"><ele>703.0</ele><time>2026-04-04T13:37:04Z</time></trkpt><trkpt lat="42.976957711605344" lon="13.076563390551788"><ele>697.0</ele><time>2026-04-04T13:37:05Z</time></trkpt><trkpt lat="42.97718261337943" lon="13.076435228771809"><ele>697.0</ele><time>2026-04-04T13:37:06Z</time></trkpt><trkpt lat="42.97740806765044" lon="13.076308977888683"><ele>697.0</ele><time>2026-04-04T13:37:07Z</time></trkpt><trkpt lat="42.977627637312224" lon="13.076186010675249"><ele>701.5</ele><time>2026-04-04T13:37:08Z</time></trkpt><trkpt lat="42.97783981539563" lon="13.076080716526377"><ele>706.0</ele><time>2026-04-04T13:37:09Z</time></trkpt><trkpt lat="42.97805956262035" lon="13.076002295300961"><ele>706.0</ele><time>2026-04-04T13:37:10Z</time></trkpt><trkpt lat="42.9782889165935" lon="13.07595733295538"><ele>706.0</ele><time>2026-04-04T13:37:11Z</time></trkpt><trkpt lat="42.978525536266616" lon="13.075943663993735"><ele>703.0</ele><time>2026-04-04T13:37:12Z</time></trkpt><trkpt lat="42.97875141208088" lon="13.07596037787834"><ele>700.0</ele><time>2026-04-04T13:37:13Z</time></trkpt><trkpt lat="42.97896256314925" lon="13.076006109219758"><ele>697.0</ele><time>2026-04-04T13:37:14Z</time></trkpt><trkpt lat="42.97916917405487" lon="13.076075930821144"><ele>691.0</ele><time>2026-04-04T13:37:15Z</time></trkpt><trkpt lat="42.97936558402218" lon="13.076155612377889"><ele>685.0</ele><time>2026-04-04T13:37:16Z</time></trkpt><trkpt lat="42.97955686814001" lon="13.076234853446655"><ele>679.0</ele><time>2026-04-04T13:37:17Z</time></trkpt><trkpt lat="42.979750016922345" lon="13.076310157193697"><ele>679.0</ele><time>2026-04-04T13:37:18Z</time></trkpt><trkpt lat="42.97995103427984" lon="13.076386249745298"><ele>679.0</ele><time>2026-04-04T13:37:19Z</time></trkpt><trkpt lat="42.98015439260861" lon="13.076457518593099"><ele>679.0</ele><time>2026-04-04T13:37:20Z</time></trkpt><trkpt lat="42.98036215243979" lon="13.076504586472103"><ele>677.6666666666667</ele><time>2026-04-04T13:37:21Z</time></trkpt><trkpt lat="42.98056868211308" lon="13.076568835224547"><ele>676.3333333333334</ele><time>2026-04-04T13:37:22Z</time></trkpt><trkpt lat="42.98078691651318" lon="13.076490946113669"><ele>675.0</ele><time>2026-04-04T13:37:23Z</time></trkpt><trkpt lat="42.980998414226946" lon="13.076438982160564"><ele>675.0</ele><time>2026-04-04T13:37:24Z</time></trkpt><trkpt lat="42.98123057611012" lon="13.076359670379214"><ele>675.0</ele><time>2026-04-04T13:37:25Z</time></trkpt><trkpt lat="42.981475787492585" lon="13.076292995028806"><ele>674.0</ele><time>2026-04-04T13:37:26Z</time></trkpt><trkpt lat="42.98174085118178" lon="13.076242653408741"><ele>673.0</ele><time>2026-04-04T13:37:27Z</time></trkpt><trkpt lat="42.982021606674195" lon="13.07620047553917"><ele>673.0</ele><time>2026-04-04T13:37:28Z</time></trkpt><trkpt lat="42.982307256742324" lon="13.076159903239526"><ele>673.0</ele><time>2026-04-04T13:37:29Z</time></trkpt><trkpt lat="42.98258722625676" lon="13.076102765983148"><ele>674.0</ele><time>2026-04-04T13:37:30Z</time></trkpt><trkpt lat="42.98286451986364" lon="13.076039562778096"><ele>675.0</ele><time>2026-04-04T13:37:31Z</time></trkpt><trkpt lat="42.98314322325599" lon="13.075970455753653"><ele>676.0</ele><time>2026-04-04T13:37:32Z</time></trkpt><trkpt lat="42.98341909972858" lon="13.075919052915149"><ele>677.0</ele><time>2026-04-04T13:37:33Z</time></trkpt><trkpt lat="42.983700069530556" lon="13.07586029826669"><ele>677.0</ele><time>2026-04-04T13:37:34Z</time></trkpt><trkpt lat="42.983982755259134" lon="13.075803528547503"><ele>677.0</ele><time>2026-04-04T13:37:35Z</time></trkpt><trkpt lat="42.98426841795451" lon="13.075748768631692"><ele>664.5</ele><time>2026-04-04T13:37:36Z</time></trkpt><trkpt lat="42.984553035734436" lon="13.075689587215532"><ele>652.0</ele><time>2026-04-04T13:37:37Z</time></trkpt><trkpt lat="42.984838011698685" lon="13.075631275044135"><ele>652.5</ele><time>2026-04-04T13:37:38Z</time></trkpt><trkpt lat="42.98512138553928" lon="13.07557140553273"><ele>653.0</ele><time>2026-04-04T13:37:39Z</time></trkpt><trkpt lat="42.985401981166696" lon="13.075516305689442"><ele>653.0</ele><time>2026-04-04T13:37:40Z</time></trkpt><trkpt lat="42.98570641433896" lon="13.075431118583525"><ele>653.0</ele><time>2026-04-04T13:37:41Z</time></trkpt><trkpt lat="42.985970071180084" lon="13.075386007915425"><ele>652.0</ele><time>2026-04-04T13:37:42Z</time></trkpt><trkpt lat="42.986243773492966" lon="13.075305222459411"><ele>651.0</ele><time>2026-04-04T13:37:43Z</time></trkpt><trkpt lat="42.98651306724703" lon="13.075190101577112"><ele>644.5</ele><time>2026-04-04T13:37:44Z</time></trkpt><trkpt lat="42.98677717479817" lon="13.075049508664218"><ele>638.0</ele><time>2026-04-04T13:37:45Z</time></trkpt><trkpt lat="42.98703973619881" lon="13.074890663834207"><ele>638.0</ele><time>2026-04-04T13:37:46Z</time></trkpt><trkpt lat="42.987300300595166" lon="13.074744758961986"><ele>638.0</ele><time>2026-04-04T13:37:47Z</time></trkpt><trkpt lat="42.987565017202165" lon="13.074611452063696"><ele>642.5</ele><time>2026-04-04T13:37:48Z</time></trkpt><trkpt lat="42.98783338918543" lon="13.074489828319898"><ele>647.0</ele><time>2026-04-04T13:37:49Z</time></trkpt><trkpt lat="42.98809845068509" lon="13.074382437986872"><ele>648.0</ele><time>2026-04-04T13:37:50Z</time></trkpt><trkpt lat="42.98835936147422" lon="13.074273758348234"><ele>649.0</ele><time>2026-04-04T13:37:51Z</time></trkpt><trkpt lat="42.98860910621749" lon="13.074138419597721"><ele>640.0</ele><time>2026-04-04T13:37:52Z</time></trkpt><trkpt lat="42.98884630768617" lon="13.073969667647521"><ele>631.0</ele><time>2026-04-04T13:37:53Z</time></trkpt><trkpt lat="42.98907577690977" lon="13.073778875239721"><ele>639.5</ele><time>2026-04-04T13:37:54Z</time></trkpt><trkpt lat="42.98929751145376" lon="13.073566201588292"><ele>648.0</ele><time>2026-04-04T13:37:55Z</time></trkpt><trkpt lat="42.98951476352797" lon="13.073341999552264"><ele>640.0</ele><time>2026-04-04T13:37:56Z</time></trkpt><trkpt lat="42.98973037845026" lon="13.073117530594672"><ele>632.0</ele><time>2026-04-04T13:37:57Z</time></trkpt><trkpt lat="42.98995382466573" lon="13.07290814119323"><ele>638.5</ele><time>2026-04-04T13:37:58Z</time></trkpt><trkpt lat="42.99017354978652" lon="13.072689207552052"><ele>645.0</ele><time>2026-04-04T13:37:59Z</time></trkpt><trkpt lat="42.99039290523423" lon="13.072472934134776"><ele>636.5</ele><time>2026-04-04T13:38:00Z</time></trkpt><trkpt lat="42.9906099424203" lon="13.07225526201142"><ele>628.0</ele><time>2026-04-04T13:38:01Z</time></trkpt><trkpt lat="42.99082852323301" lon="13.072053296609562"><ele>630.5</ele><time>2026-04-04T13:38:02Z</time></trkpt><trkpt lat="42.99105447826178" lon="13.071868530756054"><ele>633.0</ele><time>2026-04-04T13:38:03Z</time></trkpt><trkpt lat="42.991290082424946" lon="13.071706360560814"><ele>624.5</ele><time>2026-04-04T13:38:04Z</time></trkpt><trkpt lat="42.99153263079823" lon="13.071563170375892"><ele>616.0</ele><time>2026-04-04T13:38:05Z</time></trkpt><trkpt lat="42.991774771652665" lon="13.07142313420345"><ele>616.0</ele><time>2026-04-04T13:38:06Z</time></trkpt><trkpt lat="42.99201227780839" lon="13.071282411553229"><ele>616.0</ele><time>2026-04-04T13:38:07Z</time></trkpt><trkpt lat="42.992253614958884" lon="13.07114036379795"><ele>616.0</ele><time>2026-04-04T13:38:08Z</time></trkpt><trkpt lat="42.992496108011956" lon="13.070997021813898"><ele>616.0</ele><time>2026-04-04T13:38:09Z</time></trkpt><trkpt lat="42.99273715372126" lon="13.070850963087437"><ele>614.5</ele><time>2026-04-04T13:38:10Z</time></trkpt><trkpt lat="42.992977141041116" lon="13.070705425019336"><ele>613.0</ele><time>2026-04-04T13:38:11Z</time></trkpt><trkpt lat="42.993216958603995" lon="13.070566078742791"><ele>617.0</ele><time>2026-04-04T13:38:12Z</time></trkpt><trkpt lat="42.99345258993056" lon="13.070409350404887"><ele>621.0</ele><time>2026-04-04T13:38:13Z</time></trkpt><trkpt lat="42.99367906444231" lon="13.070239616729499"><ele>621.0</ele><time>2026-04-04T13:38:14Z</time></trkpt><trkpt lat="42.99390056781049" lon="13.07005367007895"><ele>621.0</ele><time>2026-04-04T13:38:15Z</time></trkpt><trkpt lat="42.994111503617695" lon="13.069852157270597"><ele>619.5</ele><time>2026-04-04T13:38:16Z</time></trkpt><trkpt lat="42.99431071720519" lon="13.069622909898026"><ele>618.0</ele><time>2026-04-04T13:38:17Z</time></trkpt><trkpt lat="42.994499605605334" lon="13.069381610743893"><ele>618.0</ele><time>2026-04-04T13:38:18Z</time></trkpt><trkpt lat="42.99467930970087" lon="13.069138660210212"><ele>618.0</ele><time>2026-04-04T13:38:19Z</time></trkpt><trkpt lat="42.994850142800296" lon="13.068867113912342"><ele>620.5</ele><time>2026-04-04T13:38:20Z</time></trkpt><trkpt lat="42.99501532157294" lon="13.068595337435921"><ele>623.0</ele><time>2026-04-04T13:38:21Z</time></trkpt><trkpt lat="42.99517965776313" lon="13.068322717935448"><ele>615.0</ele><time>2026-04-04T13:38:22Z</time></trkpt><trkpt lat="42.99534341824813" lon="13.068049984460195"><ele>607.0</ele><time>2026-04-04T13:38:23Z</time></trkpt><trkpt lat="42.995508589473154" lon="13.067775306571447"><ele>607.0</ele><time>2026-04-04T13:38:24Z</time></trkpt><trkpt lat="42.99567823607475" lon="13.067512571035941"><ele>607.0</ele><time>2026-04-04T13:38:25Z</time></trkpt><trkpt lat="42.9958396180589" lon="13.067243294503433"><ele>608.5</ele><time>2026-04-04T13:38:26Z</time></trkpt><trkpt lat="42.99600302554474" lon="13.066983831187693"><ele>610.0</ele><time>2026-04-04T13:38:27Z</time></trkpt><trkpt lat="42.99615940959916" lon="13.06671662515434"><ele>605.0</ele><time>2026-04-04T13:38:28Z</time></trkpt><trkpt lat="42.99631228049406" lon="13.066444941677618"><ele>600.0</ele><time>2026-04-04T13:38:29Z</time></trkpt><trkpt lat="42.996451535491616" lon="13.066167669100215"><ele>600.0</ele><time>2026-04-04T13:38:30Z</time></trkpt><trkpt lat="42.99656044344116" lon="13.065872515084163"><ele>600.0</ele><time>2026-04-04T13:38:31Z</time></trkpt><trkpt lat="42.99665154090753" lon="13.065573666237206"><ele>600.5</ele><time>2026-04-04T13:38:32Z</time></trkpt><trkpt lat="42.99673175573249" lon="13.065274158325256"><ele>601.0</ele><time>2026-04-04T13:38:33Z</time></trkpt><trkpt lat="42.99678296356467" lon="13.064968236960311"><ele>601.5</ele><time>2026-04-04T13:38:34Z</time></trkpt><trkpt lat="42.99681473250154" lon="13.064654911243865"><ele>602.0</ele><time>2026-04-04T13:38:35Z</time></trkpt><trkpt lat="42.99682347524396" lon="13.06433451233757"><ele>600.5</ele><time>2026-04-04T13:38:36Z</time></trkpt><trkpt lat="42.99680308621159" lon="13.064012539245153"><ele>599.0</ele><time>2026-04-04T13:38:37Z</time></trkpt><trkpt lat="42.99677442974807" lon="13.063692377570945"><ele>599.0</ele><time>2026-04-04T13:38:38Z</time></trkpt><trkpt lat="42.99674385633713" lon="13.063373220555805"><ele>599.0</ele><time>2026-04-04T13:38:39Z</time></trkpt><trkpt lat="42.996709194174464" lon="13.063054952841794"><ele>596.0</ele><time>2026-04-04T13:38:40Z</time></trkpt><trkpt lat="42.99667231808537" lon="13.062734249250946"><ele>593.0</ele><time>2026-04-04T13:38:41Z</time></trkpt><trkpt lat="42.996640924056095" lon="13.062411676380087"><ele>593.0</ele><time>2026-04-04T13:38:42Z</time></trkpt><trkpt lat="42.996607150901795" lon="13.062091507455877"><ele>593.0</ele><time>2026-04-04T13:38:43Z</time></trkpt><trkpt lat="42.99657356584495" lon="13.061771791096268"><ele>592.0</ele><time>2026-04-04T13:38:44Z</time></trkpt><trkpt lat="42.99653984459447" lon="13.061453522794961"><ele>591.0</ele><time>2026-04-04T13:38:45Z</time></trkpt><trkpt lat="42.99651861615414" lon="13.061136854276644"><ele>591.0</ele><time>2026-04-04T13:38:46Z</time></trkpt><trkpt lat="42.99652009146742" lon="13.060826050665048"><ele>591.0</ele><time>2026-04-04T13:38:47Z</time></trkpt><trkpt lat="42.99654151106761" lon="13.060517593347267"><ele>587.5</ele><time>2026-04-04T13:38:48Z</time></trkpt><trkpt lat="42.996585423107796" lon="13.060211301260383"><ele>584.0</ele><time>2026-04-04T13:38:49Z</time></trkpt><trkpt lat="42.99664702203626" lon="13.05990899627172"><ele>583.0</ele><time>2026-04-04T13:38:50Z</time></trkpt><trkpt lat="42.99672349519521" lon="13.059612161605223"><ele>582.0</ele><time>2026-04-04T13:38:51Z</time></trkpt><trkpt lat="42.99681819928824" lon="13.059324348256206"><ele>581.5</ele><time>2026-04-04T13:38:52Z</time></trkpt><trkpt lat="42.9969283341916" lon="13.059045014126136"><ele>581.0</ele><time>2026-04-04T13:38:53Z</time></trkpt><trkpt lat="42.9970402905386" lon="13.058762132176868"><ele>581.0</ele><time>2026-04-04T13:38:54Z</time></trkpt><trkpt lat="42.99715204495317" lon="13.058476764419046"><ele>581.0</ele><time>2026-04-04T13:38:55Z</time></trkpt><trkpt lat="42.99726437763756" lon="13.058192831845314"><ele>580.5</ele><time>2026-04-04T13:38:56Z</time></trkpt><trkpt lat="42.99737479715032" lon="13.057909340176483"><ele>580.0</ele><time>2026-04-04T13:38:57Z</time></trkpt><trkpt lat="42.99748303863407" lon="13.057628643506291"><ele>583.5</ele><time>2026-04-04T13:38:58Z</time></trkpt><trkpt lat="42.997595210590354" lon="13.057354031357496"><ele>587.0</ele><time>2026-04-04T13:38:59Z</time></trkpt><trkpt lat="42.99772052383639" lon="13.05709028746508"><ele>587.0</ele><time>2026-04-04T13:39:00Z</time></trkpt><trkpt lat="42.997861734181676" lon="13.056839778343766"><ele>587.0</ele><time>2026-04-04T13:39:01Z</time></trkpt><trkpt lat="42.998011852515724" lon="13.056594725461395"><ele>583.5</ele><time>2026-04-04T13:39:02Z</time></trkpt><trkpt lat="42.998161509469256" lon="13.056351791719942"><ele>580.0</ele><time>2026-04-04T13:39:03Z</time></trkpt><trkpt lat="42.99830968566634" lon="13.056106615947058"><ele>581.0</ele><time>2026-04-04T13:39:04Z</time></trkpt><trkpt lat="42.99845723719499" lon="13.055860459389779"><ele>582.0</ele><time>2026-04-04T13:39:05Z</time></trkpt><trkpt lat="42.998594643081404" lon="13.055625657231927"><ele>582.0</ele><time>2026-04-04T13:39:06Z</time></trkpt><trkpt lat="42.99873246399116" lon="13.055397125948955"><ele>582.0</ele><time>2026-04-04T13:39:07Z</time></trkpt><trkpt lat="42.998867717813425" lon="13.055177568244451"><ele>582.0</ele><time>2026-04-04T13:39:08Z</time></trkpt><trkpt lat="42.999000516329765" lon="13.054955508490568"><ele>583.0</ele><time>2026-04-04T13:39:09Z</time></trkpt><trkpt lat="42.99913288635384" lon="13.05473512920459"><ele>584.0</ele><time>2026-04-04T13:39:10Z</time></trkpt><trkpt lat="42.99926247215231" lon="13.054509497061833"><ele>585.0</ele><time>2026-04-04T13:39:11Z</time></trkpt><trkpt lat="42.999392699072445" lon="13.054286198252079"><ele>581.3333333333334</ele><time>2026-04-04T13:39:12Z</time></trkpt><trkpt lat="42.99953204825087" lon="13.054065887889685"><ele>577.6666666666667</ele><time>2026-04-04T13:39:13Z</time></trkpt><trkpt lat="42.99967827818843" lon="13.053851626864532"><ele>574.0</ele><time>2026-04-04T13:39:14Z</time></trkpt><trkpt lat="42.999828694176465" lon="13.053639249315784"><ele>574.0</ele><time>2026-04-04T13:39:15Z</time></trkpt><trkpt lat="42.99997821055738" lon="13.053426875027172"><ele>574.0</ele><time>2026-04-04T13:39:16Z</time></trkpt><trkpt lat="43.00014029594533" lon="13.053227063972534"><ele>574.0</ele><time>2026-04-04T13:39:17Z</time></trkpt><trkpt lat="43.00030723159065" lon="13.053033302743028"><ele>573.0</ele><time>2026-04-04T13:39:18Z</time></trkpt><trkpt lat="43.00047559596635" lon="13.052838227886365"><ele>572.0</ele><time>2026-04-04T13:39:19Z</time></trkpt><trkpt lat="43.00065053211269" lon="13.052647453933362"><ele>571.0</ele><time>2026-04-04T13:39:20Z</time></trkpt><trkpt lat="43.000824046683924" lon="13.052460891134912"><ele>569.6666666666667</ele><time>2026-04-04T13:39:21Z</time></trkpt><trkpt lat="43.00099881254343" lon="13.052290136795868"><ele>568.3333333333334</ele><time>2026-04-04T13:39:22Z</time></trkpt><trkpt lat="43.00116950863961" lon="13.052119243937556"><ele>567.0</ele><time>2026-04-04T13:39:23Z</time></trkpt><trkpt lat="43.00133812144064" lon="13.051948329814874"><ele>567.0</ele><time>2026-04-04T13:39:24Z</time></trkpt><trkpt lat="43.00150374471911" lon="13.051778523018685"><ele>567.0</ele><time>2026-04-04T13:39:25Z</time></trkpt><trkpt lat="43.001672695348205" lon="13.051610365694023"><ele>567.0</ele><time>2026-04-04T13:39:26Z</time></trkpt><trkpt lat="43.00184572425291" lon="13.051446704284484"><ele>567.0</ele><time>2026-04-04T13:39:27Z</time></trkpt><trkpt lat="43.00202477180956" lon="13.051290653427527"><ele>567.0</ele><time>2026-04-04T13:39:28Z</time></trkpt><trkpt lat="43.00220382558126" lon="13.051140623549374"><ele>567.0</ele><time>2026-04-04T13:39:29Z</time></trkpt><trkpt lat="43.00238861870854" lon="13.050982991211486"><ele>567.0</ele><time>2026-04-04T13:39:30Z</time></trkpt><trkpt lat="43.002572421666095" lon="13.050828635144839"><ele>567.0</ele><time>2026-04-04T13:39:31Z</time></trkpt><trkpt lat="43.00275842929652" lon="13.050680974520192"><ele>567.0</ele><time>2026-04-04T13:39:32Z</time></trkpt><trkpt lat="43.00294759403633" lon="13.050536542304265"><ele>567.0</ele><time>2026-04-04T13:39:33Z</time></trkpt><trkpt lat="43.00314156059791" lon="13.050393353281688"><ele>567.0</ele><time>2026-04-04T13:39:34Z</time></trkpt><trkpt lat="43.00333769020617" lon="13.050252375609935"><ele>567.0</ele><time>2026-04-04T13:39:35Z</time></trkpt><trkpt lat="43.00353514349361" lon="13.050112649757155"><ele>566.6666666666666</ele><time>2026-04-04T13:39:36Z</time></trkpt><trkpt lat="43.003731186594756" lon="13.049972274043332"><ele>566.3333333333333</ele><time>2026-04-04T13:39:37Z</time></trkpt><trkpt lat="43.003931792406604" lon="13.049832354468201"><ele>566.0</ele><time>2026-04-04T13:39:38Z</time></trkpt><trkpt lat="43.004139600245175" lon="13.049709615676202"><ele>564.0</ele><time>2026-04-04T13:39:39Z</time></trkpt><trkpt lat="43.00435011500453" lon="13.049599742353514"><ele>562.0</ele><time>2026-04-04T13:39:40Z</time></trkpt><trkpt lat="43.00456433693606" lon="13.049499247717382"><ele>562.0</ele><time>2026-04-04T13:39:41Z</time></trkpt><trkpt lat="43.00477982932169" lon="13.049405044507091"><ele>562.0</ele><time>2026-04-04T13:39:42Z</time></trkpt><trkpt lat="43.00499840553116" lon="13.049314768257194"><ele>563.5</ele><time>2026-04-04T13:39:43Z</time></trkpt><trkpt lat="43.0052156607238" lon="13.04922836065931"><ele>565.0</ele><time>2026-04-04T13:39:44Z</time></trkpt><trkpt lat="43.00543541934614" lon="13.049142494678362"><ele>562.5</ele><time>2026-04-04T13:39:45Z</time></trkpt><trkpt lat="43.00565334601262" lon="13.049052720153838"><ele>560.0</ele><time>2026-04-04T13:39:46Z</time></trkpt><trkpt lat="43.00587325938629" lon="13.04896929356412"><ele>560.0</ele><time>2026-04-04T13:39:47Z</time></trkpt><trkpt lat="43.006093232559536" lon="13.048895162522562"><ele>560.0</ele><time>2026-04-04T13:39:48Z</time></trkpt><trkpt lat="43.00631396910469" lon="13.048834901100076"><ele>560.0</ele><time>2026-04-04T13:39:49Z</time></trkpt><trkpt lat="43.006531659610914" lon="13.048785909554582"><ele>560.0</ele><time>2026-04-04T13:39:50Z</time></trkpt><trkpt lat="43.00674896281671" lon="13.048750967871296"><ele>560.0</ele><time>2026-04-04T13:39:51Z</time></trkpt><trkpt lat="43.00696631098691" lon="13.048716445471387"><ele>559.3333333333333</ele><time>2026-04-04T13:39:52Z</time></trkpt><trkpt lat="43.00718029843789" lon="13.048677078835627"><ele>558.6666666666666</ele><time>2026-04-04T13:39:53Z</time></trkpt><trkpt lat="43.00739524351537" lon="13.048640166476433"><ele>558.0</ele><time>2026-04-04T13:39:54Z</time></trkpt><trkpt lat="43.00760968082208" lon="13.04860079531505"><ele>558.0</ele><time>2026-04-04T13:39:55Z</time></trkpt><trkpt lat="43.007823763918026" lon="13.04855820493021"><ele>558.0</ele><time>2026-04-04T13:39:56Z</time></trkpt><trkpt lat="43.00803394819668" lon="13.048505963889212"><ele>558.0</ele><time>2026-04-04T13:39:57Z</time></trkpt><trkpt lat="43.008241873933386" lon="13.048443881676077"><ele>558.3333333333334</ele><time>2026-04-04T13:39:58Z</time></trkpt><trkpt lat="43.00844790295525" lon="13.048375094093684"><ele>558.6666666666667</ele><time>2026-04-04T13:39:59Z</time></trkpt><trkpt lat="43.00865463572237" lon="13.048307017394382"><ele>559.0</ele><time>2026-04-04T13:40:00Z</time></trkpt><trkpt lat="43.00885710787884" lon="13.048238442031414"><ele>557.0</ele><time>2026-04-04T13:40:01Z</time></trkpt><trkpt lat="43.009062069423514" lon="13.048168474003237"><ele>555.0</ele><time>2026-04-04T13:40:02Z</time></trkpt><trkpt lat="43.0092631349735" lon="13.048099274971513"><ele>553.0</ele><time>2026-04-04T13:40:03Z</time></trkpt><trkpt lat="43.009460240295375" lon="13.048034748848435"><ele>553.0</ele><time>2026-04-04T13:40:04Z</time></trkpt><trkpt lat="43.00965393401715" lon="13.047975555097404"><ele>553.0</ele><time>2026-04-04T13:40:05Z</time></trkpt><trkpt lat="43.00983252298514" lon="13.04791493736681"><ele>553.0</ele><time>2026-04-04T13:40:06Z</time></trkpt><trkpt lat="43.00998732670971" lon="13.047861960900649"><ele>552.5</ele><time>2026-04-04T13:40:07Z</time></trkpt><trkpt lat="43.010117641303545" lon="13.047818780795277"><ele>552.0</ele><time>2026-04-04T13:40:08Z</time></trkpt><trkpt lat="43.010245013241516" lon="13.047792829765276"><ele>551.5</ele><time>2026-04-04T13:40:09Z</time></trkpt><trkpt lat="43.01038410674297" lon="13.04780235376187"><ele>551.0</ele><time>2026-04-04T13:40:10Z</time></trkpt><trkpt lat="43.01053090550051" lon="13.047820847289636"><ele>551.0</ele><time>2026-04-04T13:40:11Z</time></trkpt><trkpt lat="43.01068647192264" lon="13.04782796346277"><ele>551.0</ele><time>2026-04-04T13:40:12Z</time></trkpt><trkpt lat="43.010845270406314" lon="13.047816856289552"><ele>551.0</ele><time>2026-04-04T13:40:13Z</time></trkpt><trkpt lat="43.01099006089829" lon="13.047807487344619"><ele>551.25</ele><time>2026-04-04T13:40:14Z</time></trkpt><trkpt lat="43.01112344036931" lon="13.047800263707657"><ele>551.5</ele><time>2026-04-04T13:40:15Z</time></trkpt><trkpt lat="43.01126319230826" lon="13.047799503385626"><ele>551.75</ele><time>2026-04-04T13:40:16Z</time></trkpt><trkpt lat="43.01140077231476" lon="13.04782568566628"><ele>552.0</ele><time>2026-04-04T13:40:17Z</time></trkpt><trkpt lat="43.01154248002083" lon="13.047866482013353"><ele>552.25</ele><time>2026-04-04T13:40:18Z</time></trkpt><trkpt lat="43.011675045310824" lon="13.047909386100445"><ele>552.5</ele><time>2026-04-04T13:40:19Z</time></trkpt><trkpt lat="43.011804421470174" lon="13.047984397648777"><ele>552.75</ele><time>2026-04-04T13:40:20Z</time></trkpt><trkpt lat="43.011948200849616" lon="13.048088086361357"><ele>553.0</ele><time>2026-04-04T13:40:21Z</time></trkpt><trkpt lat="43.01210389309363" lon="13.048200104555185"><ele>555.3333333333334</ele><time>2026-04-04T13:40:22Z</time></trkpt><trkpt lat="43.01226373585921" lon="13.04831624704765"><ele>557.6666666666666</ele><time>2026-04-04T13:40:23Z</time></trkpt><trkpt lat="43.01241538317167" lon="13.048433559503827"><ele>560.0</ele><time>2026-04-04T13:40:24Z</time></trkpt><trkpt lat="43.01254379216911" lon="13.048542768587819"><ele>560.0</ele><time>2026-04-04T13:40:24.999Z</time></trkpt><trkpt lat="43.012649130030816" lon="13.048659467744445"><ele>560.0</ele><time>2026-04-04T13:40:25.999Z</time></trkpt><trkpt lat="43.012740487024644" lon="13.048797448244947"><ele>560.0</ele><time>2026-04-04T13:40:26.999Z</time></trkpt><trkpt lat="43.01282740582831" lon="13.048969811739983"><ele>560.0</ele><time>2026-04-04T13:40:27.999Z</time></trkpt><trkpt lat="43.01294146238008" lon="13.049132126243578"><ele>561.0</ele><time>2026-04-04T13:40:28.999Z</time></trkpt><trkpt lat="43.013082707619176" lon="13.049277762453686"><ele>562.0</ele><time>2026-04-04T13:40:29.999Z</time></trkpt><trkpt lat="43.01322715165953" lon="13.049435201240746"><ele>563.0</ele><time>2026-04-04T13:40:30.999Z</time></trkpt><trkpt lat="43.01336101801747" lon="13.049617558566498"><ele>563.0</ele><time>2026-04-04T13:40:31.999Z</time></trkpt><trkpt lat="43.01352795166867" lon="13.049737939535794"><ele>563.0</ele><time>2026-04-04T13:40:32.999Z</time></trkpt><trkpt lat="43.013714621767534" lon="13.04980099332044"><ele>563.0</ele><time>2026-04-04T13:40:33.999Z</time></trkpt><trkpt lat="43.013896762534415" lon="13.049876149165026"><ele>565.0</ele><time>2026-04-04T13:40:34.999Z</time></trkpt><trkpt lat="43.01407469252951" lon="13.04996070095321"><ele>567.0</ele><time>2026-04-04T13:40:36Z</time></trkpt><trkpt lat="43.01424180042198" lon="13.050055897126693"><ele>569.0</ele><time>2026-04-04T13:40:37Z</time></trkpt><trkpt lat="43.01439057232798" lon="13.050154103914487"><ele>569.5</ele><time>2026-04-04T13:40:38Z</time></trkpt><trkpt lat="43.0145222027161" lon="13.050242035866017"><ele>570.0</ele><time>2026-04-04T13:40:39Z</time></trkpt><trkpt lat="43.01464296251682" lon="13.050314213077193"><ele>570.5</ele><time>2026-04-04T13:40:40Z</time></trkpt><trkpt lat="43.01476271411774" lon="13.05038239975574"><ele>571.0</ele><time>2026-04-04T13:40:41Z</time></trkpt><trkpt lat="43.01487004652865" lon="13.050429870154128"><ele>571.0</ele><time>2026-04-04T13:40:42Z</time></trkpt><trkpt lat="43.01496605416806" lon="13.050461044794448"><ele>571.0</ele><time>2026-04-04T13:40:43Z</time></trkpt><trkpt lat="43.01504929141562" lon="13.050479706291398"><ele>571.0</ele><time>2026-04-04T13:40:44Z</time></trkpt><trkpt lat="43.01511827790022" lon="13.050490065869367"><ele>571.0</ele><time>2026-04-04T13:40:45Z</time></trkpt><trkpt lat="43.01523758263769" lon="13.050538360946282"><ele>571.0</ele><time>2026-04-04T13:40:47Z</time></trkpt><trkpt lat="43.01528223918215" lon="13.050631303502941"><ele>572.75</ele><time>2026-04-04T13:40:48Z</time></trkpt><trkpt lat="43.01535577521881" lon="13.050723520308315"><ele>574.5</ele><time>2026-04-04T13:40:49Z</time></trkpt><trkpt lat="43.0154523033051" lon="13.05081425120991"><ele>576.25</ele><time>2026-04-04T13:40:50Z</time></trkpt><trkpt lat="43.015523841685194" lon="13.05094494360685"><ele>578.0</ele><time>2026-04-04T13:40:51Z</time></trkpt><trkpt lat="43.015581630483" lon="13.051095436277544"><ele>578.0</ele><time>2026-04-04T13:40:52Z</time></trkpt><trkpt lat="43.01564574254281" lon="13.051256963183846"><ele>578.0</ele><time>2026-04-04T13:40:53Z</time></trkpt><trkpt lat="43.01575332647218" lon="13.051382408614407"><ele>578.0</ele><time>2026-04-04T13:40:54Z</time></trkpt><trkpt lat="43.01586312823805" lon="13.051513421842811"><ele>578.0</ele><time>2026-04-04T13:40:55Z</time></trkpt><trkpt lat="43.01598831412452" lon="13.051632732741576"><ele>577.0</ele><time>2026-04-04T13:40:56Z</time></trkpt><trkpt lat="43.0161170601837" lon="13.051755952555297"><ele>576.0</ele><time>2026-04-04T13:40:57Z</time></trkpt><trkpt lat="43.01624646917962" lon="13.05187442576046"><ele>575.0</ele><time>2026-04-04T13:40:58Z</time></trkpt><trkpt lat="43.0163745324541" lon="13.051996588816161"><ele>575.0</ele><time>2026-04-04T13:40:59Z</time></trkpt><trkpt lat="43.01649696101778" lon="13.052125862294025"><ele>575.0</ele><time>2026-04-04T13:41:00Z</time></trkpt><trkpt lat="43.01660925162976" lon="13.052268974022532"><ele>575.0</ele><time>2026-04-04T13:41:01Z</time></trkpt><trkpt lat="43.01670531149518" lon="13.05240831921414"><ele>575.0</ele><time>2026-04-04T13:41:02Z</time></trkpt><trkpt lat="43.01679661121279" lon="13.05255384662327"><ele>575.75</ele><time>2026-04-04T13:41:03Z</time></trkpt><trkpt lat="43.01686477481074" lon="13.052725373586734"><ele>576.5</ele><time>2026-04-04T13:41:04Z</time></trkpt><trkpt lat="43.016937583544475" lon="13.052901977851741"><ele>577.25</ele><time>2026-04-04T13:41:05Z</time></trkpt><trkpt lat="43.01701256716537" lon="13.053086116560964"><ele>578.0</ele><time>2026-04-04T13:41:06Z</time></trkpt><trkpt lat="43.017090249918816" lon="13.053277949544825"><ele>579.3333333333333</ele><time>2026-04-04T13:41:07Z</time></trkpt><trkpt lat="43.017169268509754" lon="13.053473081322439"><ele>580.6666666666666</ele><time>2026-04-04T13:41:08Z</time></trkpt><trkpt lat="43.01725199530269" lon="13.053674274292975"><ele>582.0</ele><time>2026-04-04T13:41:09Z</time></trkpt><trkpt lat="43.01734385994192" lon="13.053874010427583"><ele>582.0</ele><time>2026-04-04T13:41:10Z</time></trkpt><trkpt lat="43.01743786699111" lon="13.054065628164878"><ele>582.0</ele><time>2026-04-04T13:41:11Z</time></trkpt><trkpt lat="43.017529595582914" lon="13.054250259433621"><ele>582.0</ele><time>2026-04-04T13:41:12Z</time></trkpt><trkpt lat="43.01761677166229" lon="13.054437626485175"><ele>581.0</ele><time>2026-04-04T13:41:13Z</time></trkpt><trkpt lat="43.01769998306996" lon="13.054620655529275"><ele>580.0</ele><time>2026-04-04T13:41:14Z</time></trkpt><trkpt lat="43.017787885055355" lon="13.05480024421508"><ele>579.0</ele><time>2026-04-04T13:41:15Z</time></trkpt><trkpt lat="43.01789174850318" lon="13.054973288520204"><ele>579.0</ele><time>2026-04-04T13:41:16Z</time></trkpt><trkpt lat="43.01801664112024" lon="13.055116069934709"><ele>579.0</ele><time>2026-04-04T13:41:17Z</time></trkpt><trkpt lat="43.01813150117017" lon="13.055261040015743"><ele>579.0</ele><time>2026-04-04T13:41:18Z</time></trkpt><trkpt lat="43.01823198807092" lon="13.055410613418768"><ele>576.75</ele><time>2026-04-04T13:41:19Z</time></trkpt><trkpt lat="43.01833012562984" lon="13.05553189697783"><ele>574.5</ele><time>2026-04-04T13:41:20Z</time></trkpt><trkpt lat="43.01841219370405" lon="13.055644885313965"><ele>572.25</ele><time>2026-04-04T13:41:21Z</time></trkpt><trkpt lat="43.018469481918814" lon="13.055764250551096"><ele>570.0</ele><time>2026-04-04T13:41:22Z</time></trkpt><trkpt lat="43.01850351789981" lon="13.055926218691905"><ele>570.0</ele><time>2026-04-04T13:41:23Z</time></trkpt><trkpt lat="43.018539834788236" lon="13.05612232024616"><ele>570.0</ele><time>2026-04-04T13:41:24Z</time></trkpt><trkpt lat="43.01857588487602" lon="13.056328493747385"><ele>570.0</ele><time>2026-04-04T13:41:25Z</time></trkpt><trkpt lat="43.018619188213" lon="13.05655140938752"><ele>570.0</ele><time>2026-04-04T13:41:26Z</time></trkpt><trkpt lat="43.01868267442895" lon="13.056782296766722"><ele>570.0</ele><time>2026-04-04T13:41:27Z</time></trkpt><trkpt lat="43.0187633866514" lon="13.05700696989926"><ele>570.0</ele><time>2026-04-04T13:41:28Z</time></trkpt><trkpt lat="43.018833491809445" lon="13.057227963287081"><ele>570.6666666666666</ele><time>2026-04-04T13:41:29Z</time></trkpt><trkpt lat="43.018901777106784" lon="13.057458911583883"><ele>571.3333333333333</ele><time>2026-04-04T13:41:30Z</time></trkpt><trkpt lat="43.0189720622486" lon="13.057686333215218"><ele>572.0</ele><time>2026-04-04T13:41:31Z</time></trkpt><trkpt lat="43.019040967851865" lon="13.057910775443156"><ele>572.0</ele><time>2026-04-04T13:41:32Z</time></trkpt><trkpt lat="43.01910876199858" lon="13.058138021162645"><ele>572.0</ele><time>2026-04-04T13:41:33Z</time></trkpt><trkpt lat="43.01916605964585" lon="13.058361982059553"><ele>572.0</ele><time>2026-04-04T13:41:34Z</time></trkpt><trkpt lat="43.01919695445593" lon="13.05858954849738"><ele>569.3333333333333</ele><time>2026-04-04T13:41:35Z</time></trkpt><trkpt lat="43.01921478593452" lon="13.058808310212614"><ele>566.6666666666666</ele><time>2026-04-04T13:41:36Z</time></trkpt><trkpt lat="43.01924991998641" lon="13.059008238867019"><ele>564.0</ele><time>2026-04-04T13:41:37Z</time></trkpt><trkpt lat="43.01931546750378" lon="13.059175966299943"><ele>563.25</ele><time>2026-04-04T13:41:38Z</time></trkpt><trkpt lat="43.01940673123366" lon="13.059327909025628"><ele>562.5</ele><time>2026-04-04T13:41:39Z</time></trkpt><trkpt lat="43.01951905105947" lon="13.059450918259124"><ele>561.75</ele><time>2026-04-04T13:41:40Z</time></trkpt><trkpt lat="43.01962908026168" lon="13.059588882317808"><ele>561.0</ele><time>2026-04-04T13:41:41Z</time></trkpt><trkpt lat="43.01972676607563" lon="13.059736858120669"><ele>561.0</ele><time>2026-04-04T13:41:42Z</time></trkpt><trkpt lat="43.01980485238619" lon="13.059896483883454"><ele>561.0</ele><time>2026-04-04T13:41:43Z</time></trkpt><trkpt lat="43.019865658910355" lon="13.060072001299533"><ele>561.0</ele><time>2026-04-04T13:41:44Z</time></trkpt><trkpt lat="43.01992216428145" lon="13.060274072556663"><ele>561.0</ele><time>2026-04-04T13:41:45Z</time></trkpt><trkpt lat="43.01997631868817" lon="13.060487994823584"><ele>563.6666666666666</ele><time>2026-04-04T13:41:46Z</time></trkpt><trkpt lat="43.02002865026966" lon="13.060708988850608"><ele>566.3333333333333</ele><time>2026-04-04T13:41:47Z</time></trkpt><trkpt lat="43.020081190631046" lon="13.060919623944034"><ele>569.0</ele><time>2026-04-04T13:41:48Z</time></trkpt><trkpt lat="43.020140976493686" lon="13.06110877352323"><ele>569.0</ele><time>2026-04-04T13:41:49Z</time></trkpt><trkpt lat="43.02021714835426" lon="13.061285523942257"><ele>569.0</ele><time>2026-04-04T13:41:50Z</time></trkpt><trkpt lat="43.02032097444404" lon="13.061435402651702"><ele>569.0</ele><time>2026-04-04T13:41:51Z</time></trkpt><trkpt lat="43.02044182443303" lon="13.061562048527163"><ele>569.0</ele><time>2026-04-04T13:41:52Z</time></trkpt><trkpt lat="43.02058172620328" lon="13.06161310566285"><ele>569.0</ele><time>2026-04-04T13:41:53Z</time></trkpt><trkpt lat="43.02071584446988" lon="13.061662176828353"><ele>569.0</ele><time>2026-04-04T13:41:54Z</time></trkpt><trkpt lat="43.02084852231825" lon="13.061680125260132"><ele>569.0</ele><time>2026-04-04T13:41:55Z</time></trkpt><trkpt lat="43.02095702486352" lon="13.061726934210107"><ele>570.0</ele><time>2026-04-04T13:41:56Z</time></trkpt><trkpt lat="43.02102898496912" lon="13.06188257878497"><ele>571.0</ele><time>2026-04-04T13:41:57Z</time></trkpt><trkpt lat="43.021130309837794" lon="13.06201835625374"><ele>572.0</ele><time>2026-04-04T13:41:58Z</time></trkpt><trkpt lat="43.021248245314794" lon="13.062164900729641"><ele>573.0</ele><time>2026-04-04T13:41:59Z</time></trkpt><trkpt lat="43.021378068215135" lon="13.062297755379985"><ele>573.0</ele><time>2026-04-04T13:42:00Z</time></trkpt><trkpt lat="43.021518065475554" lon="13.062418696822617"><ele>573.0</ele><time>2026-04-04T13:42:01Z</time></trkpt><trkpt lat="43.02166872216655" lon="13.062517547001448"><ele>573.0</ele><time>2026-04-04T13:42:02Z</time></trkpt><trkpt lat="43.02181791776966" lon="13.06262387170734"><ele>574.6666666666666</ele><time>2026-04-04T13:42:03Z</time></trkpt><trkpt lat="43.02197028390388" lon="13.062718383732163"><ele>576.3333333333333</ele><time>2026-04-04T13:42:04Z</time></trkpt><trkpt lat="43.02211533492524" lon="13.062827011980891"><ele>578.0</ele><time>2026-04-04T13:42:05Z</time></trkpt><trkpt lat="43.0222549305951" lon="13.062895069700954"><ele>578.0</ele><time>2026-04-04T13:42:06Z</time></trkpt><trkpt lat="43.02236762683091" lon="13.062953310960259"><ele>578.0</ele><time>2026-04-04T13:42:07Z</time></trkpt><trkpt lat="43.02245845310306" lon="13.0630248456855"><ele>578.0</ele><time>2026-04-04T13:42:08Z</time></trkpt><trkpt lat="43.022532487095255" lon="13.063142812297794"><ele>578.0</ele><time>2026-04-04T13:42:09Z</time></trkpt><trkpt lat="43.022583270081086" lon="13.063284474873834"><ele>580.3333333333333</ele><time>2026-04-04T13:42:10Z</time></trkpt><trkpt lat="43.022632724287796" lon="13.06345087094882"><ele>582.6666666666666</ele><time>2026-04-04T13:42:11Z</time></trkpt><trkpt lat="43.02268509116605" lon="13.063648119337408"><ele>585.0</ele><time>2026-04-04T13:42:12Z</time></trkpt><trkpt lat="43.02272942812864" lon="13.063872066124901"><ele>587.3333333333334</ele><time>2026-04-04T13:42:13Z</time></trkpt><trkpt lat="43.022754272114454" lon="13.064113936893659"><ele>589.6666666666667</ele><time>2026-04-04T13:42:14Z</time></trkpt><trkpt lat="43.02276860636138" lon="13.064376716361544"><ele>592.0</ele><time>2026-04-04T13:42:15Z</time></trkpt><trkpt lat="43.0227834128313" lon="13.064637146334121"><ele>592.0</ele><time>2026-04-04T13:42:16Z</time></trkpt><trkpt lat="43.022798171516946" lon="13.064865995713918"><ele>592.0</ele><time>2026-04-04T13:42:17Z</time></trkpt><trkpt lat="43.02281145064425" lon="13.065055732790983"><ele>592.0</ele><time>2026-04-04T13:42:18Z</time></trkpt><trkpt lat="43.02280997920771" lon="13.065220978280701"><ele>592.0</ele><time>2026-04-04T13:42:19Z</time></trkpt><trkpt lat="43.02277779208301" lon="13.065388250482686"><ele>591.75</ele><time>2026-04-04T13:42:20Z</time></trkpt><trkpt lat="43.022728608910974" lon="13.065568203725036"><ele>591.5</ele><time>2026-04-04T13:42:21Z</time></trkpt><trkpt lat="43.0227051741391" lon="13.065764873781669"><ele>591.25</ele><time>2026-04-04T13:42:22Z</time></trkpt><trkpt lat="43.02272216513532" lon="13.06597461798892"><ele>591.0</ele><time>2026-04-04T13:42:23Z</time></trkpt><trkpt lat="43.02272874884" lon="13.066214975292064"><ele>591.0</ele><time>2026-04-04T13:42:24Z</time></trkpt><trkpt lat="43.02271362693597" lon="13.066469012053762"><ele>591.0</ele><time>2026-04-04T13:42:25Z</time></trkpt><trkpt lat="43.022688634108924" lon="13.066738098406407"><ele>591.0</ele><time>2026-04-04T13:42:26Z</time></trkpt><trkpt lat="43.02266136781521" lon="13.067005407863432"><ele>592.3333333333334</ele><time>2026-04-04T13:42:27Z</time></trkpt><trkpt lat="43.02262832995606" lon="13.067258915644599"><ele>593.6666666666667</ele><time>2026-04-04T13:42:28Z</time></trkpt><trkpt lat="43.02259722906622" lon="13.067480496066917"><ele>595.0</ele><time>2026-04-04T13:42:29Z</time></trkpt><trkpt lat="43.02257552054106" lon="13.067687335314512"><ele>596.3333333333334</ele><time>2026-04-04T13:42:30Z</time></trkpt><trkpt lat="43.02258299250098" lon="13.067901683925898"><ele>597.6666666666666</ele><time>2026-04-04T13:42:31Z</time></trkpt><trkpt lat="43.02263507493809" lon="13.068115473094647"><ele>599.0</ele><time>2026-04-04T13:42:32Z</time></trkpt><trkpt lat="43.0227037416353" lon="13.06832803050507"><ele>600.3333333333333</ele><time>2026-04-04T13:42:33Z</time></trkpt><trkpt lat="43.022771866243126" lon="13.068529259446445"><ele>601.6666666666666</ele><time>2026-04-04T13:42:34Z</time></trkpt><trkpt lat="43.022842671653486" lon="13.068699003140317"><ele>603.0</ele><time>2026-04-04T13:42:35Z</time></trkpt><trkpt lat="43.022956066790414" lon="13.068842532041222"><ele>603.0</ele><time>2026-04-04T13:42:36Z</time></trkpt><trkpt lat="43.02309345317919" lon="13.068963261919427"><ele>603.0</ele><time>2026-04-04T13:42:37Z</time></trkpt><trkpt lat="43.023253334370786" lon="13.06907966474572"><ele>603.0</ele><time>2026-04-04T13:42:38Z</time></trkpt><trkpt lat="43.02341583808886" lon="13.069204612091875"><ele>607.0</ele><time>2026-04-04T13:42:39Z</time></trkpt><trkpt lat="43.02357602722497" lon="13.069344809417295"><ele>611.0</ele><time>2026-04-04T13:42:40Z</time></trkpt><trkpt lat="43.02373874942142" lon="13.069498755343062"><ele>615.0</ele><time>2026-04-04T13:42:41Z</time></trkpt><trkpt lat="43.023899366489864" lon="13.069652047851578"><ele>615.0</ele><time>2026-04-04T13:42:42Z</time></trkpt><trkpt lat="43.024038990318545" lon="13.069785860077475"><ele>615.0</ele><time>2026-04-04T13:42:43Z</time></trkpt><trkpt lat="43.024148858343665" lon="13.06991752915495"><ele>615.0</ele><time>2026-04-04T13:42:44Z</time></trkpt><trkpt lat="43.024216045629196" lon="13.070102517181706"><ele>617.6666666666666</ele><time>2026-04-04T13:42:45Z</time></trkpt><trkpt lat="43.02428640253062" lon="13.070313296991397"><ele>620.3333333333333</ele><time>2026-04-04T13:42:46Z</time></trkpt><trkpt lat="43.0243457908014" lon="13.070524951422701"><ele>623.0</ele><time>2026-04-04T13:42:47Z</time></trkpt><trkpt lat="43.024386866149875" lon="13.070711086021806"><ele>622.25</ele><time>2026-04-04T13:42:48Z</time></trkpt><trkpt lat="43.024433771120705" lon="13.07087678298381"><ele>621.5</ele><time>2026-04-04T13:42:49Z</time></trkpt><trkpt lat="43.02452516994997" lon="13.070999124931088"><ele>620.75</ele><time>2026-04-04T13:42:50Z</time></trkpt><trkpt lat="43.02465563416802" lon="13.071097315805781"><ele>620.0</ele><time>2026-04-04T13:42:51Z</time></trkpt><trkpt lat="43.02479880637788" lon="13.07120147968317"><ele>620.0</ele><time>2026-04-04T13:42:52Z</time></trkpt><trkpt lat="43.02494561606352" lon="13.07130620903734"><ele>620.0</ele><time>2026-04-04T13:42:53Z</time></trkpt><trkpt lat="43.025090539754935" lon="13.071427967692093"><ele>620.0</ele><time>2026-04-04T13:42:54Z</time></trkpt><trkpt lat="43.02522969048264" lon="13.07156637870727"><ele>623.3333333333333</ele><time>2026-04-04T13:42:55Z</time></trkpt><trkpt lat="43.02536785584584" lon="13.071709810980314"><ele>626.6666666666666</ele><time>2026-04-04T13:42:56Z</time></trkpt><trkpt lat="43.02549380428853" lon="13.07187002396872"><ele>630.0</ele><time>2026-04-04T13:42:57Z</time></trkpt><trkpt lat="43.02561218433494" lon="13.072048683148445"><ele>630.0</ele><time>2026-04-04T13:42:58Z</time></trkpt><trkpt lat="43.025718793820516" lon="13.072232799566141"><ele>630.0</ele><time>2026-04-04T13:42:59Z</time></trkpt><trkpt lat="43.025827112539275" lon="13.072434095162167"><ele>630.0</ele><time>2026-04-04T13:43:00Z</time></trkpt><trkpt lat="43.02593924283274" lon="13.072634914359325"><ele>633.3333333333334</ele><time>2026-04-04T13:43:01Z</time></trkpt><trkpt lat="43.02606500355133" lon="13.072827762827387"><ele>636.6666666666667</ele><time>2026-04-04T13:43:02Z</time></trkpt><trkpt lat="43.026187220870625" lon="13.073016418351019"><ele>640.0</ele><time>2026-04-04T13:43:03Z</time></trkpt><trkpt lat="43.02630317256929" lon="13.073201549012104"><ele>641.0</ele><time>2026-04-04T13:43:04Z</time></trkpt><trkpt lat="43.026426091201394" lon="13.073347305198814"><ele>642.0</ele><time>2026-04-04T13:43:05Z</time></trkpt><trkpt lat="43.02656934564079" lon="13.073455365509798"><ele>643.0</ele><time>2026-04-04T13:43:06Z</time></trkpt><trkpt lat="43.02670361451197" lon="13.073543767271449"><ele>644.4</ele><time>2026-04-04T13:43:07Z</time></trkpt><trkpt lat="43.026816156438024" lon="13.07363422894826"><ele>645.8</ele><time>2026-04-04T13:43:08Z</time></trkpt><trkpt lat="43.026893166809096" lon="13.073730872375197"><ele>647.2</ele><time>2026-04-04T13:43:09Z</time></trkpt><trkpt lat="43.02691191067868" lon="13.073839419702555"><ele>648.6</ele><time>2026-04-04T13:43:10Z</time></trkpt><trkpt lat="43.026895457972444" lon="13.073949344684998"><ele>650.0</ele><time>2026-04-04T13:43:11Z</time></trkpt><trkpt lat="43.026842873010835" lon="13.074037640863322"><ele>650.5</ele><time>2026-04-04T13:43:12Z</time></trkpt><trkpt lat="43.02673694259336" lon="13.074108306300491"><ele>651.0</ele><time>2026-04-04T13:43:13Z</time></trkpt><trkpt lat="43.02660322632429" lon="13.074145250933388"><ele>651.5</ele><time>2026-04-04T13:43:14Z</time></trkpt><trkpt lat="43.02645112814171" lon="13.074179577411462"><ele>652.0</ele><time>2026-04-04T13:43:15Z</time></trkpt><trkpt lat="43.026281348330734" lon="13.074130187191148"><ele>651.0</ele><time>2026-04-04T13:43:16Z</time></trkpt><trkpt lat="43.026104626538554" lon="13.074061407720853"><ele>650.0</ele><time>2026-04-04T13:43:17Z</time></trkpt><trkpt lat="43.02591854390921" lon="13.074036905062192"><ele>649.0</ele><time>2026-04-04T13:43:18Z</time></trkpt><trkpt lat="43.02574898212367" lon="13.074024102368817"><ele>649.0</ele><time>2026-04-04T13:43:19Z</time></trkpt><trkpt lat="43.02558335511325" lon="13.074034999045397"><ele>649.0</ele><time>2026-04-04T13:43:20Z</time></trkpt><trkpt lat="43.02541862260863" lon="13.074078662759101"><ele>649.0</ele><time>2026-04-04T13:43:21Z</time></trkpt><trkpt lat="43.02527801738612" lon="13.074160966318281"><ele>649.5</ele><time>2026-04-04T13:43:22Z</time></trkpt><trkpt lat="43.025146917225356" lon="13.074185044343645"><ele>650.0</ele><time>2026-04-04T13:43:23Z</time></trkpt><trkpt lat="43.02501613833116" lon="13.074193834129167"><ele>650.5</ele><time>2026-04-04T13:43:24Z</time></trkpt><trkpt lat="43.024906914336555" lon="13.074072208892002"><ele>651.0</ele><time>2026-04-04T13:43:25Z</time></trkpt><trkpt lat="43.02479345626769" lon="13.073976402024389"><ele>651.0</ele><time>2026-04-04T13:43:26Z</time></trkpt><trkpt lat="43.02470063244125" lon="13.073892027887487"><ele>651.0</ele><time>2026-04-04T13:43:27Z</time></trkpt><trkpt lat="43.02460987812763" lon="13.073853587965464"><ele>651.0</ele><time>2026-04-04T13:43:28Z</time></trkpt><trkpt lat="43.024536619877864" lon="13.073834921576069"><ele>651.0</ele><time>2026-04-04T13:43:29Z</time></trkpt><trkpt lat="43.02447802021555" lon="13.07391177375591"><ele>651.0</ele><time>2026-04-04T13:43:30Z</time></trkpt><trkpt lat="43.024465418025066" lon="13.074030437217365"><ele>654.5</ele><time>2026-04-04T13:43:31Z</time></trkpt><trkpt lat="43.02456226665788" lon="13.074129036336075"><ele>658.0</ele><time>2026-04-04T13:43:32Z</time></trkpt><trkpt lat="43.024657882456935" lon="13.0742145593916"><ele>661.5</ele><time>2026-04-04T13:43:33Z</time></trkpt><trkpt lat="43.024765358488864" lon="13.074341449052264"><ele>665.0</ele><time>2026-04-04T13:43:34Z</time></trkpt><trkpt lat="43.0248985769377" lon="13.074463653181033"><ele>664.75</ele><time>2026-04-04T13:43:35Z</time></trkpt><trkpt lat="43.02500490562214" lon="13.074607207234896"><ele>664.5</ele><time>2026-04-04T13:43:36Z</time></trkpt><trkpt lat="43.025102704786605" lon="13.074722410436785"><ele>664.25</ele><time>2026-04-04T13:43:37Z</time></trkpt><trkpt lat="43.025193897742476" lon="13.074781911768163"><ele>664.0</ele><time>2026-04-04T13:43:38Z</time></trkpt><trkpt lat="43.02527987391366" lon="13.07476619384453"><ele>664.0</ele><time>2026-04-04T13:43:39Z</time></trkpt><trkpt lat="43.025353425695776" lon="13.07466749690105"><ele>664.0</ele><time>2026-04-04T13:43:40Z</time></trkpt><trkpt lat="43.025437225855676" lon="13.074572974290222"><ele>664.0</ele><time>2026-04-04T13:43:41Z</time></trkpt><trkpt lat="43.02555021517666" lon="13.074573738319039"><ele>664.0</ele><time>2026-04-04T13:43:42Z</time></trkpt><trkpt lat="43.02568658275708" lon="13.074620417903457"><ele>661.3333333333334</ele><time>2026-04-04T13:43:43Z</time></trkpt><trkpt lat="43.02583967625737" lon="13.074706876198817"><ele>658.6666666666666</ele><time>2026-04-04T13:43:44Z</time></trkpt><trkpt lat="43.02598703617072" lon="13.07478428062885"><ele>656.0</ele><time>2026-04-04T13:43:45Z</time></trkpt><trkpt lat="43.02613385893288" lon="13.074839827838556"><ele>656.0</ele><time>2026-04-04T13:43:46Z</time></trkpt><trkpt lat="43.02625745523074" lon="13.074887502977639"><ele>656.0</ele><time>2026-04-04T13:43:47Z</time></trkpt><trkpt lat="43.02635173269143" lon="13.0749897662942"><ele>656.0</ele><time>2026-04-04T13:43:48Z</time></trkpt><trkpt lat="43.02643044122596" lon="13.075142716618275"><ele>656.0</ele><time>2026-04-04T13:43:49Z</time></trkpt><trkpt lat="43.02653684944792" lon="13.07530643672699"><ele>660.6666666666666</ele><time>2026-04-04T13:43:50Z</time></trkpt><trkpt lat="43.02665116203418" lon="13.075476749750656"><ele>665.3333333333334</ele><time>2026-04-04T13:43:51Z</time></trkpt><trkpt lat="43.02678944620746" lon="13.075621343181146"><ele>670.0</ele><time>2026-04-04T13:43:52Z</time></trkpt><trkpt lat="43.026920387205855" lon="13.075766323875536"><ele>677.6666666666667</ele><time>2026-04-04T13:43:53Z</time></trkpt><trkpt lat="43.02700132095322" lon="13.075960920153165"><ele>685.3333333333334</ele><time>2026-04-04T13:43:54Z</time></trkpt><trkpt lat="43.02711866882773" lon="13.076098321922037"><ele>693.0</ele><time>2026-04-04T13:43:55Z</time></trkpt><trkpt lat="43.0272591318755" lon="13.076202409245665"><ele>693.0</ele><time>2026-04-04T13:43:56Z</time></trkpt><trkpt lat="43.02740590675897" lon="13.076294141333179"><ele>693.0</ele><time>2026-04-04T13:43:57Z</time></trkpt><trkpt lat="43.02750983821787" lon="13.07642267889768"><ele>693.0</ele><time>2026-04-04T13:43:58Z</time></trkpt><trkpt lat="43.02758876534882" lon="13.07653291735222"><ele>693.0</ele><time>2026-04-04T13:43:59Z</time></trkpt><trkpt lat="43.02764693575299" lon="13.076646577427516"><ele>693.2</ele><time>2026-04-04T13:44:00Z</time></trkpt><trkpt lat="43.027697481568595" lon="13.076759028109985"><ele>693.4</ele><time>2026-04-04T13:44:01Z</time></trkpt><trkpt lat="43.027766739113204" lon="13.076854604899312"><ele>693.6</ele><time>2026-04-04T13:44:02Z</time></trkpt><trkpt lat="43.02785301703582" lon="13.076941609447278"><ele>693.8000000000001</ele><time>2026-04-04T13:44:03Z</time></trkpt><trkpt lat="43.027982322414374" lon="13.076997478129503"><ele>694.0</ele><time>2026-04-04T13:44:04Z</time></trkpt><trkpt lat="43.02812280924483" lon="13.07704181072402"><ele>694.0</ele><time>2026-04-04T13:44:05Z</time></trkpt><trkpt lat="43.02827383833714" lon="13.077123432053982"><ele>694.0</ele><time>2026-04-04T13:44:06Z</time></trkpt><trkpt lat="43.02843618763573" lon="13.077200688661945"><ele>694.0</ele><time>2026-04-04T13:44:07Z</time></trkpt><trkpt lat="43.028611327368274" lon="13.0772856564047"><ele>691.0</ele><time>2026-04-04T13:44:08Z</time></trkpt><trkpt lat="43.02876345510641" lon="13.077437378232137"><ele>688.0</ele><time>2026-04-04T13:44:09Z</time></trkpt><trkpt lat="43.028914469164896" lon="13.077594705466966"><ele>685.0</ele><time>2026-04-04T13:44:10Z</time></trkpt><trkpt lat="43.02904829910861" lon="13.07778054330238"><ele>685.6666666666667</ele><time>2026-04-04T13:44:11Z</time></trkpt><trkpt lat="43.02918894077882" lon="13.07796869060992"><ele>686.3333333333334</ele><time>2026-04-04T13:44:12Z</time></trkpt><trkpt lat="43.02932530588478" lon="13.078140110286446"><ele>687.0</ele><time>2026-04-04T13:44:13Z</time></trkpt><trkpt lat="43.02945081590976" lon="13.078296635910641"><ele>682.75</ele><time>2026-04-04T13:44:14Z</time></trkpt><trkpt lat="43.02956246749048" lon="13.078429232082232"><ele>678.5</ele><time>2026-04-04T13:44:15Z</time></trkpt><trkpt lat="43.02967612895953" lon="13.078516257281317"><ele>674.25</ele><time>2026-04-04T13:44:16Z</time></trkpt><trkpt lat="43.02978279323827" lon="13.078579791493722"><ele>670.0</ele><time>2026-04-04T13:44:17Z</time></trkpt><trkpt lat="43.02987348452419" lon="13.07865071027245"><ele>670.0</ele><time>2026-04-04T13:44:18Z</time></trkpt><trkpt lat="43.02992413410548" lon="13.078728725708388"><ele>670.0</ele><time>2026-04-04T13:44:19Z</time></trkpt><trkpt lat="43.02995730161524" lon="13.07884623881043"><ele>670.0</ele><time>2026-04-04T13:44:20Z</time></trkpt><trkpt lat="43.029953817861454" lon="13.078955720134644"><ele>670.0</ele><time>2026-04-04T13:44:21Z</time></trkpt><trkpt lat="43.02987565649786" lon="13.079049378324113"><ele>670.0</ele><time>2026-04-04T13:44:23Z</time></trkpt><trkpt lat="43.02979923621358" lon="13.079044645191448"><ele>670.0</ele><time>2026-04-04T13:44:24Z</time></trkpt><trkpt lat="43.029716721437076" lon="13.078934702515173"><ele>670.0</ele><time>2026-04-04T13:44:25Z</time></trkpt><trkpt lat="43.02962384961131" lon="13.07880482221918"><ele>670.0</ele><time>2026-04-04T13:44:26Z</time></trkpt><trkpt lat="43.02951014821858" lon="13.07867096717291"><ele>670.0</ele><time>2026-04-04T13:44:27Z</time></trkpt><trkpt lat="43.02939891874035" lon="13.0785427402504"><ele>670.0</ele><time>2026-04-04T13:44:28Z</time></trkpt><trkpt lat="43.02929670807686" lon="13.078447488434824"><ele>670.0</ele><time>2026-04-04T13:44:29Z</time></trkpt><trkpt lat="43.02919910949539" lon="13.078402480160776"><ele>670.0</ele><time>2026-04-04T13:44:30Z</time></trkpt><trkpt lat="43.02911052056979" lon="13.078407763283774"><ele>670.0</ele><time>2026-04-04T13:44:31Z</time></trkpt><trkpt lat="43.02903359333827" lon="13.078436324442727"><ele>670.0</ele><time>2026-04-04T13:44:32Z</time></trkpt><trkpt lat="43.0289755945023" lon="13.078534312962157"><ele>670.0</ele><time>2026-04-04T13:44:33Z</time></trkpt><trkpt lat="43.028970409476" lon="13.078700317285165"><ele>668.75</ele><time>2026-04-04T13:44:34Z</time></trkpt><trkpt lat="43.02901444542766" lon="13.078877660261512"><ele>667.5</ele><time>2026-04-04T13:44:35Z</time></trkpt><trkpt lat="43.029073444073354" lon="13.079067721631338"><ele>666.25</ele><time>2026-04-04T13:44:36Z</time></trkpt><trkpt lat="43.02914154072611" lon="13.079259469801483"><ele>665.0</ele><time>2026-04-04T13:44:37Z</time></trkpt><trkpt lat="43.02921647663308" lon="13.079453563931889"><ele>665.0</ele><time>2026-04-04T13:44:38Z</time></trkpt><trkpt lat="43.02927612412605" lon="13.079616628153083"><ele>665.0</ele><time>2026-04-04T13:44:39Z</time></trkpt><trkpt lat="43.0293117411805" lon="13.079749027664262"><ele>665.0</ele><time>2026-04-04T13:44:40Z</time></trkpt><trkpt lat="43.02930478843178" lon="13.079872507633562"><ele>665.0</ele><time>2026-04-04T13:44:41Z</time></trkpt><trkpt lat="43.02927255858855" lon="13.08001504165725"><ele>665.0</ele><time>2026-04-04T13:44:42Z</time></trkpt><trkpt lat="43.029242781503704" lon="13.080175623758175"><ele>663.0</ele><time>2026-04-04T13:44:43Z</time></trkpt><trkpt lat="43.02920245228592" lon="13.080310874884592"><ele>661.0</ele><time>2026-04-04T13:44:44Z</time></trkpt><trkpt lat="43.0291301470103" lon="13.080427431394678"><ele>659.0</ele><time>2026-04-04T13:44:45Z</time></trkpt><trkpt lat="43.02901653179725" lon="13.080556595273999"><ele>657.0</ele><time>2026-04-04T13:44:46Z</time></trkpt><trkpt lat="43.02889550008805" lon="13.080708616209789"><ele>658.3333333333334</ele><time>2026-04-04T13:44:47Z</time></trkpt><trkpt lat="43.02876946579357" lon="13.080857311677422"><ele>659.6666666666667</ele><time>2026-04-04T13:44:48Z</time></trkpt><trkpt lat="43.0286517139373" lon="13.080988881358499"><ele>661.0</ele><time>2026-04-04T13:44:49Z</time></trkpt><trkpt lat="43.02853121469955" lon="13.08109234450083"><ele>661.0</ele><time>2026-04-04T13:44:50Z</time></trkpt><trkpt lat="43.028398742331476" lon="13.08118861330604"><ele>661.0</ele><time>2026-04-04T13:44:51Z</time></trkpt><trkpt lat="43.02826094600512" lon="13.08130656646093"><ele>661.0</ele><time>2026-04-04T13:44:52Z</time></trkpt><trkpt lat="43.02813762086992" lon="13.081435028173573"><ele>659.0</ele><time>2026-04-04T13:44:53Z</time></trkpt><trkpt lat="43.02801800872688" lon="13.081554319082182"><ele>657.0</ele><time>2026-04-04T13:44:54Z</time></trkpt><trkpt lat="43.02790870477162" lon="13.081648338186751"><ele>655.0</ele><time>2026-04-04T13:44:55Z</time></trkpt><trkpt lat="43.02781682729241" lon="13.081734095043787"><ele>653.0</ele><time>2026-04-04T13:44:56Z</time></trkpt><trkpt lat="43.027731629113354" lon="13.081829450088732"><ele>653.0</ele><time>2026-04-04T13:44:57Z</time></trkpt><trkpt lat="43.02766867474724" lon="13.081950334335504"><ele>653.0</ele><time>2026-04-04T13:44:58Z</time></trkpt><trkpt lat="43.02763630030508" lon="13.082077206386591"><ele>653.0</ele><time>2026-04-04T13:44:59Z</time></trkpt><trkpt lat="43.02764378413008" lon="13.082230905608224"><ele>653.0</ele><time>2026-04-04T13:45:00Z</time></trkpt><trkpt lat="43.027682671655405" lon="13.082373228072868"><ele>653.0</ele><time>2026-04-04T13:45:01Z</time></trkpt><trkpt lat="43.02778302041088" lon="13.08249993936288"><ele>648.25</ele><time>2026-04-04T13:45:02Z</time></trkpt><trkpt lat="43.02790248259921" lon="13.082600232833663"><ele>643.5</ele><time>2026-04-04T13:45:03Z</time></trkpt><trkpt lat="43.028022466517776" lon="13.08272650725729"><ele>638.75</ele><time>2026-04-04T13:45:04Z</time></trkpt><trkpt lat="43.028147729810165" lon="13.082834767197692"><ele>634.0</ele><time>2026-04-04T13:45:05Z</time></trkpt><trkpt lat="43.028261826325114" lon="13.082934181715594"><ele>632.0</ele><time>2026-04-04T13:45:06Z</time></trkpt><trkpt lat="43.02835740009955" lon="13.08302381185855"><ele>630.0</ele><time>2026-04-04T13:45:07Z</time></trkpt><trkpt lat="43.02842782823041" lon="13.08310703780275"><ele>628.0</ele><time>2026-04-04T13:45:08Z</time></trkpt><trkpt lat="43.0284655358935" lon="13.08320309588961"><ele>626.0</ele><time>2026-04-04T13:45:09Z</time></trkpt><trkpt lat="43.0284872266588" lon="13.083296404013716"><ele>624.0</ele><time>2026-04-04T13:45:10Z</time></trkpt><trkpt lat="43.028432205367004" lon="13.083374732874322"><ele>622.0</ele><time>2026-04-04T13:45:11Z</time></trkpt><trkpt lat="43.02837859356049" lon="13.083489615341009"><ele>622.25</ele><time>2026-04-04T13:45:12Z</time></trkpt><trkpt lat="43.02830253687964" lon="13.083639325057838"><ele>622.5</ele><time>2026-04-04T13:45:13Z</time></trkpt><trkpt lat="43.028226635828204" lon="13.083811111486224"><ele>622.75</ele><time>2026-04-04T13:45:14Z</time></trkpt><trkpt lat="43.028156657012936" lon="13.084005672657744"><ele>623.0</ele><time>2026-04-04T13:45:15Z</time></trkpt><trkpt lat="43.028097934727626" lon="13.084218775962809"><ele>623.0</ele><time>2026-04-04T13:45:16Z</time></trkpt><trkpt lat="43.02805427184402" lon="13.084409876653387"><ele>623.0</ele><time>2026-04-04T13:45:17Z</time></trkpt><trkpt lat="43.02800136002317" lon="13.084567783113371"><ele>623.0</ele><time>2026-04-04T13:45:18Z</time></trkpt><trkpt lat="43.02793187522232" lon="13.084712934825438"><ele>623.0</ele><time>2026-04-04T13:45:19Z</time></trkpt><trkpt lat="43.02785404846814" lon="13.084864850925255"><ele>621.25</ele><time>2026-04-04T13:45:20Z</time></trkpt><trkpt lat="43.027766058576546" lon="13.085000944720452"><ele>619.5</ele><time>2026-04-04T13:45:21Z</time></trkpt><trkpt lat="43.02766312466429" lon="13.085094356787593"><ele>617.75</ele><time>2026-04-04T13:45:22Z</time></trkpt><trkpt lat="43.02756353227712" lon="13.085196012521717"><ele>616.0</ele><time>2026-04-04T13:45:23Z</time></trkpt><trkpt lat="43.027494674751246" lon="13.085303322608103"><ele>616.0</ele><time>2026-04-04T13:45:24Z</time></trkpt><trkpt lat="43.027464647762095" lon="13.085454803213135"><ele>616.0</ele><time>2026-04-04T13:45:25Z</time></trkpt><trkpt lat="43.02752605985388" lon="13.085685063049244"><ele>616.0</ele><time>2026-04-04T13:45:26Z</time></trkpt><trkpt lat="43.0275883468014" lon="13.085891151131502"><ele>616.5</ele><time>2026-04-04T13:45:27Z</time></trkpt><trkpt lat="43.02763859784798" lon="13.086062801337585"><ele>617.0</ele><time>2026-04-04T13:45:28Z</time></trkpt><trkpt lat="43.027703635245715" lon="13.086223160346693"><ele>617.5</ele><time>2026-04-04T13:45:29Z</time></trkpt><trkpt lat="43.02781899128868" lon="13.086323213381666"><ele>618.0</ele><time>2026-04-04T13:45:30Z</time></trkpt><trkpt lat="43.02789399162365" lon="13.086441396254303"><ele>618.0</ele><time>2026-04-04T13:45:31Z</time></trkpt><trkpt lat="43.02795467567545" lon="13.086542039488124"><ele>618.0</ele><time>2026-04-04T13:45:32Z</time></trkpt><trkpt lat="43.02799984396129" lon="13.086670072839487"><ele>618.0</ele><time>2026-04-04T13:45:33Z</time></trkpt><trkpt lat="43.02803613749336" lon="13.086818213356773"><ele>618.0</ele><time>2026-04-04T13:45:34Z</time></trkpt><trkpt lat="43.02806638697749" lon="13.086945461794368"><ele>618.0</ele><time>2026-04-04T13:45:35Z</time></trkpt><trkpt lat="43.02809355499853" lon="13.08704165847384"><ele>616.8</ele><time>2026-04-04T13:45:36Z</time></trkpt><trkpt lat="43.028156367548675" lon="13.087101727384281"><ele>615.5999999999999</ele><time>2026-04-04T13:45:38Z</time></trkpt><trkpt lat="43.02822276168016" lon="13.087143561757557"><ele>614.4000000000001</ele><time>2026-04-04T13:45:41Z</time></trkpt><trkpt lat="43.028341138903954" lon="13.087039045264808"><ele>613.2</ele><time>2026-04-04T13:45:43Z</time></trkpt><trkpt lat="43.02842828109993" lon="13.086987102651397"><ele>612.0</ele><time>2026-04-04T13:45:44Z</time></trkpt><trkpt lat="43.028529637545375" lon="13.086964888532705"><ele>612.0</ele><time>2026-04-04T13:45:45Z</time></trkpt><trkpt lat="43.028624413086746" lon="13.086981971172477"><ele>612.0</ele><time>2026-04-04T13:45:46Z</time></trkpt><trkpt lat="43.02869909035529" lon="13.087083825980098"><ele>612.0</ele><time>2026-04-04T13:45:47Z</time></trkpt><trkpt lat="43.0287564476252" lon="13.087211503336151"><ele>612.0</ele><time>2026-04-04T13:45:48Z</time></trkpt><trkpt lat="43.028791367204015" lon="13.087375652771359"><ele>612.0</ele><time>2026-04-04T13:45:49Z</time></trkpt><trkpt lat="43.02883093515914" lon="13.087564310772937"><ele>611.5</ele><time>2026-04-04T13:45:50Z</time></trkpt><trkpt lat="43.02886508806878" lon="13.087756765106551"><ele>611.0</ele><time>2026-04-04T13:45:51Z</time></trkpt><trkpt lat="43.02888632853811" lon="13.08795357769065"><ele>610.5</ele><time>2026-04-04T13:45:52Z</time></trkpt><trkpt lat="43.02888203372648" lon="13.088134380731454"><ele>610.0</ele><time>2026-04-04T13:45:53Z</time></trkpt><trkpt lat="43.028854770871625" lon="13.088317560678314"><ele>610.0</ele><time>2026-04-04T13:45:54Z</time></trkpt><trkpt lat="43.02881223087934" lon="13.088509074309997"><ele>610.0</ele><time>2026-04-04T13:45:55Z</time></trkpt><trkpt lat="43.02876161268033" lon="13.088713797536371"><ele>610.0</ele><time>2026-04-04T13:45:56Z</time></trkpt><trkpt lat="43.02871506983325" lon="13.088925925601416"><ele>606.6666666666667</ele><time>2026-04-04T13:45:57Z</time></trkpt><trkpt lat="43.02867070067086" lon="13.089131490970916"><ele>603.3333333333334</ele><time>2026-04-04T13:45:58Z</time></trkpt><trkpt lat="43.02863248066731" lon="13.08933443028873"><ele>600.0</ele><time>2026-04-04T13:45:59Z</time></trkpt><trkpt lat="43.0286133728684" lon="13.08953675677349"><ele>600.0</ele><time>2026-04-04T13:46:00Z</time></trkpt><trkpt lat="43.02860245162444" lon="13.089725506642598"><ele>600.0</ele><time>2026-04-04T13:46:01Z</time></trkpt><trkpt lat="43.028587959240895" lon="13.089896029607857"><ele>600.0</ele><time>2026-04-04T13:46:02Z</time></trkpt><trkpt lat="43.02856090267832" lon="13.090024071295417"><ele>600.0</ele><time>2026-04-04T13:46:03Z</time></trkpt><trkpt lat="43.02849758547927" lon="13.090119524430262"><ele>597.75</ele><time>2026-04-04T13:46:04Z</time></trkpt><trkpt lat="43.02839606115476" lon="13.090202640351068"><ele>595.5</ele><time>2026-04-04T13:46:05Z</time></trkpt><trkpt lat="43.028271844802674" lon="13.090291824915685"><ele>593.25</ele><time>2026-04-04T13:46:06Z</time></trkpt><trkpt lat="43.028136886834496" lon="13.090379883930668"><ele>591.0</ele><time>2026-04-04T13:46:07Z</time></trkpt><trkpt lat="43.027989628517176" lon="13.090476417750477"><ele>589.3333333333334</ele><time>2026-04-04T13:46:08Z</time></trkpt><trkpt lat="43.027835108460216" lon="13.090580649909853"><ele>587.6666666666667</ele><time>2026-04-04T13:46:09Z</time></trkpt><trkpt lat="43.027672112434345" lon="13.090694033799872"><ele>586.0</ele><time>2026-04-04T13:46:10Z</time></trkpt><trkpt lat="43.027518802236756" lon="13.090800679986161"><ele>586.75</ele><time>2026-04-04T13:46:11Z</time></trkpt><trkpt lat="43.02738649414825" lon="13.09089483546839"><ele>587.5</ele><time>2026-04-04T13:46:12Z</time></trkpt><trkpt lat="43.02726632662105" lon="13.090981990862918"><ele>588.25</ele><time>2026-04-04T13:46:13Z</time></trkpt><trkpt lat="43.027153306520766" lon="13.09105507348506"><ele>589.0</ele><time>2026-04-04T13:46:14Z</time></trkpt><trkpt lat="43.02703926769512" lon="13.091097892813433"><ele>589.0</ele><time>2026-04-04T13:46:15Z</time></trkpt><trkpt lat="43.02690118715077" lon="13.09110509984527"><ele>589.0</ele><time>2026-04-04T13:46:16Z</time></trkpt><trkpt lat="43.02674539417792" lon="13.091091745913927"><ele>589.0</ele><time>2026-04-04T13:46:17Z</time></trkpt><trkpt lat="43.02657508202057" lon="13.091081628073239"><ele>585.6666666666667</ele><time>2026-04-04T13:46:18Z</time></trkpt><trkpt lat="43.02639042837021" lon="13.09108437296426"><ele>582.3333333333334</ele><time>2026-04-04T13:46:19Z</time></trkpt><trkpt lat="43.02620592962539" lon="13.09109198503685"><ele>579.0</ele><time>2026-04-04T13:46:20Z</time></trkpt><trkpt lat="43.02603231206621" lon="13.091100150076587"><ele>579.0</ele><time>2026-04-04T13:46:21Z</time></trkpt><trkpt lat="43.02588252728222" lon="13.091102960341155"><ele>579.0</ele><time>2026-04-04T13:46:22Z</time></trkpt><trkpt lat="43.025746809123625" lon="13.091083903699012"><ele>579.0</ele><time>2026-04-04T13:46:23Z</time></trkpt><trkpt lat="43.02562442162782" lon="13.09109204249666"><ele>579.0</ele><time>2026-04-04T13:46:24Z</time></trkpt><trkpt lat="43.02549313243578" lon="13.091158205425918"><ele>581.0</ele><time>2026-04-04T13:46:25Z</time></trkpt><trkpt lat="43.025384811838435" lon="13.091266646270213"><ele>583.0</ele><time>2026-04-04T13:46:26Z</time></trkpt><trkpt lat="43.02531109336194" lon="13.091396513593432"><ele>585.0</ele><time>2026-04-04T13:46:27Z</time></trkpt><trkpt lat="43.02527702312861" lon="13.09154833662383"><ele>587.0</ele><time>2026-04-04T13:46:28Z</time></trkpt><trkpt lat="43.02529233808702" lon="13.091686732714756"><ele>583.8000000000001</ele><time>2026-04-04T13:46:29Z</time></trkpt><trkpt lat="43.02530483697621" lon="13.091786649498227"><ele>580.6</ele><time>2026-04-04T13:46:30Z</time></trkpt><trkpt lat="43.025316721111004" lon="13.091881892276064"><ele>577.4000000000001</ele><time>2026-04-04T13:46:32Z</time></trkpt><trkpt lat="43.02547472543906" lon="13.091918634403568"><ele>574.2</ele><time>2026-04-04T13:46:34Z</time></trkpt><trkpt lat="43.02557634766998" lon="13.091882566957109"><ele>571.0</ele><time>2026-04-04T13:46:35Z</time></trkpt><trkpt lat="43.02569024009494" lon="13.091852608045887"><ele>569.5</ele><time>2026-04-04T13:46:36Z</time></trkpt><trkpt lat="43.02582246895006" lon="13.091834135681925"><ele>568.0</ele><time>2026-04-04T13:46:37Z</time></trkpt><trkpt lat="43.02595561681588" lon="13.091818603140936"><ele>566.5</ele><time>2026-04-04T13:46:38Z</time></trkpt><trkpt lat="43.02609168911812" lon="13.091804677266582"><ele>565.0</ele><time>2026-04-04T13:46:39Z</time></trkpt><trkpt lat="43.02623329312805" lon="13.091849800749197"><ele>565.0</ele><time>2026-04-04T13:46:40Z</time></trkpt><trkpt lat="43.02637963858139" lon="13.091927450494447"><ele>565.0</ele><time>2026-04-04T13:46:41Z</time></trkpt><trkpt lat="43.02653927350395" lon="13.091993883332922"><ele>565.0</ele><time>2026-04-04T13:46:42Z</time></trkpt><trkpt lat="43.02669112308884" lon="13.092074755523376"><ele>564.3333333333334</ele><time>2026-04-04T13:46:43Z</time></trkpt><trkpt lat="43.02685116916149" lon="13.09213889464703"><ele>563.6666666666666</ele><time>2026-04-04T13:46:44Z</time></trkpt><trkpt lat="43.027023005269946" lon="13.092178860413334"><ele>563.0</ele><time>2026-04-04T13:46:45Z</time></trkpt><trkpt lat="43.02720170193881" lon="13.09221038948016"><ele>563.0</ele><time>2026-04-04T13:46:46Z</time></trkpt><trkpt lat="43.027376652294464" lon="13.092234017079086"><ele>563.0</ele><time>2026-04-04T13:46:47Z</time></trkpt><trkpt lat="43.0275524894792" lon="13.092256597102603"><ele>563.0</ele><time>2026-04-04T13:46:48Z</time></trkpt><trkpt lat="43.02773082076547" lon="13.092278971846122"><ele>562.3333333333333</ele><time>2026-04-04T13:46:49Z</time></trkpt><trkpt lat="43.02790733150364" lon="13.092308523893822"><ele>561.6666666666666</ele><time>2026-04-04T13:46:50Z</time></trkpt><trkpt lat="43.02808169440598" lon="13.092350300443705"><ele>561.0</ele><time>2026-04-04T13:46:51Z</time></trkpt><trkpt lat="43.02825163761943" lon="13.092402537668162"><ele>560.6666666666666</ele><time>2026-04-04T13:46:52Z</time></trkpt><trkpt lat="43.02842568454743" lon="13.09245883887458"><ele>560.3333333333333</ele><time>2026-04-04T13:46:53Z</time></trkpt><trkpt lat="43.028598225415884" lon="13.092520140492882"><ele>560.0</ele><time>2026-04-04T13:46:54Z</time></trkpt><trkpt lat="43.02876592734688" lon="13.092580669319249"><ele>560.0</ele><time>2026-04-04T13:46:55Z</time></trkpt><trkpt lat="43.028928451378334" lon="13.092635884682677"><ele>560.0</ele><time>2026-04-04T13:46:56Z</time></trkpt><trkpt lat="43.02908880136769" lon="13.092690758315728"><ele>560.0</ele><time>2026-04-04T13:46:57Z</time></trkpt><trkpt lat="43.02924604171784" lon="13.092750883429218"><ele>561.75</ele><time>2026-04-04T13:46:58Z</time></trkpt><trkpt lat="43.029400319619405" lon="13.09281808119834"><ele>563.5</ele><time>2026-04-04T13:46:59Z</time></trkpt><trkpt lat="43.02953922039398" lon="13.092882168638555"><ele>565.25</ele><time>2026-04-04T13:47:00Z</time></trkpt><trkpt lat="43.02966368685501" lon="13.092930355271134"><ele>567.0</ele><time>2026-04-04T13:47:01Z</time></trkpt><trkpt lat="43.02976793192691" lon="13.092956173185025"><ele>567.0</ele><time>2026-04-04T13:47:02Z</time></trkpt><trkpt lat="43.029845496228404" lon="13.092969285521987"><ele>567.0</ele><time>2026-04-04T13:47:03Z</time></trkpt><trkpt lat="43.02991309388842" lon="13.092967998569781"><ele>567.0</ele><time>2026-04-04T13:47:06Z</time></trkpt><trkpt lat="43.029961575546196" lon="13.092876778063303"><ele>567.0</ele><time>2026-04-04T13:47:08Z</time></trkpt><trkpt lat="43.029995127595164" lon="13.092722132204072"><ele>567.0</ele><time>2026-04-04T13:47:09Z</time></trkpt><trkpt lat="43.03002938972813" lon="13.09258584827213"><ele>566.0</ele><time>2026-04-04T13:47:10Z</time></trkpt><trkpt lat="43.03007146951307" lon="13.092417454608237"><ele>565.0</ele><time>2026-04-04T13:47:11Z</time></trkpt><trkpt lat="43.03011920319178" lon="13.092229097087795"><ele>564.0</ele><time>2026-04-04T13:47:12Z</time></trkpt><trkpt lat="43.0301698329931" lon="13.092026454406117"><ele>563.0</ele><time>2026-04-04T13:47:13Z</time></trkpt><trkpt lat="43.03022548055982" lon="13.09181986846535"><ele>563.0</ele><time>2026-04-04T13:47:14Z</time></trkpt><trkpt lat="43.03027869947995" lon="13.091602167720456"><ele>563.0</ele><time>2026-04-04T13:47:15Z</time></trkpt><trkpt lat="43.03033166422825" lon="13.091405331841889"><ele>563.0</ele><time>2026-04-04T13:47:16Z</time></trkpt><trkpt lat="43.03037777498577" lon="13.091231610014662"><ele>560.0</ele><time>2026-04-04T13:47:17Z</time></trkpt><trkpt lat="43.03043346512753" lon="13.091072315628013"><ele>557.0</ele><time>2026-04-04T13:47:18Z</time></trkpt><trkpt lat="43.03051222143655" lon="13.090935787996264"><ele>554.0</ele><time>2026-04-04T13:47:19Z</time></trkpt><trkpt lat="43.0306277521194" lon="13.090851442607113"><ele>551.0</ele><time>2026-04-04T13:47:20Z</time></trkpt><trkpt lat="43.03077028081889" lon="13.09080172859043"><ele>548.0</ele><time>2026-04-04T13:47:21Z</time></trkpt><trkpt lat="43.030923831661994" lon="13.090749224843037"><ele>545.0</ele><time>2026-04-04T13:47:22Z</time></trkpt><trkpt lat="43.03108117556404" lon="13.090694417379451"><ele>542.0</ele><time>2026-04-04T13:47:23Z</time></trkpt><trkpt lat="43.031249502540575" lon="13.090658994388514"><ele>542.0</ele><time>2026-04-04T13:47:24Z</time></trkpt><trkpt lat="43.03141372674696" lon="13.09065441709068"><ele>542.0</ele><time>2026-04-04T13:47:25Z</time></trkpt><trkpt lat="43.03155337340802" lon="13.090682984964438"><ele>542.0</ele><time>2026-04-04T13:47:26Z</time></trkpt><trkpt lat="43.031679121801666" lon="13.090732541231583"><ele>542.0</ele><time>2026-04-04T13:47:27Z</time></trkpt><trkpt lat="43.03176875022664" lon="13.090856430833327"><ele>546.25</ele><time>2026-04-04T13:47:28Z</time></trkpt><trkpt lat="43.031873159821274" lon="13.090943463525868"><ele>550.5</ele><time>2026-04-04T13:47:29Z</time></trkpt><trkpt lat="43.03197785991511" lon="13.090999986487441"><ele>554.75</ele><time>2026-04-04T13:47:30Z</time></trkpt><trkpt lat="43.03211417547744" lon="13.091003369940498"><ele>559.0</ele><time>2026-04-04T13:47:31Z</time></trkpt><trkpt lat="43.03226974087103" lon="13.09095267934975"><ele>559.0</ele><time>2026-04-04T13:47:32Z</time></trkpt><trkpt lat="43.03243109614211" lon="13.090873718744458"><ele>559.0</ele><time>2026-04-04T13:47:33Z</time></trkpt><trkpt lat="43.03261122813605" lon="13.09081074340937"><ele>559.0</ele><time>2026-04-04T13:47:34Z</time></trkpt><trkpt lat="43.03279921426196" lon="13.09075738859854"><ele>552.0</ele><time>2026-04-04T13:47:35Z</time></trkpt><trkpt lat="43.03299213219541" lon="13.090699067705476"><ele>545.0</ele><time>2026-04-04T13:47:36Z</time></trkpt><trkpt lat="43.03317895548403" lon="13.090644270904757"><ele>538.0</ele><time>2026-04-04T13:47:37Z</time></trkpt><trkpt lat="43.03335265730605" lon="13.09059085396897"><ele>537.0</ele><time>2026-04-04T13:47:38Z</time></trkpt><trkpt lat="43.033523745647486" lon="13.090535153040037"><ele>536.0</ele><time>2026-04-04T13:47:39Z</time></trkpt><trkpt lat="43.03368654379618" lon="13.090467239226069"><ele>535.0</ele><time>2026-04-04T13:47:40Z</time></trkpt><trkpt lat="43.03383646201842" lon="13.090400827367137"><ele>535.0</ele><time>2026-04-04T13:47:41Z</time></trkpt><trkpt lat="43.03398123411017" lon="13.090351322098805"><ele>535.0</ele><time>2026-04-04T13:47:42Z</time></trkpt><trkpt lat="43.034126837267316" lon="13.090334941614605"><ele>535.0</ele><time>2026-04-04T13:47:43Z</time></trkpt><trkpt lat="43.03428884143345" lon="13.090371819595447"><ele>534.6666666666667</ele><time>2026-04-04T13:47:44Z</time></trkpt><trkpt lat="43.034467429492196" lon="13.090408128337682"><ele>534.3333333333334</ele><time>2026-04-04T13:47:45Z</time></trkpt><trkpt lat="43.034656463098074" lon="13.090419206630955"><ele>534.0</ele><time>2026-04-04T13:47:46Z</time></trkpt><trkpt lat="43.034855203120735" lon="13.09044595069612"><ele>532.0</ele><time>2026-04-04T13:47:47Z</time></trkpt><trkpt lat="43.03505238967374" lon="13.090452681988854"><ele>530.0</ele><time>2026-04-04T13:47:48Z</time></trkpt><trkpt lat="43.035245289433014" lon="13.090440670693813"><ele>528.0</ele><time>2026-04-04T13:47:49Z</time></trkpt><trkpt lat="43.03542196866927" lon="13.090414887581668"><ele>528.0</ele><time>2026-04-04T13:47:50Z</time></trkpt><trkpt lat="43.03558560359297" lon="13.090425505262589"><ele>528.0</ele><time>2026-04-04T13:47:51Z</time></trkpt><trkpt lat="43.03573446022529" lon="13.090393183764208"><ele>528.0</ele><time>2026-04-04T13:47:52Z</time></trkpt><trkpt lat="43.03587844242079" lon="13.090371070226114"><ele>527.75</ele><time>2026-04-04T13:47:53Z</time></trkpt><trkpt lat="43.036012060788394" lon="13.090308932795757"><ele>527.5</ele><time>2026-04-04T13:47:54Z</time></trkpt><trkpt lat="43.036139770962535" lon="13.090227268152967"><ele>527.25</ele><time>2026-04-04T13:47:55Z</time></trkpt><trkpt lat="43.03626404442587" lon="13.09010241890569"><ele>527.0</ele><time>2026-04-04T13:47:56Z</time></trkpt><trkpt lat="43.03636537938222" lon="13.089937388361903"><ele>528.0</ele><time>2026-04-04T13:47:57Z</time></trkpt><trkpt lat="43.03646118813772" lon="13.089759420217609"><ele>529.0</ele><time>2026-04-04T13:47:58Z</time></trkpt><trkpt lat="43.0365545571801" lon="13.089600154354661"><ele>530.0</ele><time>2026-04-04T13:47:59Z</time></trkpt><trkpt lat="43.036650888208406" lon="13.089463355156433"><ele>528.25</ele><time>2026-04-04T13:48:00Z</time></trkpt><trkpt lat="43.03675277555824" lon="13.089354892738955"><ele>526.5</ele><time>2026-04-04T13:48:01Z</time></trkpt><trkpt lat="43.036869662464525" lon="13.08926194831675"><ele>524.75</ele><time>2026-04-04T13:48:02Z</time></trkpt><trkpt lat="43.037003469781816" lon="13.08918574582778"><ele>523.0</ele><time>2026-04-04T13:48:03Z</time></trkpt><trkpt lat="43.037145664731916" lon="13.089117483482335"><ele>523.0</ele><time>2026-04-04T13:48:04Z</time></trkpt><trkpt lat="43.03728572959576" lon="13.08904341056576"><ele>523.0</ele><time>2026-04-04T13:48:05Z</time></trkpt><trkpt lat="43.03741965906974" lon="13.088965481515217"><ele>523.0</ele><time>2026-04-04T13:48:06Z</time></trkpt><trkpt lat="43.0375538805216" lon="13.088876306741117"><ele>523.0</ele><time>2026-04-04T13:48:07Z</time></trkpt><trkpt lat="43.03768259016278" lon="13.08875950045294"><ele>523.0</ele><time>2026-04-04T13:48:08Z</time></trkpt><trkpt lat="43.037799493344046" lon="13.088605327903478"><ele>523.0</ele><time>2026-04-04T13:48:09Z</time></trkpt><trkpt lat="43.03790673733088" lon="13.088426514693541"><ele>523.0</ele><time>2026-04-04T13:48:10Z</time></trkpt><trkpt lat="43.03801799016187" lon="13.088244653456071"><ele>520.6666666666667</ele><time>2026-04-04T13:48:11Z</time></trkpt><trkpt lat="43.03813320272561" lon="13.088061362426602"><ele>518.3333333333334</ele><time>2026-04-04T13:48:12Z</time></trkpt><trkpt lat="43.03824724241215" lon="13.08786618710639"><ele>516.0</ele><time>2026-04-04T13:48:13Z</time></trkpt><trkpt lat="43.03836060884311" lon="13.08767294869461"><ele>516.0</ele><time>2026-04-04T13:48:14Z</time></trkpt><trkpt lat="43.03846960114882" lon="13.0874955188119"><ele>516.0</ele><time>2026-04-04T13:48:15Z</time></trkpt><trkpt lat="43.038570342657714" lon="13.087333133778396"><ele>516.0</ele><time>2026-04-04T13:48:16Z</time></trkpt><trkpt lat="43.03866837212359" lon="13.087185254323101"><ele>516.3333333333334</ele><time>2026-04-04T13:48:17Z</time></trkpt><trkpt lat="43.03877849315373" lon="13.087073122825098"><ele>516.6666666666667</ele><time>2026-04-04T13:48:18Z</time></trkpt><trkpt lat="43.03891336152785" lon="13.086993609557695"><ele>517.0</ele><time>2026-04-04T13:48:19Z</time></trkpt><trkpt lat="43.03907390852522" lon="13.086937955456166"><ele>516.6666666666667</ele><time>2026-04-04T13:48:20Z</time></trkpt><trkpt lat="43.03923722121736" lon="13.08687898546909"><ele>516.3333333333334</ele><time>2026-04-04T13:48:21Z</time></trkpt><trkpt lat="43.039405165169015" lon="13.0868201303206"><ele>516.0</ele><time>2026-04-04T13:48:22Z</time></trkpt><trkpt lat="43.039575486945196" lon="13.0867528477985"><ele>516.0</ele><time>2026-04-04T13:48:23Z</time></trkpt><trkpt lat="43.03975070127289" lon="13.086671229781897"><ele>516.0</ele><time>2026-04-04T13:48:24Z</time></trkpt><trkpt lat="43.03993300901032" lon="13.086589931899061"><ele>516.0</ele><time>2026-04-04T13:48:25Z</time></trkpt><trkpt lat="43.040117086897126" lon="13.086496645158388"><ele>514.6666666666666</ele><time>2026-04-04T13:48:26Z</time></trkpt><trkpt lat="43.04029670073356" lon="13.086388547069244"><ele>513.3333333333333</ele><time>2026-04-04T13:48:27Z</time></trkpt><trkpt lat="43.04047493522587" lon="13.086268253931063"><ele>512.0</ele><time>2026-04-04T13:48:28Z</time></trkpt><trkpt lat="43.040655212996576" lon="13.086142929272757"><ele>512.6666666666666</ele><time>2026-04-04T13:48:29Z</time></trkpt><trkpt lat="43.040838773609295" lon="13.0860225307789"><ele>513.3333333333334</ele><time>2026-04-04T13:48:30Z</time></trkpt><trkpt lat="43.04102707781312" lon="13.08591015015545"><ele>514.0</ele><time>2026-04-04T13:48:31Z</time></trkpt><trkpt lat="43.04122012301042" lon="13.085797970958312"><ele>515.3333333333334</ele><time>2026-04-04T13:48:32Z</time></trkpt><trkpt lat="43.04141881584135" lon="13.085704078983436"><ele>516.6666666666666</ele><time>2026-04-04T13:48:33Z</time></trkpt><trkpt lat="43.04160262986323" lon="13.085573235882674"><ele>518.0</ele><time>2026-04-04T13:48:34Z</time></trkpt><trkpt lat="43.04177031082564" lon="13.085433185345188"><ele>515.3333333333333</ele><time>2026-04-04T13:48:35Z</time></trkpt><trkpt lat="43.04193499662062" lon="13.085318106116372"><ele>512.6666666666666</ele><time>2026-04-04T13:48:36Z</time></trkpt><trkpt lat="43.04209345587438" lon="13.085215306525912"><ele>510.0</ele><time>2026-04-04T13:48:37Z</time></trkpt><trkpt lat="43.042264043870354" lon="13.085133753571743"><ele>510.0</ele><time>2026-04-04T13:48:38Z</time></trkpt><trkpt lat="43.042442919233274" lon="13.085074326574636"><ele>510.0</ele><time>2026-04-04T13:48:39Z</time></trkpt><trkpt lat="43.042623953698666" lon="13.085014248168223"><ele>510.0</ele><time>2026-04-04T13:48:40Z</time></trkpt><trkpt lat="43.04280635493311" lon="13.08495843519744"><ele>509.33333333333337</ele><time>2026-04-04T13:48:41Z</time></trkpt><trkpt lat="43.04298448215535" lon="13.084874525296849"><ele>508.6666666666667</ele><time>2026-04-04T13:48:42Z</time></trkpt><trkpt lat="43.04316910032809" lon="13.08478567742912"><ele>508.0</ele><time>2026-04-04T13:48:43Z</time></trkpt><trkpt lat="43.04335414284554" lon="13.084700794719408"><ele>506.0</ele><time>2026-04-04T13:48:44Z</time></trkpt><trkpt lat="43.0435405145295" lon="13.084599065613741"><ele>504.0</ele><time>2026-04-04T13:48:45Z</time></trkpt><trkpt lat="43.04373515981464" lon="13.084527891736403"><ele>502.0</ele><time>2026-04-04T13:48:46Z</time></trkpt><trkpt lat="43.04393654076628" lon="13.0844863788405"><ele>501.33333333333337</ele><time>2026-04-04T13:48:47Z</time></trkpt><trkpt lat="43.04413710306169" lon="13.0844364091318"><ele>500.66666666666663</ele><time>2026-04-04T13:48:48Z</time></trkpt><trkpt lat="43.04433969324883" lon="13.084390761791525"><ele>500.0</ele><time>2026-04-04T13:48:49Z</time></trkpt><trkpt lat="43.04453895780796" lon="13.084345862039541"><ele>500.0</ele><time>2026-04-04T13:48:50Z</time></trkpt><trkpt lat="43.044741479438386" lon="13.084298744893603"><ele>500.0</ele><time>2026-04-04T13:48:51Z</time></trkpt><trkpt lat="43.04493603389248" lon="13.084234071305161"><ele>500.0</ele><time>2026-04-04T13:48:52Z</time></trkpt><trkpt lat="43.04511582724278" lon="13.084195861096095"><ele>500.0</ele><time>2026-04-04T13:48:53Z</time></trkpt><trkpt lat="43.04528413126448" lon="13.084163113500965"><ele>500.0</ele><time>2026-04-04T13:48:54Z</time></trkpt><trkpt lat="43.04544162620707" lon="13.084140566535787"><ele>500.0</ele><time>2026-04-04T13:48:55Z</time></trkpt><trkpt lat="43.04560654310532" lon="13.084148387732059"><ele>500.0</ele><time>2026-04-04T13:48:56Z</time></trkpt><trkpt lat="43.04577833383239" lon="13.084198188928674"><ele>500.0</ele><time>2026-04-04T13:48:57Z</time></trkpt><trkpt lat="43.04594816878836" lon="13.084267063393922"><ele>500.0</ele><time>2026-04-04T13:48:58Z</time></trkpt><trkpt lat="43.04611927529984" lon="13.084348698424824"><ele>499.3333333333333</ele><time>2026-04-04T13:48:59Z</time></trkpt><trkpt lat="43.046303447837026" lon="13.084423228804303"><ele>498.66666666666663</ele><time>2026-04-04T13:49:00Z</time></trkpt><trkpt lat="43.046488619928866" lon="13.08449916335079"><ele>498.0</ele><time>2026-04-04T13:49:01Z</time></trkpt><trkpt lat="43.04667438260583" lon="13.084580279856914"><ele>496.33333333333337</ele><time>2026-04-04T13:49:02Z</time></trkpt><trkpt lat="43.046866557268515" lon="13.084652076768018"><ele>494.6666666666667</ele><time>2026-04-04T13:49:03Z</time></trkpt><trkpt lat="43.04706742945255" lon="13.084686753848287"><ele>493.0</ele><time>2026-04-04T13:49:04Z</time></trkpt><trkpt lat="43.04727261438935" lon="13.084685016760417"><ele>491.6666666666667</ele><time>2026-04-04T13:49:05Z</time></trkpt><trkpt lat="43.047478739995555" lon="13.084667043066482"><ele>490.33333333333337</ele><time>2026-04-04T13:49:06Z</time></trkpt><trkpt lat="43.04767683294327" lon="13.084652224220992"><ele>489.0</ele><time>2026-04-04T13:49:07Z</time></trkpt><trkpt lat="43.04785646430025" lon="13.084652596251638"><ele>489.0</ele><time>2026-04-04T13:49:08Z</time></trkpt><trkpt lat="43.048026642459824" lon="13.084679404230696"><ele>489.0</ele><time>2026-04-04T13:49:09Z</time></trkpt><trkpt lat="43.04820657896468" lon="13.084761117685623"><ele>489.0</ele><time>2026-04-04T13:49:10Z</time></trkpt><trkpt lat="43.048387986371054" lon="13.084868920086464"><ele>489.66666666666663</ele><time>2026-04-04T13:49:11Z</time></trkpt><trkpt lat="43.04857099306505" lon="13.084989573106853"><ele>490.3333333333333</ele><time>2026-04-04T13:49:12Z</time></trkpt><trkpt lat="43.04874928338399" lon="13.085110636867732"><ele>491.0</ele><time>2026-04-04T13:49:13Z</time></trkpt><trkpt lat="43.04893288461696" lon="13.085236905899468"><ele>491.0</ele><time>2026-04-04T13:49:14Z</time></trkpt><trkpt lat="43.04911818513691" lon="13.085366438926972"><ele>491.0</ele><time>2026-04-04T13:49:15Z</time></trkpt><trkpt lat="43.049314347923854" lon="13.085474062306027"><ele>491.0</ele><time>2026-04-04T13:49:16Z</time></trkpt><trkpt lat="43.049518256496214" lon="13.085536018469876"><ele>488.3333333333333</ele><time>2026-04-04T13:49:17Z</time></trkpt><trkpt lat="43.04972370013194" lon="13.085571961451699"><ele>485.66666666666663</ele><time>2026-04-04T13:49:18Z</time></trkpt><trkpt lat="43.04991556115664" lon="13.08560956504427"><ele>483.0</ele><time>2026-04-04T13:49:19Z</time></trkpt><trkpt lat="43.05010050529596" lon="13.085688611470319"><ele>486.0</ele><time>2026-04-04T13:49:20Z</time></trkpt><trkpt lat="43.050256629721964" lon="13.08583761637413"><ele>489.0</ele><time>2026-04-04T13:49:21Z</time></trkpt><trkpt lat="43.05040241406026" lon="13.086001298793173"><ele>492.0</ele><time>2026-04-04T13:49:22Z</time></trkpt><trkpt lat="43.050542571431016" lon="13.08619010205767"><ele>492.0</ele><time>2026-04-04T13:49:23Z</time></trkpt><trkpt lat="43.05069461340841" lon="13.086365670196436"><ele>492.0</ele><time>2026-04-04T13:49:24Z</time></trkpt><trkpt lat="43.0508573328742" lon="13.086531195430807"><ele>492.0</ele><time>2026-04-04T13:49:25Z</time></trkpt><trkpt lat="43.05104450720108" lon="13.086658505877427"><ele>492.33333333333337</ele><time>2026-04-04T13:49:26Z</time></trkpt><trkpt lat="43.051237724526665" lon="13.08676747721117"><ele>492.6666666666667</ele><time>2026-04-04T13:49:27Z</time></trkpt><trkpt lat="43.05143175210369" lon="13.086875273663734"><ele>493.0</ele><time>2026-04-04T13:49:28Z</time></trkpt><trkpt lat="43.051613642800675" lon="13.087003385820411"><ele>492.0</ele><time>2026-04-04T13:49:29Z</time></trkpt><trkpt lat="43.05179301992874" lon="13.087153063472375"><ele>491.0</ele><time>2026-04-04T13:49:30Z</time></trkpt><trkpt lat="43.051968320354426" lon="13.08731122421823"><ele>490.0</ele><time>2026-04-04T13:49:31Z</time></trkpt><trkpt lat="43.05213942246372" lon="13.08748274974805"><ele>490.0</ele><time>2026-04-04T13:49:32Z</time></trkpt><trkpt lat="43.05230070135149" lon="13.087668657401368"><ele>490.0</ele><time>2026-04-04T13:49:33Z</time></trkpt><trkpt lat="43.052461946708924" lon="13.08786153424306"><ele>490.0</ele><time>2026-04-04T13:49:34Z</time></trkpt><trkpt lat="43.052622295508506" lon="13.088047219565327"><ele>485.6666666666667</ele><time>2026-04-04T13:49:35Z</time></trkpt><trkpt lat="43.05278554184147" lon="13.088218198048997"><ele>481.33333333333337</ele><time>2026-04-04T13:49:36Z</time></trkpt><trkpt lat="43.05296372005967" lon="13.088349056064645"><ele>477.0</ele><time>2026-04-04T13:49:37Z</time></trkpt><trkpt lat="43.0531344349554" lon="13.088480953088606"><ele>477.0</ele><time>2026-04-04T13:49:38Z</time></trkpt><trkpt lat="43.05328121166952" lon="13.088654522226426"><ele>477.0</ele><time>2026-04-04T13:49:39Z</time></trkpt><trkpt lat="43.053413767093794" lon="13.088835623934937"><ele>477.0</ele><time>2026-04-04T13:49:40Z</time></trkpt><trkpt lat="43.053567970249176" lon="13.088983067053736"><ele>476.33333333333337</ele><time>2026-04-04T13:49:41Z</time></trkpt><trkpt lat="43.053748587324286" lon="13.089083684239512"><ele>475.6666666666667</ele><time>2026-04-04T13:49:42Z</time></trkpt><trkpt lat="43.05394319095412" lon="13.089151980847287"><ele>475.0</ele><time>2026-04-04T13:49:43Z</time></trkpt><trkpt lat="43.05413966762475" lon="13.089196415476112"><ele>475.0</ele><time>2026-04-04T13:49:44Z</time></trkpt><trkpt lat="43.05434023127948" lon="13.089226285746987"><ele>475.0</ele><time>2026-04-04T13:49:45Z</time></trkpt><trkpt lat="43.05452716062989" lon="13.089245778613304"><ele>475.0</ele><time>2026-04-04T13:49:46Z</time></trkpt><trkpt lat="43.05470890302001" lon="13.08925645372495"><ele>475.0</ele><time>2026-04-04T13:49:47Z</time></trkpt><trkpt lat="43.05489179294295" lon="13.089235938546436"><ele>475.0</ele><time>2026-04-04T13:49:48Z</time></trkpt><trkpt lat="43.0550689023286" lon="13.089178248208928"><ele>475.0</ele><time>2026-04-04T13:49:49Z</time></trkpt><trkpt lat="43.05524382828439" lon="13.089108251187886"><ele>472.0</ele><time>2026-04-04T13:49:50Z</time></trkpt><trkpt lat="43.05541794331924" lon="13.089063670630722"><ele>469.0</ele><time>2026-04-04T13:49:51Z</time></trkpt><trkpt lat="43.05559570516654" lon="13.089031094521754"><ele>466.0</ele><time>2026-04-04T13:49:52Z</time></trkpt><trkpt lat="43.055774665208794" lon="13.089003021637728"><ele>465.33333333333337</ele><time>2026-04-04T13:49:53Z</time></trkpt><trkpt lat="43.05594199254204" lon="13.088929105210932"><ele>464.66666666666663</ele><time>2026-04-04T13:49:54Z</time></trkpt><trkpt lat="43.056092910117314" lon="13.088795488786575"><ele>464.0</ele><time>2026-04-04T13:49:55Z</time></trkpt><trkpt lat="43.05622186114307" lon="13.088603344371059"><ele>464.0</ele><time>2026-04-04T13:49:56Z</time></trkpt><trkpt lat="43.05634591917056" lon="13.088397865137319"><ele>464.0</ele><time>2026-04-04T13:49:57Z</time></trkpt><trkpt lat="43.05646727658214" lon="13.088190672368254"><ele>464.0</ele><time>2026-04-04T13:49:58Z</time></trkpt><trkpt lat="43.05658391840932" lon="13.087988870504205"><ele>463.66666666666663</ele><time>2026-04-04T13:49:59Z</time></trkpt><trkpt lat="43.0566919731295" lon="13.087793174988994"><ele>463.33333333333337</ele><time>2026-04-04T13:50:00Z</time></trkpt><trkpt lat="43.0567948685965" lon="13.087617133738215"><ele>463.0</ele><time>2026-04-04T13:50:01Z</time></trkpt><trkpt lat="43.0569048619763" lon="13.08746237086912"><ele>460.6666666666667</ele><time>2026-04-04T13:50:02Z</time></trkpt><trkpt lat="43.05704008101652" lon="13.087327210908004"><ele>458.33333333333337</ele><time>2026-04-04T13:50:03Z</time></trkpt><trkpt lat="43.05718948960258" lon="13.087203646489693"><ele>456.0</ele><time>2026-04-04T13:50:04Z</time></trkpt><trkpt lat="43.05734256617596" lon="13.087070664495752"><ele>455.0</ele><time>2026-04-04T13:50:05Z</time></trkpt><trkpt lat="43.057496098802126" lon="13.086915775052836"><ele>454.0</ele><time>2026-04-04T13:50:06Z</time></trkpt><trkpt lat="43.057648347408524" lon="13.086744728181513"><ele>453.0</ele><time>2026-04-04T13:50:07Z</time></trkpt><trkpt lat="43.05780127686426" lon="13.086567919505752"><ele>453.0</ele><time>2026-04-04T13:50:08Z</time></trkpt><trkpt lat="43.057948955765255" lon="13.086383823356305"><ele>453.0</ele><time>2026-04-04T13:50:09Z</time></trkpt><trkpt lat="43.05809131587584" lon="13.086190564158187"><ele>453.0</ele><time>2026-04-04T13:50:10Z</time></trkpt><trkpt lat="43.058231041435754" lon="13.085989577378975"><ele>451.66666666666663</ele><time>2026-04-04T13:50:11Z</time></trkpt><trkpt lat="43.05837368394303" lon="13.085788049181545"><ele>450.3333333333333</ele><time>2026-04-04T13:50:12Z</time></trkpt><trkpt lat="43.058519341040174" lon="13.085588306388631"><ele>449.0</ele><time>2026-04-04T13:50:13Z</time></trkpt><trkpt lat="43.05866527321889" lon="13.08538998034637"><ele>449.0</ele><time>2026-04-04T13:50:14Z</time></trkpt><trkpt lat="43.05880240879196" lon="13.085202331712724"><ele>449.0</ele><time>2026-04-04T13:50:15Z</time></trkpt><trkpt lat="43.05892577254292" lon="13.085034523054425"><ele>449.0</ele><time>2026-04-04T13:50:16Z</time></trkpt><trkpt lat="43.05904684583476" lon="13.084890388568192"><ele>448.66666666666663</ele><time>2026-04-04T13:50:17Z</time></trkpt><trkpt lat="43.05919096708063" lon="13.084759971917785"><ele>448.33333333333337</ele><time>2026-04-04T13:50:18Z</time></trkpt><trkpt lat="43.05934834546976" lon="13.084652327459247"><ele>448.0</ele><time>2026-04-04T13:50:19Z</time></trkpt><trkpt lat="43.05951480638983" lon="13.084557045052188"><ele>448.0</ele><time>2026-04-04T13:50:20Z</time></trkpt><trkpt lat="43.059685896071365" lon="13.084474905190808"><ele>448.0</ele><time>2026-04-04T13:50:21Z</time></trkpt><trkpt lat="43.05982970360179" lon="13.08440741427864"><ele>448.0</ele><time>2026-04-04T13:50:22Z</time></trkpt><trkpt lat="43.05994751532276" lon="13.084348916553404"><ele>448.0</ele><time>2026-04-04T13:50:23Z</time></trkpt><trkpt lat="43.06005487171504" lon="13.084301618931676"><ele>448.0</ele><time>2026-04-04T13:50:24Z</time></trkpt><trkpt lat="43.06014665889995" lon="13.084244240002585"><ele>448.0</ele><time>2026-04-04T13:50:25Z</time></trkpt><trkpt lat="43.060288914193386" lon="13.08433756811896"><ele>448.0</ele><time>2026-04-04T13:50:26Z</time></trkpt><trkpt lat="43.06041234341906" lon="13.084377219691714"><ele>448.0</ele><time>2026-04-04T13:50:27Z</time></trkpt><trkpt lat="43.06054130448015" lon="13.084402223017781"><ele>448.0</ele><time>2026-04-04T13:50:28Z</time></trkpt><trkpt lat="43.06066742007792" lon="13.08442657636697"><ele>448.0</ele><time>2026-04-04T13:50:29Z</time></trkpt><trkpt lat="43.06079166282584" lon="13.084439172264856"><ele>448.0</ele><time>2026-04-04T13:50:30Z</time></trkpt><trkpt lat="43.06091775099107" lon="13.084454672655003"><ele>447.75</ele><time>2026-04-04T13:50:31Z</time></trkpt><trkpt lat="43.061047464343005" lon="13.084481623703864"><ele>447.5</ele><time>2026-04-04T13:50:32Z</time></trkpt><trkpt lat="43.06118134879141" lon="13.084503131364611"><ele>447.25</ele><time>2026-04-04T13:50:33Z</time></trkpt><trkpt lat="43.061305766028994" lon="13.084516608843833"><ele>447.0</ele><time>2026-04-04T13:50:34Z</time></trkpt><trkpt lat="43.06141030693265" lon="13.0845540902116"><ele>447.0</ele><time>2026-04-04T13:50:35Z</time></trkpt><trkpt lat="43.061491751897854" lon="13.084554737327574"><ele>447.00000000000006</ele><time>2026-04-04T13:50:36Z</time></trkpt><trkpt lat="43.061551078243305" lon="13.084590212206848"><ele>447.00000000000006</ele><time>2026-04-04T13:50:37Z</time></trkpt><trkpt lat="43.06163901329279" lon="13.084613455270484"><ele>447.0</ele><time>2026-04-04T13:50:39Z</time></trkpt><trkpt lat="43.06175412544992" lon="13.084700806240916"><ele>447.0</ele><time>2026-04-04T13:50:41Z</time></trkpt><trkpt lat="43.06184081361684" lon="13.084753424878734"><ele>447.0</ele><time>2026-04-04T13:50:43Z</time></trkpt><trkpt lat="43.06180759222761" lon="13.084887260017132"><ele>447.00000000000006</ele><time>2026-04-04T13:50:46Z</time></trkpt><trkpt lat="43.06173440062455" lon="13.08501260828597"><ele>447.00000000000006</ele><time>2026-04-04T13:50:48Z</time></trkpt><trkpt lat="43.061703583595126" lon="13.085111183054208"><ele>447.0</ele><time>2026-04-04T13:50:49Z</time></trkpt><trkpt lat="43.061668782180746" lon="13.085222502732249"><ele>447.0</ele><time>2026-04-04T13:50:50Z</time></trkpt><trkpt lat="43.0616214206047" lon="13.08537863833073"><ele>448.75</ele><time>2026-04-04T13:50:51Z</time></trkpt><trkpt lat="43.06157424996272" lon="13.085537715028785"><ele>450.5</ele><time>2026-04-04T13:50:52Z</time></trkpt><trkpt lat="43.06153397758421" lon="13.085676907821458"><ele>452.25</ele><time>2026-04-04T13:50:53Z</time></trkpt><trkpt lat="43.061490838651544" lon="13.085831541196127"><ele>454.0</ele><time>2026-04-04T13:50:54Z</time></trkpt><trkpt lat="43.061441704103224" lon="13.0860087912816"><ele>454.0</ele><time>2026-04-04T13:50:55Z</time></trkpt><trkpt lat="43.06138452547545" lon="13.086201501769498"><ele>454.0</ele><time>2026-04-04T13:50:56Z</time></trkpt><trkpt lat="43.0613249358548" lon="13.086398531712625"><ele>454.0</ele><time>2026-04-04T13:50:57Z</time></trkpt><trkpt lat="43.061264578402636" lon="13.08659743518703"><ele>453.6666666666667</ele><time>2026-04-04T13:50:58Z</time></trkpt><trkpt lat="43.06120381378536" lon="13.08679703870666"><ele>453.33333333333337</ele><time>2026-04-04T13:50:59Z</time></trkpt><trkpt lat="43.0611540356055" lon="13.087011153954624"><ele>453.0</ele><time>2026-04-04T13:51:00Z</time></trkpt><trkpt lat="43.06113371256195" lon="13.087258866361946"><ele>454.0</ele><time>2026-04-04T13:51:01Z</time></trkpt><trkpt lat="43.06113011353482" lon="13.087499102076919"><ele>455.0</ele><time>2026-04-04T13:51:02Z</time></trkpt><trkpt lat="43.06112651296967" lon="13.08773512314036"><ele>456.0</ele><time>2026-04-04T13:51:03Z</time></trkpt><trkpt lat="43.061124331783496" lon="13.087971650073866"><ele>456.0</ele><time>2026-04-04T13:51:04Z</time></trkpt><trkpt lat="43.06112620267958" lon="13.088205274045318"><ele>456.0</ele><time>2026-04-04T13:51:05Z</time></trkpt><trkpt lat="43.06113028741332" lon="13.088435558047388"><ele>456.0</ele><time>2026-04-04T13:51:06Z</time></trkpt><trkpt lat="43.06113431175918" lon="13.088665860716024"><ele>458.33333333333337</ele><time>2026-04-04T13:51:07Z</time></trkpt><trkpt lat="43.06114828175541" lon="13.08890726224765"><ele>460.6666666666667</ele><time>2026-04-04T13:51:08Z</time></trkpt><trkpt lat="43.061181604965775" lon="13.089142962646752"><ele>463.0</ele><time>2026-04-04T13:51:09Z</time></trkpt><trkpt lat="43.06123136186688" lon="13.08937541851826"><ele>463.6666666666667</ele><time>2026-04-04T13:51:10Z</time></trkpt><trkpt lat="43.061286383592204" lon="13.089603665432122"><ele>464.33333333333337</ele><time>2026-04-04T13:51:11Z</time></trkpt><trkpt lat="43.061347582087116" lon="13.08982722053063"><ele>465.0</ele><time>2026-04-04T13:51:12Z</time></trkpt><trkpt lat="43.06141135411806" lon="13.09004945058782"><ele>466.66666666666663</ele><time>2026-04-04T13:51:13Z</time></trkpt><trkpt lat="43.06147389299416" lon="13.090270303644726"><ele>468.3333333333333</ele><time>2026-04-04T13:51:14Z</time></trkpt><trkpt lat="43.06153400380518" lon="13.090490238652404"><ele>470.0</ele><time>2026-04-04T13:51:15Z</time></trkpt><trkpt lat="43.061588510977636" lon="13.090696566680204"><ele>473.8</ele><time>2026-04-04T13:51:16Z</time></trkpt><trkpt lat="43.061633153250746" lon="13.09086844069835"><ele>477.6</ele><time>2026-04-04T13:51:17Z</time></trkpt><trkpt lat="43.06168465803391" lon="13.091000529100222"><ele>481.4</ele><time>2026-04-04T13:51:18Z</time></trkpt><trkpt lat="43.06174616590133" lon="13.091089930962045"><ele>485.2</ele><time>2026-04-04T13:51:19Z</time></trkpt><trkpt lat="43.06184997626497" lon="13.09109182666371"><ele>489.0</ele><time>2026-04-04T13:51:20Z</time></trkpt><trkpt lat="43.06196270442195" lon="13.091038483765983"><ele>489.0</ele><time>2026-04-04T13:51:21Z</time></trkpt><trkpt lat="43.06203929855365" lon="13.09091031760854"><ele>489.0</ele><time>2026-04-04T13:51:22Z</time></trkpt><trkpt lat="43.06206054710607" lon="13.090706110688028"><ele>489.0</ele><time>2026-04-04T13:51:23Z</time></trkpt><trkpt lat="43.062089495385806" lon="13.090476728520855"><ele>489.0</ele><time>2026-04-04T13:51:24Z</time></trkpt><trkpt lat="43.062124277440184" lon="13.09024299397859"><ele>488.66666666666663</ele><time>2026-04-04T13:51:25Z</time></trkpt><trkpt lat="43.06211031631457" lon="13.089990545456677"><ele>488.3333333333333</ele><time>2026-04-04T13:51:26Z</time></trkpt><trkpt lat="43.062066250363955" lon="13.08974468363261"><ele>488.0</ele><time>2026-04-04T13:51:27Z</time></trkpt><trkpt lat="43.06198944863992" lon="13.089546401368962"><ele>488.0</ele><time>2026-04-04T13:51:28Z</time></trkpt><trkpt lat="43.06190616018211" lon="13.08938218793032"><ele>488.0</ele><time>2026-04-04T13:51:29Z</time></trkpt><trkpt lat="43.061889590016186" lon="13.089198330189648"><ele>488.0</ele><time>2026-04-04T13:51:30Z</time></trkpt><trkpt lat="43.061916620357245" lon="13.088974981494626"><ele>488.0</ele><time>2026-04-04T13:51:31Z</time></trkpt><trkpt lat="43.06196422804322" lon="13.088821027392568"><ele>488.0</ele><time>2026-04-04T13:51:32Z</time></trkpt><trkpt lat="43.062012340235405" lon="13.088738557837049"><ele>487.99999999999994</ele><time>2026-04-04T13:51:33Z</time></trkpt><trkpt lat="43.062079807088395" lon="13.088728564275504"><ele>487.99999999999994</ele><time>2026-04-04T13:51:34Z</time></trkpt><trkpt lat="43.0621454877569" lon="13.088793340259468"><ele>488.0</ele><time>2026-04-04T13:51:35Z</time></trkpt><trkpt lat="43.06212121319729" lon="13.08894649357959"><ele>488.0</ele><time>2026-04-04T13:51:36Z</time></trkpt><trkpt lat="43.06214302485129" lon="13.089135448040647"><ele>488.0</ele><time>2026-04-04T13:51:37Z</time></trkpt><trkpt lat="43.06218955952742" lon="13.089356277815531"><ele>488.0</ele><time>2026-04-04T13:51:38Z</time></trkpt><trkpt lat="43.062255606921354" lon="13.089576042764735"><ele>488.0</ele><time>2026-04-04T13:51:39Z</time></trkpt><trkpt lat="43.062336943951536" lon="13.089820041029157"><ele>487.66666666666663</ele><time>2026-04-04T13:51:40Z</time></trkpt><trkpt lat="43.06241059234483" lon="13.090059624628415"><ele>487.33333333333337</ele><time>2026-04-04T13:51:41Z</time></trkpt><trkpt lat="43.06244192325515" lon="13.090307608954193"><ele>487.0</ele><time>2026-04-04T13:51:42Z</time></trkpt><trkpt lat="43.06243506846607" lon="13.09057197932252"><ele>487.6666666666667</ele><time>2026-04-04T13:51:43Z</time></trkpt><trkpt lat="43.06243784506997" lon="13.090829711199394"><ele>488.33333333333337</ele><time>2026-04-04T13:51:44Z</time></trkpt><trkpt lat="43.06247425614316" lon="13.091061371729008"><ele>489.0</ele><time>2026-04-04T13:51:45Z</time></trkpt><trkpt lat="43.06255307648162" lon="13.091276557969596"><ele>495.75</ele><time>2026-04-04T13:51:46Z</time></trkpt><trkpt lat="43.06264206271785" lon="13.091461676302941"><ele>502.5</ele><time>2026-04-04T13:51:47Z</time></trkpt><trkpt lat="43.062701468617504" lon="13.091631797699751"><ele>509.25</ele><time>2026-04-04T13:51:48Z</time></trkpt><trkpt lat="43.06271710318717" lon="13.091799403178845"><ele>516.0</ele><time>2026-04-04T13:51:49Z</time></trkpt><trkpt lat="43.062681514003614" lon="13.091936571653234"><ele>516.75</ele><time>2026-04-04T13:51:50Z</time></trkpt><trkpt lat="43.062603462015254" lon="13.09204732349646"><ele>517.5</ele><time>2026-04-04T13:51:51Z</time></trkpt><trkpt lat="43.062500155893616" lon="13.09219678012778"><ele>518.25</ele><time>2026-04-04T13:51:52Z</time></trkpt><trkpt lat="43.06241187250102" lon="13.092385121571066"><ele>519.0</ele><time>2026-04-04T13:51:53Z</time></trkpt><trkpt lat="43.06236658964694" lon="13.092595906322385"><ele>516.3333333333334</ele><time>2026-04-04T13:51:54Z</time></trkpt><trkpt lat="43.06239300784613" lon="13.092851072867258"><ele>513.6666666666667</ele><time>2026-04-04T13:51:55Z</time></trkpt><trkpt lat="43.06242730105665" lon="13.093117330661128"><ele>511.0</ele><time>2026-04-04T13:51:56Z</time></trkpt><trkpt lat="43.06245016413639" lon="13.09334618089707"><ele>518.0</ele><time>2026-04-04T13:51:57Z</time></trkpt><trkpt lat="43.06247869467067" lon="13.09352869847348"><ele>525.0</ele><time>2026-04-04T13:51:58Z</time></trkpt><trkpt lat="43.06252692226297" lon="13.09366232036238"><ele>532.0</ele><time>2026-04-04T13:51:59Z</time></trkpt><trkpt lat="43.06260212335375" lon="13.093775065809533"><ele>539.0</ele><time>2026-04-04T13:52:00Z</time></trkpt><trkpt lat="43.06273110670105" lon="13.093815916275684"><ele>539.0</ele><time>2026-04-04T13:52:01Z</time></trkpt><trkpt lat="43.062863829349546" lon="13.093874169562797"><ele>539.0</ele><time>2026-04-04T13:52:02Z</time></trkpt><trkpt lat="43.06293820852459" lon="13.09397390874936"><ele>539.0</ele><time>2026-04-04T13:52:03Z</time></trkpt><trkpt lat="43.06297595587023" lon="13.094063565627348"><ele>539.0</ele><time>2026-04-04T13:52:04Z</time></trkpt><trkpt lat="43.06295322753154" lon="13.094166006887129"><ele>539.0</ele><time>2026-04-04T13:52:05Z</time></trkpt><trkpt lat="43.06286639387514" lon="13.094222070592478"><ele>537.6666666666666</ele><time>2026-04-04T13:52:06Z</time></trkpt><trkpt lat="43.06274930329714" lon="13.094257315551346"><ele>536.3333333333334</ele><time>2026-04-04T13:52:07Z</time></trkpt><trkpt lat="43.06260157886622" lon="13.09433007972045"><ele>535.0</ele><time>2026-04-04T13:52:08Z</time></trkpt><trkpt lat="43.062437003238465" lon="13.094405294801007"><ele>535.0</ele><time>2026-04-04T13:52:09Z</time></trkpt><trkpt lat="43.062278359136926" lon="13.094487133161676"><ele>535.0</ele><time>2026-04-04T13:52:10Z</time></trkpt><trkpt lat="43.06212367684603" lon="13.094594655046667"><ele>535.0</ele><time>2026-04-04T13:52:11Z</time></trkpt><trkpt lat="43.06196894755643" lon="13.094729898443765"><ele>535.0</ele><time>2026-04-04T13:52:12Z</time></trkpt><trkpt lat="43.06181423659395" lon="13.094871589087672"><ele>535.0</ele><time>2026-04-04T13:52:13Z</time></trkpt><trkpt lat="43.06165574320656" lon="13.095017909686666"><ele>535.0</ele><time>2026-04-04T13:52:14Z</time></trkpt><trkpt lat="43.06148677895051" lon="13.095134320607409"><ele>540.0</ele><time>2026-04-04T13:52:15Z</time></trkpt><trkpt lat="43.06131456762893" lon="13.095253965792708"><ele>545.0</ele><time>2026-04-04T13:52:16Z</time></trkpt><trkpt lat="43.06116251267479" lon="13.09538822511894"><ele>550.0</ele><time>2026-04-04T13:52:17Z</time></trkpt><trkpt lat="43.061032912661496" lon="13.095511120570135"><ele>550.0</ele><time>2026-04-04T13:52:18Z</time></trkpt><trkpt lat="43.060930962982646" lon="13.09561271321481"><ele>550.0</ele><time>2026-04-04T13:52:19Z</time></trkpt><trkpt lat="43.06085513530621" lon="13.095720451480013"><ele>550.0</ele><time>2026-04-04T13:52:20Z</time></trkpt><trkpt lat="43.060811638225594" lon="13.095873411526542"><ele>550.0</ele><time>2026-04-04T13:52:21Z</time></trkpt><trkpt lat="43.06083348712228" lon="13.096092365833748"><ele>554.0</ele><time>2026-04-04T13:52:22Z</time></trkpt><trkpt lat="43.06087917664746" lon="13.09631158889742"><ele>558.0</ele><time>2026-04-04T13:52:23Z</time></trkpt><trkpt lat="43.06092636461141" lon="13.09645196403301"><ele>562.0</ele><time>2026-04-04T13:52:24Z</time></trkpt><trkpt lat="43.060982738982396" lon="13.096528130703787"><ele>566.0</ele><time>2026-04-04T13:52:25Z</time></trkpt><trkpt lat="43.061088803967976" lon="13.096508582033715"><ele>566.0</ele><time>2026-04-04T13:52:26Z</time></trkpt><trkpt lat="43.06115998971561" lon="13.096441906396894"><ele>566.0</ele><time>2026-04-04T13:52:27Z</time></trkpt><trkpt lat="43.061191056910886" lon="13.096287721267283"><ele>566.0</ele><time>2026-04-04T13:52:28Z</time></trkpt><trkpt lat="43.061269071342934" lon="13.096127231525864"><ele>566.0</ele><time>2026-04-04T13:52:29Z</time></trkpt><trkpt lat="43.06135458307805" lon="13.095955281290175"><ele>566.0</ele><time>2026-04-04T13:52:30Z</time></trkpt><trkpt lat="43.06145277848104" lon="13.095806094583713"><ele>566.0</ele><time>2026-04-04T13:52:31Z</time></trkpt><trkpt lat="43.061573216129105" lon="13.0956823607552"><ele>566.0</ele><time>2026-04-04T13:52:32Z</time></trkpt><trkpt lat="43.06171732692098" lon="13.095574731315894"><ele>564.3333333333333</ele><time>2026-04-04T13:52:33Z</time></trkpt><trkpt lat="43.06187603881158" lon="13.095477554144557"><ele>562.6666666666666</ele><time>2026-04-04T13:52:34Z</time></trkpt><trkpt lat="43.062045681308255" lon="13.095402115021232"><ele>561.0</ele><time>2026-04-04T13:52:35Z</time></trkpt><trkpt lat="43.062207461429196" lon="13.095343634465145"><ele>561.0</ele><time>2026-04-04T13:52:36Z</time></trkpt><trkpt lat="43.06235534479339" lon="13.095323855739355"><ele>561.0</ele><time>2026-04-04T13:52:37Z</time></trkpt><trkpt lat="43.062512339544114" lon="13.095344370554786"><ele>561.0</ele><time>2026-04-04T13:52:38Z</time></trkpt><trkpt lat="43.06263298667355" lon="13.095407595998703"><ele>561.0</ele><time>2026-04-04T13:52:39Z</time></trkpt><trkpt lat="43.06271567257052" lon="13.095486094605597"><ele>564.0</ele><time>2026-04-04T13:52:40Z</time></trkpt><trkpt lat="43.062759663288126" lon="13.095623437978553"><ele>567.0</ele><time>2026-04-04T13:52:41Z</time></trkpt><trkpt lat="43.06279033505839" lon="13.09580318069937"><ele>570.0</ele><time>2026-04-04T13:52:42Z</time></trkpt><trkpt lat="43.06277686283741" lon="13.095966596455908"><ele>573.0</ele><time>2026-04-04T13:52:43Z</time></trkpt><trkpt lat="43.06271929404876" lon="13.096112754927999"><ele>576.5</ele><time>2026-04-04T13:52:44Z</time></trkpt><trkpt lat="43.06262037561908" lon="13.096244891724279"><ele>580.0</ele><time>2026-04-04T13:52:45Z</time></trkpt><trkpt lat="43.06251486185798" lon="13.096390624308597"><ele>583.5</ele><time>2026-04-04T13:52:46Z</time></trkpt><trkpt lat="43.06242439959393" lon="13.096571883932333"><ele>587.0</ele><time>2026-04-04T13:52:47Z</time></trkpt><trkpt lat="43.062356903503066" lon="13.096780681659272"><ele>589.0</ele><time>2026-04-04T13:52:48Z</time></trkpt><trkpt lat="43.06230547754761" lon="13.097011120683904"><ele>591.0</ele><time>2026-04-04T13:52:49Z</time></trkpt><trkpt lat="43.062276820464206" lon="13.09723918746554"><ele>593.0</ele><time>2026-04-04T13:52:50Z</time></trkpt><trkpt lat="43.06225697621114" lon="13.097477203369467"><ele>594.3333333333333</ele><time>2026-04-04T13:52:51Z</time></trkpt><trkpt lat="43.06224531474313" lon="13.09771590874175"><ele>595.6666666666666</ele><time>2026-04-04T13:52:52Z</time></trkpt><trkpt lat="43.06223244897617" lon="13.097943188210976"><ele>597.0</ele><time>2026-04-04T13:52:53Z</time></trkpt><trkpt lat="43.06219347226394" lon="13.098152788053161"><ele>600.0</ele><time>2026-04-04T13:52:54Z</time></trkpt><trkpt lat="43.062120946606484" lon="13.09835264448508"><ele>603.0</ele><time>2026-04-04T13:52:55Z</time></trkpt><trkpt lat="43.06201642542547" lon="13.098548285408222"><ele>606.0</ele><time>2026-04-04T13:52:56Z</time></trkpt><trkpt lat="43.061921775915174" lon="13.098739069065223"><ele>606.0</ele><time>2026-04-04T13:52:57Z</time></trkpt><trkpt lat="43.06184553626801" lon="13.098932376344823"><ele>606.0</ele><time>2026-04-04T13:52:58Z</time></trkpt><trkpt lat="43.06176956050728" lon="13.099110816218756"><ele>606.0</ele><time>2026-04-04T13:52:59Z</time></trkpt><trkpt lat="43.06165484902579" lon="13.099245848238901"><ele>607.3333333333334</ele><time>2026-04-04T13:53:00Z</time></trkpt><trkpt lat="43.06152794801687" lon="13.099381148211254"><ele>608.6666666666667</ele><time>2026-04-04T13:53:01Z</time></trkpt><trkpt lat="43.06141502686132" lon="13.099555118699808"><ele>610.0</ele><time>2026-04-04T13:53:02Z</time></trkpt><trkpt lat="43.06132256225159" lon="13.099755085324592"><ele>611.0</ele><time>2026-04-04T13:53:03Z</time></trkpt><trkpt lat="43.061251919997" lon="13.099978692062901"><ele>612.0</ele><time>2026-04-04T13:53:04Z</time></trkpt><trkpt lat="43.06119264371237" lon="13.100221199027896"><ele>613.0</ele><time>2026-04-04T13:53:05Z</time></trkpt><trkpt lat="43.0611345056183" lon="13.10047828101524"><ele>613.0</ele><time>2026-04-04T13:53:06Z</time></trkpt><trkpt lat="43.06108629802247" lon="13.100730370116688"><ele>613.0</ele><time>2026-04-04T13:53:07Z</time></trkpt><trkpt lat="43.06104369029494" lon="13.100986834720398"><ele>613.0</ele><time>2026-04-04T13:53:08Z</time></trkpt><trkpt lat="43.06099835875074" lon="13.10124239947418"><ele>614.0</ele><time>2026-04-04T13:53:09Z</time></trkpt><trkpt lat="43.06094777323705" lon="13.101495232095516"><ele>615.0</ele><time>2026-04-04T13:53:09.999Z</time></trkpt><trkpt lat="43.06089046147376" lon="13.101752035772577"><ele>616.0</ele><time>2026-04-04T13:53:10.999Z</time></trkpt><trkpt lat="43.06082971692608" lon="13.10201396352859"><ele>613.0</ele><time>2026-04-04T13:53:12Z</time></trkpt><trkpt lat="43.06077053907946" lon="13.102274388333827"><ele>610.0</ele><time>2026-04-04T13:53:13Z</time></trkpt><trkpt lat="43.06071388532383" lon="13.102515016943219"><ele>607.0</ele><time>2026-04-04T13:53:14Z</time></trkpt><trkpt lat="43.06066110677053" lon="13.102732611317741"><ele>607.0</ele><time>2026-04-04T13:53:15Z</time></trkpt><trkpt lat="43.06059062919816" lon="13.10293616853152"><ele>607.0</ele><time>2026-04-04T13:53:16Z</time></trkpt><trkpt lat="43.06050015909185" lon="13.103140730717435"><ele>607.0</ele><time>2026-04-04T13:53:17Z</time></trkpt><trkpt lat="43.0603896454827" lon="13.1033491201514"><ele>613.0</ele><time>2026-04-04T13:53:18Z</time></trkpt><trkpt lat="43.06028217141035" lon="13.103573204656536"><ele>619.0</ele><time>2026-04-04T13:53:19Z</time></trkpt><trkpt lat="43.06018943542214" lon="13.10381133651391"><ele>625.0</ele><time>2026-04-04T13:53:20Z</time></trkpt><trkpt lat="43.06011134235171" lon="13.104055693116116"><ele>622.6666666666667</ele><time>2026-04-04T13:53:21Z</time></trkpt><trkpt lat="43.06005356406215" lon="13.104273948389451"><ele>620.3333333333334</ele><time>2026-04-04T13:53:22Z</time></trkpt><trkpt lat="43.059988710610135" lon="13.104475381920869"><ele>618.0</ele><time>2026-04-04T13:53:23Z</time></trkpt><trkpt lat="43.05987313283332" lon="13.10465931513603"><ele>618.0</ele><time>2026-04-04T13:53:24Z</time></trkpt><trkpt lat="43.059735904010616" lon="13.104840091486079"><ele>618.0</ele><time>2026-04-04T13:53:25Z</time></trkpt><trkpt lat="43.05961926470551" lon="13.104992646336012"><ele>618.0</ele><time>2026-04-04T13:53:26Z</time></trkpt><trkpt lat="43.05952883870445" lon="13.105110916951979"><ele>618.0</ele><time>2026-04-04T13:53:27Z</time></trkpt><trkpt lat="43.05946257536599" lon="13.105220194756447"><ele>618.0</ele><time>2026-04-04T13:53:28Z</time></trkpt><trkpt lat="43.0594343023445" lon="13.105363851053838"><ele>618.0</ele><time>2026-04-04T13:53:29Z</time></trkpt><trkpt lat="43.0594738074769" lon="13.105570549116347"><ele>618.0</ele><time>2026-04-04T13:53:30Z</time></trkpt><trkpt lat="43.059504627552926" lon="13.105793318506139"><ele>616.6666666666666</ele><time>2026-04-04T13:53:31Z</time></trkpt><trkpt lat="43.05953650611184" lon="13.106013419548763"><ele>615.3333333333333</ele><time>2026-04-04T13:53:32Z</time></trkpt><trkpt lat="43.05957003036962" lon="13.10623149457617"><ele>614.0</ele><time>2026-04-04T13:53:33Z</time></trkpt><trkpt lat="43.0596092371933" lon="13.106454133593866"><ele>611.3333333333333</ele><time>2026-04-04T13:53:34Z</time></trkpt><trkpt lat="43.059678857023215" lon="13.106675562523584"><ele>608.6666666666666</ele><time>2026-04-04T13:53:35Z</time></trkpt><trkpt lat="43.05976969187219" lon="13.106867894121578"><ele>606.0</ele><time>2026-04-04T13:53:36Z</time></trkpt><trkpt lat="43.05984623165282" lon="13.107080540226084"><ele>606.0</ele><time>2026-04-04T13:53:37Z</time></trkpt><trkpt lat="43.059924712820504" lon="13.10724620809464"><ele>606.0</ele><time>2026-04-04T13:53:38Z</time></trkpt><trkpt lat="43.05996802065753" lon="13.10736738297397"><ele>606.0</ele><time>2026-04-04T13:53:39Z</time></trkpt><trkpt lat="43.059987353150916" lon="13.107477236991572"><ele>606.0</ele><time>2026-04-04T13:53:40Z</time></trkpt><trkpt lat="43.059958688629756" lon="13.107557952144756"><ele>606.0</ele><time>2026-04-04T13:53:41Z</time></trkpt><trkpt lat="43.05988691168465" lon="13.107625740639554"><ele>605.25</ele><time>2026-04-04T13:53:42Z</time></trkpt><trkpt lat="43.05978165585609" lon="13.107703952798841"><ele>604.5</ele><time>2026-04-04T13:53:43Z</time></trkpt><trkpt lat="43.059690620943904" lon="13.107790133010115"><ele>603.75</ele><time>2026-04-04T13:53:44Z</time></trkpt><trkpt lat="43.05961602383753" lon="13.107947713288132"><ele>603.0</ele><time>2026-04-04T13:53:45Z</time></trkpt><trkpt lat="43.05958179199377" lon="13.108149730527831"><ele>607.0</ele><time>2026-04-04T13:53:46Z</time></trkpt><trkpt lat="43.05954565377012" lon="13.108370282402625"><ele>611.0</ele><time>2026-04-04T13:53:47Z</time></trkpt><trkpt lat="43.05951154483919" lon="13.108609349927603"><ele>615.0</ele><time>2026-04-04T13:53:48Z</time></trkpt><trkpt lat="43.05947829527446" lon="13.10885760181464"><ele>618.0</ele><time>2026-04-04T13:53:49Z</time></trkpt><trkpt lat="43.05945306070975" lon="13.109103189984548"><ele>621.0</ele><time>2026-04-04T13:53:50Z</time></trkpt><trkpt lat="43.059441492415836" lon="13.109353929016832"><ele>624.0</ele><time>2026-04-04T13:53:51Z</time></trkpt><trkpt lat="43.05945349199659" lon="13.109610928793527"><ele>624.0</ele><time>2026-04-04T13:53:52Z</time></trkpt><trkpt lat="43.05947698256746" lon="13.109864971673877"><ele>624.0</ele><time>2026-04-04T13:53:53Z</time></trkpt><trkpt lat="43.05949268115711" lon="13.110102845255302"><ele>624.0</ele><time>2026-04-04T13:53:54Z</time></trkpt><trkpt lat="43.05950163298316" lon="13.11030586606002"><ele>624.0</ele><time>2026-04-04T13:53:55Z</time></trkpt><trkpt lat="43.05953082746251" lon="13.110498008363908"><ele>624.0</ele><time>2026-04-04T13:53:56Z</time></trkpt><trkpt lat="43.059627294611325" lon="13.110691666198987"><ele>624.0</ele><time>2026-04-04T13:53:57Z</time></trkpt><trkpt lat="43.05970848046595" lon="13.110883971156735"><ele>624.0</ele><time>2026-04-04T13:53:58Z</time></trkpt><trkpt lat="43.059760596269676" lon="13.11110769214059"><ele>624.0</ele><time>2026-04-04T13:53:59Z</time></trkpt><trkpt lat="43.05981819007711" lon="13.111349182516584"><ele>624.0</ele><time>2026-04-04T13:54:00Z</time></trkpt><trkpt lat="43.059882410462" lon="13.111604077134164"><ele>643.0</ele><time>2026-04-04T13:54:01Z</time></trkpt><trkpt lat="43.0599541310272" lon="13.111867223363841"><ele>662.0</ele><time>2026-04-04T13:54:02Z</time></trkpt><trkpt lat="43.06004669315158" lon="13.112133019916817"><ele>681.0</ele><time>2026-04-04T13:54:03Z</time></trkpt><trkpt lat="43.06014748412676" lon="13.11236725428769"><ele>678.0</ele><time>2026-04-04T13:54:04Z</time></trkpt><trkpt lat="43.060228113049156" lon="13.112605266603165"><ele>675.0</ele><time>2026-04-04T13:54:05Z</time></trkpt><trkpt lat="43.060280026068575" lon="13.1128503000614"><ele>672.0</ele><time>2026-04-04T13:54:06Z</time></trkpt><trkpt lat="43.06031710277688" lon="13.11310108248607"><ele>670.6666666666666</ele><time>2026-04-04T13:54:07Z</time></trkpt><trkpt lat="43.06037647051579" lon="13.113346865427921"><ele>669.3333333333333</ele><time>2026-04-04T13:54:08Z</time></trkpt><trkpt lat="43.060463224471064" lon="13.113569464491395"><ele>668.0</ele><time>2026-04-04T13:54:09Z</time></trkpt><trkpt lat="43.060568487422806" lon="13.113762073654874"><ele>668.0</ele><time>2026-04-04T13:54:10Z</time></trkpt><trkpt lat="43.0606575135819" lon="13.113933967842607"><ele>668.0</ele><time>2026-04-04T13:54:11Z</time></trkpt><trkpt lat="43.06070541480343" lon="13.114098110981008"><ele>668.0</ele><time>2026-04-04T13:54:12Z</time></trkpt><trkpt lat="43.0607011585444" lon="13.114269069587674"><ele>668.0</ele><time>2026-04-04T13:54:13Z</time></trkpt><trkpt lat="43.06068058279389" lon="13.114486813906394"><ele>666.6666666666666</ele><time>2026-04-04T13:54:14Z</time></trkpt><trkpt lat="43.06068716572908" lon="13.114690339070085"><ele>665.3333333333334</ele><time>2026-04-04T13:54:15Z</time></trkpt><trkpt lat="43.06075457081889" lon="13.114873263381908"><ele>664.0</ele><time>2026-04-04T13:54:16Z</time></trkpt><trkpt lat="43.06089344719931" lon="13.114972982220326"><ele>672.3333333333334</ele><time>2026-04-04T13:54:17Z</time></trkpt><trkpt lat="43.06103211526219" lon="13.115048299826771"><ele>680.6666666666666</ele><time>2026-04-04T13:54:18Z</time></trkpt><trkpt lat="43.0611796615649" lon="13.115151313560691"><ele>689.0</ele><time>2026-04-04T13:54:19Z</time></trkpt><trkpt lat="43.061334087573876" lon="13.11527959714602"><ele>689.0</ele><time>2026-04-04T13:54:20Z</time></trkpt><trkpt lat="43.06149597191195" lon="13.115425208521398"><ele>689.0</ele><time>2026-04-04T13:54:21Z</time></trkpt><trkpt lat="43.061663002247734" lon="13.1155748865675"><ele>689.0</ele><time>2026-04-04T13:54:22Z</time></trkpt><trkpt lat="43.06183833045931" lon="13.115711846418607"><ele>690.6666666666666</ele><time>2026-04-04T13:54:23Z</time></trkpt><trkpt lat="43.062009314534706" lon="13.115839554571282"><ele>692.3333333333334</ele><time>2026-04-04T13:54:24Z</time></trkpt><trkpt lat="43.062154185801965" lon="13.115976192981819"><ele>694.0</ele><time>2026-04-04T13:54:25Z</time></trkpt><trkpt lat="43.062270115311556" lon="13.116157675781908"><ele>694.0</ele><time>2026-04-04T13:54:26Z</time></trkpt><trkpt lat="43.062372968999284" lon="13.116368803359636"><ele>694.0</ele><time>2026-04-04T13:54:27Z</time></trkpt><trkpt lat="43.06248959375727" lon="13.116585750859699"><ele>694.0</ele><time>2026-04-04T13:54:28Z</time></trkpt><trkpt lat="43.06262553759858" lon="13.11677000105567"><ele>697.0</ele><time>2026-04-04T13:54:29Z</time></trkpt><trkpt lat="43.062793248296536" lon="13.11691297232687"><ele>700.0</ele><time>2026-04-04T13:54:30Z</time></trkpt><trkpt lat="43.062972545308874" lon="13.117028562096056"><ele>703.0</ele><time>2026-04-04T13:54:31Z</time></trkpt><trkpt lat="43.063164203658424" lon="13.117154126599967"><ele>703.6666666666667</ele><time>2026-04-04T13:54:32Z</time></trkpt><trkpt lat="43.06334822040024" lon="13.11724591159579"><ele>704.3333333333334</ele><time>2026-04-04T13:54:33Z</time></trkpt><trkpt lat="43.06351413663816" lon="13.117324720819793"><ele>705.0</ele><time>2026-04-04T13:54:34Z</time></trkpt><trkpt lat="43.063654756210966" lon="13.117416198256192"><ele>705.0</ele><time>2026-04-04T13:54:35Z</time></trkpt><trkpt lat="43.063757915280895" lon="13.117550063929626"><ele>705.0</ele><time>2026-04-04T13:54:36Z</time></trkpt><trkpt lat="43.06380102376507" lon="13.117713797954146"><ele>705.0</ele><time>2026-04-04T13:54:37Z</time></trkpt><trkpt lat="43.0638616478331" lon="13.117910832883071"><ele>705.0</ele><time>2026-04-04T13:54:38Z</time></trkpt><trkpt lat="43.06394883213527" lon="13.118105575614985"><ele>702.6666666666666</ele><time>2026-04-04T13:54:39Z</time></trkpt><trkpt lat="43.06405819960104" lon="13.11828776244692"><ele>700.3333333333333</ele><time>2026-04-04T13:54:40Z</time></trkpt><trkpt lat="43.06415294421303" lon="13.118480873395061"><ele>698.0</ele><time>2026-04-04T13:54:41Z</time></trkpt><trkpt lat="43.064224791882616" lon="13.118704324355665"><ele>704.0</ele><time>2026-04-04T13:54:42Z</time></trkpt><trkpt lat="43.06427720636734" lon="13.11894677917298"><ele>710.0</ele><time>2026-04-04T13:54:43Z</time></trkpt><trkpt lat="43.06433167183274" lon="13.119196684445"><ele>716.0</ele><time>2026-04-04T13:54:44Z</time></trkpt><trkpt lat="43.064379367749666" lon="13.119411745120383"><ele>716.0</ele><time>2026-04-04T13:54:45Z</time></trkpt><trkpt lat="43.06441221887289" lon="13.119584477522425"><ele>716.0</ele><time>2026-04-04T13:54:46Z</time></trkpt><trkpt lat="43.06441832153464" lon="13.119733323659789"><ele>716.0</ele><time>2026-04-04T13:54:47Z</time></trkpt><trkpt lat="43.06438722510248" lon="13.119861681058923"><ele>716.0</ele><time>2026-04-04T13:54:48Z</time></trkpt><trkpt lat="43.06433088036558" lon="13.119982065490786"><ele>716.0</ele><time>2026-04-04T13:54:49Z</time></trkpt><trkpt lat="43.06426803185454" lon="13.120048336536149"><ele>716.4</ele><time>2026-04-04T13:54:50Z</time></trkpt><trkpt lat="43.0641949978387" lon="13.120084882867785"><ele>716.8</ele><time>2026-04-04T13:54:51Z</time></trkpt><trkpt lat="43.06410226716904" lon="13.120031233584678"><ele>717.1999999999999</ele><time>2026-04-04T13:54:52Z</time></trkpt><trkpt lat="43.064014010992715" lon="13.11993211644528"><ele>717.5999999999999</ele><time>2026-04-04T13:54:53Z</time></trkpt><trkpt lat="43.063919592094805" lon="13.119883921728432"><ele>718.0</ele><time>2026-04-04T13:54:54Z</time></trkpt><trkpt lat="43.06381597344547" lon="13.119881309956904"><ele>718.0</ele><time>2026-04-04T13:54:55Z</time></trkpt><trkpt lat="43.06369897544076" lon="13.119882750235794"><ele>718.0</ele><time>2026-04-04T13:54:56Z</time></trkpt><trkpt lat="43.06358082339495" lon="13.119932225464769"><ele>718.0</ele><time>2026-04-04T13:54:57Z</time></trkpt><trkpt lat="43.06348938419943" lon="13.119990740551083"><ele>718.0</ele><time>2026-04-04T13:54:58Z</time></trkpt><trkpt lat="43.06341025788445" lon="13.12009989975101"><ele>718.0</ele><time>2026-04-04T13:54:59Z</time></trkpt><trkpt lat="43.063358621907874" lon="13.120277814868189"><ele>718.0</ele><time>2026-04-04T13:55:00Z</time></trkpt><trkpt lat="43.06332229202496" lon="13.120460272302033"><ele>718.0</ele><time>2026-04-04T13:55:01Z</time></trkpt><trkpt lat="43.063268916880894" lon="13.12063736133626"><ele>718.0</ele><time>2026-04-04T13:55:02Z</time></trkpt><trkpt lat="43.06317215309773" lon="13.12080200126412"><ele>716.3333333333334</ele><time>2026-04-04T13:55:03Z</time></trkpt><trkpt lat="43.06304336298919" lon="13.120965362421764"><ele>714.6666666666666</ele><time>2026-04-04T13:55:04Z</time></trkpt><trkpt lat="43.062903343878986" lon="13.121141899636466"><ele>713.0</ele><time>2026-04-04T13:55:05Z</time></trkpt><trkpt lat="43.062762344824186" lon="13.121313446644043"><ele>713.0</ele><time>2026-04-04T13:55:06Z</time></trkpt><trkpt lat="43.06262937353915" lon="13.121465354915273"><ele>713.0</ele><time>2026-04-04T13:55:07Z</time></trkpt><trkpt lat="43.06251922619498" lon="13.121594295564524"><ele>713.0</ele><time>2026-04-04T13:55:08Z</time></trkpt><trkpt lat="43.062436554544206" lon="13.121702221209723"><ele>713.0</ele><time>2026-04-04T13:55:09Z</time></trkpt><trkpt lat="43.06237230837686" lon="13.121817084375811"><ele>713.5</ele><time>2026-04-04T13:55:10Z</time></trkpt><trkpt lat="43.06235140336985" lon="13.121987726915116"><ele>714.0</ele><time>2026-04-04T13:55:11Z</time></trkpt><trkpt lat="43.06238845456675" lon="13.122182610937564"><ele>714.5</ele><time>2026-04-04T13:55:12Z</time></trkpt><trkpt lat="43.062428314029304" lon="13.122377295615614"><ele>715.0</ele><time>2026-04-04T13:55:13Z</time></trkpt><trkpt lat="43.06247224451226" lon="13.12258888478987"><ele>722.3333333333334</ele><time>2026-04-04T13:55:14Z</time></trkpt><trkpt lat="43.06250964791594" lon="13.122811192098327"><ele>729.6666666666666</ele><time>2026-04-04T13:55:15Z</time></trkpt><trkpt lat="43.06254496904946" lon="13.123053899759519"><ele>737.0</ele><time>2026-04-04T13:55:16Z</time></trkpt><trkpt lat="43.062576263820084" lon="13.123296957326588"><ele>737.0</ele><time>2026-04-04T13:55:17Z</time></trkpt><trkpt lat="43.06259688366139" lon="13.123532978381794"><ele>737.0</ele><time>2026-04-04T13:55:18Z</time></trkpt><trkpt lat="43.06261838770946" lon="13.12374474882292"><ele>737.0</ele><time>2026-04-04T13:55:19Z</time></trkpt><trkpt lat="43.06265238397645" lon="13.123938421582578"><ele>735.0</ele><time>2026-04-04T13:55:20Z</time></trkpt><trkpt lat="43.062723686876815" lon="13.12408860848531"><ele>733.0</ele><time>2026-04-04T13:55:21Z</time></trkpt><trkpt lat="43.062847120340024" lon="13.124190542398207"><ele>731.0</ele><time>2026-04-04T13:55:22Z</time></trkpt><trkpt lat="43.06298822702657" lon="13.124287908280492"><ele>729.0</ele><time>2026-04-04T13:55:23Z</time></trkpt><trkpt lat="43.0631396778738" lon="13.124388449365542"><ele>729.0</ele><time>2026-04-04T13:55:24Z</time></trkpt><trkpt lat="43.06328039209077" lon="13.124483099540685"><ele>729.0</ele><time>2026-04-04T13:55:25Z</time></trkpt><trkpt lat="43.063378376805495" lon="13.124572376612164"><ele>729.0</ele><time>2026-04-04T13:55:26Z</time></trkpt><trkpt lat="43.06344751690496" lon="13.124680907541793"><ele>729.0</ele><time>2026-04-04T13:55:27Z</time></trkpt><trkpt lat="43.06349080779713" lon="13.124805323026973"><ele>730.4000000000001</ele><time>2026-04-04T13:55:28Z</time></trkpt><trkpt lat="43.06351012513143" lon="13.124934692765843"><ele>731.8</ele><time>2026-04-04T13:55:29Z</time></trkpt><trkpt lat="43.063511584863505" lon="13.125064894617859"><ele>733.2</ele><time>2026-04-04T13:55:30Z</time></trkpt><trkpt lat="43.06348366090697" lon="13.125190838930951"><ele>734.5999999999999</ele><time>2026-04-04T13:55:31Z</time></trkpt><trkpt lat="43.06342280857725" lon="13.12531324236687"><ele>736.0</ele><time>2026-04-04T13:55:32Z</time></trkpt><trkpt lat="43.063343330141805" lon="13.125439756528115"><ele>732.0</ele><time>2026-04-04T13:55:33Z</time></trkpt><trkpt lat="43.06325676594951" lon="13.125569311153225"><ele>728.0</ele><time>2026-04-04T13:55:34Z</time></trkpt><trkpt lat="43.06317869487689" lon="13.125702147757336"><ele>724.0</ele><time>2026-04-04T13:55:35Z</time></trkpt><trkpt lat="43.06312190087268" lon="13.125860672894506"><ele>720.0</ele><time>2026-04-04T13:55:36Z</time></trkpt><trkpt lat="43.06312144464097" lon="13.126047396319256"><ele>720.0</ele><time>2026-04-04T13:55:37Z</time></trkpt><trkpt lat="43.06311216894553" lon="13.126207172098864"><ele>720.0</ele><time>2026-04-04T13:55:38Z</time></trkpt><trkpt lat="43.063089266445346" lon="13.126365080308458"><ele>720.0</ele><time>2026-04-04T13:55:39Z</time></trkpt><trkpt lat="43.06305057755079" lon="13.126493921318051"><ele>720.0</ele><time>2026-04-04T13:55:40Z</time></trkpt><trkpt lat="43.063006240623345" lon="13.12661269331577"><ele>720.0</ele><time>2026-04-04T13:55:41Z</time></trkpt><trkpt lat="43.06296413357735" lon="13.126734690883863"><ele>721.8</ele><time>2026-04-04T13:55:42Z</time></trkpt><trkpt lat="43.062923678221885" lon="13.12685986719479"><ele>723.6</ele><time>2026-04-04T13:55:43Z</time></trkpt><trkpt lat="43.06288904551674" lon="13.1269968200474"><ele>725.4000000000001</ele><time>2026-04-04T13:55:44Z</time></trkpt><trkpt lat="43.06287082399395" lon="13.12714346477395"><ele>727.2</ele><time>2026-04-04T13:55:45Z</time></trkpt><trkpt lat="43.062864449368675" lon="13.127278509595692"><ele>729.0</ele><time>2026-04-04T13:55:46Z</time></trkpt><trkpt lat="43.06287827598184" lon="13.12746068345835"><ele>731.3333333333334</ele><time>2026-04-04T13:55:47Z</time></trkpt><trkpt lat="43.06292961792801" lon="13.127660035726526"><ele>733.6666666666667</ele><time>2026-04-04T13:55:48Z</time></trkpt><trkpt lat="43.06298478468694" lon="13.127853966808148"><ele>736.0</ele><time>2026-04-04T13:55:49Z</time></trkpt><trkpt lat="43.06302510340741" lon="13.128043607501647"><ele>740.0</ele><time>2026-04-04T13:55:50Z</time></trkpt><trkpt lat="43.063048735575656" lon="13.128245150179287"><ele>744.0</ele><time>2026-04-04T13:55:51Z</time></trkpt><trkpt lat="43.06305292421182" lon="13.128459550854032"><ele>748.0</ele><time>2026-04-04T13:55:52Z</time></trkpt><trkpt lat="43.0630502237265" lon="13.128678249464238"><ele>748.0</ele><time>2026-04-04T13:55:53Z</time></trkpt><trkpt lat="43.0630427686204" lon="13.128882308664801"><ele>748.0</ele><time>2026-04-04T13:55:54Z</time></trkpt><trkpt lat="43.06303077839662" lon="13.12906520805803"><ele>748.0</ele><time>2026-04-04T13:55:55Z</time></trkpt><trkpt lat="43.063008027964145" lon="13.12922482337091"><ele>748.0</ele><time>2026-04-04T13:55:56Z</time></trkpt><trkpt lat="43.06296809523692" lon="13.129364010329676"><ele>748.5</ele><time>2026-04-04T13:55:57Z</time></trkpt><trkpt lat="43.062899673681954" lon="13.12948593841021"><ele>749.0</ele><time>2026-04-04T13:55:58Z</time></trkpt><trkpt lat="43.062803297381386" lon="13.129592153058832"><ele>749.5</ele><time>2026-04-04T13:55:59Z</time></trkpt><trkpt lat="43.06268524153734" lon="13.129697143181218"><ele>750.0</ele><time>2026-04-04T13:56:00Z</time></trkpt><trkpt lat="43.06255291291788" lon="13.12980614700157"><ele>744.3333333333334</ele><time>2026-04-04T13:56:01Z</time></trkpt><trkpt lat="43.062407057128574" lon="13.12992653442835"><ele>738.6666666666667</ele><time>2026-04-04T13:56:02Z</time></trkpt><trkpt lat="43.0622589603641" lon="13.130058869140363"><ele>733.0</ele><time>2026-04-04T13:56:03Z</time></trkpt><trkpt lat="43.062108365386734" lon="13.13019444766074"><ele>733.0</ele><time>2026-04-04T13:56:04Z</time></trkpt><trkpt lat="43.06196887902776" lon="13.130323114085849"><ele>733.0</ele><time>2026-04-04T13:56:05Z</time></trkpt><trkpt lat="43.06183311878758" lon="13.13044656725577"><ele>733.0</ele><time>2026-04-04T13:56:06Z</time></trkpt><trkpt lat="43.0616886190572" lon="13.13055293018388"><ele>729.3333333333334</ele><time>2026-04-04T13:56:07Z</time></trkpt><trkpt lat="43.06152833961484" lon="13.130635657691853"><ele>725.6666666666666</ele><time>2026-04-04T13:56:08Z</time></trkpt><trkpt lat="43.0613586530777" lon="13.130714018433006"><ele>722.0</ele><time>2026-04-04T13:56:09Z</time></trkpt><trkpt lat="43.06118064115493" lon="13.130724324946483"><ele>722.0</ele><time>2026-04-04T13:56:10Z</time></trkpt><trkpt lat="43.06102655616143" lon="13.13070715038663"><ele>722.0</ele><time>2026-04-04T13:56:11Z</time></trkpt><trkpt lat="43.060888033946455" lon="13.13071456089833"><ele>722.0</ele><time>2026-04-04T13:56:12Z</time></trkpt><trkpt lat="43.06073758693284" lon="13.13074885100661"><ele>722.0</ele><time>2026-04-04T13:56:13Z</time></trkpt><trkpt lat="43.06059363096593" lon="13.130866224726716"><ele>725.0</ele><time>2026-04-04T13:56:14Z</time></trkpt><trkpt lat="43.06044577913946" lon="13.131003130850168"><ele>728.0</ele><time>2026-04-04T13:56:15Z</time></trkpt><trkpt lat="43.06028913156051" lon="13.131101505392792"><ele>731.0</ele><time>2026-04-04T13:56:16Z</time></trkpt><trkpt lat="43.060105040888196" lon="13.13116301207423"><ele>728.6666666666666</ele><time>2026-04-04T13:56:17Z</time></trkpt><trkpt lat="43.05991331335437" lon="13.131207512387324"><ele>726.3333333333334</ele><time>2026-04-04T13:56:18Z</time></trkpt><trkpt lat="43.059742961032036" lon="13.131275220940816"><ele>724.0</ele><time>2026-04-04T13:56:19Z</time></trkpt><trkpt lat="43.05959595548835" lon="13.131341681194654"><ele>724.0</ele><time>2026-04-04T13:56:20Z</time></trkpt><trkpt lat="43.059458943969624" lon="13.131389081049543"><ele>724.0</ele><time>2026-04-04T13:56:21Z</time></trkpt><trkpt lat="43.0593146621902" lon="13.131396661435902"><ele>724.0</ele><time>2026-04-04T13:56:22Z</time></trkpt><trkpt lat="43.059167663335096" lon="13.131314330714066"><ele>724.0</ele><time>2026-04-04T13:56:23Z</time></trkpt><trkpt lat="43.05902213269925" lon="13.131162615451458"><ele>725.6666666666667</ele><time>2026-04-04T13:56:24Z</time></trkpt><trkpt lat="43.05888346726889" lon="13.131000815734906"><ele>727.3333333333334</ele><time>2026-04-04T13:56:25Z</time></trkpt><trkpt lat="43.058770576229136" lon="13.130827843474314"><ele>729.0</ele><time>2026-04-04T13:56:26Z</time></trkpt><trkpt lat="43.05869495035633" lon="13.130647679546973"><ele>726.4000000000001</ele><time>2026-04-04T13:56:27Z</time></trkpt><trkpt lat="43.05863177719191" lon="13.13049214390541"><ele>723.8</ele><time>2026-04-04T13:56:28Z</time></trkpt><trkpt lat="43.05859647379364" lon="13.130357866401349"><ele>721.2</ele><time>2026-04-04T13:56:29Z</time></trkpt><trkpt lat="43.0585063626608" lon="13.130285457335509"><ele>718.5999999999999</ele><time>2026-04-04T13:56:30Z</time></trkpt><trkpt lat="43.058402178587016" lon="13.130297542188183"><ele>716.0</ele><time>2026-04-04T13:56:31Z</time></trkpt><trkpt lat="43.058293063328044" lon="13.13034753215468"><ele>715.25</ele><time>2026-04-04T13:56:32Z</time></trkpt><trkpt lat="43.05821299633793" lon="13.130488122838427"><ele>714.5</ele><time>2026-04-04T13:56:33Z</time></trkpt><trkpt lat="43.058141790479056" lon="13.130644753992298"><ele>713.75</ele><time>2026-04-04T13:56:34Z</time></trkpt><trkpt lat="43.058069511754795" lon="13.1307959216353"><ele>713.0</ele><time>2026-04-04T13:56:35Z</time></trkpt><trkpt lat="43.057971117257395" lon="13.130897406325445"><ele>713.0</ele><time>2026-04-04T13:56:36Z</time></trkpt><trkpt lat="43.05783795796662" lon="13.130950491673119"><ele>713.0</ele><time>2026-04-04T13:56:37Z</time></trkpt><trkpt lat="43.05769680203865" lon="13.131009370853153"><ele>713.0</ele><time>2026-04-04T13:56:38Z</time></trkpt><trkpt lat="43.05756465721515" lon="13.131051020738377"><ele>713.0</ele><time>2026-04-04T13:56:39Z</time></trkpt><trkpt lat="43.05744315567659" lon="13.131137622929572"><ele>713.75</ele><time>2026-04-04T13:56:40Z</time></trkpt><trkpt lat="43.05735561911411" lon="13.131252993560517"><ele>714.5</ele><time>2026-04-04T13:56:41Z</time></trkpt><trkpt lat="43.05725718110259" lon="13.131348579161426"><ele>715.25</ele><time>2026-04-04T13:56:42Z</time></trkpt><trkpt lat="43.05724536470835" lon="13.131532556665492"><ele>716.0</ele><time>2026-04-04T13:56:43Z</time></trkpt><trkpt lat="43.057267725645055" lon="13.131707447069331"><ele>716.0</ele><time>2026-04-04T13:56:44Z</time></trkpt><trkpt lat="43.05728305218068" lon="13.131852074998921"><ele>716.0</ele><time>2026-04-04T13:56:45Z</time></trkpt><trkpt lat="43.057295545349305" lon="13.131958783983249"><ele>716.0</ele><time>2026-04-04T13:56:46Z</time></trkpt><trkpt lat="43.05729613771252" lon="13.132105066579348"><ele>716.0</ele><time>2026-04-04T13:56:48Z</time></trkpt><trkpt lat="43.057233530355845" lon="13.132126877162625"><ele>716.0</ele><time>2026-04-04T13:56:49Z</time></trkpt><trkpt lat="43.05714037622531" lon="13.132171234924318"><ele>716.0</ele><time>2026-04-04T13:56:50Z</time></trkpt><trkpt lat="43.057041270439186" lon="13.132266892848175"><ele>716.0</ele><time>2026-04-04T13:56:51Z</time></trkpt><trkpt lat="43.05690364086124" lon="13.132332871759552"><ele>716.0</ele><time>2026-04-04T13:56:52Z</time></trkpt><trkpt lat="43.05676915289033" lon="13.132398825654708"><ele>716.0</ele><time>2026-04-04T13:56:53Z</time></trkpt><trkpt lat="43.056624374577815" lon="13.13246499174476"><ele>718.0</ele><time>2026-04-04T13:56:54Z</time></trkpt><trkpt lat="43.05646258591896" lon="13.132507724674195"><ele>720.0</ele><time>2026-04-04T13:56:55Z</time></trkpt><trkpt lat="43.056313522598714" lon="13.132611332270711"><ele>722.0</ele><time>2026-04-04T13:56:56Z</time></trkpt><trkpt lat="43.05616574218432" lon="13.132720491759736"><ele>722.0</ele><time>2026-04-04T13:56:57Z</time></trkpt><trkpt lat="43.056008518537105" lon="13.132812099304795"><ele>722.0</ele><time>2026-04-04T13:56:58Z</time></trkpt><trkpt lat="43.05584362783809" lon="13.132888908289768"><ele>722.0</ele><time>2026-04-04T13:56:59Z</time></trkpt><trkpt lat="43.05566960147816" lon="13.132961908640787"><ele>722.6666666666666</ele><time>2026-04-04T13:57:00Z</time></trkpt><trkpt lat="43.05549257456732" lon="13.133036193831893"><ele>723.3333333333334</ele><time>2026-04-04T13:57:01Z</time></trkpt><trkpt lat="43.055315027402216" lon="13.133110827216958"><ele>724.0</ele><time>2026-04-04T13:57:02Z</time></trkpt><trkpt lat="43.055142557240124" lon="13.133183326589851"><ele>728.6666666666667</ele><time>2026-04-04T13:57:03Z</time></trkpt><trkpt lat="43.05497818458006" lon="13.133253053752348"><ele>733.3333333333334</ele><time>2026-04-04T13:57:04Z</time></trkpt><trkpt lat="43.05483440234901" lon="13.133319224530027"><ele>738.0</ele><time>2026-04-04T13:57:05Z</time></trkpt><trkpt lat="43.0547094622675" lon="13.133371588200497"><ele>739.0</ele><time>2026-04-04T13:57:06Z</time></trkpt><trkpt lat="43.05459355833966" lon="13.133397485748242"><ele>740.0</ele><time>2026-04-04T13:57:07Z</time></trkpt><trkpt lat="43.05448308570924" lon="13.1333706647756"><ele>741.0</ele><time>2026-04-04T13:57:08Z</time></trkpt><trkpt lat="43.05439160442457" lon="13.133245670475167"><ele>742.0</ele><time>2026-04-04T13:57:09Z</time></trkpt><trkpt lat="43.054340373715824" lon="13.133073444336832"><ele>740.75</ele><time>2026-04-04T13:57:10Z</time></trkpt><trkpt lat="43.054280631804296" lon="13.132935835305515"><ele>739.5</ele><time>2026-04-04T13:57:11Z</time></trkpt><trkpt lat="43.05418030401132" lon="13.132874417390445"><ele>738.25</ele><time>2026-04-04T13:57:12Z</time></trkpt><trkpt lat="43.05407054916369" lon="13.132846048555646"><ele>737.0</ele><time>2026-04-04T13:57:13Z</time></trkpt><trkpt lat="43.05394304406335" lon="13.132909095773893"><ele>737.0</ele><time>2026-04-04T13:57:14Z</time></trkpt><trkpt lat="43.05382485871471" lon="13.133062072084789"><ele>737.0</ele><time>2026-04-04T13:57:15Z</time></trkpt><trkpt lat="43.053720111512646" lon="13.133235802219012"><ele>737.0</ele><time>2026-04-04T13:57:16Z</time></trkpt><trkpt lat="43.05362063006543" lon="13.133415207125939"><ele>740.0</ele><time>2026-04-04T13:57:17Z</time></trkpt><trkpt lat="43.053506801513024" lon="13.133571249564731"><ele>743.0</ele><time>2026-04-04T13:57:18Z</time></trkpt><trkpt lat="43.05337051756744" lon="13.13371171470884"><ele>746.0</ele><time>2026-04-04T13:57:18.999Z</time></trkpt><trkpt lat="43.05323365090055" lon="13.133830385686409"><ele>748.0</ele><time>2026-04-04T13:57:19.999Z</time></trkpt><trkpt lat="43.05308663787779" lon="13.133944731911036"><ele>750.0</ele><time>2026-04-04T13:57:20.999Z</time></trkpt><trkpt lat="43.05293159094013" lon="13.13405729807682"><ele>752.0</ele><time>2026-04-04T13:57:21.999Z</time></trkpt><trkpt lat="43.05276816522348" lon="13.134151855209439"><ele>755.3333333333333</ele><time>2026-04-04T13:57:22.999Z</time></trkpt><trkpt lat="43.052597668269996" lon="13.134224786229083"><ele>758.6666666666666</ele><time>2026-04-04T13:57:24Z</time></trkpt><trkpt lat="43.05242270608063" lon="13.134274185939459"><ele>762.0</ele><time>2026-04-04T13:57:25Z</time></trkpt><trkpt lat="43.052264618292966" lon="13.134304179913988"><ele>762.8</ele><time>2026-04-04T13:57:26Z</time></trkpt><trkpt lat="43.05213523368174" lon="13.134325048886657"><ele>763.6</ele><time>2026-04-04T13:57:27Z</time></trkpt><trkpt lat="43.05202988498106" lon="13.134352159457803"><ele>764.4</ele><time>2026-04-04T13:57:28Z</time></trkpt><trkpt lat="43.051956222564115" lon="13.134429119017911"><ele>765.1999999999999</ele><time>2026-04-04T13:57:29Z</time></trkpt><trkpt lat="43.05192164508386" lon="13.13453576398529"><ele>766.0</ele><time>2026-04-04T13:57:30Z</time></trkpt><trkpt lat="43.05201246412614" lon="13.134682600494877"><ele>766.0</ele><time>2026-04-04T13:57:31Z</time></trkpt><trkpt lat="43.05215257134652" lon="13.134648082426349"><ele>766.0</ele><time>2026-04-04T13:57:32Z</time></trkpt><trkpt lat="43.05227750519669" lon="13.134614125593345"><ele>766.0</ele><time>2026-04-04T13:57:33Z</time></trkpt><trkpt lat="43.05242556426995" lon="13.134579624437938"><ele>766.0</ele><time>2026-04-04T13:57:34Z</time></trkpt><trkpt lat="43.05258917949001" lon="13.134551519666074"><ele>765.1999999999999</ele><time>2026-04-04T13:57:35Z</time></trkpt><trkpt lat="43.05273678241747" lon="13.134524551942393"><ele>764.4</ele><time>2026-04-04T13:57:36Z</time></trkpt><trkpt lat="43.05285257410949" lon="13.13450152829005"><ele>763.6</ele><time>2026-04-04T13:57:37Z</time></trkpt><trkpt lat="43.05294073322984" lon="13.134487582676414"><ele>762.8</ele><time>2026-04-04T13:57:38Z</time></trkpt><trkpt lat="43.05301905405783" lon="13.134501740138429"><ele>762.0</ele><time>2026-04-04T13:57:39Z</time></trkpt><trkpt lat="43.053048451603416" lon="13.134621441688461"><ele>762.0</ele><time>2026-04-04T13:57:40Z</time></trkpt><trkpt lat="43.05303980098117" lon="13.134735980691655"><ele>762.0</ele><time>2026-04-04T13:57:41Z</time></trkpt><trkpt lat="43.052976473170595" lon="13.134844761417936"><ele>762.0</ele><time>2026-04-04T13:57:42Z</time></trkpt><trkpt lat="43.05291205893296" lon="13.135005109746226"><ele>762.0</ele><time>2026-04-04T13:57:43Z</time></trkpt><trkpt lat="43.05285491728936" lon="13.135168514787136"><ele>766.0</ele><time>2026-04-04T13:57:44Z</time></trkpt><trkpt lat="43.05286102611538" lon="13.13538275273778"><ele>770.0</ele><time>2026-04-04T13:57:45Z</time></trkpt><trkpt lat="43.05292019025094" lon="13.135554915497298"><ele>774.0</ele><time>2026-04-04T13:57:46Z</time></trkpt><trkpt lat="43.05304387285946" lon="13.135654760296557"><ele>778.0</ele><time>2026-04-04T13:57:47Z</time></trkpt><trkpt lat="43.05316999458094" lon="13.135718521260682"><ele>777.25</ele><time>2026-04-04T13:57:48Z</time></trkpt><trkpt lat="43.05331178565138" lon="13.135753501863903"><ele>776.5</ele><time>2026-04-04T13:57:49Z</time></trkpt><trkpt lat="43.05344618375339" lon="13.13580133963976"><ele>775.75</ele><time>2026-04-04T13:57:50Z</time></trkpt><trkpt lat="43.05353434172263" lon="13.135894073250997"><ele>775.0</ele><time>2026-04-04T13:57:51Z</time></trkpt><trkpt lat="43.05358882254726" lon="13.135984635071887"><ele>775.0</ele><time>2026-04-04T13:57:52Z</time></trkpt><trkpt lat="43.053592391246205" lon="13.136086621201452"><ele>775.0</ele><time>2026-04-04T13:57:53Z</time></trkpt><trkpt lat="43.05353741242492" lon="13.136181198063841"><ele>775.0</ele><time>2026-04-04T13:57:54Z</time></trkpt><trkpt lat="43.05345364907915" lon="13.136268592147564"><ele>775.0</ele><time>2026-04-04T13:57:55Z</time></trkpt><trkpt lat="43.053328032134395" lon="13.136376502116878"><ele>775.0</ele><time>2026-04-04T13:57:56Z</time></trkpt><trkpt lat="43.05318634687129" lon="13.136468070024295"><ele>778.0</ele><time>2026-04-04T13:57:57Z</time></trkpt><trkpt lat="43.05305102506616" lon="13.136526896562886"><ele>781.0</ele><time>2026-04-04T13:57:58Z</time></trkpt><trkpt lat="43.052888437606015" lon="13.136586936664507"><ele>784.0</ele><time>2026-04-04T13:57:59Z</time></trkpt><trkpt lat="43.052716296909814" lon="13.136651802207385"><ele>784.0</ele><time>2026-04-04T13:58:00Z</time></trkpt><trkpt lat="43.05255542336088" lon="13.136713053726803"><ele>784.0</ele><time>2026-04-04T13:58:01Z</time></trkpt><trkpt lat="43.05240250865775" lon="13.136778409912962"><ele>784.0</ele><time>2026-04-04T13:58:02Z</time></trkpt><trkpt lat="43.052251417327234" lon="13.136894844306939"><ele>788.3333333333333</ele><time>2026-04-04T13:58:03Z</time></trkpt><trkpt lat="43.05211889666108" lon="13.137029889343859"><ele>792.6666666666667</ele><time>2026-04-04T13:58:04Z</time></trkpt><trkpt lat="43.05198939111799" lon="13.137183447480302"><ele>797.0</ele><time>2026-04-04T13:58:05Z</time></trkpt><trkpt lat="43.05188919732376" lon="13.137379166940162"><ele>796.0</ele><time>2026-04-04T13:58:06Z</time></trkpt><trkpt lat="43.05180665638977" lon="13.137570638151711"><ele>795.0</ele><time>2026-04-04T13:58:07Z</time></trkpt><trkpt lat="43.0517117207238" lon="13.13775130998141"><ele>794.0</ele><time>2026-04-04T13:58:08Z</time></trkpt><trkpt lat="43.05159633524255" lon="13.137912190024636"><ele>796.0</ele><time>2026-04-04T13:58:09Z</time></trkpt><trkpt lat="43.051469096100256" lon="13.13805220714985"><ele>798.0</ele><time>2026-04-04T13:58:10Z</time></trkpt><trkpt lat="43.05132942099375" lon="13.138182263337853"><ele>800.0</ele><time>2026-04-04T13:58:11Z</time></trkpt><trkpt lat="43.05117964261674" lon="13.138309526134314"><ele>800.0</ele><time>2026-04-04T13:58:12Z</time></trkpt><trkpt lat="43.05101900686271" lon="13.13844112236568"><ele>800.0</ele><time>2026-04-04T13:58:13Z</time></trkpt><trkpt lat="43.05086049592474" lon="13.138601445797628"><ele>800.0</ele><time>2026-04-04T13:58:14Z</time></trkpt><trkpt lat="43.05070717741122" lon="13.138764023394717"><ele>803.0</ele><time>2026-04-04T13:58:15Z</time></trkpt><trkpt lat="43.05055023127246" lon="13.138926992552484"><ele>806.0</ele><time>2026-04-04T13:58:16Z</time></trkpt><trkpt lat="43.05039097405774" lon="13.139085345695923"><ele>809.0</ele><time>2026-04-04T13:58:17Z</time></trkpt><trkpt lat="43.05022732689146" lon="13.139238604663785"><ele>809.0</ele><time>2026-04-04T13:58:18Z</time></trkpt><trkpt lat="43.05006526350979" lon="13.13939004005825"><ele>809.0</ele><time>2026-04-04T13:58:19Z</time></trkpt><trkpt lat="43.04989831601194" lon="13.139531259455207"><ele>809.0</ele><time>2026-04-04T13:58:20Z</time></trkpt><trkpt lat="43.04974648674513" lon="13.139730363062322"><ele>813.3333333333334</ele><time>2026-04-04T13:58:21Z</time></trkpt><trkpt lat="43.04961260573259" lon="13.139939453209536"><ele>817.6666666666667</ele><time>2026-04-04T13:58:22Z</time></trkpt><trkpt lat="43.04948226727061" lon="13.140136160276715"><ele>822.0</ele><time>2026-04-04T13:58:23Z</time></trkpt><trkpt lat="43.04934192348111" lon="13.140311186291637"><ele>822.0</ele><time>2026-04-04T13:58:24Z</time></trkpt><trkpt lat="43.04920373167895" lon="13.140453283314166"><ele>822.0</ele><time>2026-04-04T13:58:25Z</time></trkpt><trkpt lat="43.049072895697584" lon="13.140589984859846"><ele>822.0</ele><time>2026-04-04T13:58:26Z</time></trkpt><trkpt lat="43.04895411098141" lon="13.14073206291257"><ele>825.0</ele><time>2026-04-04T13:58:27Z</time></trkpt><trkpt lat="43.04886884708867" lon="13.140972141317597"><ele>828.0</ele><time>2026-04-04T13:58:28Z</time></trkpt><trkpt lat="43.048820569024905" lon="13.14121499220406"><ele>831.0</ele><time>2026-04-04T13:58:29Z</time></trkpt><trkpt lat="43.04877146120755" lon="13.14144076421188"><ele>825.0</ele><time>2026-04-04T13:58:30Z</time></trkpt><trkpt lat="43.04871037233722" lon="13.141632536884176"><ele>819.0</ele><time>2026-04-04T13:58:31Z</time></trkpt><trkpt lat="43.048619413852485" lon="13.141812825754878"><ele>813.0</ele><time>2026-04-04T13:58:32Z</time></trkpt><trkpt lat="43.04852715476918" lon="13.141968596772928"><ele>813.0</ele><time>2026-04-04T13:58:33Z</time></trkpt><trkpt lat="43.048431747366884" lon="13.142097330764104"><ele>813.0</ele><time>2026-04-04T13:58:34Z</time></trkpt><trkpt lat="43.04833096084202" lon="13.142221649309626"><ele>813.0</ele><time>2026-04-04T13:58:35Z</time></trkpt><trkpt lat="43.048229150806485" lon="13.14233875113722"><ele>813.0</ele><time>2026-04-04T13:58:36Z</time></trkpt><trkpt lat="43.04812595683818" lon="13.142467462610183"><ele>808.3333333333333</ele><time>2026-04-04T13:58:37Z</time></trkpt><trkpt lat="43.04802582317211" lon="13.142613737793036"><ele>803.6666666666666</ele><time>2026-04-04T13:58:38Z</time></trkpt><trkpt lat="43.04793550200511" lon="13.142804817829253"><ele>799.0</ele><time>2026-04-04T13:58:39Z</time></trkpt><trkpt lat="43.04786133531418" lon="13.142997765282365"><ele>796.6666666666666</ele><time>2026-04-04T13:58:40Z</time></trkpt><trkpt lat="43.0478062709497" lon="13.143218498377692"><ele>794.3333333333333</ele><time>2026-04-04T13:58:41Z</time></trkpt><trkpt lat="43.04779059289457" lon="13.14347028552652"><ele>792.0</ele><time>2026-04-04T13:58:42Z</time></trkpt><trkpt lat="43.047772518179094" lon="13.143708957205506"><ele>792.0</ele><time>2026-04-04T13:58:43Z</time></trkpt><trkpt lat="43.04773614265779" lon="13.143940035819373"><ele>792.0</ele><time>2026-04-04T13:58:44Z</time></trkpt><trkpt lat="43.047680423458196" lon="13.144157062746524"><ele>792.0</ele><time>2026-04-04T13:58:45Z</time></trkpt><trkpt lat="43.047600011281304" lon="13.144347112957933"><ele>792.4000000000001</ele><time>2026-04-04T13:58:46Z</time></trkpt><trkpt lat="43.047511390374865" lon="13.144504687504574"><ele>792.8000000000001</ele><time>2026-04-04T13:58:47Z</time></trkpt><trkpt lat="43.04742500670471" lon="13.144630610660174"><ele>793.2</ele><time>2026-04-04T13:58:48Z</time></trkpt><trkpt lat="43.04734974640654" lon="13.144726021768834"><ele>793.6</ele><time>2026-04-04T13:58:49Z</time></trkpt><trkpt lat="43.047295379147485" lon="13.144776379143668"><ele>794.0</ele><time>2026-04-04T13:58:50Z</time></trkpt><trkpt lat="43.047186773120536" lon="13.14472872421606"><ele>790.0</ele><time>2026-04-04T13:58:52Z</time></trkpt><trkpt lat="43.04718513659856" lon="13.14459132674659"><ele>786.0</ele><time>2026-04-04T13:58:53Z</time></trkpt><trkpt lat="43.047231523970694" lon="13.14441746459125"><ele>782.0</ele><time>2026-04-04T13:58:54Z</time></trkpt><trkpt lat="43.047280796748176" lon="13.144219239178145"><ele>778.0</ele><time>2026-04-04T13:58:55Z</time></trkpt><trkpt lat="43.04732078093308" lon="13.144014247502486"><ele>778.0</ele><time>2026-04-04T13:58:56Z</time></trkpt><trkpt lat="43.04733922522234" lon="13.14381075902232"><ele>778.0</ele><time>2026-04-04T13:58:57Z</time></trkpt><trkpt lat="43.04730345735999" lon="13.143622591480453"><ele>778.0</ele><time>2026-04-04T13:58:58Z</time></trkpt><trkpt lat="43.04721854345884" lon="13.143456694549453"><ele>778.0</ele><time>2026-04-04T13:58:59Z</time></trkpt><trkpt lat="43.047084189114635" lon="13.143320438975131"><ele>778.0</ele><time>2026-04-04T13:59:00Z</time></trkpt><trkpt lat="43.04691448217088" lon="13.143224437006864"><ele>778.0</ele><time>2026-04-04T13:59:01Z</time></trkpt><trkpt lat="43.046726928447264" lon="13.143126613942863"><ele>778.0</ele><time>2026-04-04T13:59:02Z</time></trkpt><trkpt lat="43.046541293094535" lon="13.143007921717906"><ele>779.0</ele><time>2026-04-04T13:59:03Z</time></trkpt><trkpt lat="43.04636622475207" lon="13.142894694604376"><ele>780.0</ele><time>2026-04-04T13:59:04Z</time></trkpt><trkpt lat="43.04620121298906" lon="13.14279245604063"><ele>781.0</ele><time>2026-04-04T13:59:05Z</time></trkpt><trkpt lat="43.04603913425109" lon="13.142717090682511"><ele>781.0</ele><time>2026-04-04T13:59:06Z</time></trkpt><trkpt lat="43.04585196745493" lon="13.142706242181088"><ele>781.0</ele><time>2026-04-04T13:59:07Z</time></trkpt><trkpt lat="43.0456591730033" lon="13.142752148007448"><ele>781.0</ele><time>2026-04-04T13:59:08Z</time></trkpt><trkpt lat="43.045485248942946" lon="13.142797302480044"><ele>781.6666666666666</ele><time>2026-04-04T13:59:09Z</time></trkpt><trkpt lat="43.045326899143696" lon="13.142864892894634"><ele>782.3333333333333</ele><time>2026-04-04T13:59:10Z</time></trkpt><trkpt lat="43.04515273674086" lon="13.142948490656309"><ele>783.0</ele><time>2026-04-04T13:59:11Z</time></trkpt><trkpt lat="43.04498800097885" lon="13.143094607812522"><ele>777.3333333333334</ele><time>2026-04-04T13:59:12Z</time></trkpt><trkpt lat="43.044829429823544" lon="13.143249784404352"><ele>771.6666666666667</ele><time>2026-04-04T13:59:13Z</time></trkpt><trkpt lat="43.0446656550453" lon="13.143412809620914"><ele>766.0</ele><time>2026-04-04T13:59:14Z</time></trkpt><trkpt lat="43.044501067865994" lon="13.143576280304822"><ele>766.0</ele><time>2026-04-04T13:59:15Z</time></trkpt><trkpt lat="43.044346986974" lon="13.143728717078398"><ele>766.0</ele><time>2026-04-04T13:59:16Z</time></trkpt><trkpt lat="43.044197517910646" lon="13.143876228250567"><ele>766.0</ele><time>2026-04-04T13:59:17Z</time></trkpt><trkpt lat="43.04406632679227" lon="13.144005249897605"><ele>763.0</ele><time>2026-04-04T13:59:18Z</time></trkpt><trkpt lat="43.04394584151384" lon="13.144117869676542"><ele>760.0</ele><time>2026-04-04T13:59:19Z</time></trkpt><trkpt lat="43.04382315552144" lon="13.14420154799603"><ele>757.0</ele><time>2026-04-04T13:59:20Z</time></trkpt><trkpt lat="43.04366894421672" lon="13.14423159908497"><ele>754.0</ele><time>2026-04-04T13:59:21Z</time></trkpt><trkpt lat="43.043492834365345" lon="13.14422771494359"><ele>754.0</ele><time>2026-04-04T13:59:22Z</time></trkpt><trkpt lat="43.043326242145326" lon="13.144198731849363"><ele>754.0</ele><time>2026-04-04T13:59:23Z</time></trkpt><trkpt lat="43.04318585401243" lon="13.144178882603093"><ele>754.0</ele><time>2026-04-04T13:59:24Z</time></trkpt><trkpt lat="43.043069761183155" lon="13.144164665954127"><ele>754.0</ele><time>2026-04-04T13:59:25Z</time></trkpt><trkpt lat="43.042980422933155" lon="13.144157269415174"><ele>751.8000000000001</ele><time>2026-04-04T13:59:26Z</time></trkpt><trkpt lat="43.042900662771395" lon="13.144154248229004"><ele>749.6</ele><time>2026-04-04T13:59:27Z</time></trkpt><trkpt lat="43.04282132004113" lon="13.144227654970017"><ele>747.4</ele><time>2026-04-04T13:59:28Z</time></trkpt><trkpt lat="43.04278448282012" lon="13.144373682479664"><ele>745.2</ele><time>2026-04-04T13:59:29Z</time></trkpt><trkpt lat="43.04287167444041" lon="13.144556846157384"><ele>743.0</ele><time>2026-04-04T13:59:30Z</time></trkpt><trkpt lat="43.04301860779153" lon="13.144654287400744"><ele>743.0</ele><time>2026-04-04T13:59:31Z</time></trkpt><trkpt lat="43.04318585365274" lon="13.14469819547751"><ele>743.0</ele><time>2026-04-04T13:59:32Z</time></trkpt><trkpt lat="43.04335456687026" lon="13.144764095121296"><ele>743.0</ele><time>2026-04-04T13:59:33Z</time></trkpt><trkpt lat="43.04349133650645" lon="13.144800366899014"><ele>742.5</ele><time>2026-04-04T13:59:34Z</time></trkpt><trkpt lat="43.043592066404564" lon="13.144835787255266"><ele>742.0</ele><time>2026-04-04T13:59:35Z</time></trkpt><trkpt lat="43.043661727329116" lon="13.144886710254768"><ele>741.5</ele><time>2026-04-04T13:59:36Z</time></trkpt><trkpt lat="43.04368592093298" lon="13.144970572452229"><ele>741.0</ele><time>2026-04-04T13:59:37Z</time></trkpt><trkpt lat="43.043663525332065" lon="13.145054106043435"><ele>740.5</ele><time>2026-04-04T13:59:38Z</time></trkpt><trkpt lat="43.04360999451553" lon="13.145126997954675"><ele>740.0</ele><time>2026-04-04T13:59:39Z</time></trkpt><trkpt lat="43.04349540093157" lon="13.145183384697015"><ele>740.0</ele><time>2026-04-04T13:59:40Z</time></trkpt><trkpt lat="43.04332454428073" lon="13.145256123401984"><ele>740.0</ele><time>2026-04-04T13:59:41Z</time></trkpt><trkpt lat="43.04313574333373" lon="13.1453397168907"><ele>740.0</ele><time>2026-04-04T13:59:42Z</time></trkpt><trkpt lat="43.04296505455495" lon="13.145414623615501"><ele>737.6666666666666</ele><time>2026-04-04T13:59:43Z</time></trkpt><trkpt lat="43.04281363831395" lon="13.145476176498176"><ele>735.3333333333334</ele><time>2026-04-04T13:59:44Z</time></trkpt><trkpt lat="43.04267528607124" lon="13.145525790255428"><ele>733.0</ele><time>2026-04-04T13:59:45Z</time></trkpt><trkpt lat="43.04252888453178" lon="13.145489578314926"><ele>727.0</ele><time>2026-04-04T13:59:46Z</time></trkpt><trkpt lat="43.04238058558085" lon="13.14539124763825"><ele>721.0</ele><time>2026-04-04T13:59:47Z</time></trkpt><trkpt lat="43.04225048588795" lon="13.145235128810546"><ele>715.0</ele><time>2026-04-04T13:59:48Z</time></trkpt><trkpt lat="43.042134044934734" lon="13.145039234863335"><ele>716.6666666666667</ele><time>2026-04-04T13:59:49Z</time></trkpt><trkpt lat="43.04202933422316" lon="13.14481673230781"><ele>718.3333333333334</ele><time>2026-04-04T13:59:50Z</time></trkpt><trkpt lat="43.04193995517605" lon="13.144571783303881"><ele>720.0</ele><time>2026-04-04T13:59:51Z</time></trkpt><trkpt lat="43.04185631130258" lon="13.14434464958117"><ele>720.0</ele><time>2026-04-04T13:59:52Z</time></trkpt><trkpt lat="43.04176689730473" lon="13.14413656655415"><ele>720.0</ele><time>2026-04-04T13:59:53Z</time></trkpt><trkpt lat="43.04168425462818" lon="13.143941883248466"><ele>720.0</ele><time>2026-04-04T13:59:54Z</time></trkpt><trkpt lat="43.04161266824508" lon="13.143780649908367"><ele>720.25</ele><time>2026-04-04T13:59:55Z</time></trkpt><trkpt lat="43.04155005104762" lon="13.143646666443363"><ele>720.5</ele><time>2026-04-04T13:59:56Z</time></trkpt><trkpt lat="43.04148099194817" lon="13.143537598436343"><ele>720.75</ele><time>2026-04-04T13:59:57Z</time></trkpt><trkpt lat="43.04138446765884" lon="13.143469291295858"><ele>721.0</ele><time>2026-04-04T13:59:58Z</time></trkpt><trkpt lat="43.04125651916841" lon="13.143452738248794"><ele>721.0</ele><time>2026-04-04T13:59:59Z</time></trkpt><trkpt lat="43.04110707143943" lon="13.143496501137141"><ele>721.0</ele><time>2026-04-04T14:00:00Z</time></trkpt><trkpt lat="43.04093428398684" lon="13.143564365597715"><ele>721.0</ele><time>2026-04-04T14:00:01Z</time></trkpt><trkpt lat="43.04074508353231" lon="13.14366325668275"><ele>722.6666666666667</ele><time>2026-04-04T14:00:02Z</time></trkpt><trkpt lat="43.04056341086956" lon="13.143756175855057"><ele>724.3333333333334</ele><time>2026-04-04T14:00:03Z</time></trkpt><trkpt lat="43.040389782724084" lon="13.143843128617242"><ele>726.0</ele><time>2026-04-04T14:00:04Z</time></trkpt><trkpt lat="43.040231365314035" lon="13.143917468101362"><ele>726.0</ele><time>2026-04-04T14:00:05Z</time></trkpt><trkpt lat="43.04009708889052" lon="13.143980479109056"><ele>726.0</ele><time>2026-04-04T14:00:06Z</time></trkpt><trkpt lat="43.03997802498364" lon="13.144036006668907"><ele>726.0</ele><time>2026-04-04T14:00:07Z</time></trkpt><trkpt lat="43.03988366078455" lon="13.14409252524076"><ele>726.0</ele><time>2026-04-04T14:00:08Z</time></trkpt><trkpt lat="43.039805222630605" lon="13.14418298249028"><ele>726.5</ele><time>2026-04-04T14:00:09Z</time></trkpt><trkpt lat="43.03975480635664" lon="13.144357511042722"><ele>727.0</ele><time>2026-04-04T14:00:10Z</time></trkpt><trkpt lat="43.03981939174552" lon="13.144554266697176"><ele>727.5</ele><time>2026-04-04T14:00:11Z</time></trkpt><trkpt lat="43.03990819979745" lon="13.144697557354753"><ele>728.0</ele><time>2026-04-04T14:00:12Z</time></trkpt><trkpt lat="43.039989954119186" lon="13.144856631849402"><ele>723.5</ele><time>2026-04-04T14:00:13Z</time></trkpt><trkpt lat="43.04005034195377" lon="13.14501759910247"><ele>719.0</ele><time>2026-04-04T14:00:14Z</time></trkpt><trkpt lat="43.040062548189084" lon="13.145182892525884"><ele>714.5</ele><time>2026-04-04T14:00:15Z</time></trkpt><trkpt lat="43.04004268932644" lon="13.14533005013998"><ele>710.0</ele><time>2026-04-04T14:00:16Z</time></trkpt><trkpt lat="43.03999434214502" lon="13.145472269063282"><ele>716.0</ele><time>2026-04-04T14:00:17Z</time></trkpt><trkpt lat="43.03991862184515" lon="13.145620773914729"><ele>722.0</ele><time>2026-04-04T14:00:18Z</time></trkpt><trkpt lat="43.03984139190038" lon="13.145764497651074"><ele>728.0</ele><time>2026-04-04T14:00:19Z</time></trkpt><trkpt lat="43.03977493622503" lon="13.145886755817788"><ele>734.0</ele><time>2026-04-04T14:00:20Z</time></trkpt><trkpt lat="43.03972856899802" lon="13.14600080477809"><ele>734.0</ele><time>2026-04-04T14:00:21Z</time></trkpt><trkpt lat="43.03971767331188" lon="13.146143568050531"><ele>734.0</ele><time>2026-04-04T14:00:22Z</time></trkpt><trkpt lat="43.03976485794494" lon="13.146269621060364"><ele>734.0</ele><time>2026-04-04T14:00:23Z</time></trkpt><trkpt lat="43.03981809163311" lon="13.146326143344952"><ele>734.0</ele><time>2026-04-04T14:00:24Z</time></trkpt><trkpt lat="43.03982870144835" lon="13.146445831412123"><ele>734.0</ele><time>2026-04-04T14:00:26Z</time></trkpt><trkpt lat="43.039762730014594" lon="13.146490611813322"><ele>734.0</ele><time>2026-04-04T14:00:27Z</time></trkpt><trkpt lat="43.03970616985469" lon="13.146587374047616"><ele>733.0</ele><time>2026-04-04T14:00:28Z</time></trkpt><trkpt lat="43.039638226909865" lon="13.146716239471518"><ele>732.0</ele><time>2026-04-04T14:00:29Z</time></trkpt><trkpt lat="43.03956962685091" lon="13.146859562375184"><ele>731.0</ele><time>2026-04-04T14:00:30Z</time></trkpt><trkpt lat="43.03949409794951" lon="13.147016103673089"><ele>730.0</ele><time>2026-04-04T14:00:31Z</time></trkpt><trkpt lat="43.03941385195783" lon="13.14718142084706"><ele>730.0</ele><time>2026-04-04T14:00:32Z</time></trkpt><trkpt lat="43.039334945607926" lon="13.147335266431341"><ele>730.0</ele><time>2026-04-04T14:00:33Z</time></trkpt><trkpt lat="43.03924673454379" lon="13.14746209487151"><ele>730.0</ele><time>2026-04-04T14:00:34Z</time></trkpt><trkpt lat="43.039140042300076" lon="13.147547025249763"><ele>730.0</ele><time>2026-04-04T14:00:35Z</time></trkpt><trkpt lat="43.03902296082454" lon="13.147646476527308"><ele>731.75</ele><time>2026-04-04T14:00:36Z</time></trkpt><trkpt lat="43.03890568649282" lon="13.1477442526561"><ele>733.5</ele><time>2026-04-04T14:00:37Z</time></trkpt><trkpt lat="43.03879252563032" lon="13.147848108293058"><ele>735.25</ele><time>2026-04-04T14:00:38Z</time></trkpt><trkpt lat="43.038700898802425" lon="13.147963591538957"><ele>737.0</ele><time>2026-04-04T14:00:39Z</time></trkpt><trkpt lat="43.03864242918298" lon="13.148128326551781"><ele>735.25</ele><time>2026-04-04T14:00:40Z</time></trkpt><trkpt lat="43.03862562237013" lon="13.148285246733813"><ele>733.5</ele><time>2026-04-04T14:00:41Z</time></trkpt><trkpt lat="43.038686641994154" lon="13.14847765562639"><ele>731.75</ele><time>2026-04-04T14:00:42Z</time></trkpt><trkpt lat="43.03876461058737" lon="13.14864459882706"><ele>730.0</ele><time>2026-04-04T14:00:43Z</time></trkpt><trkpt lat="43.038847966077405" lon="13.148813398592466"><ele>730.0</ele><time>2026-04-04T14:00:44Z</time></trkpt><trkpt lat="43.038922331125946" lon="13.14896974894009"><ele>730.0</ele><time>2026-04-04T14:00:45Z</time></trkpt><trkpt lat="43.03896982491278" lon="13.149100429101688"><ele>730.0</ele><time>2026-04-04T14:00:46Z</time></trkpt><trkpt lat="43.038998602883574" lon="13.149220719802178"><ele>730.0</ele><time>2026-04-04T14:00:47Z</time></trkpt><trkpt lat="43.0389474637543" lon="13.149391537405515"><ele>729.75</ele><time>2026-04-04T14:00:49Z</time></trkpt><trkpt lat="43.038876422854486" lon="13.149506886487204"><ele>729.5</ele><time>2026-04-04T14:00:50Z</time></trkpt><trkpt lat="43.03877398565073" lon="13.149649825829437"><ele>729.25</ele><time>2026-04-04T14:00:51Z</time></trkpt><trkpt lat="43.03867994442966" lon="13.14982019899896"><ele>729.0</ele><time>2026-04-04T14:00:52Z</time></trkpt><trkpt lat="43.03861302353021" lon="13.150002229989942"><ele>729.0</ele><time>2026-04-04T14:00:53Z</time></trkpt><trkpt lat="43.03855410035314" lon="13.1501773676715"><ele>729.0</ele><time>2026-04-04T14:00:54Z</time></trkpt><trkpt lat="43.03850014552892" lon="13.150338943188874"><ele>729.0</ele><time>2026-04-04T14:00:55Z</time></trkpt><trkpt lat="43.03845272787797" lon="13.150492974412613"><ele>729.0</ele><time>2026-04-04T14:00:56Z</time></trkpt><trkpt lat="43.038421904834856" lon="13.150650005574104"><ele>728.25</ele><time>2026-04-04T14:00:57Z</time></trkpt><trkpt lat="43.03841430435356" lon="13.150806035458963"><ele>727.5</ele><time>2026-04-04T14:00:58Z</time></trkpt><trkpt lat="43.03845805822052" lon="13.150959612476877"><ele>726.75</ele><time>2026-04-04T14:00:59Z</time></trkpt><trkpt lat="43.03854008884284" lon="13.151092335598277"><ele>726.0</ele><time>2026-04-04T14:01:00Z</time></trkpt><trkpt lat="43.03860714315077" lon="13.151207094937597"><ele>726.0</ele><time>2026-04-04T14:01:01Z</time></trkpt><trkpt lat="43.03866325344741" lon="13.151324666409659"><ele>726.0</ele><time>2026-04-04T14:01:02Z</time></trkpt><trkpt lat="43.038674877046844" lon="13.151435910759627"><ele>726.0</ele><time>2026-04-04T14:01:03Z</time></trkpt><trkpt lat="43.03864419084299" lon="13.151559313393586"><ele>726.0</ele><time>2026-04-04T14:01:04Z</time></trkpt><trkpt lat="43.03861084951042" lon="13.151733686953435"><ele>726.0</ele><time>2026-04-04T14:01:05Z</time></trkpt><trkpt lat="43.03857304115" lon="13.151932444728555"><ele>726.0</ele><time>2026-04-04T14:01:06Z</time></trkpt><trkpt lat="43.03853764099249" lon="13.152142551468865"><ele>726.0</ele><time>2026-04-04T14:01:07Z</time></trkpt><trkpt lat="43.038511538844055" lon="13.152367800650797"><ele>726.0</ele><time>2026-04-04T14:01:08Z</time></trkpt><trkpt lat="43.038491030069764" lon="13.152593746866591"><ele>726.0</ele><time>2026-04-04T14:01:09Z</time></trkpt><trkpt lat="43.03851664612531" lon="13.152824288435188"><ele>726.0</ele><time>2026-04-04T14:01:10Z</time></trkpt><trkpt lat="43.03848030745124" lon="13.15302858188165"><ele>726.0</ele><time>2026-04-04T14:01:11Z</time></trkpt><trkpt lat="43.03841569572607" lon="13.15322072987639"><ele>724.75</ele><time>2026-04-04T14:01:12Z</time></trkpt><trkpt lat="43.03831933391167" lon="13.153377312183599"><ele>723.5</ele><time>2026-04-04T14:01:13Z</time></trkpt><trkpt lat="43.03817830831986" lon="13.153418453903509"><ele>722.25</ele><time>2026-04-04T14:01:14Z</time></trkpt><trkpt lat="43.03805525080194" lon="13.153482790261549"><ele>721.0</ele><time>2026-04-04T14:01:15Z</time></trkpt><trkpt lat="43.03793043408638" lon="13.153494621452861"><ele>724.0</ele><time>2026-04-04T14:01:16Z</time></trkpt><trkpt lat="43.03779437958387" lon="13.153485480201805"><ele>727.0</ele><time>2026-04-04T14:01:17Z</time></trkpt><trkpt lat="43.03765901141712" lon="13.15341203152456"><ele>730.0</ele><time>2026-04-04T14:01:18Z</time></trkpt><trkpt lat="43.037531637763124" lon="13.15332988841022"><ele>733.0</ele><time>2026-04-04T14:01:19Z</time></trkpt><trkpt lat="43.03741133745863" lon="13.153283623134996"><ele>736.0</ele><time>2026-04-04T14:01:20Z</time></trkpt><trkpt lat="43.037294301618374" lon="13.153273148005088"><ele>739.0</ele><time>2026-04-04T14:01:21Z</time></trkpt><trkpt lat="43.037181216702834" lon="13.153321559237144"><ele>742.0</ele><time>2026-04-04T14:01:22Z</time></trkpt><trkpt lat="43.037089235764356" lon="13.153467371944455"><ele>745.0</ele><time>2026-04-04T14:01:23Z</time></trkpt><trkpt lat="43.03704943238991" lon="13.153668493750345"><ele>745.0</ele><time>2026-04-04T14:01:24Z</time></trkpt><trkpt lat="43.03702221437595" lon="13.153837480886676"><ele>745.0</ele><time>2026-04-04T14:01:25Z</time></trkpt><trkpt lat="43.0369760483928" lon="13.154006370072432"><ele>745.0</ele><time>2026-04-04T14:01:26Z</time></trkpt><trkpt lat="43.03689702169688" lon="13.154166830328379"><ele>745.0</ele><time>2026-04-04T14:01:27Z</time></trkpt><trkpt lat="43.036826276376814" lon="13.154350932823178"><ele>742.0</ele><time>2026-04-04T14:01:28Z</time></trkpt><trkpt lat="43.03675840998651" lon="13.154543624219041"><ele>739.0</ele><time>2026-04-04T14:01:29Z</time></trkpt><trkpt lat="43.03676135920063" lon="13.154773048166032"><ele>736.0</ele><time>2026-04-04T14:01:30Z</time></trkpt><trkpt lat="43.036721785721426" lon="13.154959790415566"><ele>736.0</ele><time>2026-04-04T14:01:31Z</time></trkpt><trkpt lat="43.03668284070684" lon="13.155151684803009"><ele>736.0</ele><time>2026-04-04T14:01:32Z</time></trkpt><trkpt lat="43.03664535614433" lon="13.155341911978411"><ele>736.0</ele><time>2026-04-04T14:01:33Z</time></trkpt><trkpt lat="43.03656121942647" lon="13.155517456516193"><ele>736.0</ele><time>2026-04-04T14:01:34Z</time></trkpt><trkpt lat="43.03652207354262" lon="13.15571259727455"><ele>736.0</ele><time>2026-04-04T14:01:35Z</time></trkpt><trkpt lat="43.03648321500902" lon="13.155908411901542"><ele>736.0</ele><time>2026-04-04T14:01:36Z</time></trkpt><trkpt lat="43.03649853625159" lon="13.156124383394033"><ele>736.0</ele><time>2026-04-04T14:01:37Z</time></trkpt><trkpt lat="43.03646482197603" lon="13.156323534581425"><ele>736.0</ele><time>2026-04-04T14:01:38Z</time></trkpt><trkpt lat="43.036424939162586" lon="13.156522334556481"><ele>736.0</ele><time>2026-04-04T14:01:39Z</time></trkpt><trkpt lat="43.0363880190695" lon="13.15672145199709"><ele>736.0</ele><time>2026-04-04T14:01:40Z</time></trkpt><trkpt lat="43.03635359426507" lon="13.156905932209874"><ele>736.0</ele><time>2026-04-04T14:01:41Z</time></trkpt><trkpt lat="43.03632280899936" lon="13.1570758455113"><ele>736.0</ele><time>2026-04-04T14:01:42Z</time></trkpt><trkpt lat="43.03631130483742" lon="13.157236979175664"><ele>736.0</ele><time>2026-04-04T14:01:43Z</time></trkpt><trkpt lat="43.03627843954092" lon="13.157429594620883"><ele>736.0</ele><time>2026-04-04T14:01:44Z</time></trkpt><trkpt lat="43.036304061552464" lon="13.157613257496259"><ele>736.0</ele><time>2026-04-04T14:01:45Z</time></trkpt><trkpt lat="43.03633045287269" lon="13.157804370862028"><ele>734.3333333333334</ele><time>2026-04-04T14:01:46Z</time></trkpt><trkpt lat="43.03642904065382" lon="13.15799444754139"><ele>732.6666666666666</ele><time>2026-04-04T14:01:47Z</time></trkpt><trkpt lat="43.03646685639518" lon="13.15819682163014"><ele>731.0</ele><time>2026-04-04T14:01:48Z</time></trkpt><trkpt lat="43.03650280751548" lon="13.158383321591474"><ele>732.0</ele><time>2026-04-04T14:01:49Z</time></trkpt><trkpt lat="43.03655869303274" lon="13.158564382346896"><ele>733.0</ele><time>2026-04-04T14:01:50Z</time></trkpt><trkpt lat="43.03659692162969" lon="13.15878505790413"><ele>734.0</ele><time>2026-04-04T14:01:51Z</time></trkpt><trkpt lat="43.036701531314186" lon="13.158966000364872"><ele>728.6666666666666</ele><time>2026-04-04T14:01:52Z</time></trkpt><trkpt lat="43.03680674390187" lon="13.159149018974928"><ele>723.3333333333334</ele><time>2026-04-04T14:01:53Z</time></trkpt><trkpt lat="43.03691880588905" lon="13.159341251141463"><ele>718.0</ele><time>2026-04-04T14:01:54Z</time></trkpt><trkpt lat="43.03703133367559" lon="13.159541457338163"><ele>718.0</ele><time>2026-04-04T14:01:55Z</time></trkpt><trkpt lat="43.037143346207124" lon="13.159753383927093"><ele>718.0</ele><time>2026-04-04T14:01:56Z</time></trkpt><trkpt lat="43.0372487269008" lon="13.15996853474219"><ele>718.0</ele><time>2026-04-04T14:01:57Z</time></trkpt><trkpt lat="43.03734440015102" lon="13.160178523471455"><ele>719.6666666666667</ele><time>2026-04-04T14:01:58Z</time></trkpt><trkpt lat="43.03743594134079" lon="13.160373420781253"><ele>721.3333333333334</ele><time>2026-04-04T14:01:59Z</time></trkpt><trkpt lat="43.037519471862474" lon="13.160544095177624"><ele>723.0</ele><time>2026-04-04T14:02:00Z</time></trkpt><trkpt lat="43.03761912236046" lon="13.160690976431868"><ele>717.6666666666666</ele><time>2026-04-04T14:02:01Z</time></trkpt><trkpt lat="43.03775865878224" lon="13.160796178973287"><ele>712.3333333333333</ele><time>2026-04-04T14:02:02Z</time></trkpt><trkpt lat="43.037913917905364" lon="13.160849459074155"><ele>707.0</ele><time>2026-04-04T14:02:03Z</time></trkpt><trkpt lat="43.03806073909319" lon="13.160900638141271"><ele>707.0</ele><time>2026-04-04T14:02:04Z</time></trkpt><trkpt lat="43.03822501574941" lon="13.160914248076978"><ele>707.0</ele><time>2026-04-04T14:02:05Z</time></trkpt><trkpt lat="43.0383883148576" lon="13.160931508334151"><ele>707.0</ele><time>2026-04-04T14:02:06Z</time></trkpt><trkpt lat="43.038558832936374" lon="13.160948530467515"><ele>708.0</ele><time>2026-04-04T14:02:07Z</time></trkpt><trkpt lat="43.038729206696374" lon="13.160968392966016"><ele>709.0</ele><time>2026-04-04T14:02:08Z</time></trkpt><trkpt lat="43.038890436031316" lon="13.160981703590556"><ele>710.0</ele><time>2026-04-04T14:02:09Z</time></trkpt><trkpt lat="43.03905343124186" lon="13.160982627265355"><ele>707.6666666666666</ele><time>2026-04-04T14:02:10Z</time></trkpt><trkpt lat="43.03922690031875" lon="13.160971312453578"><ele>705.3333333333334</ele><time>2026-04-04T14:02:11Z</time></trkpt><trkpt lat="43.03939874166764" lon="13.16093694450992"><ele>703.0</ele><time>2026-04-04T14:02:12Z</time></trkpt><trkpt lat="43.039573967098" lon="13.160897346747056"><ele>703.0</ele><time>2026-04-04T14:02:13Z</time></trkpt><trkpt lat="43.039755213877754" lon="13.16087174390389"><ele>703.0</ele><time>2026-04-04T14:02:14Z</time></trkpt><trkpt lat="43.03994076561659" lon="13.160850075813311"><ele>703.0</ele><time>2026-04-04T14:02:15Z</time></trkpt><trkpt lat="43.04012679973935" lon="13.16083151032944"><ele>702.0</ele><time>2026-04-04T14:02:16Z</time></trkpt><trkpt lat="43.04031478271342" lon="13.160830052388777"><ele>701.0</ele><time>2026-04-04T14:02:17Z</time></trkpt><trkpt lat="43.04050751395849" lon="13.160858788130618"><ele>700.0</ele><time>2026-04-04T14:02:18Z</time></trkpt><trkpt lat="43.040691946381486" lon="13.160903091235365"><ele>699.3333333333334</ele><time>2026-04-04T14:02:19Z</time></trkpt><trkpt lat="43.04086779330187" lon="13.16094341846515"><ele>698.6666666666666</ele><time>2026-04-04T14:02:20Z</time></trkpt><trkpt lat="43.041027123252086" lon="13.160976160696169"><ele>698.0</ele><time>2026-04-04T14:02:21Z</time></trkpt><trkpt lat="43.04116291747381" lon="13.161004737097482"><ele>698.0</ele><time>2026-04-04T14:02:22Z</time></trkpt><trkpt lat="43.041286463434155" lon="13.161029780063027"><ele>698.0</ele><time>2026-04-04T14:02:23Z</time></trkpt><trkpt lat="43.04138169607533" lon="13.161042385229422"><ele>698.0</ele><time>2026-04-04T14:02:24Z</time></trkpt><trkpt lat="43.04146089549483" lon="13.161067503464162"><ele>698.0</ele><time>2026-04-04T14:02:25Z</time></trkpt><trkpt lat="43.041491105102054" lon="13.16115517571935"><ele>698.0</ele><time>2026-04-04T14:02:26Z</time></trkpt><trkpt lat="43.04145222806774" lon="13.161270330618692"><ele>698.0</ele><time>2026-04-04T14:02:28Z</time></trkpt><trkpt lat="43.041297571483355" lon="13.161262280163363"><ele>698.0</ele><time>2026-04-04T14:02:30Z</time></trkpt><trkpt lat="43.04117796134496" lon="13.161232181749439"><ele>698.0</ele><time>2026-04-04T14:02:31Z</time></trkpt><trkpt lat="43.04103312397491" lon="13.161219321489828"><ele>698.0</ele><time>2026-04-04T14:02:32Z</time></trkpt><trkpt lat="43.04088041659803" lon="13.161190191549997"><ele>698.6666666666666</ele><time>2026-04-04T14:02:33Z</time></trkpt><trkpt lat="43.0407226857472" lon="13.161204313489561"><ele>699.3333333333334</ele><time>2026-04-04T14:02:34Z</time></trkpt><trkpt lat="43.04056082755665" lon="13.16121803620753"><ele>700.0</ele><time>2026-04-04T14:02:35Z</time></trkpt><trkpt lat="43.04039243739958" lon="13.16125080871646"><ele>700.0</ele><time>2026-04-04T14:02:36Z</time></trkpt><trkpt lat="43.04021917867281" lon="13.161242552649284"><ele>700.0</ele><time>2026-04-04T14:02:37Z</time></trkpt><trkpt lat="43.040039205114496" lon="13.161285520648951"><ele>700.0</ele><time>2026-04-04T14:02:38Z</time></trkpt><trkpt lat="43.039867387693604" lon="13.161365708896295"><ele>701.0</ele><time>2026-04-04T14:02:39Z</time></trkpt><trkpt lat="43.03969751885266" lon="13.161470790336107"><ele>702.0</ele><time>2026-04-04T14:02:40Z</time></trkpt><trkpt lat="43.03952984436221" lon="13.161604058907878"><ele>703.0</ele><time>2026-04-04T14:02:41Z</time></trkpt><trkpt lat="43.03936557725136" lon="13.161739967185886"><ele>700.6666666666667</ele><time>2026-04-04T14:02:42Z</time></trkpt><trkpt lat="43.039196636972" lon="13.161874638046973"><ele>698.3333333333334</ele><time>2026-04-04T14:02:43Z</time></trkpt><trkpt lat="43.039023947706575" lon="13.161996828678632"><ele>696.0</ele><time>2026-04-04T14:02:44Z</time></trkpt><trkpt lat="43.03884883954365" lon="13.162099571102797"><ele>696.0</ele><time>2026-04-04T14:02:45Z</time></trkpt><trkpt lat="43.03867898587045" lon="13.162190790585207"><ele>696.0</ele><time>2026-04-04T14:02:46Z</time></trkpt><trkpt lat="43.03852281842888" lon="13.16231060601146"><ele>696.0</ele><time>2026-04-04T14:02:47Z</time></trkpt><trkpt lat="43.03837864047346" lon="13.162472206534755"><ele>692.3333333333334</ele><time>2026-04-04T14:02:48Z</time></trkpt><trkpt lat="43.03825897453581" lon="13.162677730415625"><ele>688.6666666666667</ele><time>2026-04-04T14:02:49Z</time></trkpt><trkpt lat="43.03815420636389" lon="13.162900308441472"><ele>685.0</ele><time>2026-04-04T14:02:50Z</time></trkpt><trkpt lat="43.03805588487882" lon="13.163105173516993"><ele>677.0</ele><time>2026-04-04T14:02:51Z</time></trkpt><trkpt lat="43.037954077897474" lon="13.163278393883111"><ele>669.0</ele><time>2026-04-04T14:02:52Z</time></trkpt><trkpt lat="43.03785196271065" lon="13.16343379820972"><ele>661.0</ele><time>2026-04-04T14:02:53Z</time></trkpt><trkpt lat="43.0377530899208" lon="13.16357896263157"><ele>661.0</ele><time>2026-04-04T14:02:54Z</time></trkpt><trkpt lat="43.03766984288644" lon="13.163710931150415"><ele>661.0</ele><time>2026-04-04T14:02:55Z</time></trkpt><trkpt lat="43.037607213205725" lon="13.163830358745164"><ele>661.0</ele><time>2026-04-04T14:02:56Z</time></trkpt><trkpt lat="43.03756828221063" lon="13.163957945368859"><ele>661.0</ele><time>2026-04-04T14:02:57Z</time></trkpt><trkpt lat="43.037611001385415" lon="13.164154002215971"><ele>655.75</ele><time>2026-04-04T14:02:58Z</time></trkpt><trkpt lat="43.0377293483374" lon="13.164297178462332"><ele>650.5</ele><time>2026-04-04T14:02:59Z</time></trkpt><trkpt lat="43.037815102930544" lon="13.164448328079398"><ele>645.25</ele><time>2026-04-04T14:03:00Z</time></trkpt><trkpt lat="43.03790756106365" lon="13.16461129341661"><ele>640.0</ele><time>2026-04-04T14:03:01Z</time></trkpt><trkpt lat="43.03800203198427" lon="13.164778331692716"><ele>639.5</ele><time>2026-04-04T14:03:02Z</time></trkpt><trkpt lat="43.038093085831726" lon="13.164939362108102"><ele>639.0</ele><time>2026-04-04T14:03:03Z</time></trkpt><trkpt lat="43.03818027990344" lon="13.165080807525259"><ele>638.5</ele><time>2026-04-04T14:03:04Z</time></trkpt><trkpt lat="43.038269249154304" lon="13.165157710730453"><ele>638.0</ele><time>2026-04-04T14:03:05Z</time></trkpt><trkpt lat="43.03835961394055" lon="13.165206154014964"><ele>638.8333333333333</ele><time>2026-04-04T14:03:06Z</time></trkpt><trkpt lat="43.03845840112749" lon="13.165195925782893"><ele>639.6666666666666</ele><time>2026-04-04T14:03:07Z</time></trkpt><trkpt lat="43.03854329122145" lon="13.165183901516649"><ele>640.5</ele><time>2026-04-04T14:03:08Z</time></trkpt><trkpt lat="43.03861844029269" lon="13.165209974844089"><ele>641.3333333333334</ele><time>2026-04-04T14:03:09Z</time></trkpt><trkpt lat="43.038685658400496" lon="13.165274857013447"><ele>642.1666666666667</ele><time>2026-04-04T14:03:10Z</time></trkpt><trkpt lat="43.03873519189583" lon="13.16536374035242"><ele>643.0</ele><time>2026-04-04T14:03:11Z</time></trkpt><trkpt lat="43.03875628322982" lon="13.16547519981486"><ele>643.0</ele><time>2026-04-04T14:03:13Z</time></trkpt><trkpt lat="43.0386950488907" lon="13.165522123642736"><ele>643.0</ele><time>2026-04-04T14:03:15Z</time></trkpt><trkpt lat="43.038947799456196" lon="13.165575417928226"><ele>643.0</ele><time>2026-04-04T14:03:23Z</time></trkpt><trkpt lat="43.03902000949279" lon="13.165586105452444"><ele>643.0</ele><time>2026-04-04T14:03:24Z</time></trkpt><trkpt lat="43.03910060544231" lon="13.165576884495433"><ele>644.4</ele><time>2026-04-04T14:03:25Z</time></trkpt><trkpt lat="43.03919005799719" lon="13.165567065819495"><ele>645.8</ele><time>2026-04-04T14:03:26Z</time></trkpt><trkpt lat="43.03928228361517" lon="13.16553570125942"><ele>647.2</ele><time>2026-04-04T14:03:27Z</time></trkpt><trkpt lat="43.03937803807201" lon="13.165524172746968"><ele>648.6</ele><time>2026-04-04T14:03:28Z</time></trkpt><trkpt lat="43.039474957438436" lon="13.165535578213612"><ele>650.0</ele><time>2026-04-04T14:03:29Z</time></trkpt><trkpt lat="43.03957173355547" lon="13.165517717910085"><ele>650.0</ele><time>2026-04-04T14:03:30Z</time></trkpt><trkpt lat="43.03966034656005" lon="13.165507619287066"><ele>650.0</ele><time>2026-04-04T14:03:31Z</time></trkpt><trkpt lat="43.03974587119362" lon="13.165502355037946"><ele>650.0</ele><time>2026-04-04T14:03:32Z</time></trkpt><trkpt lat="43.039814133668976" lon="13.165461294677621"><ele>650.0</ele><time>2026-04-04T14:03:33Z</time></trkpt><trkpt lat="43.03990496994928" lon="13.16545790861811"><ele>650.0</ele><time>2026-04-04T14:03:35Z</time></trkpt><trkpt lat="43.03997307185514" lon="13.165435318210877"><ele>650.0</ele><time>2026-04-04T14:03:37Z</time></trkpt><trkpt lat="43.040063152853534" lon="13.165395958736921"><ele>649.2</ele><time>2026-04-04T14:03:39Z</time></trkpt><trkpt lat="43.04014860233387" lon="13.165328683841897"><ele>648.4</ele><time>2026-04-04T14:03:41Z</time></trkpt><trkpt lat="43.040225643898864" lon="13.165237239126252"><ele>647.5999999999999</ele><time>2026-04-04T14:03:43Z</time></trkpt><trkpt lat="43.04027713120393" lon="13.165126727553973"><ele>646.8</ele><time>2026-04-04T14:03:45Z</time></trkpt><trkpt lat="43.040261725455096" lon="13.165008050190243"><ele>646.0</ele><time>2026-04-04T14:03:47Z</time></trkpt><trkpt lat="43.04040070455813" lon="13.165012329687304"><ele>646.0000000000001</ele><time>2026-04-04T14:04:32Z</time></trkpt><trkpt lat="43.04036570642638" lon="13.16509387019219"><ele>646.0</ele><time>2026-04-04T14:04:43Z</time></trkpt><trkpt lat="43.04033311349055" lon="13.16517550427014"><ele>646.0</ele><time>2026-04-04T14:04:50Z</time></trkpt><trkpt lat="43.04029454614129" lon="13.165259028676195"><ele>646.0</ele><time>2026-04-04T14:04:58Z</time></trkpt><trkpt lat="43.040255336113056" lon="13.165333250376852"><ele>646.0</ele><time>2026-04-04T14:05:03Z</time></trkpt><trkpt lat="43.04026271322075" lon="13.165432993263655"><ele>646.0000000000001</ele><time>2026-04-04T14:05:10Z</time></trkpt><trkpt lat="43.04024617031953" lon="13.165520642350675"><ele>646.0</ele><time>2026-04-04T14:05:15Z</time></trkpt><trkpt lat="43.04024325077641" lon="13.165625049291302"><ele>646.0000000000001</ele><time>2026-04-04T14:05:20Z</time></trkpt><trkpt lat="43.04031641354095" lon="13.16563668689345"><ele>646.0</ele><time>2026-04-04T14:05:27Z</time></trkpt><trkpt lat="43.04037749954679" lon="13.165612784920572"><ele>646.0</ele><time>2026-04-04T14:05:32Z</time></trkpt><trkpt lat="43.04043871292917" lon="13.165591535666222"><ele>646.0</ele><time>2026-04-04T14:05:37Z</time></trkpt><trkpt lat="43.04045884693673" lon="13.1656765768349"><ele>646.0</ele><time>2026-04-04T14:05:42Z</time></trkpt><trkpt lat="43.04049748911608" lon="13.165758083029107"><ele>646.0000000000001</ele><time>2026-04-04T14:05:51Z</time></trkpt><trkpt lat="43.040477317022365" lon="13.165666514624297"><ele>646.0</ele><time>2026-04-04T14:06:00Z</time></trkpt><trkpt lat="43.0404298432816" lon="13.165593218155017"><ele>646.0000000000001</ele><time>2026-04-04T14:06:06Z</time></trkpt><trkpt lat="43.040359736361516" lon="13.165598712454862"><ele>646.0</ele><time>2026-04-04T14:06:11Z</time></trkpt><trkpt lat="43.04029294375625" lon="13.16563942811069"><ele>646.0</ele><time>2026-04-04T14:06:17Z</time></trkpt><trkpt lat="43.0402532784446" lon="13.165557448344227"><ele>646.0</ele><time>2026-04-04T14:06:25Z</time></trkpt><trkpt lat="43.04025181751592" lon="13.165450291834135"><ele>646.0</ele><time>2026-04-04T14:06:31Z</time></trkpt><trkpt lat="43.04027649940446" lon="13.165367918317004"><ele>646.0000000000001</ele><time>2026-04-04T14:06:37Z</time></trkpt><trkpt lat="43.040327790213475" lon="13.165305004583963"><ele>646.0</ele><time>2026-04-04T14:06:43Z</time></trkpt><trkpt lat="43.04038719968908" lon="13.165248752485722"><ele>646.0000000000001</ele><time>2026-04-04T14:06:49Z</time></trkpt><trkpt lat="43.04043500096069" lon="13.165184843225827"><ele>646.0</ele><time>2026-04-04T14:06:55Z</time></trkpt><trkpt lat="43.04046769313103" lon="13.165100317942766"><ele>646.0</ele><time>2026-04-04T14:07:02Z</time></trkpt><trkpt lat="43.04051150958397" lon="13.1650296226105"><ele>646.0</ele><time>2026-04-04T14:07:08Z</time></trkpt><trkpt lat="43.04054804291787" lon="13.164953472918977"><ele>646.0</ele><time>2026-04-04T14:07:15Z</time></trkpt><trkpt lat="43.04056620022632" lon="13.16486188954946"><ele>646.0000000000001</ele><time>2026-04-04T14:07:22Z</time></trkpt><trkpt lat="43.04059142030832" lon="13.164772257732109"><ele>646.0</ele><time>2026-04-04T14:07:29Z</time></trkpt><trkpt lat="43.040651769284366" lon="13.164714927612701"><ele>643.0</ele><time>2026-04-04T14:07:36Z</time></trkpt><trkpt lat="43.04070416269329" lon="13.164662537823132"><ele>643.0</ele><time>2026-04-04T14:07:43Z</time></trkpt><trkpt lat="43.0407599508311" lon="13.16470765319138"><ele>643.0</ele><time>2026-04-04T14:07:49Z</time></trkpt></trkseg></trk></gpx>